<?xml version="1.0" encoding="UTF-8" standalone="no" ?>
<gpx xmlns="http://www.topografix.com/GPX/1/1" xmlns:xsi="http://www.w3.org/2001/XMLSchema-instance" xsi:schemaLocation="http://www.topografix.com/GPX/1/1 http://www.topografix.com/GPX/1/1/gpx.xsd" version="1.1" creator="VisuGPX - https://www.visugpx.com">
  <metadata>
    <name>Grande boucle balcons de Miribel et Aiguenoire</name>
    <desc><![CDATA[Une bonne boucle sympa!]]></desc>
  </metadata>
  <trk>
    <name><![CDATA[Grande boucle]]></name>
    <trkseg>
      <trkpt lat="45.43851" lon="5.77197">
        <ele>405.9</ele>
        <time>2019-04-26T07:39:09Z</time>
      </trkpt>
      <trkpt lat="45.43848" lon="5.77199">
        <ele>405.8</ele>
        <time>2019-04-26T07:39:11Z</time>
      </trkpt>
      <trkpt lat="45.43847" lon="5.77194">
        <ele>405.7</ele>
        <time>2019-04-26T07:39:34Z</time>
      </trkpt>
      <trkpt lat="45.43848" lon="5.77185">
        <ele>405.4</ele>
        <time>2019-04-26T07:39:36Z</time>
      </trkpt>
      <trkpt lat="45.43849" lon="5.7718">
        <ele>405.2</ele>
        <time>2019-04-26T07:39:37Z</time>
      </trkpt>
      <trkpt lat="45.4385" lon="5.77174">
        <ele>405</ele>
        <time>2019-04-26T07:39:38Z</time>
      </trkpt>
      <trkpt lat="45.4385" lon="5.77169">
        <ele>404.8</ele>
        <time>2019-04-26T07:39:39Z</time>
      </trkpt>
      <trkpt lat="45.4385" lon="5.77163">
        <ele>404.6</ele>
        <time>2019-04-26T07:39:40Z</time>
      </trkpt>
      <trkpt lat="45.43848" lon="5.77157">
        <ele>404.4</ele>
        <time>2019-04-26T07:39:41Z</time>
      </trkpt>
      <trkpt lat="45.43849" lon="5.77152">
        <ele>404.1</ele>
        <time>2019-04-26T07:39:42Z</time>
      </trkpt>
      <trkpt lat="45.43847" lon="5.77145">
        <ele>404.1</ele>
        <time>2019-04-26T07:39:43Z</time>
      </trkpt>
      <trkpt lat="45.43846" lon="5.77136">
        <ele>404.1</ele>
        <time>2019-04-26T07:39:44Z</time>
      </trkpt>
      <trkpt lat="45.43845" lon="5.77129">
        <ele>404.1</ele>
        <time>2019-04-26T07:39:45Z</time>
      </trkpt>
      <trkpt lat="45.43843" lon="5.77121">
        <ele>404.2</ele>
        <time>2019-04-26T07:39:46Z</time>
      </trkpt>
      <trkpt lat="45.43843" lon="5.77113">
        <ele>404.2</ele>
        <time>2019-04-26T07:39:47Z</time>
      </trkpt>
      <trkpt lat="45.43842" lon="5.77106">
        <ele>404.2</ele>
        <time>2019-04-26T07:39:48Z</time>
      </trkpt>
      <trkpt lat="45.43841" lon="5.77098">
        <ele>404.3</ele>
        <time>2019-04-26T07:39:49Z</time>
      </trkpt>
      <trkpt lat="45.4384" lon="5.7709">
        <ele>404.3</ele>
        <time>2019-04-26T07:39:50Z</time>
      </trkpt>
      <trkpt lat="45.43839" lon="5.77086">
        <ele>404.4</ele>
        <time>2019-04-26T07:39:52Z</time>
      </trkpt>
      <trkpt lat="45.43838" lon="5.7708">
        <ele>404.4</ele>
        <time>2019-04-26T07:39:53Z</time>
      </trkpt>
      <trkpt lat="45.43825" lon="5.77049">
        <ele>404.7</ele>
        <time>2019-04-26T07:39:55Z</time>
      </trkpt>
      <trkpt lat="45.43822" lon="5.77041">
        <ele>404.8</ele>
        <time>2019-04-26T07:39:56Z</time>
      </trkpt>
      <trkpt lat="45.43816" lon="5.77034">
        <ele>404.7</ele>
        <time>2019-04-26T07:39:57Z</time>
      </trkpt>
      <trkpt lat="45.43812" lon="5.77027">
        <ele>404.6</ele>
        <time>2019-04-26T07:39:58Z</time>
      </trkpt>
      <trkpt lat="45.43807" lon="5.77024">
        <ele>404.5</ele>
        <time>2019-04-26T07:39:59Z</time>
      </trkpt>
      <trkpt lat="45.43802" lon="5.7702">
        <ele>404.5</ele>
        <time>2019-04-26T07:40:00Z</time>
      </trkpt>
      <trkpt lat="45.43796" lon="5.77015">
        <ele>404.5</ele>
        <time>2019-04-26T07:40:01Z</time>
      </trkpt>
      <trkpt lat="45.4379" lon="5.77011">
        <ele>404.4</ele>
        <time>2019-04-26T07:40:02Z</time>
      </trkpt>
      <trkpt lat="45.43784" lon="5.77008">
        <ele>404.4</ele>
        <time>2019-04-26T07:40:03Z</time>
      </trkpt>
      <trkpt lat="45.43778" lon="5.77003">
        <ele>404.4</ele>
        <time>2019-04-26T07:40:04Z</time>
      </trkpt>
      <trkpt lat="45.43771" lon="5.76999">
        <ele>404.4</ele>
        <time>2019-04-26T07:40:05Z</time>
      </trkpt>
      <trkpt lat="45.43765" lon="5.76995">
        <ele>404.4</ele>
        <time>2019-04-26T07:40:06Z</time>
      </trkpt>
      <trkpt lat="45.43759" lon="5.7699">
        <ele>404.5</ele>
        <time>2019-04-26T07:40:07Z</time>
      </trkpt>
      <trkpt lat="45.43752" lon="5.76985">
        <ele>404.5</ele>
        <time>2019-04-26T07:40:08Z</time>
      </trkpt>
      <trkpt lat="45.43745" lon="5.76981">
        <ele>404.5</ele>
        <time>2019-04-26T07:40:09Z</time>
      </trkpt>
      <trkpt lat="45.43739" lon="5.76975">
        <ele>404.5</ele>
        <time>2019-04-26T07:40:10Z</time>
      </trkpt>
      <trkpt lat="45.43733" lon="5.76969">
        <ele>404.3</ele>
        <time>2019-04-26T07:40:11Z</time>
      </trkpt>
      <trkpt lat="45.43728" lon="5.7696">
        <ele>404.2</ele>
        <time>2019-04-26T07:40:12Z</time>
      </trkpt>
      <trkpt lat="45.43724" lon="5.76952">
        <ele>404.1</ele>
        <time>2019-04-26T07:40:13Z</time>
      </trkpt>
      <trkpt lat="45.4372" lon="5.76943">
        <ele>404</ele>
        <time>2019-04-26T07:40:14Z</time>
      </trkpt>
      <trkpt lat="45.43716" lon="5.76933">
        <ele>403.8</ele>
        <time>2019-04-26T07:40:15Z</time>
      </trkpt>
      <trkpt lat="45.43714" lon="5.76923">
        <ele>403.6</ele>
        <time>2019-04-26T07:40:16Z</time>
      </trkpt>
      <trkpt lat="45.43712" lon="5.76913">
        <ele>403.3</ele>
        <time>2019-04-26T07:40:17Z</time>
      </trkpt>
      <trkpt lat="45.4371" lon="5.76903">
        <ele>403</ele>
        <time>2019-04-26T07:40:18Z</time>
      </trkpt>
      <trkpt lat="45.43708" lon="5.76894">
        <ele>402.7</ele>
        <time>2019-04-26T07:40:19Z</time>
      </trkpt>
      <trkpt lat="45.43705" lon="5.76884">
        <ele>402.4</ele>
        <time>2019-04-26T07:40:20Z</time>
      </trkpt>
      <trkpt lat="45.43705" lon="5.76876">
        <ele>402.2</ele>
        <time>2019-04-26T07:40:21Z</time>
      </trkpt>
      <trkpt lat="45.43704" lon="5.76867">
        <ele>402.1</ele>
        <time>2019-04-26T07:40:22Z</time>
      </trkpt>
      <trkpt lat="45.43704" lon="5.76858">
        <ele>401.9</ele>
        <time>2019-04-26T07:40:23Z</time>
      </trkpt>
      <trkpt lat="45.43703" lon="5.76848">
        <ele>401.8</ele>
        <time>2019-04-26T07:40:24Z</time>
      </trkpt>
      <trkpt lat="45.43702" lon="5.7684">
        <ele>401.8</ele>
        <time>2019-04-26T07:40:25Z</time>
      </trkpt>
      <trkpt lat="45.43702" lon="5.7683">
        <ele>401.7</ele>
        <time>2019-04-26T07:40:26Z</time>
      </trkpt>
      <trkpt lat="45.43701" lon="5.76821">
        <ele>401.6</ele>
        <time>2019-04-26T07:40:27Z</time>
      </trkpt>
      <trkpt lat="45.43701" lon="5.76811">
        <ele>401.5</ele>
        <time>2019-04-26T07:40:28Z</time>
      </trkpt>
      <trkpt lat="45.43701" lon="5.76802">
        <ele>401.3</ele>
        <time>2019-04-26T07:40:29Z</time>
      </trkpt>
      <trkpt lat="45.43701" lon="5.76793">
        <ele>401.2</ele>
        <time>2019-04-26T07:40:30Z</time>
      </trkpt>
      <trkpt lat="45.43702" lon="5.76783">
        <ele>401.1</ele>
        <time>2019-04-26T07:40:31Z</time>
      </trkpt>
      <trkpt lat="45.43702" lon="5.76774">
        <ele>401</ele>
        <time>2019-04-26T07:40:32Z</time>
      </trkpt>
      <trkpt lat="45.43702" lon="5.76764">
        <ele>401</ele>
        <time>2019-04-26T07:40:33Z</time>
      </trkpt>
      <trkpt lat="45.43701" lon="5.76756">
        <ele>400.9</ele>
        <time>2019-04-26T07:40:34Z</time>
      </trkpt>
      <trkpt lat="45.43701" lon="5.76747">
        <ele>400.9</ele>
        <time>2019-04-26T07:40:35Z</time>
      </trkpt>
      <trkpt lat="45.43699" lon="5.76738">
        <ele>400.9</ele>
        <time>2019-04-26T07:40:36Z</time>
      </trkpt>
      <trkpt lat="45.43697" lon="5.76729">
        <ele>400.7</ele>
        <time>2019-04-26T07:40:37Z</time>
      </trkpt>
      <trkpt lat="45.43697" lon="5.7672">
        <ele>400.7</ele>
        <time>2019-04-26T07:40:38Z</time>
      </trkpt>
      <trkpt lat="45.43695" lon="5.76709">
        <ele>400.6</ele>
        <time>2019-04-26T07:40:39Z</time>
      </trkpt>
      <trkpt lat="45.43693" lon="5.76699">
        <ele>400.5</ele>
        <time>2019-04-26T07:40:40Z</time>
      </trkpt>
      <trkpt lat="45.43692" lon="5.76689">
        <ele>400.4</ele>
        <time>2019-04-26T07:40:41Z</time>
      </trkpt>
      <trkpt lat="45.43691" lon="5.76679">
        <ele>400.3</ele>
        <time>2019-04-26T07:40:42Z</time>
      </trkpt>
      <trkpt lat="45.4369" lon="5.76668">
        <ele>400.3</ele>
        <time>2019-04-26T07:40:43Z</time>
      </trkpt>
      <trkpt lat="45.43689" lon="5.76657">
        <ele>400.1</ele>
        <time>2019-04-26T07:40:44Z</time>
      </trkpt>
      <trkpt lat="45.43688" lon="5.76647">
        <ele>400</ele>
        <time>2019-04-26T07:40:45Z</time>
      </trkpt>
      <trkpt lat="45.43687" lon="5.76636">
        <ele>399.9</ele>
        <time>2019-04-26T07:40:46Z</time>
      </trkpt>
      <trkpt lat="45.43685" lon="5.76626">
        <ele>399.8</ele>
        <time>2019-04-26T07:40:47Z</time>
      </trkpt>
      <trkpt lat="45.43685" lon="5.76617">
        <ele>399.7</ele>
        <time>2019-04-26T07:40:48Z</time>
      </trkpt>
      <trkpt lat="45.43684" lon="5.76608">
        <ele>399.6</ele>
        <time>2019-04-26T07:40:49Z</time>
      </trkpt>
      <trkpt lat="45.43683" lon="5.76598">
        <ele>399.5</ele>
        <time>2019-04-26T07:40:50Z</time>
      </trkpt>
      <trkpt lat="45.43683" lon="5.76588">
        <ele>399.4</ele>
        <time>2019-04-26T07:40:51Z</time>
      </trkpt>
      <trkpt lat="45.43683" lon="5.76578">
        <ele>399.3</ele>
        <time>2019-04-26T07:40:52Z</time>
      </trkpt>
      <trkpt lat="45.43682" lon="5.76568">
        <ele>399.3</ele>
        <time>2019-04-26T07:40:53Z</time>
      </trkpt>
      <trkpt lat="45.43682" lon="5.76557">
        <ele>399.3</ele>
        <time>2019-04-26T07:40:54Z</time>
      </trkpt>
      <trkpt lat="45.43682" lon="5.76547">
        <ele>399.2</ele>
        <time>2019-04-26T07:40:55Z</time>
      </trkpt>
      <trkpt lat="45.43682" lon="5.76536">
        <ele>399.2</ele>
        <time>2019-04-26T07:40:56Z</time>
      </trkpt>
      <trkpt lat="45.43681" lon="5.76525">
        <ele>398.9</ele>
        <time>2019-04-26T07:40:57Z</time>
      </trkpt>
      <trkpt lat="45.4368" lon="5.76515">
        <ele>398.7</ele>
        <time>2019-04-26T07:40:58Z</time>
      </trkpt>
      <trkpt lat="45.43679" lon="5.76505">
        <ele>398.3</ele>
        <time>2019-04-26T07:40:59Z</time>
      </trkpt>
      <trkpt lat="45.43675" lon="5.76496">
        <ele>398</ele>
        <time>2019-04-26T07:41:00Z</time>
      </trkpt>
      <trkpt lat="45.4367" lon="5.76488">
        <ele>397.7</ele>
        <time>2019-04-26T07:41:01Z</time>
      </trkpt>
      <trkpt lat="45.43666" lon="5.7648">
        <ele>397.4</ele>
        <time>2019-04-26T07:41:02Z</time>
      </trkpt>
      <trkpt lat="45.43659" lon="5.76474">
        <ele>397</ele>
        <time>2019-04-26T07:41:03Z</time>
      </trkpt>
      <trkpt lat="45.43653" lon="5.76469">
        <ele>396.8</ele>
        <time>2019-04-26T07:41:04Z</time>
      </trkpt>
      <trkpt lat="45.43646" lon="5.76463">
        <ele>396.6</ele>
        <time>2019-04-26T07:41:05Z</time>
      </trkpt>
      <trkpt lat="45.43641" lon="5.76459">
        <ele>396.4</ele>
        <time>2019-04-26T07:41:06Z</time>
      </trkpt>
      <trkpt lat="45.43633" lon="5.76454">
        <ele>396.4</ele>
        <time>2019-04-26T07:41:07Z</time>
      </trkpt>
      <trkpt lat="45.43626" lon="5.76451">
        <ele>396.4</ele>
        <time>2019-04-26T07:41:08Z</time>
      </trkpt>
      <trkpt lat="45.4362" lon="5.76446">
        <ele>396.4</ele>
        <time>2019-04-26T07:41:09Z</time>
      </trkpt>
      <trkpt lat="45.43612" lon="5.76441">
        <ele>396.5</ele>
        <time>2019-04-26T07:41:10Z</time>
      </trkpt>
      <trkpt lat="45.43606" lon="5.76434">
        <ele>396.3</ele>
        <time>2019-04-26T07:41:11Z</time>
      </trkpt>
      <trkpt lat="45.436" lon="5.76428">
        <ele>396.1</ele>
        <time>2019-04-26T07:41:12Z</time>
      </trkpt>
      <trkpt lat="45.43594" lon="5.7642">
        <ele>395.9</ele>
        <time>2019-04-26T07:41:13Z</time>
      </trkpt>
      <trkpt lat="45.43588" lon="5.76412">
        <ele>395.8</ele>
        <time>2019-04-26T07:41:14Z</time>
      </trkpt>
      <trkpt lat="45.43583" lon="5.76404">
        <ele>395.8</ele>
        <time>2019-04-26T07:41:15Z</time>
      </trkpt>
      <trkpt lat="45.43578" lon="5.76396">
        <ele>395.9</ele>
        <time>2019-04-26T07:41:16Z</time>
      </trkpt>
      <trkpt lat="45.43573" lon="5.76388">
        <ele>395.9</ele>
        <time>2019-04-26T07:41:17Z</time>
      </trkpt>
      <trkpt lat="45.43569" lon="5.76381">
        <ele>396</ele>
        <time>2019-04-26T07:41:18Z</time>
      </trkpt>
      <trkpt lat="45.43564" lon="5.76372">
        <ele>395.9</ele>
        <time>2019-04-26T07:41:19Z</time>
      </trkpt>
      <trkpt lat="45.43559" lon="5.76363">
        <ele>395.9</ele>
        <time>2019-04-26T07:41:20Z</time>
      </trkpt>
      <trkpt lat="45.43555" lon="5.76354">
        <ele>395.9</ele>
        <time>2019-04-26T07:41:21Z</time>
      </trkpt>
      <trkpt lat="45.4355" lon="5.76346">
        <ele>395.8</ele>
        <time>2019-04-26T07:41:22Z</time>
      </trkpt>
      <trkpt lat="45.43545" lon="5.76337">
        <ele>395.7</ele>
        <time>2019-04-26T07:41:23Z</time>
      </trkpt>
      <trkpt lat="45.4354" lon="5.76328">
        <ele>395.6</ele>
        <time>2019-04-26T07:41:24Z</time>
      </trkpt>
      <trkpt lat="45.43536" lon="5.7632">
        <ele>395.5</ele>
        <time>2019-04-26T07:41:25Z</time>
      </trkpt>
      <trkpt lat="45.43531" lon="5.76312">
        <ele>395.4</ele>
        <time>2019-04-26T07:41:26Z</time>
      </trkpt>
      <trkpt lat="45.43526" lon="5.76304">
        <ele>395.3</ele>
        <time>2019-04-26T07:41:27Z</time>
      </trkpt>
      <trkpt lat="45.43522" lon="5.76297">
        <ele>395.2</ele>
        <time>2019-04-26T07:41:28Z</time>
      </trkpt>
      <trkpt lat="45.43518" lon="5.76289">
        <ele>395.1</ele>
        <time>2019-04-26T07:41:29Z</time>
      </trkpt>
      <trkpt lat="45.43515" lon="5.7628">
        <ele>394.9</ele>
        <time>2019-04-26T07:41:30Z</time>
      </trkpt>
      <trkpt lat="45.43513" lon="5.76271">
        <ele>394.8</ele>
        <time>2019-04-26T07:41:31Z</time>
      </trkpt>
      <trkpt lat="45.4351" lon="5.76263">
        <ele>394.7</ele>
        <time>2019-04-26T07:41:32Z</time>
      </trkpt>
      <trkpt lat="45.43508" lon="5.76253">
        <ele>394.6</ele>
        <time>2019-04-26T07:41:33Z</time>
      </trkpt>
      <trkpt lat="45.43507" lon="5.76243">
        <ele>394.6</ele>
        <time>2019-04-26T07:41:34Z</time>
      </trkpt>
      <trkpt lat="45.43506" lon="5.76233">
        <ele>394.5</ele>
        <time>2019-04-26T07:41:35Z</time>
      </trkpt>
      <trkpt lat="45.43505" lon="5.76223">
        <ele>394.5</ele>
        <time>2019-04-26T07:41:36Z</time>
      </trkpt>
      <trkpt lat="45.43504" lon="5.76212">
        <ele>394.4</ele>
        <time>2019-04-26T07:41:37Z</time>
      </trkpt>
      <trkpt lat="45.43504" lon="5.76203">
        <ele>394.4</ele>
        <time>2019-04-26T07:41:38Z</time>
      </trkpt>
      <trkpt lat="45.43503" lon="5.76193">
        <ele>394.3</ele>
        <time>2019-04-26T07:41:39Z</time>
      </trkpt>
      <trkpt lat="45.43503" lon="5.76184">
        <ele>394.3</ele>
        <time>2019-04-26T07:41:40Z</time>
      </trkpt>
      <trkpt lat="45.43502" lon="5.76176">
        <ele>394.2</ele>
        <time>2019-04-26T07:41:41Z</time>
      </trkpt>
      <trkpt lat="45.43501" lon="5.76167">
        <ele>394.1</ele>
        <time>2019-04-26T07:41:42Z</time>
      </trkpt>
      <trkpt lat="45.435" lon="5.76159">
        <ele>394</ele>
        <time>2019-04-26T07:41:43Z</time>
      </trkpt>
      <trkpt lat="45.43501" lon="5.76149">
        <ele>393.9</ele>
        <time>2019-04-26T07:41:44Z</time>
      </trkpt>
      <trkpt lat="45.435" lon="5.7614">
        <ele>393.7</ele>
        <time>2019-04-26T07:41:45Z</time>
      </trkpt>
      <trkpt lat="45.43498" lon="5.76131">
        <ele>393.6</ele>
        <time>2019-04-26T07:41:46Z</time>
      </trkpt>
      <trkpt lat="45.43497" lon="5.76122">
        <ele>393.5</ele>
        <time>2019-04-26T07:41:47Z</time>
      </trkpt>
      <trkpt lat="45.43494" lon="5.76114">
        <ele>393.4</ele>
        <time>2019-04-26T07:41:48Z</time>
      </trkpt>
      <trkpt lat="45.43492" lon="5.76107">
        <ele>393.4</ele>
        <time>2019-04-26T07:41:49Z</time>
      </trkpt>
      <trkpt lat="45.43491" lon="5.76098">
        <ele>393.4</ele>
        <time>2019-04-26T07:41:50Z</time>
      </trkpt>
      <trkpt lat="45.43489" lon="5.76089">
        <ele>393.4</ele>
        <time>2019-04-26T07:41:51Z</time>
      </trkpt>
      <trkpt lat="45.43486" lon="5.7608">
        <ele>393.4</ele>
        <time>2019-04-26T07:41:52Z</time>
      </trkpt>
      <trkpt lat="45.43484" lon="5.76071">
        <ele>393.4</ele>
        <time>2019-04-26T07:41:53Z</time>
      </trkpt>
      <trkpt lat="45.43482" lon="5.76062">
        <ele>393.5</ele>
        <time>2019-04-26T07:41:54Z</time>
      </trkpt>
      <trkpt lat="45.4348" lon="5.76053">
        <ele>393.5</ele>
        <time>2019-04-26T07:41:55Z</time>
      </trkpt>
      <trkpt lat="45.43478" lon="5.76045">
        <ele>393.5</ele>
        <time>2019-04-26T07:41:56Z</time>
      </trkpt>
      <trkpt lat="45.43475" lon="5.76036">
        <ele>393.5</ele>
        <time>2019-04-26T07:41:57Z</time>
      </trkpt>
      <trkpt lat="45.43473" lon="5.76027">
        <ele>393.5</ele>
        <time>2019-04-26T07:41:58Z</time>
      </trkpt>
      <trkpt lat="45.43471" lon="5.76018">
        <ele>393.5</ele>
        <time>2019-04-26T07:41:59Z</time>
      </trkpt>
      <trkpt lat="45.43468" lon="5.76009">
        <ele>393.6</ele>
        <time>2019-04-26T07:42:00Z</time>
      </trkpt>
      <trkpt lat="45.43466" lon="5.76">
        <ele>393.7</ele>
        <time>2019-04-26T07:42:01Z</time>
      </trkpt>
      <trkpt lat="45.43468" lon="5.75989">
        <ele>394</ele>
        <time>2019-04-26T07:42:02Z</time>
      </trkpt>
      <trkpt lat="45.43466" lon="5.7598">
        <ele>394.4</ele>
        <time>2019-04-26T07:42:03Z</time>
      </trkpt>
      <trkpt lat="45.43465" lon="5.7597">
        <ele>394.5</ele>
        <time>2019-04-26T07:42:04Z</time>
      </trkpt>
      <trkpt lat="45.43463" lon="5.75961">
        <ele>394.4</ele>
        <time>2019-04-26T07:42:05Z</time>
      </trkpt>
      <trkpt lat="45.43461" lon="5.75951">
        <ele>394.3</ele>
        <time>2019-04-26T07:42:06Z</time>
      </trkpt>
      <trkpt lat="45.4346" lon="5.75943">
        <ele>394.2</ele>
        <time>2019-04-26T07:42:07Z</time>
      </trkpt>
      <trkpt lat="45.43459" lon="5.75935">
        <ele>394.1</ele>
        <time>2019-04-26T07:42:08Z</time>
      </trkpt>
      <trkpt lat="45.43458" lon="5.75927">
        <ele>394</ele>
        <time>2019-04-26T07:42:09Z</time>
      </trkpt>
      <trkpt lat="45.43456" lon="5.75918">
        <ele>393.8</ele>
        <time>2019-04-26T07:42:10Z</time>
      </trkpt>
      <trkpt lat="45.43453" lon="5.75909">
        <ele>393.5</ele>
        <time>2019-04-26T07:42:11Z</time>
      </trkpt>
      <trkpt lat="45.43453" lon="5.75904">
        <ele>393.4</ele>
        <time>2019-04-26T07:42:12Z</time>
      </trkpt>
      <trkpt lat="45.4345" lon="5.75895">
        <ele>393.1</ele>
        <time>2019-04-26T07:42:13Z</time>
      </trkpt>
      <trkpt lat="45.43448" lon="5.75886">
        <ele>392.9</ele>
        <time>2019-04-26T07:42:14Z</time>
      </trkpt>
      <trkpt lat="45.43446" lon="5.75881">
        <ele>392.8</ele>
        <time>2019-04-26T07:42:15Z</time>
      </trkpt>
      <trkpt lat="45.43444" lon="5.75874">
        <ele>392.6</ele>
        <time>2019-04-26T07:42:16Z</time>
      </trkpt>
      <trkpt lat="45.43438" lon="5.75869">
        <ele>392.5</ele>
        <time>2019-04-26T07:42:17Z</time>
      </trkpt>
      <trkpt lat="45.43434" lon="5.75862">
        <ele>392.3</ele>
        <time>2019-04-26T07:42:18Z</time>
      </trkpt>
      <trkpt lat="45.4343" lon="5.75856">
        <ele>392.2</ele>
        <time>2019-04-26T07:42:19Z</time>
      </trkpt>
      <trkpt lat="45.43422" lon="5.75851">
        <ele>392.1</ele>
        <time>2019-04-26T07:42:20Z</time>
      </trkpt>
      <trkpt lat="45.43418" lon="5.75844">
        <ele>392</ele>
        <time>2019-04-26T07:42:21Z</time>
      </trkpt>
      <trkpt lat="45.43415" lon="5.75836">
        <ele>392</ele>
        <time>2019-04-26T07:42:22Z</time>
      </trkpt>
      <trkpt lat="45.43411" lon="5.75829">
        <ele>392</ele>
        <time>2019-04-26T07:42:23Z</time>
      </trkpt>
      <trkpt lat="45.43409" lon="5.75824">
        <ele>392</ele>
        <time>2019-04-26T07:42:24Z</time>
      </trkpt>
      <trkpt lat="45.43406" lon="5.75812">
        <ele>391.9</ele>
        <time>2019-04-26T07:42:25Z</time>
      </trkpt>
      <trkpt lat="45.43406" lon="5.75801">
        <ele>391.9</ele>
        <time>2019-04-26T07:42:26Z</time>
      </trkpt>
      <trkpt lat="45.43406" lon="5.75791">
        <ele>391.8</ele>
        <time>2019-04-26T07:42:27Z</time>
      </trkpt>
      <trkpt lat="45.43405" lon="5.75781">
        <ele>391.7</ele>
        <time>2019-04-26T07:42:28Z</time>
      </trkpt>
      <trkpt lat="45.43407" lon="5.75772">
        <ele>391.5</ele>
        <time>2019-04-26T07:42:29Z</time>
      </trkpt>
      <trkpt lat="45.43402" lon="5.75765">
        <ele>391.4</ele>
        <time>2019-04-26T07:42:30Z</time>
      </trkpt>
      <trkpt lat="45.43401" lon="5.75755">
        <ele>391.2</ele>
        <time>2019-04-26T07:42:31Z</time>
      </trkpt>
      <trkpt lat="45.43399" lon="5.75747">
        <ele>390.9</ele>
        <time>2019-04-26T07:42:32Z</time>
      </trkpt>
      <trkpt lat="45.43396" lon="5.75739">
        <ele>390.7</ele>
        <time>2019-04-26T07:42:33Z</time>
      </trkpt>
      <trkpt lat="45.43393" lon="5.7573">
        <ele>390.4</ele>
        <time>2019-04-26T07:42:34Z</time>
      </trkpt>
      <trkpt lat="45.43391" lon="5.75721">
        <ele>390.2</ele>
        <time>2019-04-26T07:42:35Z</time>
      </trkpt>
      <trkpt lat="45.43389" lon="5.75713">
        <ele>390.1</ele>
        <time>2019-04-26T07:42:36Z</time>
      </trkpt>
      <trkpt lat="45.43386" lon="5.75703">
        <ele>390.1</ele>
        <time>2019-04-26T07:42:37Z</time>
      </trkpt>
      <trkpt lat="45.43383" lon="5.75695">
        <ele>390.2</ele>
        <time>2019-04-26T07:42:38Z</time>
      </trkpt>
      <trkpt lat="45.4338" lon="5.75687">
        <ele>390.4</ele>
        <time>2019-04-26T07:42:39Z</time>
      </trkpt>
      <trkpt lat="45.43376" lon="5.75679">
        <ele>390.8</ele>
        <time>2019-04-26T07:42:40Z</time>
      </trkpt>
      <trkpt lat="45.43372" lon="5.75671">
        <ele>390.6</ele>
        <time>2019-04-26T07:42:41Z</time>
      </trkpt>
      <trkpt lat="45.4337" lon="5.75663">
        <ele>390.4</ele>
        <time>2019-04-26T07:42:42Z</time>
      </trkpt>
      <trkpt lat="45.43368" lon="5.75655">
        <ele>390.2</ele>
        <time>2019-04-26T07:42:43Z</time>
      </trkpt>
      <trkpt lat="45.43366" lon="5.75647">
        <ele>390</ele>
        <time>2019-04-26T07:42:44Z</time>
      </trkpt>
      <trkpt lat="45.43363" lon="5.7564">
        <ele>389.9</ele>
        <time>2019-04-26T07:42:45Z</time>
      </trkpt>
      <trkpt lat="45.43361" lon="5.75632">
        <ele>389.9</ele>
        <time>2019-04-26T07:42:46Z</time>
      </trkpt>
      <trkpt lat="45.43359" lon="5.75625">
        <ele>389.9</ele>
        <time>2019-04-26T07:42:47Z</time>
      </trkpt>
      <trkpt lat="45.43358" lon="5.75622">
        <ele>389.9</ele>
        <time>2019-04-26T07:42:48Z</time>
      </trkpt>
      <trkpt lat="45.43357" lon="5.75616">
        <ele>390</ele>
        <time>2019-04-26T07:42:49Z</time>
      </trkpt>
      <trkpt lat="45.43356" lon="5.75612">
        <ele>390</ele>
        <time>2019-04-26T07:42:50Z</time>
      </trkpt>
      <trkpt lat="45.43357" lon="5.75605">
        <ele>390</ele>
        <time>2019-04-26T07:42:51Z</time>
      </trkpt>
      <trkpt lat="45.43359" lon="5.75597">
        <ele>390</ele>
        <time>2019-04-26T07:42:52Z</time>
      </trkpt>
      <trkpt lat="45.43361" lon="5.75592">
        <ele>390</ele>
        <time>2019-04-26T07:42:53Z</time>
      </trkpt>
      <trkpt lat="45.43363" lon="5.75588">
        <ele>390</ele>
        <time>2019-04-26T07:42:54Z</time>
      </trkpt>
      <trkpt lat="45.43365" lon="5.75584">
        <ele>390</ele>
        <time>2019-04-26T07:42:55Z</time>
      </trkpt>
      <trkpt lat="45.43368" lon="5.75579">
        <ele>390</ele>
        <time>2019-04-26T07:42:57Z</time>
      </trkpt>
      <trkpt lat="45.43369" lon="5.75575">
        <ele>390</ele>
        <time>2019-04-26T07:42:59Z</time>
      </trkpt>
      <trkpt lat="45.43369" lon="5.7557">
        <ele>390</ele>
        <time>2019-04-26T07:43:01Z</time>
      </trkpt>
      <trkpt lat="45.43368" lon="5.75566">
        <ele>390.1</ele>
        <time>2019-04-26T07:43:03Z</time>
      </trkpt>
      <trkpt lat="45.43366" lon="5.7556">
        <ele>390.2</ele>
        <time>2019-04-26T07:43:05Z</time>
      </trkpt>
      <trkpt lat="45.43365" lon="5.75555">
        <ele>390.3</ele>
        <time>2019-04-26T07:43:07Z</time>
      </trkpt>
      <trkpt lat="45.43362" lon="5.75551">
        <ele>390.3</ele>
        <time>2019-04-26T07:43:09Z</time>
      </trkpt>
      <trkpt lat="45.43361" lon="5.75548">
        <ele>390.4</ele>
        <time>2019-04-26T07:43:12Z</time>
      </trkpt>
      <trkpt lat="45.43359" lon="5.75543">
        <ele>390.5</ele>
        <time>2019-04-26T07:43:24Z</time>
      </trkpt>
      <trkpt lat="45.43363" lon="5.75538">
        <ele>390.6</ele>
        <time>2019-04-26T07:43:26Z</time>
      </trkpt>
      <trkpt lat="45.43365" lon="5.75535">
        <ele>390.3</ele>
        <time>2019-04-26T07:43:27Z</time>
      </trkpt>
      <trkpt lat="45.43368" lon="5.75532">
        <ele>390.1</ele>
        <time>2019-04-26T07:43:28Z</time>
      </trkpt>
      <trkpt lat="45.43371" lon="5.75528">
        <ele>389.9</ele>
        <time>2019-04-26T07:43:29Z</time>
      </trkpt>
      <trkpt lat="45.43375" lon="5.75524">
        <ele>389.6</ele>
        <time>2019-04-26T07:43:30Z</time>
      </trkpt>
      <trkpt lat="45.43379" lon="5.75519">
        <ele>389.3</ele>
        <time>2019-04-26T07:43:31Z</time>
      </trkpt>
      <trkpt lat="45.43383" lon="5.75515">
        <ele>389.1</ele>
        <time>2019-04-26T07:43:32Z</time>
      </trkpt>
      <trkpt lat="45.43387" lon="5.75512">
        <ele>388.8</ele>
        <time>2019-04-26T07:43:33Z</time>
      </trkpt>
      <trkpt lat="45.43392" lon="5.7551">
        <ele>388.6</ele>
        <time>2019-04-26T07:43:34Z</time>
      </trkpt>
      <trkpt lat="45.43397" lon="5.75508">
        <ele>388.4</ele>
        <time>2019-04-26T07:43:35Z</time>
      </trkpt>
      <trkpt lat="45.43402" lon="5.75507">
        <ele>388.3</ele>
        <time>2019-04-26T07:43:36Z</time>
      </trkpt>
      <trkpt lat="45.43407" lon="5.75504">
        <ele>387.9</ele>
        <time>2019-04-26T07:43:37Z</time>
      </trkpt>
      <trkpt lat="45.4341" lon="5.75501">
        <ele>387.8</ele>
        <time>2019-04-26T07:43:38Z</time>
      </trkpt>
      <trkpt lat="45.43413" lon="5.75497">
        <ele>387.7</ele>
        <time>2019-04-26T07:43:39Z</time>
      </trkpt>
      <trkpt lat="45.43417" lon="5.75494">
        <ele>387.4</ele>
        <time>2019-04-26T07:43:40Z</time>
      </trkpt>
      <trkpt lat="45.4342" lon="5.75489">
        <ele>387.3</ele>
        <time>2019-04-26T07:43:41Z</time>
      </trkpt>
      <trkpt lat="45.43422" lon="5.75486">
        <ele>387.2</ele>
        <time>2019-04-26T07:43:42Z</time>
      </trkpt>
      <trkpt lat="45.43426" lon="5.75482">
        <ele>387</ele>
        <time>2019-04-26T07:43:43Z</time>
      </trkpt>
      <trkpt lat="45.43434" lon="5.75477">
        <ele>386.5</ele>
        <time>2019-04-26T07:43:44Z</time>
      </trkpt>
      <trkpt lat="45.43441" lon="5.75473">
        <ele>386.2</ele>
        <time>2019-04-26T07:43:45Z</time>
      </trkpt>
      <trkpt lat="45.43446" lon="5.75469">
        <ele>385.9</ele>
        <time>2019-04-26T07:43:46Z</time>
      </trkpt>
      <trkpt lat="45.4345" lon="5.75465">
        <ele>385.7</ele>
        <time>2019-04-26T07:43:47Z</time>
      </trkpt>
      <trkpt lat="45.43454" lon="5.75458">
        <ele>385.5</ele>
        <time>2019-04-26T07:43:48Z</time>
      </trkpt>
      <trkpt lat="45.43458" lon="5.75455">
        <ele>385.3</ele>
        <time>2019-04-26T07:43:49Z</time>
      </trkpt>
      <trkpt lat="45.4346" lon="5.7545">
        <ele>385.1</ele>
        <time>2019-04-26T07:43:50Z</time>
      </trkpt>
      <trkpt lat="45.43461" lon="5.75445">
        <ele>385</ele>
        <time>2019-04-26T07:43:52Z</time>
      </trkpt>
      <trkpt lat="45.43465" lon="5.75443">
        <ele>384.9</ele>
        <time>2019-04-26T07:43:57Z</time>
      </trkpt>
      <trkpt lat="45.43466" lon="5.75438">
        <ele>384.8</ele>
        <time>2019-04-26T07:43:59Z</time>
      </trkpt>
      <trkpt lat="45.43467" lon="5.75432">
        <ele>384.7</ele>
        <time>2019-04-26T07:44:00Z</time>
      </trkpt>
      <trkpt lat="45.43468" lon="5.75427">
        <ele>384.7</ele>
        <time>2019-04-26T07:44:01Z</time>
      </trkpt>
      <trkpt lat="45.43468" lon="5.75422">
        <ele>384.7</ele>
        <time>2019-04-26T07:44:02Z</time>
      </trkpt>
      <trkpt lat="45.43468" lon="5.75416">
        <ele>384.7</ele>
        <time>2019-04-26T07:44:03Z</time>
      </trkpt>
      <trkpt lat="45.43469" lon="5.7541">
        <ele>384.6</ele>
        <time>2019-04-26T07:44:04Z</time>
      </trkpt>
      <trkpt lat="45.43469" lon="5.75402">
        <ele>384.6</ele>
        <time>2019-04-26T07:44:05Z</time>
      </trkpt>
      <trkpt lat="45.43467" lon="5.75394">
        <ele>384.6</ele>
        <time>2019-04-26T07:44:06Z</time>
      </trkpt>
      <trkpt lat="45.43465" lon="5.75384">
        <ele>384.7</ele>
        <time>2019-04-26T07:44:07Z</time>
      </trkpt>
      <trkpt lat="45.43464" lon="5.75375">
        <ele>384.6</ele>
        <time>2019-04-26T07:44:08Z</time>
      </trkpt>
      <trkpt lat="45.43463" lon="5.75366">
        <ele>384.6</ele>
        <time>2019-04-26T07:44:09Z</time>
      </trkpt>
      <trkpt lat="45.43463" lon="5.75358">
        <ele>384.6</ele>
        <time>2019-04-26T07:44:10Z</time>
      </trkpt>
      <trkpt lat="45.43463" lon="5.75349">
        <ele>384.6</ele>
        <time>2019-04-26T07:44:11Z</time>
      </trkpt>
      <trkpt lat="45.43464" lon="5.7534">
        <ele>384.6</ele>
        <time>2019-04-26T07:44:12Z</time>
      </trkpt>
      <trkpt lat="45.43465" lon="5.75331">
        <ele>384.6</ele>
        <time>2019-04-26T07:44:13Z</time>
      </trkpt>
      <trkpt lat="45.43465" lon="5.75323">
        <ele>384.6</ele>
        <time>2019-04-26T07:44:14Z</time>
      </trkpt>
      <trkpt lat="45.43465" lon="5.75315">
        <ele>384.6</ele>
        <time>2019-04-26T07:44:15Z</time>
      </trkpt>
      <trkpt lat="45.43465" lon="5.75308">
        <ele>384.6</ele>
        <time>2019-04-26T07:44:16Z</time>
      </trkpt>
      <trkpt lat="45.43466" lon="5.75304">
        <ele>384.6</ele>
        <time>2019-04-26T07:44:17Z</time>
      </trkpt>
      <trkpt lat="45.43466" lon="5.75298">
        <ele>384.6</ele>
        <time>2019-04-26T07:44:18Z</time>
      </trkpt>
      <trkpt lat="45.43464" lon="5.75293">
        <ele>384.6</ele>
        <time>2019-04-26T07:44:19Z</time>
      </trkpt>
      <trkpt lat="45.43464" lon="5.75288">
        <ele>384.6</ele>
        <time>2019-04-26T07:44:20Z</time>
      </trkpt>
      <trkpt lat="45.43462" lon="5.75284">
        <ele>384.5</ele>
        <time>2019-04-26T07:44:21Z</time>
      </trkpt>
      <trkpt lat="45.43459" lon="5.75279">
        <ele>384.5</ele>
        <time>2019-04-26T07:44:22Z</time>
      </trkpt>
      <trkpt lat="45.43456" lon="5.75275">
        <ele>384.5</ele>
        <time>2019-04-26T07:44:23Z</time>
      </trkpt>
      <trkpt lat="45.43452" lon="5.75271">
        <ele>384.5</ele>
        <time>2019-04-26T07:44:24Z</time>
      </trkpt>
      <trkpt lat="45.43449" lon="5.7527">
        <ele>384.4</ele>
        <time>2019-04-26T07:44:25Z</time>
      </trkpt>
      <trkpt lat="45.43445" lon="5.75267">
        <ele>384.4</ele>
        <time>2019-04-26T07:44:26Z</time>
      </trkpt>
      <trkpt lat="45.43441" lon="5.75265">
        <ele>384.4</ele>
        <time>2019-04-26T07:44:27Z</time>
      </trkpt>
      <trkpt lat="45.43437" lon="5.75263">
        <ele>384.4</ele>
        <time>2019-04-26T07:44:28Z</time>
      </trkpt>
      <trkpt lat="45.43432" lon="5.75263">
        <ele>384.4</ele>
        <time>2019-04-26T07:44:29Z</time>
      </trkpt>
      <trkpt lat="45.43427" lon="5.75262">
        <ele>384.3</ele>
        <time>2019-04-26T07:44:30Z</time>
      </trkpt>
      <trkpt lat="45.43423" lon="5.75262">
        <ele>384.3</ele>
        <time>2019-04-26T07:44:31Z</time>
      </trkpt>
      <trkpt lat="45.43418" lon="5.75261">
        <ele>384.3</ele>
        <time>2019-04-26T07:44:32Z</time>
      </trkpt>
      <trkpt lat="45.43413" lon="5.75262">
        <ele>384.3</ele>
        <time>2019-04-26T07:44:33Z</time>
      </trkpt>
      <trkpt lat="45.43408" lon="5.75263">
        <ele>384.3</ele>
        <time>2019-04-26T07:44:34Z</time>
      </trkpt>
      <trkpt lat="45.43403" lon="5.75263">
        <ele>384.3</ele>
        <time>2019-04-26T07:44:35Z</time>
      </trkpt>
      <trkpt lat="45.434" lon="5.75262">
        <ele>384.3</ele>
        <time>2019-04-26T07:44:36Z</time>
      </trkpt>
      <trkpt lat="45.43396" lon="5.75262">
        <ele>384.4</ele>
        <time>2019-04-26T07:44:37Z</time>
      </trkpt>
      <trkpt lat="45.43391" lon="5.75262">
        <ele>384.4</ele>
        <time>2019-04-26T07:44:38Z</time>
      </trkpt>
      <trkpt lat="45.43386" lon="5.75261">
        <ele>384.6</ele>
        <time>2019-04-26T07:44:39Z</time>
      </trkpt>
      <trkpt lat="45.43381" lon="5.75263">
        <ele>384.7</ele>
        <time>2019-04-26T07:44:40Z</time>
      </trkpt>
      <trkpt lat="45.43377" lon="5.75263">
        <ele>384.8</ele>
        <time>2019-04-26T07:44:41Z</time>
      </trkpt>
      <trkpt lat="45.43372" lon="5.75264">
        <ele>385</ele>
        <time>2019-04-26T07:44:42Z</time>
      </trkpt>
      <trkpt lat="45.43369" lon="5.75259">
        <ele>385.1</ele>
        <time>2019-04-26T07:44:43Z</time>
      </trkpt>
      <trkpt lat="45.43368" lon="5.75255">
        <ele>385.1</ele>
        <time>2019-04-26T07:44:44Z</time>
      </trkpt>
      <trkpt lat="45.43371" lon="5.75252">
        <ele>385.1</ele>
        <time>2019-04-26T07:44:47Z</time>
      </trkpt>
      <trkpt lat="45.43371" lon="5.75247">
        <ele>385.1</ele>
        <time>2019-04-26T07:44:50Z</time>
      </trkpt>
      <trkpt lat="45.43368" lon="5.75244">
        <ele>385.2</ele>
        <time>2019-04-26T07:44:52Z</time>
      </trkpt>
      <trkpt lat="45.43365" lon="5.7524">
        <ele>385.2</ele>
        <time>2019-04-26T07:44:54Z</time>
      </trkpt>
      <trkpt lat="45.43362" lon="5.75235">
        <ele>385.3</ele>
        <time>2019-04-26T07:44:56Z</time>
      </trkpt>
      <trkpt lat="45.43358" lon="5.75233">
        <ele>385.3</ele>
        <time>2019-04-26T07:44:58Z</time>
      </trkpt>
      <trkpt lat="45.43354" lon="5.75231">
        <ele>385.4</ele>
        <time>2019-04-26T07:45:00Z</time>
      </trkpt>
      <trkpt lat="45.43351" lon="5.75229">
        <ele>385.4</ele>
        <time>2019-04-26T07:45:02Z</time>
      </trkpt>
      <trkpt lat="45.43348" lon="5.75227">
        <ele>385.4</ele>
        <time>2019-04-26T07:45:04Z</time>
      </trkpt>
      <trkpt lat="45.43351" lon="5.75227">
        <ele>385.5</ele>
        <time>2019-04-26T07:45:09Z</time>
      </trkpt>
      <trkpt lat="45.43354" lon="5.75227">
        <ele>385.5</ele>
        <time>2019-04-26T07:45:11Z</time>
      </trkpt>
      <trkpt lat="45.43357" lon="5.75227">
        <ele>385.5</ele>
        <time>2019-04-26T07:45:13Z</time>
      </trkpt>
      <trkpt lat="45.43359" lon="5.75229">
        <ele>385.5</ele>
        <time>2019-04-26T07:45:15Z</time>
      </trkpt>
      <trkpt lat="45.4336" lon="5.75232">
        <ele>385.6</ele>
        <time>2019-04-26T07:45:17Z</time>
      </trkpt>
      <trkpt lat="45.43358" lon="5.75231">
        <ele>385.6</ele>
        <time>2019-04-26T07:45:42Z</time>
      </trkpt>
      <trkpt lat="45.43355" lon="5.7523">
        <ele>385.6</ele>
        <time>2019-04-26T07:45:54Z</time>
      </trkpt>
      <trkpt lat="45.43357" lon="5.7523">
        <ele>385.6</ele>
        <time>2019-04-26T07:46:06Z</time>
      </trkpt>
      <trkpt lat="45.43356" lon="5.75227">
        <ele>385.6</ele>
        <time>2019-04-26T07:46:23Z</time>
      </trkpt>
      <trkpt lat="45.43352" lon="5.75227">
        <ele>385.6</ele>
        <time>2019-04-26T07:46:26Z</time>
      </trkpt>
      <trkpt lat="45.43348" lon="5.75228">
        <ele>385.7</ele>
        <time>2019-04-26T07:46:28Z</time>
      </trkpt>
      <trkpt lat="45.43344" lon="5.75227">
        <ele>385.7</ele>
        <time>2019-04-26T07:46:30Z</time>
      </trkpt>
      <trkpt lat="45.43341" lon="5.75226">
        <ele>385.7</ele>
        <time>2019-04-26T07:46:32Z</time>
      </trkpt>
      <trkpt lat="45.43337" lon="5.75226">
        <ele>385.7</ele>
        <time>2019-04-26T07:46:34Z</time>
      </trkpt>
      <trkpt lat="45.43333" lon="5.75225">
        <ele>385.7</ele>
        <time>2019-04-26T07:46:36Z</time>
      </trkpt>
      <trkpt lat="45.43329" lon="5.75224">
        <ele>385.8</ele>
        <time>2019-04-26T07:46:38Z</time>
      </trkpt>
      <trkpt lat="45.43325" lon="5.75223">
        <ele>385.8</ele>
        <time>2019-04-26T07:46:40Z</time>
      </trkpt>
      <trkpt lat="45.4332" lon="5.75225">
        <ele>385.9</ele>
        <time>2019-04-26T07:46:42Z</time>
      </trkpt>
      <trkpt lat="45.43316" lon="5.75227">
        <ele>386</ele>
        <time>2019-04-26T07:46:44Z</time>
      </trkpt>
      <trkpt lat="45.43312" lon="5.75225">
        <ele>386</ele>
        <time>2019-04-26T07:46:46Z</time>
      </trkpt>
      <trkpt lat="45.43309" lon="5.75219">
        <ele>386.2</ele>
        <time>2019-04-26T07:46:48Z</time>
      </trkpt>
      <trkpt lat="45.43307" lon="5.75211">
        <ele>387.1</ele>
        <time>2019-04-26T07:46:50Z</time>
      </trkpt>
      <trkpt lat="45.43301" lon="5.75196">
        <ele>387.1</ele>
        <time>2019-04-26T07:46:51Z</time>
      </trkpt>
      <trkpt lat="45.43301" lon="5.75191">
        <ele>387.4</ele>
        <time>2019-04-26T07:46:52Z</time>
      </trkpt>
      <trkpt lat="45.43301" lon="5.75187">
        <ele>387.5</ele>
        <time>2019-04-26T07:46:53Z</time>
      </trkpt>
      <trkpt lat="45.43301" lon="5.7518">
        <ele>387.6</ele>
        <time>2019-04-26T07:46:54Z</time>
      </trkpt>
      <trkpt lat="45.43302" lon="5.75175">
        <ele>387.7</ele>
        <time>2019-04-26T07:46:55Z</time>
      </trkpt>
      <trkpt lat="45.43303" lon="5.7517">
        <ele>387.7</ele>
        <time>2019-04-26T07:46:56Z</time>
      </trkpt>
      <trkpt lat="45.43304" lon="5.75165">
        <ele>387.8</ele>
        <time>2019-04-26T07:46:57Z</time>
      </trkpt>
      <trkpt lat="45.43304" lon="5.75158">
        <ele>387.8</ele>
        <time>2019-04-26T07:46:58Z</time>
      </trkpt>
      <trkpt lat="45.43306" lon="5.75154">
        <ele>387.9</ele>
        <time>2019-04-26T07:46:59Z</time>
      </trkpt>
      <trkpt lat="45.43309" lon="5.75149">
        <ele>387.9</ele>
        <time>2019-04-26T07:47:00Z</time>
      </trkpt>
      <trkpt lat="45.43311" lon="5.75144">
        <ele>387.9</ele>
        <time>2019-04-26T07:47:01Z</time>
      </trkpt>
      <trkpt lat="45.43313" lon="5.7514">
        <ele>387.9</ele>
        <time>2019-04-26T07:47:02Z</time>
      </trkpt>
      <trkpt lat="45.43315" lon="5.75136">
        <ele>387.9</ele>
        <time>2019-04-26T07:47:03Z</time>
      </trkpt>
      <trkpt lat="45.43317" lon="5.75133">
        <ele>387.9</ele>
        <time>2019-04-26T07:47:04Z</time>
      </trkpt>
      <trkpt lat="45.43319" lon="5.75129">
        <ele>387.9</ele>
        <time>2019-04-26T07:47:05Z</time>
      </trkpt>
      <trkpt lat="45.4332" lon="5.75126">
        <ele>387.9</ele>
        <time>2019-04-26T07:47:06Z</time>
      </trkpt>
      <trkpt lat="45.43322" lon="5.75119">
        <ele>387.9</ele>
        <time>2019-04-26T07:47:08Z</time>
      </trkpt>
      <trkpt lat="45.43323" lon="5.75115">
        <ele>387.9</ele>
        <time>2019-04-26T07:47:09Z</time>
      </trkpt>
      <trkpt lat="45.43324" lon="5.75111">
        <ele>387.9</ele>
        <time>2019-04-26T07:47:10Z</time>
      </trkpt>
      <trkpt lat="45.43325" lon="5.75106">
        <ele>387.9</ele>
        <time>2019-04-26T07:47:11Z</time>
      </trkpt>
      <trkpt lat="45.43325" lon="5.75101">
        <ele>387.9</ele>
        <time>2019-04-26T07:47:12Z</time>
      </trkpt>
      <trkpt lat="45.43326" lon="5.75095">
        <ele>387.9</ele>
        <time>2019-04-26T07:47:13Z</time>
      </trkpt>
      <trkpt lat="45.43326" lon="5.75089">
        <ele>387.8</ele>
        <time>2019-04-26T07:47:14Z</time>
      </trkpt>
      <trkpt lat="45.43328" lon="5.75084">
        <ele>387.8</ele>
        <time>2019-04-26T07:47:15Z</time>
      </trkpt>
      <trkpt lat="45.43329" lon="5.75078">
        <ele>387.8</ele>
        <time>2019-04-26T07:47:17Z</time>
      </trkpt>
      <trkpt lat="45.43329" lon="5.75073">
        <ele>388</ele>
        <time>2019-04-26T07:47:18Z</time>
      </trkpt>
      <trkpt lat="45.4333" lon="5.75065">
        <ele>388.2</ele>
        <time>2019-04-26T07:47:19Z</time>
      </trkpt>
      <trkpt lat="45.4333" lon="5.7506">
        <ele>388.3</ele>
        <time>2019-04-26T07:47:20Z</time>
      </trkpt>
      <trkpt lat="45.4333" lon="5.75056">
        <ele>388.4</ele>
        <time>2019-04-26T07:47:21Z</time>
      </trkpt>
      <trkpt lat="45.43329" lon="5.75051">
        <ele>388.4</ele>
        <time>2019-04-26T07:47:22Z</time>
      </trkpt>
      <trkpt lat="45.43328" lon="5.75047">
        <ele>388.6</ele>
        <time>2019-04-26T07:47:23Z</time>
      </trkpt>
      <trkpt lat="45.43327" lon="5.75042">
        <ele>388.7</ele>
        <time>2019-04-26T07:47:24Z</time>
      </trkpt>
      <trkpt lat="45.43327" lon="5.75037">
        <ele>388.8</ele>
        <time>2019-04-26T07:47:25Z</time>
      </trkpt>
      <trkpt lat="45.43328" lon="5.75033">
        <ele>388.9</ele>
        <time>2019-04-26T07:47:26Z</time>
      </trkpt>
      <trkpt lat="45.43328" lon="5.75028">
        <ele>389</ele>
        <time>2019-04-26T07:47:27Z</time>
      </trkpt>
      <trkpt lat="45.43326" lon="5.75025">
        <ele>389.1</ele>
        <time>2019-04-26T07:47:30Z</time>
      </trkpt>
      <trkpt lat="45.43325" lon="5.7502">
        <ele>389.3</ele>
        <time>2019-04-26T07:47:34Z</time>
      </trkpt>
      <trkpt lat="45.43325" lon="5.75015">
        <ele>389.4</ele>
        <time>2019-04-26T07:47:35Z</time>
      </trkpt>
      <trkpt lat="45.43326" lon="5.7501">
        <ele>389.6</ele>
        <time>2019-04-26T07:47:36Z</time>
      </trkpt>
      <trkpt lat="45.43327" lon="5.75006">
        <ele>389.6</ele>
        <time>2019-04-26T07:47:37Z</time>
      </trkpt>
      <trkpt lat="45.43329" lon="5.75001">
        <ele>389.7</ele>
        <time>2019-04-26T07:47:38Z</time>
      </trkpt>
      <trkpt lat="45.43329" lon="5.74996">
        <ele>389.7</ele>
        <time>2019-04-26T07:47:39Z</time>
      </trkpt>
      <trkpt lat="45.4333" lon="5.74991">
        <ele>389.7</ele>
        <time>2019-04-26T07:47:40Z</time>
      </trkpt>
      <trkpt lat="45.43331" lon="5.74985">
        <ele>389.7</ele>
        <time>2019-04-26T07:47:41Z</time>
      </trkpt>
      <trkpt lat="45.43331" lon="5.7498">
        <ele>389.7</ele>
        <time>2019-04-26T07:47:42Z</time>
      </trkpt>
      <trkpt lat="45.43332" lon="5.74974">
        <ele>389.6</ele>
        <time>2019-04-26T07:47:43Z</time>
      </trkpt>
      <trkpt lat="45.43332" lon="5.74968">
        <ele>389.5</ele>
        <time>2019-04-26T07:47:44Z</time>
      </trkpt>
      <trkpt lat="45.43331" lon="5.74961">
        <ele>389.3</ele>
        <time>2019-04-26T07:47:45Z</time>
      </trkpt>
      <trkpt lat="45.43331" lon="5.74955">
        <ele>389.3</ele>
        <time>2019-04-26T07:47:46Z</time>
      </trkpt>
      <trkpt lat="45.4333" lon="5.74949">
        <ele>389.3</ele>
        <time>2019-04-26T07:47:47Z</time>
      </trkpt>
      <trkpt lat="45.4333" lon="5.74942">
        <ele>389.3</ele>
        <time>2019-04-26T07:47:48Z</time>
      </trkpt>
      <trkpt lat="45.43329" lon="5.74936">
        <ele>389.4</ele>
        <time>2019-04-26T07:47:49Z</time>
      </trkpt>
      <trkpt lat="45.43329" lon="5.7493">
        <ele>389.5</ele>
        <time>2019-04-26T07:47:50Z</time>
      </trkpt>
      <trkpt lat="45.43329" lon="5.74924">
        <ele>389.4</ele>
        <time>2019-04-26T07:47:51Z</time>
      </trkpt>
      <trkpt lat="45.43329" lon="5.74918">
        <ele>389.4</ele>
        <time>2019-04-26T07:47:52Z</time>
      </trkpt>
      <trkpt lat="45.43329" lon="5.74912">
        <ele>389.4</ele>
        <time>2019-04-26T07:47:53Z</time>
      </trkpt>
      <trkpt lat="45.43329" lon="5.74906">
        <ele>389.4</ele>
        <time>2019-04-26T07:47:54Z</time>
      </trkpt>
      <trkpt lat="45.43329" lon="5.74902">
        <ele>389.4</ele>
        <time>2019-04-26T07:47:55Z</time>
      </trkpt>
      <trkpt lat="45.43329" lon="5.74895">
        <ele>389.4</ele>
        <time>2019-04-26T07:47:57Z</time>
      </trkpt>
      <trkpt lat="45.43328" lon="5.74888">
        <ele>389.3</ele>
        <time>2019-04-26T07:47:59Z</time>
      </trkpt>
      <trkpt lat="45.43327" lon="5.74884">
        <ele>389.3</ele>
        <time>2019-04-26T07:48:00Z</time>
      </trkpt>
      <trkpt lat="45.43326" lon="5.7488">
        <ele>389.3</ele>
        <time>2019-04-26T07:48:01Z</time>
      </trkpt>
      <trkpt lat="45.43324" lon="5.74876">
        <ele>389.3</ele>
        <time>2019-04-26T07:48:02Z</time>
      </trkpt>
      <trkpt lat="45.43322" lon="5.74871">
        <ele>389.3</ele>
        <time>2019-04-26T07:48:03Z</time>
      </trkpt>
      <trkpt lat="45.4332" lon="5.74866">
        <ele>389.4</ele>
        <time>2019-04-26T07:48:04Z</time>
      </trkpt>
      <trkpt lat="45.43318" lon="5.74862">
        <ele>389.4</ele>
        <time>2019-04-26T07:48:05Z</time>
      </trkpt>
      <trkpt lat="45.43315" lon="5.74857">
        <ele>389.4</ele>
        <time>2019-04-26T07:48:06Z</time>
      </trkpt>
      <trkpt lat="45.43313" lon="5.74851">
        <ele>389.5</ele>
        <time>2019-04-26T07:48:07Z</time>
      </trkpt>
      <trkpt lat="45.4331" lon="5.74845">
        <ele>389.5</ele>
        <time>2019-04-26T07:48:08Z</time>
      </trkpt>
      <trkpt lat="45.43308" lon="5.74839">
        <ele>389.5</ele>
        <time>2019-04-26T07:48:09Z</time>
      </trkpt>
      <trkpt lat="45.43305" lon="5.74832">
        <ele>389.5</ele>
        <time>2019-04-26T07:48:10Z</time>
      </trkpt>
      <trkpt lat="45.43304" lon="5.74827">
        <ele>389.4</ele>
        <time>2019-04-26T07:48:11Z</time>
      </trkpt>
      <trkpt lat="45.43302" lon="5.74823">
        <ele>389.4</ele>
        <time>2019-04-26T07:48:12Z</time>
      </trkpt>
      <trkpt lat="45.43301" lon="5.74818">
        <ele>389.4</ele>
        <time>2019-04-26T07:48:13Z</time>
      </trkpt>
      <trkpt lat="45.433" lon="5.74813">
        <ele>389.4</ele>
        <time>2019-04-26T07:48:14Z</time>
      </trkpt>
      <trkpt lat="45.43298" lon="5.74807">
        <ele>389.3</ele>
        <time>2019-04-26T07:48:15Z</time>
      </trkpt>
      <trkpt lat="45.43296" lon="5.74801">
        <ele>389.3</ele>
        <time>2019-04-26T07:48:16Z</time>
      </trkpt>
      <trkpt lat="45.43294" lon="5.74793">
        <ele>389.2</ele>
        <time>2019-04-26T07:48:17Z</time>
      </trkpt>
      <trkpt lat="45.43292" lon="5.74785">
        <ele>389.2</ele>
        <time>2019-04-26T07:48:18Z</time>
      </trkpt>
      <trkpt lat="45.43289" lon="5.74775">
        <ele>389</ele>
        <time>2019-04-26T07:48:19Z</time>
      </trkpt>
      <trkpt lat="45.43287" lon="5.74765">
        <ele>388.8</ele>
        <time>2019-04-26T07:48:20Z</time>
      </trkpt>
      <trkpt lat="45.43284" lon="5.74755">
        <ele>388.6</ele>
        <time>2019-04-26T07:48:21Z</time>
      </trkpt>
      <trkpt lat="45.43282" lon="5.74749">
        <ele>388.4</ele>
        <time>2019-04-26T07:48:22Z</time>
      </trkpt>
      <trkpt lat="45.4328" lon="5.74745">
        <ele>388.3</ele>
        <time>2019-04-26T07:48:23Z</time>
      </trkpt>
      <trkpt lat="45.43279" lon="5.74739">
        <ele>388.2</ele>
        <time>2019-04-26T07:48:24Z</time>
      </trkpt>
      <trkpt lat="45.43278" lon="5.74734">
        <ele>388.1</ele>
        <time>2019-04-26T07:48:25Z</time>
      </trkpt>
      <trkpt lat="45.43276" lon="5.74726">
        <ele>388</ele>
        <time>2019-04-26T07:48:26Z</time>
      </trkpt>
      <trkpt lat="45.43275" lon="5.74718">
        <ele>387.9</ele>
        <time>2019-04-26T07:48:27Z</time>
      </trkpt>
      <trkpt lat="45.43274" lon="5.74712">
        <ele>387.9</ele>
        <time>2019-04-26T07:48:28Z</time>
      </trkpt>
      <trkpt lat="45.43272" lon="5.74704">
        <ele>387.5</ele>
        <time>2019-04-26T07:48:29Z</time>
      </trkpt>
      <trkpt lat="45.43272" lon="5.74697">
        <ele>387.3</ele>
        <time>2019-04-26T07:48:30Z</time>
      </trkpt>
      <trkpt lat="45.43271" lon="5.74691">
        <ele>387.1</ele>
        <time>2019-04-26T07:48:31Z</time>
      </trkpt>
      <trkpt lat="45.4327" lon="5.74685">
        <ele>386.8</ele>
        <time>2019-04-26T07:48:33Z</time>
      </trkpt>
      <trkpt lat="45.4327" lon="5.74678">
        <ele>386.5</ele>
        <time>2019-04-26T07:48:34Z</time>
      </trkpt>
      <trkpt lat="45.43271" lon="5.74669">
        <ele>386.2</ele>
        <time>2019-04-26T07:48:35Z</time>
      </trkpt>
      <trkpt lat="45.43271" lon="5.74659">
        <ele>385.8</ele>
        <time>2019-04-26T07:48:36Z</time>
      </trkpt>
      <trkpt lat="45.43272" lon="5.74651">
        <ele>385.5</ele>
        <time>2019-04-26T07:48:37Z</time>
      </trkpt>
      <trkpt lat="45.43272" lon="5.74641">
        <ele>385.2</ele>
        <time>2019-04-26T07:48:38Z</time>
      </trkpt>
      <trkpt lat="45.43272" lon="5.74634">
        <ele>385</ele>
        <time>2019-04-26T07:48:39Z</time>
      </trkpt>
      <trkpt lat="45.43269" lon="5.74604">
        <ele>384.5</ele>
        <time>2019-04-26T07:48:41Z</time>
      </trkpt>
      <trkpt lat="45.43266" lon="5.74601">
        <ele>384.5</ele>
        <time>2019-04-26T07:48:43Z</time>
      </trkpt>
      <trkpt lat="45.43262" lon="5.74607">
        <ele>384.6</ele>
        <time>2019-04-26T07:48:45Z</time>
      </trkpt>
      <trkpt lat="45.4326" lon="5.74609">
        <ele>384.7</ele>
        <time>2019-04-26T07:48:46Z</time>
      </trkpt>
      <trkpt lat="45.43257" lon="5.74612">
        <ele>384.9</ele>
        <time>2019-04-26T07:48:47Z</time>
      </trkpt>
      <trkpt lat="45.43254" lon="5.74614">
        <ele>385</ele>
        <time>2019-04-26T07:48:48Z</time>
      </trkpt>
      <trkpt lat="45.43251" lon="5.74618">
        <ele>385.2</ele>
        <time>2019-04-26T07:48:50Z</time>
      </trkpt>
      <trkpt lat="45.43248" lon="5.74621">
        <ele>385.4</ele>
        <time>2019-04-26T07:48:51Z</time>
      </trkpt>
      <trkpt lat="45.43243" lon="5.74625">
        <ele>385.7</ele>
        <time>2019-04-26T07:48:52Z</time>
      </trkpt>
      <trkpt lat="45.43238" lon="5.74628">
        <ele>386</ele>
        <time>2019-04-26T07:48:53Z</time>
      </trkpt>
      <trkpt lat="45.43232" lon="5.74632">
        <ele>386.3</ele>
        <time>2019-04-26T07:48:54Z</time>
      </trkpt>
      <trkpt lat="45.43228" lon="5.74635">
        <ele>386.5</ele>
        <time>2019-04-26T07:48:55Z</time>
      </trkpt>
      <trkpt lat="45.43223" lon="5.74636">
        <ele>386.6</ele>
        <time>2019-04-26T07:48:56Z</time>
      </trkpt>
      <trkpt lat="45.43218" lon="5.74638">
        <ele>386.8</ele>
        <time>2019-04-26T07:48:57Z</time>
      </trkpt>
      <trkpt lat="45.43214" lon="5.74639">
        <ele>386.9</ele>
        <time>2019-04-26T07:48:58Z</time>
      </trkpt>
      <trkpt lat="45.4321" lon="5.74641">
        <ele>387</ele>
        <time>2019-04-26T07:48:59Z</time>
      </trkpt>
      <trkpt lat="45.43206" lon="5.74643">
        <ele>387.1</ele>
        <time>2019-04-26T07:49:00Z</time>
      </trkpt>
      <trkpt lat="45.43202" lon="5.74645">
        <ele>387.1</ele>
        <time>2019-04-26T07:49:01Z</time>
      </trkpt>
      <trkpt lat="45.43199" lon="5.74648">
        <ele>387.1</ele>
        <time>2019-04-26T07:49:02Z</time>
      </trkpt>
      <trkpt lat="45.43194" lon="5.7465">
        <ele>387</ele>
        <time>2019-04-26T07:49:03Z</time>
      </trkpt>
      <trkpt lat="45.4319" lon="5.74651">
        <ele>387</ele>
        <time>2019-04-26T07:49:04Z</time>
      </trkpt>
      <trkpt lat="45.43186" lon="5.74652">
        <ele>387</ele>
        <time>2019-04-26T07:49:05Z</time>
      </trkpt>
      <trkpt lat="45.43182" lon="5.74653">
        <ele>386.9</ele>
        <time>2019-04-26T07:49:06Z</time>
      </trkpt>
      <trkpt lat="45.43178" lon="5.74655">
        <ele>386.9</ele>
        <time>2019-04-26T07:49:07Z</time>
      </trkpt>
      <trkpt lat="45.43173" lon="5.74655">
        <ele>386.9</ele>
        <time>2019-04-26T07:49:08Z</time>
      </trkpt>
      <trkpt lat="45.43168" lon="5.74657">
        <ele>387</ele>
        <time>2019-04-26T07:49:09Z</time>
      </trkpt>
      <trkpt lat="45.43163" lon="5.74659">
        <ele>387</ele>
        <time>2019-04-26T07:49:10Z</time>
      </trkpt>
      <trkpt lat="45.43159" lon="5.74661">
        <ele>387</ele>
        <time>2019-04-26T07:49:11Z</time>
      </trkpt>
      <trkpt lat="45.43154" lon="5.74662">
        <ele>387</ele>
        <time>2019-04-26T07:49:12Z</time>
      </trkpt>
      <trkpt lat="45.4315" lon="5.74662">
        <ele>387</ele>
        <time>2019-04-26T07:49:13Z</time>
      </trkpt>
      <trkpt lat="45.43144" lon="5.74664">
        <ele>387.1</ele>
        <time>2019-04-26T07:49:14Z</time>
      </trkpt>
      <trkpt lat="45.43139" lon="5.74666">
        <ele>387.1</ele>
        <time>2019-04-26T07:49:15Z</time>
      </trkpt>
      <trkpt lat="45.43134" lon="5.74666">
        <ele>387.1</ele>
        <time>2019-04-26T07:49:16Z</time>
      </trkpt>
      <trkpt lat="45.43129" lon="5.74666">
        <ele>387.2</ele>
        <time>2019-04-26T07:49:17Z</time>
      </trkpt>
      <trkpt lat="45.43124" lon="5.74668">
        <ele>387.2</ele>
        <time>2019-04-26T07:49:18Z</time>
      </trkpt>
      <trkpt lat="45.43118" lon="5.74669">
        <ele>387.2</ele>
        <time>2019-04-26T07:49:19Z</time>
      </trkpt>
      <trkpt lat="45.43114" lon="5.7467">
        <ele>387.3</ele>
        <time>2019-04-26T07:49:20Z</time>
      </trkpt>
      <trkpt lat="45.4311" lon="5.74667">
        <ele>387.3</ele>
        <time>2019-04-26T07:49:21Z</time>
      </trkpt>
      <trkpt lat="45.43106" lon="5.74669">
        <ele>387.4</ele>
        <time>2019-04-26T07:49:22Z</time>
      </trkpt>
      <trkpt lat="45.43102" lon="5.7467">
        <ele>387.4</ele>
        <time>2019-04-26T07:49:23Z</time>
      </trkpt>
      <trkpt lat="45.43098" lon="5.74669">
        <ele>387.4</ele>
        <time>2019-04-26T07:49:24Z</time>
      </trkpt>
      <trkpt lat="45.43093" lon="5.74669">
        <ele>387.5</ele>
        <time>2019-04-26T07:49:25Z</time>
      </trkpt>
      <trkpt lat="45.43089" lon="5.74669">
        <ele>387.5</ele>
        <time>2019-04-26T07:49:26Z</time>
      </trkpt>
      <trkpt lat="45.43085" lon="5.74671">
        <ele>387.5</ele>
        <time>2019-04-26T07:49:27Z</time>
      </trkpt>
      <trkpt lat="45.43082" lon="5.74672">
        <ele>387.5</ele>
        <time>2019-04-26T07:49:28Z</time>
      </trkpt>
      <trkpt lat="45.43079" lon="5.74672">
        <ele>387.6</ele>
        <time>2019-04-26T07:49:29Z</time>
      </trkpt>
      <trkpt lat="45.43075" lon="5.74673">
        <ele>387.6</ele>
        <time>2019-04-26T07:49:30Z</time>
      </trkpt>
      <trkpt lat="45.43071" lon="5.74675">
        <ele>387.6</ele>
        <time>2019-04-26T07:49:31Z</time>
      </trkpt>
      <trkpt lat="45.43068" lon="5.74676">
        <ele>387.7</ele>
        <time>2019-04-26T07:49:32Z</time>
      </trkpt>
      <trkpt lat="45.43065" lon="5.74677">
        <ele>387.7</ele>
        <time>2019-04-26T07:49:34Z</time>
      </trkpt>
      <trkpt lat="45.43061" lon="5.74678">
        <ele>387.7</ele>
        <time>2019-04-26T07:49:37Z</time>
      </trkpt>
      <trkpt lat="45.43057" lon="5.74677">
        <ele>387.8</ele>
        <time>2019-04-26T07:49:38Z</time>
      </trkpt>
      <trkpt lat="45.43054" lon="5.74677">
        <ele>387.8</ele>
        <time>2019-04-26T07:49:40Z</time>
      </trkpt>
      <trkpt lat="45.43051" lon="5.74677">
        <ele>387.9</ele>
        <time>2019-04-26T07:49:42Z</time>
      </trkpt>
      <trkpt lat="45.43047" lon="5.74677">
        <ele>387.9</ele>
        <time>2019-04-26T07:49:44Z</time>
      </trkpt>
      <trkpt lat="45.43043" lon="5.74678">
        <ele>387.9</ele>
        <time>2019-04-26T07:49:46Z</time>
      </trkpt>
      <trkpt lat="45.4304" lon="5.74679">
        <ele>388</ele>
        <time>2019-04-26T07:49:47Z</time>
      </trkpt>
      <trkpt lat="45.43037" lon="5.7468">
        <ele>388</ele>
        <time>2019-04-26T07:49:48Z</time>
      </trkpt>
      <trkpt lat="45.43033" lon="5.74682">
        <ele>388</ele>
        <time>2019-04-26T07:49:49Z</time>
      </trkpt>
      <trkpt lat="45.4303" lon="5.74684">
        <ele>388</ele>
        <time>2019-04-26T07:49:50Z</time>
      </trkpt>
      <trkpt lat="45.43025" lon="5.74686">
        <ele>388.1</ele>
        <time>2019-04-26T07:49:51Z</time>
      </trkpt>
      <trkpt lat="45.4302" lon="5.74688">
        <ele>388.2</ele>
        <time>2019-04-26T07:49:52Z</time>
      </trkpt>
      <trkpt lat="45.43016" lon="5.74688">
        <ele>388.3</ele>
        <time>2019-04-26T07:49:53Z</time>
      </trkpt>
      <trkpt lat="45.43011" lon="5.74687">
        <ele>388.3</ele>
        <time>2019-04-26T07:49:54Z</time>
      </trkpt>
      <trkpt lat="45.43007" lon="5.74684">
        <ele>388.3</ele>
        <time>2019-04-26T07:49:55Z</time>
      </trkpt>
      <trkpt lat="45.43003" lon="5.74681">
        <ele>388.4</ele>
        <time>2019-04-26T07:49:56Z</time>
      </trkpt>
      <trkpt lat="45.42999" lon="5.74677">
        <ele>389.1</ele>
        <time>2019-04-26T07:49:57Z</time>
      </trkpt>
      <trkpt lat="45.42996" lon="5.74672">
        <ele>389.4</ele>
        <time>2019-04-26T07:49:58Z</time>
      </trkpt>
      <trkpt lat="45.42992" lon="5.74666">
        <ele>389.8</ele>
        <time>2019-04-26T07:49:59Z</time>
      </trkpt>
      <trkpt lat="45.42989" lon="5.74659">
        <ele>390.2</ele>
        <time>2019-04-26T07:50:00Z</time>
      </trkpt>
      <trkpt lat="45.42987" lon="5.74655">
        <ele>390.5</ele>
        <time>2019-04-26T07:50:01Z</time>
      </trkpt>
      <trkpt lat="45.42984" lon="5.74649">
        <ele>390.9</ele>
        <time>2019-04-26T07:50:03Z</time>
      </trkpt>
      <trkpt lat="45.42982" lon="5.74645">
        <ele>391.5</ele>
        <time>2019-04-26T07:50:04Z</time>
      </trkpt>
      <trkpt lat="45.4298" lon="5.74641">
        <ele>391.7</ele>
        <time>2019-04-26T07:50:05Z</time>
      </trkpt>
      <trkpt lat="45.42977" lon="5.74638">
        <ele>392</ele>
        <time>2019-04-26T07:50:06Z</time>
      </trkpt>
      <trkpt lat="45.42973" lon="5.74635">
        <ele>392.3</ele>
        <time>2019-04-26T07:50:07Z</time>
      </trkpt>
      <trkpt lat="45.42969" lon="5.74632">
        <ele>393.3</ele>
        <time>2019-04-26T07:50:08Z</time>
      </trkpt>
      <trkpt lat="45.42964" lon="5.74631">
        <ele>393.3</ele>
        <time>2019-04-26T07:50:09Z</time>
      </trkpt>
      <trkpt lat="45.42959" lon="5.74631">
        <ele>393.9</ele>
        <time>2019-04-26T07:50:10Z</time>
      </trkpt>
      <trkpt lat="45.42955" lon="5.74632">
        <ele>393.8</ele>
        <time>2019-04-26T07:50:11Z</time>
      </trkpt>
      <trkpt lat="45.4295" lon="5.74633">
        <ele>393.8</ele>
        <time>2019-04-26T07:50:12Z</time>
      </trkpt>
      <trkpt lat="45.42946" lon="5.74635">
        <ele>391.2</ele>
        <time>2019-04-26T07:50:13Z</time>
      </trkpt>
      <trkpt lat="45.42943" lon="5.74636">
        <ele>390.6</ele>
        <time>2019-04-26T07:50:14Z</time>
      </trkpt>
      <trkpt lat="45.4294" lon="5.7464">
        <ele>390.1</ele>
        <time>2019-04-26T07:50:16Z</time>
      </trkpt>
      <trkpt lat="45.4294" lon="5.74645">
        <ele>389.9</ele>
        <time>2019-04-26T07:50:18Z</time>
      </trkpt>
      <trkpt lat="45.42938" lon="5.74647">
        <ele>389.6</ele>
        <time>2019-04-26T07:50:19Z</time>
      </trkpt>
      <trkpt lat="45.42933" lon="5.74651">
        <ele>389.1</ele>
        <time>2019-04-26T07:50:20Z</time>
      </trkpt>
      <trkpt lat="45.42929" lon="5.74654">
        <ele>388.7</ele>
        <time>2019-04-26T07:50:21Z</time>
      </trkpt>
      <trkpt lat="45.42925" lon="5.74657">
        <ele>388.4</ele>
        <time>2019-04-26T07:50:22Z</time>
      </trkpt>
      <trkpt lat="45.42921" lon="5.74659">
        <ele>388.2</ele>
        <time>2019-04-26T07:50:23Z</time>
      </trkpt>
      <trkpt lat="45.42918" lon="5.74662">
        <ele>388</ele>
        <time>2019-04-26T07:50:24Z</time>
      </trkpt>
      <trkpt lat="45.42914" lon="5.74664">
        <ele>387.7</ele>
        <time>2019-04-26T07:50:25Z</time>
      </trkpt>
      <trkpt lat="45.4291" lon="5.74666">
        <ele>387.4</ele>
        <time>2019-04-26T07:50:26Z</time>
      </trkpt>
      <trkpt lat="45.42906" lon="5.74668">
        <ele>387</ele>
        <time>2019-04-26T07:50:27Z</time>
      </trkpt>
      <trkpt lat="45.42902" lon="5.74669">
        <ele>386.7</ele>
        <time>2019-04-26T07:50:28Z</time>
      </trkpt>
      <trkpt lat="45.42899" lon="5.7467">
        <ele>386.3</ele>
        <time>2019-04-26T07:50:29Z</time>
      </trkpt>
      <trkpt lat="45.42894" lon="5.74671">
        <ele>386</ele>
        <time>2019-04-26T07:50:30Z</time>
      </trkpt>
      <trkpt lat="45.4289" lon="5.74672">
        <ele>385.8</ele>
        <time>2019-04-26T07:50:31Z</time>
      </trkpt>
      <trkpt lat="45.42886" lon="5.74673">
        <ele>385.5</ele>
        <time>2019-04-26T07:50:32Z</time>
      </trkpt>
      <trkpt lat="45.42882" lon="5.74675">
        <ele>385.2</ele>
        <time>2019-04-26T07:50:33Z</time>
      </trkpt>
      <trkpt lat="45.42879" lon="5.74678">
        <ele>385</ele>
        <time>2019-04-26T07:50:34Z</time>
      </trkpt>
      <trkpt lat="45.42875" lon="5.7468">
        <ele>384.8</ele>
        <time>2019-04-26T07:50:35Z</time>
      </trkpt>
      <trkpt lat="45.42871" lon="5.74682">
        <ele>384.6</ele>
        <time>2019-04-26T07:50:36Z</time>
      </trkpt>
      <trkpt lat="45.42868" lon="5.74684">
        <ele>384.6</ele>
        <time>2019-04-26T07:50:37Z</time>
      </trkpt>
      <trkpt lat="45.42863" lon="5.74686">
        <ele>384.7</ele>
        <time>2019-04-26T07:50:38Z</time>
      </trkpt>
      <trkpt lat="45.4286" lon="5.74687">
        <ele>384.8</ele>
        <time>2019-04-26T07:50:39Z</time>
      </trkpt>
      <trkpt lat="45.42856" lon="5.7469">
        <ele>384.9</ele>
        <time>2019-04-26T07:50:40Z</time>
      </trkpt>
      <trkpt lat="45.42853" lon="5.74692">
        <ele>385</ele>
        <time>2019-04-26T07:50:41Z</time>
      </trkpt>
      <trkpt lat="45.42849" lon="5.74695">
        <ele>385.2</ele>
        <time>2019-04-26T07:50:42Z</time>
      </trkpt>
      <trkpt lat="45.42845" lon="5.74697">
        <ele>385.4</ele>
        <time>2019-04-26T07:50:43Z</time>
      </trkpt>
      <trkpt lat="45.42841" lon="5.747">
        <ele>385.4</ele>
        <time>2019-04-26T07:50:44Z</time>
      </trkpt>
      <trkpt lat="45.42836" lon="5.74702">
        <ele>385.5</ele>
        <time>2019-04-26T07:50:45Z</time>
      </trkpt>
      <trkpt lat="45.42832" lon="5.74705">
        <ele>385.6</ele>
        <time>2019-04-26T07:50:46Z</time>
      </trkpt>
      <trkpt lat="45.42828" lon="5.74707">
        <ele>385.6</ele>
        <time>2019-04-26T07:50:47Z</time>
      </trkpt>
      <trkpt lat="45.42823" lon="5.74709">
        <ele>385.6</ele>
        <time>2019-04-26T07:50:48Z</time>
      </trkpt>
      <trkpt lat="45.42819" lon="5.74712">
        <ele>385.7</ele>
        <time>2019-04-26T07:50:49Z</time>
      </trkpt>
      <trkpt lat="45.42816" lon="5.74714">
        <ele>385.6</ele>
        <time>2019-04-26T07:50:50Z</time>
      </trkpt>
      <trkpt lat="45.42812" lon="5.74716">
        <ele>385.7</ele>
        <time>2019-04-26T07:50:51Z</time>
      </trkpt>
      <trkpt lat="45.42808" lon="5.74719">
        <ele>385.7</ele>
        <time>2019-04-26T07:50:52Z</time>
      </trkpt>
      <trkpt lat="45.42804" lon="5.74722">
        <ele>385.7</ele>
        <time>2019-04-26T07:50:53Z</time>
      </trkpt>
      <trkpt lat="45.428" lon="5.74724">
        <ele>385.8</ele>
        <time>2019-04-26T07:50:54Z</time>
      </trkpt>
      <trkpt lat="45.42796" lon="5.74726">
        <ele>385.9</ele>
        <time>2019-04-26T07:50:55Z</time>
      </trkpt>
      <trkpt lat="45.42793" lon="5.74728">
        <ele>385.9</ele>
        <time>2019-04-26T07:50:56Z</time>
      </trkpt>
      <trkpt lat="45.4279" lon="5.7473">
        <ele>386</ele>
        <time>2019-04-26T07:50:57Z</time>
      </trkpt>
      <trkpt lat="45.42786" lon="5.74732">
        <ele>386.1</ele>
        <time>2019-04-26T07:50:58Z</time>
      </trkpt>
      <trkpt lat="45.42783" lon="5.74734">
        <ele>386</ele>
        <time>2019-04-26T07:50:59Z</time>
      </trkpt>
      <trkpt lat="45.42779" lon="5.74737">
        <ele>386</ele>
        <time>2019-04-26T07:51:00Z</time>
      </trkpt>
      <trkpt lat="45.42774" lon="5.74739">
        <ele>386</ele>
        <time>2019-04-26T07:51:01Z</time>
      </trkpt>
      <trkpt lat="45.4277" lon="5.74742">
        <ele>386</ele>
        <time>2019-04-26T07:51:02Z</time>
      </trkpt>
      <trkpt lat="45.42766" lon="5.74745">
        <ele>386</ele>
        <time>2019-04-26T07:51:03Z</time>
      </trkpt>
      <trkpt lat="45.42762" lon="5.74748">
        <ele>385.9</ele>
        <time>2019-04-26T07:51:04Z</time>
      </trkpt>
      <trkpt lat="45.42757" lon="5.74755">
        <ele>385.8</ele>
        <time>2019-04-26T07:51:06Z</time>
      </trkpt>
      <trkpt lat="45.42752" lon="5.74759">
        <ele>385.8</ele>
        <time>2019-04-26T07:51:07Z</time>
      </trkpt>
      <trkpt lat="45.42748" lon="5.74762">
        <ele>385.8</ele>
        <time>2019-04-26T07:51:08Z</time>
      </trkpt>
      <trkpt lat="45.42731" lon="5.74775">
        <ele>385.9</ele>
        <time>2019-04-26T07:51:10Z</time>
      </trkpt>
      <trkpt lat="45.42728" lon="5.74779">
        <ele>386</ele>
        <time>2019-04-26T07:51:11Z</time>
      </trkpt>
      <trkpt lat="45.42725" lon="5.74784">
        <ele>386</ele>
        <time>2019-04-26T07:51:12Z</time>
      </trkpt>
      <trkpt lat="45.42722" lon="5.74789">
        <ele>386.1</ele>
        <time>2019-04-26T07:51:13Z</time>
      </trkpt>
      <trkpt lat="45.42718" lon="5.74793">
        <ele>386.1</ele>
        <time>2019-04-26T07:51:14Z</time>
      </trkpt>
      <trkpt lat="45.42713" lon="5.74796">
        <ele>386.2</ele>
        <time>2019-04-26T07:51:15Z</time>
      </trkpt>
      <trkpt lat="45.42709" lon="5.74798">
        <ele>386.2</ele>
        <time>2019-04-26T07:51:16Z</time>
      </trkpt>
      <trkpt lat="45.42696" lon="5.74804">
        <ele>386.4</ele>
        <time>2019-04-26T07:51:21Z</time>
      </trkpt>
      <trkpt lat="45.42686" lon="5.74809">
        <ele>386.6</ele>
        <time>2019-04-26T07:51:23Z</time>
      </trkpt>
      <trkpt lat="45.42682" lon="5.7481">
        <ele>386.7</ele>
        <time>2019-04-26T07:51:24Z</time>
      </trkpt>
      <trkpt lat="45.42677" lon="5.74809">
        <ele>386.7</ele>
        <time>2019-04-26T07:51:25Z</time>
      </trkpt>
      <trkpt lat="45.42672" lon="5.7481">
        <ele>386.8</ele>
        <time>2019-04-26T07:51:26Z</time>
      </trkpt>
      <trkpt lat="45.42668" lon="5.74811">
        <ele>386.8</ele>
        <time>2019-04-26T07:51:27Z</time>
      </trkpt>
      <trkpt lat="45.42664" lon="5.74812">
        <ele>386.9</ele>
        <time>2019-04-26T07:51:28Z</time>
      </trkpt>
      <trkpt lat="45.42658" lon="5.74814">
        <ele>387</ele>
        <time>2019-04-26T07:51:29Z</time>
      </trkpt>
      <trkpt lat="45.42651" lon="5.74816">
        <ele>387.1</ele>
        <time>2019-04-26T07:51:30Z</time>
      </trkpt>
      <trkpt lat="45.42644" lon="5.74819">
        <ele>387.3</ele>
        <time>2019-04-26T07:51:31Z</time>
      </trkpt>
      <trkpt lat="45.42638" lon="5.74821">
        <ele>387.4</ele>
        <time>2019-04-26T07:51:32Z</time>
      </trkpt>
      <trkpt lat="45.42634" lon="5.74817">
        <ele>387.6</ele>
        <time>2019-04-26T07:51:34Z</time>
      </trkpt>
      <trkpt lat="45.42627" lon="5.74814">
        <ele>387.7</ele>
        <time>2019-04-26T07:51:35Z</time>
      </trkpt>
      <trkpt lat="45.4262" lon="5.74814">
        <ele>388.1</ele>
        <time>2019-04-26T07:51:36Z</time>
      </trkpt>
      <trkpt lat="45.42613" lon="5.74815">
        <ele>388.1</ele>
        <time>2019-04-26T07:51:37Z</time>
      </trkpt>
      <trkpt lat="45.42607" lon="5.74815">
        <ele>388.2</ele>
        <time>2019-04-26T07:51:38Z</time>
      </trkpt>
      <trkpt lat="45.42605" lon="5.74813">
        <ele>388.3</ele>
        <time>2019-04-26T07:51:39Z</time>
      </trkpt>
      <trkpt lat="45.42602" lon="5.74809">
        <ele>388.4</ele>
        <time>2019-04-26T07:51:41Z</time>
      </trkpt>
      <trkpt lat="45.42599" lon="5.74809">
        <ele>388.4</ele>
        <time>2019-04-26T07:51:42Z</time>
      </trkpt>
      <trkpt lat="45.42593" lon="5.7481">
        <ele>388.4</ele>
        <time>2019-04-26T07:51:43Z</time>
      </trkpt>
      <trkpt lat="45.42588" lon="5.7481">
        <ele>388.4</ele>
        <time>2019-04-26T07:51:44Z</time>
      </trkpt>
      <trkpt lat="45.42585" lon="5.74807">
        <ele>388.4</ele>
        <time>2019-04-26T07:51:45Z</time>
      </trkpt>
      <trkpt lat="45.42581" lon="5.74804">
        <ele>388.3</ele>
        <time>2019-04-26T07:51:46Z</time>
      </trkpt>
      <trkpt lat="45.42576" lon="5.74803">
        <ele>388.2</ele>
        <time>2019-04-26T07:51:47Z</time>
      </trkpt>
      <trkpt lat="45.42572" lon="5.748">
        <ele>388.1</ele>
        <time>2019-04-26T07:51:48Z</time>
      </trkpt>
      <trkpt lat="45.42568" lon="5.74799">
        <ele>388.1</ele>
        <time>2019-04-26T07:51:49Z</time>
      </trkpt>
      <trkpt lat="45.42564" lon="5.74797">
        <ele>388</ele>
        <time>2019-04-26T07:51:50Z</time>
      </trkpt>
      <trkpt lat="45.42562" lon="5.74793">
        <ele>388</ele>
        <time>2019-04-26T07:51:51Z</time>
      </trkpt>
      <trkpt lat="45.42558" lon="5.74793">
        <ele>387.9</ele>
        <time>2019-04-26T07:51:52Z</time>
      </trkpt>
      <trkpt lat="45.42555" lon="5.74792">
        <ele>387.9</ele>
        <time>2019-04-26T07:51:53Z</time>
      </trkpt>
      <trkpt lat="45.42552" lon="5.74792">
        <ele>387.8</ele>
        <time>2019-04-26T07:51:54Z</time>
      </trkpt>
      <trkpt lat="45.42549" lon="5.74791">
        <ele>387.8</ele>
        <time>2019-04-26T07:51:55Z</time>
      </trkpt>
      <trkpt lat="45.42546" lon="5.7479">
        <ele>387.7</ele>
        <time>2019-04-26T07:51:56Z</time>
      </trkpt>
      <trkpt lat="45.42543" lon="5.74789">
        <ele>387.7</ele>
        <time>2019-04-26T07:51:57Z</time>
      </trkpt>
      <trkpt lat="45.4254" lon="5.74788">
        <ele>387.6</ele>
        <time>2019-04-26T07:51:58Z</time>
      </trkpt>
      <trkpt lat="45.42536" lon="5.74787">
        <ele>387.6</ele>
        <time>2019-04-26T07:51:59Z</time>
      </trkpt>
      <trkpt lat="45.42532" lon="5.74787">
        <ele>387.5</ele>
        <time>2019-04-26T07:52:00Z</time>
      </trkpt>
      <trkpt lat="45.42527" lon="5.74786">
        <ele>387.4</ele>
        <time>2019-04-26T07:52:01Z</time>
      </trkpt>
      <trkpt lat="45.42521" lon="5.74789">
        <ele>387.3</ele>
        <time>2019-04-26T07:52:02Z</time>
      </trkpt>
      <trkpt lat="45.42515" lon="5.7479">
        <ele>387.2</ele>
        <time>2019-04-26T07:52:03Z</time>
      </trkpt>
      <trkpt lat="45.4251" lon="5.7479">
        <ele>387.1</ele>
        <time>2019-04-26T07:52:05Z</time>
      </trkpt>
      <trkpt lat="45.42509" lon="5.74786">
        <ele>387.1</ele>
        <time>2019-04-26T07:52:07Z</time>
      </trkpt>
      <trkpt lat="45.42508" lon="5.74781">
        <ele>387</ele>
        <time>2019-04-26T07:52:21Z</time>
      </trkpt>
      <trkpt lat="45.42507" lon="5.74778">
        <ele>387</ele>
        <time>2019-04-26T07:52:36Z</time>
      </trkpt>
      <trkpt lat="45.42504" lon="5.74777">
        <ele>386.9</ele>
        <time>2019-04-26T07:52:44Z</time>
      </trkpt>
      <trkpt lat="45.42503" lon="5.74773">
        <ele>386.9</ele>
        <time>2019-04-26T07:52:51Z</time>
      </trkpt>
      <trkpt lat="45.42501" lon="5.74772">
        <ele>386.9</ele>
        <time>2019-04-26T07:52:56Z</time>
      </trkpt>
      <trkpt lat="45.42497" lon="5.74771">
        <ele>386.8</ele>
        <time>2019-04-26T07:52:58Z</time>
      </trkpt>
      <trkpt lat="45.42494" lon="5.74771">
        <ele>386.8</ele>
        <time>2019-04-26T07:53:00Z</time>
      </trkpt>
      <trkpt lat="45.4249" lon="5.74772">
        <ele>386.8</ele>
        <time>2019-04-26T07:53:02Z</time>
      </trkpt>
      <trkpt lat="45.42485" lon="5.74772">
        <ele>386.9</ele>
        <time>2019-04-26T07:53:04Z</time>
      </trkpt>
      <trkpt lat="45.42482" lon="5.74772">
        <ele>386.9</ele>
        <time>2019-04-26T07:53:06Z</time>
      </trkpt>
      <trkpt lat="45.42481" lon="5.74768">
        <ele>386.9</ele>
        <time>2019-04-26T07:53:11Z</time>
      </trkpt>
      <trkpt lat="45.42478" lon="5.74765">
        <ele>386.9</ele>
        <time>2019-04-26T07:53:15Z</time>
      </trkpt>
      <trkpt lat="45.42475" lon="5.74763">
        <ele>387</ele>
        <time>2019-04-26T07:53:20Z</time>
      </trkpt>
      <trkpt lat="45.42472" lon="5.74761">
        <ele>387</ele>
        <time>2019-04-26T07:53:22Z</time>
      </trkpt>
      <trkpt lat="45.42466" lon="5.74759">
        <ele>387.1</ele>
        <time>2019-04-26T07:53:24Z</time>
      </trkpt>
      <trkpt lat="45.42463" lon="5.74759">
        <ele>387.1</ele>
        <time>2019-04-26T07:53:25Z</time>
      </trkpt>
      <trkpt lat="45.42459" lon="5.74758">
        <ele>387.1</ele>
        <time>2019-04-26T07:53:26Z</time>
      </trkpt>
      <trkpt lat="45.42455" lon="5.74757">
        <ele>387.1</ele>
        <time>2019-04-26T07:53:27Z</time>
      </trkpt>
      <trkpt lat="45.4245" lon="5.74756">
        <ele>387.1</ele>
        <time>2019-04-26T07:53:28Z</time>
      </trkpt>
      <trkpt lat="45.42446" lon="5.74754">
        <ele>387.2</ele>
        <time>2019-04-26T07:53:29Z</time>
      </trkpt>
      <trkpt lat="45.42441" lon="5.74751">
        <ele>387.2</ele>
        <time>2019-04-26T07:53:30Z</time>
      </trkpt>
      <trkpt lat="45.42437" lon="5.74749">
        <ele>387.2</ele>
        <time>2019-04-26T07:53:31Z</time>
      </trkpt>
      <trkpt lat="45.42434" lon="5.74748">
        <ele>387.2</ele>
        <time>2019-04-26T07:53:32Z</time>
      </trkpt>
      <trkpt lat="45.4243" lon="5.74747">
        <ele>387.2</ele>
        <time>2019-04-26T07:53:33Z</time>
      </trkpt>
      <trkpt lat="45.42426" lon="5.74744">
        <ele>387.3</ele>
        <time>2019-04-26T07:53:34Z</time>
      </trkpt>
      <trkpt lat="45.42423" lon="5.74742">
        <ele>387.3</ele>
        <time>2019-04-26T07:53:35Z</time>
      </trkpt>
      <trkpt lat="45.42418" lon="5.74739">
        <ele>387.4</ele>
        <time>2019-04-26T07:53:36Z</time>
      </trkpt>
      <trkpt lat="45.42415" lon="5.74738">
        <ele>387.4</ele>
        <time>2019-04-26T07:53:37Z</time>
      </trkpt>
      <trkpt lat="45.4241" lon="5.74735">
        <ele>387.4</ele>
        <time>2019-04-26T07:53:38Z</time>
      </trkpt>
      <trkpt lat="45.42404" lon="5.74734">
        <ele>387.4</ele>
        <time>2019-04-26T07:53:39Z</time>
      </trkpt>
      <trkpt lat="45.42399" lon="5.74732">
        <ele>387.4</ele>
        <time>2019-04-26T07:53:40Z</time>
      </trkpt>
      <trkpt lat="45.42394" lon="5.74728">
        <ele>387.3</ele>
        <time>2019-04-26T07:53:41Z</time>
      </trkpt>
      <trkpt lat="45.4239" lon="5.74724">
        <ele>387.3</ele>
        <time>2019-04-26T07:53:42Z</time>
      </trkpt>
      <trkpt lat="45.42385" lon="5.7472">
        <ele>387.3</ele>
        <time>2019-04-26T07:53:43Z</time>
      </trkpt>
      <trkpt lat="45.42379" lon="5.74716">
        <ele>387.3</ele>
        <time>2019-04-26T07:53:44Z</time>
      </trkpt>
      <trkpt lat="45.42376" lon="5.74715">
        <ele>387.3</ele>
        <time>2019-04-26T07:53:45Z</time>
      </trkpt>
      <trkpt lat="45.42373" lon="5.74714">
        <ele>387.3</ele>
        <time>2019-04-26T07:53:47Z</time>
      </trkpt>
      <trkpt lat="45.42369" lon="5.74712">
        <ele>387.4</ele>
        <time>2019-04-26T07:53:49Z</time>
      </trkpt>
      <trkpt lat="45.42358" lon="5.74705">
        <ele>387.4</ele>
        <time>2019-04-26T07:53:50Z</time>
      </trkpt>
      <trkpt lat="45.42345" lon="5.74701">
        <ele>387.4</ele>
        <time>2019-04-26T07:53:51Z</time>
      </trkpt>
      <trkpt lat="45.42339" lon="5.74698">
        <ele>387.3</ele>
        <time>2019-04-26T07:53:52Z</time>
      </trkpt>
      <trkpt lat="45.42334" lon="5.74697">
        <ele>387.3</ele>
        <time>2019-04-26T07:53:53Z</time>
      </trkpt>
      <trkpt lat="45.42329" lon="5.74695">
        <ele>387.3</ele>
        <time>2019-04-26T07:53:54Z</time>
      </trkpt>
      <trkpt lat="45.42324" lon="5.74693">
        <ele>387.3</ele>
        <time>2019-04-26T07:53:55Z</time>
      </trkpt>
      <trkpt lat="45.42321" lon="5.74692">
        <ele>387.3</ele>
        <time>2019-04-26T07:53:56Z</time>
      </trkpt>
      <trkpt lat="45.42315" lon="5.74692">
        <ele>387.3</ele>
        <time>2019-04-26T07:53:57Z</time>
      </trkpt>
      <trkpt lat="45.42311" lon="5.7469">
        <ele>387.2</ele>
        <time>2019-04-26T07:53:58Z</time>
      </trkpt>
      <trkpt lat="45.42306" lon="5.74687">
        <ele>387.2</ele>
        <time>2019-04-26T07:53:59Z</time>
      </trkpt>
      <trkpt lat="45.42303" lon="5.74686">
        <ele>387.1</ele>
        <time>2019-04-26T07:54:00Z</time>
      </trkpt>
      <trkpt lat="45.42299" lon="5.74684">
        <ele>387.1</ele>
        <time>2019-04-26T07:54:02Z</time>
      </trkpt>
      <trkpt lat="45.42296" lon="5.74682">
        <ele>387</ele>
        <time>2019-04-26T07:54:03Z</time>
      </trkpt>
      <trkpt lat="45.42277" lon="5.74671">
        <ele>386.7</ele>
        <time>2019-04-26T07:54:05Z</time>
      </trkpt>
      <trkpt lat="45.42271" lon="5.74668">
        <ele>386.7</ele>
        <time>2019-04-26T07:54:06Z</time>
      </trkpt>
      <trkpt lat="45.42268" lon="5.74666">
        <ele>386.8</ele>
        <time>2019-04-26T07:54:10Z</time>
      </trkpt>
      <trkpt lat="45.42263" lon="5.74664">
        <ele>386.8</ele>
        <time>2019-04-26T07:54:12Z</time>
      </trkpt>
      <trkpt lat="45.42261" lon="5.74664">
        <ele>386.9</ele>
        <time>2019-04-26T07:54:13Z</time>
      </trkpt>
      <trkpt lat="45.42258" lon="5.74663">
        <ele>387.1</ele>
        <time>2019-04-26T07:54:14Z</time>
      </trkpt>
      <trkpt lat="45.42255" lon="5.74663">
        <ele>387</ele>
        <time>2019-04-26T07:54:15Z</time>
      </trkpt>
      <trkpt lat="45.42252" lon="5.74662">
        <ele>387</ele>
        <time>2019-04-26T07:54:16Z</time>
      </trkpt>
      <trkpt lat="45.42249" lon="5.74662">
        <ele>386.9</ele>
        <time>2019-04-26T07:54:17Z</time>
      </trkpt>
      <trkpt lat="45.42246" lon="5.74662">
        <ele>386.9</ele>
        <time>2019-04-26T07:54:18Z</time>
      </trkpt>
      <trkpt lat="45.42242" lon="5.74663">
        <ele>386.9</ele>
        <time>2019-04-26T07:54:19Z</time>
      </trkpt>
      <trkpt lat="45.42238" lon="5.74663">
        <ele>386.9</ele>
        <time>2019-04-26T07:54:20Z</time>
      </trkpt>
      <trkpt lat="45.42234" lon="5.74663">
        <ele>386.9</ele>
        <time>2019-04-26T07:54:21Z</time>
      </trkpt>
      <trkpt lat="45.42229" lon="5.74664">
        <ele>386.9</ele>
        <time>2019-04-26T07:54:22Z</time>
      </trkpt>
      <trkpt lat="45.42223" lon="5.74666">
        <ele>386.9</ele>
        <time>2019-04-26T07:54:23Z</time>
      </trkpt>
      <trkpt lat="45.42218" lon="5.74668">
        <ele>386.8</ele>
        <time>2019-04-26T07:54:24Z</time>
      </trkpt>
      <trkpt lat="45.42213" lon="5.7467">
        <ele>386.9</ele>
        <time>2019-04-26T07:54:25Z</time>
      </trkpt>
      <trkpt lat="45.42205" lon="5.74674">
        <ele>386.9</ele>
        <time>2019-04-26T07:54:26Z</time>
      </trkpt>
      <trkpt lat="45.42199" lon="5.74679">
        <ele>386.9</ele>
        <time>2019-04-26T07:54:27Z</time>
      </trkpt>
      <trkpt lat="45.42194" lon="5.74682">
        <ele>386.9</ele>
        <time>2019-04-26T07:54:28Z</time>
      </trkpt>
      <trkpt lat="45.42189" lon="5.74684">
        <ele>387</ele>
        <time>2019-04-26T07:54:29Z</time>
      </trkpt>
      <trkpt lat="45.42183" lon="5.74687">
        <ele>387.1</ele>
        <time>2019-04-26T07:54:31Z</time>
      </trkpt>
      <trkpt lat="45.42178" lon="5.74691">
        <ele>387.2</ele>
        <time>2019-04-26T07:54:32Z</time>
      </trkpt>
      <trkpt lat="45.42173" lon="5.74695">
        <ele>387.3</ele>
        <time>2019-04-26T07:54:33Z</time>
      </trkpt>
      <trkpt lat="45.42168" lon="5.747">
        <ele>387.3</ele>
        <time>2019-04-26T07:54:34Z</time>
      </trkpt>
      <trkpt lat="45.42163" lon="5.74704">
        <ele>387.4</ele>
        <time>2019-04-26T07:54:35Z</time>
      </trkpt>
      <trkpt lat="45.42158" lon="5.74708">
        <ele>387.6</ele>
        <time>2019-04-26T07:54:36Z</time>
      </trkpt>
      <trkpt lat="45.42153" lon="5.74713">
        <ele>387.7</ele>
        <time>2019-04-26T07:54:37Z</time>
      </trkpt>
      <trkpt lat="45.42148" lon="5.74716">
        <ele>387.8</ele>
        <time>2019-04-26T07:54:38Z</time>
      </trkpt>
      <trkpt lat="45.42144" lon="5.74721">
        <ele>387.9</ele>
        <time>2019-04-26T07:54:39Z</time>
      </trkpt>
      <trkpt lat="45.42138" lon="5.74722">
        <ele>388</ele>
        <time>2019-04-26T07:54:40Z</time>
      </trkpt>
      <trkpt lat="45.42132" lon="5.7473">
        <ele>388.1</ele>
        <time>2019-04-26T07:54:41Z</time>
      </trkpt>
      <trkpt lat="45.42127" lon="5.74737">
        <ele>388.1</ele>
        <time>2019-04-26T07:54:42Z</time>
      </trkpt>
      <trkpt lat="45.42122" lon="5.74744">
        <ele>388.2</ele>
        <time>2019-04-26T07:54:43Z</time>
      </trkpt>
      <trkpt lat="45.42116" lon="5.74748">
        <ele>388.3</ele>
        <time>2019-04-26T07:54:44Z</time>
      </trkpt>
      <trkpt lat="45.42111" lon="5.74755">
        <ele>388.4</ele>
        <time>2019-04-26T07:54:45Z</time>
      </trkpt>
      <trkpt lat="45.42107" lon="5.7476">
        <ele>388.4</ele>
        <time>2019-04-26T07:54:46Z</time>
      </trkpt>
      <trkpt lat="45.42103" lon="5.74763">
        <ele>388.4</ele>
        <time>2019-04-26T07:54:47Z</time>
      </trkpt>
      <trkpt lat="45.42099" lon="5.74768">
        <ele>388.5</ele>
        <time>2019-04-26T07:54:48Z</time>
      </trkpt>
      <trkpt lat="45.42095" lon="5.74773">
        <ele>388.5</ele>
        <time>2019-04-26T07:54:49Z</time>
      </trkpt>
      <trkpt lat="45.42092" lon="5.74777">
        <ele>388.5</ele>
        <time>2019-04-26T07:54:50Z</time>
      </trkpt>
      <trkpt lat="45.42089" lon="5.74782">
        <ele>388.5</ele>
        <time>2019-04-26T07:54:51Z</time>
      </trkpt>
      <trkpt lat="45.42087" lon="5.74786">
        <ele>388.5</ele>
        <time>2019-04-26T07:54:52Z</time>
      </trkpt>
      <trkpt lat="45.42084" lon="5.74787">
        <ele>388.6</ele>
        <time>2019-04-26T07:54:53Z</time>
      </trkpt>
      <trkpt lat="45.42082" lon="5.74794">
        <ele>388.5</ele>
        <time>2019-04-26T07:54:54Z</time>
      </trkpt>
      <trkpt lat="45.4208" lon="5.74798">
        <ele>388.5</ele>
        <time>2019-04-26T07:54:55Z</time>
      </trkpt>
      <trkpt lat="45.42077" lon="5.74803">
        <ele>388.4</ele>
        <time>2019-04-26T07:54:56Z</time>
      </trkpt>
      <trkpt lat="45.42072" lon="5.74807">
        <ele>388.4</ele>
        <time>2019-04-26T07:54:57Z</time>
      </trkpt>
      <trkpt lat="45.42068" lon="5.7481">
        <ele>388.4</ele>
        <time>2019-04-26T07:54:58Z</time>
      </trkpt>
      <trkpt lat="45.42066" lon="5.74815">
        <ele>388.3</ele>
        <time>2019-04-26T07:54:59Z</time>
      </trkpt>
      <trkpt lat="45.42063" lon="5.7482">
        <ele>388.3</ele>
        <time>2019-04-26T07:55:00Z</time>
      </trkpt>
      <trkpt lat="45.4206" lon="5.74821">
        <ele>388.2</ele>
        <time>2019-04-26T07:55:01Z</time>
      </trkpt>
      <trkpt lat="45.42057" lon="5.74825">
        <ele>388.1</ele>
        <time>2019-04-26T07:55:02Z</time>
      </trkpt>
      <trkpt lat="45.42054" lon="5.74824">
        <ele>388</ele>
        <time>2019-04-26T07:55:03Z</time>
      </trkpt>
      <trkpt lat="45.42054" lon="5.74829">
        <ele>388</ele>
        <time>2019-04-26T07:55:04Z</time>
      </trkpt>
      <trkpt lat="45.42051" lon="5.74834">
        <ele>388.1</ele>
        <time>2019-04-26T07:55:06Z</time>
      </trkpt>
      <trkpt lat="45.42047" lon="5.74833">
        <ele>388.1</ele>
        <time>2019-04-26T07:55:07Z</time>
      </trkpt>
      <trkpt lat="45.42049" lon="5.74837">
        <ele>388.1</ele>
        <time>2019-04-26T07:55:09Z</time>
      </trkpt>
      <trkpt lat="45.42053" lon="5.74837">
        <ele>388.1</ele>
        <time>2019-04-26T07:55:11Z</time>
      </trkpt>
      <trkpt lat="45.42051" lon="5.74837">
        <ele>388.1</ele>
        <time>2019-04-26T07:55:13Z</time>
      </trkpt>
      <trkpt lat="45.42046" lon="5.74836">
        <ele>388.1</ele>
        <time>2019-04-26T07:55:16Z</time>
      </trkpt>
      <trkpt lat="45.42043" lon="5.74838">
        <ele>388.1</ele>
        <time>2019-04-26T07:55:18Z</time>
      </trkpt>
      <trkpt lat="45.4204" lon="5.74841">
        <ele>388.1</ele>
        <time>2019-04-26T07:55:20Z</time>
      </trkpt>
      <trkpt lat="45.42036" lon="5.74845">
        <ele>388</ele>
        <time>2019-04-26T07:55:22Z</time>
      </trkpt>
      <trkpt lat="45.42032" lon="5.74846">
        <ele>388</ele>
        <time>2019-04-26T07:55:24Z</time>
      </trkpt>
      <trkpt lat="45.42028" lon="5.74847">
        <ele>388</ele>
        <time>2019-04-26T07:55:26Z</time>
      </trkpt>
      <trkpt lat="45.42027" lon="5.7485">
        <ele>388</ele>
        <time>2019-04-26T07:55:29Z</time>
      </trkpt>
      <trkpt lat="45.42024" lon="5.74851">
        <ele>388.1</ele>
        <time>2019-04-26T07:55:32Z</time>
      </trkpt>
      <trkpt lat="45.4202" lon="5.74852">
        <ele>388.2</ele>
        <time>2019-04-26T07:55:36Z</time>
      </trkpt>
      <trkpt lat="45.42017" lon="5.74855">
        <ele>388.2</ele>
        <time>2019-04-26T07:55:39Z</time>
      </trkpt>
      <trkpt lat="45.42016" lon="5.74858">
        <ele>388.3</ele>
        <time>2019-04-26T07:55:42Z</time>
      </trkpt>
      <trkpt lat="45.42013" lon="5.7486">
        <ele>388.4</ele>
        <time>2019-04-26T07:55:50Z</time>
      </trkpt>
      <trkpt lat="45.4201" lon="5.74862">
        <ele>388.4</ele>
        <time>2019-04-26T07:55:53Z</time>
      </trkpt>
      <trkpt lat="45.42007" lon="5.74863">
        <ele>388.4</ele>
        <time>2019-04-26T07:55:59Z</time>
      </trkpt>
      <trkpt lat="45.42004" lon="5.74861">
        <ele>388.4</ele>
        <time>2019-04-26T07:56:04Z</time>
      </trkpt>
      <trkpt lat="45.42001" lon="5.74861">
        <ele>388.4</ele>
        <time>2019-04-26T07:56:06Z</time>
      </trkpt>
      <trkpt lat="45.41997" lon="5.74861">
        <ele>388.4</ele>
        <time>2019-04-26T07:56:09Z</time>
      </trkpt>
      <trkpt lat="45.41994" lon="5.74861">
        <ele>388.5</ele>
        <time>2019-04-26T07:56:12Z</time>
      </trkpt>
      <trkpt lat="45.4199" lon="5.74858">
        <ele>388.4</ele>
        <time>2019-04-26T07:56:15Z</time>
      </trkpt>
      <trkpt lat="45.41986" lon="5.74857">
        <ele>388.5</ele>
        <time>2019-04-26T07:56:17Z</time>
      </trkpt>
      <trkpt lat="45.41982" lon="5.74855">
        <ele>388.4</ele>
        <time>2019-04-26T07:56:19Z</time>
      </trkpt>
      <trkpt lat="45.41977" lon="5.74852">
        <ele>388.5</ele>
        <time>2019-04-26T07:56:21Z</time>
      </trkpt>
      <trkpt lat="45.41972" lon="5.74849">
        <ele>388.5</ele>
        <time>2019-04-26T07:56:23Z</time>
      </trkpt>
      <trkpt lat="45.41969" lon="5.74847">
        <ele>388.4</ele>
        <time>2019-04-26T07:56:24Z</time>
      </trkpt>
      <trkpt lat="45.41966" lon="5.74844">
        <ele>388.5</ele>
        <time>2019-04-26T07:56:25Z</time>
      </trkpt>
      <trkpt lat="45.41963" lon="5.74842">
        <ele>388.5</ele>
        <time>2019-04-26T07:56:26Z</time>
      </trkpt>
      <trkpt lat="45.4196" lon="5.7484">
        <ele>388.7</ele>
        <time>2019-04-26T07:56:27Z</time>
      </trkpt>
      <trkpt lat="45.41956" lon="5.74837">
        <ele>388.7</ele>
        <time>2019-04-26T07:56:28Z</time>
      </trkpt>
      <trkpt lat="45.41953" lon="5.74834">
        <ele>388.8</ele>
        <time>2019-04-26T07:56:29Z</time>
      </trkpt>
      <trkpt lat="45.41951" lon="5.7483">
        <ele>388.9</ele>
        <time>2019-04-26T07:56:30Z</time>
      </trkpt>
      <trkpt lat="45.41948" lon="5.74826">
        <ele>388.8</ele>
        <time>2019-04-26T07:56:31Z</time>
      </trkpt>
      <trkpt lat="45.41946" lon="5.74823">
        <ele>388.9</ele>
        <time>2019-04-26T07:56:32Z</time>
      </trkpt>
      <trkpt lat="45.41943" lon="5.74819">
        <ele>389</ele>
        <time>2019-04-26T07:56:33Z</time>
      </trkpt>
      <trkpt lat="45.4194" lon="5.74816">
        <ele>389.1</ele>
        <time>2019-04-26T07:56:34Z</time>
      </trkpt>
      <trkpt lat="45.41937" lon="5.74812">
        <ele>389.2</ele>
        <time>2019-04-26T07:56:35Z</time>
      </trkpt>
      <trkpt lat="45.41934" lon="5.74807">
        <ele>389.3</ele>
        <time>2019-04-26T07:56:36Z</time>
      </trkpt>
      <trkpt lat="45.41932" lon="5.74801">
        <ele>389.4</ele>
        <time>2019-04-26T07:56:38Z</time>
      </trkpt>
      <trkpt lat="45.41928" lon="5.74798">
        <ele>389.5</ele>
        <time>2019-04-26T07:56:40Z</time>
      </trkpt>
      <trkpt lat="45.41925" lon="5.74795">
        <ele>389.7</ele>
        <time>2019-04-26T07:56:42Z</time>
      </trkpt>
      <trkpt lat="45.41921" lon="5.74793">
        <ele>389.9</ele>
        <time>2019-04-26T07:56:44Z</time>
      </trkpt>
      <trkpt lat="45.41918" lon="5.7479">
        <ele>390</ele>
        <time>2019-04-26T07:56:46Z</time>
      </trkpt>
      <trkpt lat="45.41916" lon="5.74787">
        <ele>390.3</ele>
        <time>2019-04-26T07:56:47Z</time>
      </trkpt>
      <trkpt lat="45.41914" lon="5.74784">
        <ele>390.5</ele>
        <time>2019-04-26T07:56:48Z</time>
      </trkpt>
      <trkpt lat="45.41911" lon="5.74779">
        <ele>390.6</ele>
        <time>2019-04-26T07:56:50Z</time>
      </trkpt>
      <trkpt lat="45.41907" lon="5.74773">
        <ele>390.8</ele>
        <time>2019-04-26T07:56:52Z</time>
      </trkpt>
      <trkpt lat="45.41903" lon="5.74768">
        <ele>390.9</ele>
        <time>2019-04-26T07:56:53Z</time>
      </trkpt>
      <trkpt lat="45.41901" lon="5.74765">
        <ele>391.1</ele>
        <time>2019-04-26T07:56:54Z</time>
      </trkpt>
      <trkpt lat="45.41899" lon="5.74762">
        <ele>391.3</ele>
        <time>2019-04-26T07:56:55Z</time>
      </trkpt>
      <trkpt lat="45.41895" lon="5.74757">
        <ele>391.4</ele>
        <time>2019-04-26T07:56:57Z</time>
      </trkpt>
      <trkpt lat="45.41892" lon="5.74753">
        <ele>391.6</ele>
        <time>2019-04-26T07:56:59Z</time>
      </trkpt>
      <trkpt lat="45.41889" lon="5.7475">
        <ele>391.8</ele>
        <time>2019-04-26T07:57:00Z</time>
      </trkpt>
      <trkpt lat="45.41886" lon="5.74747">
        <ele>391.9</ele>
        <time>2019-04-26T07:57:01Z</time>
      </trkpt>
      <trkpt lat="45.41881" lon="5.74741">
        <ele>392.3</ele>
        <time>2019-04-26T07:57:02Z</time>
      </trkpt>
      <trkpt lat="45.41877" lon="5.7474">
        <ele>392.5</ele>
        <time>2019-04-26T07:57:04Z</time>
      </trkpt>
      <trkpt lat="45.41875" lon="5.74737">
        <ele>392.6</ele>
        <time>2019-04-26T07:57:09Z</time>
      </trkpt>
      <trkpt lat="45.41872" lon="5.74736">
        <ele>392.7</ele>
        <time>2019-04-26T07:57:12Z</time>
      </trkpt>
      <trkpt lat="45.41869" lon="5.74736">
        <ele>392.9</ele>
        <time>2019-04-26T07:57:13Z</time>
      </trkpt>
      <trkpt lat="45.41869" lon="5.74731">
        <ele>392.8</ele>
        <time>2019-04-26T07:57:18Z</time>
      </trkpt>
      <trkpt lat="45.41869" lon="5.74728">
        <ele>392.8</ele>
        <time>2019-04-26T07:57:23Z</time>
      </trkpt>
      <trkpt lat="45.41868" lon="5.74724">
        <ele>392.8</ele>
        <time>2019-04-26T07:57:27Z</time>
      </trkpt>
      <trkpt lat="45.41865" lon="5.74724">
        <ele>392.9</ele>
        <time>2019-04-26T07:57:43Z</time>
      </trkpt>
      <trkpt lat="45.41862" lon="5.74723">
        <ele>392.9</ele>
        <time>2019-04-26T07:57:44Z</time>
      </trkpt>
      <trkpt lat="45.41858" lon="5.7472">
        <ele>392.9</ele>
        <time>2019-04-26T07:57:45Z</time>
      </trkpt>
      <trkpt lat="45.41855" lon="5.74716">
        <ele>392.9</ele>
        <time>2019-04-26T07:57:46Z</time>
      </trkpt>
      <trkpt lat="45.41853" lon="5.74713">
        <ele>392.8</ele>
        <time>2019-04-26T07:57:47Z</time>
      </trkpt>
      <trkpt lat="45.41852" lon="5.74706">
        <ele>392.7</ele>
        <time>2019-04-26T07:57:49Z</time>
      </trkpt>
      <trkpt lat="45.41851" lon="5.747">
        <ele>392.5</ele>
        <time>2019-04-26T07:57:51Z</time>
      </trkpt>
      <trkpt lat="45.41847" lon="5.74693">
        <ele>392.4</ele>
        <time>2019-04-26T07:57:53Z</time>
      </trkpt>
      <trkpt lat="45.41845" lon="5.74689">
        <ele>392.3</ele>
        <time>2019-04-26T07:57:54Z</time>
      </trkpt>
      <trkpt lat="45.41843" lon="5.74685">
        <ele>392.2</ele>
        <time>2019-04-26T07:57:55Z</time>
      </trkpt>
      <trkpt lat="45.41842" lon="5.7468">
        <ele>392.1</ele>
        <time>2019-04-26T07:57:56Z</time>
      </trkpt>
      <trkpt lat="45.41841" lon="5.74674">
        <ele>391.8</ele>
        <time>2019-04-26T07:57:57Z</time>
      </trkpt>
      <trkpt lat="45.41841" lon="5.74667">
        <ele>391.6</ele>
        <time>2019-04-26T07:57:58Z</time>
      </trkpt>
      <trkpt lat="45.4184" lon="5.7466">
        <ele>391.2</ele>
        <time>2019-04-26T07:57:59Z</time>
      </trkpt>
      <trkpt lat="45.41836" lon="5.74657">
        <ele>391.3</ele>
        <time>2019-04-26T07:58:00Z</time>
      </trkpt>
      <trkpt lat="45.41833" lon="5.74652">
        <ele>391.3</ele>
        <time>2019-04-26T07:58:01Z</time>
      </trkpt>
      <trkpt lat="45.41833" lon="5.74647">
        <ele>391.1</ele>
        <time>2019-04-26T07:58:02Z</time>
      </trkpt>
      <trkpt lat="45.41831" lon="5.74641">
        <ele>391</ele>
        <time>2019-04-26T07:58:04Z</time>
      </trkpt>
      <trkpt lat="45.4183" lon="5.74636">
        <ele>390.9</ele>
        <time>2019-04-26T07:58:05Z</time>
      </trkpt>
      <trkpt lat="45.41834" lon="5.74618">
        <ele>390</ele>
        <time>2019-04-26T07:58:08Z</time>
      </trkpt>
      <trkpt lat="45.41836" lon="5.74615">
        <ele>389.9</ele>
        <time>2019-04-26T07:58:09Z</time>
      </trkpt>
      <trkpt lat="45.41837" lon="5.74605">
        <ele>389.5</ele>
        <time>2019-04-26T07:58:11Z</time>
      </trkpt>
      <trkpt lat="45.41839" lon="5.746">
        <ele>389.4</ele>
        <time>2019-04-26T07:58:12Z</time>
      </trkpt>
      <trkpt lat="45.41842" lon="5.74595">
        <ele>389.2</ele>
        <time>2019-04-26T07:58:13Z</time>
      </trkpt>
      <trkpt lat="45.41844" lon="5.74592">
        <ele>389</ele>
        <time>2019-04-26T07:58:15Z</time>
      </trkpt>
      <trkpt lat="45.41846" lon="5.74588">
        <ele>388.9</ele>
        <time>2019-04-26T07:58:17Z</time>
      </trkpt>
      <trkpt lat="45.41847" lon="5.74584">
        <ele>388.8</ele>
        <time>2019-04-26T07:58:18Z</time>
      </trkpt>
      <trkpt lat="45.41851" lon="5.74571">
        <ele>388.7</ele>
        <time>2019-04-26T07:58:19Z</time>
      </trkpt>
      <trkpt lat="45.41854" lon="5.74564">
        <ele>388.6</ele>
        <time>2019-04-26T07:58:20Z</time>
      </trkpt>
      <trkpt lat="45.41856" lon="5.74556">
        <ele>388.5</ele>
        <time>2019-04-26T07:58:22Z</time>
      </trkpt>
      <trkpt lat="45.41859" lon="5.74551">
        <ele>388.5</ele>
        <time>2019-04-26T07:58:23Z</time>
      </trkpt>
      <trkpt lat="45.4186" lon="5.74547">
        <ele>388.5</ele>
        <time>2019-04-26T07:58:24Z</time>
      </trkpt>
      <trkpt lat="45.4186" lon="5.74543">
        <ele>388.6</ele>
        <time>2019-04-26T07:58:25Z</time>
      </trkpt>
      <trkpt lat="45.4186" lon="5.74538">
        <ele>388.6</ele>
        <time>2019-04-26T07:58:27Z</time>
      </trkpt>
      <trkpt lat="45.4186" lon="5.74534">
        <ele>388.7</ele>
        <time>2019-04-26T07:58:28Z</time>
      </trkpt>
      <trkpt lat="45.41861" lon="5.74524">
        <ele>388.8</ele>
        <time>2019-04-26T07:58:29Z</time>
      </trkpt>
      <trkpt lat="45.41859" lon="5.74506">
        <ele>389.3</ele>
        <time>2019-04-26T07:58:30Z</time>
      </trkpt>
      <trkpt lat="45.41861" lon="5.74499">
        <ele>389.4</ele>
        <time>2019-04-26T07:58:32Z</time>
      </trkpt>
      <trkpt lat="45.41861" lon="5.74495">
        <ele>389.5</ele>
        <time>2019-04-26T07:58:33Z</time>
      </trkpt>
      <trkpt lat="45.4186" lon="5.74487">
        <ele>389.8</ele>
        <time>2019-04-26T07:58:35Z</time>
      </trkpt>
      <trkpt lat="45.41859" lon="5.74483">
        <ele>389.9</ele>
        <time>2019-04-26T07:58:36Z</time>
      </trkpt>
      <trkpt lat="45.41859" lon="5.74475">
        <ele>390.2</ele>
        <time>2019-04-26T07:58:38Z</time>
      </trkpt>
      <trkpt lat="45.41859" lon="5.74471">
        <ele>390.3</ele>
        <time>2019-04-26T07:58:39Z</time>
      </trkpt>
      <trkpt lat="45.41858" lon="5.74464">
        <ele>390.6</ele>
        <time>2019-04-26T07:58:40Z</time>
      </trkpt>
      <trkpt lat="45.41858" lon="5.74456">
        <ele>390.9</ele>
        <time>2019-04-26T07:58:41Z</time>
      </trkpt>
      <trkpt lat="45.41856" lon="5.74449">
        <ele>391</ele>
        <time>2019-04-26T07:58:42Z</time>
      </trkpt>
      <trkpt lat="45.41854" lon="5.74443">
        <ele>391.1</ele>
        <time>2019-04-26T07:58:43Z</time>
      </trkpt>
      <trkpt lat="45.41852" lon="5.74437">
        <ele>391.4</ele>
        <time>2019-04-26T07:58:44Z</time>
      </trkpt>
      <trkpt lat="45.41851" lon="5.74429">
        <ele>391.6</ele>
        <time>2019-04-26T07:58:45Z</time>
      </trkpt>
      <trkpt lat="45.41851" lon="5.74425">
        <ele>391.7</ele>
        <time>2019-04-26T07:58:46Z</time>
      </trkpt>
      <trkpt lat="45.4185" lon="5.74421">
        <ele>391.7</ele>
        <time>2019-04-26T07:58:48Z</time>
      </trkpt>
      <trkpt lat="45.41846" lon="5.74417">
        <ele>391.8</ele>
        <time>2019-04-26T07:58:50Z</time>
      </trkpt>
      <trkpt lat="45.41844" lon="5.74415">
        <ele>391.8</ele>
        <time>2019-04-26T07:58:51Z</time>
      </trkpt>
      <trkpt lat="45.41841" lon="5.74413">
        <ele>391.9</ele>
        <time>2019-04-26T07:58:52Z</time>
      </trkpt>
      <trkpt lat="45.41839" lon="5.7441">
        <ele>391.9</ele>
        <time>2019-04-26T07:58:53Z</time>
      </trkpt>
      <trkpt lat="45.41837" lon="5.74406">
        <ele>392</ele>
        <time>2019-04-26T07:58:54Z</time>
      </trkpt>
      <trkpt lat="45.41835" lon="5.74402">
        <ele>392.1</ele>
        <time>2019-04-26T07:58:55Z</time>
      </trkpt>
      <trkpt lat="45.41833" lon="5.74398">
        <ele>392.2</ele>
        <time>2019-04-26T07:58:56Z</time>
      </trkpt>
      <trkpt lat="45.41831" lon="5.74394">
        <ele>392.3</ele>
        <time>2019-04-26T07:58:57Z</time>
      </trkpt>
      <trkpt lat="45.41829" lon="5.74389">
        <ele>392.4</ele>
        <time>2019-04-26T07:58:58Z</time>
      </trkpt>
      <trkpt lat="45.41826" lon="5.74384">
        <ele>392.5</ele>
        <time>2019-04-26T07:58:59Z</time>
      </trkpt>
      <trkpt lat="45.41823" lon="5.74379">
        <ele>392.7</ele>
        <time>2019-04-26T07:59:00Z</time>
      </trkpt>
      <trkpt lat="45.4182" lon="5.74375">
        <ele>392.7</ele>
        <time>2019-04-26T07:59:01Z</time>
      </trkpt>
      <trkpt lat="45.41816" lon="5.74372">
        <ele>392.7</ele>
        <time>2019-04-26T07:59:02Z</time>
      </trkpt>
      <trkpt lat="45.41813" lon="5.74369">
        <ele>392.8</ele>
        <time>2019-04-26T07:59:03Z</time>
      </trkpt>
      <trkpt lat="45.4181" lon="5.74365">
        <ele>392.8</ele>
        <time>2019-04-26T07:59:04Z</time>
      </trkpt>
      <trkpt lat="45.41803" lon="5.74355">
        <ele>392.7</ele>
        <time>2019-04-26T07:59:05Z</time>
      </trkpt>
      <trkpt lat="45.41796" lon="5.74353">
        <ele>392.6</ele>
        <time>2019-04-26T07:59:06Z</time>
      </trkpt>
      <trkpt lat="45.41793" lon="5.74352">
        <ele>392.5</ele>
        <time>2019-04-26T07:59:07Z</time>
      </trkpt>
      <trkpt lat="45.41789" lon="5.74352">
        <ele>392.4</ele>
        <time>2019-04-26T07:59:09Z</time>
      </trkpt>
      <trkpt lat="45.41787" lon="5.74349">
        <ele>392.2</ele>
        <time>2019-04-26T07:59:11Z</time>
      </trkpt>
      <trkpt lat="45.41784" lon="5.74347">
        <ele>392.1</ele>
        <time>2019-04-26T07:59:13Z</time>
      </trkpt>
      <trkpt lat="45.41781" lon="5.74344">
        <ele>392</ele>
        <time>2019-04-26T07:59:15Z</time>
      </trkpt>
      <trkpt lat="45.41778" lon="5.74342">
        <ele>391.9</ele>
        <time>2019-04-26T07:59:17Z</time>
      </trkpt>
      <trkpt lat="45.41774" lon="5.74339">
        <ele>391.7</ele>
        <time>2019-04-26T07:59:19Z</time>
      </trkpt>
      <trkpt lat="45.41769" lon="5.74335">
        <ele>391.4</ele>
        <time>2019-04-26T07:59:21Z</time>
      </trkpt>
      <trkpt lat="45.41764" lon="5.74332">
        <ele>391.2</ele>
        <time>2019-04-26T07:59:23Z</time>
      </trkpt>
      <trkpt lat="45.41761" lon="5.74329">
        <ele>391.1</ele>
        <time>2019-04-26T07:59:24Z</time>
      </trkpt>
      <trkpt lat="45.41757" lon="5.74326">
        <ele>390.9</ele>
        <time>2019-04-26T07:59:25Z</time>
      </trkpt>
      <trkpt lat="45.41754" lon="5.74323">
        <ele>390.8</ele>
        <time>2019-04-26T07:59:26Z</time>
      </trkpt>
      <trkpt lat="45.4175" lon="5.74321">
        <ele>390.7</ele>
        <time>2019-04-26T07:59:27Z</time>
      </trkpt>
      <trkpt lat="45.41746" lon="5.74318">
        <ele>390.5</ele>
        <time>2019-04-26T07:59:28Z</time>
      </trkpt>
      <trkpt lat="45.41742" lon="5.74316">
        <ele>390.5</ele>
        <time>2019-04-26T07:59:29Z</time>
      </trkpt>
      <trkpt lat="45.41737" lon="5.74314">
        <ele>390.4</ele>
        <time>2019-04-26T07:59:30Z</time>
      </trkpt>
      <trkpt lat="45.41734" lon="5.74312">
        <ele>390.4</ele>
        <time>2019-04-26T07:59:31Z</time>
      </trkpt>
      <trkpt lat="45.41731" lon="5.74309">
        <ele>390.3</ele>
        <time>2019-04-26T07:59:32Z</time>
      </trkpt>
      <trkpt lat="45.41729" lon="5.74306">
        <ele>390.2</ele>
        <time>2019-04-26T07:59:34Z</time>
      </trkpt>
      <trkpt lat="45.41727" lon="5.74302">
        <ele>390.1</ele>
        <time>2019-04-26T07:59:36Z</time>
      </trkpt>
      <trkpt lat="45.41725" lon="5.74297">
        <ele>390.1</ele>
        <time>2019-04-26T07:59:38Z</time>
      </trkpt>
      <trkpt lat="45.41723" lon="5.74294">
        <ele>390</ele>
        <time>2019-04-26T07:59:39Z</time>
      </trkpt>
      <trkpt lat="45.41718" lon="5.7429">
        <ele>390.1</ele>
        <time>2019-04-26T07:59:41Z</time>
      </trkpt>
      <trkpt lat="45.41715" lon="5.74288">
        <ele>390</ele>
        <time>2019-04-26T07:59:42Z</time>
      </trkpt>
      <trkpt lat="45.41713" lon="5.74287">
        <ele>390.1</ele>
        <time>2019-04-26T07:59:43Z</time>
      </trkpt>
      <trkpt lat="45.4171" lon="5.74285">
        <ele>390.1</ele>
        <time>2019-04-26T07:59:44Z</time>
      </trkpt>
      <trkpt lat="45.41708" lon="5.74283">
        <ele>390.1</ele>
        <time>2019-04-26T07:59:45Z</time>
      </trkpt>
      <trkpt lat="45.41704" lon="5.7428">
        <ele>390.1</ele>
        <time>2019-04-26T07:59:46Z</time>
      </trkpt>
      <trkpt lat="45.41701" lon="5.74278">
        <ele>390.3</ele>
        <time>2019-04-26T07:59:47Z</time>
      </trkpt>
      <trkpt lat="45.41697" lon="5.74275">
        <ele>390.3</ele>
        <time>2019-04-26T07:59:48Z</time>
      </trkpt>
      <trkpt lat="45.41694" lon="5.74273">
        <ele>390.4</ele>
        <time>2019-04-26T07:59:49Z</time>
      </trkpt>
      <trkpt lat="45.4169" lon="5.7427">
        <ele>390.4</ele>
        <time>2019-04-26T07:59:50Z</time>
      </trkpt>
      <trkpt lat="45.41686" lon="5.74268">
        <ele>390.5</ele>
        <time>2019-04-26T07:59:51Z</time>
      </trkpt>
      <trkpt lat="45.41683" lon="5.74265">
        <ele>390.6</ele>
        <time>2019-04-26T07:59:52Z</time>
      </trkpt>
      <trkpt lat="45.4168" lon="5.74263">
        <ele>390.8</ele>
        <time>2019-04-26T07:59:53Z</time>
      </trkpt>
      <trkpt lat="45.41676" lon="5.7426">
        <ele>390.9</ele>
        <time>2019-04-26T07:59:54Z</time>
      </trkpt>
      <trkpt lat="45.41672" lon="5.74255">
        <ele>391</ele>
        <time>2019-04-26T07:59:55Z</time>
      </trkpt>
      <trkpt lat="45.41668" lon="5.7425">
        <ele>391</ele>
        <time>2019-04-26T07:59:56Z</time>
      </trkpt>
      <trkpt lat="45.41665" lon="5.74245">
        <ele>391.2</ele>
        <time>2019-04-26T07:59:57Z</time>
      </trkpt>
      <trkpt lat="45.41662" lon="5.74241">
        <ele>391.1</ele>
        <time>2019-04-26T07:59:58Z</time>
      </trkpt>
      <trkpt lat="45.4166" lon="5.74237">
        <ele>391.1</ele>
        <time>2019-04-26T07:59:59Z</time>
      </trkpt>
      <trkpt lat="45.41659" lon="5.74233">
        <ele>391.1</ele>
        <time>2019-04-26T08:00:00Z</time>
      </trkpt>
      <trkpt lat="45.41658" lon="5.74225">
        <ele>391</ele>
        <time>2019-04-26T08:00:02Z</time>
      </trkpt>
      <trkpt lat="45.41657" lon="5.74221">
        <ele>391</ele>
        <time>2019-04-26T08:00:03Z</time>
      </trkpt>
      <trkpt lat="45.41656" lon="5.74217">
        <ele>390.9</ele>
        <time>2019-04-26T08:00:04Z</time>
      </trkpt>
      <trkpt lat="45.41654" lon="5.74214">
        <ele>390.8</ele>
        <time>2019-04-26T08:00:05Z</time>
      </trkpt>
      <trkpt lat="45.41653" lon="5.74211">
        <ele>390.8</ele>
        <time>2019-04-26T08:00:06Z</time>
      </trkpt>
      <trkpt lat="45.41651" lon="5.74207">
        <ele>390.7</ele>
        <time>2019-04-26T08:00:07Z</time>
      </trkpt>
      <trkpt lat="45.41649" lon="5.74203">
        <ele>390.6</ele>
        <time>2019-04-26T08:00:08Z</time>
      </trkpt>
      <trkpt lat="45.41647" lon="5.74199">
        <ele>390.6</ele>
        <time>2019-04-26T08:00:09Z</time>
      </trkpt>
      <trkpt lat="45.41644" lon="5.74193">
        <ele>390.5</ele>
        <time>2019-04-26T08:00:10Z</time>
      </trkpt>
      <trkpt lat="45.41641" lon="5.74187">
        <ele>390.5</ele>
        <time>2019-04-26T08:00:11Z</time>
      </trkpt>
      <trkpt lat="45.41638" lon="5.74181">
        <ele>390.4</ele>
        <time>2019-04-26T08:00:12Z</time>
      </trkpt>
      <trkpt lat="45.41636" lon="5.74175">
        <ele>390.3</ele>
        <time>2019-04-26T08:00:13Z</time>
      </trkpt>
      <trkpt lat="45.41634" lon="5.7417">
        <ele>390.2</ele>
        <time>2019-04-26T08:00:14Z</time>
      </trkpt>
      <trkpt lat="45.41631" lon="5.74165">
        <ele>390.2</ele>
        <time>2019-04-26T08:00:15Z</time>
      </trkpt>
      <trkpt lat="45.41629" lon="5.74161">
        <ele>390.2</ele>
        <time>2019-04-26T08:00:16Z</time>
      </trkpt>
      <trkpt lat="45.41626" lon="5.74156">
        <ele>390.1</ele>
        <time>2019-04-26T08:00:17Z</time>
      </trkpt>
      <trkpt lat="45.41624" lon="5.74152">
        <ele>390</ele>
        <time>2019-04-26T08:00:18Z</time>
      </trkpt>
      <trkpt lat="45.41622" lon="5.74147">
        <ele>389.9</ele>
        <time>2019-04-26T08:00:19Z</time>
      </trkpt>
      <trkpt lat="45.4162" lon="5.74142">
        <ele>389.9</ele>
        <time>2019-04-26T08:00:20Z</time>
      </trkpt>
      <trkpt lat="45.41618" lon="5.74138">
        <ele>389.9</ele>
        <time>2019-04-26T08:00:21Z</time>
      </trkpt>
      <trkpt lat="45.41615" lon="5.74135">
        <ele>389.8</ele>
        <time>2019-04-26T08:00:22Z</time>
      </trkpt>
      <trkpt lat="45.41613" lon="5.74131">
        <ele>389.8</ele>
        <time>2019-04-26T08:00:23Z</time>
      </trkpt>
      <trkpt lat="45.4161" lon="5.74126">
        <ele>390.2</ele>
        <time>2019-04-26T08:00:24Z</time>
      </trkpt>
      <trkpt lat="45.41608" lon="5.7412">
        <ele>390.5</ele>
        <time>2019-04-26T08:00:25Z</time>
      </trkpt>
      <trkpt lat="45.41607" lon="5.74115">
        <ele>390.8</ele>
        <time>2019-04-26T08:00:26Z</time>
      </trkpt>
      <trkpt lat="45.41605" lon="5.74111">
        <ele>391.3</ele>
        <time>2019-04-26T08:00:27Z</time>
      </trkpt>
      <trkpt lat="45.41603" lon="5.74106">
        <ele>391.6</ele>
        <time>2019-04-26T08:00:28Z</time>
      </trkpt>
      <trkpt lat="45.41602" lon="5.74102">
        <ele>392.1</ele>
        <time>2019-04-26T08:00:29Z</time>
      </trkpt>
      <trkpt lat="45.416" lon="5.74097">
        <ele>392.4</ele>
        <time>2019-04-26T08:00:30Z</time>
      </trkpt>
      <trkpt lat="45.41598" lon="5.74092">
        <ele>392.6</ele>
        <time>2019-04-26T08:00:31Z</time>
      </trkpt>
      <trkpt lat="45.41597" lon="5.74088">
        <ele>393.1</ele>
        <time>2019-04-26T08:00:32Z</time>
      </trkpt>
      <trkpt lat="45.41595" lon="5.74084">
        <ele>393.3</ele>
        <time>2019-04-26T08:00:33Z</time>
      </trkpt>
      <trkpt lat="45.41593" lon="5.7408">
        <ele>393.8</ele>
        <time>2019-04-26T08:00:35Z</time>
      </trkpt>
      <trkpt lat="45.41591" lon="5.74074">
        <ele>394</ele>
        <time>2019-04-26T08:00:37Z</time>
      </trkpt>
      <trkpt lat="45.4159" lon="5.74071">
        <ele>394.4</ele>
        <time>2019-04-26T08:00:38Z</time>
      </trkpt>
      <trkpt lat="45.41588" lon="5.74067">
        <ele>394.7</ele>
        <time>2019-04-26T08:00:39Z</time>
      </trkpt>
      <trkpt lat="45.41586" lon="5.74061">
        <ele>394.9</ele>
        <time>2019-04-26T08:00:40Z</time>
      </trkpt>
      <trkpt lat="45.41584" lon="5.74056">
        <ele>395.8</ele>
        <time>2019-04-26T08:00:41Z</time>
      </trkpt>
      <trkpt lat="45.41582" lon="5.7405">
        <ele>396</ele>
        <time>2019-04-26T08:00:42Z</time>
      </trkpt>
      <trkpt lat="45.4158" lon="5.74046">
        <ele>396.1</ele>
        <time>2019-04-26T08:00:43Z</time>
      </trkpt>
      <trkpt lat="45.41578" lon="5.74041">
        <ele>396.5</ele>
        <time>2019-04-26T08:00:44Z</time>
      </trkpt>
      <trkpt lat="45.41576" lon="5.74037">
        <ele>396.6</ele>
        <time>2019-04-26T08:00:45Z</time>
      </trkpt>
      <trkpt lat="45.41575" lon="5.74033">
        <ele>397.1</ele>
        <time>2019-04-26T08:00:46Z</time>
      </trkpt>
      <trkpt lat="45.41573" lon="5.7403">
        <ele>397.2</ele>
        <time>2019-04-26T08:00:47Z</time>
      </trkpt>
      <trkpt lat="45.41571" lon="5.74026">
        <ele>397.4</ele>
        <time>2019-04-26T08:00:48Z</time>
      </trkpt>
      <trkpt lat="45.41569" lon="5.74022">
        <ele>398</ele>
        <time>2019-04-26T08:00:49Z</time>
      </trkpt>
      <trkpt lat="45.41567" lon="5.74019">
        <ele>397.7</ele>
        <time>2019-04-26T08:00:50Z</time>
      </trkpt>
      <trkpt lat="45.41565" lon="5.74016">
        <ele>398</ele>
        <time>2019-04-26T08:00:51Z</time>
      </trkpt>
      <trkpt lat="45.41562" lon="5.74011">
        <ele>398.4</ele>
        <time>2019-04-26T08:00:52Z</time>
      </trkpt>
      <trkpt lat="45.41561" lon="5.74007">
        <ele>399</ele>
        <time>2019-04-26T08:00:53Z</time>
      </trkpt>
      <trkpt lat="45.41558" lon="5.74001">
        <ele>400</ele>
        <time>2019-04-26T08:00:54Z</time>
      </trkpt>
      <trkpt lat="45.41553" lon="5.73996">
        <ele>400</ele>
        <time>2019-04-26T08:00:55Z</time>
      </trkpt>
      <trkpt lat="45.41549" lon="5.73991">
        <ele>400.2</ele>
        <time>2019-04-26T08:00:56Z</time>
      </trkpt>
      <trkpt lat="45.41545" lon="5.73986">
        <ele>400.3</ele>
        <time>2019-04-26T08:00:57Z</time>
      </trkpt>
      <trkpt lat="45.41541" lon="5.73979">
        <ele>400.9</ele>
        <time>2019-04-26T08:00:58Z</time>
      </trkpt>
      <trkpt lat="45.41539" lon="5.73973">
        <ele>401</ele>
        <time>2019-04-26T08:00:59Z</time>
      </trkpt>
      <trkpt lat="45.41537" lon="5.73967">
        <ele>401</ele>
        <time>2019-04-26T08:01:00Z</time>
      </trkpt>
      <trkpt lat="45.41535" lon="5.73963">
        <ele>401</ele>
        <time>2019-04-26T08:01:01Z</time>
      </trkpt>
      <trkpt lat="45.41531" lon="5.73962">
        <ele>401</ele>
        <time>2019-04-26T08:01:02Z</time>
      </trkpt>
      <trkpt lat="45.41528" lon="5.73958">
        <ele>401</ele>
        <time>2019-04-26T08:01:03Z</time>
      </trkpt>
      <trkpt lat="45.41525" lon="5.73957">
        <ele>401</ele>
        <time>2019-04-26T08:01:04Z</time>
      </trkpt>
      <trkpt lat="45.41522" lon="5.73955">
        <ele>401</ele>
        <time>2019-04-26T08:01:05Z</time>
      </trkpt>
      <trkpt lat="45.41519" lon="5.73951">
        <ele>401</ele>
        <time>2019-04-26T08:01:06Z</time>
      </trkpt>
      <trkpt lat="45.41516" lon="5.73948">
        <ele>401</ele>
        <time>2019-04-26T08:01:07Z</time>
      </trkpt>
      <trkpt lat="45.4152" lon="5.73954">
        <ele>401</ele>
        <time>2019-04-26T08:01:08Z</time>
      </trkpt>
      <trkpt lat="45.41517" lon="5.73951">
        <ele>401</ele>
        <time>2019-04-26T08:01:09Z</time>
      </trkpt>
      <trkpt lat="45.41514" lon="5.73948">
        <ele>401</ele>
        <time>2019-04-26T08:01:10Z</time>
      </trkpt>
      <trkpt lat="45.41511" lon="5.73944">
        <ele>401</ele>
        <time>2019-04-26T08:01:11Z</time>
      </trkpt>
      <trkpt lat="45.41507" lon="5.73941">
        <ele>401</ele>
        <time>2019-04-26T08:01:12Z</time>
      </trkpt>
      <trkpt lat="45.41504" lon="5.73937">
        <ele>401</ele>
        <time>2019-04-26T08:01:13Z</time>
      </trkpt>
      <trkpt lat="45.41501" lon="5.73935">
        <ele>401</ele>
        <time>2019-04-26T08:01:14Z</time>
      </trkpt>
      <trkpt lat="45.41498" lon="5.73932">
        <ele>401</ele>
        <time>2019-04-26T08:01:15Z</time>
      </trkpt>
      <trkpt lat="45.41495" lon="5.73929">
        <ele>401</ele>
        <time>2019-04-26T08:01:16Z</time>
      </trkpt>
      <trkpt lat="45.41492" lon="5.73926">
        <ele>401</ele>
        <time>2019-04-26T08:01:17Z</time>
      </trkpt>
      <trkpt lat="45.41489" lon="5.73923">
        <ele>401</ele>
        <time>2019-04-26T08:01:18Z</time>
      </trkpt>
      <trkpt lat="45.41485" lon="5.73919">
        <ele>401</ele>
        <time>2019-04-26T08:01:19Z</time>
      </trkpt>
      <trkpt lat="45.41481" lon="5.73916">
        <ele>401</ele>
        <time>2019-04-26T08:01:20Z</time>
      </trkpt>
      <trkpt lat="45.41477" lon="5.73912">
        <ele>401</ele>
        <time>2019-04-26T08:01:21Z</time>
      </trkpt>
      <trkpt lat="45.41474" lon="5.73909">
        <ele>401</ele>
        <time>2019-04-26T08:01:22Z</time>
      </trkpt>
      <trkpt lat="45.4147" lon="5.73905">
        <ele>401</ele>
        <time>2019-04-26T08:01:23Z</time>
      </trkpt>
      <trkpt lat="45.41467" lon="5.73901">
        <ele>401</ele>
        <time>2019-04-26T08:01:24Z</time>
      </trkpt>
      <trkpt lat="45.41464" lon="5.73898">
        <ele>401</ele>
        <time>2019-04-26T08:01:25Z</time>
      </trkpt>
      <trkpt lat="45.4146" lon="5.73894">
        <ele>401</ele>
        <time>2019-04-26T08:01:26Z</time>
      </trkpt>
      <trkpt lat="45.41457" lon="5.7389">
        <ele>401</ele>
        <time>2019-04-26T08:01:27Z</time>
      </trkpt>
      <trkpt lat="45.41454" lon="5.73887">
        <ele>401</ele>
        <time>2019-04-26T08:01:28Z</time>
      </trkpt>
      <trkpt lat="45.41449" lon="5.73881">
        <ele>401</ele>
        <time>2019-04-26T08:01:29Z</time>
      </trkpt>
      <trkpt lat="45.41445" lon="5.73877">
        <ele>401</ele>
        <time>2019-04-26T08:01:30Z</time>
      </trkpt>
      <trkpt lat="45.4144" lon="5.73873">
        <ele>401</ele>
        <time>2019-04-26T08:01:31Z</time>
      </trkpt>
      <trkpt lat="45.41436" lon="5.73869">
        <ele>401</ele>
        <time>2019-04-26T08:01:32Z</time>
      </trkpt>
      <trkpt lat="45.41431" lon="5.73864">
        <ele>401</ele>
        <time>2019-04-26T08:01:33Z</time>
      </trkpt>
      <trkpt lat="45.41425" lon="5.73858">
        <ele>401</ele>
        <time>2019-04-26T08:01:34Z</time>
      </trkpt>
      <trkpt lat="45.41419" lon="5.73852">
        <ele>401</ele>
        <time>2019-04-26T08:01:35Z</time>
      </trkpt>
      <trkpt lat="45.41415" lon="5.73846">
        <ele>401</ele>
        <time>2019-04-26T08:01:36Z</time>
      </trkpt>
      <trkpt lat="45.41409" lon="5.73839">
        <ele>401</ele>
        <time>2019-04-26T08:01:37Z</time>
      </trkpt>
      <trkpt lat="45.41405" lon="5.73832">
        <ele>401</ele>
        <time>2019-04-26T08:01:38Z</time>
      </trkpt>
      <trkpt lat="45.41403" lon="5.73824">
        <ele>401</ele>
        <time>2019-04-26T08:01:39Z</time>
      </trkpt>
      <trkpt lat="45.41401" lon="5.7382">
        <ele>401</ele>
        <time>2019-04-26T08:01:40Z</time>
      </trkpt>
      <trkpt lat="45.4141" lon="5.73824">
        <ele>401.1</ele>
        <time>2019-04-26T08:01:41Z</time>
      </trkpt>
      <trkpt lat="45.41409" lon="5.73818">
        <ele>401.1</ele>
        <time>2019-04-26T08:01:42Z</time>
      </trkpt>
      <trkpt lat="45.41406" lon="5.73813">
        <ele>401.2</ele>
        <time>2019-04-26T08:01:43Z</time>
      </trkpt>
      <trkpt lat="45.41403" lon="5.73807">
        <ele>401.3</ele>
        <time>2019-04-26T08:01:44Z</time>
      </trkpt>
      <trkpt lat="45.414" lon="5.73802">
        <ele>401.4</ele>
        <time>2019-04-26T08:01:45Z</time>
      </trkpt>
      <trkpt lat="45.41398" lon="5.73797">
        <ele>401.5</ele>
        <time>2019-04-26T08:01:46Z</time>
      </trkpt>
      <trkpt lat="45.41395" lon="5.73793">
        <ele>401.6</ele>
        <time>2019-04-26T08:01:47Z</time>
      </trkpt>
      <trkpt lat="45.41391" lon="5.73789">
        <ele>401.7</ele>
        <time>2019-04-26T08:01:48Z</time>
      </trkpt>
      <trkpt lat="45.41387" lon="5.73787">
        <ele>401.8</ele>
        <time>2019-04-26T08:01:49Z</time>
      </trkpt>
      <trkpt lat="45.41384" lon="5.73785">
        <ele>401.8</ele>
        <time>2019-04-26T08:01:50Z</time>
      </trkpt>
      <trkpt lat="45.41378" lon="5.73785">
        <ele>401.9</ele>
        <time>2019-04-26T08:01:52Z</time>
      </trkpt>
      <trkpt lat="45.41374" lon="5.73787">
        <ele>402</ele>
        <time>2019-04-26T08:01:53Z</time>
      </trkpt>
      <trkpt lat="45.4137" lon="5.73788">
        <ele>402</ele>
        <time>2019-04-26T08:01:54Z</time>
      </trkpt>
      <trkpt lat="45.41366" lon="5.7379">
        <ele>402.1</ele>
        <time>2019-04-26T08:01:55Z</time>
      </trkpt>
      <trkpt lat="45.41363" lon="5.73791">
        <ele>402</ele>
        <time>2019-04-26T08:01:56Z</time>
      </trkpt>
      <trkpt lat="45.4136" lon="5.73791">
        <ele>401.9</ele>
        <time>2019-04-26T08:01:57Z</time>
      </trkpt>
      <trkpt lat="45.41356" lon="5.73787">
        <ele>401.7</ele>
        <time>2019-04-26T08:01:59Z</time>
      </trkpt>
      <trkpt lat="45.41353" lon="5.73784">
        <ele>401.5</ele>
        <time>2019-04-26T08:02:00Z</time>
      </trkpt>
      <trkpt lat="45.4135" lon="5.7378">
        <ele>401.4</ele>
        <time>2019-04-26T08:02:01Z</time>
      </trkpt>
      <trkpt lat="45.41346" lon="5.73776">
        <ele>401.3</ele>
        <time>2019-04-26T08:02:02Z</time>
      </trkpt>
      <trkpt lat="45.41341" lon="5.73772">
        <ele>401.2</ele>
        <time>2019-04-26T08:02:03Z</time>
      </trkpt>
      <trkpt lat="45.41336" lon="5.73767">
        <ele>401.1</ele>
        <time>2019-04-26T08:02:04Z</time>
      </trkpt>
      <trkpt lat="45.41332" lon="5.73763">
        <ele>401</ele>
        <time>2019-04-26T08:02:05Z</time>
      </trkpt>
      <trkpt lat="45.41329" lon="5.73759">
        <ele>401</ele>
        <time>2019-04-26T08:02:06Z</time>
      </trkpt>
      <trkpt lat="45.41325" lon="5.73755">
        <ele>401</ele>
        <time>2019-04-26T08:02:07Z</time>
      </trkpt>
      <trkpt lat="45.41322" lon="5.73751">
        <ele>401</ele>
        <time>2019-04-26T08:02:08Z</time>
      </trkpt>
      <trkpt lat="45.41319" lon="5.73749">
        <ele>401</ele>
        <time>2019-04-26T08:02:09Z</time>
      </trkpt>
      <trkpt lat="45.41316" lon="5.73747">
        <ele>401</ele>
        <time>2019-04-26T08:02:12Z</time>
      </trkpt>
      <trkpt lat="45.41312" lon="5.73746">
        <ele>401</ele>
        <time>2019-04-26T08:02:14Z</time>
      </trkpt>
      <trkpt lat="45.41285" lon="5.73721">
        <ele>401.4</ele>
        <time>2019-04-26T08:03:18Z</time>
      </trkpt>
      <trkpt lat="45.41282" lon="5.73718">
        <ele>401.6</ele>
        <time>2019-04-26T08:03:19Z</time>
      </trkpt>
      <trkpt lat="45.4128" lon="5.73716">
        <ele>401.7</ele>
        <time>2019-04-26T08:03:20Z</time>
      </trkpt>
      <trkpt lat="45.41277" lon="5.73712">
        <ele>401.9</ele>
        <time>2019-04-26T08:03:21Z</time>
      </trkpt>
      <trkpt lat="45.41274" lon="5.73709">
        <ele>402</ele>
        <time>2019-04-26T08:03:22Z</time>
      </trkpt>
      <trkpt lat="45.41271" lon="5.73705">
        <ele>402.2</ele>
        <time>2019-04-26T08:03:23Z</time>
      </trkpt>
      <trkpt lat="45.41268" lon="5.73699">
        <ele>402.3</ele>
        <time>2019-04-26T08:03:24Z</time>
      </trkpt>
      <trkpt lat="45.41266" lon="5.73695">
        <ele>402.3</ele>
        <time>2019-04-26T08:03:25Z</time>
      </trkpt>
      <trkpt lat="45.41262" lon="5.73692">
        <ele>402.3</ele>
        <time>2019-04-26T08:03:26Z</time>
      </trkpt>
      <trkpt lat="45.4126" lon="5.73686">
        <ele>402.2</ele>
        <time>2019-04-26T08:03:27Z</time>
      </trkpt>
      <trkpt lat="45.41257" lon="5.73682">
        <ele>402.2</ele>
        <time>2019-04-26T08:03:28Z</time>
      </trkpt>
      <trkpt lat="45.41254" lon="5.73677">
        <ele>402.1</ele>
        <time>2019-04-26T08:03:29Z</time>
      </trkpt>
      <trkpt lat="45.41251" lon="5.73673">
        <ele>402.1</ele>
        <time>2019-04-26T08:03:30Z</time>
      </trkpt>
      <trkpt lat="45.41249" lon="5.73668">
        <ele>402.2</ele>
        <time>2019-04-26T08:03:31Z</time>
      </trkpt>
      <trkpt lat="45.41247" lon="5.73666">
        <ele>402.2</ele>
        <time>2019-04-26T08:03:33Z</time>
      </trkpt>
      <trkpt lat="45.41244" lon="5.73663">
        <ele>402.3</ele>
        <time>2019-04-26T08:03:34Z</time>
      </trkpt>
      <trkpt lat="45.41239" lon="5.73657">
        <ele>402.4</ele>
        <time>2019-04-26T08:03:35Z</time>
      </trkpt>
      <trkpt lat="45.41233" lon="5.73649">
        <ele>402.6</ele>
        <time>2019-04-26T08:03:36Z</time>
      </trkpt>
      <trkpt lat="45.41228" lon="5.73642">
        <ele>402.7</ele>
        <time>2019-04-26T08:03:37Z</time>
      </trkpt>
      <trkpt lat="45.41223" lon="5.73634">
        <ele>402.8</ele>
        <time>2019-04-26T08:03:38Z</time>
      </trkpt>
      <trkpt lat="45.41219" lon="5.73627">
        <ele>402.8</ele>
        <time>2019-04-26T08:03:39Z</time>
      </trkpt>
      <trkpt lat="45.41216" lon="5.73622">
        <ele>402.8</ele>
        <time>2019-04-26T08:03:40Z</time>
      </trkpt>
      <trkpt lat="45.41212" lon="5.73617">
        <ele>402.8</ele>
        <time>2019-04-26T08:03:41Z</time>
      </trkpt>
      <trkpt lat="45.41209" lon="5.73613">
        <ele>402.8</ele>
        <time>2019-04-26T08:03:42Z</time>
      </trkpt>
      <trkpt lat="45.41206" lon="5.73608">
        <ele>402.7</ele>
        <time>2019-04-26T08:03:43Z</time>
      </trkpt>
      <trkpt lat="45.41203" lon="5.73603">
        <ele>402.7</ele>
        <time>2019-04-26T08:03:44Z</time>
      </trkpt>
      <trkpt lat="45.412" lon="5.73597">
        <ele>402.7</ele>
        <time>2019-04-26T08:03:45Z</time>
      </trkpt>
      <trkpt lat="45.41198" lon="5.73593">
        <ele>402.7</ele>
        <time>2019-04-26T08:03:46Z</time>
      </trkpt>
      <trkpt lat="45.41195" lon="5.73589">
        <ele>402.7</ele>
        <time>2019-04-26T08:03:47Z</time>
      </trkpt>
      <trkpt lat="45.41191" lon="5.73584">
        <ele>402.8</ele>
        <time>2019-04-26T08:03:48Z</time>
      </trkpt>
      <trkpt lat="45.41189" lon="5.73581">
        <ele>402.8</ele>
        <time>2019-04-26T08:03:49Z</time>
      </trkpt>
      <trkpt lat="45.41187" lon="5.73577">
        <ele>402.9</ele>
        <time>2019-04-26T08:03:50Z</time>
      </trkpt>
      <trkpt lat="45.41184" lon="5.73574">
        <ele>402.9</ele>
        <time>2019-04-26T08:03:51Z</time>
      </trkpt>
      <trkpt lat="45.41182" lon="5.7357">
        <ele>403</ele>
        <time>2019-04-26T08:03:52Z</time>
      </trkpt>
      <trkpt lat="45.4118" lon="5.73566">
        <ele>403</ele>
        <time>2019-04-26T08:03:53Z</time>
      </trkpt>
      <trkpt lat="45.41178" lon="5.73562">
        <ele>403</ele>
        <time>2019-04-26T08:03:54Z</time>
      </trkpt>
      <trkpt lat="45.41175" lon="5.73558">
        <ele>403</ele>
        <time>2019-04-26T08:03:55Z</time>
      </trkpt>
      <trkpt lat="45.41173" lon="5.73554">
        <ele>403</ele>
        <time>2019-04-26T08:03:56Z</time>
      </trkpt>
      <trkpt lat="45.41172" lon="5.73551">
        <ele>403</ele>
        <time>2019-04-26T08:03:57Z</time>
      </trkpt>
      <trkpt lat="45.4117" lon="5.73548">
        <ele>403</ele>
        <time>2019-04-26T08:03:58Z</time>
      </trkpt>
      <trkpt lat="45.41167" lon="5.73544">
        <ele>403</ele>
        <time>2019-04-26T08:03:59Z</time>
      </trkpt>
      <trkpt lat="45.41165" lon="5.73541">
        <ele>402.9</ele>
        <time>2019-04-26T08:04:00Z</time>
      </trkpt>
      <trkpt lat="45.41163" lon="5.73538">
        <ele>402.9</ele>
        <time>2019-04-26T08:04:01Z</time>
      </trkpt>
      <trkpt lat="45.4116" lon="5.73534">
        <ele>402.9</ele>
        <time>2019-04-26T08:04:02Z</time>
      </trkpt>
      <trkpt lat="45.41155" lon="5.7353">
        <ele>403</ele>
        <time>2019-04-26T08:04:04Z</time>
      </trkpt>
      <trkpt lat="45.41152" lon="5.73527">
        <ele>403</ele>
        <time>2019-04-26T08:04:05Z</time>
      </trkpt>
      <trkpt lat="45.41148" lon="5.73523">
        <ele>403.1</ele>
        <time>2019-04-26T08:04:06Z</time>
      </trkpt>
      <trkpt lat="45.41145" lon="5.73518">
        <ele>403.1</ele>
        <time>2019-04-26T08:04:07Z</time>
      </trkpt>
      <trkpt lat="45.41142" lon="5.73514">
        <ele>403.1</ele>
        <time>2019-04-26T08:04:08Z</time>
      </trkpt>
      <trkpt lat="45.41139" lon="5.7351">
        <ele>403.2</ele>
        <time>2019-04-26T08:04:09Z</time>
      </trkpt>
      <trkpt lat="45.41137" lon="5.73506">
        <ele>403.2</ele>
        <time>2019-04-26T08:04:10Z</time>
      </trkpt>
      <trkpt lat="45.41134" lon="5.73501">
        <ele>403.2</ele>
        <time>2019-04-26T08:04:11Z</time>
      </trkpt>
      <trkpt lat="45.41131" lon="5.73495">
        <ele>403.2</ele>
        <time>2019-04-26T08:04:12Z</time>
      </trkpt>
      <trkpt lat="45.41128" lon="5.7349">
        <ele>403.3</ele>
        <time>2019-04-26T08:04:13Z</time>
      </trkpt>
      <trkpt lat="45.41127" lon="5.73482">
        <ele>403.3</ele>
        <time>2019-04-26T08:04:16Z</time>
      </trkpt>
      <trkpt lat="45.41124" lon="5.73479">
        <ele>403.3</ele>
        <time>2019-04-26T08:04:17Z</time>
      </trkpt>
      <trkpt lat="45.41121" lon="5.73475">
        <ele>403.3</ele>
        <time>2019-04-26T08:04:19Z</time>
      </trkpt>
      <trkpt lat="45.41118" lon="5.7347">
        <ele>403.3</ele>
        <time>2019-04-26T08:04:20Z</time>
      </trkpt>
      <trkpt lat="45.41114" lon="5.73464">
        <ele>403.3</ele>
        <time>2019-04-26T08:04:21Z</time>
      </trkpt>
      <trkpt lat="45.41109" lon="5.73457">
        <ele>403.3</ele>
        <time>2019-04-26T08:04:22Z</time>
      </trkpt>
      <trkpt lat="45.41104" lon="5.7345">
        <ele>403.3</ele>
        <time>2019-04-26T08:04:23Z</time>
      </trkpt>
      <trkpt lat="45.411" lon="5.73443">
        <ele>403.3</ele>
        <time>2019-04-26T08:04:24Z</time>
      </trkpt>
      <trkpt lat="45.41096" lon="5.73435">
        <ele>403.3</ele>
        <time>2019-04-26T08:04:25Z</time>
      </trkpt>
      <trkpt lat="45.41095" lon="5.73426">
        <ele>403.4</ele>
        <time>2019-04-26T08:04:26Z</time>
      </trkpt>
      <trkpt lat="45.41095" lon="5.73419">
        <ele>403.4</ele>
        <time>2019-04-26T08:04:27Z</time>
      </trkpt>
      <trkpt lat="45.41092" lon="5.73413">
        <ele>403.6</ele>
        <time>2019-04-26T08:04:28Z</time>
      </trkpt>
      <trkpt lat="45.41088" lon="5.73408">
        <ele>403.7</ele>
        <time>2019-04-26T08:04:29Z</time>
      </trkpt>
      <trkpt lat="45.41087" lon="5.73399">
        <ele>403.9</ele>
        <time>2019-04-26T08:04:32Z</time>
      </trkpt>
      <trkpt lat="45.41085" lon="5.73396">
        <ele>403.9</ele>
        <time>2019-04-26T08:04:33Z</time>
      </trkpt>
      <trkpt lat="45.4108" lon="5.73392">
        <ele>404</ele>
        <time>2019-04-26T08:04:34Z</time>
      </trkpt>
      <trkpt lat="45.41076" lon="5.73388">
        <ele>404.1</ele>
        <time>2019-04-26T08:04:35Z</time>
      </trkpt>
      <trkpt lat="45.41073" lon="5.73384">
        <ele>404.1</ele>
        <time>2019-04-26T08:04:36Z</time>
      </trkpt>
      <trkpt lat="45.4107" lon="5.73383">
        <ele>404.1</ele>
        <time>2019-04-26T08:04:37Z</time>
      </trkpt>
      <trkpt lat="45.41065" lon="5.73382">
        <ele>404.1</ele>
        <time>2019-04-26T08:04:38Z</time>
      </trkpt>
      <trkpt lat="45.41062" lon="5.73377">
        <ele>404.1</ele>
        <time>2019-04-26T08:04:39Z</time>
      </trkpt>
      <trkpt lat="45.41057" lon="5.73375">
        <ele>404.1</ele>
        <time>2019-04-26T08:04:40Z</time>
      </trkpt>
      <trkpt lat="45.41054" lon="5.73371">
        <ele>404.1</ele>
        <time>2019-04-26T08:04:41Z</time>
      </trkpt>
      <trkpt lat="45.4105" lon="5.73369">
        <ele>404.1</ele>
        <time>2019-04-26T08:04:42Z</time>
      </trkpt>
      <trkpt lat="45.41049" lon="5.73364">
        <ele>404.1</ele>
        <time>2019-04-26T08:04:43Z</time>
      </trkpt>
      <trkpt lat="45.41045" lon="5.7336">
        <ele>404</ele>
        <time>2019-04-26T08:04:44Z</time>
      </trkpt>
      <trkpt lat="45.41043" lon="5.73356">
        <ele>404</ele>
        <time>2019-04-26T08:04:45Z</time>
      </trkpt>
      <trkpt lat="45.41041" lon="5.73351">
        <ele>404</ele>
        <time>2019-04-26T08:04:46Z</time>
      </trkpt>
      <trkpt lat="45.41038" lon="5.73348">
        <ele>404</ele>
        <time>2019-04-26T08:04:47Z</time>
      </trkpt>
      <trkpt lat="45.41035" lon="5.73343">
        <ele>404</ele>
        <time>2019-04-26T08:04:48Z</time>
      </trkpt>
      <trkpt lat="45.41033" lon="5.73339">
        <ele>404</ele>
        <time>2019-04-26T08:04:49Z</time>
      </trkpt>
      <trkpt lat="45.4103" lon="5.73336">
        <ele>404</ele>
        <time>2019-04-26T08:04:50Z</time>
      </trkpt>
      <trkpt lat="45.41028" lon="5.7333">
        <ele>404</ele>
        <time>2019-04-26T08:04:51Z</time>
      </trkpt>
      <trkpt lat="45.41025" lon="5.73326">
        <ele>404</ele>
        <time>2019-04-26T08:04:53Z</time>
      </trkpt>
      <trkpt lat="45.41022" lon="5.73323">
        <ele>404</ele>
        <time>2019-04-26T08:04:54Z</time>
      </trkpt>
      <trkpt lat="45.41017" lon="5.73316">
        <ele>404</ele>
        <time>2019-04-26T08:04:55Z</time>
      </trkpt>
      <trkpt lat="45.41012" lon="5.73309">
        <ele>403.9</ele>
        <time>2019-04-26T08:04:56Z</time>
      </trkpt>
      <trkpt lat="45.41008" lon="5.73304">
        <ele>403.9</ele>
        <time>2019-04-26T08:04:57Z</time>
      </trkpt>
      <trkpt lat="45.41004" lon="5.73299">
        <ele>403.9</ele>
        <time>2019-04-26T08:04:58Z</time>
      </trkpt>
      <trkpt lat="45.41001" lon="5.73294">
        <ele>403.9</ele>
        <time>2019-04-26T08:04:59Z</time>
      </trkpt>
      <trkpt lat="45.40998" lon="5.73289">
        <ele>404</ele>
        <time>2019-04-26T08:05:00Z</time>
      </trkpt>
      <trkpt lat="45.40995" lon="5.73283">
        <ele>404</ele>
        <time>2019-04-26T08:05:01Z</time>
      </trkpt>
      <trkpt lat="45.40992" lon="5.73279">
        <ele>404</ele>
        <time>2019-04-26T08:05:02Z</time>
      </trkpt>
      <trkpt lat="45.40988" lon="5.73275">
        <ele>404.1</ele>
        <time>2019-04-26T08:05:03Z</time>
      </trkpt>
      <trkpt lat="45.40986" lon="5.73271">
        <ele>404.1</ele>
        <time>2019-04-26T08:05:04Z</time>
      </trkpt>
      <trkpt lat="45.40983" lon="5.73267">
        <ele>404.2</ele>
        <time>2019-04-26T08:05:05Z</time>
      </trkpt>
      <trkpt lat="45.4098" lon="5.73262">
        <ele>404.2</ele>
        <time>2019-04-26T08:05:06Z</time>
      </trkpt>
      <trkpt lat="45.40978" lon="5.73257">
        <ele>404.2</ele>
        <time>2019-04-26T08:05:07Z</time>
      </trkpt>
      <trkpt lat="45.40976" lon="5.73252">
        <ele>404.1</ele>
        <time>2019-04-26T08:05:08Z</time>
      </trkpt>
      <trkpt lat="45.40974" lon="5.73247">
        <ele>404.1</ele>
        <time>2019-04-26T08:05:09Z</time>
      </trkpt>
      <trkpt lat="45.40972" lon="5.73242">
        <ele>404</ele>
        <time>2019-04-26T08:05:10Z</time>
      </trkpt>
      <trkpt lat="45.40971" lon="5.73236">
        <ele>403.9</ele>
        <time>2019-04-26T08:05:11Z</time>
      </trkpt>
      <trkpt lat="45.40969" lon="5.7323">
        <ele>403.9</ele>
        <time>2019-04-26T08:05:12Z</time>
      </trkpt>
      <trkpt lat="45.40967" lon="5.73224">
        <ele>403.8</ele>
        <time>2019-04-26T08:05:13Z</time>
      </trkpt>
      <trkpt lat="45.40966" lon="5.73218">
        <ele>403.8</ele>
        <time>2019-04-26T08:05:14Z</time>
      </trkpt>
      <trkpt lat="45.40965" lon="5.73213">
        <ele>403.8</ele>
        <time>2019-04-26T08:05:15Z</time>
      </trkpt>
      <trkpt lat="45.40963" lon="5.73208">
        <ele>403.8</ele>
        <time>2019-04-26T08:05:16Z</time>
      </trkpt>
      <trkpt lat="45.40962" lon="5.73204">
        <ele>403.8</ele>
        <time>2019-04-26T08:05:17Z</time>
      </trkpt>
      <trkpt lat="45.40958" lon="5.732">
        <ele>403.7</ele>
        <time>2019-04-26T08:05:18Z</time>
      </trkpt>
      <trkpt lat="45.40956" lon="5.73197">
        <ele>403.7</ele>
        <time>2019-04-26T08:05:19Z</time>
      </trkpt>
      <trkpt lat="45.40953" lon="5.73191">
        <ele>403.8</ele>
        <time>2019-04-26T08:05:20Z</time>
      </trkpt>
      <trkpt lat="45.40953" lon="5.73185">
        <ele>403.8</ele>
        <time>2019-04-26T08:05:21Z</time>
      </trkpt>
      <trkpt lat="45.40951" lon="5.73179">
        <ele>403.8</ele>
        <time>2019-04-26T08:05:22Z</time>
      </trkpt>
      <trkpt lat="45.40949" lon="5.73175">
        <ele>403.8</ele>
        <time>2019-04-26T08:05:23Z</time>
      </trkpt>
      <trkpt lat="45.40948" lon="5.73168">
        <ele>403.8</ele>
        <time>2019-04-26T08:05:24Z</time>
      </trkpt>
      <trkpt lat="45.4095" lon="5.73161">
        <ele>403.8</ele>
        <time>2019-04-26T08:05:25Z</time>
      </trkpt>
      <trkpt lat="45.40955" lon="5.73158">
        <ele>403.8</ele>
        <time>2019-04-26T08:05:26Z</time>
      </trkpt>
      <trkpt lat="45.4096" lon="5.73156">
        <ele>403.7</ele>
        <time>2019-04-26T08:05:27Z</time>
      </trkpt>
      <trkpt lat="45.4096" lon="5.73148">
        <ele>403.7</ele>
        <time>2019-04-26T08:05:28Z</time>
      </trkpt>
      <trkpt lat="45.40956" lon="5.73139">
        <ele>403.6</ele>
        <time>2019-04-26T08:05:29Z</time>
      </trkpt>
      <trkpt lat="45.40952" lon="5.73131">
        <ele>403.6</ele>
        <time>2019-04-26T08:05:30Z</time>
      </trkpt>
      <trkpt lat="45.4095" lon="5.73127">
        <ele>403.6</ele>
        <time>2019-04-26T08:05:31Z</time>
      </trkpt>
      <trkpt lat="45.40934" lon="5.73114">
        <ele>403.5</ele>
        <time>2019-04-26T08:05:33Z</time>
      </trkpt>
      <trkpt lat="45.40932" lon="5.73111">
        <ele>403.5</ele>
        <time>2019-04-26T08:05:34Z</time>
      </trkpt>
      <trkpt lat="45.4093" lon="5.73106">
        <ele>403.5</ele>
        <time>2019-04-26T08:05:35Z</time>
      </trkpt>
      <trkpt lat="45.40929" lon="5.73101">
        <ele>403.6</ele>
        <time>2019-04-26T08:05:37Z</time>
      </trkpt>
      <trkpt lat="45.40927" lon="5.73097">
        <ele>403.6</ele>
        <time>2019-04-26T08:05:38Z</time>
      </trkpt>
      <trkpt lat="45.40921" lon="5.73094">
        <ele>403.6</ele>
        <time>2019-04-26T08:05:39Z</time>
      </trkpt>
      <trkpt lat="45.40919" lon="5.73088">
        <ele>403.7</ele>
        <time>2019-04-26T08:05:40Z</time>
      </trkpt>
      <trkpt lat="45.40917" lon="5.7308">
        <ele>403.8</ele>
        <time>2019-04-26T08:05:41Z</time>
      </trkpt>
      <trkpt lat="45.40916" lon="5.73076">
        <ele>403.8</ele>
        <time>2019-04-26T08:05:42Z</time>
      </trkpt>
      <trkpt lat="45.40914" lon="5.73072">
        <ele>403.8</ele>
        <time>2019-04-26T08:05:43Z</time>
      </trkpt>
      <trkpt lat="45.40917" lon="5.73063">
        <ele>403.8</ele>
        <time>2019-04-26T08:05:46Z</time>
      </trkpt>
      <trkpt lat="45.40912" lon="5.73051">
        <ele>403.8</ele>
        <time>2019-04-26T08:05:47Z</time>
      </trkpt>
      <trkpt lat="45.40908" lon="5.73041">
        <ele>403.9</ele>
        <time>2019-04-26T08:05:48Z</time>
      </trkpt>
      <trkpt lat="45.40904" lon="5.73031">
        <ele>404</ele>
        <time>2019-04-26T08:05:49Z</time>
      </trkpt>
      <trkpt lat="45.409" lon="5.73023">
        <ele>404.2</ele>
        <time>2019-04-26T08:05:50Z</time>
      </trkpt>
      <trkpt lat="45.40897" lon="5.73015">
        <ele>404.2</ele>
        <time>2019-04-26T08:05:51Z</time>
      </trkpt>
      <trkpt lat="45.40895" lon="5.73006">
        <ele>404.3</ele>
        <time>2019-04-26T08:05:53Z</time>
      </trkpt>
      <trkpt lat="45.40892" lon="5.72999">
        <ele>404.3</ele>
        <time>2019-04-26T08:05:54Z</time>
      </trkpt>
      <trkpt lat="45.4089" lon="5.72993">
        <ele>404.3</ele>
        <time>2019-04-26T08:05:55Z</time>
      </trkpt>
      <trkpt lat="45.40888" lon="5.72987">
        <ele>404.3</ele>
        <time>2019-04-26T08:05:56Z</time>
      </trkpt>
      <trkpt lat="45.40887" lon="5.72983">
        <ele>404.3</ele>
        <time>2019-04-26T08:05:57Z</time>
      </trkpt>
      <trkpt lat="45.40885" lon="5.72978">
        <ele>404.2</ele>
        <time>2019-04-26T08:05:59Z</time>
      </trkpt>
      <trkpt lat="45.40883" lon="5.72973">
        <ele>404.2</ele>
        <time>2019-04-26T08:06:00Z</time>
      </trkpt>
      <trkpt lat="45.40879" lon="5.72968">
        <ele>404.2</ele>
        <time>2019-04-26T08:06:02Z</time>
      </trkpt>
      <trkpt lat="45.40878" lon="5.72965">
        <ele>404.1</ele>
        <time>2019-04-26T08:06:03Z</time>
      </trkpt>
      <trkpt lat="45.40876" lon="5.72958">
        <ele>404.1</ele>
        <time>2019-04-26T08:06:04Z</time>
      </trkpt>
      <trkpt lat="45.40873" lon="5.72952">
        <ele>404</ele>
        <time>2019-04-26T08:06:05Z</time>
      </trkpt>
      <trkpt lat="45.40871" lon="5.72946">
        <ele>403.8</ele>
        <time>2019-04-26T08:06:06Z</time>
      </trkpt>
      <trkpt lat="45.40869" lon="5.72942">
        <ele>403.7</ele>
        <time>2019-04-26T08:06:07Z</time>
      </trkpt>
      <trkpt lat="45.40867" lon="5.72937">
        <ele>403.6</ele>
        <time>2019-04-26T08:06:08Z</time>
      </trkpt>
      <trkpt lat="45.40869" lon="5.7293">
        <ele>403.4</ele>
        <time>2019-04-26T08:06:10Z</time>
      </trkpt>
      <trkpt lat="45.40866" lon="5.72917">
        <ele>403.1</ele>
        <time>2019-04-26T08:06:11Z</time>
      </trkpt>
      <trkpt lat="45.40862" lon="5.72906">
        <ele>402.9</ele>
        <time>2019-04-26T08:06:12Z</time>
      </trkpt>
      <trkpt lat="45.40858" lon="5.72895">
        <ele>402.7</ele>
        <time>2019-04-26T08:06:13Z</time>
      </trkpt>
      <trkpt lat="45.40855" lon="5.72886">
        <ele>402.6</ele>
        <time>2019-04-26T08:06:14Z</time>
      </trkpt>
      <trkpt lat="45.40852" lon="5.72879">
        <ele>402.6</ele>
        <time>2019-04-26T08:06:15Z</time>
      </trkpt>
      <trkpt lat="45.4085" lon="5.72873">
        <ele>402.6</ele>
        <time>2019-04-26T08:06:16Z</time>
      </trkpt>
      <trkpt lat="45.40847" lon="5.72865">
        <ele>402.7</ele>
        <time>2019-04-26T08:06:18Z</time>
      </trkpt>
      <trkpt lat="45.40843" lon="5.72859">
        <ele>402.8</ele>
        <time>2019-04-26T08:06:19Z</time>
      </trkpt>
      <trkpt lat="45.40839" lon="5.72854">
        <ele>402.9</ele>
        <time>2019-04-26T08:06:20Z</time>
      </trkpt>
      <trkpt lat="45.40837" lon="5.72848">
        <ele>402.9</ele>
        <time>2019-04-26T08:06:21Z</time>
      </trkpt>
      <trkpt lat="45.40834" lon="5.72843">
        <ele>403</ele>
        <time>2019-04-26T08:06:22Z</time>
      </trkpt>
      <trkpt lat="45.40831" lon="5.72838">
        <ele>403</ele>
        <time>2019-04-26T08:06:23Z</time>
      </trkpt>
      <trkpt lat="45.40828" lon="5.72833">
        <ele>403</ele>
        <time>2019-04-26T08:06:24Z</time>
      </trkpt>
      <trkpt lat="45.40826" lon="5.72828">
        <ele>403</ele>
        <time>2019-04-26T08:06:25Z</time>
      </trkpt>
      <trkpt lat="45.40823" lon="5.7282">
        <ele>403</ele>
        <time>2019-04-26T08:06:27Z</time>
      </trkpt>
      <trkpt lat="45.40822" lon="5.72817">
        <ele>402.9</ele>
        <time>2019-04-26T08:06:28Z</time>
      </trkpt>
      <trkpt lat="45.40819" lon="5.72813">
        <ele>402.9</ele>
        <time>2019-04-26T08:06:31Z</time>
      </trkpt>
      <trkpt lat="45.40818" lon="5.72809">
        <ele>402.9</ele>
        <time>2019-04-26T08:06:32Z</time>
      </trkpt>
      <trkpt lat="45.40816" lon="5.72805">
        <ele>402.9</ele>
        <time>2019-04-26T08:06:33Z</time>
      </trkpt>
      <trkpt lat="45.40816" lon="5.728">
        <ele>402.9</ele>
        <time>2019-04-26T08:06:34Z</time>
      </trkpt>
      <trkpt lat="45.40816" lon="5.72796">
        <ele>402.9</ele>
        <time>2019-04-26T08:06:36Z</time>
      </trkpt>
      <trkpt lat="45.40815" lon="5.7279">
        <ele>402.9</ele>
        <time>2019-04-26T08:06:37Z</time>
      </trkpt>
      <trkpt lat="45.40814" lon="5.72785">
        <ele>402.9</ele>
        <time>2019-04-26T08:06:38Z</time>
      </trkpt>
      <trkpt lat="45.40812" lon="5.72781">
        <ele>402.9</ele>
        <time>2019-04-26T08:06:39Z</time>
      </trkpt>
      <trkpt lat="45.4081" lon="5.72775">
        <ele>402.8</ele>
        <time>2019-04-26T08:06:40Z</time>
      </trkpt>
      <trkpt lat="45.40808" lon="5.7277">
        <ele>402.8</ele>
        <time>2019-04-26T08:06:41Z</time>
      </trkpt>
      <trkpt lat="45.40806" lon="5.72766">
        <ele>402.8</ele>
        <time>2019-04-26T08:06:42Z</time>
      </trkpt>
      <trkpt lat="45.40804" lon="5.72761">
        <ele>402.8</ele>
        <time>2019-04-26T08:06:43Z</time>
      </trkpt>
      <trkpt lat="45.40801" lon="5.72756">
        <ele>402.8</ele>
        <time>2019-04-26T08:06:44Z</time>
      </trkpt>
      <trkpt lat="45.408" lon="5.72752">
        <ele>402.8</ele>
        <time>2019-04-26T08:06:45Z</time>
      </trkpt>
      <trkpt lat="45.40798" lon="5.72749">
        <ele>402.8</ele>
        <time>2019-04-26T08:06:46Z</time>
      </trkpt>
      <trkpt lat="45.40797" lon="5.72745">
        <ele>402.8</ele>
        <time>2019-04-26T08:06:47Z</time>
      </trkpt>
      <trkpt lat="45.40795" lon="5.72742">
        <ele>402.8</ele>
        <time>2019-04-26T08:06:48Z</time>
      </trkpt>
      <trkpt lat="45.40793" lon="5.72738">
        <ele>402.9</ele>
        <time>2019-04-26T08:06:50Z</time>
      </trkpt>
      <trkpt lat="45.40793" lon="5.72733">
        <ele>402.9</ele>
        <time>2019-04-26T08:07:31Z</time>
      </trkpt>
      <trkpt lat="45.40791" lon="5.7273">
        <ele>403</ele>
        <time>2019-04-26T08:07:32Z</time>
      </trkpt>
      <trkpt lat="45.40789" lon="5.72724">
        <ele>403.1</ele>
        <time>2019-04-26T08:07:34Z</time>
      </trkpt>
      <trkpt lat="45.40787" lon="5.72719">
        <ele>403.2</ele>
        <time>2019-04-26T08:07:35Z</time>
      </trkpt>
      <trkpt lat="45.40787" lon="5.72715">
        <ele>403.3</ele>
        <time>2019-04-26T08:07:36Z</time>
      </trkpt>
      <trkpt lat="45.40788" lon="5.7271">
        <ele>403.5</ele>
        <time>2019-04-26T08:07:38Z</time>
      </trkpt>
      <trkpt lat="45.40792" lon="5.72705">
        <ele>403.7</ele>
        <time>2019-04-26T08:07:40Z</time>
      </trkpt>
      <trkpt lat="45.40794" lon="5.72702">
        <ele>403.9</ele>
        <time>2019-04-26T08:07:41Z</time>
      </trkpt>
      <trkpt lat="45.40796" lon="5.72699">
        <ele>404.1</ele>
        <time>2019-04-26T08:07:42Z</time>
      </trkpt>
      <trkpt lat="45.40798" lon="5.72696">
        <ele>404.3</ele>
        <time>2019-04-26T08:07:43Z</time>
      </trkpt>
      <trkpt lat="45.40801" lon="5.72692">
        <ele>404.6</ele>
        <time>2019-04-26T08:07:44Z</time>
      </trkpt>
      <trkpt lat="45.40804" lon="5.72688">
        <ele>404.8</ele>
        <time>2019-04-26T08:07:45Z</time>
      </trkpt>
      <trkpt lat="45.40806" lon="5.72683">
        <ele>405.1</ele>
        <time>2019-04-26T08:07:46Z</time>
      </trkpt>
      <trkpt lat="45.40809" lon="5.72679">
        <ele>405.4</ele>
        <time>2019-04-26T08:07:47Z</time>
      </trkpt>
      <trkpt lat="45.40811" lon="5.72673">
        <ele>405.7</ele>
        <time>2019-04-26T08:07:48Z</time>
      </trkpt>
      <trkpt lat="45.40814" lon="5.72667">
        <ele>406</ele>
        <time>2019-04-26T08:07:49Z</time>
      </trkpt>
      <trkpt lat="45.40816" lon="5.72659">
        <ele>406.4</ele>
        <time>2019-04-26T08:07:50Z</time>
      </trkpt>
      <trkpt lat="45.40819" lon="5.7265">
        <ele>406.9</ele>
        <time>2019-04-26T08:07:51Z</time>
      </trkpt>
      <trkpt lat="45.40822" lon="5.72642">
        <ele>407.3</ele>
        <time>2019-04-26T08:07:52Z</time>
      </trkpt>
      <trkpt lat="45.40825" lon="5.72635">
        <ele>407.7</ele>
        <time>2019-04-26T08:07:53Z</time>
      </trkpt>
      <trkpt lat="45.40827" lon="5.72628">
        <ele>408.1</ele>
        <time>2019-04-26T08:07:54Z</time>
      </trkpt>
      <trkpt lat="45.40829" lon="5.72622">
        <ele>408.4</ele>
        <time>2019-04-26T08:07:55Z</time>
      </trkpt>
      <trkpt lat="45.40831" lon="5.72617">
        <ele>408.9</ele>
        <time>2019-04-26T08:07:56Z</time>
      </trkpt>
      <trkpt lat="45.40832" lon="5.72612">
        <ele>409</ele>
        <time>2019-04-26T08:07:57Z</time>
      </trkpt>
      <trkpt lat="45.40833" lon="5.72607">
        <ele>409</ele>
        <time>2019-04-26T08:07:58Z</time>
      </trkpt>
      <trkpt lat="45.40835" lon="5.72602">
        <ele>409.1</ele>
        <time>2019-04-26T08:07:59Z</time>
      </trkpt>
      <trkpt lat="45.40836" lon="5.72596">
        <ele>409.1</ele>
        <time>2019-04-26T08:08:00Z</time>
      </trkpt>
      <trkpt lat="45.40836" lon="5.7259">
        <ele>409.2</ele>
        <time>2019-04-26T08:08:01Z</time>
      </trkpt>
      <trkpt lat="45.40837" lon="5.72584">
        <ele>409.2</ele>
        <time>2019-04-26T08:08:02Z</time>
      </trkpt>
      <trkpt lat="45.40837" lon="5.72577">
        <ele>409.4</ele>
        <time>2019-04-26T08:08:03Z</time>
      </trkpt>
      <trkpt lat="45.40837" lon="5.72571">
        <ele>409.5</ele>
        <time>2019-04-26T08:08:04Z</time>
      </trkpt>
      <trkpt lat="45.40836" lon="5.72564">
        <ele>409.6</ele>
        <time>2019-04-26T08:08:05Z</time>
      </trkpt>
      <trkpt lat="45.40835" lon="5.72558">
        <ele>409.7</ele>
        <time>2019-04-26T08:08:06Z</time>
      </trkpt>
      <trkpt lat="45.40833" lon="5.72553">
        <ele>409.8</ele>
        <time>2019-04-26T08:08:07Z</time>
      </trkpt>
      <trkpt lat="45.40832" lon="5.72549">
        <ele>409.9</ele>
        <time>2019-04-26T08:08:08Z</time>
      </trkpt>
      <trkpt lat="45.40829" lon="5.72546">
        <ele>409.9</ele>
        <time>2019-04-26T08:08:10Z</time>
      </trkpt>
      <trkpt lat="45.40826" lon="5.72542">
        <ele>410</ele>
        <time>2019-04-26T08:08:12Z</time>
      </trkpt>
      <trkpt lat="45.40822" lon="5.72536">
        <ele>410.1</ele>
        <time>2019-04-26T08:08:14Z</time>
      </trkpt>
      <trkpt lat="45.4082" lon="5.72532">
        <ele>410.2</ele>
        <time>2019-04-26T08:08:15Z</time>
      </trkpt>
      <trkpt lat="45.40817" lon="5.72528">
        <ele>410.2</ele>
        <time>2019-04-26T08:08:16Z</time>
      </trkpt>
      <trkpt lat="45.40815" lon="5.72523">
        <ele>410.2</ele>
        <time>2019-04-26T08:08:17Z</time>
      </trkpt>
      <trkpt lat="45.40812" lon="5.72518">
        <ele>410.2</ele>
        <time>2019-04-26T08:08:18Z</time>
      </trkpt>
      <trkpt lat="45.40809" lon="5.72513">
        <ele>410.2</ele>
        <time>2019-04-26T08:08:19Z</time>
      </trkpt>
      <trkpt lat="45.40805" lon="5.72508">
        <ele>410.2</ele>
        <time>2019-04-26T08:08:20Z</time>
      </trkpt>
      <trkpt lat="45.40801" lon="5.72503">
        <ele>410.1</ele>
        <time>2019-04-26T08:08:21Z</time>
      </trkpt>
      <trkpt lat="45.40797" lon="5.72498">
        <ele>410.1</ele>
        <time>2019-04-26T08:08:22Z</time>
      </trkpt>
      <trkpt lat="45.40793" lon="5.72492">
        <ele>410.1</ele>
        <time>2019-04-26T08:08:23Z</time>
      </trkpt>
      <trkpt lat="45.40789" lon="5.72486">
        <ele>410</ele>
        <time>2019-04-26T08:08:24Z</time>
      </trkpt>
      <trkpt lat="45.40785" lon="5.72481">
        <ele>410</ele>
        <time>2019-04-26T08:08:25Z</time>
      </trkpt>
      <trkpt lat="45.40781" lon="5.72475">
        <ele>410</ele>
        <time>2019-04-26T08:08:26Z</time>
      </trkpt>
      <trkpt lat="45.40777" lon="5.72468">
        <ele>410</ele>
        <time>2019-04-26T08:08:27Z</time>
      </trkpt>
      <trkpt lat="45.40774" lon="5.72463">
        <ele>410</ele>
        <time>2019-04-26T08:08:28Z</time>
      </trkpt>
      <trkpt lat="45.40771" lon="5.72457">
        <ele>410</ele>
        <time>2019-04-26T08:08:29Z</time>
      </trkpt>
      <trkpt lat="45.40767" lon="5.72451">
        <ele>410</ele>
        <time>2019-04-26T08:08:30Z</time>
      </trkpt>
      <trkpt lat="45.40765" lon="5.72446">
        <ele>410</ele>
        <time>2019-04-26T08:08:31Z</time>
      </trkpt>
      <trkpt lat="45.40762" lon="5.7244">
        <ele>410</ele>
        <time>2019-04-26T08:08:32Z</time>
      </trkpt>
      <trkpt lat="45.40758" lon="5.72434">
        <ele>410.1</ele>
        <time>2019-04-26T08:08:33Z</time>
      </trkpt>
      <trkpt lat="45.40755" lon="5.72428">
        <ele>410.1</ele>
        <time>2019-04-26T08:08:34Z</time>
      </trkpt>
      <trkpt lat="45.40752" lon="5.72423">
        <ele>410.1</ele>
        <time>2019-04-26T08:08:35Z</time>
      </trkpt>
      <trkpt lat="45.4075" lon="5.72417">
        <ele>410.1</ele>
        <time>2019-04-26T08:08:36Z</time>
      </trkpt>
      <trkpt lat="45.40747" lon="5.72412">
        <ele>410.2</ele>
        <time>2019-04-26T08:08:37Z</time>
      </trkpt>
      <trkpt lat="45.40744" lon="5.72407">
        <ele>410.2</ele>
        <time>2019-04-26T08:08:38Z</time>
      </trkpt>
      <trkpt lat="45.40741" lon="5.72402">
        <ele>410.3</ele>
        <time>2019-04-26T08:08:39Z</time>
      </trkpt>
      <trkpt lat="45.40739" lon="5.72396">
        <ele>410.3</ele>
        <time>2019-04-26T08:08:40Z</time>
      </trkpt>
      <trkpt lat="45.40738" lon="5.72391">
        <ele>410.3</ele>
        <time>2019-04-26T08:08:41Z</time>
      </trkpt>
      <trkpt lat="45.40736" lon="5.72385">
        <ele>410.4</ele>
        <time>2019-04-26T08:08:42Z</time>
      </trkpt>
      <trkpt lat="45.40735" lon="5.72379">
        <ele>410.5</ele>
        <time>2019-04-26T08:08:43Z</time>
      </trkpt>
      <trkpt lat="45.40734" lon="5.72373">
        <ele>410.6</ele>
        <time>2019-04-26T08:08:44Z</time>
      </trkpt>
      <trkpt lat="45.40733" lon="5.72368">
        <ele>410.6</ele>
        <time>2019-04-26T08:08:45Z</time>
      </trkpt>
      <trkpt lat="45.40732" lon="5.72362">
        <ele>410.7</ele>
        <time>2019-04-26T08:08:46Z</time>
      </trkpt>
      <trkpt lat="45.4073" lon="5.72356">
        <ele>410.8</ele>
        <time>2019-04-26T08:08:47Z</time>
      </trkpt>
      <trkpt lat="45.40728" lon="5.72351">
        <ele>410.9</ele>
        <time>2019-04-26T08:08:48Z</time>
      </trkpt>
      <trkpt lat="45.40725" lon="5.72347">
        <ele>411.1</ele>
        <time>2019-04-26T08:08:49Z</time>
      </trkpt>
      <trkpt lat="45.40723" lon="5.72342">
        <ele>411.1</ele>
        <time>2019-04-26T08:08:50Z</time>
      </trkpt>
      <trkpt lat="45.40719" lon="5.72337">
        <ele>411.3</ele>
        <time>2019-04-26T08:08:51Z</time>
      </trkpt>
      <trkpt lat="45.40715" lon="5.72333">
        <ele>411.4</ele>
        <time>2019-04-26T08:08:52Z</time>
      </trkpt>
      <trkpt lat="45.40715" lon="5.72329">
        <ele>411.4</ele>
        <time>2019-04-26T08:08:53Z</time>
      </trkpt>
      <trkpt lat="45.40713" lon="5.72325">
        <ele>411.5</ele>
        <time>2019-04-26T08:08:54Z</time>
      </trkpt>
      <trkpt lat="45.4071" lon="5.72321">
        <ele>411.6</ele>
        <time>2019-04-26T08:08:55Z</time>
      </trkpt>
      <trkpt lat="45.40708" lon="5.72317">
        <ele>411.7</ele>
        <time>2019-04-26T08:08:56Z</time>
      </trkpt>
      <trkpt lat="45.40706" lon="5.72313">
        <ele>411.7</ele>
        <time>2019-04-26T08:08:57Z</time>
      </trkpt>
      <trkpt lat="45.40704" lon="5.7231">
        <ele>411.8</ele>
        <time>2019-04-26T08:08:58Z</time>
      </trkpt>
      <trkpt lat="45.40701" lon="5.72307">
        <ele>411.8</ele>
        <time>2019-04-26T08:08:59Z</time>
      </trkpt>
      <trkpt lat="45.40699" lon="5.72304">
        <ele>411.9</ele>
        <time>2019-04-26T08:09:00Z</time>
      </trkpt>
      <trkpt lat="45.40696" lon="5.72301">
        <ele>411.9</ele>
        <time>2019-04-26T08:09:01Z</time>
      </trkpt>
      <trkpt lat="45.40694" lon="5.72298">
        <ele>411.9</ele>
        <time>2019-04-26T08:09:02Z</time>
      </trkpt>
      <trkpt lat="45.40692" lon="5.72295">
        <ele>411.9</ele>
        <time>2019-04-26T08:09:03Z</time>
      </trkpt>
      <trkpt lat="45.40688" lon="5.7229">
        <ele>412</ele>
        <time>2019-04-26T08:09:05Z</time>
      </trkpt>
      <trkpt lat="45.40684" lon="5.72285">
        <ele>412</ele>
        <time>2019-04-26T08:09:07Z</time>
      </trkpt>
      <trkpt lat="45.40682" lon="5.72282">
        <ele>412</ele>
        <time>2019-04-26T08:09:08Z</time>
      </trkpt>
      <trkpt lat="45.40681" lon="5.72278">
        <ele>411.9</ele>
        <time>2019-04-26T08:09:09Z</time>
      </trkpt>
      <trkpt lat="45.40678" lon="5.72275">
        <ele>411.9</ele>
        <time>2019-04-26T08:09:10Z</time>
      </trkpt>
      <trkpt lat="45.40675" lon="5.72273">
        <ele>411.9</ele>
        <time>2019-04-26T08:09:11Z</time>
      </trkpt>
      <trkpt lat="45.40672" lon="5.7227">
        <ele>411.8</ele>
        <time>2019-04-26T08:09:12Z</time>
      </trkpt>
      <trkpt lat="45.40668" lon="5.72268">
        <ele>411.8</ele>
        <time>2019-04-26T08:09:13Z</time>
      </trkpt>
      <trkpt lat="45.40665" lon="5.72264">
        <ele>411.7</ele>
        <time>2019-04-26T08:09:14Z</time>
      </trkpt>
      <trkpt lat="45.40661" lon="5.7226">
        <ele>411.7</ele>
        <time>2019-04-26T08:09:15Z</time>
      </trkpt>
      <trkpt lat="45.40658" lon="5.72256">
        <ele>411.6</ele>
        <time>2019-04-26T08:09:16Z</time>
      </trkpt>
      <trkpt lat="45.40654" lon="5.72252">
        <ele>411.6</ele>
        <time>2019-04-26T08:09:17Z</time>
      </trkpt>
      <trkpt lat="45.40652" lon="5.72247">
        <ele>411.5</ele>
        <time>2019-04-26T08:09:18Z</time>
      </trkpt>
      <trkpt lat="45.40648" lon="5.72242">
        <ele>411.5</ele>
        <time>2019-04-26T08:09:19Z</time>
      </trkpt>
      <trkpt lat="45.40644" lon="5.72238">
        <ele>411.4</ele>
        <time>2019-04-26T08:09:20Z</time>
      </trkpt>
      <trkpt lat="45.40641" lon="5.72233">
        <ele>411.4</ele>
        <time>2019-04-26T08:09:21Z</time>
      </trkpt>
      <trkpt lat="45.40638" lon="5.72229">
        <ele>411.4</ele>
        <time>2019-04-26T08:09:22Z</time>
      </trkpt>
      <trkpt lat="45.40636" lon="5.72223">
        <ele>411.3</ele>
        <time>2019-04-26T08:09:23Z</time>
      </trkpt>
      <trkpt lat="45.40633" lon="5.72218">
        <ele>411.3</ele>
        <time>2019-04-26T08:09:24Z</time>
      </trkpt>
      <trkpt lat="45.40631" lon="5.72213">
        <ele>411.3</ele>
        <time>2019-04-26T08:09:25Z</time>
      </trkpt>
      <trkpt lat="45.40631" lon="5.72207">
        <ele>411.4</ele>
        <time>2019-04-26T08:09:27Z</time>
      </trkpt>
      <trkpt lat="45.40629" lon="5.72201">
        <ele>411.4</ele>
        <time>2019-04-26T08:09:28Z</time>
      </trkpt>
      <trkpt lat="45.40626" lon="5.72195">
        <ele>411.5</ele>
        <time>2019-04-26T08:09:29Z</time>
      </trkpt>
      <trkpt lat="45.40624" lon="5.72189">
        <ele>411.6</ele>
        <time>2019-04-26T08:09:30Z</time>
      </trkpt>
      <trkpt lat="45.40622" lon="5.72183">
        <ele>411.7</ele>
        <time>2019-04-26T08:09:31Z</time>
      </trkpt>
      <trkpt lat="45.4062" lon="5.72178">
        <ele>411.9</ele>
        <time>2019-04-26T08:09:32Z</time>
      </trkpt>
      <trkpt lat="45.40617" lon="5.72172">
        <ele>412</ele>
        <time>2019-04-26T08:09:33Z</time>
      </trkpt>
      <trkpt lat="45.40615" lon="5.72167">
        <ele>412.2</ele>
        <time>2019-04-26T08:09:34Z</time>
      </trkpt>
      <trkpt lat="45.40613" lon="5.72162">
        <ele>412.3</ele>
        <time>2019-04-26T08:09:35Z</time>
      </trkpt>
      <trkpt lat="45.4061" lon="5.72157">
        <ele>412.5</ele>
        <time>2019-04-26T08:09:36Z</time>
      </trkpt>
      <trkpt lat="45.40608" lon="5.72153">
        <ele>412.6</ele>
        <time>2019-04-26T08:09:37Z</time>
      </trkpt>
      <trkpt lat="45.40606" lon="5.72149">
        <ele>412.7</ele>
        <time>2019-04-26T08:09:38Z</time>
      </trkpt>
      <trkpt lat="45.40604" lon="5.72146">
        <ele>412.9</ele>
        <time>2019-04-26T08:09:39Z</time>
      </trkpt>
      <trkpt lat="45.40602" lon="5.72143">
        <ele>413</ele>
        <time>2019-04-26T08:09:40Z</time>
      </trkpt>
      <trkpt lat="45.40599" lon="5.72139">
        <ele>413.1</ele>
        <time>2019-04-26T08:09:42Z</time>
      </trkpt>
      <trkpt lat="45.40597" lon="5.72135">
        <ele>413.3</ele>
        <time>2019-04-26T08:09:43Z</time>
      </trkpt>
      <trkpt lat="45.40595" lon="5.72132">
        <ele>413.4</ele>
        <time>2019-04-26T08:09:44Z</time>
      </trkpt>
      <trkpt lat="45.40593" lon="5.72128">
        <ele>413.6</ele>
        <time>2019-04-26T08:09:45Z</time>
      </trkpt>
      <trkpt lat="45.4059" lon="5.72123">
        <ele>413.9</ele>
        <time>2019-04-26T08:09:47Z</time>
      </trkpt>
      <trkpt lat="45.40588" lon="5.72119">
        <ele>414</ele>
        <time>2019-04-26T08:09:48Z</time>
      </trkpt>
      <trkpt lat="45.40586" lon="5.72115">
        <ele>414.1</ele>
        <time>2019-04-26T08:09:49Z</time>
      </trkpt>
      <trkpt lat="45.40584" lon="5.72109">
        <ele>414.4</ele>
        <time>2019-04-26T08:09:51Z</time>
      </trkpt>
      <trkpt lat="45.40583" lon="5.72104">
        <ele>414.2</ele>
        <time>2019-04-26T08:09:53Z</time>
      </trkpt>
      <trkpt lat="45.40584" lon="5.72108">
        <ele>414.1</ele>
        <time>2019-04-26T08:10:01Z</time>
      </trkpt>
      <trkpt lat="45.40581" lon="5.72109">
        <ele>413.9</ele>
        <time>2019-04-26T08:11:01Z</time>
      </trkpt>
      <trkpt lat="45.40578" lon="5.72106">
        <ele>413.7</ele>
        <time>2019-04-26T08:11:04Z</time>
      </trkpt>
      <trkpt lat="45.40571" lon="5.72098">
        <ele>413.3</ele>
        <time>2019-04-26T08:11:06Z</time>
      </trkpt>
      <trkpt lat="45.4055" lon="5.72078">
        <ele>412.3</ele>
        <time>2019-04-26T08:11:08Z</time>
      </trkpt>
      <trkpt lat="45.40545" lon="5.72073">
        <ele>412.1</ele>
        <time>2019-04-26T08:11:09Z</time>
      </trkpt>
      <trkpt lat="45.4054" lon="5.72067">
        <ele>411.9</ele>
        <time>2019-04-26T08:11:10Z</time>
      </trkpt>
      <trkpt lat="45.40536" lon="5.7206">
        <ele>411.7</ele>
        <time>2019-04-26T08:11:11Z</time>
      </trkpt>
      <trkpt lat="45.4053" lon="5.72054">
        <ele>411.6</ele>
        <time>2019-04-26T08:11:12Z</time>
      </trkpt>
      <trkpt lat="45.40524" lon="5.72047">
        <ele>411.4</ele>
        <time>2019-04-26T08:11:13Z</time>
      </trkpt>
      <trkpt lat="45.40519" lon="5.72041">
        <ele>411.3</ele>
        <time>2019-04-26T08:11:14Z</time>
      </trkpt>
      <trkpt lat="45.40513" lon="5.72035">
        <ele>411.1</ele>
        <time>2019-04-26T08:11:15Z</time>
      </trkpt>
      <trkpt lat="45.40508" lon="5.72029">
        <ele>411</ele>
        <time>2019-04-26T08:11:16Z</time>
      </trkpt>
      <trkpt lat="45.40504" lon="5.72024">
        <ele>410.9</ele>
        <time>2019-04-26T08:11:17Z</time>
      </trkpt>
      <trkpt lat="45.40499" lon="5.72019">
        <ele>410.8</ele>
        <time>2019-04-26T08:11:18Z</time>
      </trkpt>
      <trkpt lat="45.40495" lon="5.72014">
        <ele>410.8</ele>
        <time>2019-04-26T08:11:19Z</time>
      </trkpt>
      <trkpt lat="45.4049" lon="5.7201">
        <ele>410.7</ele>
        <time>2019-04-26T08:11:20Z</time>
      </trkpt>
      <trkpt lat="45.40487" lon="5.72006">
        <ele>410.7</ele>
        <time>2019-04-26T08:11:21Z</time>
      </trkpt>
      <trkpt lat="45.40485" lon="5.72002">
        <ele>410.8</ele>
        <time>2019-04-26T08:11:22Z</time>
      </trkpt>
      <trkpt lat="45.40482" lon="5.71999">
        <ele>410.8</ele>
        <time>2019-04-26T08:11:24Z</time>
      </trkpt>
      <trkpt lat="45.4048" lon="5.71996">
        <ele>410.8</ele>
        <time>2019-04-26T08:11:45Z</time>
      </trkpt>
      <trkpt lat="45.40477" lon="5.7199">
        <ele>410.9</ele>
        <time>2019-04-26T08:11:47Z</time>
      </trkpt>
      <trkpt lat="45.40476" lon="5.71985">
        <ele>410.8</ele>
        <time>2019-04-26T08:11:48Z</time>
      </trkpt>
      <trkpt lat="45.40474" lon="5.71981">
        <ele>410.7</ele>
        <time>2019-04-26T08:11:49Z</time>
      </trkpt>
      <trkpt lat="45.40472" lon="5.71976">
        <ele>410.6</ele>
        <time>2019-04-26T08:11:50Z</time>
      </trkpt>
      <trkpt lat="45.4047" lon="5.7197">
        <ele>410.4</ele>
        <time>2019-04-26T08:11:51Z</time>
      </trkpt>
      <trkpt lat="45.40469" lon="5.71963">
        <ele>410.2</ele>
        <time>2019-04-26T08:11:52Z</time>
      </trkpt>
      <trkpt lat="45.40467" lon="5.71957">
        <ele>409.9</ele>
        <time>2019-04-26T08:11:53Z</time>
      </trkpt>
      <trkpt lat="45.40465" lon="5.71949">
        <ele>409.6</ele>
        <time>2019-04-26T08:11:54Z</time>
      </trkpt>
      <trkpt lat="45.40463" lon="5.71942">
        <ele>409.2</ele>
        <time>2019-04-26T08:11:55Z</time>
      </trkpt>
      <trkpt lat="45.40461" lon="5.71933">
        <ele>408.9</ele>
        <time>2019-04-26T08:11:56Z</time>
      </trkpt>
      <trkpt lat="45.40458" lon="5.71924">
        <ele>408.6</ele>
        <time>2019-04-26T08:11:57Z</time>
      </trkpt>
      <trkpt lat="45.40455" lon="5.71915">
        <ele>408.4</ele>
        <time>2019-04-26T08:11:58Z</time>
      </trkpt>
      <trkpt lat="45.40453" lon="5.71906">
        <ele>408.3</ele>
        <time>2019-04-26T08:11:59Z</time>
      </trkpt>
      <trkpt lat="45.4045" lon="5.71897">
        <ele>408.2</ele>
        <time>2019-04-26T08:12:00Z</time>
      </trkpt>
      <trkpt lat="45.40447" lon="5.71888">
        <ele>408.1</ele>
        <time>2019-04-26T08:12:01Z</time>
      </trkpt>
      <trkpt lat="45.40444" lon="5.71879">
        <ele>408.1</ele>
        <time>2019-04-26T08:12:02Z</time>
      </trkpt>
      <trkpt lat="45.40441" lon="5.7187">
        <ele>408</ele>
        <time>2019-04-26T08:12:03Z</time>
      </trkpt>
      <trkpt lat="45.40438" lon="5.71861">
        <ele>408</ele>
        <time>2019-04-26T08:12:04Z</time>
      </trkpt>
      <trkpt lat="45.40435" lon="5.71852">
        <ele>408</ele>
        <time>2019-04-26T08:12:05Z</time>
      </trkpt>
      <trkpt lat="45.40432" lon="5.71842">
        <ele>408</ele>
        <time>2019-04-26T08:12:06Z</time>
      </trkpt>
      <trkpt lat="45.40428" lon="5.71833">
        <ele>408.1</ele>
        <time>2019-04-26T08:12:07Z</time>
      </trkpt>
      <trkpt lat="45.40425" lon="5.71825">
        <ele>408.1</ele>
        <time>2019-04-26T08:12:08Z</time>
      </trkpt>
      <trkpt lat="45.40423" lon="5.71816">
        <ele>408.1</ele>
        <time>2019-04-26T08:12:09Z</time>
      </trkpt>
      <trkpt lat="45.4042" lon="5.71808">
        <ele>408.2</ele>
        <time>2019-04-26T08:12:10Z</time>
      </trkpt>
      <trkpt lat="45.40417" lon="5.718">
        <ele>408.2</ele>
        <time>2019-04-26T08:12:11Z</time>
      </trkpt>
      <trkpt lat="45.40415" lon="5.71792">
        <ele>408.2</ele>
        <time>2019-04-26T08:12:12Z</time>
      </trkpt>
      <trkpt lat="45.40412" lon="5.71784">
        <ele>408.3</ele>
        <time>2019-04-26T08:12:13Z</time>
      </trkpt>
      <trkpt lat="45.40409" lon="5.71776">
        <ele>408.3</ele>
        <time>2019-04-26T08:12:14Z</time>
      </trkpt>
      <trkpt lat="45.40407" lon="5.71767">
        <ele>408.3</ele>
        <time>2019-04-26T08:12:15Z</time>
      </trkpt>
      <trkpt lat="45.40404" lon="5.71759">
        <ele>408.3</ele>
        <time>2019-04-26T08:12:16Z</time>
      </trkpt>
      <trkpt lat="45.40401" lon="5.7175">
        <ele>408.3</ele>
        <time>2019-04-26T08:12:17Z</time>
      </trkpt>
      <trkpt lat="45.40398" lon="5.71742">
        <ele>408.3</ele>
        <time>2019-04-26T08:12:18Z</time>
      </trkpt>
      <trkpt lat="45.40395" lon="5.71733">
        <ele>408.4</ele>
        <time>2019-04-26T08:12:19Z</time>
      </trkpt>
      <trkpt lat="45.40391" lon="5.71726">
        <ele>408.4</ele>
        <time>2019-04-26T08:12:20Z</time>
      </trkpt>
      <trkpt lat="45.40388" lon="5.71719">
        <ele>408.4</ele>
        <time>2019-04-26T08:12:21Z</time>
      </trkpt>
      <trkpt lat="45.40384" lon="5.71712">
        <ele>408.5</ele>
        <time>2019-04-26T08:12:22Z</time>
      </trkpt>
      <trkpt lat="45.4038" lon="5.71707">
        <ele>408.5</ele>
        <time>2019-04-26T08:12:23Z</time>
      </trkpt>
      <trkpt lat="45.40375" lon="5.71701">
        <ele>408.6</ele>
        <time>2019-04-26T08:12:24Z</time>
      </trkpt>
      <trkpt lat="45.40371" lon="5.71696">
        <ele>408.7</ele>
        <time>2019-04-26T08:12:25Z</time>
      </trkpt>
      <trkpt lat="45.40367" lon="5.7169">
        <ele>408.7</ele>
        <time>2019-04-26T08:12:26Z</time>
      </trkpt>
      <trkpt lat="45.40363" lon="5.71684">
        <ele>408.8</ele>
        <time>2019-04-26T08:12:27Z</time>
      </trkpt>
      <trkpt lat="45.4036" lon="5.71679">
        <ele>408.9</ele>
        <time>2019-04-26T08:12:28Z</time>
      </trkpt>
      <trkpt lat="45.40357" lon="5.71672">
        <ele>409</ele>
        <time>2019-04-26T08:12:29Z</time>
      </trkpt>
      <trkpt lat="45.40354" lon="5.71665">
        <ele>409.1</ele>
        <time>2019-04-26T08:12:30Z</time>
      </trkpt>
      <trkpt lat="45.40352" lon="5.71659">
        <ele>409.1</ele>
        <time>2019-04-26T08:12:31Z</time>
      </trkpt>
      <trkpt lat="45.40349" lon="5.71652">
        <ele>409.2</ele>
        <time>2019-04-26T08:12:32Z</time>
      </trkpt>
      <trkpt lat="45.40347" lon="5.71645">
        <ele>409.2</ele>
        <time>2019-04-26T08:12:33Z</time>
      </trkpt>
      <trkpt lat="45.40344" lon="5.71637">
        <ele>409.2</ele>
        <time>2019-04-26T08:12:34Z</time>
      </trkpt>
      <trkpt lat="45.40341" lon="5.7163">
        <ele>409.2</ele>
        <time>2019-04-26T08:12:35Z</time>
      </trkpt>
      <trkpt lat="45.40338" lon="5.71623">
        <ele>409.2</ele>
        <time>2019-04-26T08:12:36Z</time>
      </trkpt>
      <trkpt lat="45.40335" lon="5.71616">
        <ele>409.2</ele>
        <time>2019-04-26T08:12:37Z</time>
      </trkpt>
      <trkpt lat="45.40332" lon="5.71608">
        <ele>409.2</ele>
        <time>2019-04-26T08:12:38Z</time>
      </trkpt>
      <trkpt lat="45.40329" lon="5.71601">
        <ele>409.1</ele>
        <time>2019-04-26T08:12:39Z</time>
      </trkpt>
      <trkpt lat="45.40325" lon="5.71594">
        <ele>409.1</ele>
        <time>2019-04-26T08:12:40Z</time>
      </trkpt>
      <trkpt lat="45.40322" lon="5.71587">
        <ele>409</ele>
        <time>2019-04-26T08:12:41Z</time>
      </trkpt>
      <trkpt lat="45.40319" lon="5.71579">
        <ele>409</ele>
        <time>2019-04-26T08:12:42Z</time>
      </trkpt>
      <trkpt lat="45.40315" lon="5.71572">
        <ele>408.9</ele>
        <time>2019-04-26T08:12:43Z</time>
      </trkpt>
      <trkpt lat="45.40312" lon="5.71564">
        <ele>408.8</ele>
        <time>2019-04-26T08:12:44Z</time>
      </trkpt>
      <trkpt lat="45.40308" lon="5.71557">
        <ele>408.7</ele>
        <time>2019-04-26T08:12:45Z</time>
      </trkpt>
      <trkpt lat="45.40305" lon="5.7155">
        <ele>408.6</ele>
        <time>2019-04-26T08:12:46Z</time>
      </trkpt>
      <trkpt lat="45.40302" lon="5.71543">
        <ele>408.5</ele>
        <time>2019-04-26T08:12:47Z</time>
      </trkpt>
      <trkpt lat="45.40298" lon="5.71536">
        <ele>408.5</ele>
        <time>2019-04-26T08:12:48Z</time>
      </trkpt>
      <trkpt lat="45.40295" lon="5.71529">
        <ele>408.4</ele>
        <time>2019-04-26T08:12:49Z</time>
      </trkpt>
      <trkpt lat="45.40292" lon="5.71522">
        <ele>408.3</ele>
        <time>2019-04-26T08:12:50Z</time>
      </trkpt>
      <trkpt lat="45.40288" lon="5.71516">
        <ele>408.2</ele>
        <time>2019-04-26T08:12:51Z</time>
      </trkpt>
      <trkpt lat="45.40285" lon="5.71509">
        <ele>408.2</ele>
        <time>2019-04-26T08:12:52Z</time>
      </trkpt>
      <trkpt lat="45.40283" lon="5.71502">
        <ele>408.1</ele>
        <time>2019-04-26T08:12:53Z</time>
      </trkpt>
      <trkpt lat="45.40279" lon="5.71496">
        <ele>408.1</ele>
        <time>2019-04-26T08:12:54Z</time>
      </trkpt>
      <trkpt lat="45.40277" lon="5.7149">
        <ele>408</ele>
        <time>2019-04-26T08:12:55Z</time>
      </trkpt>
      <trkpt lat="45.40274" lon="5.71483">
        <ele>408</ele>
        <time>2019-04-26T08:12:56Z</time>
      </trkpt>
      <trkpt lat="45.40273" lon="5.71478">
        <ele>408</ele>
        <time>2019-04-26T08:12:57Z</time>
      </trkpt>
      <trkpt lat="45.4027" lon="5.71472">
        <ele>408</ele>
        <time>2019-04-26T08:12:58Z</time>
      </trkpt>
      <trkpt lat="45.40267" lon="5.71467">
        <ele>408</ele>
        <time>2019-04-26T08:12:59Z</time>
      </trkpt>
      <trkpt lat="45.40264" lon="5.71461">
        <ele>408</ele>
        <time>2019-04-26T08:13:00Z</time>
      </trkpt>
      <trkpt lat="45.40262" lon="5.71456">
        <ele>408.1</ele>
        <time>2019-04-26T08:13:01Z</time>
      </trkpt>
      <trkpt lat="45.4026" lon="5.7145">
        <ele>408.1</ele>
        <time>2019-04-26T08:13:02Z</time>
      </trkpt>
      <trkpt lat="45.40257" lon="5.71445">
        <ele>408.3</ele>
        <time>2019-04-26T08:13:03Z</time>
      </trkpt>
      <trkpt lat="45.40254" lon="5.7144">
        <ele>408.4</ele>
        <time>2019-04-26T08:13:04Z</time>
      </trkpt>
      <trkpt lat="45.40252" lon="5.71434">
        <ele>408.5</ele>
        <time>2019-04-26T08:13:05Z</time>
      </trkpt>
      <trkpt lat="45.4025" lon="5.71429">
        <ele>408.7</ele>
        <time>2019-04-26T08:13:06Z</time>
      </trkpt>
      <trkpt lat="45.40247" lon="5.71424">
        <ele>408.9</ele>
        <time>2019-04-26T08:13:07Z</time>
      </trkpt>
      <trkpt lat="45.40244" lon="5.7142">
        <ele>409.1</ele>
        <time>2019-04-26T08:13:08Z</time>
      </trkpt>
      <trkpt lat="45.40241" lon="5.71415">
        <ele>409.3</ele>
        <time>2019-04-26T08:13:09Z</time>
      </trkpt>
      <trkpt lat="45.40239" lon="5.7141">
        <ele>409.4</ele>
        <time>2019-04-26T08:13:10Z</time>
      </trkpt>
      <trkpt lat="45.40237" lon="5.71406">
        <ele>409.6</ele>
        <time>2019-04-26T08:13:11Z</time>
      </trkpt>
      <trkpt lat="45.40235" lon="5.71401">
        <ele>409.7</ele>
        <time>2019-04-26T08:13:12Z</time>
      </trkpt>
      <trkpt lat="45.40233" lon="5.71397">
        <ele>409.7</ele>
        <time>2019-04-26T08:13:14Z</time>
      </trkpt>
      <trkpt lat="45.40231" lon="5.71393">
        <ele>409.8</ele>
        <time>2019-04-26T08:13:16Z</time>
      </trkpt>
      <trkpt lat="45.40228" lon="5.71385">
        <ele>409.9</ele>
        <time>2019-04-26T08:13:17Z</time>
      </trkpt>
      <trkpt lat="45.40225" lon="5.71378">
        <ele>410</ele>
        <time>2019-04-26T08:13:18Z</time>
      </trkpt>
      <trkpt lat="45.40221" lon="5.71371">
        <ele>410.2</ele>
        <time>2019-04-26T08:13:19Z</time>
      </trkpt>
      <trkpt lat="45.40218" lon="5.71365">
        <ele>410.3</ele>
        <time>2019-04-26T08:13:20Z</time>
      </trkpt>
      <trkpt lat="45.40215" lon="5.71359">
        <ele>410.4</ele>
        <time>2019-04-26T08:13:21Z</time>
      </trkpt>
      <trkpt lat="45.40212" lon="5.71354">
        <ele>410.5</ele>
        <time>2019-04-26T08:13:22Z</time>
      </trkpt>
      <trkpt lat="45.40208" lon="5.71349">
        <ele>410.6</ele>
        <time>2019-04-26T08:13:23Z</time>
      </trkpt>
      <trkpt lat="45.40205" lon="5.71346">
        <ele>410.6</ele>
        <time>2019-04-26T08:13:24Z</time>
      </trkpt>
      <trkpt lat="45.40201" lon="5.7134">
        <ele>410.7</ele>
        <time>2019-04-26T08:13:26Z</time>
      </trkpt>
      <trkpt lat="45.40198" lon="5.71336">
        <ele>410.7</ele>
        <time>2019-04-26T08:13:27Z</time>
      </trkpt>
      <trkpt lat="45.40195" lon="5.71333">
        <ele>410.8</ele>
        <time>2019-04-26T08:13:28Z</time>
      </trkpt>
      <trkpt lat="45.40193" lon="5.71329">
        <ele>410.8</ele>
        <time>2019-04-26T08:13:29Z</time>
      </trkpt>
      <trkpt lat="45.40189" lon="5.71327">
        <ele>410.8</ele>
        <time>2019-04-26T08:13:30Z</time>
      </trkpt>
      <trkpt lat="45.40186" lon="5.71324">
        <ele>410.9</ele>
        <time>2019-04-26T08:13:31Z</time>
      </trkpt>
      <trkpt lat="45.40182" lon="5.7132">
        <ele>410.9</ele>
        <time>2019-04-26T08:13:32Z</time>
      </trkpt>
      <trkpt lat="45.40179" lon="5.71316">
        <ele>410.9</ele>
        <time>2019-04-26T08:13:33Z</time>
      </trkpt>
      <trkpt lat="45.40175" lon="5.71312">
        <ele>410.9</ele>
        <time>2019-04-26T08:13:34Z</time>
      </trkpt>
      <trkpt lat="45.40171" lon="5.71308">
        <ele>410.9</ele>
        <time>2019-04-26T08:13:35Z</time>
      </trkpt>
      <trkpt lat="45.40168" lon="5.71304">
        <ele>410.9</ele>
        <time>2019-04-26T08:13:36Z</time>
      </trkpt>
      <trkpt lat="45.40164" lon="5.713">
        <ele>410.9</ele>
        <time>2019-04-26T08:13:37Z</time>
      </trkpt>
      <trkpt lat="45.40161" lon="5.71295">
        <ele>410.9</ele>
        <time>2019-04-26T08:13:38Z</time>
      </trkpt>
      <trkpt lat="45.40158" lon="5.7129">
        <ele>410.8</ele>
        <time>2019-04-26T08:13:39Z</time>
      </trkpt>
      <trkpt lat="45.40155" lon="5.71285">
        <ele>410.8</ele>
        <time>2019-04-26T08:13:40Z</time>
      </trkpt>
      <trkpt lat="45.40152" lon="5.7128">
        <ele>410.7</ele>
        <time>2019-04-26T08:13:41Z</time>
      </trkpt>
      <trkpt lat="45.40149" lon="5.71274">
        <ele>410.7</ele>
        <time>2019-04-26T08:13:42Z</time>
      </trkpt>
      <trkpt lat="45.40146" lon="5.71268">
        <ele>410.6</ele>
        <time>2019-04-26T08:13:43Z</time>
      </trkpt>
      <trkpt lat="45.40143" lon="5.71263">
        <ele>410.5</ele>
        <time>2019-04-26T08:13:44Z</time>
      </trkpt>
      <trkpt lat="45.40141" lon="5.71258">
        <ele>410.4</ele>
        <time>2019-04-26T08:13:45Z</time>
      </trkpt>
      <trkpt lat="45.40138" lon="5.71252">
        <ele>410.3</ele>
        <time>2019-04-26T08:13:46Z</time>
      </trkpt>
      <trkpt lat="45.40135" lon="5.71246">
        <ele>410.2</ele>
        <time>2019-04-26T08:13:47Z</time>
      </trkpt>
      <trkpt lat="45.40131" lon="5.71242">
        <ele>410.1</ele>
        <time>2019-04-26T08:13:48Z</time>
      </trkpt>
      <trkpt lat="45.40127" lon="5.71237">
        <ele>410</ele>
        <time>2019-04-26T08:13:49Z</time>
      </trkpt>
      <trkpt lat="45.40124" lon="5.71232">
        <ele>410</ele>
        <time>2019-04-26T08:13:50Z</time>
      </trkpt>
      <trkpt lat="45.40119" lon="5.71227">
        <ele>409.9</ele>
        <time>2019-04-26T08:13:51Z</time>
      </trkpt>
      <trkpt lat="45.40114" lon="5.71222">
        <ele>409.8</ele>
        <time>2019-04-26T08:13:52Z</time>
      </trkpt>
      <trkpt lat="45.40109" lon="5.71216">
        <ele>409.7</ele>
        <time>2019-04-26T08:13:53Z</time>
      </trkpt>
      <trkpt lat="45.40103" lon="5.71211">
        <ele>409.7</ele>
        <time>2019-04-26T08:13:54Z</time>
      </trkpt>
      <trkpt lat="45.40098" lon="5.71204">
        <ele>409.6</ele>
        <time>2019-04-26T08:13:55Z</time>
      </trkpt>
      <trkpt lat="45.40092" lon="5.71199">
        <ele>409.6</ele>
        <time>2019-04-26T08:13:56Z</time>
      </trkpt>
      <trkpt lat="45.40086" lon="5.71193">
        <ele>409.6</ele>
        <time>2019-04-26T08:13:57Z</time>
      </trkpt>
      <trkpt lat="45.4008" lon="5.71186">
        <ele>409.6</ele>
        <time>2019-04-26T08:13:58Z</time>
      </trkpt>
      <trkpt lat="45.40075" lon="5.71179">
        <ele>409.6</ele>
        <time>2019-04-26T08:13:59Z</time>
      </trkpt>
      <trkpt lat="45.40069" lon="5.71172">
        <ele>409.6</ele>
        <time>2019-04-26T08:14:00Z</time>
      </trkpt>
      <trkpt lat="45.40065" lon="5.71165">
        <ele>409.5</ele>
        <time>2019-04-26T08:14:01Z</time>
      </trkpt>
      <trkpt lat="45.4006" lon="5.71158">
        <ele>409.4</ele>
        <time>2019-04-26T08:14:02Z</time>
      </trkpt>
      <trkpt lat="45.40056" lon="5.71151">
        <ele>409.4</ele>
        <time>2019-04-26T08:14:03Z</time>
      </trkpt>
      <trkpt lat="45.40051" lon="5.71144">
        <ele>409.4</ele>
        <time>2019-04-26T08:14:04Z</time>
      </trkpt>
      <trkpt lat="45.40047" lon="5.71135">
        <ele>409.4</ele>
        <time>2019-04-26T08:14:05Z</time>
      </trkpt>
      <trkpt lat="45.40043" lon="5.71127">
        <ele>409.4</ele>
        <time>2019-04-26T08:14:06Z</time>
      </trkpt>
      <trkpt lat="45.40039" lon="5.7112">
        <ele>409.4</ele>
        <time>2019-04-26T08:14:07Z</time>
      </trkpt>
      <trkpt lat="45.40036" lon="5.71112">
        <ele>409.4</ele>
        <time>2019-04-26T08:14:08Z</time>
      </trkpt>
      <trkpt lat="45.40032" lon="5.71105">
        <ele>409.4</ele>
        <time>2019-04-26T08:14:09Z</time>
      </trkpt>
      <trkpt lat="45.40026" lon="5.71097">
        <ele>409.4</ele>
        <time>2019-04-26T08:14:10Z</time>
      </trkpt>
      <trkpt lat="45.40021" lon="5.7109">
        <ele>409.5</ele>
        <time>2019-04-26T08:14:11Z</time>
      </trkpt>
      <trkpt lat="45.40016" lon="5.71083">
        <ele>409.5</ele>
        <time>2019-04-26T08:14:12Z</time>
      </trkpt>
      <trkpt lat="45.40011" lon="5.71078">
        <ele>409.6</ele>
        <time>2019-04-26T08:14:13Z</time>
      </trkpt>
      <trkpt lat="45.40006" lon="5.71071">
        <ele>409.7</ele>
        <time>2019-04-26T08:14:14Z</time>
      </trkpt>
      <trkpt lat="45.4" lon="5.71065">
        <ele>409.8</ele>
        <time>2019-04-26T08:14:15Z</time>
      </trkpt>
      <trkpt lat="45.39995" lon="5.71059">
        <ele>409.9</ele>
        <time>2019-04-26T08:14:16Z</time>
      </trkpt>
      <trkpt lat="45.39991" lon="5.71053">
        <ele>409.9</ele>
        <time>2019-04-26T08:14:17Z</time>
      </trkpt>
      <trkpt lat="45.39986" lon="5.71047">
        <ele>409.9</ele>
        <time>2019-04-26T08:14:18Z</time>
      </trkpt>
      <trkpt lat="45.39981" lon="5.71042">
        <ele>410</ele>
        <time>2019-04-26T08:14:19Z</time>
      </trkpt>
      <trkpt lat="45.39977" lon="5.71036">
        <ele>410</ele>
        <time>2019-04-26T08:14:20Z</time>
      </trkpt>
      <trkpt lat="45.39973" lon="5.7103">
        <ele>410</ele>
        <time>2019-04-26T08:14:21Z</time>
      </trkpt>
      <trkpt lat="45.39969" lon="5.71023">
        <ele>410</ele>
        <time>2019-04-26T08:14:22Z</time>
      </trkpt>
      <trkpt lat="45.39965" lon="5.71017">
        <ele>410</ele>
        <time>2019-04-26T08:14:23Z</time>
      </trkpt>
      <trkpt lat="45.39962" lon="5.71011">
        <ele>410</ele>
        <time>2019-04-26T08:14:24Z</time>
      </trkpt>
      <trkpt lat="45.39958" lon="5.71004">
        <ele>410</ele>
        <time>2019-04-26T08:14:25Z</time>
      </trkpt>
      <trkpt lat="45.39954" lon="5.70998">
        <ele>410.1</ele>
        <time>2019-04-26T08:14:26Z</time>
      </trkpt>
      <trkpt lat="45.39951" lon="5.70991">
        <ele>410.1</ele>
        <time>2019-04-26T08:14:27Z</time>
      </trkpt>
      <trkpt lat="45.39946" lon="5.70985">
        <ele>410.1</ele>
        <time>2019-04-26T08:14:28Z</time>
      </trkpt>
      <trkpt lat="45.39942" lon="5.70979">
        <ele>410.1</ele>
        <time>2019-04-26T08:14:29Z</time>
      </trkpt>
      <trkpt lat="45.39938" lon="5.70972">
        <ele>410.2</ele>
        <time>2019-04-26T08:14:30Z</time>
      </trkpt>
      <trkpt lat="45.39934" lon="5.70966">
        <ele>410.2</ele>
        <time>2019-04-26T08:14:31Z</time>
      </trkpt>
      <trkpt lat="45.3993" lon="5.7096">
        <ele>410.3</ele>
        <time>2019-04-26T08:14:32Z</time>
      </trkpt>
      <trkpt lat="45.39927" lon="5.70953">
        <ele>410.3</ele>
        <time>2019-04-26T08:14:33Z</time>
      </trkpt>
      <trkpt lat="45.39923" lon="5.70947">
        <ele>410.4</ele>
        <time>2019-04-26T08:14:34Z</time>
      </trkpt>
      <trkpt lat="45.3992" lon="5.70941">
        <ele>410.5</ele>
        <time>2019-04-26T08:14:35Z</time>
      </trkpt>
      <trkpt lat="45.39916" lon="5.70934">
        <ele>410.6</ele>
        <time>2019-04-26T08:14:36Z</time>
      </trkpt>
      <trkpt lat="45.39913" lon="5.70928">
        <ele>410.7</ele>
        <time>2019-04-26T08:14:37Z</time>
      </trkpt>
      <trkpt lat="45.39909" lon="5.70922">
        <ele>410.8</ele>
        <time>2019-04-26T08:14:38Z</time>
      </trkpt>
      <trkpt lat="45.39906" lon="5.70916">
        <ele>410.9</ele>
        <time>2019-04-26T08:14:39Z</time>
      </trkpt>
      <trkpt lat="45.39902" lon="5.7091">
        <ele>411</ele>
        <time>2019-04-26T08:14:40Z</time>
      </trkpt>
      <trkpt lat="45.39899" lon="5.70905">
        <ele>411.2</ele>
        <time>2019-04-26T08:14:41Z</time>
      </trkpt>
      <trkpt lat="45.39895" lon="5.70899">
        <ele>411.3</ele>
        <time>2019-04-26T08:14:42Z</time>
      </trkpt>
      <trkpt lat="45.39891" lon="5.70894">
        <ele>411.4</ele>
        <time>2019-04-26T08:14:43Z</time>
      </trkpt>
      <trkpt lat="45.39888" lon="5.70889">
        <ele>411.5</ele>
        <time>2019-04-26T08:14:44Z</time>
      </trkpt>
      <trkpt lat="45.39884" lon="5.70884">
        <ele>411.6</ele>
        <time>2019-04-26T08:14:45Z</time>
      </trkpt>
      <trkpt lat="45.39881" lon="5.70879">
        <ele>411.7</ele>
        <time>2019-04-26T08:14:46Z</time>
      </trkpt>
      <trkpt lat="45.39877" lon="5.70873">
        <ele>411.8</ele>
        <time>2019-04-26T08:14:47Z</time>
      </trkpt>
      <trkpt lat="45.39874" lon="5.70867">
        <ele>411.9</ele>
        <time>2019-04-26T08:14:48Z</time>
      </trkpt>
      <trkpt lat="45.39871" lon="5.70861">
        <ele>412.1</ele>
        <time>2019-04-26T08:14:49Z</time>
      </trkpt>
      <trkpt lat="45.39869" lon="5.70855">
        <ele>412.2</ele>
        <time>2019-04-26T08:14:50Z</time>
      </trkpt>
      <trkpt lat="45.39866" lon="5.70849">
        <ele>412.3</ele>
        <time>2019-04-26T08:14:51Z</time>
      </trkpt>
      <trkpt lat="45.39864" lon="5.70842">
        <ele>412.4</ele>
        <time>2019-04-26T08:14:52Z</time>
      </trkpt>
      <trkpt lat="45.39862" lon="5.70836">
        <ele>412.6</ele>
        <time>2019-04-26T08:14:53Z</time>
      </trkpt>
      <trkpt lat="45.39859" lon="5.7083">
        <ele>412.7</ele>
        <time>2019-04-26T08:14:54Z</time>
      </trkpt>
      <trkpt lat="45.39857" lon="5.70823">
        <ele>412.8</ele>
        <time>2019-04-26T08:14:55Z</time>
      </trkpt>
      <trkpt lat="45.39854" lon="5.70818">
        <ele>412.9</ele>
        <time>2019-04-26T08:14:56Z</time>
      </trkpt>
      <trkpt lat="45.39852" lon="5.70811">
        <ele>412.9</ele>
        <time>2019-04-26T08:14:57Z</time>
      </trkpt>
      <trkpt lat="45.39848" lon="5.70807">
        <ele>413</ele>
        <time>2019-04-26T08:14:58Z</time>
      </trkpt>
      <trkpt lat="45.39846" lon="5.70801">
        <ele>413</ele>
        <time>2019-04-26T08:14:59Z</time>
      </trkpt>
      <trkpt lat="45.39843" lon="5.70796">
        <ele>413</ele>
        <time>2019-04-26T08:15:00Z</time>
      </trkpt>
      <trkpt lat="45.3984" lon="5.70792">
        <ele>413</ele>
        <time>2019-04-26T08:15:01Z</time>
      </trkpt>
      <trkpt lat="45.39837" lon="5.70787">
        <ele>413</ele>
        <time>2019-04-26T08:15:02Z</time>
      </trkpt>
      <trkpt lat="45.39834" lon="5.70783">
        <ele>413</ele>
        <time>2019-04-26T08:15:03Z</time>
      </trkpt>
      <trkpt lat="45.39832" lon="5.70779">
        <ele>413</ele>
        <time>2019-04-26T08:15:04Z</time>
      </trkpt>
      <trkpt lat="45.39829" lon="5.70775">
        <ele>413</ele>
        <time>2019-04-26T08:15:05Z</time>
      </trkpt>
      <trkpt lat="45.39826" lon="5.7077">
        <ele>413</ele>
        <time>2019-04-26T08:15:06Z</time>
      </trkpt>
      <trkpt lat="45.39823" lon="5.70766">
        <ele>413</ele>
        <time>2019-04-26T08:15:07Z</time>
      </trkpt>
      <trkpt lat="45.39819" lon="5.70761">
        <ele>413</ele>
        <time>2019-04-26T08:15:08Z</time>
      </trkpt>
      <trkpt lat="45.39816" lon="5.70756">
        <ele>413.1</ele>
        <time>2019-04-26T08:15:09Z</time>
      </trkpt>
      <trkpt lat="45.39812" lon="5.70751">
        <ele>413.1</ele>
        <time>2019-04-26T08:15:10Z</time>
      </trkpt>
      <trkpt lat="45.3981" lon="5.70746">
        <ele>413.1</ele>
        <time>2019-04-26T08:15:11Z</time>
      </trkpt>
      <trkpt lat="45.39807" lon="5.70741">
        <ele>413.1</ele>
        <time>2019-04-26T08:15:12Z</time>
      </trkpt>
      <trkpt lat="45.39804" lon="5.70736">
        <ele>413.2</ele>
        <time>2019-04-26T08:15:13Z</time>
      </trkpt>
      <trkpt lat="45.39801" lon="5.70731">
        <ele>413.2</ele>
        <time>2019-04-26T08:15:14Z</time>
      </trkpt>
      <trkpt lat="45.39798" lon="5.70726">
        <ele>413.2</ele>
        <time>2019-04-26T08:15:15Z</time>
      </trkpt>
      <trkpt lat="45.39794" lon="5.70721">
        <ele>413.3</ele>
        <time>2019-04-26T08:15:16Z</time>
      </trkpt>
      <trkpt lat="45.39791" lon="5.70716">
        <ele>413.4</ele>
        <time>2019-04-26T08:15:17Z</time>
      </trkpt>
      <trkpt lat="45.39788" lon="5.70711">
        <ele>413.4</ele>
        <time>2019-04-26T08:15:18Z</time>
      </trkpt>
      <trkpt lat="45.39785" lon="5.70706">
        <ele>413.5</ele>
        <time>2019-04-26T08:15:19Z</time>
      </trkpt>
      <trkpt lat="45.39782" lon="5.70702">
        <ele>413.5</ele>
        <time>2019-04-26T08:15:20Z</time>
      </trkpt>
      <trkpt lat="45.39779" lon="5.70698">
        <ele>413.6</ele>
        <time>2019-04-26T08:15:21Z</time>
      </trkpt>
      <trkpt lat="45.39777" lon="5.70693">
        <ele>413.7</ele>
        <time>2019-04-26T08:15:22Z</time>
      </trkpt>
      <trkpt lat="45.39775" lon="5.70689">
        <ele>413.8</ele>
        <time>2019-04-26T08:15:23Z</time>
      </trkpt>
      <trkpt lat="45.39772" lon="5.70686">
        <ele>413.8</ele>
        <time>2019-04-26T08:15:24Z</time>
      </trkpt>
      <trkpt lat="45.39771" lon="5.70683">
        <ele>413.9</ele>
        <time>2019-04-26T08:15:25Z</time>
      </trkpt>
      <trkpt lat="45.3977" lon="5.70679">
        <ele>414</ele>
        <time>2019-04-26T08:15:28Z</time>
      </trkpt>
      <trkpt lat="45.39773" lon="5.7068">
        <ele>414</ele>
        <time>2019-04-26T08:15:43Z</time>
      </trkpt>
      <trkpt lat="45.39769" lon="5.70676">
        <ele>414.2</ele>
        <time>2019-04-26T08:15:53Z</time>
      </trkpt>
      <trkpt lat="45.39767" lon="5.70673">
        <ele>414.2</ele>
        <time>2019-04-26T08:15:54Z</time>
      </trkpt>
      <trkpt lat="45.39765" lon="5.70669">
        <ele>414.3</ele>
        <time>2019-04-26T08:15:55Z</time>
      </trkpt>
      <trkpt lat="45.39763" lon="5.70664">
        <ele>414.4</ele>
        <time>2019-04-26T08:15:56Z</time>
      </trkpt>
      <trkpt lat="45.39761" lon="5.70659">
        <ele>414.5</ele>
        <time>2019-04-26T08:15:57Z</time>
      </trkpt>
      <trkpt lat="45.3976" lon="5.70655">
        <ele>414.6</ele>
        <time>2019-04-26T08:15:58Z</time>
      </trkpt>
      <trkpt lat="45.39757" lon="5.70648">
        <ele>414.8</ele>
        <time>2019-04-26T08:16:00Z</time>
      </trkpt>
      <trkpt lat="45.39756" lon="5.70644">
        <ele>415</ele>
        <time>2019-04-26T08:16:01Z</time>
      </trkpt>
      <trkpt lat="45.39754" lon="5.7064">
        <ele>415.1</ele>
        <time>2019-04-26T08:16:02Z</time>
      </trkpt>
      <trkpt lat="45.39753" lon="5.70636">
        <ele>415.2</ele>
        <time>2019-04-26T08:16:03Z</time>
      </trkpt>
      <trkpt lat="45.39752" lon="5.70631">
        <ele>415.3</ele>
        <time>2019-04-26T08:16:04Z</time>
      </trkpt>
      <trkpt lat="45.39751" lon="5.70627">
        <ele>415.4</ele>
        <time>2019-04-26T08:16:05Z</time>
      </trkpt>
      <trkpt lat="45.39749" lon="5.70622">
        <ele>415.6</ele>
        <time>2019-04-26T08:16:06Z</time>
      </trkpt>
      <trkpt lat="45.39748" lon="5.70618">
        <ele>415.7</ele>
        <time>2019-04-26T08:16:07Z</time>
      </trkpt>
      <trkpt lat="45.39745" lon="5.70613">
        <ele>416</ele>
        <time>2019-04-26T08:16:09Z</time>
      </trkpt>
      <trkpt lat="45.39742" lon="5.70607">
        <ele>416.3</ele>
        <time>2019-04-26T08:16:10Z</time>
      </trkpt>
      <trkpt lat="45.39739" lon="5.706">
        <ele>416.7</ele>
        <time>2019-04-26T08:16:11Z</time>
      </trkpt>
      <trkpt lat="45.39737" lon="5.70596">
        <ele>417</ele>
        <time>2019-04-26T08:16:12Z</time>
      </trkpt>
      <trkpt lat="45.39736" lon="5.70592">
        <ele>417.2</ele>
        <time>2019-04-26T08:16:13Z</time>
      </trkpt>
      <trkpt lat="45.39735" lon="5.70588">
        <ele>417.5</ele>
        <time>2019-04-26T08:16:14Z</time>
      </trkpt>
      <trkpt lat="45.39734" lon="5.70582">
        <ele>417.8</ele>
        <time>2019-04-26T08:16:16Z</time>
      </trkpt>
      <trkpt lat="45.39732" lon="5.70578">
        <ele>418</ele>
        <time>2019-04-26T08:16:18Z</time>
      </trkpt>
      <trkpt lat="45.39731" lon="5.70572">
        <ele>418.3</ele>
        <time>2019-04-26T08:16:20Z</time>
      </trkpt>
      <trkpt lat="45.39729" lon="5.70569">
        <ele>418.6</ele>
        <time>2019-04-26T08:16:22Z</time>
      </trkpt>
      <trkpt lat="45.39728" lon="5.70564">
        <ele>418.8</ele>
        <time>2019-04-26T08:16:24Z</time>
      </trkpt>
      <trkpt lat="45.39726" lon="5.70559">
        <ele>419.1</ele>
        <time>2019-04-26T08:16:26Z</time>
      </trkpt>
      <trkpt lat="45.39724" lon="5.70553">
        <ele>419.4</ele>
        <time>2019-04-26T08:16:28Z</time>
      </trkpt>
      <trkpt lat="45.39724" lon="5.70549">
        <ele>419.6</ele>
        <time>2019-04-26T08:16:29Z</time>
      </trkpt>
      <trkpt lat="45.39723" lon="5.70545">
        <ele>419.8</ele>
        <time>2019-04-26T08:16:30Z</time>
      </trkpt>
      <trkpt lat="45.39722" lon="5.70541">
        <ele>420.1</ele>
        <time>2019-04-26T08:16:31Z</time>
      </trkpt>
      <trkpt lat="45.39721" lon="5.70536">
        <ele>420.4</ele>
        <time>2019-04-26T08:16:32Z</time>
      </trkpt>
      <trkpt lat="45.3972" lon="5.70528">
        <ele>420.9</ele>
        <time>2019-04-26T08:16:34Z</time>
      </trkpt>
      <trkpt lat="45.39719" lon="5.70524">
        <ele>421.1</ele>
        <time>2019-04-26T08:16:35Z</time>
      </trkpt>
      <trkpt lat="45.39719" lon="5.7052">
        <ele>421.4</ele>
        <time>2019-04-26T08:16:36Z</time>
      </trkpt>
      <trkpt lat="45.39717" lon="5.70516">
        <ele>421.6</ele>
        <time>2019-04-26T08:16:37Z</time>
      </trkpt>
      <trkpt lat="45.39715" lon="5.70511">
        <ele>421.9</ele>
        <time>2019-04-26T08:16:38Z</time>
      </trkpt>
      <trkpt lat="45.39714" lon="5.70506">
        <ele>422.2</ele>
        <time>2019-04-26T08:16:39Z</time>
      </trkpt>
      <trkpt lat="45.39712" lon="5.70501">
        <ele>422.5</ele>
        <time>2019-04-26T08:16:40Z</time>
      </trkpt>
      <trkpt lat="45.3971" lon="5.70496">
        <ele>422.7</ele>
        <time>2019-04-26T08:16:41Z</time>
      </trkpt>
      <trkpt lat="45.39709" lon="5.70493">
        <ele>422.9</ele>
        <time>2019-04-26T08:16:42Z</time>
      </trkpt>
      <trkpt lat="45.39707" lon="5.70487">
        <ele>423</ele>
        <time>2019-04-26T08:16:44Z</time>
      </trkpt>
      <trkpt lat="45.39705" lon="5.70481">
        <ele>423.3</ele>
        <time>2019-04-26T08:16:46Z</time>
      </trkpt>
      <trkpt lat="45.39703" lon="5.70478">
        <ele>423.4</ele>
        <time>2019-04-26T08:16:47Z</time>
      </trkpt>
      <trkpt lat="45.39702" lon="5.70474">
        <ele>423.6</ele>
        <time>2019-04-26T08:16:48Z</time>
      </trkpt>
      <trkpt lat="45.39699" lon="5.70471">
        <ele>423.8</ele>
        <time>2019-04-26T08:16:49Z</time>
      </trkpt>
      <trkpt lat="45.39698" lon="5.70466">
        <ele>423.9</ele>
        <time>2019-04-26T08:16:50Z</time>
      </trkpt>
      <trkpt lat="45.39696" lon="5.70463">
        <ele>424</ele>
        <time>2019-04-26T08:16:51Z</time>
      </trkpt>
      <trkpt lat="45.39694" lon="5.7046">
        <ele>424.2</ele>
        <time>2019-04-26T08:16:52Z</time>
      </trkpt>
      <trkpt lat="45.39692" lon="5.70454">
        <ele>424.5</ele>
        <time>2019-04-26T08:16:54Z</time>
      </trkpt>
      <trkpt lat="45.39689" lon="5.70448">
        <ele>424.8</ele>
        <time>2019-04-26T08:16:56Z</time>
      </trkpt>
      <trkpt lat="45.39687" lon="5.70442">
        <ele>425</ele>
        <time>2019-04-26T08:16:58Z</time>
      </trkpt>
      <trkpt lat="45.39686" lon="5.70436">
        <ele>425.2</ele>
        <time>2019-04-26T08:17:00Z</time>
      </trkpt>
      <trkpt lat="45.39683" lon="5.70432">
        <ele>425.5</ele>
        <time>2019-04-26T08:17:02Z</time>
      </trkpt>
      <trkpt lat="45.39682" lon="5.70426">
        <ele>425.7</ele>
        <time>2019-04-26T08:17:04Z</time>
      </trkpt>
      <trkpt lat="45.3968" lon="5.70421">
        <ele>425.8</ele>
        <time>2019-04-26T08:17:05Z</time>
      </trkpt>
      <trkpt lat="45.39679" lon="5.70416">
        <ele>426</ele>
        <time>2019-04-26T08:17:06Z</time>
      </trkpt>
      <trkpt lat="45.39678" lon="5.70411">
        <ele>426.2</ele>
        <time>2019-04-26T08:17:07Z</time>
      </trkpt>
      <trkpt lat="45.39678" lon="5.70406">
        <ele>426.6</ele>
        <time>2019-04-26T08:17:08Z</time>
      </trkpt>
      <trkpt lat="45.39678" lon="5.70402">
        <ele>426.9</ele>
        <time>2019-04-26T08:17:09Z</time>
      </trkpt>
      <trkpt lat="45.3968" lon="5.70395">
        <ele>427.4</ele>
        <time>2019-04-26T08:17:11Z</time>
      </trkpt>
      <trkpt lat="45.3968" lon="5.70391">
        <ele>427.7</ele>
        <time>2019-04-26T08:17:12Z</time>
      </trkpt>
      <trkpt lat="45.39682" lon="5.70385">
        <ele>428</ele>
        <time>2019-04-26T08:17:13Z</time>
      </trkpt>
      <trkpt lat="45.39685" lon="5.70379">
        <ele>428.3</ele>
        <time>2019-04-26T08:17:14Z</time>
      </trkpt>
      <trkpt lat="45.39687" lon="5.70374">
        <ele>428.5</ele>
        <time>2019-04-26T08:17:15Z</time>
      </trkpt>
      <trkpt lat="45.39689" lon="5.70369">
        <ele>428.6</ele>
        <time>2019-04-26T08:17:16Z</time>
      </trkpt>
      <trkpt lat="45.39689" lon="5.70365">
        <ele>428.7</ele>
        <time>2019-04-26T08:17:18Z</time>
      </trkpt>
      <trkpt lat="45.39691" lon="5.70361">
        <ele>428.8</ele>
        <time>2019-04-26T08:17:20Z</time>
      </trkpt>
      <trkpt lat="45.39692" lon="5.70354">
        <ele>428.8</ele>
        <time>2019-04-26T08:17:22Z</time>
      </trkpt>
      <trkpt lat="45.39693" lon="5.7035">
        <ele>428.8</ele>
        <time>2019-04-26T08:17:23Z</time>
      </trkpt>
      <trkpt lat="45.39691" lon="5.70342">
        <ele>428.7</ele>
        <time>2019-04-26T08:17:25Z</time>
      </trkpt>
      <trkpt lat="45.39689" lon="5.70338">
        <ele>428.7</ele>
        <time>2019-04-26T08:17:26Z</time>
      </trkpt>
      <trkpt lat="45.39687" lon="5.70335">
        <ele>428.6</ele>
        <time>2019-04-26T08:17:27Z</time>
      </trkpt>
      <trkpt lat="45.39684" lon="5.70332">
        <ele>428.5</ele>
        <time>2019-04-26T08:17:28Z</time>
      </trkpt>
      <trkpt lat="45.39682" lon="5.7033">
        <ele>428.4</ele>
        <time>2019-04-26T08:17:29Z</time>
      </trkpt>
      <trkpt lat="45.39679" lon="5.70327">
        <ele>428.3</ele>
        <time>2019-04-26T08:17:30Z</time>
      </trkpt>
      <trkpt lat="45.39677" lon="5.70325">
        <ele>428.2</ele>
        <time>2019-04-26T08:17:31Z</time>
      </trkpt>
      <trkpt lat="45.39675" lon="5.70321">
        <ele>428.2</ele>
        <time>2019-04-26T08:17:33Z</time>
      </trkpt>
      <trkpt lat="45.39675" lon="5.70315">
        <ele>428.2</ele>
        <time>2019-04-26T08:18:02Z</time>
      </trkpt>
      <trkpt lat="45.39671" lon="5.70314">
        <ele>428.2</ele>
        <time>2019-04-26T08:19:43Z</time>
      </trkpt>
      <trkpt lat="45.39669" lon="5.70311">
        <ele>428.2</ele>
        <time>2019-04-26T08:19:45Z</time>
      </trkpt>
      <trkpt lat="45.39666" lon="5.70306">
        <ele>428.2</ele>
        <time>2019-04-26T08:19:47Z</time>
      </trkpt>
      <trkpt lat="45.39664" lon="5.70301">
        <ele>428.2</ele>
        <time>2019-04-26T08:19:49Z</time>
      </trkpt>
      <trkpt lat="45.39661" lon="5.70296">
        <ele>428.2</ele>
        <time>2019-04-26T08:19:51Z</time>
      </trkpt>
      <trkpt lat="45.39658" lon="5.70291">
        <ele>428.3</ele>
        <time>2019-04-26T08:19:53Z</time>
      </trkpt>
      <trkpt lat="45.39655" lon="5.70288">
        <ele>428.3</ele>
        <time>2019-04-26T08:19:55Z</time>
      </trkpt>
      <trkpt lat="45.39653" lon="5.70284">
        <ele>428.3</ele>
        <time>2019-04-26T08:19:57Z</time>
      </trkpt>
      <trkpt lat="45.39649" lon="5.70279">
        <ele>428.4</ele>
        <time>2019-04-26T08:19:59Z</time>
      </trkpt>
      <trkpt lat="45.39646" lon="5.70272">
        <ele>428.5</ele>
        <time>2019-04-26T08:20:01Z</time>
      </trkpt>
      <trkpt lat="45.39644" lon="5.70269">
        <ele>428.6</ele>
        <time>2019-04-26T08:20:02Z</time>
      </trkpt>
      <trkpt lat="45.39642" lon="5.70265">
        <ele>428.7</ele>
        <time>2019-04-26T08:20:03Z</time>
      </trkpt>
      <trkpt lat="45.3964" lon="5.70261">
        <ele>428.8</ele>
        <time>2019-04-26T08:20:04Z</time>
      </trkpt>
      <trkpt lat="45.39638" lon="5.70258">
        <ele>428.9</ele>
        <time>2019-04-26T08:20:05Z</time>
      </trkpt>
      <trkpt lat="45.39636" lon="5.70254">
        <ele>429</ele>
        <time>2019-04-26T08:20:06Z</time>
      </trkpt>
      <trkpt lat="45.39634" lon="5.70251">
        <ele>429.2</ele>
        <time>2019-04-26T08:20:07Z</time>
      </trkpt>
      <trkpt lat="45.39631" lon="5.70245">
        <ele>429.4</ele>
        <time>2019-04-26T08:20:09Z</time>
      </trkpt>
      <trkpt lat="45.39629" lon="5.70242">
        <ele>429.6</ele>
        <time>2019-04-26T08:20:10Z</time>
      </trkpt>
      <trkpt lat="45.39628" lon="5.70238">
        <ele>429.8</ele>
        <time>2019-04-26T08:20:11Z</time>
      </trkpt>
      <trkpt lat="45.39627" lon="5.70235">
        <ele>430</ele>
        <time>2019-04-26T08:20:12Z</time>
      </trkpt>
      <trkpt lat="45.39624" lon="5.70229">
        <ele>430.4</ele>
        <time>2019-04-26T08:20:14Z</time>
      </trkpt>
      <trkpt lat="45.39622" lon="5.70223">
        <ele>430.8</ele>
        <time>2019-04-26T08:20:16Z</time>
      </trkpt>
      <trkpt lat="45.3962" lon="5.70218">
        <ele>431.3</ele>
        <time>2019-04-26T08:20:18Z</time>
      </trkpt>
      <trkpt lat="45.39618" lon="5.70212">
        <ele>431.7</ele>
        <time>2019-04-26T08:20:20Z</time>
      </trkpt>
      <trkpt lat="45.39615" lon="5.70206">
        <ele>432.1</ele>
        <time>2019-04-26T08:20:22Z</time>
      </trkpt>
      <trkpt lat="45.39614" lon="5.70202">
        <ele>432.4</ele>
        <time>2019-04-26T08:20:23Z</time>
      </trkpt>
      <trkpt lat="45.39611" lon="5.70196">
        <ele>432.9</ele>
        <time>2019-04-26T08:20:25Z</time>
      </trkpt>
      <trkpt lat="45.3961" lon="5.70192">
        <ele>433.1</ele>
        <time>2019-04-26T08:20:26Z</time>
      </trkpt>
      <trkpt lat="45.39608" lon="5.70188">
        <ele>433.5</ele>
        <time>2019-04-26T08:20:28Z</time>
      </trkpt>
      <trkpt lat="45.39605" lon="5.7018">
        <ele>434</ele>
        <time>2019-04-26T08:20:30Z</time>
      </trkpt>
      <trkpt lat="45.39604" lon="5.70176">
        <ele>434.2</ele>
        <time>2019-04-26T08:20:31Z</time>
      </trkpt>
      <trkpt lat="45.39603" lon="5.70172">
        <ele>434.5</ele>
        <time>2019-04-26T08:20:32Z</time>
      </trkpt>
      <trkpt lat="45.39602" lon="5.70169">
        <ele>434.7</ele>
        <time>2019-04-26T08:20:33Z</time>
      </trkpt>
      <trkpt lat="45.39601" lon="5.70165">
        <ele>434.9</ele>
        <time>2019-04-26T08:20:34Z</time>
      </trkpt>
      <trkpt lat="45.39598" lon="5.70159">
        <ele>435.4</ele>
        <time>2019-04-26T08:20:36Z</time>
      </trkpt>
      <trkpt lat="45.39596" lon="5.70153">
        <ele>435.7</ele>
        <time>2019-04-26T08:20:38Z</time>
      </trkpt>
      <trkpt lat="45.39594" lon="5.70147">
        <ele>436</ele>
        <time>2019-04-26T08:20:40Z</time>
      </trkpt>
      <trkpt lat="45.39591" lon="5.70141">
        <ele>436.3</ele>
        <time>2019-04-26T08:20:42Z</time>
      </trkpt>
      <trkpt lat="45.39588" lon="5.70137">
        <ele>436.6</ele>
        <time>2019-04-26T08:20:44Z</time>
      </trkpt>
      <trkpt lat="45.39586" lon="5.70132">
        <ele>436.9</ele>
        <time>2019-04-26T08:20:46Z</time>
      </trkpt>
      <trkpt lat="45.39584" lon="5.70128">
        <ele>437.1</ele>
        <time>2019-04-26T08:20:48Z</time>
      </trkpt>
      <trkpt lat="45.39583" lon="5.70123">
        <ele>437.3</ele>
        <time>2019-04-26T08:20:50Z</time>
      </trkpt>
      <trkpt lat="45.39581" lon="5.70117">
        <ele>437.6</ele>
        <time>2019-04-26T08:20:52Z</time>
      </trkpt>
      <trkpt lat="45.39579" lon="5.70112">
        <ele>437.9</ele>
        <time>2019-04-26T08:20:54Z</time>
      </trkpt>
      <trkpt lat="45.39576" lon="5.70106">
        <ele>438.3</ele>
        <time>2019-04-26T08:20:56Z</time>
      </trkpt>
      <trkpt lat="45.39573" lon="5.70098">
        <ele>438.8</ele>
        <time>2019-04-26T08:20:58Z</time>
      </trkpt>
      <trkpt lat="45.39571" lon="5.70094">
        <ele>439.1</ele>
        <time>2019-04-26T08:20:59Z</time>
      </trkpt>
      <trkpt lat="45.39569" lon="5.7009">
        <ele>439.4</ele>
        <time>2019-04-26T08:21:00Z</time>
      </trkpt>
      <trkpt lat="45.39566" lon="5.70087">
        <ele>439.6</ele>
        <time>2019-04-26T08:21:01Z</time>
      </trkpt>
      <trkpt lat="45.39564" lon="5.70084">
        <ele>439.8</ele>
        <time>2019-04-26T08:21:02Z</time>
      </trkpt>
      <trkpt lat="45.39561" lon="5.70082">
        <ele>440</ele>
        <time>2019-04-26T08:21:03Z</time>
      </trkpt>
      <trkpt lat="45.39559" lon="5.70078">
        <ele>440.2</ele>
        <time>2019-04-26T08:21:04Z</time>
      </trkpt>
      <trkpt lat="45.39557" lon="5.70076">
        <ele>440.4</ele>
        <time>2019-04-26T08:21:05Z</time>
      </trkpt>
      <trkpt lat="45.39554" lon="5.70072">
        <ele>440.8</ele>
        <time>2019-04-26T08:21:07Z</time>
      </trkpt>
      <trkpt lat="45.39551" lon="5.7007">
        <ele>441.1</ele>
        <time>2019-04-26T08:21:09Z</time>
      </trkpt>
      <trkpt lat="45.39548" lon="5.70067">
        <ele>441.4</ele>
        <time>2019-04-26T08:21:12Z</time>
      </trkpt>
      <trkpt lat="45.39545" lon="5.70063">
        <ele>441.7</ele>
        <time>2019-04-26T08:21:15Z</time>
      </trkpt>
      <trkpt lat="45.39541" lon="5.70059">
        <ele>442</ele>
        <time>2019-04-26T08:21:17Z</time>
      </trkpt>
      <trkpt lat="45.39539" lon="5.70057">
        <ele>442.3</ele>
        <time>2019-04-26T08:21:18Z</time>
      </trkpt>
      <trkpt lat="45.39537" lon="5.70054">
        <ele>442.5</ele>
        <time>2019-04-26T08:21:19Z</time>
      </trkpt>
      <trkpt lat="45.39534" lon="5.70051">
        <ele>442.7</ele>
        <time>2019-04-26T08:21:20Z</time>
      </trkpt>
      <trkpt lat="45.39531" lon="5.70046">
        <ele>443.1</ele>
        <time>2019-04-26T08:21:22Z</time>
      </trkpt>
      <trkpt lat="45.39528" lon="5.70042">
        <ele>443.4</ele>
        <time>2019-04-26T08:21:24Z</time>
      </trkpt>
      <trkpt lat="45.39526" lon="5.70039">
        <ele>443.7</ele>
        <time>2019-04-26T08:21:27Z</time>
      </trkpt>
      <trkpt lat="45.39523" lon="5.70034">
        <ele>444</ele>
        <time>2019-04-26T08:21:30Z</time>
      </trkpt>
      <trkpt lat="45.39522" lon="5.7003">
        <ele>444.3</ele>
        <time>2019-04-26T08:21:32Z</time>
      </trkpt>
      <trkpt lat="45.39519" lon="5.70024">
        <ele>444.7</ele>
        <time>2019-04-26T08:21:34Z</time>
      </trkpt>
      <trkpt lat="45.39517" lon="5.70019">
        <ele>445</ele>
        <time>2019-04-26T08:21:36Z</time>
      </trkpt>
      <trkpt lat="45.39515" lon="5.70016">
        <ele>445.2</ele>
        <time>2019-04-26T08:21:37Z</time>
      </trkpt>
      <trkpt lat="45.39513" lon="5.70013">
        <ele>445.4</ele>
        <time>2019-04-26T08:21:38Z</time>
      </trkpt>
      <trkpt lat="45.3951" lon="5.70008">
        <ele>445.7</ele>
        <time>2019-04-26T08:21:40Z</time>
      </trkpt>
      <trkpt lat="45.39507" lon="5.70004">
        <ele>446</ele>
        <time>2019-04-26T08:21:42Z</time>
      </trkpt>
      <trkpt lat="45.39505" lon="5.7">
        <ele>446.3</ele>
        <time>2019-04-26T08:21:44Z</time>
      </trkpt>
      <trkpt lat="45.39502" lon="5.69995">
        <ele>446.7</ele>
        <time>2019-04-26T08:21:46Z</time>
      </trkpt>
      <trkpt lat="45.39499" lon="5.69991">
        <ele>447</ele>
        <time>2019-04-26T08:21:48Z</time>
      </trkpt>
      <trkpt lat="45.39496" lon="5.69986">
        <ele>447.3</ele>
        <time>2019-04-26T08:21:50Z</time>
      </trkpt>
      <trkpt lat="45.39493" lon="5.69979">
        <ele>447.7</ele>
        <time>2019-04-26T08:21:52Z</time>
      </trkpt>
      <trkpt lat="45.39492" lon="5.69975">
        <ele>447.9</ele>
        <time>2019-04-26T08:21:53Z</time>
      </trkpt>
      <trkpt lat="45.3949" lon="5.69972">
        <ele>448.2</ele>
        <time>2019-04-26T08:21:54Z</time>
      </trkpt>
      <trkpt lat="45.39488" lon="5.69968">
        <ele>448.4</ele>
        <time>2019-04-26T08:21:55Z</time>
      </trkpt>
      <trkpt lat="45.39486" lon="5.69962">
        <ele>448.9</ele>
        <time>2019-04-26T08:21:57Z</time>
      </trkpt>
      <trkpt lat="45.39482" lon="5.69955">
        <ele>449.3</ele>
        <time>2019-04-26T08:21:59Z</time>
      </trkpt>
      <trkpt lat="45.39482" lon="5.69951">
        <ele>449.6</ele>
        <time>2019-04-26T08:22:01Z</time>
      </trkpt>
      <trkpt lat="45.3948" lon="5.69945">
        <ele>450</ele>
        <time>2019-04-26T08:22:03Z</time>
      </trkpt>
      <trkpt lat="45.39479" lon="5.69939">
        <ele>450.3</ele>
        <time>2019-04-26T08:22:05Z</time>
      </trkpt>
      <trkpt lat="45.39478" lon="5.69935">
        <ele>450.5</ele>
        <time>2019-04-26T08:22:07Z</time>
      </trkpt>
      <trkpt lat="45.39478" lon="5.6993">
        <ele>450.7</ele>
        <time>2019-04-26T08:22:09Z</time>
      </trkpt>
      <trkpt lat="45.39477" lon="5.69925">
        <ele>451</ele>
        <time>2019-04-26T08:22:11Z</time>
      </trkpt>
      <trkpt lat="45.39476" lon="5.69918">
        <ele>451.4</ele>
        <time>2019-04-26T08:22:13Z</time>
      </trkpt>
      <trkpt lat="45.39475" lon="5.69914">
        <ele>451.7</ele>
        <time>2019-04-26T08:22:14Z</time>
      </trkpt>
      <trkpt lat="45.39474" lon="5.6991">
        <ele>452</ele>
        <time>2019-04-26T08:22:15Z</time>
      </trkpt>
      <trkpt lat="45.39473" lon="5.69907">
        <ele>452.3</ele>
        <time>2019-04-26T08:22:16Z</time>
      </trkpt>
      <trkpt lat="45.39469" lon="5.69902">
        <ele>452.9</ele>
        <time>2019-04-26T08:22:18Z</time>
      </trkpt>
      <trkpt lat="45.39465" lon="5.69902">
        <ele>453.4</ele>
        <time>2019-04-26T08:22:20Z</time>
      </trkpt>
      <trkpt lat="45.39461" lon="5.69902">
        <ele>453.8</ele>
        <time>2019-04-26T08:22:21Z</time>
      </trkpt>
      <trkpt lat="45.39457" lon="5.69904">
        <ele>454.3</ele>
        <time>2019-04-26T08:22:23Z</time>
      </trkpt>
      <trkpt lat="45.39453" lon="5.69906">
        <ele>454.7</ele>
        <time>2019-04-26T08:22:25Z</time>
      </trkpt>
      <trkpt lat="45.3945" lon="5.69909">
        <ele>455.2</ele>
        <time>2019-04-26T08:22:28Z</time>
      </trkpt>
      <trkpt lat="45.39446" lon="5.69908">
        <ele>455.4</ele>
        <time>2019-04-26T08:22:31Z</time>
      </trkpt>
      <trkpt lat="45.39441" lon="5.69906">
        <ele>455.8</ele>
        <time>2019-04-26T08:22:33Z</time>
      </trkpt>
      <trkpt lat="45.39437" lon="5.69902">
        <ele>456.1</ele>
        <time>2019-04-26T08:22:35Z</time>
      </trkpt>
      <trkpt lat="45.39433" lon="5.69898">
        <ele>456.4</ele>
        <time>2019-04-26T08:22:37Z</time>
      </trkpt>
      <trkpt lat="45.39429" lon="5.69894">
        <ele>456.7</ele>
        <time>2019-04-26T08:22:39Z</time>
      </trkpt>
      <trkpt lat="45.39425" lon="5.69889">
        <ele>457</ele>
        <time>2019-04-26T08:22:41Z</time>
      </trkpt>
      <trkpt lat="45.39423" lon="5.69884">
        <ele>457.2</ele>
        <time>2019-04-26T08:22:43Z</time>
      </trkpt>
      <trkpt lat="45.39419" lon="5.6988">
        <ele>457.4</ele>
        <time>2019-04-26T08:22:45Z</time>
      </trkpt>
      <trkpt lat="45.39416" lon="5.69875">
        <ele>457.6</ele>
        <time>2019-04-26T08:22:47Z</time>
      </trkpt>
      <trkpt lat="45.39413" lon="5.6987">
        <ele>457.8</ele>
        <time>2019-04-26T08:22:49Z</time>
      </trkpt>
      <trkpt lat="45.39411" lon="5.69864">
        <ele>458.1</ele>
        <time>2019-04-26T08:22:51Z</time>
      </trkpt>
      <trkpt lat="45.39409" lon="5.69859">
        <ele>458.4</ele>
        <time>2019-04-26T08:22:54Z</time>
      </trkpt>
      <trkpt lat="45.39407" lon="5.69855">
        <ele>458.5</ele>
        <time>2019-04-26T08:22:56Z</time>
      </trkpt>
      <trkpt lat="45.3941" lon="5.69854">
        <ele>458.6</ele>
        <time>2019-04-26T08:23:13Z</time>
      </trkpt>
      <trkpt lat="45.39408" lon="5.6985">
        <ele>458.7</ele>
        <time>2019-04-26T08:23:30Z</time>
      </trkpt>
      <trkpt lat="45.39404" lon="5.69846">
        <ele>458.8</ele>
        <time>2019-04-26T08:23:32Z</time>
      </trkpt>
      <trkpt lat="45.394" lon="5.69842">
        <ele>458.9</ele>
        <time>2019-04-26T08:23:34Z</time>
      </trkpt>
      <trkpt lat="45.39397" lon="5.69839">
        <ele>459</ele>
        <time>2019-04-26T08:23:36Z</time>
      </trkpt>
      <trkpt lat="45.39394" lon="5.69835">
        <ele>459.1</ele>
        <time>2019-04-26T08:23:38Z</time>
      </trkpt>
      <trkpt lat="45.39391" lon="5.69832">
        <ele>459.2</ele>
        <time>2019-04-26T08:23:40Z</time>
      </trkpt>
      <trkpt lat="45.39389" lon="5.69828">
        <ele>459.3</ele>
        <time>2019-04-26T08:23:42Z</time>
      </trkpt>
      <trkpt lat="45.39386" lon="5.69824">
        <ele>459.4</ele>
        <time>2019-04-26T08:23:44Z</time>
      </trkpt>
      <trkpt lat="45.39384" lon="5.6982">
        <ele>459.4</ele>
        <time>2019-04-26T08:23:46Z</time>
      </trkpt>
      <trkpt lat="45.39382" lon="5.69816">
        <ele>459.5</ele>
        <time>2019-04-26T08:23:48Z</time>
      </trkpt>
      <trkpt lat="45.3938" lon="5.69811">
        <ele>459.5</ele>
        <time>2019-04-26T08:23:50Z</time>
      </trkpt>
      <trkpt lat="45.39377" lon="5.69805">
        <ele>459.6</ele>
        <time>2019-04-26T08:23:52Z</time>
      </trkpt>
      <trkpt lat="45.39373" lon="5.698">
        <ele>459.7</ele>
        <time>2019-04-26T08:23:54Z</time>
      </trkpt>
      <trkpt lat="45.39371" lon="5.69796">
        <ele>459.7</ele>
        <time>2019-04-26T08:23:56Z</time>
      </trkpt>
      <trkpt lat="45.39369" lon="5.69793">
        <ele>459.8</ele>
        <time>2019-04-26T08:23:58Z</time>
      </trkpt>
      <trkpt lat="45.39367" lon="5.6979">
        <ele>459.8</ele>
        <time>2019-04-26T08:24:16Z</time>
      </trkpt>
      <trkpt lat="45.39365" lon="5.69786">
        <ele>460.1</ele>
        <time>2019-04-26T08:24:18Z</time>
      </trkpt>
      <trkpt lat="45.39364" lon="5.69781">
        <ele>460.3</ele>
        <time>2019-04-26T08:24:20Z</time>
      </trkpt>
      <trkpt lat="45.39364" lon="5.69775">
        <ele>460.5</ele>
        <time>2019-04-26T08:24:23Z</time>
      </trkpt>
      <trkpt lat="45.39364" lon="5.69771">
        <ele>460.6</ele>
        <time>2019-04-26T08:24:25Z</time>
      </trkpt>
      <trkpt lat="45.39361" lon="5.69767">
        <ele>460.9</ele>
        <time>2019-04-26T08:24:27Z</time>
      </trkpt>
      <trkpt lat="45.39359" lon="5.69762">
        <ele>461.2</ele>
        <time>2019-04-26T08:24:29Z</time>
      </trkpt>
      <trkpt lat="45.39356" lon="5.69757">
        <ele>461.6</ele>
        <time>2019-04-26T08:24:31Z</time>
      </trkpt>
      <trkpt lat="45.39353" lon="5.69751">
        <ele>462</ele>
        <time>2019-04-26T08:24:33Z</time>
      </trkpt>
      <trkpt lat="45.39351" lon="5.69746">
        <ele>462.4</ele>
        <time>2019-04-26T08:24:35Z</time>
      </trkpt>
      <trkpt lat="45.39348" lon="5.69741">
        <ele>462.8</ele>
        <time>2019-04-26T08:24:37Z</time>
      </trkpt>
      <trkpt lat="45.39346" lon="5.69737">
        <ele>463.1</ele>
        <time>2019-04-26T08:24:39Z</time>
      </trkpt>
      <trkpt lat="45.39345" lon="5.69733">
        <ele>463.3</ele>
        <time>2019-04-26T08:24:41Z</time>
      </trkpt>
      <trkpt lat="45.39344" lon="5.69728">
        <ele>463.6</ele>
        <time>2019-04-26T08:24:43Z</time>
      </trkpt>
      <trkpt lat="45.39342" lon="5.69722">
        <ele>463.9</ele>
        <time>2019-04-26T08:24:45Z</time>
      </trkpt>
      <trkpt lat="45.39341" lon="5.69716">
        <ele>464.3</ele>
        <time>2019-04-26T08:24:47Z</time>
      </trkpt>
      <trkpt lat="45.3934" lon="5.69712">
        <ele>464.6</ele>
        <time>2019-04-26T08:24:48Z</time>
      </trkpt>
      <trkpt lat="45.39338" lon="5.69705">
        <ele>465.2</ele>
        <time>2019-04-26T08:24:50Z</time>
      </trkpt>
      <trkpt lat="45.39337" lon="5.69699">
        <ele>465.6</ele>
        <time>2019-04-26T08:24:52Z</time>
      </trkpt>
      <trkpt lat="45.39337" lon="5.69693">
        <ele>465.9</ele>
        <time>2019-04-26T08:24:54Z</time>
      </trkpt>
      <trkpt lat="45.39336" lon="5.69689">
        <ele>466.3</ele>
        <time>2019-04-26T08:24:56Z</time>
      </trkpt>
      <trkpt lat="45.39335" lon="5.69684">
        <ele>466.7</ele>
        <time>2019-04-26T08:24:58Z</time>
      </trkpt>
      <trkpt lat="45.39334" lon="5.6968">
        <ele>467</ele>
        <time>2019-04-26T08:25:00Z</time>
      </trkpt>
      <trkpt lat="45.39333" lon="5.69676">
        <ele>467.3</ele>
        <time>2019-04-26T08:25:03Z</time>
      </trkpt>
      <trkpt lat="45.39336" lon="5.69675">
        <ele>467.6</ele>
        <time>2019-04-26T08:25:10Z</time>
      </trkpt>
      <trkpt lat="45.3934" lon="5.69676">
        <ele>468</ele>
        <time>2019-04-26T08:25:15Z</time>
      </trkpt>
      <trkpt lat="45.39345" lon="5.69674">
        <ele>468.7</ele>
        <time>2019-04-26T08:25:56Z</time>
      </trkpt>
      <trkpt lat="45.39345" lon="5.6967">
        <ele>469</ele>
        <time>2019-04-26T08:25:59Z</time>
      </trkpt>
      <trkpt lat="45.39343" lon="5.69665">
        <ele>469.3</ele>
        <time>2019-04-26T08:26:01Z</time>
      </trkpt>
      <trkpt lat="45.39342" lon="5.6966">
        <ele>469.6</ele>
        <time>2019-04-26T08:26:03Z</time>
      </trkpt>
      <trkpt lat="45.39341" lon="5.69657">
        <ele>469.9</ele>
        <time>2019-04-26T08:26:05Z</time>
      </trkpt>
      <trkpt lat="45.39339" lon="5.69653">
        <ele>470.3</ele>
        <time>2019-04-26T08:26:07Z</time>
      </trkpt>
      <trkpt lat="45.39337" lon="5.69649">
        <ele>470.8</ele>
        <time>2019-04-26T08:26:09Z</time>
      </trkpt>
      <trkpt lat="45.39335" lon="5.69646">
        <ele>471.2</ele>
        <time>2019-04-26T08:26:11Z</time>
      </trkpt>
      <trkpt lat="45.39333" lon="5.69643">
        <ele>471.5</ele>
        <time>2019-04-26T08:26:13Z</time>
      </trkpt>
      <trkpt lat="45.39331" lon="5.69639">
        <ele>471.9</ele>
        <time>2019-04-26T08:26:15Z</time>
      </trkpt>
      <trkpt lat="45.39329" lon="5.69635">
        <ele>472.3</ele>
        <time>2019-04-26T08:26:17Z</time>
      </trkpt>
      <trkpt lat="45.39329" lon="5.6963">
        <ele>472.8</ele>
        <time>2019-04-26T08:26:19Z</time>
      </trkpt>
      <trkpt lat="45.3933" lon="5.69624">
        <ele>473.2</ele>
        <time>2019-04-26T08:26:21Z</time>
      </trkpt>
      <trkpt lat="45.3933" lon="5.69618">
        <ele>473.7</ele>
        <time>2019-04-26T08:26:23Z</time>
      </trkpt>
      <trkpt lat="45.3933" lon="5.69611">
        <ele>474.2</ele>
        <time>2019-04-26T08:26:25Z</time>
      </trkpt>
      <trkpt lat="45.3933" lon="5.69604">
        <ele>474.7</ele>
        <time>2019-04-26T08:26:27Z</time>
      </trkpt>
      <trkpt lat="45.3933" lon="5.69598">
        <ele>475.1</ele>
        <time>2019-04-26T08:26:29Z</time>
      </trkpt>
      <trkpt lat="45.39329" lon="5.69592">
        <ele>475.4</ele>
        <time>2019-04-26T08:26:31Z</time>
      </trkpt>
      <trkpt lat="45.39328" lon="5.69589">
        <ele>475.7</ele>
        <time>2019-04-26T08:26:35Z</time>
      </trkpt>
      <trkpt lat="45.39328" lon="5.69584">
        <ele>476</ele>
        <time>2019-04-26T08:27:02Z</time>
      </trkpt>
      <trkpt lat="45.39327" lon="5.69579">
        <ele>476.3</ele>
        <time>2019-04-26T08:27:05Z</time>
      </trkpt>
      <trkpt lat="45.39327" lon="5.69575">
        <ele>476.6</ele>
        <time>2019-04-26T08:27:07Z</time>
      </trkpt>
      <trkpt lat="45.39327" lon="5.6957">
        <ele>477</ele>
        <time>2019-04-26T08:27:10Z</time>
      </trkpt>
      <trkpt lat="45.39325" lon="5.69566">
        <ele>477.4</ele>
        <time>2019-04-26T08:27:13Z</time>
      </trkpt>
      <trkpt lat="45.39324" lon="5.69562">
        <ele>477.8</ele>
        <time>2019-04-26T08:27:15Z</time>
      </trkpt>
      <trkpt lat="45.39322" lon="5.69558">
        <ele>478.1</ele>
        <time>2019-04-26T08:27:17Z</time>
      </trkpt>
      <trkpt lat="45.39322" lon="5.69554">
        <ele>478.5</ele>
        <time>2019-04-26T08:27:27Z</time>
      </trkpt>
      <trkpt lat="45.39321" lon="5.69546">
        <ele>479.2</ele>
        <time>2019-04-26T08:27:43Z</time>
      </trkpt>
      <trkpt lat="45.39319" lon="5.69542">
        <ele>479.6</ele>
        <time>2019-04-26T08:27:46Z</time>
      </trkpt>
      <trkpt lat="45.39317" lon="5.69538">
        <ele>480</ele>
        <time>2019-04-26T08:27:49Z</time>
      </trkpt>
      <trkpt lat="45.39316" lon="5.69534">
        <ele>480.3</ele>
        <time>2019-04-26T08:27:52Z</time>
      </trkpt>
      <trkpt lat="45.39315" lon="5.69529">
        <ele>480.8</ele>
        <time>2019-04-26T08:27:55Z</time>
      </trkpt>
      <trkpt lat="45.39315" lon="5.69524">
        <ele>481.2</ele>
        <time>2019-04-26T08:27:58Z</time>
      </trkpt>
      <trkpt lat="45.39312" lon="5.6952">
        <ele>481.7</ele>
        <time>2019-04-26T08:28:01Z</time>
      </trkpt>
      <trkpt lat="45.39311" lon="5.69516">
        <ele>482.2</ele>
        <time>2019-04-26T08:28:04Z</time>
      </trkpt>
      <trkpt lat="45.39311" lon="5.69512">
        <ele>482.7</ele>
        <time>2019-04-26T08:28:07Z</time>
      </trkpt>
      <trkpt lat="45.39309" lon="5.69508">
        <ele>483.1</ele>
        <time>2019-04-26T08:28:10Z</time>
      </trkpt>
      <trkpt lat="45.3931" lon="5.69503">
        <ele>483.4</ele>
        <time>2019-04-26T08:28:14Z</time>
      </trkpt>
      <trkpt lat="45.3931" lon="5.69499">
        <ele>483.7</ele>
        <time>2019-04-26T08:28:16Z</time>
      </trkpt>
      <trkpt lat="45.39311" lon="5.69494">
        <ele>484</ele>
        <time>2019-04-26T08:28:19Z</time>
      </trkpt>
      <trkpt lat="45.39311" lon="5.69489">
        <ele>484.4</ele>
        <time>2019-04-26T08:28:22Z</time>
      </trkpt>
      <trkpt lat="45.39311" lon="5.69483">
        <ele>484.9</ele>
        <time>2019-04-26T08:28:25Z</time>
      </trkpt>
      <trkpt lat="45.39312" lon="5.69478">
        <ele>485.3</ele>
        <time>2019-04-26T08:28:28Z</time>
      </trkpt>
      <trkpt lat="45.39313" lon="5.69474">
        <ele>485.7</ele>
        <time>2019-04-26T08:28:31Z</time>
      </trkpt>
      <trkpt lat="45.39314" lon="5.6947">
        <ele>486</ele>
        <time>2019-04-26T08:28:34Z</time>
      </trkpt>
      <trkpt lat="45.39316" lon="5.69465">
        <ele>486.4</ele>
        <time>2019-04-26T08:28:37Z</time>
      </trkpt>
      <trkpt lat="45.39319" lon="5.69464">
        <ele>486.7</ele>
        <time>2019-04-26T08:28:39Z</time>
      </trkpt>
      <trkpt lat="45.39322" lon="5.69461">
        <ele>487</ele>
        <time>2019-04-26T08:28:42Z</time>
      </trkpt>
      <trkpt lat="45.39324" lon="5.69459">
        <ele>487.2</ele>
        <time>2019-04-26T08:28:44Z</time>
      </trkpt>
      <trkpt lat="45.39327" lon="5.69461">
        <ele>487.4</ele>
        <time>2019-04-26T08:28:47Z</time>
      </trkpt>
      <trkpt lat="45.3933" lon="5.69461">
        <ele>487.6</ele>
        <time>2019-04-26T08:28:49Z</time>
      </trkpt>
      <trkpt lat="45.39334" lon="5.69463">
        <ele>487.8</ele>
        <time>2019-04-26T08:28:51Z</time>
      </trkpt>
      <trkpt lat="45.39337" lon="5.69466">
        <ele>488.1</ele>
        <time>2019-04-26T08:28:53Z</time>
      </trkpt>
      <trkpt lat="45.39333" lon="5.6947">
        <ele>488.4</ele>
        <time>2019-04-26T08:29:04Z</time>
      </trkpt>
      <trkpt lat="45.39328" lon="5.69464">
        <ele>489</ele>
        <time>2019-04-26T08:29:20Z</time>
      </trkpt>
      <trkpt lat="45.3933" lon="5.69461">
        <ele>489.4</ele>
        <time>2019-04-26T08:29:25Z</time>
      </trkpt>
      <trkpt lat="45.39333" lon="5.69463">
        <ele>489.9</ele>
        <time>2019-04-26T08:29:30Z</time>
      </trkpt>
      <trkpt lat="45.39335" lon="5.69466">
        <ele>490.3</ele>
        <time>2019-04-26T08:29:32Z</time>
      </trkpt>
      <trkpt lat="45.39337" lon="5.6947">
        <ele>490.6</ele>
        <time>2019-04-26T08:29:34Z</time>
      </trkpt>
      <trkpt lat="45.39339" lon="5.69474">
        <ele>491</ele>
        <time>2019-04-26T08:29:36Z</time>
      </trkpt>
      <trkpt lat="45.39342" lon="5.69479">
        <ele>491.5</ele>
        <time>2019-04-26T08:29:38Z</time>
      </trkpt>
      <trkpt lat="45.39344" lon="5.69484">
        <ele>492.1</ele>
        <time>2019-04-26T08:29:40Z</time>
      </trkpt>
      <trkpt lat="45.39346" lon="5.69488">
        <ele>492.6</ele>
        <time>2019-04-26T08:29:42Z</time>
      </trkpt>
      <trkpt lat="45.39349" lon="5.69491">
        <ele>493.1</ele>
        <time>2019-04-26T08:29:45Z</time>
      </trkpt>
      <trkpt lat="45.39352" lon="5.69493">
        <ele>493.5</ele>
        <time>2019-04-26T08:29:47Z</time>
      </trkpt>
      <trkpt lat="45.39354" lon="5.69496">
        <ele>493.9</ele>
        <time>2019-04-26T08:29:49Z</time>
      </trkpt>
      <trkpt lat="45.39357" lon="5.695">
        <ele>494.3</ele>
        <time>2019-04-26T08:29:51Z</time>
      </trkpt>
      <trkpt lat="45.3936" lon="5.69503">
        <ele>494.7</ele>
        <time>2019-04-26T08:29:53Z</time>
      </trkpt>
      <trkpt lat="45.39363" lon="5.69506">
        <ele>495.2</ele>
        <time>2019-04-26T08:29:55Z</time>
      </trkpt>
      <trkpt lat="45.39367" lon="5.69508">
        <ele>495.7</ele>
        <time>2019-04-26T08:29:57Z</time>
      </trkpt>
      <trkpt lat="45.39371" lon="5.69509">
        <ele>496.2</ele>
        <time>2019-04-26T08:29:59Z</time>
      </trkpt>
      <trkpt lat="45.39375" lon="5.6951">
        <ele>496.7</ele>
        <time>2019-04-26T08:30:01Z</time>
      </trkpt>
      <trkpt lat="45.39378" lon="5.69511">
        <ele>497.2</ele>
        <time>2019-04-26T08:30:03Z</time>
      </trkpt>
      <trkpt lat="45.39381" lon="5.69512">
        <ele>497.6</ele>
        <time>2019-04-26T08:30:16Z</time>
      </trkpt>
      <trkpt lat="45.39383" lon="5.69515">
        <ele>498</ele>
        <time>2019-04-26T08:30:25Z</time>
      </trkpt>
      <trkpt lat="45.39386" lon="5.69516">
        <ele>498.5</ele>
        <time>2019-04-26T08:30:30Z</time>
      </trkpt>
      <trkpt lat="45.39389" lon="5.69517">
        <ele>499</ele>
        <time>2019-04-26T08:30:35Z</time>
      </trkpt>
      <trkpt lat="45.39392" lon="5.69515">
        <ele>499.4</ele>
        <time>2019-04-26T08:30:39Z</time>
      </trkpt>
      <trkpt lat="45.39389" lon="5.69518">
        <ele>499.9</ele>
        <time>2019-04-26T08:30:52Z</time>
      </trkpt>
      <trkpt lat="45.39385" lon="5.69518">
        <ele>500.2</ele>
        <time>2019-04-26T08:30:55Z</time>
      </trkpt>
      <trkpt lat="45.39385" lon="5.69523">
        <ele>500.5</ele>
        <time>2019-04-26T08:31:01Z</time>
      </trkpt>
      <trkpt lat="45.39385" lon="5.69527">
        <ele>500.9</ele>
        <time>2019-04-26T08:31:09Z</time>
      </trkpt>
      <trkpt lat="45.39388" lon="5.69526">
        <ele>501.4</ele>
        <time>2019-04-26T08:31:16Z</time>
      </trkpt>
      <trkpt lat="45.39399" lon="5.69531">
        <ele>502.9</ele>
        <time>2019-04-26T08:32:40Z</time>
      </trkpt>
      <trkpt lat="45.39403" lon="5.69531">
        <ele>503.3</ele>
        <time>2019-04-26T08:32:43Z</time>
      </trkpt>
      <trkpt lat="45.39406" lon="5.69532">
        <ele>503.6</ele>
        <time>2019-04-26T08:32:45Z</time>
      </trkpt>
      <trkpt lat="45.39409" lon="5.69533">
        <ele>504.1</ele>
        <time>2019-04-26T08:32:47Z</time>
      </trkpt>
      <trkpt lat="45.39412" lon="5.69534">
        <ele>504.5</ele>
        <time>2019-04-26T08:32:50Z</time>
      </trkpt>
      <trkpt lat="45.39414" lon="5.69536">
        <ele>504.9</ele>
        <time>2019-04-26T08:32:52Z</time>
      </trkpt>
      <trkpt lat="45.39417" lon="5.69536">
        <ele>505.2</ele>
        <time>2019-04-26T08:32:55Z</time>
      </trkpt>
      <trkpt lat="45.39421" lon="5.69533">
        <ele>505.7</ele>
        <time>2019-04-26T08:32:58Z</time>
      </trkpt>
      <trkpt lat="45.39423" lon="5.69531">
        <ele>506</ele>
        <time>2019-04-26T08:33:00Z</time>
      </trkpt>
      <trkpt lat="45.39421" lon="5.69528">
        <ele>506.4</ele>
        <time>2019-04-26T08:33:05Z</time>
      </trkpt>
      <trkpt lat="45.39418" lon="5.69523">
        <ele>506.8</ele>
        <time>2019-04-26T08:33:08Z</time>
      </trkpt>
      <trkpt lat="45.39417" lon="5.6952">
        <ele>507.1</ele>
        <time>2019-04-26T08:33:11Z</time>
      </trkpt>
      <trkpt lat="45.39415" lon="5.69516">
        <ele>507.4</ele>
        <time>2019-04-26T08:33:14Z</time>
      </trkpt>
      <trkpt lat="45.39414" lon="5.69512">
        <ele>507.8</ele>
        <time>2019-04-26T08:33:17Z</time>
      </trkpt>
      <trkpt lat="45.39412" lon="5.69509">
        <ele>508.1</ele>
        <time>2019-04-26T08:33:20Z</time>
      </trkpt>
      <trkpt lat="45.39411" lon="5.69505">
        <ele>508.4</ele>
        <time>2019-04-26T08:33:24Z</time>
      </trkpt>
      <trkpt lat="45.39411" lon="5.695">
        <ele>508.8</ele>
        <time>2019-04-26T08:33:27Z</time>
      </trkpt>
      <trkpt lat="45.39408" lon="5.69497">
        <ele>509.1</ele>
        <time>2019-04-26T08:33:30Z</time>
      </trkpt>
      <trkpt lat="45.39407" lon="5.69493">
        <ele>509.5</ele>
        <time>2019-04-26T08:33:33Z</time>
      </trkpt>
      <trkpt lat="45.39407" lon="5.69488">
        <ele>509.8</ele>
        <time>2019-04-26T08:33:36Z</time>
      </trkpt>
      <trkpt lat="45.39408" lon="5.69484">
        <ele>510.2</ele>
        <time>2019-04-26T08:33:39Z</time>
      </trkpt>
      <trkpt lat="45.39409" lon="5.69479">
        <ele>510.6</ele>
        <time>2019-04-26T08:33:42Z</time>
      </trkpt>
      <trkpt lat="45.3941" lon="5.69475">
        <ele>510.9</ele>
        <time>2019-04-26T08:33:51Z</time>
      </trkpt>
      <trkpt lat="45.3941" lon="5.69471">
        <ele>511.3</ele>
        <time>2019-04-26T08:33:58Z</time>
      </trkpt>
      <trkpt lat="45.39411" lon="5.69466">
        <ele>511.6</ele>
        <time>2019-04-26T08:34:02Z</time>
      </trkpt>
      <trkpt lat="45.3941" lon="5.69462">
        <ele>511.9</ele>
        <time>2019-04-26T08:34:05Z</time>
      </trkpt>
      <trkpt lat="45.39411" lon="5.69457">
        <ele>512.2</ele>
        <time>2019-04-26T08:34:08Z</time>
      </trkpt>
      <trkpt lat="45.39411" lon="5.69452">
        <ele>512.5</ele>
        <time>2019-04-26T08:34:10Z</time>
      </trkpt>
      <trkpt lat="45.39412" lon="5.69444">
        <ele>513</ele>
        <time>2019-04-26T08:34:12Z</time>
      </trkpt>
      <trkpt lat="45.39412" lon="5.69437">
        <ele>513.4</ele>
        <time>2019-04-26T08:34:14Z</time>
      </trkpt>
      <trkpt lat="45.39412" lon="5.69431">
        <ele>513.8</ele>
        <time>2019-04-26T08:34:16Z</time>
      </trkpt>
      <trkpt lat="45.39413" lon="5.69426">
        <ele>514.1</ele>
        <time>2019-04-26T08:34:18Z</time>
      </trkpt>
      <trkpt lat="45.39413" lon="5.69422">
        <ele>514.4</ele>
        <time>2019-04-26T08:34:20Z</time>
      </trkpt>
      <trkpt lat="45.39414" lon="5.69417">
        <ele>514.7</ele>
        <time>2019-04-26T08:34:22Z</time>
      </trkpt>
      <trkpt lat="45.39415" lon="5.69412">
        <ele>515.1</ele>
        <time>2019-04-26T08:34:24Z</time>
      </trkpt>
      <trkpt lat="45.39415" lon="5.69407">
        <ele>515.6</ele>
        <time>2019-04-26T08:34:26Z</time>
      </trkpt>
      <trkpt lat="45.39414" lon="5.69403">
        <ele>516</ele>
        <time>2019-04-26T08:34:28Z</time>
      </trkpt>
      <trkpt lat="45.39414" lon="5.69398">
        <ele>516.3</ele>
        <time>2019-04-26T08:34:30Z</time>
      </trkpt>
      <trkpt lat="45.39414" lon="5.69394">
        <ele>516.7</ele>
        <time>2019-04-26T08:34:33Z</time>
      </trkpt>
      <trkpt lat="45.39414" lon="5.69388">
        <ele>517.2</ele>
        <time>2019-04-26T08:34:35Z</time>
      </trkpt>
      <trkpt lat="45.39414" lon="5.69381">
        <ele>517.7</ele>
        <time>2019-04-26T08:34:37Z</time>
      </trkpt>
      <trkpt lat="45.39415" lon="5.69376">
        <ele>518.1</ele>
        <time>2019-04-26T08:34:39Z</time>
      </trkpt>
      <trkpt lat="45.39412" lon="5.69374">
        <ele>518.3</ele>
        <time>2019-04-26T08:34:43Z</time>
      </trkpt>
      <trkpt lat="45.39412" lon="5.69368">
        <ele>518.6</ele>
        <time>2019-04-26T08:34:46Z</time>
      </trkpt>
      <trkpt lat="45.39413" lon="5.69365">
        <ele>518.8</ele>
        <time>2019-04-26T08:34:49Z</time>
      </trkpt>
      <trkpt lat="45.39413" lon="5.6936">
        <ele>519</ele>
        <time>2019-04-26T08:34:53Z</time>
      </trkpt>
      <trkpt lat="45.39413" lon="5.69355">
        <ele>519.3</ele>
        <time>2019-04-26T08:34:57Z</time>
      </trkpt>
      <trkpt lat="45.39413" lon="5.69351">
        <ele>519.6</ele>
        <time>2019-04-26T08:35:00Z</time>
      </trkpt>
      <trkpt lat="45.39412" lon="5.69347">
        <ele>519.9</ele>
        <time>2019-04-26T08:35:04Z</time>
      </trkpt>
      <trkpt lat="45.39413" lon="5.69341">
        <ele>520.3</ele>
        <time>2019-04-26T08:35:31Z</time>
      </trkpt>
      <trkpt lat="45.39413" lon="5.69337">
        <ele>520.7</ele>
        <time>2019-04-26T08:35:33Z</time>
      </trkpt>
      <trkpt lat="45.39414" lon="5.69332">
        <ele>521.1</ele>
        <time>2019-04-26T08:35:35Z</time>
      </trkpt>
      <trkpt lat="45.39412" lon="5.69329">
        <ele>521.5</ele>
        <time>2019-04-26T08:35:37Z</time>
      </trkpt>
      <trkpt lat="45.39411" lon="5.69325">
        <ele>521.9</ele>
        <time>2019-04-26T08:35:39Z</time>
      </trkpt>
      <trkpt lat="45.39409" lon="5.6932">
        <ele>522.2</ele>
        <time>2019-04-26T08:35:42Z</time>
      </trkpt>
      <trkpt lat="45.39408" lon="5.69317">
        <ele>522.5</ele>
        <time>2019-04-26T08:35:44Z</time>
      </trkpt>
      <trkpt lat="45.39407" lon="5.69312">
        <ele>522.8</ele>
        <time>2019-04-26T08:35:47Z</time>
      </trkpt>
      <trkpt lat="45.39407" lon="5.69308">
        <ele>523</ele>
        <time>2019-04-26T08:35:50Z</time>
      </trkpt>
      <trkpt lat="45.39406" lon="5.69303">
        <ele>523.4</ele>
        <time>2019-04-26T08:35:53Z</time>
      </trkpt>
      <trkpt lat="45.39405" lon="5.69298">
        <ele>523.9</ele>
        <time>2019-04-26T08:35:56Z</time>
      </trkpt>
      <trkpt lat="45.39406" lon="5.69293">
        <ele>524.3</ele>
        <time>2019-04-26T08:35:59Z</time>
      </trkpt>
      <trkpt lat="45.39407" lon="5.69289">
        <ele>524.6</ele>
        <time>2019-04-26T08:36:01Z</time>
      </trkpt>
      <trkpt lat="45.3941" lon="5.69286">
        <ele>524.9</ele>
        <time>2019-04-26T08:36:03Z</time>
      </trkpt>
      <trkpt lat="45.39413" lon="5.69283">
        <ele>525.2</ele>
        <time>2019-04-26T08:36:06Z</time>
      </trkpt>
      <trkpt lat="45.39416" lon="5.69282">
        <ele>525.5</ele>
        <time>2019-04-26T08:36:09Z</time>
      </trkpt>
      <trkpt lat="45.39421" lon="5.69284">
        <ele>525.9</ele>
        <time>2019-04-26T08:36:12Z</time>
      </trkpt>
      <trkpt lat="45.39423" lon="5.69285">
        <ele>526.1</ele>
        <time>2019-04-26T08:36:14Z</time>
      </trkpt>
      <trkpt lat="45.39426" lon="5.69287">
        <ele>526.4</ele>
        <time>2019-04-26T08:36:16Z</time>
      </trkpt>
      <trkpt lat="45.39428" lon="5.69291">
        <ele>526.6</ele>
        <time>2019-04-26T08:36:19Z</time>
      </trkpt>
      <trkpt lat="45.3943" lon="5.69296">
        <ele>527</ele>
        <time>2019-04-26T08:36:22Z</time>
      </trkpt>
      <trkpt lat="45.39432" lon="5.69298">
        <ele>527.3</ele>
        <time>2019-04-26T08:36:26Z</time>
      </trkpt>
      <trkpt lat="45.39434" lon="5.69303">
        <ele>527.7</ele>
        <time>2019-04-26T08:36:30Z</time>
      </trkpt>
      <trkpt lat="45.39435" lon="5.69306">
        <ele>527.9</ele>
        <time>2019-04-26T08:36:32Z</time>
      </trkpt>
      <trkpt lat="45.39437" lon="5.6931">
        <ele>528.2</ele>
        <time>2019-04-26T08:36:34Z</time>
      </trkpt>
      <trkpt lat="45.39439" lon="5.69315">
        <ele>528.5</ele>
        <time>2019-04-26T08:36:36Z</time>
      </trkpt>
      <trkpt lat="45.39441" lon="5.6932">
        <ele>528.8</ele>
        <time>2019-04-26T08:36:38Z</time>
      </trkpt>
      <trkpt lat="45.39443" lon="5.69326">
        <ele>529.1</ele>
        <time>2019-04-26T08:36:40Z</time>
      </trkpt>
      <trkpt lat="45.39444" lon="5.69331">
        <ele>529.3</ele>
        <time>2019-04-26T08:36:42Z</time>
      </trkpt>
      <trkpt lat="45.39447" lon="5.69334">
        <ele>529.5</ele>
        <time>2019-04-26T08:36:44Z</time>
      </trkpt>
      <trkpt lat="45.39451" lon="5.69338">
        <ele>529.7</ele>
        <time>2019-04-26T08:36:46Z</time>
      </trkpt>
      <trkpt lat="45.39456" lon="5.69341">
        <ele>530</ele>
        <time>2019-04-26T08:36:48Z</time>
      </trkpt>
      <trkpt lat="45.3946" lon="5.69344">
        <ele>530.3</ele>
        <time>2019-04-26T08:36:50Z</time>
      </trkpt>
      <trkpt lat="45.39464" lon="5.69347">
        <ele>530.5</ele>
        <time>2019-04-26T08:36:52Z</time>
      </trkpt>
      <trkpt lat="45.39468" lon="5.69351">
        <ele>530.8</ele>
        <time>2019-04-26T08:36:54Z</time>
      </trkpt>
      <trkpt lat="45.39471" lon="5.69354">
        <ele>530.9</ele>
        <time>2019-04-26T08:36:56Z</time>
      </trkpt>
      <trkpt lat="45.39473" lon="5.69358">
        <ele>531.2</ele>
        <time>2019-04-26T08:36:58Z</time>
      </trkpt>
      <trkpt lat="45.39474" lon="5.69362">
        <ele>531.4</ele>
        <time>2019-04-26T08:37:00Z</time>
      </trkpt>
      <trkpt lat="45.39475" lon="5.69365">
        <ele>531.6</ele>
        <time>2019-04-26T08:37:16Z</time>
      </trkpt>
      <trkpt lat="45.39477" lon="5.6937">
        <ele>532</ele>
        <time>2019-04-26T08:37:19Z</time>
      </trkpt>
      <trkpt lat="45.3948" lon="5.69373">
        <ele>532.3</ele>
        <time>2019-04-26T08:37:31Z</time>
      </trkpt>
      <trkpt lat="45.39481" lon="5.69377">
        <ele>532.6</ele>
        <time>2019-04-26T08:37:34Z</time>
      </trkpt>
      <trkpt lat="45.39484" lon="5.69379">
        <ele>533</ele>
        <time>2019-04-26T08:37:42Z</time>
      </trkpt>
      <trkpt lat="45.39486" lon="5.69383">
        <ele>533.3</ele>
        <time>2019-04-26T08:37:46Z</time>
      </trkpt>
      <trkpt lat="45.39489" lon="5.69384">
        <ele>533.6</ele>
        <time>2019-04-26T08:37:49Z</time>
      </trkpt>
      <trkpt lat="45.39491" lon="5.69382">
        <ele>534</ele>
        <time>2019-04-26T08:37:52Z</time>
      </trkpt>
      <trkpt lat="45.39494" lon="5.6938">
        <ele>534.2</ele>
        <time>2019-04-26T08:37:55Z</time>
      </trkpt>
      <trkpt lat="45.39496" lon="5.69377">
        <ele>534.5</ele>
        <time>2019-04-26T08:37:59Z</time>
      </trkpt>
      <trkpt lat="45.39498" lon="5.69373">
        <ele>534.8</ele>
        <time>2019-04-26T08:38:02Z</time>
      </trkpt>
      <trkpt lat="45.395" lon="5.6937">
        <ele>535</ele>
        <time>2019-04-26T08:38:04Z</time>
      </trkpt>
      <trkpt lat="45.39502" lon="5.69367">
        <ele>535.2</ele>
        <time>2019-04-26T08:38:10Z</time>
      </trkpt>
      <trkpt lat="45.39505" lon="5.69365">
        <ele>535.5</ele>
        <time>2019-04-26T08:38:18Z</time>
      </trkpt>
      <trkpt lat="45.39506" lon="5.69362">
        <ele>535.7</ele>
        <time>2019-04-26T08:38:23Z</time>
      </trkpt>
      <trkpt lat="45.39505" lon="5.69359">
        <ele>536</ele>
        <time>2019-04-26T08:38:31Z</time>
      </trkpt>
      <trkpt lat="45.39505" lon="5.69354">
        <ele>536.3</ele>
        <time>2019-04-26T08:38:37Z</time>
      </trkpt>
      <trkpt lat="45.39503" lon="5.6935">
        <ele>536.5</ele>
        <time>2019-04-26T08:38:41Z</time>
      </trkpt>
      <trkpt lat="45.39502" lon="5.69347">
        <ele>536.8</ele>
        <time>2019-04-26T08:38:45Z</time>
      </trkpt>
      <trkpt lat="45.39501" lon="5.69343">
        <ele>537</ele>
        <time>2019-04-26T08:38:48Z</time>
      </trkpt>
      <trkpt lat="45.39499" lon="5.69341">
        <ele>537.3</ele>
        <time>2019-04-26T08:38:55Z</time>
      </trkpt>
      <trkpt lat="45.39497" lon="5.69338">
        <ele>537.7</ele>
        <time>2019-04-26T08:39:02Z</time>
      </trkpt>
      <trkpt lat="45.39494" lon="5.69336">
        <ele>538.3</ele>
        <time>2019-04-26T08:39:05Z</time>
      </trkpt>
      <trkpt lat="45.39491" lon="5.69333">
        <ele>538.7</ele>
        <time>2019-04-26T08:39:07Z</time>
      </trkpt>
      <trkpt lat="45.39489" lon="5.6933">
        <ele>539.2</ele>
        <time>2019-04-26T08:39:10Z</time>
      </trkpt>
      <trkpt lat="45.39486" lon="5.6933">
        <ele>539.6</ele>
        <time>2019-04-26T08:39:20Z</time>
      </trkpt>
      <trkpt lat="45.39487" lon="5.69327">
        <ele>539.9</ele>
        <time>2019-04-26T08:39:29Z</time>
      </trkpt>
      <trkpt lat="45.39489" lon="5.69323">
        <ele>540.2</ele>
        <time>2019-04-26T08:39:37Z</time>
      </trkpt>
      <trkpt lat="45.39489" lon="5.6932">
        <ele>540.4</ele>
        <time>2019-04-26T08:39:39Z</time>
      </trkpt>
      <trkpt lat="45.39489" lon="5.69315">
        <ele>540.7</ele>
        <time>2019-04-26T08:39:47Z</time>
      </trkpt>
      <trkpt lat="45.39487" lon="5.69311">
        <ele>541</ele>
        <time>2019-04-26T08:39:51Z</time>
      </trkpt>
      <trkpt lat="45.39484" lon="5.69307">
        <ele>541.4</ele>
        <time>2019-04-26T08:39:54Z</time>
      </trkpt>
      <trkpt lat="45.39483" lon="5.69303">
        <ele>541.7</ele>
        <time>2019-04-26T08:39:57Z</time>
      </trkpt>
      <trkpt lat="45.39482" lon="5.693">
        <ele>542</ele>
        <time>2019-04-26T08:39:59Z</time>
      </trkpt>
      <trkpt lat="45.39482" lon="5.69295">
        <ele>542.4</ele>
        <time>2019-04-26T08:40:01Z</time>
      </trkpt>
      <trkpt lat="45.39481" lon="5.69291">
        <ele>542.7</ele>
        <time>2019-04-26T08:40:03Z</time>
      </trkpt>
      <trkpt lat="45.3948" lon="5.69287">
        <ele>543.1</ele>
        <time>2019-04-26T08:40:05Z</time>
      </trkpt>
      <trkpt lat="45.3948" lon="5.69283">
        <ele>543.4</ele>
        <time>2019-04-26T08:40:33Z</time>
      </trkpt>
      <trkpt lat="45.39479" lon="5.69279">
        <ele>543.9</ele>
        <time>2019-04-26T08:40:36Z</time>
      </trkpt>
      <trkpt lat="45.39478" lon="5.69275">
        <ele>544.3</ele>
        <time>2019-04-26T08:40:38Z</time>
      </trkpt>
      <trkpt lat="45.39478" lon="5.6927">
        <ele>544.7</ele>
        <time>2019-04-26T08:40:40Z</time>
      </trkpt>
      <trkpt lat="45.39478" lon="5.69265">
        <ele>545.2</ele>
        <time>2019-04-26T08:40:42Z</time>
      </trkpt>
      <trkpt lat="45.39478" lon="5.69259">
        <ele>545.7</ele>
        <time>2019-04-26T08:40:45Z</time>
      </trkpt>
      <trkpt lat="45.39479" lon="5.69254">
        <ele>546.3</ele>
        <time>2019-04-26T08:40:48Z</time>
      </trkpt>
      <trkpt lat="45.39479" lon="5.6925">
        <ele>546.8</ele>
        <time>2019-04-26T08:40:50Z</time>
      </trkpt>
      <trkpt lat="45.3948" lon="5.69246">
        <ele>547.2</ele>
        <time>2019-04-26T08:40:52Z</time>
      </trkpt>
      <trkpt lat="45.3948" lon="5.69241">
        <ele>547.7</ele>
        <time>2019-04-26T08:40:55Z</time>
      </trkpt>
      <trkpt lat="45.39479" lon="5.69237">
        <ele>548</ele>
        <time>2019-04-26T08:41:00Z</time>
      </trkpt>
      <trkpt lat="45.39479" lon="5.69233">
        <ele>548.3</ele>
        <time>2019-04-26T08:41:09Z</time>
      </trkpt>
      <trkpt lat="45.39478" lon="5.69227">
        <ele>548.9</ele>
        <time>2019-04-26T08:41:20Z</time>
      </trkpt>
      <trkpt lat="45.39476" lon="5.69223">
        <ele>549.2</ele>
        <time>2019-04-26T08:41:23Z</time>
      </trkpt>
      <trkpt lat="45.39475" lon="5.6922">
        <ele>549.5</ele>
        <time>2019-04-26T08:41:26Z</time>
      </trkpt>
      <trkpt lat="45.39473" lon="5.69216">
        <ele>550</ele>
        <time>2019-04-26T08:41:28Z</time>
      </trkpt>
      <trkpt lat="45.39471" lon="5.69211">
        <ele>550.6</ele>
        <time>2019-04-26T08:41:30Z</time>
      </trkpt>
      <trkpt lat="45.3947" lon="5.69206">
        <ele>551</ele>
        <time>2019-04-26T08:41:32Z</time>
      </trkpt>
      <trkpt lat="45.39469" lon="5.69201">
        <ele>551.4</ele>
        <time>2019-04-26T08:41:34Z</time>
      </trkpt>
      <trkpt lat="45.39468" lon="5.69196">
        <ele>551.8</ele>
        <time>2019-04-26T08:41:36Z</time>
      </trkpt>
      <trkpt lat="45.39467" lon="5.69191">
        <ele>552.1</ele>
        <time>2019-04-26T08:41:38Z</time>
      </trkpt>
      <trkpt lat="45.39466" lon="5.69187">
        <ele>552.5</ele>
        <time>2019-04-26T08:41:40Z</time>
      </trkpt>
      <trkpt lat="45.39465" lon="5.69182">
        <ele>553</ele>
        <time>2019-04-26T08:41:42Z</time>
      </trkpt>
      <trkpt lat="45.39464" lon="5.69178">
        <ele>553.3</ele>
        <time>2019-04-26T08:41:49Z</time>
      </trkpt>
      <trkpt lat="45.39464" lon="5.69174">
        <ele>553.8</ele>
        <time>2019-04-26T08:41:58Z</time>
      </trkpt>
      <trkpt lat="45.39467" lon="5.69177">
        <ele>554.3</ele>
        <time>2019-04-26T08:42:08Z</time>
      </trkpt>
      <trkpt lat="45.39467" lon="5.69172">
        <ele>554.9</ele>
        <time>2019-04-26T08:42:42Z</time>
      </trkpt>
      <trkpt lat="45.39467" lon="5.69168">
        <ele>555.3</ele>
        <time>2019-04-26T08:42:48Z</time>
      </trkpt>
      <trkpt lat="45.39469" lon="5.69164">
        <ele>555.9</ele>
        <time>2019-04-26T08:42:59Z</time>
      </trkpt>
      <trkpt lat="45.39471" lon="5.6916">
        <ele>556.4</ele>
        <time>2019-04-26T08:43:03Z</time>
      </trkpt>
      <trkpt lat="45.39473" lon="5.69157">
        <ele>556.8</ele>
        <time>2019-04-26T08:43:06Z</time>
      </trkpt>
      <trkpt lat="45.39472" lon="5.69154">
        <ele>557.3</ele>
        <time>2019-04-26T08:43:13Z</time>
      </trkpt>
      <trkpt lat="45.39472" lon="5.69149">
        <ele>557.8</ele>
        <time>2019-04-26T08:43:16Z</time>
      </trkpt>
      <trkpt lat="45.39474" lon="5.69143">
        <ele>558.5</ele>
        <time>2019-04-26T08:43:18Z</time>
      </trkpt>
      <trkpt lat="45.39475" lon="5.69138">
        <ele>559</ele>
        <time>2019-04-26T08:43:20Z</time>
      </trkpt>
      <trkpt lat="45.39477" lon="5.69135">
        <ele>559.3</ele>
        <time>2019-04-26T08:43:23Z</time>
      </trkpt>
      <trkpt lat="45.39477" lon="5.69132">
        <ele>559.7</ele>
        <time>2019-04-26T08:43:32Z</time>
      </trkpt>
      <trkpt lat="45.39477" lon="5.69127">
        <ele>560</ele>
        <time>2019-04-26T08:43:36Z</time>
      </trkpt>
      <trkpt lat="45.39476" lon="5.69123">
        <ele>560.5</ele>
        <time>2019-04-26T08:43:39Z</time>
      </trkpt>
      <trkpt lat="45.39477" lon="5.69118">
        <ele>561.1</ele>
        <time>2019-04-26T08:43:42Z</time>
      </trkpt>
      <trkpt lat="45.39477" lon="5.69113">
        <ele>561.5</ele>
        <time>2019-04-26T08:43:45Z</time>
      </trkpt>
      <trkpt lat="45.39478" lon="5.69108">
        <ele>561.9</ele>
        <time>2019-04-26T08:43:48Z</time>
      </trkpt>
      <trkpt lat="45.39479" lon="5.69102">
        <ele>562.2</ele>
        <time>2019-04-26T08:43:51Z</time>
      </trkpt>
      <trkpt lat="45.3948" lon="5.69098">
        <ele>562.5</ele>
        <time>2019-04-26T08:43:53Z</time>
      </trkpt>
      <trkpt lat="45.3948" lon="5.69094">
        <ele>562.8</ele>
        <time>2019-04-26T08:43:55Z</time>
      </trkpt>
      <trkpt lat="45.39481" lon="5.69089">
        <ele>563.1</ele>
        <time>2019-04-26T08:43:57Z</time>
      </trkpt>
      <trkpt lat="45.39482" lon="5.69084">
        <ele>563.4</ele>
        <time>2019-04-26T08:43:59Z</time>
      </trkpt>
      <trkpt lat="45.39483" lon="5.69079">
        <ele>563.7</ele>
        <time>2019-04-26T08:44:01Z</time>
      </trkpt>
      <trkpt lat="45.39483" lon="5.69072">
        <ele>564.1</ele>
        <time>2019-04-26T08:44:03Z</time>
      </trkpt>
      <trkpt lat="45.39482" lon="5.69066">
        <ele>564.5</ele>
        <time>2019-04-26T08:44:05Z</time>
      </trkpt>
      <trkpt lat="45.39482" lon="5.6906">
        <ele>564.8</ele>
        <time>2019-04-26T08:44:07Z</time>
      </trkpt>
      <trkpt lat="45.39483" lon="5.69054">
        <ele>565.2</ele>
        <time>2019-04-26T08:44:09Z</time>
      </trkpt>
      <trkpt lat="45.39484" lon="5.6905">
        <ele>565.5</ele>
        <time>2019-04-26T08:44:18Z</time>
      </trkpt>
      <trkpt lat="45.39486" lon="5.69047">
        <ele>565.8</ele>
        <time>2019-04-26T08:44:30Z</time>
      </trkpt>
      <trkpt lat="45.39488" lon="5.69044">
        <ele>566.2</ele>
        <time>2019-04-26T08:44:33Z</time>
      </trkpt>
      <trkpt lat="45.39491" lon="5.6904">
        <ele>566.6</ele>
        <time>2019-04-26T08:44:35Z</time>
      </trkpt>
      <trkpt lat="45.39493" lon="5.69033">
        <ele>567.3</ele>
        <time>2019-04-26T08:44:37Z</time>
      </trkpt>
      <trkpt lat="45.39493" lon="5.69029">
        <ele>567.6</ele>
        <time>2019-04-26T08:44:39Z</time>
      </trkpt>
      <trkpt lat="45.39492" lon="5.69025">
        <ele>568</ele>
        <time>2019-04-26T08:44:41Z</time>
      </trkpt>
      <trkpt lat="45.39491" lon="5.69021">
        <ele>568.3</ele>
        <time>2019-04-26T08:44:44Z</time>
      </trkpt>
      <trkpt lat="45.39491" lon="5.69018">
        <ele>568.7</ele>
        <time>2019-04-26T08:44:47Z</time>
      </trkpt>
      <trkpt lat="45.3949" lon="5.69014">
        <ele>569</ele>
        <time>2019-04-26T08:44:50Z</time>
      </trkpt>
      <trkpt lat="45.3949" lon="5.6901">
        <ele>569.4</ele>
        <time>2019-04-26T08:44:53Z</time>
      </trkpt>
      <trkpt lat="45.39489" lon="5.69006">
        <ele>569.8</ele>
        <time>2019-04-26T08:44:57Z</time>
      </trkpt>
      <trkpt lat="45.39489" lon="5.69003">
        <ele>570.2</ele>
        <time>2019-04-26T08:45:00Z</time>
      </trkpt>
      <trkpt lat="45.39488" lon="5.68999">
        <ele>570.5</ele>
        <time>2019-04-26T08:45:03Z</time>
      </trkpt>
      <trkpt lat="45.39488" lon="5.68995">
        <ele>570.8</ele>
        <time>2019-04-26T08:45:06Z</time>
      </trkpt>
      <trkpt lat="45.39487" lon="5.68991">
        <ele>571.1</ele>
        <time>2019-04-26T08:45:09Z</time>
      </trkpt>
      <trkpt lat="45.39487" lon="5.68988">
        <ele>571.4</ele>
        <time>2019-04-26T08:45:12Z</time>
      </trkpt>
      <trkpt lat="45.39486" lon="5.68984">
        <ele>571.7</ele>
        <time>2019-04-26T08:45:17Z</time>
      </trkpt>
      <trkpt lat="45.39486" lon="5.6898">
        <ele>572</ele>
        <time>2019-04-26T08:45:18Z</time>
      </trkpt>
      <trkpt lat="45.39488" lon="5.68977">
        <ele>572.3</ele>
        <time>2019-04-26T08:45:33Z</time>
      </trkpt>
      <trkpt lat="45.39487" lon="5.68971">
        <ele>572.8</ele>
        <time>2019-04-26T08:45:42Z</time>
      </trkpt>
      <trkpt lat="45.39486" lon="5.68967">
        <ele>573.3</ele>
        <time>2019-04-26T08:45:44Z</time>
      </trkpt>
      <trkpt lat="45.39486" lon="5.68963">
        <ele>573.7</ele>
        <time>2019-04-26T08:45:46Z</time>
      </trkpt>
      <trkpt lat="45.39485" lon="5.68958">
        <ele>574.1</ele>
        <time>2019-04-26T08:45:48Z</time>
      </trkpt>
      <trkpt lat="45.39485" lon="5.68953">
        <ele>574.5</ele>
        <time>2019-04-26T08:45:50Z</time>
      </trkpt>
      <trkpt lat="45.39484" lon="5.68948">
        <ele>575</ele>
        <time>2019-04-26T08:45:52Z</time>
      </trkpt>
      <trkpt lat="45.39485" lon="5.68943">
        <ele>575.4</ele>
        <time>2019-04-26T08:45:54Z</time>
      </trkpt>
      <trkpt lat="45.39485" lon="5.68938">
        <ele>575.7</ele>
        <time>2019-04-26T08:45:56Z</time>
      </trkpt>
      <trkpt lat="45.39484" lon="5.68931">
        <ele>576.2</ele>
        <time>2019-04-26T08:45:58Z</time>
      </trkpt>
      <trkpt lat="45.39484" lon="5.68924">
        <ele>576.6</ele>
        <time>2019-04-26T08:46:00Z</time>
      </trkpt>
      <trkpt lat="45.39485" lon="5.68917">
        <ele>577.3</ele>
        <time>2019-04-26T08:46:02Z</time>
      </trkpt>
      <trkpt lat="45.39485" lon="5.6891">
        <ele>577.9</ele>
        <time>2019-04-26T08:46:04Z</time>
      </trkpt>
      <trkpt lat="45.39487" lon="5.68905">
        <ele>578.4</ele>
        <time>2019-04-26T08:46:06Z</time>
      </trkpt>
      <trkpt lat="45.39487" lon="5.689">
        <ele>578.8</ele>
        <time>2019-04-26T08:46:08Z</time>
      </trkpt>
      <trkpt lat="45.39487" lon="5.68896">
        <ele>579.1</ele>
        <time>2019-04-26T08:46:13Z</time>
      </trkpt>
      <trkpt lat="45.39489" lon="5.68893">
        <ele>579.3</ele>
        <time>2019-04-26T08:46:17Z</time>
      </trkpt>
      <trkpt lat="45.3949" lon="5.68889">
        <ele>579.7</ele>
        <time>2019-04-26T08:46:21Z</time>
      </trkpt>
      <trkpt lat="45.39491" lon="5.68884">
        <ele>580</ele>
        <time>2019-04-26T08:46:23Z</time>
      </trkpt>
      <trkpt lat="45.39491" lon="5.6888">
        <ele>580.3</ele>
        <time>2019-04-26T08:46:25Z</time>
      </trkpt>
      <trkpt lat="45.39491" lon="5.68876">
        <ele>580.6</ele>
        <time>2019-04-26T08:46:28Z</time>
      </trkpt>
      <trkpt lat="45.39492" lon="5.68872">
        <ele>580.9</ele>
        <time>2019-04-26T08:46:30Z</time>
      </trkpt>
      <trkpt lat="45.39491" lon="5.68868">
        <ele>581.1</ele>
        <time>2019-04-26T08:46:32Z</time>
      </trkpt>
      <trkpt lat="45.39491" lon="5.68863">
        <ele>581.5</ele>
        <time>2019-04-26T08:46:35Z</time>
      </trkpt>
      <trkpt lat="45.39492" lon="5.68858">
        <ele>581.8</ele>
        <time>2019-04-26T08:46:38Z</time>
      </trkpt>
      <trkpt lat="45.39492" lon="5.68853">
        <ele>582.2</ele>
        <time>2019-04-26T08:46:41Z</time>
      </trkpt>
      <trkpt lat="45.39491" lon="5.68849">
        <ele>582.4</ele>
        <time>2019-04-26T08:46:44Z</time>
      </trkpt>
      <trkpt lat="45.39489" lon="5.68851">
        <ele>582.7</ele>
        <time>2019-04-26T08:46:53Z</time>
      </trkpt>
      <trkpt lat="45.39492" lon="5.68851">
        <ele>583</ele>
        <time>2019-04-26T08:47:06Z</time>
      </trkpt>
      <trkpt lat="45.39492" lon="5.68847">
        <ele>583.2</ele>
        <time>2019-04-26T08:47:13Z</time>
      </trkpt>
      <trkpt lat="45.39491" lon="5.68842">
        <ele>583.6</ele>
        <time>2019-04-26T08:47:15Z</time>
      </trkpt>
      <trkpt lat="45.3949" lon="5.68837">
        <ele>583.9</ele>
        <time>2019-04-26T08:47:17Z</time>
      </trkpt>
      <trkpt lat="45.39489" lon="5.68831">
        <ele>584.2</ele>
        <time>2019-04-26T08:47:19Z</time>
      </trkpt>
      <trkpt lat="45.39488" lon="5.68826">
        <ele>584.6</ele>
        <time>2019-04-26T08:47:21Z</time>
      </trkpt>
      <trkpt lat="45.39487" lon="5.6882">
        <ele>585</ele>
        <time>2019-04-26T08:47:23Z</time>
      </trkpt>
      <trkpt lat="45.39485" lon="5.68815">
        <ele>585.3</ele>
        <time>2019-04-26T08:47:25Z</time>
      </trkpt>
      <trkpt lat="45.39484" lon="5.68809">
        <ele>585.8</ele>
        <time>2019-04-26T08:47:27Z</time>
      </trkpt>
      <trkpt lat="45.39482" lon="5.68804">
        <ele>586.2</ele>
        <time>2019-04-26T08:47:29Z</time>
      </trkpt>
      <trkpt lat="45.3948" lon="5.68797">
        <ele>586.6</ele>
        <time>2019-04-26T08:47:31Z</time>
      </trkpt>
      <trkpt lat="45.39478" lon="5.68791">
        <ele>587.2</ele>
        <time>2019-04-26T08:47:33Z</time>
      </trkpt>
      <trkpt lat="45.39477" lon="5.68785">
        <ele>587.6</ele>
        <time>2019-04-26T08:47:35Z</time>
      </trkpt>
      <trkpt lat="45.39476" lon="5.68778">
        <ele>587.9</ele>
        <time>2019-04-26T08:47:37Z</time>
      </trkpt>
      <trkpt lat="45.39475" lon="5.68772">
        <ele>588.2</ele>
        <time>2019-04-26T08:47:39Z</time>
      </trkpt>
      <trkpt lat="45.39474" lon="5.68765">
        <ele>588.5</ele>
        <time>2019-04-26T08:47:41Z</time>
      </trkpt>
      <trkpt lat="45.39474" lon="5.68759">
        <ele>588.8</ele>
        <time>2019-04-26T08:47:43Z</time>
      </trkpt>
      <trkpt lat="45.39473" lon="5.68753">
        <ele>589.1</ele>
        <time>2019-04-26T08:47:45Z</time>
      </trkpt>
      <trkpt lat="45.39473" lon="5.68747">
        <ele>589.5</ele>
        <time>2019-04-26T08:47:47Z</time>
      </trkpt>
      <trkpt lat="45.39473" lon="5.68741">
        <ele>589.8</ele>
        <time>2019-04-26T08:47:49Z</time>
      </trkpt>
      <trkpt lat="45.39473" lon="5.68735">
        <ele>590.1</ele>
        <time>2019-04-26T08:47:51Z</time>
      </trkpt>
      <trkpt lat="45.39474" lon="5.68729">
        <ele>590.5</ele>
        <time>2019-04-26T08:47:53Z</time>
      </trkpt>
      <trkpt lat="45.39475" lon="5.68723">
        <ele>590.7</ele>
        <time>2019-04-26T08:47:55Z</time>
      </trkpt>
      <trkpt lat="45.39475" lon="5.68717">
        <ele>591</ele>
        <time>2019-04-26T08:47:57Z</time>
      </trkpt>
      <trkpt lat="45.39475" lon="5.6871">
        <ele>591.2</ele>
        <time>2019-04-26T08:47:59Z</time>
      </trkpt>
      <trkpt lat="45.39476" lon="5.68705">
        <ele>591.5</ele>
        <time>2019-04-26T08:48:01Z</time>
      </trkpt>
      <trkpt lat="45.39476" lon="5.68699">
        <ele>591.8</ele>
        <time>2019-04-26T08:48:03Z</time>
      </trkpt>
      <trkpt lat="45.39476" lon="5.68693">
        <ele>592.1</ele>
        <time>2019-04-26T08:48:05Z</time>
      </trkpt>
      <trkpt lat="45.39476" lon="5.68686">
        <ele>592.4</ele>
        <time>2019-04-26T08:48:07Z</time>
      </trkpt>
      <trkpt lat="45.39476" lon="5.68681">
        <ele>592.7</ele>
        <time>2019-04-26T08:48:08Z</time>
      </trkpt>
      <trkpt lat="45.39476" lon="5.68677">
        <ele>592.9</ele>
        <time>2019-04-26T08:48:09Z</time>
      </trkpt>
      <trkpt lat="45.39478" lon="5.68673">
        <ele>593.1</ele>
        <time>2019-04-26T08:48:11Z</time>
      </trkpt>
      <trkpt lat="45.39479" lon="5.68669">
        <ele>593.2</ele>
        <time>2019-04-26T08:48:12Z</time>
      </trkpt>
      <trkpt lat="45.3948" lon="5.68665">
        <ele>593.3</ele>
        <time>2019-04-26T08:48:13Z</time>
      </trkpt>
      <trkpt lat="45.3948" lon="5.68659">
        <ele>593.4</ele>
        <time>2019-04-26T08:48:15Z</time>
      </trkpt>
      <trkpt lat="45.3948" lon="5.68653">
        <ele>593.5</ele>
        <time>2019-04-26T08:48:18Z</time>
      </trkpt>
      <trkpt lat="45.3948" lon="5.68648">
        <ele>593.6</ele>
        <time>2019-04-26T08:48:20Z</time>
      </trkpt>
      <trkpt lat="45.39479" lon="5.68643">
        <ele>593.7</ele>
        <time>2019-04-26T08:48:22Z</time>
      </trkpt>
      <trkpt lat="45.39479" lon="5.68638">
        <ele>593.8</ele>
        <time>2019-04-26T08:48:24Z</time>
      </trkpt>
      <trkpt lat="45.3948" lon="5.68632">
        <ele>593.9</ele>
        <time>2019-04-26T08:48:26Z</time>
      </trkpt>
      <trkpt lat="45.3948" lon="5.68626">
        <ele>593.9</ele>
        <time>2019-04-26T08:48:28Z</time>
      </trkpt>
      <trkpt lat="45.3948" lon="5.6862">
        <ele>594</ele>
        <time>2019-04-26T08:48:30Z</time>
      </trkpt>
      <trkpt lat="45.39482" lon="5.68615">
        <ele>594.4</ele>
        <time>2019-04-26T08:48:32Z</time>
      </trkpt>
      <trkpt lat="45.39486" lon="5.68616">
        <ele>594.6</ele>
        <time>2019-04-26T08:48:34Z</time>
      </trkpt>
      <trkpt lat="45.3949" lon="5.68615">
        <ele>594.7</ele>
        <time>2019-04-26T08:48:36Z</time>
      </trkpt>
      <trkpt lat="45.39495" lon="5.68616">
        <ele>594.9</ele>
        <time>2019-04-26T08:48:38Z</time>
      </trkpt>
      <trkpt lat="45.39498" lon="5.68618">
        <ele>595</ele>
        <time>2019-04-26T08:48:39Z</time>
      </trkpt>
      <trkpt lat="45.39501" lon="5.68619">
        <ele>595.1</ele>
        <time>2019-04-26T08:48:40Z</time>
      </trkpt>
      <trkpt lat="45.39506" lon="5.68621">
        <ele>595.3</ele>
        <time>2019-04-26T08:48:42Z</time>
      </trkpt>
      <trkpt lat="45.39511" lon="5.68623">
        <ele>595.4</ele>
        <time>2019-04-26T08:48:44Z</time>
      </trkpt>
      <trkpt lat="45.39516" lon="5.68626">
        <ele>595.5</ele>
        <time>2019-04-26T08:48:46Z</time>
      </trkpt>
      <trkpt lat="45.39521" lon="5.68628">
        <ele>595.6</ele>
        <time>2019-04-26T08:48:48Z</time>
      </trkpt>
      <trkpt lat="45.39525" lon="5.6863">
        <ele>595.7</ele>
        <time>2019-04-26T08:48:50Z</time>
      </trkpt>
      <trkpt lat="45.3953" lon="5.68633">
        <ele>595.8</ele>
        <time>2019-04-26T08:48:52Z</time>
      </trkpt>
      <trkpt lat="45.39535" lon="5.68636">
        <ele>595.9</ele>
        <time>2019-04-26T08:48:54Z</time>
      </trkpt>
      <trkpt lat="45.3954" lon="5.68637">
        <ele>596</ele>
        <time>2019-04-26T08:48:56Z</time>
      </trkpt>
      <trkpt lat="45.39544" lon="5.68639">
        <ele>596.1</ele>
        <time>2019-04-26T08:48:58Z</time>
      </trkpt>
      <trkpt lat="45.39547" lon="5.68641">
        <ele>596.1</ele>
        <time>2019-04-26T08:48:59Z</time>
      </trkpt>
      <trkpt lat="45.3955" lon="5.68645">
        <ele>596.2</ele>
        <time>2019-04-26T08:49:01Z</time>
      </trkpt>
      <trkpt lat="45.39554" lon="5.68648">
        <ele>596.3</ele>
        <time>2019-04-26T08:49:03Z</time>
      </trkpt>
      <trkpt lat="45.39556" lon="5.6865">
        <ele>596.3</ele>
        <time>2019-04-26T08:49:04Z</time>
      </trkpt>
      <trkpt lat="45.39559" lon="5.68651">
        <ele>596.4</ele>
        <time>2019-04-26T08:49:05Z</time>
      </trkpt>
      <trkpt lat="45.39562" lon="5.68653">
        <ele>596.5</ele>
        <time>2019-04-26T08:49:06Z</time>
      </trkpt>
      <trkpt lat="45.39566" lon="5.68654">
        <ele>596.6</ele>
        <time>2019-04-26T08:49:07Z</time>
      </trkpt>
      <trkpt lat="45.39569" lon="5.68655">
        <ele>596.7</ele>
        <time>2019-04-26T08:49:08Z</time>
      </trkpt>
      <trkpt lat="45.39574" lon="5.68656">
        <ele>596.9</ele>
        <time>2019-04-26T08:49:10Z</time>
      </trkpt>
      <trkpt lat="45.39577" lon="5.68658">
        <ele>597.1</ele>
        <time>2019-04-26T08:49:12Z</time>
      </trkpt>
      <trkpt lat="45.39582" lon="5.6866">
        <ele>597.2</ele>
        <time>2019-04-26T08:49:14Z</time>
      </trkpt>
      <trkpt lat="45.39585" lon="5.68661">
        <ele>597.4</ele>
        <time>2019-04-26T08:49:15Z</time>
      </trkpt>
      <trkpt lat="45.39588" lon="5.68663">
        <ele>597.6</ele>
        <time>2019-04-26T08:49:16Z</time>
      </trkpt>
      <trkpt lat="45.3959" lon="5.68664">
        <ele>597.8</ele>
        <time>2019-04-26T08:49:17Z</time>
      </trkpt>
      <trkpt lat="45.39594" lon="5.68666">
        <ele>598</ele>
        <time>2019-04-26T08:49:18Z</time>
      </trkpt>
      <trkpt lat="45.39597" lon="5.68667">
        <ele>598.2</ele>
        <time>2019-04-26T08:49:19Z</time>
      </trkpt>
      <trkpt lat="45.396" lon="5.68669">
        <ele>598.4</ele>
        <time>2019-04-26T08:49:20Z</time>
      </trkpt>
      <trkpt lat="45.39603" lon="5.68671">
        <ele>598.6</ele>
        <time>2019-04-26T08:49:21Z</time>
      </trkpt>
      <trkpt lat="45.39607" lon="5.68673">
        <ele>598.7</ele>
        <time>2019-04-26T08:49:22Z</time>
      </trkpt>
      <trkpt lat="45.39611" lon="5.68676">
        <ele>599</ele>
        <time>2019-04-26T08:49:23Z</time>
      </trkpt>
      <trkpt lat="45.39614" lon="5.68678">
        <ele>599.1</ele>
        <time>2019-04-26T08:49:24Z</time>
      </trkpt>
      <trkpt lat="45.39618" lon="5.68681">
        <ele>599.3</ele>
        <time>2019-04-26T08:49:26Z</time>
      </trkpt>
      <trkpt lat="45.39622" lon="5.68683">
        <ele>599.5</ele>
        <time>2019-04-26T08:49:28Z</time>
      </trkpt>
      <trkpt lat="45.39624" lon="5.68685">
        <ele>599.5</ele>
        <time>2019-04-26T08:49:29Z</time>
      </trkpt>
      <trkpt lat="45.39627" lon="5.68686">
        <ele>599.6</ele>
        <time>2019-04-26T08:49:30Z</time>
      </trkpt>
      <trkpt lat="45.3963" lon="5.68688">
        <ele>599.6</ele>
        <time>2019-04-26T08:49:31Z</time>
      </trkpt>
      <trkpt lat="45.39633" lon="5.6869">
        <ele>599.6</ele>
        <time>2019-04-26T08:49:32Z</time>
      </trkpt>
      <trkpt lat="45.39637" lon="5.68692">
        <ele>599.7</ele>
        <time>2019-04-26T08:49:34Z</time>
      </trkpt>
      <trkpt lat="45.3964" lon="5.68695">
        <ele>599.7</ele>
        <time>2019-04-26T08:49:36Z</time>
      </trkpt>
      <trkpt lat="45.39645" lon="5.68699">
        <ele>599.8</ele>
        <time>2019-04-26T08:49:38Z</time>
      </trkpt>
      <trkpt lat="45.3965" lon="5.68703">
        <ele>599.9</ele>
        <time>2019-04-26T08:49:40Z</time>
      </trkpt>
      <trkpt lat="45.39653" lon="5.68705">
        <ele>600</ele>
        <time>2019-04-26T08:49:41Z</time>
      </trkpt>
      <trkpt lat="45.39656" lon="5.68707">
        <ele>600.1</ele>
        <time>2019-04-26T08:49:42Z</time>
      </trkpt>
      <trkpt lat="45.39659" lon="5.6871">
        <ele>600.1</ele>
        <time>2019-04-26T08:49:43Z</time>
      </trkpt>
      <trkpt lat="45.39663" lon="5.68713">
        <ele>600.2</ele>
        <time>2019-04-26T08:49:44Z</time>
      </trkpt>
      <trkpt lat="45.39665" lon="5.68715">
        <ele>600.3</ele>
        <time>2019-04-26T08:49:45Z</time>
      </trkpt>
      <trkpt lat="45.3967" lon="5.68717">
        <ele>600.5</ele>
        <time>2019-04-26T08:49:46Z</time>
      </trkpt>
      <trkpt lat="45.39673" lon="5.6872">
        <ele>600.6</ele>
        <time>2019-04-26T08:49:47Z</time>
      </trkpt>
      <trkpt lat="45.39676" lon="5.68722">
        <ele>600.6</ele>
        <time>2019-04-26T08:49:48Z</time>
      </trkpt>
      <trkpt lat="45.3968" lon="5.68724">
        <ele>600.7</ele>
        <time>2019-04-26T08:49:49Z</time>
      </trkpt>
      <trkpt lat="45.39683" lon="5.68726">
        <ele>600.8</ele>
        <time>2019-04-26T08:49:50Z</time>
      </trkpt>
      <trkpt lat="45.39686" lon="5.68729">
        <ele>600.9</ele>
        <time>2019-04-26T08:49:51Z</time>
      </trkpt>
      <trkpt lat="45.39689" lon="5.68731">
        <ele>601</ele>
        <time>2019-04-26T08:49:52Z</time>
      </trkpt>
      <trkpt lat="45.39693" lon="5.68734">
        <ele>601</ele>
        <time>2019-04-26T08:49:53Z</time>
      </trkpt>
      <trkpt lat="45.39698" lon="5.68738">
        <ele>601.1</ele>
        <time>2019-04-26T08:49:56Z</time>
      </trkpt>
      <trkpt lat="45.39702" lon="5.6874">
        <ele>601.2</ele>
        <time>2019-04-26T08:49:57Z</time>
      </trkpt>
      <trkpt lat="45.39704" lon="5.68742">
        <ele>601.2</ele>
        <time>2019-04-26T08:49:58Z</time>
      </trkpt>
      <trkpt lat="45.39708" lon="5.68745">
        <ele>601.3</ele>
        <time>2019-04-26T08:49:59Z</time>
      </trkpt>
      <trkpt lat="45.39711" lon="5.68748">
        <ele>601.3</ele>
        <time>2019-04-26T08:50:00Z</time>
      </trkpt>
      <trkpt lat="45.39715" lon="5.68752">
        <ele>601.3</ele>
        <time>2019-04-26T08:50:01Z</time>
      </trkpt>
      <trkpt lat="45.39719" lon="5.68756">
        <ele>601.4</ele>
        <time>2019-04-26T08:50:02Z</time>
      </trkpt>
      <trkpt lat="45.39722" lon="5.68759">
        <ele>601.4</ele>
        <time>2019-04-26T08:50:03Z</time>
      </trkpt>
      <trkpt lat="45.39725" lon="5.68761">
        <ele>601.4</ele>
        <time>2019-04-26T08:50:04Z</time>
      </trkpt>
      <trkpt lat="45.39728" lon="5.68763">
        <ele>601.4</ele>
        <time>2019-04-26T08:50:05Z</time>
      </trkpt>
      <trkpt lat="45.39731" lon="5.68765">
        <ele>601.4</ele>
        <time>2019-04-26T08:50:06Z</time>
      </trkpt>
      <trkpt lat="45.39736" lon="5.68769">
        <ele>601.3</ele>
        <time>2019-04-26T08:50:07Z</time>
      </trkpt>
      <trkpt lat="45.3974" lon="5.68772">
        <ele>601.3</ele>
        <time>2019-04-26T08:50:08Z</time>
      </trkpt>
      <trkpt lat="45.39744" lon="5.68775">
        <ele>601.3</ele>
        <time>2019-04-26T08:50:09Z</time>
      </trkpt>
      <trkpt lat="45.39747" lon="5.68777">
        <ele>601.2</ele>
        <time>2019-04-26T08:50:10Z</time>
      </trkpt>
      <trkpt lat="45.39749" lon="5.68779">
        <ele>601.2</ele>
        <time>2019-04-26T08:50:11Z</time>
      </trkpt>
      <trkpt lat="45.39752" lon="5.68781">
        <ele>601.1</ele>
        <time>2019-04-26T08:50:12Z</time>
      </trkpt>
      <trkpt lat="45.39754" lon="5.68783">
        <ele>601</ele>
        <time>2019-04-26T08:50:13Z</time>
      </trkpt>
      <trkpt lat="45.39757" lon="5.68785">
        <ele>601</ele>
        <time>2019-04-26T08:50:14Z</time>
      </trkpt>
      <trkpt lat="45.39759" lon="5.68787">
        <ele>600.9</ele>
        <time>2019-04-26T08:50:15Z</time>
      </trkpt>
      <trkpt lat="45.39762" lon="5.68789">
        <ele>600.7</ele>
        <time>2019-04-26T08:50:16Z</time>
      </trkpt>
      <trkpt lat="45.39765" lon="5.68791">
        <ele>600.6</ele>
        <time>2019-04-26T08:50:17Z</time>
      </trkpt>
      <trkpt lat="45.39767" lon="5.68793">
        <ele>600.5</ele>
        <time>2019-04-26T08:50:18Z</time>
      </trkpt>
      <trkpt lat="45.3977" lon="5.68795">
        <ele>600.4</ele>
        <time>2019-04-26T08:50:19Z</time>
      </trkpt>
      <trkpt lat="45.39775" lon="5.68799">
        <ele>600.2</ele>
        <time>2019-04-26T08:50:21Z</time>
      </trkpt>
      <trkpt lat="45.39779" lon="5.68801">
        <ele>600</ele>
        <time>2019-04-26T08:50:22Z</time>
      </trkpt>
      <trkpt lat="45.39782" lon="5.68805">
        <ele>599.9</ele>
        <time>2019-04-26T08:50:23Z</time>
      </trkpt>
      <trkpt lat="45.39787" lon="5.68808">
        <ele>599.7</ele>
        <time>2019-04-26T08:50:24Z</time>
      </trkpt>
      <trkpt lat="45.39791" lon="5.6881">
        <ele>599.4</ele>
        <time>2019-04-26T08:50:25Z</time>
      </trkpt>
      <trkpt lat="45.39794" lon="5.68812">
        <ele>599.1</ele>
        <time>2019-04-26T08:50:26Z</time>
      </trkpt>
      <trkpt lat="45.39796" lon="5.68813">
        <ele>598.9</ele>
        <time>2019-04-26T08:50:29Z</time>
      </trkpt>
      <trkpt lat="45.39795" lon="5.68816">
        <ele>598.7</ele>
        <time>2019-04-26T08:50:38Z</time>
      </trkpt>
      <trkpt lat="45.39796" lon="5.68813">
        <ele>598.6</ele>
        <time>2019-04-26T08:51:02Z</time>
      </trkpt>
      <trkpt lat="45.39801" lon="5.68817">
        <ele>598.3</ele>
        <time>2019-04-26T08:51:17Z</time>
      </trkpt>
      <trkpt lat="45.39803" lon="5.6882">
        <ele>598.1</ele>
        <time>2019-04-26T08:51:18Z</time>
      </trkpt>
      <trkpt lat="45.39808" lon="5.68826">
        <ele>597.9</ele>
        <time>2019-04-26T08:51:19Z</time>
      </trkpt>
      <trkpt lat="45.39812" lon="5.68829">
        <ele>597.6</ele>
        <time>2019-04-26T08:51:20Z</time>
      </trkpt>
      <trkpt lat="45.39819" lon="5.6883">
        <ele>597.3</ele>
        <time>2019-04-26T08:51:21Z</time>
      </trkpt>
      <trkpt lat="45.39824" lon="5.68835">
        <ele>597.1</ele>
        <time>2019-04-26T08:51:22Z</time>
      </trkpt>
      <trkpt lat="45.3983" lon="5.68836">
        <ele>596.7</ele>
        <time>2019-04-26T08:51:23Z</time>
      </trkpt>
      <trkpt lat="45.39837" lon="5.68839">
        <ele>596.4</ele>
        <time>2019-04-26T08:51:24Z</time>
      </trkpt>
      <trkpt lat="45.39843" lon="5.68842">
        <ele>596.1</ele>
        <time>2019-04-26T08:51:25Z</time>
      </trkpt>
      <trkpt lat="45.39849" lon="5.68845">
        <ele>595.9</ele>
        <time>2019-04-26T08:51:26Z</time>
      </trkpt>
      <trkpt lat="45.39859" lon="5.68847">
        <ele>595.5</ele>
        <time>2019-04-26T08:51:27Z</time>
      </trkpt>
      <trkpt lat="45.39868" lon="5.6885">
        <ele>595.2</ele>
        <time>2019-04-26T08:51:28Z</time>
      </trkpt>
      <trkpt lat="45.39875" lon="5.68855">
        <ele>594.9</ele>
        <time>2019-04-26T08:51:29Z</time>
      </trkpt>
      <trkpt lat="45.39883" lon="5.68859">
        <ele>594.6</ele>
        <time>2019-04-26T08:51:30Z</time>
      </trkpt>
      <trkpt lat="45.39891" lon="5.68862">
        <ele>594.1</ele>
        <time>2019-04-26T08:51:31Z</time>
      </trkpt>
      <trkpt lat="45.399" lon="5.68864">
        <ele>593.7</ele>
        <time>2019-04-26T08:51:32Z</time>
      </trkpt>
      <trkpt lat="45.39909" lon="5.68868">
        <ele>593.3</ele>
        <time>2019-04-26T08:51:33Z</time>
      </trkpt>
      <trkpt lat="45.39916" lon="5.68871">
        <ele>592.7</ele>
        <time>2019-04-26T08:51:34Z</time>
      </trkpt>
      <trkpt lat="45.39926" lon="5.68877">
        <ele>592.3</ele>
        <time>2019-04-26T08:51:35Z</time>
      </trkpt>
      <trkpt lat="45.39935" lon="5.68882">
        <ele>591.9</ele>
        <time>2019-04-26T08:51:36Z</time>
      </trkpt>
      <trkpt lat="45.39942" lon="5.68889">
        <ele>591.6</ele>
        <time>2019-04-26T08:51:37Z</time>
      </trkpt>
      <trkpt lat="45.39949" lon="5.68895">
        <ele>591.4</ele>
        <time>2019-04-26T08:51:38Z</time>
      </trkpt>
      <trkpt lat="45.39956" lon="5.68904">
        <ele>591.4</ele>
        <time>2019-04-26T08:51:39Z</time>
      </trkpt>
      <trkpt lat="45.39963" lon="5.68915">
        <ele>591.4</ele>
        <time>2019-04-26T08:51:40Z</time>
      </trkpt>
      <trkpt lat="45.39969" lon="5.68924">
        <ele>591.3</ele>
        <time>2019-04-26T08:51:41Z</time>
      </trkpt>
      <trkpt lat="45.39971" lon="5.68934">
        <ele>591.4</ele>
        <time>2019-04-26T08:51:42Z</time>
      </trkpt>
      <trkpt lat="45.39976" lon="5.68944">
        <ele>591.4</ele>
        <time>2019-04-26T08:51:43Z</time>
      </trkpt>
      <trkpt lat="45.39981" lon="5.68955">
        <ele>591.4</ele>
        <time>2019-04-26T08:51:44Z</time>
      </trkpt>
      <trkpt lat="45.39988" lon="5.68964">
        <ele>591.5</ele>
        <time>2019-04-26T08:51:45Z</time>
      </trkpt>
      <trkpt lat="45.39993" lon="5.68971">
        <ele>591.6</ele>
        <time>2019-04-26T08:51:46Z</time>
      </trkpt>
      <trkpt lat="45.4" lon="5.68977">
        <ele>591.8</ele>
        <time>2019-04-26T08:51:47Z</time>
      </trkpt>
      <trkpt lat="45.40007" lon="5.68985">
        <ele>592</ele>
        <time>2019-04-26T08:51:48Z</time>
      </trkpt>
      <trkpt lat="45.40011" lon="5.68992">
        <ele>592.1</ele>
        <time>2019-04-26T08:51:49Z</time>
      </trkpt>
      <trkpt lat="45.40013" lon="5.68999">
        <ele>592.2</ele>
        <time>2019-04-26T08:51:50Z</time>
      </trkpt>
      <trkpt lat="45.40014" lon="5.69008">
        <ele>592.4</ele>
        <time>2019-04-26T08:51:51Z</time>
      </trkpt>
      <trkpt lat="45.40016" lon="5.69017">
        <ele>592.6</ele>
        <time>2019-04-26T08:51:52Z</time>
      </trkpt>
      <trkpt lat="45.40015" lon="5.69024">
        <ele>592.8</ele>
        <time>2019-04-26T08:51:53Z</time>
      </trkpt>
      <trkpt lat="45.40018" lon="5.69032">
        <ele>592.9</ele>
        <time>2019-04-26T08:51:54Z</time>
      </trkpt>
      <trkpt lat="45.4002" lon="5.69039">
        <ele>593</ele>
        <time>2019-04-26T08:51:55Z</time>
      </trkpt>
      <trkpt lat="45.40022" lon="5.69046">
        <ele>593.1</ele>
        <time>2019-04-26T08:51:56Z</time>
      </trkpt>
      <trkpt lat="45.40025" lon="5.69053">
        <ele>593.1</ele>
        <time>2019-04-26T08:51:57Z</time>
      </trkpt>
      <trkpt lat="45.40032" lon="5.69061">
        <ele>593.1</ele>
        <time>2019-04-26T08:51:58Z</time>
      </trkpt>
      <trkpt lat="45.40037" lon="5.69067">
        <ele>593.1</ele>
        <time>2019-04-26T08:51:59Z</time>
      </trkpt>
      <trkpt lat="45.40042" lon="5.69071">
        <ele>593.1</ele>
        <time>2019-04-26T08:52:00Z</time>
      </trkpt>
      <trkpt lat="45.40047" lon="5.69078">
        <ele>593.1</ele>
        <time>2019-04-26T08:52:01Z</time>
      </trkpt>
      <trkpt lat="45.40052" lon="5.69085">
        <ele>593</ele>
        <time>2019-04-26T08:52:02Z</time>
      </trkpt>
      <trkpt lat="45.40058" lon="5.69093">
        <ele>593</ele>
        <time>2019-04-26T08:52:03Z</time>
      </trkpt>
      <trkpt lat="45.40066" lon="5.691">
        <ele>593</ele>
        <time>2019-04-26T08:52:04Z</time>
      </trkpt>
      <trkpt lat="45.40074" lon="5.69108">
        <ele>592.9</ele>
        <time>2019-04-26T08:52:05Z</time>
      </trkpt>
      <trkpt lat="45.40083" lon="5.69117">
        <ele>592.8</ele>
        <time>2019-04-26T08:52:06Z</time>
      </trkpt>
      <trkpt lat="45.4009" lon="5.69127">
        <ele>592.7</ele>
        <time>2019-04-26T08:52:07Z</time>
      </trkpt>
      <trkpt lat="45.40097" lon="5.69134">
        <ele>592.5</ele>
        <time>2019-04-26T08:52:08Z</time>
      </trkpt>
      <trkpt lat="45.401" lon="5.69139">
        <ele>592.3</ele>
        <time>2019-04-26T08:52:09Z</time>
      </trkpt>
      <trkpt lat="45.40102" lon="5.69143">
        <ele>592.2</ele>
        <time>2019-04-26T08:52:10Z</time>
      </trkpt>
      <trkpt lat="45.40101" lon="5.69147">
        <ele>592.1</ele>
        <time>2019-04-26T08:52:17Z</time>
      </trkpt>
      <trkpt lat="45.40099" lon="5.69144">
        <ele>592</ele>
        <time>2019-04-26T08:52:35Z</time>
      </trkpt>
      <trkpt lat="45.40095" lon="5.69141">
        <ele>591.8</ele>
        <time>2019-04-26T08:52:38Z</time>
      </trkpt>
      <trkpt lat="45.40093" lon="5.6915">
        <ele>590.2</ele>
        <time>2019-04-26T08:52:41Z</time>
      </trkpt>
      <trkpt lat="45.40092" lon="5.69157">
        <ele>589.7</ele>
        <time>2019-04-26T08:52:42Z</time>
      </trkpt>
      <trkpt lat="45.40092" lon="5.69165">
        <ele>589.2</ele>
        <time>2019-04-26T08:52:43Z</time>
      </trkpt>
      <trkpt lat="45.40093" lon="5.69171">
        <ele>588.9</ele>
        <time>2019-04-26T08:52:44Z</time>
      </trkpt>
      <trkpt lat="45.40094" lon="5.69175">
        <ele>588.6</ele>
        <time>2019-04-26T08:52:45Z</time>
      </trkpt>
      <trkpt lat="45.40096" lon="5.69182">
        <ele>588.3</ele>
        <time>2019-04-26T08:52:50Z</time>
      </trkpt>
      <trkpt lat="45.40097" lon="5.69186">
        <ele>588.2</ele>
        <time>2019-04-26T08:52:52Z</time>
      </trkpt>
      <trkpt lat="45.40097" lon="5.69189">
        <ele>588</ele>
        <time>2019-04-26T08:53:54Z</time>
      </trkpt>
      <trkpt lat="45.40097" lon="5.69192">
        <ele>588</ele>
        <time>2019-04-26T08:53:55Z</time>
      </trkpt>
      <trkpt lat="45.40098" lon="5.69198">
        <ele>587.9</ele>
        <time>2019-04-26T08:53:56Z</time>
      </trkpt>
      <trkpt lat="45.40099" lon="5.69204">
        <ele>587.7</ele>
        <time>2019-04-26T08:53:57Z</time>
      </trkpt>
      <trkpt lat="45.401" lon="5.6921">
        <ele>587.4</ele>
        <time>2019-04-26T08:53:58Z</time>
      </trkpt>
      <trkpt lat="45.40101" lon="5.69213">
        <ele>587.2</ele>
        <time>2019-04-26T08:53:59Z</time>
      </trkpt>
      <trkpt lat="45.40102" lon="5.69219">
        <ele>587.1</ele>
        <time>2019-04-26T08:54:03Z</time>
      </trkpt>
      <trkpt lat="45.40103" lon="5.69223">
        <ele>587</ele>
        <time>2019-04-26T08:54:04Z</time>
      </trkpt>
      <trkpt lat="45.40105" lon="5.69227">
        <ele>586.9</ele>
        <time>2019-04-26T08:54:05Z</time>
      </trkpt>
      <trkpt lat="45.40107" lon="5.6923">
        <ele>586.8</ele>
        <time>2019-04-26T08:54:06Z</time>
      </trkpt>
      <trkpt lat="45.40109" lon="5.69234">
        <ele>586.7</ele>
        <time>2019-04-26T08:54:08Z</time>
      </trkpt>
      <trkpt lat="45.40108" lon="5.69238">
        <ele>586.5</ele>
        <time>2019-04-26T08:54:10Z</time>
      </trkpt>
      <trkpt lat="45.40108" lon="5.69243">
        <ele>586.5</ele>
        <time>2019-04-26T08:54:12Z</time>
      </trkpt>
      <trkpt lat="45.40106" lon="5.69246">
        <ele>586.6</ele>
        <time>2019-04-26T08:54:13Z</time>
      </trkpt>
      <trkpt lat="45.40103" lon="5.69248">
        <ele>586.8</ele>
        <time>2019-04-26T08:54:14Z</time>
      </trkpt>
      <trkpt lat="45.40099" lon="5.69252">
        <ele>586.9</ele>
        <time>2019-04-26T08:54:16Z</time>
      </trkpt>
      <trkpt lat="45.40097" lon="5.69256">
        <ele>586.9</ele>
        <time>2019-04-26T08:54:17Z</time>
      </trkpt>
      <trkpt lat="45.40096" lon="5.69261">
        <ele>587</ele>
        <time>2019-04-26T08:54:18Z</time>
      </trkpt>
      <trkpt lat="45.40095" lon="5.69266">
        <ele>587.2</ele>
        <time>2019-04-26T08:54:19Z</time>
      </trkpt>
      <trkpt lat="45.40095" lon="5.69272">
        <ele>587.2</ele>
        <time>2019-04-26T08:54:20Z</time>
      </trkpt>
      <trkpt lat="45.40097" lon="5.69276">
        <ele>587.1</ele>
        <time>2019-04-26T08:54:21Z</time>
      </trkpt>
      <trkpt lat="45.40098" lon="5.69279">
        <ele>587</ele>
        <time>2019-04-26T08:54:22Z</time>
      </trkpt>
      <trkpt lat="45.40101" lon="5.69282">
        <ele>586.9</ele>
        <time>2019-04-26T08:54:23Z</time>
      </trkpt>
      <trkpt lat="45.40104" lon="5.69282">
        <ele>587</ele>
        <time>2019-04-26T08:54:24Z</time>
      </trkpt>
      <trkpt lat="45.40107" lon="5.6928">
        <ele>587.2</ele>
        <time>2019-04-26T08:54:25Z</time>
      </trkpt>
      <trkpt lat="45.40109" lon="5.69275">
        <ele>587.3</ele>
        <time>2019-04-26T08:54:26Z</time>
      </trkpt>
      <trkpt lat="45.40112" lon="5.69269">
        <ele>587.5</ele>
        <time>2019-04-26T08:54:27Z</time>
      </trkpt>
      <trkpt lat="45.40114" lon="5.69263">
        <ele>587.6</ele>
        <time>2019-04-26T08:54:28Z</time>
      </trkpt>
      <trkpt lat="45.40115" lon="5.69258">
        <ele>587.5</ele>
        <time>2019-04-26T08:54:29Z</time>
      </trkpt>
      <trkpt lat="45.40116" lon="5.69254">
        <ele>587.5</ele>
        <time>2019-04-26T08:54:30Z</time>
      </trkpt>
      <trkpt lat="45.40117" lon="5.69249">
        <ele>587.4</ele>
        <time>2019-04-26T08:54:31Z</time>
      </trkpt>
      <trkpt lat="45.4012" lon="5.69243">
        <ele>587.2</ele>
        <time>2019-04-26T08:54:33Z</time>
      </trkpt>
      <trkpt lat="45.40121" lon="5.69238">
        <ele>587.1</ele>
        <time>2019-04-26T08:54:35Z</time>
      </trkpt>
      <trkpt lat="45.40119" lon="5.69233">
        <ele>587.1</ele>
        <time>2019-04-26T08:54:38Z</time>
      </trkpt>
      <trkpt lat="45.40121" lon="5.69232">
        <ele>587.1</ele>
        <time>2019-04-26T08:54:42Z</time>
      </trkpt>
      <trkpt lat="45.40123" lon="5.69237">
        <ele>587.2</ele>
        <time>2019-04-26T08:54:45Z</time>
      </trkpt>
      <trkpt lat="45.40127" lon="5.69242">
        <ele>587.2</ele>
        <time>2019-04-26T08:54:47Z</time>
      </trkpt>
      <trkpt lat="45.4013" lon="5.69243">
        <ele>587.2</ele>
        <time>2019-04-26T08:54:48Z</time>
      </trkpt>
      <trkpt lat="45.40135" lon="5.69246">
        <ele>587.1</ele>
        <time>2019-04-26T08:54:50Z</time>
      </trkpt>
      <trkpt lat="45.40139" lon="5.69248">
        <ele>587</ele>
        <time>2019-04-26T08:54:52Z</time>
      </trkpt>
      <trkpt lat="45.40137" lon="5.69246">
        <ele>586.9</ele>
        <time>2019-04-26T08:54:57Z</time>
      </trkpt>
      <trkpt lat="45.4014" lon="5.69248">
        <ele>586.8</ele>
        <time>2019-04-26T08:55:05Z</time>
      </trkpt>
      <trkpt lat="45.40141" lon="5.69253">
        <ele>586.8</ele>
        <time>2019-04-26T08:55:11Z</time>
      </trkpt>
      <trkpt lat="45.40145" lon="5.69255">
        <ele>586.6</ele>
        <time>2019-04-26T08:55:14Z</time>
      </trkpt>
      <trkpt lat="45.40148" lon="5.69258">
        <ele>586.5</ele>
        <time>2019-04-26T08:55:16Z</time>
      </trkpt>
      <trkpt lat="45.40151" lon="5.69263">
        <ele>586.4</ele>
        <time>2019-04-26T08:55:18Z</time>
      </trkpt>
      <trkpt lat="45.40154" lon="5.69269">
        <ele>586.2</ele>
        <time>2019-04-26T08:55:20Z</time>
      </trkpt>
      <trkpt lat="45.40156" lon="5.69274">
        <ele>586.1</ele>
        <time>2019-04-26T08:55:21Z</time>
      </trkpt>
      <trkpt lat="45.40159" lon="5.69278">
        <ele>586</ele>
        <time>2019-04-26T08:55:22Z</time>
      </trkpt>
      <trkpt lat="45.40161" lon="5.69282">
        <ele>586.2</ele>
        <time>2019-04-26T08:55:23Z</time>
      </trkpt>
      <trkpt lat="45.40163" lon="5.69285">
        <ele>586.3</ele>
        <time>2019-04-26T08:55:24Z</time>
      </trkpt>
      <trkpt lat="45.40167" lon="5.6929">
        <ele>586.4</ele>
        <time>2019-04-26T08:55:26Z</time>
      </trkpt>
      <trkpt lat="45.40169" lon="5.69293">
        <ele>586.2</ele>
        <time>2019-04-26T08:55:27Z</time>
      </trkpt>
      <trkpt lat="45.40173" lon="5.69297">
        <ele>586.1</ele>
        <time>2019-04-26T08:55:28Z</time>
      </trkpt>
      <trkpt lat="45.40176" lon="5.69302">
        <ele>586</ele>
        <time>2019-04-26T08:55:29Z</time>
      </trkpt>
      <trkpt lat="45.40178" lon="5.69305">
        <ele>585.4</ele>
        <time>2019-04-26T08:55:30Z</time>
      </trkpt>
      <trkpt lat="45.40181" lon="5.69309">
        <ele>584.9</ele>
        <time>2019-04-26T08:55:31Z</time>
      </trkpt>
      <trkpt lat="45.40184" lon="5.69313">
        <ele>584.4</ele>
        <time>2019-04-26T08:55:32Z</time>
      </trkpt>
      <trkpt lat="45.40188" lon="5.69318">
        <ele>583.8</ele>
        <time>2019-04-26T08:55:33Z</time>
      </trkpt>
      <trkpt lat="45.40192" lon="5.69323">
        <ele>583.3</ele>
        <time>2019-04-26T08:55:34Z</time>
      </trkpt>
      <trkpt lat="45.40195" lon="5.69327">
        <ele>582.8</ele>
        <time>2019-04-26T08:55:35Z</time>
      </trkpt>
      <trkpt lat="45.40198" lon="5.69332">
        <ele>582.1</ele>
        <time>2019-04-26T08:55:36Z</time>
      </trkpt>
      <trkpt lat="45.40201" lon="5.69337">
        <ele>581.4</ele>
        <time>2019-04-26T08:55:37Z</time>
      </trkpt>
      <trkpt lat="45.40203" lon="5.69342">
        <ele>580.7</ele>
        <time>2019-04-26T08:55:38Z</time>
      </trkpt>
      <trkpt lat="45.40204" lon="5.69348">
        <ele>580.1</ele>
        <time>2019-04-26T08:55:39Z</time>
      </trkpt>
      <trkpt lat="45.40208" lon="5.69361">
        <ele>578.7</ele>
        <time>2019-04-26T08:55:40Z</time>
      </trkpt>
      <trkpt lat="45.40206" lon="5.69368">
        <ele>577.9</ele>
        <time>2019-04-26T08:55:41Z</time>
      </trkpt>
      <trkpt lat="45.40204" lon="5.69374">
        <ele>577.4</ele>
        <time>2019-04-26T08:55:42Z</time>
      </trkpt>
      <trkpt lat="45.40202" lon="5.69381">
        <ele>576.8</ele>
        <time>2019-04-26T08:55:43Z</time>
      </trkpt>
      <trkpt lat="45.402" lon="5.6939">
        <ele>575.6</ele>
        <time>2019-04-26T08:55:44Z</time>
      </trkpt>
      <trkpt lat="45.40198" lon="5.69397">
        <ele>574.6</ele>
        <time>2019-04-26T08:55:45Z</time>
      </trkpt>
      <trkpt lat="45.40196" lon="5.69404">
        <ele>573.8</ele>
        <time>2019-04-26T08:55:46Z</time>
      </trkpt>
      <trkpt lat="45.40195" lon="5.69411">
        <ele>572.8</ele>
        <time>2019-04-26T08:55:47Z</time>
      </trkpt>
      <trkpt lat="45.40193" lon="5.69418">
        <ele>571.5</ele>
        <time>2019-04-26T08:55:48Z</time>
      </trkpt>
      <trkpt lat="45.40192" lon="5.69426">
        <ele>570.3</ele>
        <time>2019-04-26T08:55:49Z</time>
      </trkpt>
      <trkpt lat="45.4019" lon="5.69433">
        <ele>569.3</ele>
        <time>2019-04-26T08:55:50Z</time>
      </trkpt>
      <trkpt lat="45.40189" lon="5.6944">
        <ele>568.1</ele>
        <time>2019-04-26T08:55:51Z</time>
      </trkpt>
      <trkpt lat="45.40188" lon="5.69445">
        <ele>567</ele>
        <time>2019-04-26T08:55:52Z</time>
      </trkpt>
      <trkpt lat="45.40186" lon="5.69451">
        <ele>566.2</ele>
        <time>2019-04-26T08:55:53Z</time>
      </trkpt>
      <trkpt lat="45.40185" lon="5.69454">
        <ele>565.5</ele>
        <time>2019-04-26T08:55:54Z</time>
      </trkpt>
      <trkpt lat="45.40184" lon="5.69458">
        <ele>565</ele>
        <time>2019-04-26T08:55:55Z</time>
      </trkpt>
      <trkpt lat="45.40181" lon="5.69461">
        <ele>564.4</ele>
        <time>2019-04-26T08:55:57Z</time>
      </trkpt>
      <trkpt lat="45.40179" lon="5.69464">
        <ele>563.9</ele>
        <time>2019-04-26T08:56:00Z</time>
      </trkpt>
      <trkpt lat="45.40178" lon="5.69469">
        <ele>563.3</ele>
        <time>2019-04-26T08:56:03Z</time>
      </trkpt>
      <trkpt lat="45.40176" lon="5.69475">
        <ele>562.4</ele>
        <time>2019-04-26T08:56:06Z</time>
      </trkpt>
      <trkpt lat="45.40176" lon="5.6948">
        <ele>561.9</ele>
        <time>2019-04-26T08:56:07Z</time>
      </trkpt>
      <trkpt lat="45.40175" lon="5.69484">
        <ele>561.2</ele>
        <time>2019-04-26T08:56:08Z</time>
      </trkpt>
      <trkpt lat="45.40174" lon="5.69489">
        <ele>560.5</ele>
        <time>2019-04-26T08:56:09Z</time>
      </trkpt>
      <trkpt lat="45.40172" lon="5.69493">
        <ele>559.8</ele>
        <time>2019-04-26T08:56:10Z</time>
      </trkpt>
      <trkpt lat="45.4017" lon="5.69496">
        <ele>559.2</ele>
        <time>2019-04-26T08:56:11Z</time>
      </trkpt>
      <trkpt lat="45.40168" lon="5.695">
        <ele>558.6</ele>
        <time>2019-04-26T08:56:12Z</time>
      </trkpt>
      <trkpt lat="45.40165" lon="5.69505">
        <ele>557.9</ele>
        <time>2019-04-26T08:56:13Z</time>
      </trkpt>
      <trkpt lat="45.4016" lon="5.69514">
        <ele>556.6</ele>
        <time>2019-04-26T08:56:14Z</time>
      </trkpt>
      <trkpt lat="45.40155" lon="5.69519">
        <ele>556</ele>
        <time>2019-04-26T08:56:15Z</time>
      </trkpt>
      <trkpt lat="45.40151" lon="5.69525">
        <ele>555.4</ele>
        <time>2019-04-26T08:56:16Z</time>
      </trkpt>
      <trkpt lat="45.40145" lon="5.69532">
        <ele>554.7</ele>
        <time>2019-04-26T08:56:17Z</time>
      </trkpt>
      <trkpt lat="45.4014" lon="5.69538">
        <ele>554.1</ele>
        <time>2019-04-26T08:56:18Z</time>
      </trkpt>
      <trkpt lat="45.40136" lon="5.69543">
        <ele>553.4</ele>
        <time>2019-04-26T08:56:19Z</time>
      </trkpt>
      <trkpt lat="45.40132" lon="5.69549">
        <ele>553.4</ele>
        <time>2019-04-26T08:56:20Z</time>
      </trkpt>
      <trkpt lat="45.40127" lon="5.69555">
        <ele>553.4</ele>
        <time>2019-04-26T08:56:21Z</time>
      </trkpt>
      <trkpt lat="45.40126" lon="5.69563">
        <ele>553</ele>
        <time>2019-04-26T08:56:22Z</time>
      </trkpt>
      <trkpt lat="45.40125" lon="5.69567">
        <ele>553</ele>
        <time>2019-04-26T08:56:23Z</time>
      </trkpt>
      <trkpt lat="45.40124" lon="5.69574">
        <ele>552.9</ele>
        <time>2019-04-26T08:56:24Z</time>
      </trkpt>
      <trkpt lat="45.40127" lon="5.69581">
        <ele>552.8</ele>
        <time>2019-04-26T08:56:25Z</time>
      </trkpt>
      <trkpt lat="45.40131" lon="5.69589">
        <ele>552.7</ele>
        <time>2019-04-26T08:56:26Z</time>
      </trkpt>
      <trkpt lat="45.40133" lon="5.69597">
        <ele>552.7</ele>
        <time>2019-04-26T08:56:27Z</time>
      </trkpt>
      <trkpt lat="45.40136" lon="5.69604">
        <ele>552.6</ele>
        <time>2019-04-26T08:56:28Z</time>
      </trkpt>
      <trkpt lat="45.4014" lon="5.6961">
        <ele>552.5</ele>
        <time>2019-04-26T08:56:29Z</time>
      </trkpt>
      <trkpt lat="45.40144" lon="5.69616">
        <ele>552.2</ele>
        <time>2019-04-26T08:56:30Z</time>
      </trkpt>
      <trkpt lat="45.40148" lon="5.69622">
        <ele>552</ele>
        <time>2019-04-26T08:56:31Z</time>
      </trkpt>
      <trkpt lat="45.40151" lon="5.6963">
        <ele>551.7</ele>
        <time>2019-04-26T08:56:32Z</time>
      </trkpt>
      <trkpt lat="45.40154" lon="5.69638">
        <ele>551.3</ele>
        <time>2019-04-26T08:56:33Z</time>
      </trkpt>
      <trkpt lat="45.4016" lon="5.69646">
        <ele>551</ele>
        <time>2019-04-26T08:56:34Z</time>
      </trkpt>
      <trkpt lat="45.40167" lon="5.69652">
        <ele>550.8</ele>
        <time>2019-04-26T08:56:35Z</time>
      </trkpt>
      <trkpt lat="45.40174" lon="5.69659">
        <ele>550.7</ele>
        <time>2019-04-26T08:56:36Z</time>
      </trkpt>
      <trkpt lat="45.40182" lon="5.69665">
        <ele>550.7</ele>
        <time>2019-04-26T08:56:37Z</time>
      </trkpt>
      <trkpt lat="45.40189" lon="5.6967">
        <ele>550.9</ele>
        <time>2019-04-26T08:56:38Z</time>
      </trkpt>
      <trkpt lat="45.40197" lon="5.69675">
        <ele>551.2</ele>
        <time>2019-04-26T08:56:39Z</time>
      </trkpt>
      <trkpt lat="45.40205" lon="5.69681">
        <ele>551.7</ele>
        <time>2019-04-26T08:56:40Z</time>
      </trkpt>
      <trkpt lat="45.40213" lon="5.69684">
        <ele>552.2</ele>
        <time>2019-04-26T08:56:41Z</time>
      </trkpt>
      <trkpt lat="45.4022" lon="5.69688">
        <ele>552.8</ele>
        <time>2019-04-26T08:56:42Z</time>
      </trkpt>
      <trkpt lat="45.40228" lon="5.69692">
        <ele>553.6</ele>
        <time>2019-04-26T08:56:43Z</time>
      </trkpt>
      <trkpt lat="45.40234" lon="5.69694">
        <ele>554.2</ele>
        <time>2019-04-26T08:56:44Z</time>
      </trkpt>
      <trkpt lat="45.40239" lon="5.69695">
        <ele>554.6</ele>
        <time>2019-04-26T08:56:45Z</time>
      </trkpt>
      <trkpt lat="45.40244" lon="5.69697">
        <ele>555.1</ele>
        <time>2019-04-26T08:56:46Z</time>
      </trkpt>
      <trkpt lat="45.40249" lon="5.69698">
        <ele>555.4</ele>
        <time>2019-04-26T08:56:47Z</time>
      </trkpt>
      <trkpt lat="45.40252" lon="5.69699">
        <ele>555.7</ele>
        <time>2019-04-26T08:56:48Z</time>
      </trkpt>
      <trkpt lat="45.40256" lon="5.69699">
        <ele>556</ele>
        <time>2019-04-26T08:56:49Z</time>
      </trkpt>
      <trkpt lat="45.40259" lon="5.69699">
        <ele>556.2</ele>
        <time>2019-04-26T08:56:50Z</time>
      </trkpt>
      <trkpt lat="45.40262" lon="5.697">
        <ele>556.5</ele>
        <time>2019-04-26T08:56:51Z</time>
      </trkpt>
      <trkpt lat="45.40265" lon="5.69701">
        <ele>556.7</ele>
        <time>2019-04-26T08:56:52Z</time>
      </trkpt>
      <trkpt lat="45.40269" lon="5.69702">
        <ele>556.9</ele>
        <time>2019-04-26T08:56:53Z</time>
      </trkpt>
      <trkpt lat="45.40271" lon="5.69704">
        <ele>557.1</ele>
        <time>2019-04-26T08:56:54Z</time>
      </trkpt>
      <trkpt lat="45.40273" lon="5.69708">
        <ele>557.3</ele>
        <time>2019-04-26T08:56:55Z</time>
      </trkpt>
      <trkpt lat="45.40275" lon="5.69712">
        <ele>557.5</ele>
        <time>2019-04-26T08:56:56Z</time>
      </trkpt>
      <trkpt lat="45.40276" lon="5.69719">
        <ele>557.7</ele>
        <time>2019-04-26T08:56:58Z</time>
      </trkpt>
      <trkpt lat="45.40276" lon="5.69723">
        <ele>557.8</ele>
        <time>2019-04-26T08:56:59Z</time>
      </trkpt>
      <trkpt lat="45.40276" lon="5.6973">
        <ele>558</ele>
        <time>2019-04-26T08:57:01Z</time>
      </trkpt>
      <trkpt lat="45.40277" lon="5.69736">
        <ele>558.1</ele>
        <time>2019-04-26T08:57:03Z</time>
      </trkpt>
      <trkpt lat="45.40279" lon="5.69742">
        <ele>558.3</ele>
        <time>2019-04-26T08:57:05Z</time>
      </trkpt>
      <trkpt lat="45.40282" lon="5.69749">
        <ele>558.4</ele>
        <time>2019-04-26T08:57:07Z</time>
      </trkpt>
      <trkpt lat="45.40283" lon="5.69753">
        <ele>558.5</ele>
        <time>2019-04-26T08:57:08Z</time>
      </trkpt>
      <trkpt lat="45.40285" lon="5.69757">
        <ele>558.6</ele>
        <time>2019-04-26T08:57:09Z</time>
      </trkpt>
      <trkpt lat="45.40287" lon="5.69762">
        <ele>558.6</ele>
        <time>2019-04-26T08:57:10Z</time>
      </trkpt>
      <trkpt lat="45.40289" lon="5.69766">
        <ele>558.7</ele>
        <time>2019-04-26T08:57:11Z</time>
      </trkpt>
      <trkpt lat="45.40291" lon="5.69771">
        <ele>558.7</ele>
        <time>2019-04-26T08:57:12Z</time>
      </trkpt>
      <trkpt lat="45.40293" lon="5.69775">
        <ele>558.8</ele>
        <time>2019-04-26T08:57:13Z</time>
      </trkpt>
      <trkpt lat="45.40295" lon="5.69779">
        <ele>558.9</ele>
        <time>2019-04-26T08:57:14Z</time>
      </trkpt>
      <trkpt lat="45.40297" lon="5.69783">
        <ele>558.9</ele>
        <time>2019-04-26T08:57:15Z</time>
      </trkpt>
      <trkpt lat="45.403" lon="5.69787">
        <ele>559</ele>
        <time>2019-04-26T08:57:16Z</time>
      </trkpt>
      <trkpt lat="45.40302" lon="5.69791">
        <ele>559</ele>
        <time>2019-04-26T08:57:17Z</time>
      </trkpt>
      <trkpt lat="45.40305" lon="5.69795">
        <ele>559</ele>
        <time>2019-04-26T08:57:18Z</time>
      </trkpt>
      <trkpt lat="45.40307" lon="5.69798">
        <ele>559</ele>
        <time>2019-04-26T08:57:19Z</time>
      </trkpt>
      <trkpt lat="45.40309" lon="5.69801">
        <ele>559.1</ele>
        <time>2019-04-26T08:57:22Z</time>
      </trkpt>
      <trkpt lat="45.40333" lon="5.69826">
        <ele>559.2</ele>
        <time>2019-04-26T08:57:26Z</time>
      </trkpt>
      <trkpt lat="45.40341" lon="5.69834">
        <ele>559.4</ele>
        <time>2019-04-26T08:57:27Z</time>
      </trkpt>
      <trkpt lat="45.40344" lon="5.69838">
        <ele>559.5</ele>
        <time>2019-04-26T08:57:28Z</time>
      </trkpt>
      <trkpt lat="45.40342" lon="5.69836">
        <ele>559.6</ele>
        <time>2019-04-26T08:57:39Z</time>
      </trkpt>
      <trkpt lat="45.40338" lon="5.69835">
        <ele>559.7</ele>
        <time>2019-04-26T08:57:41Z</time>
      </trkpt>
      <trkpt lat="45.40336" lon="5.69838">
        <ele>559.8</ele>
        <time>2019-04-26T08:57:56Z</time>
      </trkpt>
      <trkpt lat="45.40337" lon="5.69842">
        <ele>559.9</ele>
        <time>2019-04-26T08:57:58Z</time>
      </trkpt>
      <trkpt lat="45.40336" lon="5.69846">
        <ele>560</ele>
        <time>2019-04-26T08:58:00Z</time>
      </trkpt>
      <trkpt lat="45.40334" lon="5.69851">
        <ele>560.2</ele>
        <time>2019-04-26T08:58:02Z</time>
      </trkpt>
      <trkpt lat="45.40333" lon="5.69857">
        <ele>560.4</ele>
        <time>2019-04-26T08:58:04Z</time>
      </trkpt>
      <trkpt lat="45.40332" lon="5.69863">
        <ele>560.7</ele>
        <time>2019-04-26T08:58:06Z</time>
      </trkpt>
      <trkpt lat="45.4033" lon="5.69869">
        <ele>560.9</ele>
        <time>2019-04-26T08:58:07Z</time>
      </trkpt>
      <trkpt lat="45.40326" lon="5.69887">
        <ele>561.5</ele>
        <time>2019-04-26T08:58:08Z</time>
      </trkpt>
      <trkpt lat="45.40326" lon="5.69892">
        <ele>561.6</ele>
        <time>2019-04-26T08:58:09Z</time>
      </trkpt>
      <trkpt lat="45.40324" lon="5.69897">
        <ele>561.7</ele>
        <time>2019-04-26T08:58:10Z</time>
      </trkpt>
      <trkpt lat="45.40323" lon="5.69903">
        <ele>561.7</ele>
        <time>2019-04-26T08:58:11Z</time>
      </trkpt>
      <trkpt lat="45.40323" lon="5.69908">
        <ele>561.8</ele>
        <time>2019-04-26T08:58:12Z</time>
      </trkpt>
      <trkpt lat="45.40322" lon="5.69914">
        <ele>561.8</ele>
        <time>2019-04-26T08:58:13Z</time>
      </trkpt>
      <trkpt lat="45.4032" lon="5.69919">
        <ele>561.8</ele>
        <time>2019-04-26T08:58:15Z</time>
      </trkpt>
      <trkpt lat="45.40315" lon="5.69926">
        <ele>561.6</ele>
        <time>2019-04-26T08:58:17Z</time>
      </trkpt>
      <trkpt lat="45.40312" lon="5.6993">
        <ele>561.5</ele>
        <time>2019-04-26T08:58:18Z</time>
      </trkpt>
      <trkpt lat="45.40308" lon="5.69934">
        <ele>561.3</ele>
        <time>2019-04-26T08:58:19Z</time>
      </trkpt>
      <trkpt lat="45.40304" lon="5.69938">
        <ele>561.2</ele>
        <time>2019-04-26T08:58:20Z</time>
      </trkpt>
      <trkpt lat="45.40302" lon="5.69942">
        <ele>561.1</ele>
        <time>2019-04-26T08:58:21Z</time>
      </trkpt>
      <trkpt lat="45.40298" lon="5.69945">
        <ele>561</ele>
        <time>2019-04-26T08:58:22Z</time>
      </trkpt>
      <trkpt lat="45.40294" lon="5.6995">
        <ele>561</ele>
        <time>2019-04-26T08:58:23Z</time>
      </trkpt>
      <trkpt lat="45.40291" lon="5.69953">
        <ele>560.9</ele>
        <time>2019-04-26T08:58:24Z</time>
      </trkpt>
      <trkpt lat="45.40286" lon="5.69958">
        <ele>560.9</ele>
        <time>2019-04-26T08:58:25Z</time>
      </trkpt>
      <trkpt lat="45.4028" lon="5.69963">
        <ele>560.9</ele>
        <time>2019-04-26T08:58:26Z</time>
      </trkpt>
      <trkpt lat="45.40276" lon="5.69968">
        <ele>561</ele>
        <time>2019-04-26T08:58:27Z</time>
      </trkpt>
      <trkpt lat="45.40273" lon="5.69971">
        <ele>561</ele>
        <time>2019-04-26T08:58:28Z</time>
      </trkpt>
      <trkpt lat="45.40269" lon="5.69976">
        <ele>561.2</ele>
        <time>2019-04-26T08:58:29Z</time>
      </trkpt>
      <trkpt lat="45.40271" lon="5.69973">
        <ele>561.2</ele>
        <time>2019-04-26T08:58:30Z</time>
      </trkpt>
      <trkpt lat="45.40271" lon="5.69981">
        <ele>561.4</ele>
        <time>2019-04-26T08:58:31Z</time>
      </trkpt>
      <trkpt lat="45.40269" lon="5.69984">
        <ele>561.4</ele>
        <time>2019-04-26T08:58:33Z</time>
      </trkpt>
      <trkpt lat="45.40267" lon="5.69989">
        <ele>561.5</ele>
        <time>2019-04-26T08:58:35Z</time>
      </trkpt>
      <trkpt lat="45.40264" lon="5.69994">
        <ele>561.6</ele>
        <time>2019-04-26T08:58:37Z</time>
      </trkpt>
      <trkpt lat="45.40263" lon="5.69999">
        <ele>561.6</ele>
        <time>2019-04-26T08:58:38Z</time>
      </trkpt>
      <trkpt lat="45.40264" lon="5.70004">
        <ele>561.7</ele>
        <time>2019-04-26T08:58:39Z</time>
      </trkpt>
      <trkpt lat="45.40264" lon="5.70009">
        <ele>561.7</ele>
        <time>2019-04-26T08:58:40Z</time>
      </trkpt>
      <trkpt lat="45.40264" lon="5.70014">
        <ele>561.7</ele>
        <time>2019-04-26T08:58:41Z</time>
      </trkpt>
      <trkpt lat="45.40263" lon="5.7002">
        <ele>561.8</ele>
        <time>2019-04-26T08:58:42Z</time>
      </trkpt>
      <trkpt lat="45.40261" lon="5.70025">
        <ele>561.8</ele>
        <time>2019-04-26T08:58:43Z</time>
      </trkpt>
      <trkpt lat="45.4026" lon="5.70029">
        <ele>561.8</ele>
        <time>2019-04-26T08:58:44Z</time>
      </trkpt>
      <trkpt lat="45.40259" lon="5.70033">
        <ele>561.8</ele>
        <time>2019-04-26T08:58:45Z</time>
      </trkpt>
      <trkpt lat="45.40257" lon="5.70039">
        <ele>561.8</ele>
        <time>2019-04-26T08:58:46Z</time>
      </trkpt>
      <trkpt lat="45.40256" lon="5.70044">
        <ele>561.8</ele>
        <time>2019-04-26T08:58:47Z</time>
      </trkpt>
      <trkpt lat="45.40255" lon="5.7005">
        <ele>561.7</ele>
        <time>2019-04-26T08:58:48Z</time>
      </trkpt>
      <trkpt lat="45.40255" lon="5.70055">
        <ele>561.7</ele>
        <time>2019-04-26T08:58:50Z</time>
      </trkpt>
      <trkpt lat="45.40254" lon="5.70065">
        <ele>561.6</ele>
        <time>2019-04-26T08:58:52Z</time>
      </trkpt>
      <trkpt lat="45.40253" lon="5.70072">
        <ele>561.5</ele>
        <time>2019-04-26T08:58:53Z</time>
      </trkpt>
      <trkpt lat="45.40252" lon="5.70082">
        <ele>561.4</ele>
        <time>2019-04-26T08:58:54Z</time>
      </trkpt>
      <trkpt lat="45.40252" lon="5.70091">
        <ele>561.2</ele>
        <time>2019-04-26T08:58:55Z</time>
      </trkpt>
      <trkpt lat="45.40253" lon="5.70098">
        <ele>561.1</ele>
        <time>2019-04-26T08:58:56Z</time>
      </trkpt>
      <trkpt lat="45.40253" lon="5.70105">
        <ele>560.9</ele>
        <time>2019-04-26T08:58:57Z</time>
      </trkpt>
      <trkpt lat="45.40253" lon="5.70114">
        <ele>560.8</ele>
        <time>2019-04-26T08:58:58Z</time>
      </trkpt>
      <trkpt lat="45.40253" lon="5.70124">
        <ele>560.6</ele>
        <time>2019-04-26T08:58:59Z</time>
      </trkpt>
      <trkpt lat="45.40253" lon="5.70129">
        <ele>560.5</ele>
        <time>2019-04-26T08:59:00Z</time>
      </trkpt>
      <trkpt lat="45.40253" lon="5.70136">
        <ele>560.3</ele>
        <time>2019-04-26T08:59:01Z</time>
      </trkpt>
      <trkpt lat="45.40254" lon="5.70144">
        <ele>560.2</ele>
        <time>2019-04-26T08:59:02Z</time>
      </trkpt>
      <trkpt lat="45.40254" lon="5.70153">
        <ele>560</ele>
        <time>2019-04-26T08:59:03Z</time>
      </trkpt>
      <trkpt lat="45.40257" lon="5.70168">
        <ele>559.8</ele>
        <time>2019-04-26T08:59:04Z</time>
      </trkpt>
      <trkpt lat="45.40255" lon="5.70177">
        <ele>559.7</ele>
        <time>2019-04-26T08:59:05Z</time>
      </trkpt>
      <trkpt lat="45.40253" lon="5.70187">
        <ele>559.5</ele>
        <time>2019-04-26T08:59:06Z</time>
      </trkpt>
      <trkpt lat="45.40255" lon="5.70196">
        <ele>559.3</ele>
        <time>2019-04-26T08:59:07Z</time>
      </trkpt>
      <trkpt lat="45.40257" lon="5.70204">
        <ele>559.2</ele>
        <time>2019-04-26T08:59:08Z</time>
      </trkpt>
      <trkpt lat="45.40257" lon="5.7021">
        <ele>559.1</ele>
        <time>2019-04-26T08:59:09Z</time>
      </trkpt>
      <trkpt lat="45.40257" lon="5.70216">
        <ele>559</ele>
        <time>2019-04-26T08:59:10Z</time>
      </trkpt>
      <trkpt lat="45.40258" lon="5.70221">
        <ele>559</ele>
        <time>2019-04-26T08:59:11Z</time>
      </trkpt>
      <trkpt lat="45.40256" lon="5.70223">
        <ele>558.9</ele>
        <time>2019-04-26T08:59:12Z</time>
      </trkpt>
      <trkpt lat="45.40255" lon="5.70232">
        <ele>558.8</ele>
        <time>2019-04-26T09:01:33Z</time>
      </trkpt>
      <trkpt lat="45.40254" lon="5.70235">
        <ele>558.8</ele>
        <time>2019-04-26T09:01:34Z</time>
      </trkpt>
      <trkpt lat="45.40252" lon="5.70239">
        <ele>558.8</ele>
        <time>2019-04-26T09:01:35Z</time>
      </trkpt>
      <trkpt lat="45.40253" lon="5.70245">
        <ele>558.7</ele>
        <time>2019-04-26T09:01:36Z</time>
      </trkpt>
      <trkpt lat="45.40252" lon="5.70253">
        <ele>558.6</ele>
        <time>2019-04-26T09:01:37Z</time>
      </trkpt>
      <trkpt lat="45.4025" lon="5.70259">
        <ele>558.6</ele>
        <time>2019-04-26T09:01:39Z</time>
      </trkpt>
      <trkpt lat="45.40248" lon="5.70265">
        <ele>558.5</ele>
        <time>2019-04-26T09:01:40Z</time>
      </trkpt>
      <trkpt lat="45.40246" lon="5.7027">
        <ele>558.4</ele>
        <time>2019-04-26T09:01:41Z</time>
      </trkpt>
      <trkpt lat="45.40246" lon="5.70278">
        <ele>558.3</ele>
        <time>2019-04-26T09:01:48Z</time>
      </trkpt>
      <trkpt lat="45.40245" lon="5.70281">
        <ele>558.2</ele>
        <time>2019-04-26T09:02:05Z</time>
      </trkpt>
      <trkpt lat="45.40243" lon="5.70284">
        <ele>558.2</ele>
        <time>2019-04-26T09:02:06Z</time>
      </trkpt>
      <trkpt lat="45.40244" lon="5.70296">
        <ele>558</ele>
        <time>2019-04-26T09:02:07Z</time>
      </trkpt>
      <trkpt lat="45.40244" lon="5.70303">
        <ele>557.9</ele>
        <time>2019-04-26T09:02:08Z</time>
      </trkpt>
      <trkpt lat="45.40244" lon="5.70312">
        <ele>557.9</ele>
        <time>2019-04-26T09:02:10Z</time>
      </trkpt>
      <trkpt lat="45.40245" lon="5.70318">
        <ele>557.9</ele>
        <time>2019-04-26T09:02:11Z</time>
      </trkpt>
      <trkpt lat="45.40245" lon="5.70323">
        <ele>557.8</ele>
        <time>2019-04-26T09:02:12Z</time>
      </trkpt>
      <trkpt lat="45.40247" lon="5.70331">
        <ele>557.8</ele>
        <time>2019-04-26T09:02:15Z</time>
      </trkpt>
      <trkpt lat="45.4025" lon="5.70339">
        <ele>557.8</ele>
        <time>2019-04-26T09:02:16Z</time>
      </trkpt>
      <trkpt lat="45.40254" lon="5.70347">
        <ele>557.8</ele>
        <time>2019-04-26T09:02:17Z</time>
      </trkpt>
      <trkpt lat="45.4026" lon="5.70365">
        <ele>557.8</ele>
        <time>2019-04-26T09:02:18Z</time>
      </trkpt>
      <trkpt lat="45.40266" lon="5.70374">
        <ele>557.7</ele>
        <time>2019-04-26T09:02:19Z</time>
      </trkpt>
      <trkpt lat="45.4027" lon="5.7038">
        <ele>557.6</ele>
        <time>2019-04-26T09:02:20Z</time>
      </trkpt>
      <trkpt lat="45.40274" lon="5.70385">
        <ele>557.5</ele>
        <time>2019-04-26T09:02:21Z</time>
      </trkpt>
      <trkpt lat="45.40277" lon="5.7039">
        <ele>557.3</ele>
        <time>2019-04-26T09:02:22Z</time>
      </trkpt>
      <trkpt lat="45.40283" lon="5.70397">
        <ele>557.1</ele>
        <time>2019-04-26T09:02:23Z</time>
      </trkpt>
      <trkpt lat="45.40289" lon="5.70402">
        <ele>556.7</ele>
        <time>2019-04-26T09:02:24Z</time>
      </trkpt>
      <trkpt lat="45.40294" lon="5.70406">
        <ele>556.5</ele>
        <time>2019-04-26T09:02:25Z</time>
      </trkpt>
      <trkpt lat="45.40298" lon="5.70411">
        <ele>556.2</ele>
        <time>2019-04-26T09:02:26Z</time>
      </trkpt>
      <trkpt lat="45.40304" lon="5.70418">
        <ele>555.8</ele>
        <time>2019-04-26T09:02:27Z</time>
      </trkpt>
      <trkpt lat="45.40309" lon="5.70423">
        <ele>555.6</ele>
        <time>2019-04-26T09:02:28Z</time>
      </trkpt>
      <trkpt lat="45.40313" lon="5.70427">
        <ele>555.4</ele>
        <time>2019-04-26T09:02:29Z</time>
      </trkpt>
      <trkpt lat="45.40317" lon="5.70432">
        <ele>555.1</ele>
        <time>2019-04-26T09:02:30Z</time>
      </trkpt>
      <trkpt lat="45.40322" lon="5.70437">
        <ele>554.8</ele>
        <time>2019-04-26T09:02:31Z</time>
      </trkpt>
      <trkpt lat="45.40328" lon="5.70443">
        <ele>554.4</ele>
        <time>2019-04-26T09:02:32Z</time>
      </trkpt>
      <trkpt lat="45.40335" lon="5.70448">
        <ele>554</ele>
        <time>2019-04-26T09:02:33Z</time>
      </trkpt>
      <trkpt lat="45.40341" lon="5.70454">
        <ele>553.7</ele>
        <time>2019-04-26T09:02:34Z</time>
      </trkpt>
      <trkpt lat="45.40347" lon="5.7046">
        <ele>553.6</ele>
        <time>2019-04-26T09:02:35Z</time>
      </trkpt>
      <trkpt lat="45.40353" lon="5.70466">
        <ele>553.5</ele>
        <time>2019-04-26T09:02:36Z</time>
      </trkpt>
      <trkpt lat="45.40358" lon="5.70472">
        <ele>553.4</ele>
        <time>2019-04-26T09:02:37Z</time>
      </trkpt>
      <trkpt lat="45.40362" lon="5.70477">
        <ele>553.3</ele>
        <time>2019-04-26T09:02:38Z</time>
      </trkpt>
      <trkpt lat="45.40366" lon="5.70481">
        <ele>553.1</ele>
        <time>2019-04-26T09:02:39Z</time>
      </trkpt>
      <trkpt lat="45.40369" lon="5.70485">
        <ele>553</ele>
        <time>2019-04-26T09:02:40Z</time>
      </trkpt>
      <trkpt lat="45.40372" lon="5.70489">
        <ele>553</ele>
        <time>2019-04-26T09:02:41Z</time>
      </trkpt>
      <trkpt lat="45.40374" lon="5.70493">
        <ele>552.9</ele>
        <time>2019-04-26T09:02:42Z</time>
      </trkpt>
      <trkpt lat="45.40376" lon="5.70497">
        <ele>552.8</ele>
        <time>2019-04-26T09:02:43Z</time>
      </trkpt>
      <trkpt lat="45.40374" lon="5.70499">
        <ele>552.7</ele>
        <time>2019-04-26T09:02:56Z</time>
      </trkpt>
      <trkpt lat="45.40374" lon="5.70504">
        <ele>552.6</ele>
        <time>2019-04-26T09:03:04Z</time>
      </trkpt>
      <trkpt lat="45.40376" lon="5.70506">
        <ele>552.6</ele>
        <time>2019-04-26T09:03:08Z</time>
      </trkpt>
      <trkpt lat="45.40378" lon="5.705">
        <ele>552.4</ele>
        <time>2019-04-26T09:03:11Z</time>
      </trkpt>
      <trkpt lat="45.40376" lon="5.70496">
        <ele>552.3</ele>
        <time>2019-04-26T09:03:12Z</time>
      </trkpt>
      <trkpt lat="45.40373" lon="5.70493">
        <ele>552.2</ele>
        <time>2019-04-26T09:03:13Z</time>
      </trkpt>
      <trkpt lat="45.4037" lon="5.7049">
        <ele>552.4</ele>
        <time>2019-04-26T09:03:14Z</time>
      </trkpt>
      <trkpt lat="45.40368" lon="5.70488">
        <ele>552.5</ele>
        <time>2019-04-26T09:03:15Z</time>
      </trkpt>
      <trkpt lat="45.40363" lon="5.70485">
        <ele>552.6</ele>
        <time>2019-04-26T09:03:17Z</time>
      </trkpt>
      <trkpt lat="45.40359" lon="5.70481">
        <ele>552.8</ele>
        <time>2019-04-26T09:03:19Z</time>
      </trkpt>
      <trkpt lat="45.40356" lon="5.70479">
        <ele>552.9</ele>
        <time>2019-04-26T09:03:20Z</time>
      </trkpt>
      <trkpt lat="45.40354" lon="5.70477">
        <ele>553</ele>
        <time>2019-04-26T09:03:21Z</time>
      </trkpt>
      <trkpt lat="45.40352" lon="5.70474">
        <ele>553.1</ele>
        <time>2019-04-26T09:03:22Z</time>
      </trkpt>
      <trkpt lat="45.40349" lon="5.70471">
        <ele>553.1</ele>
        <time>2019-04-26T09:03:23Z</time>
      </trkpt>
      <trkpt lat="45.40347" lon="5.70469">
        <ele>553.2</ele>
        <time>2019-04-26T09:03:24Z</time>
      </trkpt>
      <trkpt lat="45.40345" lon="5.70466">
        <ele>553.3</ele>
        <time>2019-04-26T09:03:25Z</time>
      </trkpt>
      <trkpt lat="45.40343" lon="5.70469">
        <ele>553.3</ele>
        <time>2019-04-26T09:03:29Z</time>
      </trkpt>
      <trkpt lat="45.40344" lon="5.70474">
        <ele>553.4</ele>
        <time>2019-04-26T09:03:30Z</time>
      </trkpt>
      <trkpt lat="45.40345" lon="5.70479">
        <ele>552.5</ele>
        <time>2019-04-26T09:03:31Z</time>
      </trkpt>
      <trkpt lat="45.40347" lon="5.70483">
        <ele>551.9</ele>
        <time>2019-04-26T09:03:32Z</time>
      </trkpt>
      <trkpt lat="45.40349" lon="5.70487">
        <ele>551.3</ele>
        <time>2019-04-26T09:03:33Z</time>
      </trkpt>
      <trkpt lat="45.40351" lon="5.70491">
        <ele>550.7</ele>
        <time>2019-04-26T09:03:34Z</time>
      </trkpt>
      <trkpt lat="45.40353" lon="5.70495">
        <ele>550.1</ele>
        <time>2019-04-26T09:03:35Z</time>
      </trkpt>
      <trkpt lat="45.40356" lon="5.70498">
        <ele>549.6</ele>
        <time>2019-04-26T09:03:36Z</time>
      </trkpt>
      <trkpt lat="45.40359" lon="5.70502">
        <ele>549</ele>
        <time>2019-04-26T09:03:37Z</time>
      </trkpt>
      <trkpt lat="45.40362" lon="5.70506">
        <ele>548.4</ele>
        <time>2019-04-26T09:03:38Z</time>
      </trkpt>
      <trkpt lat="45.40365" lon="5.7051">
        <ele>548.3</ele>
        <time>2019-04-26T09:03:39Z</time>
      </trkpt>
      <trkpt lat="45.40368" lon="5.70514">
        <ele>548.1</ele>
        <time>2019-04-26T09:03:40Z</time>
      </trkpt>
      <trkpt lat="45.40371" lon="5.70517">
        <ele>547.8</ele>
        <time>2019-04-26T09:03:41Z</time>
      </trkpt>
      <trkpt lat="45.40373" lon="5.7052">
        <ele>547.4</ele>
        <time>2019-04-26T09:03:42Z</time>
      </trkpt>
      <trkpt lat="45.40376" lon="5.70522">
        <ele>547.1</ele>
        <time>2019-04-26T09:03:43Z</time>
      </trkpt>
      <trkpt lat="45.40382" lon="5.70526">
        <ele>546.3</ele>
        <time>2019-04-26T09:03:45Z</time>
      </trkpt>
      <trkpt lat="45.40386" lon="5.70529">
        <ele>545.8</ele>
        <time>2019-04-26T09:04:08Z</time>
      </trkpt>
      <trkpt lat="45.4039" lon="5.70532">
        <ele>545.3</ele>
        <time>2019-04-26T09:04:09Z</time>
      </trkpt>
      <trkpt lat="45.40391" lon="5.70536">
        <ele>544.8</ele>
        <time>2019-04-26T09:04:10Z</time>
      </trkpt>
      <trkpt lat="45.40394" lon="5.70541">
        <ele>544</ele>
        <time>2019-04-26T09:04:11Z</time>
      </trkpt>
      <trkpt lat="45.40396" lon="5.70547">
        <ele>543.1</ele>
        <time>2019-04-26T09:04:12Z</time>
      </trkpt>
      <trkpt lat="45.40398" lon="5.70552">
        <ele>542.6</ele>
        <time>2019-04-26T09:04:13Z</time>
      </trkpt>
      <trkpt lat="45.404" lon="5.70557">
        <ele>542.3</ele>
        <time>2019-04-26T09:04:14Z</time>
      </trkpt>
      <trkpt lat="45.40401" lon="5.70563">
        <ele>541.7</ele>
        <time>2019-04-26T09:04:15Z</time>
      </trkpt>
      <trkpt lat="45.40406" lon="5.70568">
        <ele>541</ele>
        <time>2019-04-26T09:04:16Z</time>
      </trkpt>
      <trkpt lat="45.40408" lon="5.70572">
        <ele>540.5</ele>
        <time>2019-04-26T09:04:17Z</time>
      </trkpt>
      <trkpt lat="45.40411" lon="5.7058">
        <ele>539.7</ele>
        <time>2019-04-26T09:04:19Z</time>
      </trkpt>
      <trkpt lat="45.40413" lon="5.70585">
        <ele>539.2</ele>
        <time>2019-04-26T09:04:20Z</time>
      </trkpt>
      <trkpt lat="45.40416" lon="5.70588">
        <ele>538.7</ele>
        <time>2019-04-26T09:04:21Z</time>
      </trkpt>
      <trkpt lat="45.40419" lon="5.70591">
        <ele>538.1</ele>
        <time>2019-04-26T09:04:22Z</time>
      </trkpt>
      <trkpt lat="45.40422" lon="5.70595">
        <ele>537.5</ele>
        <time>2019-04-26T09:04:23Z</time>
      </trkpt>
      <trkpt lat="45.40424" lon="5.70598">
        <ele>537.1</ele>
        <time>2019-04-26T09:04:24Z</time>
      </trkpt>
      <trkpt lat="45.40426" lon="5.70602">
        <ele>536.6</ele>
        <time>2019-04-26T09:04:25Z</time>
      </trkpt>
      <trkpt lat="45.4043" lon="5.70607">
        <ele>535.9</ele>
        <time>2019-04-26T09:04:27Z</time>
      </trkpt>
      <trkpt lat="45.40432" lon="5.7061">
        <ele>535.5</ele>
        <time>2019-04-26T09:04:28Z</time>
      </trkpt>
      <trkpt lat="45.40435" lon="5.70614">
        <ele>534.9</ele>
        <time>2019-04-26T09:04:29Z</time>
      </trkpt>
      <trkpt lat="45.40438" lon="5.70617">
        <ele>534.4</ele>
        <time>2019-04-26T09:04:30Z</time>
      </trkpt>
      <trkpt lat="45.4044" lon="5.70621">
        <ele>534</ele>
        <time>2019-04-26T09:04:31Z</time>
      </trkpt>
      <trkpt lat="45.40443" lon="5.70624">
        <ele>533.5</ele>
        <time>2019-04-26T09:04:32Z</time>
      </trkpt>
      <trkpt lat="45.40444" lon="5.70628">
        <ele>533.1</ele>
        <time>2019-04-26T09:04:33Z</time>
      </trkpt>
      <trkpt lat="45.40447" lon="5.70632">
        <ele>532.7</ele>
        <time>2019-04-26T09:04:34Z</time>
      </trkpt>
      <trkpt lat="45.40449" lon="5.70636">
        <ele>532.2</ele>
        <time>2019-04-26T09:04:35Z</time>
      </trkpt>
      <trkpt lat="45.40452" lon="5.70639">
        <ele>531.7</ele>
        <time>2019-04-26T09:04:36Z</time>
      </trkpt>
      <trkpt lat="45.40455" lon="5.70643">
        <ele>531.2</ele>
        <time>2019-04-26T09:04:37Z</time>
      </trkpt>
      <trkpt lat="45.40459" lon="5.70646">
        <ele>530.7</ele>
        <time>2019-04-26T09:04:38Z</time>
      </trkpt>
      <trkpt lat="45.40462" lon="5.7065">
        <ele>530.2</ele>
        <time>2019-04-26T09:04:39Z</time>
      </trkpt>
      <trkpt lat="45.40466" lon="5.70654">
        <ele>529.8</ele>
        <time>2019-04-26T09:04:40Z</time>
      </trkpt>
      <trkpt lat="45.40471" lon="5.70656">
        <ele>529.3</ele>
        <time>2019-04-26T09:04:41Z</time>
      </trkpt>
      <trkpt lat="45.40475" lon="5.70659">
        <ele>529</ele>
        <time>2019-04-26T09:04:42Z</time>
      </trkpt>
      <trkpt lat="45.40479" lon="5.70661">
        <ele>528.8</ele>
        <time>2019-04-26T09:04:43Z</time>
      </trkpt>
      <trkpt lat="45.40483" lon="5.70662">
        <ele>528.5</ele>
        <time>2019-04-26T09:04:44Z</time>
      </trkpt>
      <trkpt lat="45.40488" lon="5.70664">
        <ele>528.3</ele>
        <time>2019-04-26T09:04:45Z</time>
      </trkpt>
      <trkpt lat="45.40493" lon="5.70668">
        <ele>528</ele>
        <time>2019-04-26T09:04:47Z</time>
      </trkpt>
      <trkpt lat="45.40495" lon="5.70669">
        <ele>527.9</ele>
        <time>2019-04-26T09:04:48Z</time>
      </trkpt>
      <trkpt lat="45.40494" lon="5.70674">
        <ele>527.7</ele>
        <time>2019-04-26T09:04:49Z</time>
      </trkpt>
      <trkpt lat="45.40492" lon="5.70678">
        <ele>527.6</ele>
        <time>2019-04-26T09:04:50Z</time>
      </trkpt>
      <trkpt lat="45.40491" lon="5.70684">
        <ele>527.3</ele>
        <time>2019-04-26T09:04:51Z</time>
      </trkpt>
      <trkpt lat="45.4049" lon="5.70688">
        <ele>527.1</ele>
        <time>2019-04-26T09:04:52Z</time>
      </trkpt>
      <trkpt lat="45.40488" lon="5.70693">
        <ele>526.9</ele>
        <time>2019-04-26T09:04:53Z</time>
      </trkpt>
      <trkpt lat="45.40486" lon="5.70698">
        <ele>526.7</ele>
        <time>2019-04-26T09:04:54Z</time>
      </trkpt>
      <trkpt lat="45.40485" lon="5.70703">
        <ele>526.5</ele>
        <time>2019-04-26T09:04:55Z</time>
      </trkpt>
      <trkpt lat="45.40482" lon="5.70708">
        <ele>526.3</ele>
        <time>2019-04-26T09:04:56Z</time>
      </trkpt>
      <trkpt lat="45.40481" lon="5.70712">
        <ele>526</ele>
        <time>2019-04-26T09:04:57Z</time>
      </trkpt>
      <trkpt lat="45.40484" lon="5.70716">
        <ele>525.6</ele>
        <time>2019-04-26T09:04:58Z</time>
      </trkpt>
      <trkpt lat="45.40487" lon="5.70721">
        <ele>525.3</ele>
        <time>2019-04-26T09:04:59Z</time>
      </trkpt>
      <trkpt lat="45.40489" lon="5.70725">
        <ele>525</ele>
        <time>2019-04-26T09:05:00Z</time>
      </trkpt>
      <trkpt lat="45.40492" lon="5.70731">
        <ele>524.5</ele>
        <time>2019-04-26T09:05:01Z</time>
      </trkpt>
      <trkpt lat="45.40496" lon="5.70736">
        <ele>524</ele>
        <time>2019-04-26T09:05:02Z</time>
      </trkpt>
      <trkpt lat="45.40501" lon="5.7074">
        <ele>523.4</ele>
        <time>2019-04-26T09:05:03Z</time>
      </trkpt>
      <trkpt lat="45.40505" lon="5.70745">
        <ele>522.9</ele>
        <time>2019-04-26T09:05:04Z</time>
      </trkpt>
      <trkpt lat="45.40508" lon="5.7075">
        <ele>522.7</ele>
        <time>2019-04-26T09:05:05Z</time>
      </trkpt>
      <trkpt lat="45.40512" lon="5.70754">
        <ele>522.3</ele>
        <time>2019-04-26T09:05:06Z</time>
      </trkpt>
      <trkpt lat="45.40516" lon="5.70757">
        <ele>522</ele>
        <time>2019-04-26T09:05:07Z</time>
      </trkpt>
      <trkpt lat="45.4052" lon="5.70762">
        <ele>521.4</ele>
        <time>2019-04-26T09:05:08Z</time>
      </trkpt>
      <trkpt lat="45.40522" lon="5.70766">
        <ele>521.1</ele>
        <time>2019-04-26T09:05:09Z</time>
      </trkpt>
      <trkpt lat="45.40524" lon="5.7077">
        <ele>520.7</ele>
        <time>2019-04-26T09:05:10Z</time>
      </trkpt>
      <trkpt lat="45.40527" lon="5.70774">
        <ele>520.3</ele>
        <time>2019-04-26T09:05:11Z</time>
      </trkpt>
      <trkpt lat="45.40531" lon="5.70778">
        <ele>519.6</ele>
        <time>2019-04-26T09:05:13Z</time>
      </trkpt>
      <trkpt lat="45.40533" lon="5.70781">
        <ele>519.4</ele>
        <time>2019-04-26T09:05:14Z</time>
      </trkpt>
      <trkpt lat="45.40537" lon="5.70784">
        <ele>519.1</ele>
        <time>2019-04-26T09:05:15Z</time>
      </trkpt>
      <trkpt lat="45.4054" lon="5.70788">
        <ele>518.5</ele>
        <time>2019-04-26T09:05:16Z</time>
      </trkpt>
      <trkpt lat="45.40545" lon="5.70792">
        <ele>517.8</ele>
        <time>2019-04-26T09:05:17Z</time>
      </trkpt>
      <trkpt lat="45.40549" lon="5.70795">
        <ele>517.3</ele>
        <time>2019-04-26T09:05:18Z</time>
      </trkpt>
      <trkpt lat="45.40555" lon="5.70798">
        <ele>516.7</ele>
        <time>2019-04-26T09:05:19Z</time>
      </trkpt>
      <trkpt lat="45.40561" lon="5.70801">
        <ele>515.8</ele>
        <time>2019-04-26T09:05:20Z</time>
      </trkpt>
      <trkpt lat="45.40568" lon="5.70805">
        <ele>514.9</ele>
        <time>2019-04-26T09:05:21Z</time>
      </trkpt>
      <trkpt lat="45.40571" lon="5.70809">
        <ele>514.3</ele>
        <time>2019-04-26T09:05:22Z</time>
      </trkpt>
      <trkpt lat="45.40578" lon="5.70811">
        <ele>512.9</ele>
        <time>2019-04-26T09:05:23Z</time>
      </trkpt>
      <trkpt lat="45.40583" lon="5.70814">
        <ele>511.8</ele>
        <time>2019-04-26T09:05:24Z</time>
      </trkpt>
      <trkpt lat="45.40587" lon="5.70819">
        <ele>510.9</ele>
        <time>2019-04-26T09:05:25Z</time>
      </trkpt>
      <trkpt lat="45.40592" lon="5.70822">
        <ele>509.6</ele>
        <time>2019-04-26T09:05:26Z</time>
      </trkpt>
      <trkpt lat="45.40599" lon="5.70825">
        <ele>508.2</ele>
        <time>2019-04-26T09:05:27Z</time>
      </trkpt>
      <trkpt lat="45.40606" lon="5.70828">
        <ele>506.9</ele>
        <time>2019-04-26T09:05:28Z</time>
      </trkpt>
      <trkpt lat="45.40609" lon="5.70833">
        <ele>506.3</ele>
        <time>2019-04-26T09:05:29Z</time>
      </trkpt>
      <trkpt lat="45.40612" lon="5.7084">
        <ele>505.4</ele>
        <time>2019-04-26T09:05:30Z</time>
      </trkpt>
      <trkpt lat="45.40617" lon="5.70844">
        <ele>504.4</ele>
        <time>2019-04-26T09:05:31Z</time>
      </trkpt>
      <trkpt lat="45.40624" lon="5.70847">
        <ele>503.3</ele>
        <time>2019-04-26T09:05:32Z</time>
      </trkpt>
      <trkpt lat="45.40629" lon="5.70852">
        <ele>502.6</ele>
        <time>2019-04-26T09:05:33Z</time>
      </trkpt>
      <trkpt lat="45.40635" lon="5.70857">
        <ele>501.8</ele>
        <time>2019-04-26T09:05:34Z</time>
      </trkpt>
      <trkpt lat="45.40639" lon="5.7086">
        <ele>501.4</ele>
        <time>2019-04-26T09:05:35Z</time>
      </trkpt>
      <trkpt lat="45.40642" lon="5.70862">
        <ele>501.1</ele>
        <time>2019-04-26T09:05:36Z</time>
      </trkpt>
      <trkpt lat="45.40646" lon="5.70863">
        <ele>500.6</ele>
        <time>2019-04-26T09:05:37Z</time>
      </trkpt>
      <trkpt lat="45.40651" lon="5.70865">
        <ele>499.9</ele>
        <time>2019-04-26T09:05:38Z</time>
      </trkpt>
      <trkpt lat="45.40655" lon="5.70872">
        <ele>499.4</ele>
        <time>2019-04-26T09:05:39Z</time>
      </trkpt>
      <trkpt lat="45.4066" lon="5.70874">
        <ele>498.9</ele>
        <time>2019-04-26T09:05:40Z</time>
      </trkpt>
      <trkpt lat="45.40664" lon="5.70881">
        <ele>498.3</ele>
        <time>2019-04-26T09:05:42Z</time>
      </trkpt>
      <trkpt lat="45.40666" lon="5.70886">
        <ele>498.2</ele>
        <time>2019-04-26T09:05:43Z</time>
      </trkpt>
      <trkpt lat="45.40668" lon="5.70894">
        <ele>497.9</ele>
        <time>2019-04-26T09:05:44Z</time>
      </trkpt>
      <trkpt lat="45.40663" lon="5.70898">
        <ele>497.4</ele>
        <time>2019-04-26T09:05:45Z</time>
      </trkpt>
      <trkpt lat="45.40661" lon="5.70904">
        <ele>497.1</ele>
        <time>2019-04-26T09:05:46Z</time>
      </trkpt>
      <trkpt lat="45.40662" lon="5.70909">
        <ele>496.9</ele>
        <time>2019-04-26T09:05:47Z</time>
      </trkpt>
      <trkpt lat="45.40659" lon="5.70915">
        <ele>496.1</ele>
        <time>2019-04-26T09:05:48Z</time>
      </trkpt>
      <trkpt lat="45.40654" lon="5.70923">
        <ele>495.1</ele>
        <time>2019-04-26T09:05:50Z</time>
      </trkpt>
      <trkpt lat="45.40652" lon="5.70929">
        <ele>494.3</ele>
        <time>2019-04-26T09:05:51Z</time>
      </trkpt>
      <trkpt lat="45.4065" lon="5.70934">
        <ele>494</ele>
        <time>2019-04-26T09:05:52Z</time>
      </trkpt>
      <trkpt lat="45.4065" lon="5.70939">
        <ele>493.7</ele>
        <time>2019-04-26T09:05:55Z</time>
      </trkpt>
      <trkpt lat="45.40651" lon="5.70944">
        <ele>493.3</ele>
        <time>2019-04-26T09:06:04Z</time>
      </trkpt>
      <trkpt lat="45.40652" lon="5.70949">
        <ele>492.8</ele>
        <time>2019-04-26T09:06:05Z</time>
      </trkpt>
      <trkpt lat="45.40651" lon="5.70966">
        <ele>491.9</ele>
        <time>2019-04-26T09:06:06Z</time>
      </trkpt>
      <trkpt lat="45.40649" lon="5.70975">
        <ele>491.1</ele>
        <time>2019-04-26T09:06:07Z</time>
      </trkpt>
      <trkpt lat="45.40647" lon="5.70984">
        <ele>490.6</ele>
        <time>2019-04-26T09:06:08Z</time>
      </trkpt>
      <trkpt lat="45.40645" lon="5.70993">
        <ele>490.2</ele>
        <time>2019-04-26T09:06:09Z</time>
      </trkpt>
      <trkpt lat="45.40646" lon="5.71002">
        <ele>489.8</ele>
        <time>2019-04-26T09:06:10Z</time>
      </trkpt>
      <trkpt lat="45.4065" lon="5.71011">
        <ele>489.1</ele>
        <time>2019-04-26T09:06:11Z</time>
      </trkpt>
      <trkpt lat="45.4065" lon="5.71016">
        <ele>488.8</ele>
        <time>2019-04-26T09:06:12Z</time>
      </trkpt>
      <trkpt lat="45.40652" lon="5.71018">
        <ele>488.6</ele>
        <time>2019-04-26T09:06:13Z</time>
      </trkpt>
      <trkpt lat="45.4065" lon="5.71021">
        <ele>488.4</ele>
        <time>2019-04-26T09:06:38Z</time>
      </trkpt>
      <trkpt lat="45.40642" lon="5.71029">
        <ele>487.7</ele>
        <time>2019-04-26T09:06:46Z</time>
      </trkpt>
      <trkpt lat="45.40639" lon="5.71031">
        <ele>487.2</ele>
        <time>2019-04-26T09:06:47Z</time>
      </trkpt>
      <trkpt lat="45.40635" lon="5.71033">
        <ele>486.7</ele>
        <time>2019-04-26T09:06:48Z</time>
      </trkpt>
      <trkpt lat="45.40629" lon="5.71037">
        <ele>486.7</ele>
        <time>2019-04-26T09:06:49Z</time>
      </trkpt>
      <trkpt lat="45.40625" lon="5.71039">
        <ele>486.7</ele>
        <time>2019-04-26T09:06:50Z</time>
      </trkpt>
      <trkpt lat="45.40621" lon="5.71041">
        <ele>486.4</ele>
        <time>2019-04-26T09:06:51Z</time>
      </trkpt>
      <trkpt lat="45.40616" lon="5.71044">
        <ele>486.2</ele>
        <time>2019-04-26T09:06:52Z</time>
      </trkpt>
      <trkpt lat="45.40612" lon="5.71044">
        <ele>486</ele>
        <time>2019-04-26T09:06:53Z</time>
      </trkpt>
      <trkpt lat="45.40607" lon="5.71043">
        <ele>485.8</ele>
        <time>2019-04-26T09:06:54Z</time>
      </trkpt>
      <trkpt lat="45.40602" lon="5.71044">
        <ele>485.7</ele>
        <time>2019-04-26T09:06:55Z</time>
      </trkpt>
      <trkpt lat="45.40599" lon="5.71044">
        <ele>485.6</ele>
        <time>2019-04-26T09:06:56Z</time>
      </trkpt>
      <trkpt lat="45.40593" lon="5.71046">
        <ele>485.5</ele>
        <time>2019-04-26T09:06:57Z</time>
      </trkpt>
      <trkpt lat="45.40588" lon="5.71045">
        <ele>485.3</ele>
        <time>2019-04-26T09:06:58Z</time>
      </trkpt>
      <trkpt lat="45.40583" lon="5.71046">
        <ele>485.2</ele>
        <time>2019-04-26T09:06:59Z</time>
      </trkpt>
      <trkpt lat="45.40581" lon="5.71048">
        <ele>485</ele>
        <time>2019-04-26T09:07:00Z</time>
      </trkpt>
      <trkpt lat="45.40579" lon="5.71052">
        <ele>484.9</ele>
        <time>2019-04-26T09:07:02Z</time>
      </trkpt>
      <trkpt lat="45.40574" lon="5.71055">
        <ele>484.3</ele>
        <time>2019-04-26T09:08:01Z</time>
      </trkpt>
      <trkpt lat="45.40571" lon="5.71058">
        <ele>483.8</ele>
        <time>2019-04-26T09:08:02Z</time>
      </trkpt>
      <trkpt lat="45.40569" lon="5.71061">
        <ele>483.8</ele>
        <time>2019-04-26T09:08:04Z</time>
      </trkpt>
      <trkpt lat="45.40568" lon="5.71065">
        <ele>483.3</ele>
        <time>2019-04-26T09:08:05Z</time>
      </trkpt>
      <trkpt lat="45.40568" lon="5.7107">
        <ele>483.1</ele>
        <time>2019-04-26T09:08:06Z</time>
      </trkpt>
      <trkpt lat="45.40567" lon="5.71074">
        <ele>482.8</ele>
        <time>2019-04-26T09:08:07Z</time>
      </trkpt>
      <trkpt lat="45.40566" lon="5.71079">
        <ele>482.1</ele>
        <time>2019-04-26T09:08:08Z</time>
      </trkpt>
      <trkpt lat="45.40565" lon="5.71084">
        <ele>481.6</ele>
        <time>2019-04-26T09:08:09Z</time>
      </trkpt>
      <trkpt lat="45.40564" lon="5.7109">
        <ele>481.4</ele>
        <time>2019-04-26T09:08:10Z</time>
      </trkpt>
      <trkpt lat="45.40564" lon="5.71096">
        <ele>481.1</ele>
        <time>2019-04-26T09:08:11Z</time>
      </trkpt>
      <trkpt lat="45.40564" lon="5.71102">
        <ele>480.8</ele>
        <time>2019-04-26T09:08:12Z</time>
      </trkpt>
      <trkpt lat="45.40566" lon="5.71107">
        <ele>480.8</ele>
        <time>2019-04-26T09:08:13Z</time>
      </trkpt>
      <trkpt lat="45.40567" lon="5.71112">
        <ele>480.7</ele>
        <time>2019-04-26T09:08:14Z</time>
      </trkpt>
      <trkpt lat="45.40568" lon="5.71117">
        <ele>480.8</ele>
        <time>2019-04-26T09:08:15Z</time>
      </trkpt>
      <trkpt lat="45.40569" lon="5.71121">
        <ele>480.8</ele>
        <time>2019-04-26T09:08:16Z</time>
      </trkpt>
      <trkpt lat="45.40568" lon="5.71128">
        <ele>480.7</ele>
        <time>2019-04-26T09:08:17Z</time>
      </trkpt>
      <trkpt lat="45.40567" lon="5.71134">
        <ele>480.6</ele>
        <time>2019-04-26T09:08:18Z</time>
      </trkpt>
      <trkpt lat="45.40565" lon="5.71139">
        <ele>480.4</ele>
        <time>2019-04-26T09:08:19Z</time>
      </trkpt>
      <trkpt lat="45.40561" lon="5.71144">
        <ele>480.1</ele>
        <time>2019-04-26T09:08:20Z</time>
      </trkpt>
      <trkpt lat="45.40558" lon="5.71149">
        <ele>479.7</ele>
        <time>2019-04-26T09:08:21Z</time>
      </trkpt>
      <trkpt lat="45.40551" lon="5.71157">
        <ele>478.7</ele>
        <time>2019-04-26T09:08:22Z</time>
      </trkpt>
      <trkpt lat="45.40545" lon="5.71161">
        <ele>477.8</ele>
        <time>2019-04-26T09:08:23Z</time>
      </trkpt>
      <trkpt lat="45.40539" lon="5.71166">
        <ele>477</ele>
        <time>2019-04-26T09:08:24Z</time>
      </trkpt>
      <trkpt lat="45.40534" lon="5.71166">
        <ele>476.4</ele>
        <time>2019-04-26T09:08:25Z</time>
      </trkpt>
      <trkpt lat="45.40527" lon="5.7117">
        <ele>475.8</ele>
        <time>2019-04-26T09:08:26Z</time>
      </trkpt>
      <trkpt lat="45.40523" lon="5.71172">
        <ele>475.6</ele>
        <time>2019-04-26T09:08:27Z</time>
      </trkpt>
      <trkpt lat="45.40517" lon="5.71176">
        <ele>475.1</ele>
        <time>2019-04-26T09:08:28Z</time>
      </trkpt>
      <trkpt lat="45.40512" lon="5.71181">
        <ele>474.7</ele>
        <time>2019-04-26T09:08:29Z</time>
      </trkpt>
      <trkpt lat="45.40507" lon="5.71186">
        <ele>474.4</ele>
        <time>2019-04-26T09:08:30Z</time>
      </trkpt>
      <trkpt lat="45.40499" lon="5.71188">
        <ele>473.9</ele>
        <time>2019-04-26T09:08:31Z</time>
      </trkpt>
      <trkpt lat="45.40493" lon="5.71189">
        <ele>473.2</ele>
        <time>2019-04-26T09:08:32Z</time>
      </trkpt>
      <trkpt lat="45.40484" lon="5.71193">
        <ele>473</ele>
        <time>2019-04-26T09:08:33Z</time>
      </trkpt>
      <trkpt lat="45.40481" lon="5.71194">
        <ele>472.8</ele>
        <time>2019-04-26T09:08:37Z</time>
      </trkpt>
      <trkpt lat="45.40478" lon="5.71195">
        <ele>472.8</ele>
        <time>2019-04-26T09:08:45Z</time>
      </trkpt>
      <trkpt lat="45.4048" lon="5.71193">
        <ele>472.6</ele>
        <time>2019-04-26T09:08:51Z</time>
      </trkpt>
      <trkpt lat="45.40478" lon="5.71197">
        <ele>472.8</ele>
        <time>2019-04-26T09:09:05Z</time>
      </trkpt>
      <trkpt lat="45.40476" lon="5.71198">
        <ele>472.5</ele>
        <time>2019-04-26T09:09:06Z</time>
      </trkpt>
      <trkpt lat="45.40472" lon="5.71199">
        <ele>472.4</ele>
        <time>2019-04-26T09:09:08Z</time>
      </trkpt>
      <trkpt lat="45.40469" lon="5.712">
        <ele>472.1</ele>
        <time>2019-04-26T09:09:10Z</time>
      </trkpt>
      <trkpt lat="45.40466" lon="5.71202">
        <ele>471.5</ele>
        <time>2019-04-26T09:09:12Z</time>
      </trkpt>
      <trkpt lat="45.40462" lon="5.71205">
        <ele>471.2</ele>
        <time>2019-04-26T09:09:14Z</time>
      </trkpt>
      <trkpt lat="45.40459" lon="5.71207">
        <ele>470.8</ele>
        <time>2019-04-26T09:09:16Z</time>
      </trkpt>
      <trkpt lat="45.40458" lon="5.71204">
        <ele>470.8</ele>
        <time>2019-04-26T09:09:21Z</time>
      </trkpt>
      <trkpt lat="45.40447" lon="5.71209">
        <ele>469</ele>
        <time>2019-04-26T09:09:27Z</time>
      </trkpt>
      <trkpt lat="45.40443" lon="5.71208">
        <ele>468.4</ele>
        <time>2019-04-26T09:09:28Z</time>
      </trkpt>
      <trkpt lat="45.4044" lon="5.71208">
        <ele>467.9</ele>
        <time>2019-04-26T09:09:29Z</time>
      </trkpt>
      <trkpt lat="45.40436" lon="5.7121">
        <ele>467.4</ele>
        <time>2019-04-26T09:09:30Z</time>
      </trkpt>
      <trkpt lat="45.40431" lon="5.71213">
        <ele>466.1</ele>
        <time>2019-04-26T09:09:31Z</time>
      </trkpt>
      <trkpt lat="45.40426" lon="5.71216">
        <ele>465.1</ele>
        <time>2019-04-26T09:09:32Z</time>
      </trkpt>
      <trkpt lat="45.4042" lon="5.71218">
        <ele>463.5</ele>
        <time>2019-04-26T09:09:33Z</time>
      </trkpt>
      <trkpt lat="45.40414" lon="5.7122">
        <ele>462.4</ele>
        <time>2019-04-26T09:09:34Z</time>
      </trkpt>
      <trkpt lat="45.40407" lon="5.71222">
        <ele>460.7</ele>
        <time>2019-04-26T09:09:35Z</time>
      </trkpt>
      <trkpt lat="45.40401" lon="5.71224">
        <ele>459.8</ele>
        <time>2019-04-26T09:09:36Z</time>
      </trkpt>
      <trkpt lat="45.40395" lon="5.71226">
        <ele>458.1</ele>
        <time>2019-04-26T09:09:37Z</time>
      </trkpt>
      <trkpt lat="45.40388" lon="5.7123">
        <ele>456.2</ele>
        <time>2019-04-26T09:09:38Z</time>
      </trkpt>
      <trkpt lat="45.4038" lon="5.71233">
        <ele>453.6</ele>
        <time>2019-04-26T09:09:40Z</time>
      </trkpt>
      <trkpt lat="45.40373" lon="5.71238">
        <ele>451.7</ele>
        <time>2019-04-26T09:09:41Z</time>
      </trkpt>
      <trkpt lat="45.40367" lon="5.71243">
        <ele>449.7</ele>
        <time>2019-04-26T09:09:42Z</time>
      </trkpt>
      <trkpt lat="45.4036" lon="5.71245">
        <ele>447.2</ele>
        <time>2019-04-26T09:09:43Z</time>
      </trkpt>
      <trkpt lat="45.40355" lon="5.7125">
        <ele>445.8</ele>
        <time>2019-04-26T09:09:44Z</time>
      </trkpt>
      <trkpt lat="45.4035" lon="5.71254">
        <ele>443.7</ele>
        <time>2019-04-26T09:09:45Z</time>
      </trkpt>
      <trkpt lat="45.40345" lon="5.71256">
        <ele>441.7</ele>
        <time>2019-04-26T09:09:46Z</time>
      </trkpt>
      <trkpt lat="45.40339" lon="5.71258">
        <ele>440.3</ele>
        <time>2019-04-26T09:09:47Z</time>
      </trkpt>
      <trkpt lat="45.40334" lon="5.71259">
        <ele>438.9</ele>
        <time>2019-04-26T09:09:48Z</time>
      </trkpt>
      <trkpt lat="45.40328" lon="5.71258">
        <ele>438.4</ele>
        <time>2019-04-26T09:09:49Z</time>
      </trkpt>
      <trkpt lat="45.40321" lon="5.7126">
        <ele>435.7</ele>
        <time>2019-04-26T09:09:50Z</time>
      </trkpt>
      <trkpt lat="45.40317" lon="5.71258">
        <ele>436</ele>
        <time>2019-04-26T09:09:51Z</time>
      </trkpt>
      <trkpt lat="45.40312" lon="5.71259">
        <ele>435.4</ele>
        <time>2019-04-26T09:09:52Z</time>
      </trkpt>
      <trkpt lat="45.40306" lon="5.71261">
        <ele>433.2</ele>
        <time>2019-04-26T09:09:53Z</time>
      </trkpt>
      <trkpt lat="45.40303" lon="5.71263">
        <ele>431.9</ele>
        <time>2019-04-26T09:09:54Z</time>
      </trkpt>
      <trkpt lat="45.40299" lon="5.71265">
        <ele>430.3</ele>
        <time>2019-04-26T09:09:56Z</time>
      </trkpt>
      <trkpt lat="45.40295" lon="5.71269">
        <ele>428.8</ele>
        <time>2019-04-26T09:09:57Z</time>
      </trkpt>
      <trkpt lat="45.40291" lon="5.71273">
        <ele>427.5</ele>
        <time>2019-04-26T09:09:58Z</time>
      </trkpt>
      <trkpt lat="45.4029" lon="5.71279">
        <ele>426.2</ele>
        <time>2019-04-26T09:09:59Z</time>
      </trkpt>
      <trkpt lat="45.40287" lon="5.7128">
        <ele>425.8</ele>
        <time>2019-04-26T09:10:00Z</time>
      </trkpt>
      <trkpt lat="45.40282" lon="5.71283">
        <ele>424.2</ele>
        <time>2019-04-26T09:10:01Z</time>
      </trkpt>
      <trkpt lat="45.40277" lon="5.71287">
        <ele>423.1</ele>
        <time>2019-04-26T09:10:02Z</time>
      </trkpt>
      <trkpt lat="45.40268" lon="5.71289">
        <ele>421</ele>
        <time>2019-04-26T09:10:03Z</time>
      </trkpt>
      <trkpt lat="45.40262" lon="5.71293">
        <ele>420.5</ele>
        <time>2019-04-26T09:10:04Z</time>
      </trkpt>
      <trkpt lat="45.40256" lon="5.71295">
        <ele>419.4</ele>
        <time>2019-04-26T09:10:05Z</time>
      </trkpt>
      <trkpt lat="45.4025" lon="5.71295">
        <ele>419</ele>
        <time>2019-04-26T09:10:06Z</time>
      </trkpt>
      <trkpt lat="45.40244" lon="5.71295">
        <ele>418.6</ele>
        <time>2019-04-26T09:10:07Z</time>
      </trkpt>
      <trkpt lat="45.40239" lon="5.71297">
        <ele>418.3</ele>
        <time>2019-04-26T09:10:08Z</time>
      </trkpt>
      <trkpt lat="45.40235" lon="5.71299">
        <ele>417.5</ele>
        <time>2019-04-26T09:10:09Z</time>
      </trkpt>
      <trkpt lat="45.40231" lon="5.71302">
        <ele>417.4</ele>
        <time>2019-04-26T09:10:10Z</time>
      </trkpt>
      <trkpt lat="45.40226" lon="5.71304">
        <ele>416.5</ele>
        <time>2019-04-26T09:10:11Z</time>
      </trkpt>
      <trkpt lat="45.40223" lon="5.71311">
        <ele>415</ele>
        <time>2019-04-26T09:10:12Z</time>
      </trkpt>
      <trkpt lat="45.4022" lon="5.71319">
        <ele>414.2</ele>
        <time>2019-04-26T09:10:13Z</time>
      </trkpt>
      <trkpt lat="45.40217" lon="5.71325">
        <ele>413</ele>
        <time>2019-04-26T09:10:14Z</time>
      </trkpt>
      <trkpt lat="45.40215" lon="5.71331">
        <ele>412.4</ele>
        <time>2019-04-26T09:10:15Z</time>
      </trkpt>
      <trkpt lat="45.40212" lon="5.71337">
        <ele>411.5</ele>
        <time>2019-04-26T09:10:17Z</time>
      </trkpt>
      <trkpt lat="45.40212" lon="5.71342">
        <ele>411.1</ele>
        <time>2019-04-26T09:10:18Z</time>
      </trkpt>
      <trkpt lat="45.40208" lon="5.71347">
        <ele>410.6</ele>
        <time>2019-04-26T09:10:20Z</time>
      </trkpt>
      <trkpt lat="45.40207" lon="5.71352">
        <ele>410.4</ele>
        <time>2019-04-26T09:10:21Z</time>
      </trkpt>
      <trkpt lat="45.40204" lon="5.71357">
        <ele>410.1</ele>
        <time>2019-04-26T09:10:22Z</time>
      </trkpt>
      <trkpt lat="45.40202" lon="5.71364">
        <ele>409.9</ele>
        <time>2019-04-26T09:10:23Z</time>
      </trkpt>
      <trkpt lat="45.40199" lon="5.71371">
        <ele>409.6</ele>
        <time>2019-04-26T09:10:24Z</time>
      </trkpt>
      <trkpt lat="45.40197" lon="5.71378">
        <ele>409.3</ele>
        <time>2019-04-26T09:10:25Z</time>
      </trkpt>
      <trkpt lat="45.40195" lon="5.71386">
        <ele>409</ele>
        <time>2019-04-26T09:10:26Z</time>
      </trkpt>
      <trkpt lat="45.40192" lon="5.71393">
        <ele>408.7</ele>
        <time>2019-04-26T09:10:27Z</time>
      </trkpt>
      <trkpt lat="45.40189" lon="5.71401">
        <ele>408.3</ele>
        <time>2019-04-26T09:10:28Z</time>
      </trkpt>
      <trkpt lat="45.40188" lon="5.71412">
        <ele>407.9</ele>
        <time>2019-04-26T09:10:29Z</time>
      </trkpt>
      <trkpt lat="45.40185" lon="5.71421">
        <ele>407.5</ele>
        <time>2019-04-26T09:10:30Z</time>
      </trkpt>
      <trkpt lat="45.40182" lon="5.71429">
        <ele>407.2</ele>
        <time>2019-04-26T09:10:31Z</time>
      </trkpt>
      <trkpt lat="45.40179" lon="5.71439">
        <ele>406.8</ele>
        <time>2019-04-26T09:10:32Z</time>
      </trkpt>
      <trkpt lat="45.40176" lon="5.71447">
        <ele>406.5</ele>
        <time>2019-04-26T09:10:33Z</time>
      </trkpt>
      <trkpt lat="45.40173" lon="5.71455">
        <ele>406.2</ele>
        <time>2019-04-26T09:10:34Z</time>
      </trkpt>
      <trkpt lat="45.40169" lon="5.71463">
        <ele>405.9</ele>
        <time>2019-04-26T09:10:35Z</time>
      </trkpt>
      <trkpt lat="45.40165" lon="5.7147">
        <ele>405.6</ele>
        <time>2019-04-26T09:10:36Z</time>
      </trkpt>
      <trkpt lat="45.40162" lon="5.71478">
        <ele>405.3</ele>
        <time>2019-04-26T09:10:37Z</time>
      </trkpt>
      <trkpt lat="45.4016" lon="5.71487">
        <ele>405</ele>
        <time>2019-04-26T09:10:38Z</time>
      </trkpt>
      <trkpt lat="45.40157" lon="5.71495">
        <ele>404.7</ele>
        <time>2019-04-26T09:10:39Z</time>
      </trkpt>
      <trkpt lat="45.40154" lon="5.71503">
        <ele>404.3</ele>
        <time>2019-04-26T09:10:40Z</time>
      </trkpt>
      <trkpt lat="45.40151" lon="5.71511">
        <ele>404.1</ele>
        <time>2019-04-26T09:10:41Z</time>
      </trkpt>
      <trkpt lat="45.40148" lon="5.71518">
        <ele>403.9</ele>
        <time>2019-04-26T09:10:42Z</time>
      </trkpt>
      <trkpt lat="45.40144" lon="5.71525">
        <ele>403.7</ele>
        <time>2019-04-26T09:10:43Z</time>
      </trkpt>
      <trkpt lat="45.40139" lon="5.71533">
        <ele>403.4</ele>
        <time>2019-04-26T09:10:44Z</time>
      </trkpt>
      <trkpt lat="45.40137" lon="5.7154">
        <ele>403.2</ele>
        <time>2019-04-26T09:10:45Z</time>
      </trkpt>
      <trkpt lat="45.40136" lon="5.7155">
        <ele>402.9</ele>
        <time>2019-04-26T09:10:46Z</time>
      </trkpt>
      <trkpt lat="45.40137" lon="5.71559">
        <ele>402.7</ele>
        <time>2019-04-26T09:10:47Z</time>
      </trkpt>
      <trkpt lat="45.4014" lon="5.71568">
        <ele>402.4</ele>
        <time>2019-04-26T09:10:48Z</time>
      </trkpt>
      <trkpt lat="45.40142" lon="5.71576">
        <ele>402.2</ele>
        <time>2019-04-26T09:10:49Z</time>
      </trkpt>
      <trkpt lat="45.40146" lon="5.71585">
        <ele>402</ele>
        <time>2019-04-26T09:10:50Z</time>
      </trkpt>
      <trkpt lat="45.40146" lon="5.71594">
        <ele>401.8</ele>
        <time>2019-04-26T09:10:51Z</time>
      </trkpt>
      <trkpt lat="45.40145" lon="5.71603">
        <ele>401.6</ele>
        <time>2019-04-26T09:10:52Z</time>
      </trkpt>
      <trkpt lat="45.40144" lon="5.71613">
        <ele>401.4</ele>
        <time>2019-04-26T09:10:53Z</time>
      </trkpt>
      <trkpt lat="45.4014" lon="5.71618">
        <ele>401.2</ele>
        <time>2019-04-26T09:10:54Z</time>
      </trkpt>
      <trkpt lat="45.40137" lon="5.71628">
        <ele>401.1</ele>
        <time>2019-04-26T09:10:55Z</time>
      </trkpt>
      <trkpt lat="45.40134" lon="5.71635">
        <ele>401</ele>
        <time>2019-04-26T09:10:56Z</time>
      </trkpt>
      <trkpt lat="45.40129" lon="5.71642">
        <ele>400.8</ele>
        <time>2019-04-26T09:10:57Z</time>
      </trkpt>
      <trkpt lat="45.40125" lon="5.7165">
        <ele>400.7</ele>
        <time>2019-04-26T09:10:58Z</time>
      </trkpt>
      <trkpt lat="45.4012" lon="5.71657">
        <ele>400.6</ele>
        <time>2019-04-26T09:10:59Z</time>
      </trkpt>
      <trkpt lat="45.40116" lon="5.71664">
        <ele>400.5</ele>
        <time>2019-04-26T09:11:00Z</time>
      </trkpt>
      <trkpt lat="45.4011" lon="5.71671">
        <ele>400.3</ele>
        <time>2019-04-26T09:11:01Z</time>
      </trkpt>
      <trkpt lat="45.40106" lon="5.71677">
        <ele>400.1</ele>
        <time>2019-04-26T09:11:02Z</time>
      </trkpt>
      <trkpt lat="45.40101" lon="5.71684">
        <ele>399.9</ele>
        <time>2019-04-26T09:11:03Z</time>
      </trkpt>
      <trkpt lat="45.40096" lon="5.71689">
        <ele>399.7</ele>
        <time>2019-04-26T09:11:04Z</time>
      </trkpt>
      <trkpt lat="45.40091" lon="5.71697">
        <ele>399.4</ele>
        <time>2019-04-26T09:11:05Z</time>
      </trkpt>
      <trkpt lat="45.40087" lon="5.71702">
        <ele>399.3</ele>
        <time>2019-04-26T09:11:06Z</time>
      </trkpt>
      <trkpt lat="45.40082" lon="5.71707">
        <ele>399.1</ele>
        <time>2019-04-26T09:11:07Z</time>
      </trkpt>
      <trkpt lat="45.40079" lon="5.71711">
        <ele>399</ele>
        <time>2019-04-26T09:11:08Z</time>
      </trkpt>
      <trkpt lat="45.40076" lon="5.71716">
        <ele>398.9</ele>
        <time>2019-04-26T09:11:09Z</time>
      </trkpt>
      <trkpt lat="45.40074" lon="5.71719">
        <ele>398.9</ele>
        <time>2019-04-26T09:11:10Z</time>
      </trkpt>
      <trkpt lat="45.40072" lon="5.71723">
        <ele>398.9</ele>
        <time>2019-04-26T09:11:11Z</time>
      </trkpt>
      <trkpt lat="45.40069" lon="5.71725">
        <ele>398.9</ele>
        <time>2019-04-26T09:11:14Z</time>
      </trkpt>
      <trkpt lat="45.40066" lon="5.7173">
        <ele>398.8</ele>
        <time>2019-04-26T09:12:34Z</time>
      </trkpt>
      <trkpt lat="45.40066" lon="5.71736">
        <ele>398.7</ele>
        <time>2019-04-26T09:12:36Z</time>
      </trkpt>
      <trkpt lat="45.40068" lon="5.71741">
        <ele>398.7</ele>
        <time>2019-04-26T09:12:37Z</time>
      </trkpt>
      <trkpt lat="45.40072" lon="5.71746">
        <ele>398.6</ele>
        <time>2019-04-26T09:12:38Z</time>
      </trkpt>
      <trkpt lat="45.40081" lon="5.71753">
        <ele>398.6</ele>
        <time>2019-04-26T09:12:39Z</time>
      </trkpt>
      <trkpt lat="45.40083" lon="5.71759">
        <ele>398.7</ele>
        <time>2019-04-26T09:12:40Z</time>
      </trkpt>
      <trkpt lat="45.40087" lon="5.71764">
        <ele>398.7</ele>
        <time>2019-04-26T09:12:41Z</time>
      </trkpt>
      <trkpt lat="45.40091" lon="5.71766">
        <ele>398.7</ele>
        <time>2019-04-26T09:12:42Z</time>
      </trkpt>
      <trkpt lat="45.40094" lon="5.71772">
        <ele>398.8</ele>
        <time>2019-04-26T09:12:43Z</time>
      </trkpt>
      <trkpt lat="45.40097" lon="5.71775">
        <ele>398.9</ele>
        <time>2019-04-26T09:12:44Z</time>
      </trkpt>
      <trkpt lat="45.401" lon="5.7178">
        <ele>399</ele>
        <time>2019-04-26T09:12:45Z</time>
      </trkpt>
      <trkpt lat="45.40104" lon="5.71784">
        <ele>399.1</ele>
        <time>2019-04-26T09:12:46Z</time>
      </trkpt>
      <trkpt lat="45.40109" lon="5.71789">
        <ele>399.2</ele>
        <time>2019-04-26T09:12:47Z</time>
      </trkpt>
      <trkpt lat="45.40112" lon="5.71795">
        <ele>399.3</ele>
        <time>2019-04-26T09:12:48Z</time>
      </trkpt>
      <trkpt lat="45.40116" lon="5.718">
        <ele>399.5</ele>
        <time>2019-04-26T09:12:49Z</time>
      </trkpt>
      <trkpt lat="45.40121" lon="5.71803">
        <ele>399.6</ele>
        <time>2019-04-26T09:12:50Z</time>
      </trkpt>
      <trkpt lat="45.40124" lon="5.71806">
        <ele>399.7</ele>
        <time>2019-04-26T09:12:51Z</time>
      </trkpt>
      <trkpt lat="45.40125" lon="5.71813">
        <ele>399.8</ele>
        <time>2019-04-26T09:12:52Z</time>
      </trkpt>
      <trkpt lat="45.40128" lon="5.71818">
        <ele>399.8</ele>
        <time>2019-04-26T09:12:53Z</time>
      </trkpt>
      <trkpt lat="45.40133" lon="5.71818">
        <ele>399.9</ele>
        <time>2019-04-26T09:12:54Z</time>
      </trkpt>
      <trkpt lat="45.40136" lon="5.7182">
        <ele>400</ele>
        <time>2019-04-26T09:12:55Z</time>
      </trkpt>
      <trkpt lat="45.40137" lon="5.71825">
        <ele>400</ele>
        <time>2019-04-26T09:12:56Z</time>
      </trkpt>
      <trkpt lat="45.4014" lon="5.7183">
        <ele>400.1</ele>
        <time>2019-04-26T09:12:57Z</time>
      </trkpt>
      <trkpt lat="45.40145" lon="5.71832">
        <ele>400.1</ele>
        <time>2019-04-26T09:12:59Z</time>
      </trkpt>
      <trkpt lat="45.40148" lon="5.71838">
        <ele>400.1</ele>
        <time>2019-04-26T09:13:00Z</time>
      </trkpt>
      <trkpt lat="45.40153" lon="5.71843">
        <ele>400.2</ele>
        <time>2019-04-26T09:13:01Z</time>
      </trkpt>
      <trkpt lat="45.40157" lon="5.71846">
        <ele>400.2</ele>
        <time>2019-04-26T09:13:02Z</time>
      </trkpt>
      <trkpt lat="45.40161" lon="5.71849">
        <ele>400.1</ele>
        <time>2019-04-26T09:13:03Z</time>
      </trkpt>
      <trkpt lat="45.40166" lon="5.71853">
        <ele>400.1</ele>
        <time>2019-04-26T09:13:04Z</time>
      </trkpt>
      <trkpt lat="45.4017" lon="5.71856">
        <ele>400.1</ele>
        <time>2019-04-26T09:13:05Z</time>
      </trkpt>
      <trkpt lat="45.4017" lon="5.7186">
        <ele>400</ele>
        <time>2019-04-26T09:13:06Z</time>
      </trkpt>
      <trkpt lat="45.40172" lon="5.71867">
        <ele>399.9</ele>
        <time>2019-04-26T09:13:07Z</time>
      </trkpt>
      <trkpt lat="45.40173" lon="5.71871">
        <ele>399.9</ele>
        <time>2019-04-26T09:13:08Z</time>
      </trkpt>
      <trkpt lat="45.40178" lon="5.71875">
        <ele>399.8</ele>
        <time>2019-04-26T09:13:09Z</time>
      </trkpt>
      <trkpt lat="45.40179" lon="5.71882">
        <ele>399.7</ele>
        <time>2019-04-26T09:13:10Z</time>
      </trkpt>
      <trkpt lat="45.40182" lon="5.71886">
        <ele>399.6</ele>
        <time>2019-04-26T09:13:11Z</time>
      </trkpt>
      <trkpt lat="45.40183" lon="5.7189">
        <ele>399.5</ele>
        <time>2019-04-26T09:13:12Z</time>
      </trkpt>
      <trkpt lat="45.40186" lon="5.71894">
        <ele>399.5</ele>
        <time>2019-04-26T09:13:13Z</time>
      </trkpt>
      <trkpt lat="45.40189" lon="5.71899">
        <ele>399.4</ele>
        <time>2019-04-26T09:13:14Z</time>
      </trkpt>
      <trkpt lat="45.40191" lon="5.71903">
        <ele>399.3</ele>
        <time>2019-04-26T09:13:15Z</time>
      </trkpt>
      <trkpt lat="45.40194" lon="5.71906">
        <ele>399.3</ele>
        <time>2019-04-26T09:13:16Z</time>
      </trkpt>
      <trkpt lat="45.40197" lon="5.71911">
        <ele>399.2</ele>
        <time>2019-04-26T09:13:17Z</time>
      </trkpt>
      <trkpt lat="45.402" lon="5.71915">
        <ele>399.1</ele>
        <time>2019-04-26T09:13:18Z</time>
      </trkpt>
      <trkpt lat="45.40204" lon="5.71918">
        <ele>399.1</ele>
        <time>2019-04-26T09:13:19Z</time>
      </trkpt>
      <trkpt lat="45.40206" lon="5.71921">
        <ele>399</ele>
        <time>2019-04-26T09:13:20Z</time>
      </trkpt>
      <trkpt lat="45.4021" lon="5.71924">
        <ele>398.9</ele>
        <time>2019-04-26T09:13:21Z</time>
      </trkpt>
      <trkpt lat="45.40214" lon="5.71926">
        <ele>398.9</ele>
        <time>2019-04-26T09:13:22Z</time>
      </trkpt>
      <trkpt lat="45.40218" lon="5.71929">
        <ele>398.8</ele>
        <time>2019-04-26T09:13:23Z</time>
      </trkpt>
      <trkpt lat="45.40221" lon="5.71931">
        <ele>398.7</ele>
        <time>2019-04-26T09:13:24Z</time>
      </trkpt>
      <trkpt lat="45.40224" lon="5.71934">
        <ele>398.7</ele>
        <time>2019-04-26T09:13:25Z</time>
      </trkpt>
      <trkpt lat="45.40226" lon="5.71937">
        <ele>398.7</ele>
        <time>2019-04-26T09:13:26Z</time>
      </trkpt>
      <trkpt lat="45.4023" lon="5.71939">
        <ele>398.6</ele>
        <time>2019-04-26T09:13:28Z</time>
      </trkpt>
      <trkpt lat="45.40234" lon="5.7194">
        <ele>398.6</ele>
        <time>2019-04-26T09:13:35Z</time>
      </trkpt>
      <trkpt lat="45.40237" lon="5.71942">
        <ele>398.6</ele>
        <time>2019-04-26T09:13:36Z</time>
      </trkpt>
      <trkpt lat="45.40239" lon="5.71945">
        <ele>398.5</ele>
        <time>2019-04-26T09:13:37Z</time>
      </trkpt>
      <trkpt lat="45.40241" lon="5.71949">
        <ele>398.5</ele>
        <time>2019-04-26T09:13:38Z</time>
      </trkpt>
      <trkpt lat="45.40244" lon="5.71954">
        <ele>398.5</ele>
        <time>2019-04-26T09:13:39Z</time>
      </trkpt>
      <trkpt lat="45.40246" lon="5.71959">
        <ele>398.5</ele>
        <time>2019-04-26T09:13:40Z</time>
      </trkpt>
      <trkpt lat="45.40248" lon="5.71962">
        <ele>398.4</ele>
        <time>2019-04-26T09:13:41Z</time>
      </trkpt>
      <trkpt lat="45.4025" lon="5.71966">
        <ele>398.4</ele>
        <time>2019-04-26T09:13:42Z</time>
      </trkpt>
      <trkpt lat="45.40254" lon="5.71969">
        <ele>398.3</ele>
        <time>2019-04-26T09:13:43Z</time>
      </trkpt>
      <trkpt lat="45.40258" lon="5.71973">
        <ele>398.3</ele>
        <time>2019-04-26T09:13:44Z</time>
      </trkpt>
      <trkpt lat="45.40268" lon="5.71979">
        <ele>398.3</ele>
        <time>2019-04-26T09:13:45Z</time>
      </trkpt>
      <trkpt lat="45.4027" lon="5.71984">
        <ele>398.2</ele>
        <time>2019-04-26T09:13:46Z</time>
      </trkpt>
      <trkpt lat="45.40274" lon="5.71987">
        <ele>398.2</ele>
        <time>2019-04-26T09:13:47Z</time>
      </trkpt>
      <trkpt lat="45.40278" lon="5.71991">
        <ele>398.1</ele>
        <time>2019-04-26T09:13:48Z</time>
      </trkpt>
      <trkpt lat="45.40281" lon="5.71996">
        <ele>398.1</ele>
        <time>2019-04-26T09:13:49Z</time>
      </trkpt>
      <trkpt lat="45.40284" lon="5.72001">
        <ele>398.1</ele>
        <time>2019-04-26T09:13:50Z</time>
      </trkpt>
      <trkpt lat="45.40285" lon="5.72006">
        <ele>398.1</ele>
        <time>2019-04-26T09:13:51Z</time>
      </trkpt>
      <trkpt lat="45.40291" lon="5.72012">
        <ele>398</ele>
        <time>2019-04-26T09:13:53Z</time>
      </trkpt>
      <trkpt lat="45.40295" lon="5.72016">
        <ele>398</ele>
        <time>2019-04-26T09:13:55Z</time>
      </trkpt>
      <trkpt lat="45.40296" lon="5.7202">
        <ele>398</ele>
        <time>2019-04-26T09:13:56Z</time>
      </trkpt>
      <trkpt lat="45.40299" lon="5.72022">
        <ele>397.9</ele>
        <time>2019-04-26T09:13:57Z</time>
      </trkpt>
      <trkpt lat="45.40302" lon="5.72024">
        <ele>397.9</ele>
        <time>2019-04-26T09:13:58Z</time>
      </trkpt>
      <trkpt lat="45.40305" lon="5.72031">
        <ele>397.9</ele>
        <time>2019-04-26T09:14:00Z</time>
      </trkpt>
      <trkpt lat="45.40309" lon="5.72037">
        <ele>397.9</ele>
        <time>2019-04-26T09:14:01Z</time>
      </trkpt>
      <trkpt lat="45.40313" lon="5.72047">
        <ele>398</ele>
        <time>2019-04-26T09:14:02Z</time>
      </trkpt>
      <trkpt lat="45.40318" lon="5.72051">
        <ele>398.1</ele>
        <time>2019-04-26T09:14:03Z</time>
      </trkpt>
      <trkpt lat="45.40321" lon="5.72054">
        <ele>398.1</ele>
        <time>2019-04-26T09:14:04Z</time>
      </trkpt>
      <trkpt lat="45.40324" lon="5.72057">
        <ele>398.2</ele>
        <time>2019-04-26T09:14:05Z</time>
      </trkpt>
      <trkpt lat="45.40327" lon="5.72061">
        <ele>398.2</ele>
        <time>2019-04-26T09:14:06Z</time>
      </trkpt>
      <trkpt lat="45.40329" lon="5.72065">
        <ele>398.2</ele>
        <time>2019-04-26T09:14:07Z</time>
      </trkpt>
      <trkpt lat="45.40331" lon="5.7207">
        <ele>398.2</ele>
        <time>2019-04-26T09:14:08Z</time>
      </trkpt>
      <trkpt lat="45.40333" lon="5.72074">
        <ele>398.3</ele>
        <time>2019-04-26T09:14:09Z</time>
      </trkpt>
      <trkpt lat="45.40336" lon="5.72079">
        <ele>398.3</ele>
        <time>2019-04-26T09:14:10Z</time>
      </trkpt>
      <trkpt lat="45.40339" lon="5.72083">
        <ele>398.3</ele>
        <time>2019-04-26T09:14:11Z</time>
      </trkpt>
      <trkpt lat="45.40342" lon="5.72089">
        <ele>398.3</ele>
        <time>2019-04-26T09:14:12Z</time>
      </trkpt>
      <trkpt lat="45.40345" lon="5.72093">
        <ele>398.3</ele>
        <time>2019-04-26T09:14:13Z</time>
      </trkpt>
      <trkpt lat="45.40348" lon="5.72095">
        <ele>398.4</ele>
        <time>2019-04-26T09:14:14Z</time>
      </trkpt>
      <trkpt lat="45.40351" lon="5.72098">
        <ele>398.4</ele>
        <time>2019-04-26T09:14:15Z</time>
      </trkpt>
      <trkpt lat="45.40354" lon="5.721">
        <ele>398.4</ele>
        <time>2019-04-26T09:14:16Z</time>
      </trkpt>
      <trkpt lat="45.40357" lon="5.72102">
        <ele>398.4</ele>
        <time>2019-04-26T09:14:17Z</time>
      </trkpt>
      <trkpt lat="45.40359" lon="5.72105">
        <ele>398.4</ele>
        <time>2019-04-26T09:14:18Z</time>
      </trkpt>
      <trkpt lat="45.40361" lon="5.72111">
        <ele>398.8</ele>
        <time>2019-04-26T09:14:20Z</time>
      </trkpt>
      <trkpt lat="45.40359" lon="5.72119">
        <ele>398.9</ele>
        <time>2019-04-26T09:14:22Z</time>
      </trkpt>
      <trkpt lat="45.40356" lon="5.72123">
        <ele>398.8</ele>
        <time>2019-04-26T09:14:23Z</time>
      </trkpt>
      <trkpt lat="45.40351" lon="5.72127">
        <ele>398.8</ele>
        <time>2019-04-26T09:14:24Z</time>
      </trkpt>
      <trkpt lat="45.40348" lon="5.72131">
        <ele>398.8</ele>
        <time>2019-04-26T09:14:25Z</time>
      </trkpt>
      <trkpt lat="45.40344" lon="5.72135">
        <ele>398.7</ele>
        <time>2019-04-26T09:14:26Z</time>
      </trkpt>
      <trkpt lat="45.40341" lon="5.72138">
        <ele>398.7</ele>
        <time>2019-04-26T09:14:27Z</time>
      </trkpt>
      <trkpt lat="45.40337" lon="5.72142">
        <ele>398.7</ele>
        <time>2019-04-26T09:14:28Z</time>
      </trkpt>
      <trkpt lat="45.40334" lon="5.72145">
        <ele>398.6</ele>
        <time>2019-04-26T09:14:29Z</time>
      </trkpt>
      <trkpt lat="45.40331" lon="5.72147">
        <ele>398.6</ele>
        <time>2019-04-26T09:14:31Z</time>
      </trkpt>
      <trkpt lat="45.40328" lon="5.72148">
        <ele>398.6</ele>
        <time>2019-04-26T09:14:32Z</time>
      </trkpt>
      <trkpt lat="45.40323" lon="5.72153">
        <ele>398.6</ele>
        <time>2019-04-26T09:14:33Z</time>
      </trkpt>
      <trkpt lat="45.40316" lon="5.7216">
        <ele>398.5</ele>
        <time>2019-04-26T09:14:34Z</time>
      </trkpt>
      <trkpt lat="45.4031" lon="5.72167">
        <ele>398.5</ele>
        <time>2019-04-26T09:14:35Z</time>
      </trkpt>
      <trkpt lat="45.40305" lon="5.72172">
        <ele>398.5</ele>
        <time>2019-04-26T09:14:36Z</time>
      </trkpt>
      <trkpt lat="45.40302" lon="5.72176">
        <ele>398.5</ele>
        <time>2019-04-26T09:14:37Z</time>
      </trkpt>
      <trkpt lat="45.40299" lon="5.7218">
        <ele>398.4</ele>
        <time>2019-04-26T09:14:38Z</time>
      </trkpt>
      <trkpt lat="45.40296" lon="5.72183">
        <ele>398.4</ele>
        <time>2019-04-26T09:14:39Z</time>
      </trkpt>
      <trkpt lat="45.40292" lon="5.72187">
        <ele>398.4</ele>
        <time>2019-04-26T09:14:40Z</time>
      </trkpt>
      <trkpt lat="45.40289" lon="5.72191">
        <ele>398.4</ele>
        <time>2019-04-26T09:14:41Z</time>
      </trkpt>
      <trkpt lat="45.40285" lon="5.72195">
        <ele>398.4</ele>
        <time>2019-04-26T09:14:42Z</time>
      </trkpt>
      <trkpt lat="45.40281" lon="5.72199">
        <ele>398.4</ele>
        <time>2019-04-26T09:14:43Z</time>
      </trkpt>
      <trkpt lat="45.40277" lon="5.72204">
        <ele>398.4</ele>
        <time>2019-04-26T09:14:44Z</time>
      </trkpt>
      <trkpt lat="45.40273" lon="5.72207">
        <ele>398.4</ele>
        <time>2019-04-26T09:14:45Z</time>
      </trkpt>
      <trkpt lat="45.40269" lon="5.72211">
        <ele>398.4</ele>
        <time>2019-04-26T09:14:46Z</time>
      </trkpt>
      <trkpt lat="45.40266" lon="5.72214">
        <ele>398.4</ele>
        <time>2019-04-26T09:14:47Z</time>
      </trkpt>
      <trkpt lat="45.40263" lon="5.72218">
        <ele>398.3</ele>
        <time>2019-04-26T09:14:48Z</time>
      </trkpt>
      <trkpt lat="45.40261" lon="5.72221">
        <ele>398.3</ele>
        <time>2019-04-26T09:14:49Z</time>
      </trkpt>
      <trkpt lat="45.40258" lon="5.72225">
        <ele>398.3</ele>
        <time>2019-04-26T09:14:50Z</time>
      </trkpt>
      <trkpt lat="45.40256" lon="5.72229">
        <ele>398.3</ele>
        <time>2019-04-26T09:14:51Z</time>
      </trkpt>
      <trkpt lat="45.40252" lon="5.72234">
        <ele>398.3</ele>
        <time>2019-04-26T09:14:52Z</time>
      </trkpt>
      <trkpt lat="45.40248" lon="5.72238">
        <ele>398.3</ele>
        <time>2019-04-26T09:14:53Z</time>
      </trkpt>
      <trkpt lat="45.40244" lon="5.72242">
        <ele>398.3</ele>
        <time>2019-04-26T09:14:54Z</time>
      </trkpt>
      <trkpt lat="45.40238" lon="5.72246">
        <ele>398.3</ele>
        <time>2019-04-26T09:14:55Z</time>
      </trkpt>
      <trkpt lat="45.40233" lon="5.7225">
        <ele>398.3</ele>
        <time>2019-04-26T09:14:56Z</time>
      </trkpt>
      <trkpt lat="45.40229" lon="5.72253">
        <ele>398.4</ele>
        <time>2019-04-26T09:14:57Z</time>
      </trkpt>
      <trkpt lat="45.40225" lon="5.72257">
        <ele>398.4</ele>
        <time>2019-04-26T09:14:58Z</time>
      </trkpt>
      <trkpt lat="45.40221" lon="5.72262">
        <ele>398.4</ele>
        <time>2019-04-26T09:14:59Z</time>
      </trkpt>
      <trkpt lat="45.40216" lon="5.72266">
        <ele>398.4</ele>
        <time>2019-04-26T09:15:00Z</time>
      </trkpt>
      <trkpt lat="45.40214" lon="5.72269">
        <ele>398.4</ele>
        <time>2019-04-26T09:15:01Z</time>
      </trkpt>
      <trkpt lat="45.40209" lon="5.72272">
        <ele>398.4</ele>
        <time>2019-04-26T09:15:03Z</time>
      </trkpt>
      <trkpt lat="45.40206" lon="5.72273">
        <ele>398.4</ele>
        <time>2019-04-26T09:15:04Z</time>
      </trkpt>
      <trkpt lat="45.40203" lon="5.72275">
        <ele>398.4</ele>
        <time>2019-04-26T09:15:05Z</time>
      </trkpt>
      <trkpt lat="45.402" lon="5.72276">
        <ele>398.5</ele>
        <time>2019-04-26T09:15:06Z</time>
      </trkpt>
      <trkpt lat="45.40196" lon="5.72278">
        <ele>398.5</ele>
        <time>2019-04-26T09:15:07Z</time>
      </trkpt>
      <trkpt lat="45.40194" lon="5.72281">
        <ele>398.5</ele>
        <time>2019-04-26T09:15:08Z</time>
      </trkpt>
      <trkpt lat="45.40191" lon="5.72284">
        <ele>398.6</ele>
        <time>2019-04-26T09:15:09Z</time>
      </trkpt>
      <trkpt lat="45.40188" lon="5.72285">
        <ele>398.6</ele>
        <time>2019-04-26T09:15:11Z</time>
      </trkpt>
      <trkpt lat="45.40186" lon="5.72288">
        <ele>398.7</ele>
        <time>2019-04-26T09:15:29Z</time>
      </trkpt>
      <trkpt lat="45.40182" lon="5.7229">
        <ele>398.8</ele>
        <time>2019-04-26T09:15:48Z</time>
      </trkpt>
      <trkpt lat="45.40179" lon="5.72292">
        <ele>398.9</ele>
        <time>2019-04-26T09:15:50Z</time>
      </trkpt>
      <trkpt lat="45.40175" lon="5.72293">
        <ele>399</ele>
        <time>2019-04-26T09:15:53Z</time>
      </trkpt>
      <trkpt lat="45.40172" lon="5.72295">
        <ele>399.2</ele>
        <time>2019-04-26T09:15:55Z</time>
      </trkpt>
      <trkpt lat="45.40167" lon="5.72296">
        <ele>399.3</ele>
        <time>2019-04-26T09:15:57Z</time>
      </trkpt>
      <trkpt lat="45.40162" lon="5.72297">
        <ele>399.4</ele>
        <time>2019-04-26T09:15:59Z</time>
      </trkpt>
      <trkpt lat="45.4016" lon="5.72299">
        <ele>399.5</ele>
        <time>2019-04-26T09:16:00Z</time>
      </trkpt>
      <trkpt lat="45.40157" lon="5.723">
        <ele>399.6</ele>
        <time>2019-04-26T09:16:01Z</time>
      </trkpt>
      <trkpt lat="45.40154" lon="5.72302">
        <ele>399.7</ele>
        <time>2019-04-26T09:16:02Z</time>
      </trkpt>
      <trkpt lat="45.40151" lon="5.72305">
        <ele>399.8</ele>
        <time>2019-04-26T09:16:03Z</time>
      </trkpt>
      <trkpt lat="45.40148" lon="5.72307">
        <ele>399.9</ele>
        <time>2019-04-26T09:16:04Z</time>
      </trkpt>
      <trkpt lat="45.40146" lon="5.72309">
        <ele>399.9</ele>
        <time>2019-04-26T09:16:05Z</time>
      </trkpt>
      <trkpt lat="45.40142" lon="5.72311">
        <ele>400</ele>
        <time>2019-04-26T09:16:06Z</time>
      </trkpt>
      <trkpt lat="45.40139" lon="5.72313">
        <ele>400.1</ele>
        <time>2019-04-26T09:16:07Z</time>
      </trkpt>
      <trkpt lat="45.40136" lon="5.72315">
        <ele>400.1</ele>
        <time>2019-04-26T09:16:08Z</time>
      </trkpt>
      <trkpt lat="45.40132" lon="5.72317">
        <ele>400.2</ele>
        <time>2019-04-26T09:16:09Z</time>
      </trkpt>
      <trkpt lat="45.40129" lon="5.72318">
        <ele>400.3</ele>
        <time>2019-04-26T09:16:10Z</time>
      </trkpt>
      <trkpt lat="45.40125" lon="5.72319">
        <ele>400.4</ele>
        <time>2019-04-26T09:16:11Z</time>
      </trkpt>
      <trkpt lat="45.40122" lon="5.72321">
        <ele>400.6</ele>
        <time>2019-04-26T09:16:12Z</time>
      </trkpt>
      <trkpt lat="45.40119" lon="5.72322">
        <ele>400.7</ele>
        <time>2019-04-26T09:16:13Z</time>
      </trkpt>
      <trkpt lat="45.40115" lon="5.72324">
        <ele>400.9</ele>
        <time>2019-04-26T09:16:14Z</time>
      </trkpt>
      <trkpt lat="45.40112" lon="5.72325">
        <ele>401.1</ele>
        <time>2019-04-26T09:16:15Z</time>
      </trkpt>
      <trkpt lat="45.40109" lon="5.72326">
        <ele>401.3</ele>
        <time>2019-04-26T09:16:16Z</time>
      </trkpt>
      <trkpt lat="45.40105" lon="5.72327">
        <ele>401.5</ele>
        <time>2019-04-26T09:16:17Z</time>
      </trkpt>
      <trkpt lat="45.40103" lon="5.7233">
        <ele>401.7</ele>
        <time>2019-04-26T09:16:18Z</time>
      </trkpt>
      <trkpt lat="45.401" lon="5.72333">
        <ele>401.9</ele>
        <time>2019-04-26T09:16:19Z</time>
      </trkpt>
      <trkpt lat="45.40098" lon="5.72337">
        <ele>402.1</ele>
        <time>2019-04-26T09:16:20Z</time>
      </trkpt>
      <trkpt lat="45.40098" lon="5.72342">
        <ele>402.2</ele>
        <time>2019-04-26T09:16:22Z</time>
      </trkpt>
      <trkpt lat="45.40099" lon="5.72349">
        <ele>402.1</ele>
        <time>2019-04-26T09:16:24Z</time>
      </trkpt>
      <trkpt lat="45.40106" lon="5.72372">
        <ele>401.6</ele>
        <time>2019-04-26T09:16:26Z</time>
      </trkpt>
      <trkpt lat="45.40108" lon="5.72377">
        <ele>401.5</ele>
        <time>2019-04-26T09:16:27Z</time>
      </trkpt>
      <trkpt lat="45.4011" lon="5.72385">
        <ele>401.4</ele>
        <time>2019-04-26T09:16:28Z</time>
      </trkpt>
      <trkpt lat="45.40113" lon="5.72391">
        <ele>401.3</ele>
        <time>2019-04-26T09:16:29Z</time>
      </trkpt>
      <trkpt lat="45.40116" lon="5.72394">
        <ele>401.3</ele>
        <time>2019-04-26T09:16:30Z</time>
      </trkpt>
      <trkpt lat="45.40119" lon="5.72398">
        <ele>401.2</ele>
        <time>2019-04-26T09:16:31Z</time>
      </trkpt>
      <trkpt lat="45.40122" lon="5.72401">
        <ele>401.1</ele>
        <time>2019-04-26T09:16:32Z</time>
      </trkpt>
      <trkpt lat="45.40127" lon="5.72407">
        <ele>401</ele>
        <time>2019-04-26T09:16:33Z</time>
      </trkpt>
      <trkpt lat="45.40129" lon="5.72415">
        <ele>401</ele>
        <time>2019-04-26T09:16:34Z</time>
      </trkpt>
      <trkpt lat="45.40129" lon="5.72421">
        <ele>400.9</ele>
        <time>2019-04-26T09:16:35Z</time>
      </trkpt>
      <trkpt lat="45.4013" lon="5.72428">
        <ele>400.9</ele>
        <time>2019-04-26T09:16:36Z</time>
      </trkpt>
      <trkpt lat="45.40127" lon="5.72436">
        <ele>400.8</ele>
        <time>2019-04-26T09:16:37Z</time>
      </trkpt>
      <trkpt lat="45.40126" lon="5.72444">
        <ele>400.7</ele>
        <time>2019-04-26T09:16:38Z</time>
      </trkpt>
      <trkpt lat="45.40129" lon="5.72452">
        <ele>400.7</ele>
        <time>2019-04-26T09:16:39Z</time>
      </trkpt>
      <trkpt lat="45.40131" lon="5.72459">
        <ele>400.6</ele>
        <time>2019-04-26T09:16:40Z</time>
      </trkpt>
      <trkpt lat="45.40132" lon="5.72467">
        <ele>400.6</ele>
        <time>2019-04-26T09:16:41Z</time>
      </trkpt>
      <trkpt lat="45.40134" lon="5.72474">
        <ele>400.5</ele>
        <time>2019-04-26T09:16:42Z</time>
      </trkpt>
      <trkpt lat="45.40136" lon="5.72481">
        <ele>400.4</ele>
        <time>2019-04-26T09:16:43Z</time>
      </trkpt>
      <trkpt lat="45.4014" lon="5.72488">
        <ele>400.4</ele>
        <time>2019-04-26T09:16:44Z</time>
      </trkpt>
      <trkpt lat="45.40144" lon="5.72495">
        <ele>400.4</ele>
        <time>2019-04-26T09:16:45Z</time>
      </trkpt>
      <trkpt lat="45.40147" lon="5.72502">
        <ele>400.3</ele>
        <time>2019-04-26T09:16:46Z</time>
      </trkpt>
      <trkpt lat="45.40149" lon="5.72511">
        <ele>400.3</ele>
        <time>2019-04-26T09:16:47Z</time>
      </trkpt>
      <trkpt lat="45.40153" lon="5.72516">
        <ele>400.3</ele>
        <time>2019-04-26T09:16:48Z</time>
      </trkpt>
      <trkpt lat="45.40156" lon="5.72521">
        <ele>400.2</ele>
        <time>2019-04-26T09:16:49Z</time>
      </trkpt>
      <trkpt lat="45.40161" lon="5.72528">
        <ele>400.2</ele>
        <time>2019-04-26T09:16:50Z</time>
      </trkpt>
      <trkpt lat="45.40166" lon="5.72534">
        <ele>400.2</ele>
        <time>2019-04-26T09:16:51Z</time>
      </trkpt>
      <trkpt lat="45.4017" lon="5.7254">
        <ele>400.1</ele>
        <time>2019-04-26T09:16:52Z</time>
      </trkpt>
      <trkpt lat="45.40174" lon="5.72546">
        <ele>400.1</ele>
        <time>2019-04-26T09:16:53Z</time>
      </trkpt>
      <trkpt lat="45.4018" lon="5.72551">
        <ele>400</ele>
        <time>2019-04-26T09:16:54Z</time>
      </trkpt>
      <trkpt lat="45.40183" lon="5.72557">
        <ele>399.9</ele>
        <time>2019-04-26T09:16:55Z</time>
      </trkpt>
      <trkpt lat="45.40189" lon="5.72562">
        <ele>399.8</ele>
        <time>2019-04-26T09:16:56Z</time>
      </trkpt>
      <trkpt lat="45.40196" lon="5.72567">
        <ele>399.7</ele>
        <time>2019-04-26T09:16:57Z</time>
      </trkpt>
      <trkpt lat="45.402" lon="5.72574">
        <ele>399.5</ele>
        <time>2019-04-26T09:16:58Z</time>
      </trkpt>
      <trkpt lat="45.40206" lon="5.72577">
        <ele>399.5</ele>
        <time>2019-04-26T09:16:59Z</time>
      </trkpt>
      <trkpt lat="45.40211" lon="5.72582">
        <ele>399.4</ele>
        <time>2019-04-26T09:17:00Z</time>
      </trkpt>
      <trkpt lat="45.40217" lon="5.72587">
        <ele>399.3</ele>
        <time>2019-04-26T09:17:01Z</time>
      </trkpt>
      <trkpt lat="45.40221" lon="5.7259">
        <ele>399.3</ele>
        <time>2019-04-26T09:17:02Z</time>
      </trkpt>
      <trkpt lat="45.40227" lon="5.72594">
        <ele>399.3</ele>
        <time>2019-04-26T09:17:03Z</time>
      </trkpt>
      <trkpt lat="45.40232" lon="5.72598">
        <ele>399.3</ele>
        <time>2019-04-26T09:17:04Z</time>
      </trkpt>
      <trkpt lat="45.40238" lon="5.726">
        <ele>399.3</ele>
        <time>2019-04-26T09:17:05Z</time>
      </trkpt>
      <trkpt lat="45.40243" lon="5.72603">
        <ele>399.4</ele>
        <time>2019-04-26T09:17:06Z</time>
      </trkpt>
      <trkpt lat="45.4025" lon="5.72606">
        <ele>399.4</ele>
        <time>2019-04-26T09:17:07Z</time>
      </trkpt>
      <trkpt lat="45.40255" lon="5.7261">
        <ele>399.4</ele>
        <time>2019-04-26T09:17:08Z</time>
      </trkpt>
      <trkpt lat="45.4026" lon="5.72614">
        <ele>399.5</ele>
        <time>2019-04-26T09:17:09Z</time>
      </trkpt>
      <trkpt lat="45.40265" lon="5.72621">
        <ele>399.5</ele>
        <time>2019-04-26T09:17:10Z</time>
      </trkpt>
      <trkpt lat="45.40269" lon="5.72626">
        <ele>399.5</ele>
        <time>2019-04-26T09:17:11Z</time>
      </trkpt>
      <trkpt lat="45.40272" lon="5.72632">
        <ele>399.6</ele>
        <time>2019-04-26T09:17:12Z</time>
      </trkpt>
      <trkpt lat="45.40276" lon="5.72637">
        <ele>399.6</ele>
        <time>2019-04-26T09:17:13Z</time>
      </trkpt>
      <trkpt lat="45.40281" lon="5.72643">
        <ele>399.7</ele>
        <time>2019-04-26T09:17:14Z</time>
      </trkpt>
      <trkpt lat="45.40284" lon="5.72651">
        <ele>399.7</ele>
        <time>2019-04-26T09:17:15Z</time>
      </trkpt>
      <trkpt lat="45.40286" lon="5.72657">
        <ele>399.7</ele>
        <time>2019-04-26T09:17:16Z</time>
      </trkpt>
      <trkpt lat="45.40288" lon="5.72666">
        <ele>399.8</ele>
        <time>2019-04-26T09:17:17Z</time>
      </trkpt>
      <trkpt lat="45.40291" lon="5.72673">
        <ele>399.8</ele>
        <time>2019-04-26T09:17:18Z</time>
      </trkpt>
      <trkpt lat="45.40294" lon="5.72682">
        <ele>399.8</ele>
        <time>2019-04-26T09:17:19Z</time>
      </trkpt>
      <trkpt lat="45.40294" lon="5.72689">
        <ele>399.9</ele>
        <time>2019-04-26T09:17:20Z</time>
      </trkpt>
      <trkpt lat="45.40295" lon="5.72697">
        <ele>399.9</ele>
        <time>2019-04-26T09:17:21Z</time>
      </trkpt>
      <trkpt lat="45.40292" lon="5.72706">
        <ele>399.9</ele>
        <time>2019-04-26T09:17:22Z</time>
      </trkpt>
      <trkpt lat="45.40291" lon="5.72713">
        <ele>399.9</ele>
        <time>2019-04-26T09:17:23Z</time>
      </trkpt>
      <trkpt lat="45.40291" lon="5.7272">
        <ele>399.9</ele>
        <time>2019-04-26T09:17:24Z</time>
      </trkpt>
      <trkpt lat="45.40291" lon="5.72726">
        <ele>399.9</ele>
        <time>2019-04-26T09:17:25Z</time>
      </trkpt>
      <trkpt lat="45.40293" lon="5.72735">
        <ele>399.9</ele>
        <time>2019-04-26T09:17:26Z</time>
      </trkpt>
      <trkpt lat="45.40299" lon="5.72742">
        <ele>399.8</ele>
        <time>2019-04-26T09:17:27Z</time>
      </trkpt>
      <trkpt lat="45.40302" lon="5.72748">
        <ele>399.8</ele>
        <time>2019-04-26T09:17:28Z</time>
      </trkpt>
      <trkpt lat="45.40307" lon="5.72754">
        <ele>399.7</ele>
        <time>2019-04-26T09:17:29Z</time>
      </trkpt>
      <trkpt lat="45.40312" lon="5.72762">
        <ele>399.6</ele>
        <time>2019-04-26T09:17:30Z</time>
      </trkpt>
      <trkpt lat="45.40315" lon="5.7277">
        <ele>399.5</ele>
        <time>2019-04-26T09:17:31Z</time>
      </trkpt>
      <trkpt lat="45.40317" lon="5.72777">
        <ele>399.4</ele>
        <time>2019-04-26T09:17:32Z</time>
      </trkpt>
      <trkpt lat="45.40322" lon="5.72784">
        <ele>399.3</ele>
        <time>2019-04-26T09:17:33Z</time>
      </trkpt>
      <trkpt lat="45.40325" lon="5.72791">
        <ele>399.2</ele>
        <time>2019-04-26T09:17:34Z</time>
      </trkpt>
      <trkpt lat="45.40327" lon="5.72798">
        <ele>399.1</ele>
        <time>2019-04-26T09:17:35Z</time>
      </trkpt>
      <trkpt lat="45.40331" lon="5.72805">
        <ele>398.9</ele>
        <time>2019-04-26T09:17:36Z</time>
      </trkpt>
      <trkpt lat="45.40334" lon="5.72812">
        <ele>398.8</ele>
        <time>2019-04-26T09:17:37Z</time>
      </trkpt>
      <trkpt lat="45.40337" lon="5.7282">
        <ele>398.7</ele>
        <time>2019-04-26T09:17:38Z</time>
      </trkpt>
      <trkpt lat="45.4034" lon="5.72826">
        <ele>398.6</ele>
        <time>2019-04-26T09:17:39Z</time>
      </trkpt>
      <trkpt lat="45.40342" lon="5.72831">
        <ele>398.5</ele>
        <time>2019-04-26T09:17:40Z</time>
      </trkpt>
      <trkpt lat="45.40344" lon="5.72838">
        <ele>398.4</ele>
        <time>2019-04-26T09:17:41Z</time>
      </trkpt>
      <trkpt lat="45.40346" lon="5.72845">
        <ele>398.3</ele>
        <time>2019-04-26T09:17:42Z</time>
      </trkpt>
      <trkpt lat="45.40347" lon="5.72852">
        <ele>398.3</ele>
        <time>2019-04-26T09:17:43Z</time>
      </trkpt>
      <trkpt lat="45.40348" lon="5.72859">
        <ele>398.4</ele>
        <time>2019-04-26T09:17:44Z</time>
      </trkpt>
      <trkpt lat="45.40348" lon="5.72864">
        <ele>398.4</ele>
        <time>2019-04-26T09:17:45Z</time>
      </trkpt>
      <trkpt lat="45.40346" lon="5.7287">
        <ele>398.5</ele>
        <time>2019-04-26T09:17:46Z</time>
      </trkpt>
      <trkpt lat="45.40346" lon="5.72875">
        <ele>398.5</ele>
        <time>2019-04-26T09:17:47Z</time>
      </trkpt>
      <trkpt lat="45.40346" lon="5.7288">
        <ele>398.6</ele>
        <time>2019-04-26T09:17:48Z</time>
      </trkpt>
      <trkpt lat="45.40345" lon="5.72885">
        <ele>398.6</ele>
        <time>2019-04-26T09:17:49Z</time>
      </trkpt>
      <trkpt lat="45.40345" lon="5.72889">
        <ele>398.7</ele>
        <time>2019-04-26T09:17:50Z</time>
      </trkpt>
      <trkpt lat="45.40346" lon="5.72894">
        <ele>398.7</ele>
        <time>2019-04-26T09:17:51Z</time>
      </trkpt>
      <trkpt lat="45.40346" lon="5.72899">
        <ele>398.7</ele>
        <time>2019-04-26T09:17:52Z</time>
      </trkpt>
      <trkpt lat="45.40347" lon="5.72904">
        <ele>398.8</ele>
        <time>2019-04-26T09:17:53Z</time>
      </trkpt>
      <trkpt lat="45.40348" lon="5.72907">
        <ele>398.8</ele>
        <time>2019-04-26T09:17:54Z</time>
      </trkpt>
      <trkpt lat="45.40351" lon="5.72909">
        <ele>398.8</ele>
        <time>2019-04-26T09:17:56Z</time>
      </trkpt>
      <trkpt lat="45.40348" lon="5.7291">
        <ele>398.9</ele>
        <time>2019-04-26T09:18:29Z</time>
      </trkpt>
      <trkpt lat="45.40343" lon="5.72912">
        <ele>398.9</ele>
        <time>2019-04-26T09:18:31Z</time>
      </trkpt>
      <trkpt lat="45.4034" lon="5.72915">
        <ele>399</ele>
        <time>2019-04-26T09:18:32Z</time>
      </trkpt>
      <trkpt lat="45.40338" lon="5.72919">
        <ele>399.1</ele>
        <time>2019-04-26T09:18:33Z</time>
      </trkpt>
      <trkpt lat="45.40335" lon="5.72922">
        <ele>399.1</ele>
        <time>2019-04-26T09:18:34Z</time>
      </trkpt>
      <trkpt lat="45.40333" lon="5.72927">
        <ele>399</ele>
        <time>2019-04-26T09:18:35Z</time>
      </trkpt>
      <trkpt lat="45.40331" lon="5.72933">
        <ele>399</ele>
        <time>2019-04-26T09:18:36Z</time>
      </trkpt>
      <trkpt lat="45.40332" lon="5.72943">
        <ele>398.9</ele>
        <time>2019-04-26T09:18:37Z</time>
      </trkpt>
      <trkpt lat="45.40331" lon="5.7295">
        <ele>398.8</ele>
        <time>2019-04-26T09:18:38Z</time>
      </trkpt>
      <trkpt lat="45.40332" lon="5.72956">
        <ele>398.8</ele>
        <time>2019-04-26T09:18:39Z</time>
      </trkpt>
      <trkpt lat="45.40334" lon="5.72964">
        <ele>398.7</ele>
        <time>2019-04-26T09:18:40Z</time>
      </trkpt>
      <trkpt lat="45.40335" lon="5.7297">
        <ele>398.7</ele>
        <time>2019-04-26T09:18:41Z</time>
      </trkpt>
      <trkpt lat="45.40334" lon="5.72979">
        <ele>398.6</ele>
        <time>2019-04-26T09:18:42Z</time>
      </trkpt>
      <trkpt lat="45.40332" lon="5.72987">
        <ele>398.6</ele>
        <time>2019-04-26T09:18:43Z</time>
      </trkpt>
      <trkpt lat="45.40329" lon="5.72994">
        <ele>398.6</ele>
        <time>2019-04-26T09:18:44Z</time>
      </trkpt>
      <trkpt lat="45.40326" lon="5.73">
        <ele>398.6</ele>
        <time>2019-04-26T09:18:45Z</time>
      </trkpt>
      <trkpt lat="45.40322" lon="5.73007">
        <ele>398.6</ele>
        <time>2019-04-26T09:18:46Z</time>
      </trkpt>
      <trkpt lat="45.4032" lon="5.73015">
        <ele>398.6</ele>
        <time>2019-04-26T09:18:47Z</time>
      </trkpt>
      <trkpt lat="45.40317" lon="5.73021">
        <ele>398.6</ele>
        <time>2019-04-26T09:18:48Z</time>
      </trkpt>
      <trkpt lat="45.40313" lon="5.73027">
        <ele>398.6</ele>
        <time>2019-04-26T09:18:49Z</time>
      </trkpt>
      <trkpt lat="45.4031" lon="5.73034">
        <ele>398.6</ele>
        <time>2019-04-26T09:18:50Z</time>
      </trkpt>
      <trkpt lat="45.40306" lon="5.73041">
        <ele>398.6</ele>
        <time>2019-04-26T09:18:51Z</time>
      </trkpt>
      <trkpt lat="45.40305" lon="5.73047">
        <ele>398.6</ele>
        <time>2019-04-26T09:18:52Z</time>
      </trkpt>
      <trkpt lat="45.40302" lon="5.73053">
        <ele>398.6</ele>
        <time>2019-04-26T09:18:53Z</time>
      </trkpt>
      <trkpt lat="45.40297" lon="5.73061">
        <ele>398.6</ele>
        <time>2019-04-26T09:18:54Z</time>
      </trkpt>
      <trkpt lat="45.40295" lon="5.73066">
        <ele>398.6</ele>
        <time>2019-04-26T09:18:55Z</time>
      </trkpt>
      <trkpt lat="45.40291" lon="5.73073">
        <ele>398.6</ele>
        <time>2019-04-26T09:18:56Z</time>
      </trkpt>
      <trkpt lat="45.40289" lon="5.73079">
        <ele>398.5</ele>
        <time>2019-04-26T09:18:57Z</time>
      </trkpt>
      <trkpt lat="45.40285" lon="5.73087">
        <ele>398.5</ele>
        <time>2019-04-26T09:18:58Z</time>
      </trkpt>
      <trkpt lat="45.4028" lon="5.73093">
        <ele>398.5</ele>
        <time>2019-04-26T09:18:59Z</time>
      </trkpt>
      <trkpt lat="45.40277" lon="5.731">
        <ele>398.5</ele>
        <time>2019-04-26T09:19:00Z</time>
      </trkpt>
      <trkpt lat="45.40275" lon="5.73107">
        <ele>398.5</ele>
        <time>2019-04-26T09:19:01Z</time>
      </trkpt>
      <trkpt lat="45.40271" lon="5.73115">
        <ele>398.5</ele>
        <time>2019-04-26T09:19:02Z</time>
      </trkpt>
      <trkpt lat="45.40269" lon="5.73119">
        <ele>398.5</ele>
        <time>2019-04-26T09:19:03Z</time>
      </trkpt>
      <trkpt lat="45.40265" lon="5.73125">
        <ele>398.5</ele>
        <time>2019-04-26T09:19:04Z</time>
      </trkpt>
      <trkpt lat="45.40262" lon="5.73131">
        <ele>398.5</ele>
        <time>2019-04-26T09:19:05Z</time>
      </trkpt>
      <trkpt lat="45.40259" lon="5.73138">
        <ele>398.6</ele>
        <time>2019-04-26T09:19:06Z</time>
      </trkpt>
      <trkpt lat="45.40256" lon="5.73144">
        <ele>398.6</ele>
        <time>2019-04-26T09:19:07Z</time>
      </trkpt>
      <trkpt lat="45.40253" lon="5.7315">
        <ele>398.7</ele>
        <time>2019-04-26T09:19:08Z</time>
      </trkpt>
      <trkpt lat="45.40251" lon="5.73157">
        <ele>398.7</ele>
        <time>2019-04-26T09:19:09Z</time>
      </trkpt>
      <trkpt lat="45.40249" lon="5.73162">
        <ele>398.7</ele>
        <time>2019-04-26T09:19:10Z</time>
      </trkpt>
      <trkpt lat="45.40247" lon="5.73168">
        <ele>398.8</ele>
        <time>2019-04-26T09:19:11Z</time>
      </trkpt>
      <trkpt lat="45.40245" lon="5.73173">
        <ele>398.8</ele>
        <time>2019-04-26T09:19:12Z</time>
      </trkpt>
      <trkpt lat="45.40243" lon="5.7318">
        <ele>398.9</ele>
        <time>2019-04-26T09:19:13Z</time>
      </trkpt>
      <trkpt lat="45.40241" lon="5.73187">
        <ele>398.9</ele>
        <time>2019-04-26T09:19:14Z</time>
      </trkpt>
      <trkpt lat="45.40239" lon="5.73193">
        <ele>399</ele>
        <time>2019-04-26T09:19:15Z</time>
      </trkpt>
      <trkpt lat="45.40237" lon="5.73199">
        <ele>399</ele>
        <time>2019-04-26T09:19:16Z</time>
      </trkpt>
      <trkpt lat="45.40235" lon="5.73204">
        <ele>399</ele>
        <time>2019-04-26T09:19:17Z</time>
      </trkpt>
      <trkpt lat="45.40236" lon="5.73211">
        <ele>399</ele>
        <time>2019-04-26T09:19:18Z</time>
      </trkpt>
      <trkpt lat="45.40235" lon="5.73218">
        <ele>399</ele>
        <time>2019-04-26T09:19:19Z</time>
      </trkpt>
      <trkpt lat="45.40232" lon="5.73226">
        <ele>399</ele>
        <time>2019-04-26T09:19:20Z</time>
      </trkpt>
      <trkpt lat="45.4023" lon="5.73232">
        <ele>398.9</ele>
        <time>2019-04-26T09:19:21Z</time>
      </trkpt>
      <trkpt lat="45.4023" lon="5.73236">
        <ele>398.9</ele>
        <time>2019-04-26T09:19:22Z</time>
      </trkpt>
      <trkpt lat="45.40228" lon="5.73245">
        <ele>398.9</ele>
        <time>2019-04-26T09:19:25Z</time>
      </trkpt>
      <trkpt lat="45.40227" lon="5.73249">
        <ele>398.9</ele>
        <time>2019-04-26T09:19:26Z</time>
      </trkpt>
      <trkpt lat="45.40213" lon="5.73285">
        <ele>398.6</ele>
        <time>2019-04-26T09:19:28Z</time>
      </trkpt>
      <trkpt lat="45.40212" lon="5.73289">
        <ele>398.6</ele>
        <time>2019-04-26T09:19:29Z</time>
      </trkpt>
      <trkpt lat="45.40213" lon="5.73294">
        <ele>398.6</ele>
        <time>2019-04-26T09:19:30Z</time>
      </trkpt>
      <trkpt lat="45.4021" lon="5.73302">
        <ele>398.6</ele>
        <time>2019-04-26T09:19:31Z</time>
      </trkpt>
      <trkpt lat="45.40206" lon="5.73308">
        <ele>398.6</ele>
        <time>2019-04-26T09:19:32Z</time>
      </trkpt>
      <trkpt lat="45.40205" lon="5.73313">
        <ele>398.6</ele>
        <time>2019-04-26T09:19:33Z</time>
      </trkpt>
      <trkpt lat="45.40203" lon="5.73325">
        <ele>398.6</ele>
        <time>2019-04-26T09:19:34Z</time>
      </trkpt>
      <trkpt lat="45.40203" lon="5.73336">
        <ele>398.6</ele>
        <time>2019-04-26T09:19:35Z</time>
      </trkpt>
      <trkpt lat="45.40202" lon="5.73346">
        <ele>398.6</ele>
        <time>2019-04-26T09:19:36Z</time>
      </trkpt>
      <trkpt lat="45.40203" lon="5.73352">
        <ele>398.6</ele>
        <time>2019-04-26T09:19:37Z</time>
      </trkpt>
      <trkpt lat="45.40205" lon="5.73361">
        <ele>398.6</ele>
        <time>2019-04-26T09:19:38Z</time>
      </trkpt>
      <trkpt lat="45.40212" lon="5.73371">
        <ele>398.5</ele>
        <time>2019-04-26T09:19:39Z</time>
      </trkpt>
      <trkpt lat="45.40213" lon="5.73377">
        <ele>398.5</ele>
        <time>2019-04-26T09:19:40Z</time>
      </trkpt>
      <trkpt lat="45.40215" lon="5.73383">
        <ele>398.5</ele>
        <time>2019-04-26T09:19:42Z</time>
      </trkpt>
      <trkpt lat="45.40216" lon="5.73391">
        <ele>398.4</ele>
        <time>2019-04-26T09:19:43Z</time>
      </trkpt>
      <trkpt lat="45.40216" lon="5.73398">
        <ele>398.4</ele>
        <time>2019-04-26T09:19:44Z</time>
      </trkpt>
      <trkpt lat="45.40223" lon="5.73402">
        <ele>398.4</ele>
        <time>2019-04-26T09:19:45Z</time>
      </trkpt>
      <trkpt lat="45.40226" lon="5.73408">
        <ele>398.4</ele>
        <time>2019-04-26T09:19:46Z</time>
      </trkpt>
      <trkpt lat="45.40228" lon="5.73415">
        <ele>398.4</ele>
        <time>2019-04-26T09:19:47Z</time>
      </trkpt>
      <trkpt lat="45.40229" lon="5.73419">
        <ele>398.3</ele>
        <time>2019-04-26T09:19:48Z</time>
      </trkpt>
      <trkpt lat="45.40232" lon="5.73422">
        <ele>398.3</ele>
        <time>2019-04-26T09:19:49Z</time>
      </trkpt>
      <trkpt lat="45.40234" lon="5.73428">
        <ele>398.3</ele>
        <time>2019-04-26T09:19:50Z</time>
      </trkpt>
      <trkpt lat="45.40236" lon="5.73434">
        <ele>398.4</ele>
        <time>2019-04-26T09:19:51Z</time>
      </trkpt>
      <trkpt lat="45.40235" lon="5.73442">
        <ele>398.4</ele>
        <time>2019-04-26T09:19:53Z</time>
      </trkpt>
      <trkpt lat="45.40234" lon="5.73451">
        <ele>398.4</ele>
        <time>2019-04-26T09:19:54Z</time>
      </trkpt>
      <trkpt lat="45.40232" lon="5.7346">
        <ele>398.5</ele>
        <time>2019-04-26T09:19:55Z</time>
      </trkpt>
      <trkpt lat="45.4023" lon="5.73468">
        <ele>398.6</ele>
        <time>2019-04-26T09:19:56Z</time>
      </trkpt>
      <trkpt lat="45.40227" lon="5.73475">
        <ele>398.7</ele>
        <time>2019-04-26T09:19:57Z</time>
      </trkpt>
      <trkpt lat="45.4022" lon="5.73483">
        <ele>398.8</ele>
        <time>2019-04-26T09:19:58Z</time>
      </trkpt>
      <trkpt lat="45.40216" lon="5.73491">
        <ele>398.9</ele>
        <time>2019-04-26T09:19:59Z</time>
      </trkpt>
      <trkpt lat="45.40212" lon="5.73498">
        <ele>399</ele>
        <time>2019-04-26T09:20:01Z</time>
      </trkpt>
      <trkpt lat="45.40209" lon="5.73507">
        <ele>399.1</ele>
        <time>2019-04-26T09:20:02Z</time>
      </trkpt>
      <trkpt lat="45.40206" lon="5.73516">
        <ele>399.1</ele>
        <time>2019-04-26T09:20:03Z</time>
      </trkpt>
      <trkpt lat="45.40203" lon="5.73523">
        <ele>399.2</ele>
        <time>2019-04-26T09:20:04Z</time>
      </trkpt>
      <trkpt lat="45.402" lon="5.7353">
        <ele>399.3</ele>
        <time>2019-04-26T09:20:05Z</time>
      </trkpt>
      <trkpt lat="45.40197" lon="5.73538">
        <ele>399.3</ele>
        <time>2019-04-26T09:20:06Z</time>
      </trkpt>
      <trkpt lat="45.40194" lon="5.73545">
        <ele>399.4</ele>
        <time>2019-04-26T09:20:07Z</time>
      </trkpt>
      <trkpt lat="45.40191" lon="5.73552">
        <ele>399.5</ele>
        <time>2019-04-26T09:20:08Z</time>
      </trkpt>
      <trkpt lat="45.40188" lon="5.73559">
        <ele>399.5</ele>
        <time>2019-04-26T09:20:09Z</time>
      </trkpt>
      <trkpt lat="45.40185" lon="5.73564">
        <ele>399.5</ele>
        <time>2019-04-26T09:20:10Z</time>
      </trkpt>
      <trkpt lat="45.40182" lon="5.73567">
        <ele>399.6</ele>
        <time>2019-04-26T09:20:11Z</time>
      </trkpt>
      <trkpt lat="45.4018" lon="5.7357">
        <ele>399.6</ele>
        <time>2019-04-26T09:20:12Z</time>
      </trkpt>
      <trkpt lat="45.40179" lon="5.73574">
        <ele>399.6</ele>
        <time>2019-04-26T09:20:13Z</time>
      </trkpt>
      <trkpt lat="45.40176" lon="5.73578">
        <ele>399.6</ele>
        <time>2019-04-26T09:20:14Z</time>
      </trkpt>
      <trkpt lat="45.40173" lon="5.73583">
        <ele>399.7</ele>
        <time>2019-04-26T09:20:15Z</time>
      </trkpt>
      <trkpt lat="45.40169" lon="5.73585">
        <ele>399.7</ele>
        <time>2019-04-26T09:20:16Z</time>
      </trkpt>
      <trkpt lat="45.40164" lon="5.73586">
        <ele>399.8</ele>
        <time>2019-04-26T09:20:17Z</time>
      </trkpt>
      <trkpt lat="45.4016" lon="5.73587">
        <ele>399.8</ele>
        <time>2019-04-26T09:20:18Z</time>
      </trkpt>
      <trkpt lat="45.40156" lon="5.73589">
        <ele>399.9</ele>
        <time>2019-04-26T09:20:19Z</time>
      </trkpt>
      <trkpt lat="45.40159" lon="5.73589">
        <ele>399.9</ele>
        <time>2019-04-26T09:20:22Z</time>
      </trkpt>
      <trkpt lat="45.40163" lon="5.7359">
        <ele>400</ele>
        <time>2019-04-26T09:20:28Z</time>
      </trkpt>
      <trkpt lat="45.40162" lon="5.73594">
        <ele>400</ele>
        <time>2019-04-26T09:20:57Z</time>
      </trkpt>
      <trkpt lat="45.40159" lon="5.736">
        <ele>400</ele>
        <time>2019-04-26T09:20:59Z</time>
      </trkpt>
      <trkpt lat="45.40156" lon="5.73604">
        <ele>400.1</ele>
        <time>2019-04-26T09:21:00Z</time>
      </trkpt>
      <trkpt lat="45.40152" lon="5.73608">
        <ele>400.1</ele>
        <time>2019-04-26T09:21:01Z</time>
      </trkpt>
      <trkpt lat="45.40148" lon="5.73613">
        <ele>400.2</ele>
        <time>2019-04-26T09:21:02Z</time>
      </trkpt>
      <trkpt lat="45.40144" lon="5.73618">
        <ele>400.2</ele>
        <time>2019-04-26T09:21:03Z</time>
      </trkpt>
      <trkpt lat="45.40139" lon="5.73623">
        <ele>400.3</ele>
        <time>2019-04-26T09:21:04Z</time>
      </trkpt>
      <trkpt lat="45.40135" lon="5.73628">
        <ele>400.3</ele>
        <time>2019-04-26T09:21:05Z</time>
      </trkpt>
      <trkpt lat="45.40132" lon="5.73633">
        <ele>400.3</ele>
        <time>2019-04-26T09:21:06Z</time>
      </trkpt>
      <trkpt lat="45.40128" lon="5.73644">
        <ele>400.3</ele>
        <time>2019-04-26T09:21:07Z</time>
      </trkpt>
      <trkpt lat="45.40125" lon="5.73651">
        <ele>400.3</ele>
        <time>2019-04-26T09:21:08Z</time>
      </trkpt>
      <trkpt lat="45.40122" lon="5.73659">
        <ele>400.3</ele>
        <time>2019-04-26T09:21:09Z</time>
      </trkpt>
      <trkpt lat="45.40121" lon="5.73666">
        <ele>400.3</ele>
        <time>2019-04-26T09:21:10Z</time>
      </trkpt>
      <trkpt lat="45.40119" lon="5.73673">
        <ele>400.3</ele>
        <time>2019-04-26T09:21:11Z</time>
      </trkpt>
      <trkpt lat="45.40116" lon="5.73681">
        <ele>400.3</ele>
        <time>2019-04-26T09:21:12Z</time>
      </trkpt>
      <trkpt lat="45.40113" lon="5.73689">
        <ele>400.3</ele>
        <time>2019-04-26T09:21:13Z</time>
      </trkpt>
      <trkpt lat="45.4011" lon="5.73694">
        <ele>400.3</ele>
        <time>2019-04-26T09:21:14Z</time>
      </trkpt>
      <trkpt lat="45.40106" lon="5.737">
        <ele>400.4</ele>
        <time>2019-04-26T09:21:15Z</time>
      </trkpt>
      <trkpt lat="45.40101" lon="5.73704">
        <ele>400.4</ele>
        <time>2019-04-26T09:21:16Z</time>
      </trkpt>
      <trkpt lat="45.40095" lon="5.73698">
        <ele>400.5</ele>
        <time>2019-04-26T09:21:17Z</time>
      </trkpt>
      <trkpt lat="45.4009" lon="5.73697">
        <ele>400.6</ele>
        <time>2019-04-26T09:21:18Z</time>
      </trkpt>
      <trkpt lat="45.40084" lon="5.73697">
        <ele>400.6</ele>
        <time>2019-04-26T09:21:19Z</time>
      </trkpt>
      <trkpt lat="45.40079" lon="5.73696">
        <ele>400.7</ele>
        <time>2019-04-26T09:21:20Z</time>
      </trkpt>
      <trkpt lat="45.40073" lon="5.73695">
        <ele>400.7</ele>
        <time>2019-04-26T09:21:21Z</time>
      </trkpt>
      <trkpt lat="45.40069" lon="5.73695">
        <ele>400.7</ele>
        <time>2019-04-26T09:21:22Z</time>
      </trkpt>
      <trkpt lat="45.40065" lon="5.73694">
        <ele>400.7</ele>
        <time>2019-04-26T09:21:23Z</time>
      </trkpt>
      <trkpt lat="45.40061" lon="5.73694">
        <ele>400.7</ele>
        <time>2019-04-26T09:21:24Z</time>
      </trkpt>
      <trkpt lat="45.40058" lon="5.73695">
        <ele>400.8</ele>
        <time>2019-04-26T09:21:25Z</time>
      </trkpt>
      <trkpt lat="45.40053" lon="5.73701">
        <ele>400.9</ele>
        <time>2019-04-26T09:21:26Z</time>
      </trkpt>
      <trkpt lat="45.40051" lon="5.73705">
        <ele>400.9</ele>
        <time>2019-04-26T09:21:27Z</time>
      </trkpt>
      <trkpt lat="45.40048" lon="5.73709">
        <ele>401</ele>
        <time>2019-04-26T09:21:28Z</time>
      </trkpt>
      <trkpt lat="45.40046" lon="5.73713">
        <ele>401.1</ele>
        <time>2019-04-26T09:21:29Z</time>
      </trkpt>
      <trkpt lat="45.40045" lon="5.73716">
        <ele>401</ele>
        <time>2019-04-26T09:21:30Z</time>
      </trkpt>
      <trkpt lat="45.40045" lon="5.73721">
        <ele>401</ele>
        <time>2019-04-26T09:21:32Z</time>
      </trkpt>
      <trkpt lat="45.40042" lon="5.73723">
        <ele>401.1</ele>
        <time>2019-04-26T09:21:34Z</time>
      </trkpt>
      <trkpt lat="45.40038" lon="5.73722">
        <ele>401.2</ele>
        <time>2019-04-26T09:21:36Z</time>
      </trkpt>
      <trkpt lat="45.40035" lon="5.73722">
        <ele>401.3</ele>
        <time>2019-04-26T09:21:37Z</time>
      </trkpt>
      <trkpt lat="45.40032" lon="5.73724">
        <ele>401.4</ele>
        <time>2019-04-26T09:21:38Z</time>
      </trkpt>
      <trkpt lat="45.40028" lon="5.73724">
        <ele>401.5</ele>
        <time>2019-04-26T09:21:39Z</time>
      </trkpt>
      <trkpt lat="45.40024" lon="5.73725">
        <ele>401.6</ele>
        <time>2019-04-26T09:21:40Z</time>
      </trkpt>
      <trkpt lat="45.40019" lon="5.73727">
        <ele>401.8</ele>
        <time>2019-04-26T09:21:41Z</time>
      </trkpt>
      <trkpt lat="45.40014" lon="5.73727">
        <ele>401.9</ele>
        <time>2019-04-26T09:21:42Z</time>
      </trkpt>
      <trkpt lat="45.4001" lon="5.73729">
        <ele>402</ele>
        <time>2019-04-26T09:21:43Z</time>
      </trkpt>
      <trkpt lat="45.40006" lon="5.73732">
        <ele>402.1</ele>
        <time>2019-04-26T09:21:44Z</time>
      </trkpt>
      <trkpt lat="45.40003" lon="5.73733">
        <ele>402.1</ele>
        <time>2019-04-26T09:21:46Z</time>
      </trkpt>
      <trkpt lat="45.39997" lon="5.73737">
        <ele>402.2</ele>
        <time>2019-04-26T09:21:48Z</time>
      </trkpt>
      <trkpt lat="45.3999" lon="5.73743">
        <ele>402.3</ele>
        <time>2019-04-26T09:21:49Z</time>
      </trkpt>
      <trkpt lat="45.39981" lon="5.73749">
        <ele>402.3</ele>
        <time>2019-04-26T09:21:50Z</time>
      </trkpt>
      <trkpt lat="45.39973" lon="5.73755">
        <ele>402.3</ele>
        <time>2019-04-26T09:21:51Z</time>
      </trkpt>
      <trkpt lat="45.39968" lon="5.73759">
        <ele>402.2</ele>
        <time>2019-04-26T09:21:52Z</time>
      </trkpt>
      <trkpt lat="45.39963" lon="5.73763">
        <ele>402.2</ele>
        <time>2019-04-26T09:21:53Z</time>
      </trkpt>
      <trkpt lat="45.39959" lon="5.73768">
        <ele>402.1</ele>
        <time>2019-04-26T09:21:54Z</time>
      </trkpt>
      <trkpt lat="45.39954" lon="5.73773">
        <ele>402.1</ele>
        <time>2019-04-26T09:21:55Z</time>
      </trkpt>
      <trkpt lat="45.3995" lon="5.73777">
        <ele>402</ele>
        <time>2019-04-26T09:21:56Z</time>
      </trkpt>
      <trkpt lat="45.39945" lon="5.73781">
        <ele>401.9</ele>
        <time>2019-04-26T09:21:57Z</time>
      </trkpt>
      <trkpt lat="45.39942" lon="5.73784">
        <ele>401.8</ele>
        <time>2019-04-26T09:21:58Z</time>
      </trkpt>
      <trkpt lat="45.39938" lon="5.73787">
        <ele>401.8</ele>
        <time>2019-04-26T09:21:59Z</time>
      </trkpt>
      <trkpt lat="45.39934" lon="5.73791">
        <ele>401.8</ele>
        <time>2019-04-26T09:22:00Z</time>
      </trkpt>
      <trkpt lat="45.39932" lon="5.73795">
        <ele>401.7</ele>
        <time>2019-04-26T09:22:01Z</time>
      </trkpt>
      <trkpt lat="45.39929" lon="5.73799">
        <ele>401.7</ele>
        <time>2019-04-26T09:22:02Z</time>
      </trkpt>
      <trkpt lat="45.39926" lon="5.73801">
        <ele>401.6</ele>
        <time>2019-04-26T09:22:03Z</time>
      </trkpt>
      <trkpt lat="45.39922" lon="5.73805">
        <ele>401.6</ele>
        <time>2019-04-26T09:22:04Z</time>
      </trkpt>
      <trkpt lat="45.39919" lon="5.73809">
        <ele>401.5</ele>
        <time>2019-04-26T09:22:05Z</time>
      </trkpt>
      <trkpt lat="45.39916" lon="5.73813">
        <ele>401.4</ele>
        <time>2019-04-26T09:22:06Z</time>
      </trkpt>
      <trkpt lat="45.39913" lon="5.73818">
        <ele>401.4</ele>
        <time>2019-04-26T09:22:07Z</time>
      </trkpt>
      <trkpt lat="45.39911" lon="5.73823">
        <ele>401.3</ele>
        <time>2019-04-26T09:22:08Z</time>
      </trkpt>
      <trkpt lat="45.39909" lon="5.73827">
        <ele>401.3</ele>
        <time>2019-04-26T09:22:09Z</time>
      </trkpt>
      <trkpt lat="45.39905" lon="5.73831">
        <ele>401.2</ele>
        <time>2019-04-26T09:22:10Z</time>
      </trkpt>
      <trkpt lat="45.39903" lon="5.73835">
        <ele>401.2</ele>
        <time>2019-04-26T09:22:11Z</time>
      </trkpt>
      <trkpt lat="45.399" lon="5.7384">
        <ele>401.2</ele>
        <time>2019-04-26T09:22:12Z</time>
      </trkpt>
      <trkpt lat="45.39897" lon="5.73845">
        <ele>401.1</ele>
        <time>2019-04-26T09:22:13Z</time>
      </trkpt>
      <trkpt lat="45.39893" lon="5.7385">
        <ele>401.1</ele>
        <time>2019-04-26T09:22:14Z</time>
      </trkpt>
      <trkpt lat="45.3989" lon="5.73855">
        <ele>401.1</ele>
        <time>2019-04-26T09:22:15Z</time>
      </trkpt>
      <trkpt lat="45.39888" lon="5.73859">
        <ele>401.1</ele>
        <time>2019-04-26T09:22:16Z</time>
      </trkpt>
      <trkpt lat="45.39884" lon="5.73864">
        <ele>401.2</ele>
        <time>2019-04-26T09:22:17Z</time>
      </trkpt>
      <trkpt lat="45.39879" lon="5.73867">
        <ele>401.2</ele>
        <time>2019-04-26T09:22:18Z</time>
      </trkpt>
      <trkpt lat="45.39876" lon="5.73871">
        <ele>401.2</ele>
        <time>2019-04-26T09:22:19Z</time>
      </trkpt>
      <trkpt lat="45.39872" lon="5.73874">
        <ele>401.3</ele>
        <time>2019-04-26T09:22:20Z</time>
      </trkpt>
      <trkpt lat="45.39868" lon="5.73877">
        <ele>401.3</ele>
        <time>2019-04-26T09:22:21Z</time>
      </trkpt>
      <trkpt lat="45.39864" lon="5.7388">
        <ele>401.4</ele>
        <time>2019-04-26T09:22:22Z</time>
      </trkpt>
      <trkpt lat="45.3986" lon="5.73884">
        <ele>401.5</ele>
        <time>2019-04-26T09:22:23Z</time>
      </trkpt>
      <trkpt lat="45.39856" lon="5.73887">
        <ele>401.6</ele>
        <time>2019-04-26T09:22:24Z</time>
      </trkpt>
      <trkpt lat="45.39852" lon="5.73889">
        <ele>401.6</ele>
        <time>2019-04-26T09:22:25Z</time>
      </trkpt>
      <trkpt lat="45.39848" lon="5.73892">
        <ele>401.7</ele>
        <time>2019-04-26T09:22:26Z</time>
      </trkpt>
      <trkpt lat="45.39843" lon="5.73894">
        <ele>401.8</ele>
        <time>2019-04-26T09:22:27Z</time>
      </trkpt>
      <trkpt lat="45.3984" lon="5.73897">
        <ele>401.9</ele>
        <time>2019-04-26T09:22:28Z</time>
      </trkpt>
      <trkpt lat="45.39837" lon="5.73899">
        <ele>402</ele>
        <time>2019-04-26T09:22:29Z</time>
      </trkpt>
      <trkpt lat="45.39834" lon="5.73902">
        <ele>402</ele>
        <time>2019-04-26T09:22:30Z</time>
      </trkpt>
      <trkpt lat="45.3983" lon="5.73905">
        <ele>402.2</ele>
        <time>2019-04-26T09:22:31Z</time>
      </trkpt>
      <trkpt lat="45.39825" lon="5.73908">
        <ele>402.3</ele>
        <time>2019-04-26T09:22:32Z</time>
      </trkpt>
      <trkpt lat="45.3982" lon="5.7391">
        <ele>402.4</ele>
        <time>2019-04-26T09:22:33Z</time>
      </trkpt>
      <trkpt lat="45.3981" lon="5.73916">
        <ele>402.7</ele>
        <time>2019-04-26T09:22:34Z</time>
      </trkpt>
      <trkpt lat="45.39803" lon="5.73921">
        <ele>403</ele>
        <time>2019-04-26T09:22:35Z</time>
      </trkpt>
      <trkpt lat="45.39797" lon="5.73923">
        <ele>403</ele>
        <time>2019-04-26T09:22:37Z</time>
      </trkpt>
      <trkpt lat="45.39793" lon="5.73925">
        <ele>403.2</ele>
        <time>2019-04-26T09:22:38Z</time>
      </trkpt>
      <trkpt lat="45.39789" lon="5.73926">
        <ele>403.2</ele>
        <time>2019-04-26T09:22:39Z</time>
      </trkpt>
      <trkpt lat="45.39783" lon="5.73927">
        <ele>403.3</ele>
        <time>2019-04-26T09:22:40Z</time>
      </trkpt>
      <trkpt lat="45.39778" lon="5.73929">
        <ele>403.4</ele>
        <time>2019-04-26T09:22:41Z</time>
      </trkpt>
      <trkpt lat="45.39774" lon="5.73933">
        <ele>403.5</ele>
        <time>2019-04-26T09:22:42Z</time>
      </trkpt>
      <trkpt lat="45.39769" lon="5.73936">
        <ele>403.6</ele>
        <time>2019-04-26T09:22:43Z</time>
      </trkpt>
      <trkpt lat="45.39765" lon="5.73935">
        <ele>403.6</ele>
        <time>2019-04-26T09:22:44Z</time>
      </trkpt>
      <trkpt lat="45.39761" lon="5.73935">
        <ele>403.6</ele>
        <time>2019-04-26T09:22:45Z</time>
      </trkpt>
      <trkpt lat="45.39758" lon="5.73936">
        <ele>403.7</ele>
        <time>2019-04-26T09:22:46Z</time>
      </trkpt>
      <trkpt lat="45.39753" lon="5.73936">
        <ele>403.7</ele>
        <time>2019-04-26T09:22:47Z</time>
      </trkpt>
      <trkpt lat="45.39749" lon="5.73934">
        <ele>403.7</ele>
        <time>2019-04-26T09:22:48Z</time>
      </trkpt>
      <trkpt lat="45.39745" lon="5.73933">
        <ele>403.7</ele>
        <time>2019-04-26T09:22:49Z</time>
      </trkpt>
      <trkpt lat="45.39741" lon="5.73935">
        <ele>403.7</ele>
        <time>2019-04-26T09:22:50Z</time>
      </trkpt>
      <trkpt lat="45.39741" lon="5.73939">
        <ele>403.7</ele>
        <time>2019-04-26T09:22:51Z</time>
      </trkpt>
      <trkpt lat="45.3974" lon="5.73944">
        <ele>403.8</ele>
        <time>2019-04-26T09:22:52Z</time>
      </trkpt>
      <trkpt lat="45.39738" lon="5.73947">
        <ele>403.8</ele>
        <time>2019-04-26T09:22:53Z</time>
      </trkpt>
      <trkpt lat="45.39736" lon="5.73949">
        <ele>403.8</ele>
        <time>2019-04-26T09:22:54Z</time>
      </trkpt>
      <trkpt lat="45.39733" lon="5.7395">
        <ele>403.7</ele>
        <time>2019-04-26T09:22:55Z</time>
      </trkpt>
      <trkpt lat="45.3973" lon="5.7395">
        <ele>403.7</ele>
        <time>2019-04-26T09:22:56Z</time>
      </trkpt>
      <trkpt lat="45.39726" lon="5.7395">
        <ele>403.7</ele>
        <time>2019-04-26T09:22:57Z</time>
      </trkpt>
      <trkpt lat="45.39724" lon="5.73953">
        <ele>403.7</ele>
        <time>2019-04-26T09:22:59Z</time>
      </trkpt>
      <trkpt lat="45.39726" lon="5.73957">
        <ele>403.7</ele>
        <time>2019-04-26T09:23:01Z</time>
      </trkpt>
      <trkpt lat="45.39723" lon="5.73956">
        <ele>403.7</ele>
        <time>2019-04-26T09:23:07Z</time>
      </trkpt>
      <trkpt lat="45.39719" lon="5.73958">
        <ele>403.6</ele>
        <time>2019-04-26T09:23:09Z</time>
      </trkpt>
      <trkpt lat="45.39716" lon="5.73959">
        <ele>403.6</ele>
        <time>2019-04-26T09:23:10Z</time>
      </trkpt>
      <trkpt lat="45.39709" lon="5.73962">
        <ele>403.5</ele>
        <time>2019-04-26T09:23:11Z</time>
      </trkpt>
      <trkpt lat="45.39706" lon="5.73963">
        <ele>403.4</ele>
        <time>2019-04-26T09:23:12Z</time>
      </trkpt>
      <trkpt lat="45.39702" lon="5.73964">
        <ele>403.3</ele>
        <time>2019-04-26T09:23:13Z</time>
      </trkpt>
      <trkpt lat="45.39698" lon="5.73965">
        <ele>403.3</ele>
        <time>2019-04-26T09:23:14Z</time>
      </trkpt>
      <trkpt lat="45.39693" lon="5.73964">
        <ele>403.2</ele>
        <time>2019-04-26T09:23:16Z</time>
      </trkpt>
      <trkpt lat="45.3969" lon="5.73967">
        <ele>403.1</ele>
        <time>2019-04-26T09:23:17Z</time>
      </trkpt>
      <trkpt lat="45.39686" lon="5.73971">
        <ele>403</ele>
        <time>2019-04-26T09:23:18Z</time>
      </trkpt>
      <trkpt lat="45.39683" lon="5.73971">
        <ele>403</ele>
        <time>2019-04-26T09:23:20Z</time>
      </trkpt>
      <trkpt lat="45.39678" lon="5.73971">
        <ele>402.9</ele>
        <time>2019-04-26T09:23:22Z</time>
      </trkpt>
      <trkpt lat="45.39672" lon="5.73974">
        <ele>402.8</ele>
        <time>2019-04-26T09:23:23Z</time>
      </trkpt>
      <trkpt lat="45.39667" lon="5.73977">
        <ele>402.7</ele>
        <time>2019-04-26T09:23:24Z</time>
      </trkpt>
      <trkpt lat="45.39664" lon="5.73978">
        <ele>402.6</ele>
        <time>2019-04-26T09:23:25Z</time>
      </trkpt>
      <trkpt lat="45.39658" lon="5.73976">
        <ele>402.6</ele>
        <time>2019-04-26T09:23:27Z</time>
      </trkpt>
      <trkpt lat="45.39655" lon="5.73976">
        <ele>402.7</ele>
        <time>2019-04-26T09:23:28Z</time>
      </trkpt>
      <trkpt lat="45.39652" lon="5.73975">
        <ele>402.7</ele>
        <time>2019-04-26T09:23:29Z</time>
      </trkpt>
      <trkpt lat="45.39649" lon="5.73975">
        <ele>402.7</ele>
        <time>2019-04-26T09:23:30Z</time>
      </trkpt>
      <trkpt lat="45.39646" lon="5.73976">
        <ele>402.7</ele>
        <time>2019-04-26T09:23:31Z</time>
      </trkpt>
      <trkpt lat="45.39643" lon="5.73977">
        <ele>402.7</ele>
        <time>2019-04-26T09:23:32Z</time>
      </trkpt>
      <trkpt lat="45.3964" lon="5.73978">
        <ele>402.8</ele>
        <time>2019-04-26T09:23:33Z</time>
      </trkpt>
      <trkpt lat="45.39636" lon="5.73979">
        <ele>402.8</ele>
        <time>2019-04-26T09:23:34Z</time>
      </trkpt>
      <trkpt lat="45.39632" lon="5.7398">
        <ele>402.8</ele>
        <time>2019-04-26T09:23:35Z</time>
      </trkpt>
      <trkpt lat="45.39628" lon="5.7398">
        <ele>402.8</ele>
        <time>2019-04-26T09:23:36Z</time>
      </trkpt>
      <trkpt lat="45.39624" lon="5.73981">
        <ele>402.9</ele>
        <time>2019-04-26T09:23:37Z</time>
      </trkpt>
      <trkpt lat="45.39621" lon="5.73981">
        <ele>403</ele>
        <time>2019-04-26T09:23:38Z</time>
      </trkpt>
      <trkpt lat="45.39618" lon="5.73981">
        <ele>403</ele>
        <time>2019-04-26T09:23:39Z</time>
      </trkpt>
      <trkpt lat="45.39614" lon="5.73981">
        <ele>403.1</ele>
        <time>2019-04-26T09:23:40Z</time>
      </trkpt>
      <trkpt lat="45.39611" lon="5.73981">
        <ele>403.1</ele>
        <time>2019-04-26T09:23:41Z</time>
      </trkpt>
      <trkpt lat="45.39607" lon="5.73981">
        <ele>403.3</ele>
        <time>2019-04-26T09:23:42Z</time>
      </trkpt>
      <trkpt lat="45.39601" lon="5.73981">
        <ele>403.3</ele>
        <time>2019-04-26T09:23:44Z</time>
      </trkpt>
      <trkpt lat="45.39596" lon="5.73979">
        <ele>403.4</ele>
        <time>2019-04-26T09:23:46Z</time>
      </trkpt>
      <trkpt lat="45.39591" lon="5.73977">
        <ele>403.6</ele>
        <time>2019-04-26T09:23:47Z</time>
      </trkpt>
      <trkpt lat="45.39588" lon="5.73975">
        <ele>403.7</ele>
        <time>2019-04-26T09:23:48Z</time>
      </trkpt>
      <trkpt lat="45.39584" lon="5.73973">
        <ele>403.7</ele>
        <time>2019-04-26T09:23:49Z</time>
      </trkpt>
      <trkpt lat="45.39581" lon="5.73971">
        <ele>403.9</ele>
        <time>2019-04-26T09:23:50Z</time>
      </trkpt>
      <trkpt lat="45.39578" lon="5.73969">
        <ele>403.9</ele>
        <time>2019-04-26T09:23:51Z</time>
      </trkpt>
      <trkpt lat="45.39574" lon="5.73968">
        <ele>404</ele>
        <time>2019-04-26T09:23:52Z</time>
      </trkpt>
      <trkpt lat="45.39571" lon="5.73966">
        <ele>404.1</ele>
        <time>2019-04-26T09:23:53Z</time>
      </trkpt>
      <trkpt lat="45.39568" lon="5.73964">
        <ele>404.3</ele>
        <time>2019-04-26T09:23:54Z</time>
      </trkpt>
      <trkpt lat="45.39565" lon="5.73963">
        <ele>404.3</ele>
        <time>2019-04-26T09:23:55Z</time>
      </trkpt>
      <trkpt lat="45.39561" lon="5.73961">
        <ele>404.5</ele>
        <time>2019-04-26T09:23:56Z</time>
      </trkpt>
      <trkpt lat="45.39558" lon="5.7396">
        <ele>404.6</ele>
        <time>2019-04-26T09:23:57Z</time>
      </trkpt>
      <trkpt lat="45.39556" lon="5.73959">
        <ele>404.6</ele>
        <time>2019-04-26T09:23:58Z</time>
      </trkpt>
      <trkpt lat="45.39552" lon="5.73957">
        <ele>404.8</ele>
        <time>2019-04-26T09:23:59Z</time>
      </trkpt>
      <trkpt lat="45.39549" lon="5.73956">
        <ele>404.8</ele>
        <time>2019-04-26T09:24:00Z</time>
      </trkpt>
      <trkpt lat="45.39546" lon="5.73955">
        <ele>404.9</ele>
        <time>2019-04-26T09:24:01Z</time>
      </trkpt>
      <trkpt lat="45.39542" lon="5.73954">
        <ele>405</ele>
        <time>2019-04-26T09:24:02Z</time>
      </trkpt>
      <trkpt lat="45.39539" lon="5.73953">
        <ele>405.1</ele>
        <time>2019-04-26T09:24:03Z</time>
      </trkpt>
      <trkpt lat="45.39535" lon="5.73953">
        <ele>405.1</ele>
        <time>2019-04-26T09:24:04Z</time>
      </trkpt>
      <trkpt lat="45.39532" lon="5.73952">
        <ele>405.2</ele>
        <time>2019-04-26T09:24:05Z</time>
      </trkpt>
      <trkpt lat="45.39529" lon="5.73951">
        <ele>405.2</ele>
        <time>2019-04-26T09:24:06Z</time>
      </trkpt>
      <trkpt lat="45.39526" lon="5.73952">
        <ele>405.3</ele>
        <time>2019-04-26T09:24:07Z</time>
      </trkpt>
      <trkpt lat="45.39523" lon="5.7395">
        <ele>405.4</ele>
        <time>2019-04-26T09:24:08Z</time>
      </trkpt>
      <trkpt lat="45.3952" lon="5.7395">
        <ele>405.4</ele>
        <time>2019-04-26T09:24:09Z</time>
      </trkpt>
      <trkpt lat="45.39515" lon="5.7395">
        <ele>405.5</ele>
        <time>2019-04-26T09:24:11Z</time>
      </trkpt>
      <trkpt lat="45.3951" lon="5.7395">
        <ele>405.6</ele>
        <time>2019-04-26T09:24:13Z</time>
      </trkpt>
      <trkpt lat="45.39504" lon="5.7395">
        <ele>405.7</ele>
        <time>2019-04-26T09:24:15Z</time>
      </trkpt>
      <trkpt lat="45.39501" lon="5.7395">
        <ele>405.8</ele>
        <time>2019-04-26T09:24:16Z</time>
      </trkpt>
      <trkpt lat="45.39498" lon="5.7395">
        <ele>405.8</ele>
        <time>2019-04-26T09:24:17Z</time>
      </trkpt>
      <trkpt lat="45.39495" lon="5.73952">
        <ele>405.9</ele>
        <time>2019-04-26T09:24:18Z</time>
      </trkpt>
      <trkpt lat="45.39493" lon="5.73954">
        <ele>405.9</ele>
        <time>2019-04-26T09:24:19Z</time>
      </trkpt>
      <trkpt lat="45.39489" lon="5.73954">
        <ele>406</ele>
        <time>2019-04-26T09:24:20Z</time>
      </trkpt>
      <trkpt lat="45.39486" lon="5.73956">
        <ele>406</ele>
        <time>2019-04-26T09:24:21Z</time>
      </trkpt>
      <trkpt lat="45.39483" lon="5.73958">
        <ele>406.1</ele>
        <time>2019-04-26T09:24:22Z</time>
      </trkpt>
      <trkpt lat="45.3948" lon="5.7396">
        <ele>406.2</ele>
        <time>2019-04-26T09:24:23Z</time>
      </trkpt>
      <trkpt lat="45.39477" lon="5.73962">
        <ele>406.2</ele>
        <time>2019-04-26T09:24:24Z</time>
      </trkpt>
      <trkpt lat="45.39475" lon="5.73965">
        <ele>406.2</ele>
        <time>2019-04-26T09:24:25Z</time>
      </trkpt>
      <trkpt lat="45.39472" lon="5.73966">
        <ele>406.3</ele>
        <time>2019-04-26T09:24:26Z</time>
      </trkpt>
      <trkpt lat="45.39469" lon="5.73968">
        <ele>406.4</ele>
        <time>2019-04-26T09:24:27Z</time>
      </trkpt>
      <trkpt lat="45.39466" lon="5.7397">
        <ele>406.5</ele>
        <time>2019-04-26T09:24:28Z</time>
      </trkpt>
      <trkpt lat="45.39459" lon="5.73971">
        <ele>406.7</ele>
        <time>2019-04-26T09:24:29Z</time>
      </trkpt>
      <trkpt lat="45.39456" lon="5.73972">
        <ele>406.8</ele>
        <time>2019-04-26T09:24:30Z</time>
      </trkpt>
      <trkpt lat="45.39451" lon="5.73975">
        <ele>406.9</ele>
        <time>2019-04-26T09:24:31Z</time>
      </trkpt>
      <trkpt lat="45.39445" lon="5.73978">
        <ele>407.1</ele>
        <time>2019-04-26T09:24:32Z</time>
      </trkpt>
      <trkpt lat="45.3944" lon="5.73981">
        <ele>407.3</ele>
        <time>2019-04-26T09:24:33Z</time>
      </trkpt>
      <trkpt lat="45.39435" lon="5.73984">
        <ele>407.4</ele>
        <time>2019-04-26T09:24:34Z</time>
      </trkpt>
      <trkpt lat="45.39431" lon="5.73986">
        <ele>407.6</ele>
        <time>2019-04-26T09:24:35Z</time>
      </trkpt>
      <trkpt lat="45.39425" lon="5.73988">
        <ele>407.7</ele>
        <time>2019-04-26T09:24:36Z</time>
      </trkpt>
      <trkpt lat="45.39421" lon="5.7399">
        <ele>407.8</ele>
        <time>2019-04-26T09:24:37Z</time>
      </trkpt>
      <trkpt lat="45.39416" lon="5.73991">
        <ele>408</ele>
        <time>2019-04-26T09:24:38Z</time>
      </trkpt>
      <trkpt lat="45.39412" lon="5.73992">
        <ele>408</ele>
        <time>2019-04-26T09:24:39Z</time>
      </trkpt>
      <trkpt lat="45.39407" lon="5.73994">
        <ele>408.2</ele>
        <time>2019-04-26T09:24:40Z</time>
      </trkpt>
      <trkpt lat="45.39403" lon="5.73996">
        <ele>408.2</ele>
        <time>2019-04-26T09:24:41Z</time>
      </trkpt>
      <trkpt lat="45.39399" lon="5.73999">
        <ele>408.4</ele>
        <time>2019-04-26T09:24:42Z</time>
      </trkpt>
      <trkpt lat="45.39395" lon="5.74">
        <ele>408.5</ele>
        <time>2019-04-26T09:24:43Z</time>
      </trkpt>
      <trkpt lat="45.3939" lon="5.74">
        <ele>408.5</ele>
        <time>2019-04-26T09:24:44Z</time>
      </trkpt>
      <trkpt lat="45.39386" lon="5.73998">
        <ele>408.6</ele>
        <time>2019-04-26T09:24:45Z</time>
      </trkpt>
      <trkpt lat="45.39381" lon="5.73995">
        <ele>408.6</ele>
        <time>2019-04-26T09:24:46Z</time>
      </trkpt>
      <trkpt lat="45.39377" lon="5.73992">
        <ele>408.5</ele>
        <time>2019-04-26T09:24:47Z</time>
      </trkpt>
      <trkpt lat="45.39374" lon="5.73987">
        <ele>408.5</ele>
        <time>2019-04-26T09:24:48Z</time>
      </trkpt>
      <trkpt lat="45.3937" lon="5.73982">
        <ele>408.4</ele>
        <time>2019-04-26T09:24:49Z</time>
      </trkpt>
      <trkpt lat="45.39369" lon="5.73978">
        <ele>408.3</ele>
        <time>2019-04-26T09:24:50Z</time>
      </trkpt>
      <trkpt lat="45.39372" lon="5.73974">
        <ele>408.2</ele>
        <time>2019-04-26T09:24:51Z</time>
      </trkpt>
      <trkpt lat="45.3937" lon="5.7397">
        <ele>408.1</ele>
        <time>2019-04-26T09:24:52Z</time>
      </trkpt>
      <trkpt lat="45.39368" lon="5.73963">
        <ele>408</ele>
        <time>2019-04-26T09:24:53Z</time>
      </trkpt>
      <trkpt lat="45.39366" lon="5.73958">
        <ele>407.8</ele>
        <time>2019-04-26T09:24:54Z</time>
      </trkpt>
      <trkpt lat="45.39364" lon="5.73951">
        <ele>407.8</ele>
        <time>2019-04-26T09:24:55Z</time>
      </trkpt>
      <trkpt lat="45.39362" lon="5.73944">
        <ele>407.6</ele>
        <time>2019-04-26T09:24:58Z</time>
      </trkpt>
      <trkpt lat="45.39361" lon="5.7394">
        <ele>407.5</ele>
        <time>2019-04-26T09:24:59Z</time>
      </trkpt>
      <trkpt lat="45.3936" lon="5.73934">
        <ele>407.4</ele>
        <time>2019-04-26T09:25:00Z</time>
      </trkpt>
      <trkpt lat="45.39359" lon="5.73927">
        <ele>407.3</ele>
        <time>2019-04-26T09:25:01Z</time>
      </trkpt>
      <trkpt lat="45.39359" lon="5.73921">
        <ele>407.2</ele>
        <time>2019-04-26T09:25:02Z</time>
      </trkpt>
      <trkpt lat="45.39356" lon="5.73914">
        <ele>407</ele>
        <time>2019-04-26T09:25:03Z</time>
      </trkpt>
      <trkpt lat="45.39352" lon="5.73908">
        <ele>406.9</ele>
        <time>2019-04-26T09:25:04Z</time>
      </trkpt>
      <trkpt lat="45.39349" lon="5.73903">
        <ele>406.9</ele>
        <time>2019-04-26T09:25:05Z</time>
      </trkpt>
      <trkpt lat="45.39345" lon="5.73899">
        <ele>406.8</ele>
        <time>2019-04-26T09:25:06Z</time>
      </trkpt>
      <trkpt lat="45.39342" lon="5.73895">
        <ele>406.6</ele>
        <time>2019-04-26T09:25:07Z</time>
      </trkpt>
      <trkpt lat="45.39338" lon="5.73891">
        <ele>406.6</ele>
        <time>2019-04-26T09:25:08Z</time>
      </trkpt>
      <trkpt lat="45.39335" lon="5.73886">
        <ele>406.5</ele>
        <time>2019-04-26T09:25:09Z</time>
      </trkpt>
      <trkpt lat="45.39333" lon="5.73885">
        <ele>406.4</ele>
        <time>2019-04-26T09:25:10Z</time>
      </trkpt>
      <trkpt lat="45.3933" lon="5.73877">
        <ele>406.4</ele>
        <time>2019-04-26T09:25:12Z</time>
      </trkpt>
      <trkpt lat="45.39335" lon="5.73898">
        <ele>406.6</ele>
        <time>2019-04-26T09:25:14Z</time>
      </trkpt>
      <trkpt lat="45.39331" lon="5.73889">
        <ele>406.4</ele>
        <time>2019-04-26T09:25:54Z</time>
      </trkpt>
      <trkpt lat="45.39326" lon="5.73887">
        <ele>406.4</ele>
        <time>2019-04-26T09:25:56Z</time>
      </trkpt>
      <trkpt lat="45.39322" lon="5.73885">
        <ele>406.3</ele>
        <time>2019-04-26T09:25:58Z</time>
      </trkpt>
      <trkpt lat="45.39317" lon="5.73882">
        <ele>406.3</ele>
        <time>2019-04-26T09:26:00Z</time>
      </trkpt>
      <trkpt lat="45.39314" lon="5.7388">
        <ele>406.3</ele>
        <time>2019-04-26T09:26:01Z</time>
      </trkpt>
      <trkpt lat="45.3931" lon="5.73879">
        <ele>406.3</ele>
        <time>2019-04-26T09:26:02Z</time>
      </trkpt>
      <trkpt lat="45.39307" lon="5.73877">
        <ele>406.3</ele>
        <time>2019-04-26T09:26:03Z</time>
      </trkpt>
      <trkpt lat="45.39303" lon="5.73875">
        <ele>406.2</ele>
        <time>2019-04-26T09:26:04Z</time>
      </trkpt>
      <trkpt lat="45.39299" lon="5.73873">
        <ele>406.3</ele>
        <time>2019-04-26T09:26:05Z</time>
      </trkpt>
      <trkpt lat="45.39295" lon="5.73872">
        <ele>406.2</ele>
        <time>2019-04-26T09:26:06Z</time>
      </trkpt>
      <trkpt lat="45.39291" lon="5.7387">
        <ele>406.3</ele>
        <time>2019-04-26T09:26:07Z</time>
      </trkpt>
      <trkpt lat="45.39286" lon="5.7387">
        <ele>406.3</ele>
        <time>2019-04-26T09:26:08Z</time>
      </trkpt>
      <trkpt lat="45.3928" lon="5.7387">
        <ele>406.4</ele>
        <time>2019-04-26T09:26:09Z</time>
      </trkpt>
      <trkpt lat="45.39273" lon="5.7387">
        <ele>406.5</ele>
        <time>2019-04-26T09:26:10Z</time>
      </trkpt>
      <trkpt lat="45.39267" lon="5.73871">
        <ele>406.5</ele>
        <time>2019-04-26T09:26:11Z</time>
      </trkpt>
      <trkpt lat="45.39263" lon="5.73871">
        <ele>406.6</ele>
        <time>2019-04-26T09:26:12Z</time>
      </trkpt>
      <trkpt lat="45.39258" lon="5.73871">
        <ele>406.7</ele>
        <time>2019-04-26T09:26:13Z</time>
      </trkpt>
      <trkpt lat="45.39254" lon="5.73871">
        <ele>406.7</ele>
        <time>2019-04-26T09:26:14Z</time>
      </trkpt>
      <trkpt lat="45.3925" lon="5.73871">
        <ele>406.8</ele>
        <time>2019-04-26T09:26:15Z</time>
      </trkpt>
      <trkpt lat="45.39245" lon="5.73871">
        <ele>406.8</ele>
        <time>2019-04-26T09:26:16Z</time>
      </trkpt>
      <trkpt lat="45.39241" lon="5.7387">
        <ele>406.9</ele>
        <time>2019-04-26T09:26:17Z</time>
      </trkpt>
      <trkpt lat="45.39235" lon="5.7387">
        <ele>406.9</ele>
        <time>2019-04-26T09:26:18Z</time>
      </trkpt>
      <trkpt lat="45.39228" lon="5.73871">
        <ele>407</ele>
        <time>2019-04-26T09:26:19Z</time>
      </trkpt>
      <trkpt lat="45.39219" lon="5.73868">
        <ele>407.1</ele>
        <time>2019-04-26T09:26:20Z</time>
      </trkpt>
      <trkpt lat="45.39209" lon="5.73867">
        <ele>407.2</ele>
        <time>2019-04-26T09:26:21Z</time>
      </trkpt>
      <trkpt lat="45.39214" lon="5.73867">
        <ele>407.1</ele>
        <time>2019-04-26T09:26:22Z</time>
      </trkpt>
      <trkpt lat="45.39209" lon="5.73865">
        <ele>407.2</ele>
        <time>2019-04-26T09:26:23Z</time>
      </trkpt>
      <trkpt lat="45.39205" lon="5.73863">
        <ele>407.2</ele>
        <time>2019-04-26T09:26:24Z</time>
      </trkpt>
      <trkpt lat="45.39201" lon="5.73861">
        <ele>407.2</ele>
        <time>2019-04-26T09:26:25Z</time>
      </trkpt>
      <trkpt lat="45.39198" lon="5.73858">
        <ele>407.2</ele>
        <time>2019-04-26T09:26:26Z</time>
      </trkpt>
      <trkpt lat="45.39194" lon="5.73856">
        <ele>407.3</ele>
        <time>2019-04-26T09:26:27Z</time>
      </trkpt>
      <trkpt lat="45.39191" lon="5.73853">
        <ele>407.3</ele>
        <time>2019-04-26T09:26:28Z</time>
      </trkpt>
      <trkpt lat="45.39187" lon="5.73849">
        <ele>407.4</ele>
        <time>2019-04-26T09:26:29Z</time>
      </trkpt>
      <trkpt lat="45.39184" lon="5.73845">
        <ele>407.4</ele>
        <time>2019-04-26T09:26:30Z</time>
      </trkpt>
      <trkpt lat="45.3918" lon="5.7384">
        <ele>407.4</ele>
        <time>2019-04-26T09:26:31Z</time>
      </trkpt>
      <trkpt lat="45.39176" lon="5.73836">
        <ele>407.5</ele>
        <time>2019-04-26T09:26:32Z</time>
      </trkpt>
      <trkpt lat="45.39173" lon="5.73832">
        <ele>407.5</ele>
        <time>2019-04-26T09:26:33Z</time>
      </trkpt>
      <trkpt lat="45.39171" lon="5.73828">
        <ele>407.6</ele>
        <time>2019-04-26T09:26:34Z</time>
      </trkpt>
      <trkpt lat="45.39169" lon="5.73823">
        <ele>407.7</ele>
        <time>2019-04-26T09:26:35Z</time>
      </trkpt>
      <trkpt lat="45.39166" lon="5.73818">
        <ele>407.8</ele>
        <time>2019-04-26T09:26:36Z</time>
      </trkpt>
      <trkpt lat="45.39164" lon="5.73813">
        <ele>407.8</ele>
        <time>2019-04-26T09:26:37Z</time>
      </trkpt>
      <trkpt lat="45.39163" lon="5.73808">
        <ele>408</ele>
        <time>2019-04-26T09:26:38Z</time>
      </trkpt>
      <trkpt lat="45.39161" lon="5.73802">
        <ele>408.1</ele>
        <time>2019-04-26T09:26:39Z</time>
      </trkpt>
      <trkpt lat="45.3916" lon="5.73798">
        <ele>408.2</ele>
        <time>2019-04-26T09:26:40Z</time>
      </trkpt>
      <trkpt lat="45.39159" lon="5.73792">
        <ele>408.2</ele>
        <time>2019-04-26T09:26:41Z</time>
      </trkpt>
      <trkpt lat="45.39158" lon="5.73787">
        <ele>408.3</ele>
        <time>2019-04-26T09:26:42Z</time>
      </trkpt>
      <trkpt lat="45.39158" lon="5.73782">
        <ele>408.4</ele>
        <time>2019-04-26T09:26:43Z</time>
      </trkpt>
      <trkpt lat="45.39158" lon="5.73777">
        <ele>408.4</ele>
        <time>2019-04-26T09:26:44Z</time>
      </trkpt>
      <trkpt lat="45.39159" lon="5.73771">
        <ele>408.5</ele>
        <time>2019-04-26T09:26:45Z</time>
      </trkpt>
      <trkpt lat="45.3916" lon="5.73767">
        <ele>408.5</ele>
        <time>2019-04-26T09:26:46Z</time>
      </trkpt>
      <trkpt lat="45.39161" lon="5.73762">
        <ele>408.5</ele>
        <time>2019-04-26T09:26:47Z</time>
      </trkpt>
      <trkpt lat="45.39162" lon="5.73758">
        <ele>408.5</ele>
        <time>2019-04-26T09:26:48Z</time>
      </trkpt>
      <trkpt lat="45.39163" lon="5.73755">
        <ele>408.6</ele>
        <time>2019-04-26T09:26:49Z</time>
      </trkpt>
      <trkpt lat="45.39164" lon="5.73751">
        <ele>408.6</ele>
        <time>2019-04-26T09:26:50Z</time>
      </trkpt>
      <trkpt lat="45.39165" lon="5.73746">
        <ele>408.6</ele>
        <time>2019-04-26T09:26:51Z</time>
      </trkpt>
      <trkpt lat="45.39166" lon="5.73742">
        <ele>408.6</ele>
        <time>2019-04-26T09:26:52Z</time>
      </trkpt>
      <trkpt lat="45.39167" lon="5.73738">
        <ele>408.7</ele>
        <time>2019-04-26T09:26:53Z</time>
      </trkpt>
      <trkpt lat="45.39167" lon="5.73734">
        <ele>408.7</ele>
        <time>2019-04-26T09:26:54Z</time>
      </trkpt>
      <trkpt lat="45.39167" lon="5.7373">
        <ele>408.7</ele>
        <time>2019-04-26T09:26:55Z</time>
      </trkpt>
      <trkpt lat="45.39167" lon="5.73725">
        <ele>408.7</ele>
        <time>2019-04-26T09:26:56Z</time>
      </trkpt>
      <trkpt lat="45.39168" lon="5.7372">
        <ele>408.8</ele>
        <time>2019-04-26T09:26:57Z</time>
      </trkpt>
      <trkpt lat="45.39168" lon="5.73714">
        <ele>408.8</ele>
        <time>2019-04-26T09:26:58Z</time>
      </trkpt>
      <trkpt lat="45.39168" lon="5.73709">
        <ele>408.9</ele>
        <time>2019-04-26T09:26:59Z</time>
      </trkpt>
      <trkpt lat="45.39169" lon="5.73703">
        <ele>408.9</ele>
        <time>2019-04-26T09:27:00Z</time>
      </trkpt>
      <trkpt lat="45.39169" lon="5.73699">
        <ele>409</ele>
        <time>2019-04-26T09:27:01Z</time>
      </trkpt>
      <trkpt lat="45.39168" lon="5.73694">
        <ele>409</ele>
        <time>2019-04-26T09:27:02Z</time>
      </trkpt>
      <trkpt lat="45.39167" lon="5.73689">
        <ele>409.1</ele>
        <time>2019-04-26T09:27:03Z</time>
      </trkpt>
      <trkpt lat="45.39165" lon="5.73684">
        <ele>409.2</ele>
        <time>2019-04-26T09:27:04Z</time>
      </trkpt>
      <trkpt lat="45.39165" lon="5.73678">
        <ele>409.2</ele>
        <time>2019-04-26T09:27:05Z</time>
      </trkpt>
      <trkpt lat="45.39166" lon="5.73671">
        <ele>409.2</ele>
        <time>2019-04-26T09:27:06Z</time>
      </trkpt>
      <trkpt lat="45.39165" lon="5.73665">
        <ele>409.3</ele>
        <time>2019-04-26T09:27:07Z</time>
      </trkpt>
      <trkpt lat="45.39165" lon="5.73659">
        <ele>409.3</ele>
        <time>2019-04-26T09:27:08Z</time>
      </trkpt>
      <trkpt lat="45.39165" lon="5.73656">
        <ele>409.4</ele>
        <time>2019-04-26T09:27:09Z</time>
      </trkpt>
      <trkpt lat="45.39165" lon="5.73652">
        <ele>409.4</ele>
        <time>2019-04-26T09:27:10Z</time>
      </trkpt>
      <trkpt lat="45.39165" lon="5.73647">
        <ele>409.5</ele>
        <time>2019-04-26T09:27:11Z</time>
      </trkpt>
      <trkpt lat="45.39164" lon="5.73641">
        <ele>409.6</ele>
        <time>2019-04-26T09:27:15Z</time>
      </trkpt>
      <trkpt lat="45.39164" lon="5.73636">
        <ele>409.7</ele>
        <time>2019-04-26T09:27:17Z</time>
      </trkpt>
      <trkpt lat="45.39164" lon="5.73629">
        <ele>409.7</ele>
        <time>2019-04-26T09:27:19Z</time>
      </trkpt>
      <trkpt lat="45.39164" lon="5.73622">
        <ele>409.7</ele>
        <time>2019-04-26T09:27:21Z</time>
      </trkpt>
      <trkpt lat="45.39164" lon="5.73617">
        <ele>409.7</ele>
        <time>2019-04-26T09:27:22Z</time>
      </trkpt>
      <trkpt lat="45.39164" lon="5.7361">
        <ele>409.8</ele>
        <time>2019-04-26T09:27:24Z</time>
      </trkpt>
      <trkpt lat="45.39164" lon="5.73604">
        <ele>409.8</ele>
        <time>2019-04-26T09:27:26Z</time>
      </trkpt>
      <trkpt lat="45.39166" lon="5.73598">
        <ele>409.8</ele>
        <time>2019-04-26T09:27:28Z</time>
      </trkpt>
      <trkpt lat="45.39165" lon="5.73594">
        <ele>409.8</ele>
        <time>2019-04-26T09:27:29Z</time>
      </trkpt>
      <trkpt lat="45.39165" lon="5.73589">
        <ele>409.8</ele>
        <time>2019-04-26T09:27:30Z</time>
      </trkpt>
      <trkpt lat="45.39164" lon="5.73585">
        <ele>409.8</ele>
        <time>2019-04-26T09:27:31Z</time>
      </trkpt>
      <trkpt lat="45.39164" lon="5.7358">
        <ele>409.9</ele>
        <time>2019-04-26T09:27:32Z</time>
      </trkpt>
      <trkpt lat="45.39163" lon="5.73576">
        <ele>409.8</ele>
        <time>2019-04-26T09:27:33Z</time>
      </trkpt>
      <trkpt lat="45.39163" lon="5.73571">
        <ele>409.8</ele>
        <time>2019-04-26T09:27:34Z</time>
      </trkpt>
      <trkpt lat="45.39162" lon="5.73567">
        <ele>409.8</ele>
        <time>2019-04-26T09:27:35Z</time>
      </trkpt>
      <trkpt lat="45.39161" lon="5.73564">
        <ele>409.7</ele>
        <time>2019-04-26T09:27:36Z</time>
      </trkpt>
      <trkpt lat="45.3916" lon="5.73559">
        <ele>409.8</ele>
        <time>2019-04-26T09:27:37Z</time>
      </trkpt>
      <trkpt lat="45.39159" lon="5.73555">
        <ele>409.7</ele>
        <time>2019-04-26T09:27:38Z</time>
      </trkpt>
      <trkpt lat="45.39158" lon="5.73551">
        <ele>409.7</ele>
        <time>2019-04-26T09:27:39Z</time>
      </trkpt>
      <trkpt lat="45.39156" lon="5.73546">
        <ele>409.7</ele>
        <time>2019-04-26T09:27:40Z</time>
      </trkpt>
      <trkpt lat="45.39154" lon="5.73539">
        <ele>409.6</ele>
        <time>2019-04-26T09:27:41Z</time>
      </trkpt>
      <trkpt lat="45.39152" lon="5.73534">
        <ele>409.6</ele>
        <time>2019-04-26T09:27:42Z</time>
      </trkpt>
      <trkpt lat="45.3915" lon="5.7353">
        <ele>409.6</ele>
        <time>2019-04-26T09:27:43Z</time>
      </trkpt>
      <trkpt lat="45.39148" lon="5.73521">
        <ele>409.5</ele>
        <time>2019-04-26T09:27:44Z</time>
      </trkpt>
      <trkpt lat="45.39147" lon="5.73516">
        <ele>409.5</ele>
        <time>2019-04-26T09:27:47Z</time>
      </trkpt>
      <trkpt lat="45.39147" lon="5.73509">
        <ele>409.5</ele>
        <time>2019-04-26T09:27:50Z</time>
      </trkpt>
      <trkpt lat="45.39146" lon="5.73504">
        <ele>409.6</ele>
        <time>2019-04-26T09:27:51Z</time>
      </trkpt>
      <trkpt lat="45.39145" lon="5.73499">
        <ele>409.6</ele>
        <time>2019-04-26T09:27:52Z</time>
      </trkpt>
      <trkpt lat="45.39143" lon="5.73494">
        <ele>409.6</ele>
        <time>2019-04-26T09:27:53Z</time>
      </trkpt>
      <trkpt lat="45.39143" lon="5.73489">
        <ele>409.6</ele>
        <time>2019-04-26T09:27:54Z</time>
      </trkpt>
      <trkpt lat="45.3914" lon="5.73485">
        <ele>409.6</ele>
        <time>2019-04-26T09:27:56Z</time>
      </trkpt>
      <trkpt lat="45.39136" lon="5.7348">
        <ele>409.6</ele>
        <time>2019-04-26T09:27:58Z</time>
      </trkpt>
      <trkpt lat="45.39137" lon="5.73487">
        <ele>409.7</ele>
        <time>2019-04-26T09:27:59Z</time>
      </trkpt>
      <trkpt lat="45.39133" lon="5.73484">
        <ele>409.7</ele>
        <time>2019-04-26T09:28:00Z</time>
      </trkpt>
      <trkpt lat="45.39132" lon="5.7348">
        <ele>409.8</ele>
        <time>2019-04-26T09:28:01Z</time>
      </trkpt>
      <trkpt lat="45.39129" lon="5.73476">
        <ele>409.8</ele>
        <time>2019-04-26T09:28:02Z</time>
      </trkpt>
      <trkpt lat="45.39127" lon="5.73471">
        <ele>409.9</ele>
        <time>2019-04-26T09:28:03Z</time>
      </trkpt>
      <trkpt lat="45.39124" lon="5.73467">
        <ele>410</ele>
        <time>2019-04-26T09:28:04Z</time>
      </trkpt>
      <trkpt lat="45.39121" lon="5.73464">
        <ele>410.1</ele>
        <time>2019-04-26T09:28:05Z</time>
      </trkpt>
      <trkpt lat="45.39118" lon="5.7346">
        <ele>410.1</ele>
        <time>2019-04-26T09:28:06Z</time>
      </trkpt>
      <trkpt lat="45.39116" lon="5.73457">
        <ele>410.2</ele>
        <time>2019-04-26T09:28:07Z</time>
      </trkpt>
      <trkpt lat="45.39113" lon="5.73454">
        <ele>410.2</ele>
        <time>2019-04-26T09:28:08Z</time>
      </trkpt>
      <trkpt lat="45.3911" lon="5.73451">
        <ele>410.2</ele>
        <time>2019-04-26T09:28:09Z</time>
      </trkpt>
      <trkpt lat="45.39107" lon="5.73448">
        <ele>410.3</ele>
        <time>2019-04-26T09:28:10Z</time>
      </trkpt>
      <trkpt lat="45.39103" lon="5.73446">
        <ele>410.5</ele>
        <time>2019-04-26T09:28:11Z</time>
      </trkpt>
      <trkpt lat="45.39099" lon="5.73443">
        <ele>410.6</ele>
        <time>2019-04-26T09:28:12Z</time>
      </trkpt>
      <trkpt lat="45.39096" lon="5.7344">
        <ele>410.7</ele>
        <time>2019-04-26T09:28:13Z</time>
      </trkpt>
      <trkpt lat="45.39092" lon="5.73438">
        <ele>410.7</ele>
        <time>2019-04-26T09:28:14Z</time>
      </trkpt>
      <trkpt lat="45.39087" lon="5.73436">
        <ele>410.8</ele>
        <time>2019-04-26T09:28:15Z</time>
      </trkpt>
      <trkpt lat="45.39084" lon="5.73434">
        <ele>410.9</ele>
        <time>2019-04-26T09:28:16Z</time>
      </trkpt>
      <trkpt lat="45.3908" lon="5.73432">
        <ele>410.9</ele>
        <time>2019-04-26T09:28:18Z</time>
      </trkpt>
      <trkpt lat="45.39077" lon="5.73431">
        <ele>410.9</ele>
        <time>2019-04-26T09:28:19Z</time>
      </trkpt>
      <trkpt lat="45.39073" lon="5.73429">
        <ele>411</ele>
        <time>2019-04-26T09:28:20Z</time>
      </trkpt>
      <trkpt lat="45.39068" lon="5.73428">
        <ele>411</ele>
        <time>2019-04-26T09:28:21Z</time>
      </trkpt>
      <trkpt lat="45.39063" lon="5.73427">
        <ele>411.1</ele>
        <time>2019-04-26T09:28:22Z</time>
      </trkpt>
      <trkpt lat="45.39059" lon="5.73427">
        <ele>411.1</ele>
        <time>2019-04-26T09:28:23Z</time>
      </trkpt>
      <trkpt lat="45.39055" lon="5.73428">
        <ele>411.1</ele>
        <time>2019-04-26T09:28:24Z</time>
      </trkpt>
      <trkpt lat="45.39051" lon="5.73429">
        <ele>411.1</ele>
        <time>2019-04-26T09:28:25Z</time>
      </trkpt>
      <trkpt lat="45.39047" lon="5.7343">
        <ele>411.2</ele>
        <time>2019-04-26T09:28:26Z</time>
      </trkpt>
      <trkpt lat="45.39044" lon="5.73431">
        <ele>411.2</ele>
        <time>2019-04-26T09:28:27Z</time>
      </trkpt>
      <trkpt lat="45.3904" lon="5.73433">
        <ele>411.2</ele>
        <time>2019-04-26T09:28:28Z</time>
      </trkpt>
      <trkpt lat="45.39036" lon="5.73436">
        <ele>411.2</ele>
        <time>2019-04-26T09:28:29Z</time>
      </trkpt>
      <trkpt lat="45.39032" lon="5.73438">
        <ele>411.3</ele>
        <time>2019-04-26T09:28:30Z</time>
      </trkpt>
      <trkpt lat="45.39029" lon="5.73439">
        <ele>411.3</ele>
        <time>2019-04-26T09:28:33Z</time>
      </trkpt>
      <trkpt lat="45.39025" lon="5.73442">
        <ele>411.3</ele>
        <time>2019-04-26T09:28:35Z</time>
      </trkpt>
      <trkpt lat="45.39022" lon="5.73445">
        <ele>411.3</ele>
        <time>2019-04-26T09:28:37Z</time>
      </trkpt>
      <trkpt lat="45.39019" lon="5.73445">
        <ele>411.4</ele>
        <time>2019-04-26T09:28:51Z</time>
      </trkpt>
      <trkpt lat="45.39017" lon="5.73449">
        <ele>411.3</ele>
        <time>2019-04-26T09:29:32Z</time>
      </trkpt>
      <trkpt lat="45.39017" lon="5.73455">
        <ele>411.2</ele>
        <time>2019-04-26T09:29:34Z</time>
      </trkpt>
      <trkpt lat="45.39018" lon="5.73459">
        <ele>411.2</ele>
        <time>2019-04-26T09:29:36Z</time>
      </trkpt>
      <trkpt lat="45.3902" lon="5.73462">
        <ele>411.1</ele>
        <time>2019-04-26T09:29:40Z</time>
      </trkpt>
      <trkpt lat="45.39022" lon="5.73466">
        <ele>411.1</ele>
        <time>2019-04-26T09:29:42Z</time>
      </trkpt>
      <trkpt lat="45.39022" lon="5.73472">
        <ele>411</ele>
        <time>2019-04-26T09:29:45Z</time>
      </trkpt>
      <trkpt lat="45.39022" lon="5.73477">
        <ele>411</ele>
        <time>2019-04-26T09:29:47Z</time>
      </trkpt>
      <trkpt lat="45.39021" lon="5.73481">
        <ele>411</ele>
        <time>2019-04-26T09:29:49Z</time>
      </trkpt>
      <trkpt lat="45.39022" lon="5.73487">
        <ele>410.9</ele>
        <time>2019-04-26T09:29:51Z</time>
      </trkpt>
      <trkpt lat="45.39024" lon="5.73491">
        <ele>410.9</ele>
        <time>2019-04-26T09:29:52Z</time>
      </trkpt>
      <trkpt lat="45.39025" lon="5.73495">
        <ele>410.9</ele>
        <time>2019-04-26T09:29:53Z</time>
      </trkpt>
      <trkpt lat="45.39026" lon="5.735">
        <ele>410.9</ele>
        <time>2019-04-26T09:29:54Z</time>
      </trkpt>
      <trkpt lat="45.39026" lon="5.73505">
        <ele>410.8</ele>
        <time>2019-04-26T09:29:55Z</time>
      </trkpt>
      <trkpt lat="45.39027" lon="5.73511">
        <ele>410.8</ele>
        <time>2019-04-26T09:29:56Z</time>
      </trkpt>
      <trkpt lat="45.39026" lon="5.73517">
        <ele>410.7</ele>
        <time>2019-04-26T09:29:57Z</time>
      </trkpt>
      <trkpt lat="45.39023" lon="5.73525">
        <ele>410.8</ele>
        <time>2019-04-26T09:29:58Z</time>
      </trkpt>
      <trkpt lat="45.39019" lon="5.73529">
        <ele>410.9</ele>
        <time>2019-04-26T09:29:59Z</time>
      </trkpt>
      <trkpt lat="45.39016" lon="5.73532">
        <ele>411</ele>
        <time>2019-04-26T09:30:00Z</time>
      </trkpt>
      <trkpt lat="45.39012" lon="5.73535">
        <ele>411</ele>
        <time>2019-04-26T09:30:01Z</time>
      </trkpt>
      <trkpt lat="45.39008" lon="5.73537">
        <ele>411.1</ele>
        <time>2019-04-26T09:30:02Z</time>
      </trkpt>
      <trkpt lat="45.39004" lon="5.73539">
        <ele>411.2</ele>
        <time>2019-04-26T09:30:03Z</time>
      </trkpt>
      <trkpt lat="45.39001" lon="5.73541">
        <ele>411.2</ele>
        <time>2019-04-26T09:30:04Z</time>
      </trkpt>
      <trkpt lat="45.38997" lon="5.73543">
        <ele>411.3</ele>
        <time>2019-04-26T09:30:05Z</time>
      </trkpt>
      <trkpt lat="45.38993" lon="5.73545">
        <ele>411.3</ele>
        <time>2019-04-26T09:30:06Z</time>
      </trkpt>
      <trkpt lat="45.38989" lon="5.73547">
        <ele>411.4</ele>
        <time>2019-04-26T09:30:07Z</time>
      </trkpt>
      <trkpt lat="45.38984" lon="5.73549">
        <ele>411.4</ele>
        <time>2019-04-26T09:30:08Z</time>
      </trkpt>
      <trkpt lat="45.3898" lon="5.73552">
        <ele>411.5</ele>
        <time>2019-04-26T09:30:09Z</time>
      </trkpt>
      <trkpt lat="45.38977" lon="5.73555">
        <ele>411.5</ele>
        <time>2019-04-26T09:30:10Z</time>
      </trkpt>
      <trkpt lat="45.38972" lon="5.73557">
        <ele>411.5</ele>
        <time>2019-04-26T09:30:11Z</time>
      </trkpt>
      <trkpt lat="45.38968" lon="5.73559">
        <ele>411.6</ele>
        <time>2019-04-26T09:30:12Z</time>
      </trkpt>
      <trkpt lat="45.38964" lon="5.73563">
        <ele>411.6</ele>
        <time>2019-04-26T09:30:13Z</time>
      </trkpt>
      <trkpt lat="45.3896" lon="5.73566">
        <ele>411.6</ele>
        <time>2019-04-26T09:30:14Z</time>
      </trkpt>
      <trkpt lat="45.38957" lon="5.73568">
        <ele>411.6</ele>
        <time>2019-04-26T09:30:15Z</time>
      </trkpt>
      <trkpt lat="45.38952" lon="5.73572">
        <ele>411.6</ele>
        <time>2019-04-26T09:30:17Z</time>
      </trkpt>
      <trkpt lat="45.38949" lon="5.73574">
        <ele>411.6</ele>
        <time>2019-04-26T09:30:18Z</time>
      </trkpt>
      <trkpt lat="45.38947" lon="5.73576">
        <ele>411.6</ele>
        <time>2019-04-26T09:30:19Z</time>
      </trkpt>
      <trkpt lat="45.38944" lon="5.73578">
        <ele>411.6</ele>
        <time>2019-04-26T09:30:20Z</time>
      </trkpt>
      <trkpt lat="45.38941" lon="5.73581">
        <ele>411.6</ele>
        <time>2019-04-26T09:30:21Z</time>
      </trkpt>
      <trkpt lat="45.38938" lon="5.73583">
        <ele>411.6</ele>
        <time>2019-04-26T09:30:22Z</time>
      </trkpt>
      <trkpt lat="45.38935" lon="5.73585">
        <ele>411.7</ele>
        <time>2019-04-26T09:30:23Z</time>
      </trkpt>
      <trkpt lat="45.38932" lon="5.73588">
        <ele>411.7</ele>
        <time>2019-04-26T09:30:24Z</time>
      </trkpt>
      <trkpt lat="45.38929" lon="5.7359">
        <ele>411.7</ele>
        <time>2019-04-26T09:30:25Z</time>
      </trkpt>
      <trkpt lat="45.38926" lon="5.73592">
        <ele>411.7</ele>
        <time>2019-04-26T09:30:26Z</time>
      </trkpt>
      <trkpt lat="45.38921" lon="5.73595">
        <ele>411.7</ele>
        <time>2019-04-26T09:30:27Z</time>
      </trkpt>
      <trkpt lat="45.38918" lon="5.73597">
        <ele>411.8</ele>
        <time>2019-04-26T09:30:28Z</time>
      </trkpt>
      <trkpt lat="45.38913" lon="5.73599">
        <ele>411.8</ele>
        <time>2019-04-26T09:30:29Z</time>
      </trkpt>
      <trkpt lat="45.38909" lon="5.73602">
        <ele>411.9</ele>
        <time>2019-04-26T09:30:30Z</time>
      </trkpt>
      <trkpt lat="45.38904" lon="5.73605">
        <ele>412</ele>
        <time>2019-04-26T09:30:31Z</time>
      </trkpt>
      <trkpt lat="45.38899" lon="5.73608">
        <ele>412</ele>
        <time>2019-04-26T09:30:32Z</time>
      </trkpt>
      <trkpt lat="45.38894" lon="5.73611">
        <ele>412.1</ele>
        <time>2019-04-26T09:30:33Z</time>
      </trkpt>
      <trkpt lat="45.38888" lon="5.73615">
        <ele>412.2</ele>
        <time>2019-04-26T09:30:34Z</time>
      </trkpt>
      <trkpt lat="45.38882" lon="5.7362">
        <ele>412.4</ele>
        <time>2019-04-26T09:30:35Z</time>
      </trkpt>
      <trkpt lat="45.38877" lon="5.73626">
        <ele>412.6</ele>
        <time>2019-04-26T09:30:36Z</time>
      </trkpt>
      <trkpt lat="45.38873" lon="5.73632">
        <ele>413.2</ele>
        <time>2019-04-26T09:30:37Z</time>
      </trkpt>
      <trkpt lat="45.38871" lon="5.73639">
        <ele>413.8</ele>
        <time>2019-04-26T09:30:38Z</time>
      </trkpt>
      <trkpt lat="45.38871" lon="5.73645">
        <ele>414.3</ele>
        <time>2019-04-26T09:30:39Z</time>
      </trkpt>
      <trkpt lat="45.38871" lon="5.73652">
        <ele>415</ele>
        <time>2019-04-26T09:30:40Z</time>
      </trkpt>
      <trkpt lat="45.38871" lon="5.73658">
        <ele>415.5</ele>
        <time>2019-04-26T09:30:41Z</time>
      </trkpt>
      <trkpt lat="45.3887" lon="5.73663">
        <ele>416.1</ele>
        <time>2019-04-26T09:30:42Z</time>
      </trkpt>
      <trkpt lat="45.38869" lon="5.7367">
        <ele>416.8</ele>
        <time>2019-04-26T09:30:43Z</time>
      </trkpt>
      <trkpt lat="45.38869" lon="5.73676">
        <ele>417.4</ele>
        <time>2019-04-26T09:30:44Z</time>
      </trkpt>
      <trkpt lat="45.38869" lon="5.73682">
        <ele>418</ele>
        <time>2019-04-26T09:30:45Z</time>
      </trkpt>
      <trkpt lat="45.38868" lon="5.73688">
        <ele>418.5</ele>
        <time>2019-04-26T09:30:46Z</time>
      </trkpt>
      <trkpt lat="45.38868" lon="5.73695">
        <ele>419.1</ele>
        <time>2019-04-26T09:30:47Z</time>
      </trkpt>
      <trkpt lat="45.38868" lon="5.73701">
        <ele>419.7</ele>
        <time>2019-04-26T09:30:48Z</time>
      </trkpt>
      <trkpt lat="45.38868" lon="5.73708">
        <ele>420.4</ele>
        <time>2019-04-26T09:30:49Z</time>
      </trkpt>
      <trkpt lat="45.38868" lon="5.73713">
        <ele>420.8</ele>
        <time>2019-04-26T09:30:50Z</time>
      </trkpt>
      <trkpt lat="45.38867" lon="5.73721">
        <ele>421.4</ele>
        <time>2019-04-26T09:30:52Z</time>
      </trkpt>
      <trkpt lat="45.38867" lon="5.73727">
        <ele>421.9</ele>
        <time>2019-04-26T09:30:53Z</time>
      </trkpt>
      <trkpt lat="45.3887" lon="5.73732">
        <ele>422.5</ele>
        <time>2019-04-26T09:30:54Z</time>
      </trkpt>
      <trkpt lat="45.38873" lon="5.73734">
        <ele>424</ele>
        <time>2019-04-26T09:30:55Z</time>
      </trkpt>
      <trkpt lat="45.38877" lon="5.73738">
        <ele>424</ele>
        <time>2019-04-26T09:30:56Z</time>
      </trkpt>
      <trkpt lat="45.3888" lon="5.7374">
        <ele>423.9</ele>
        <time>2019-04-26T09:30:57Z</time>
      </trkpt>
      <trkpt lat="45.38883" lon="5.73742">
        <ele>423.7</ele>
        <time>2019-04-26T09:30:58Z</time>
      </trkpt>
      <trkpt lat="45.38887" lon="5.73744">
        <ele>423.5</ele>
        <time>2019-04-26T09:30:59Z</time>
      </trkpt>
      <trkpt lat="45.3889" lon="5.73746">
        <ele>423.2</ele>
        <time>2019-04-26T09:31:00Z</time>
      </trkpt>
      <trkpt lat="45.38894" lon="5.73749">
        <ele>422.8</ele>
        <time>2019-04-26T09:31:01Z</time>
      </trkpt>
      <trkpt lat="45.38898" lon="5.73751">
        <ele>422.2</ele>
        <time>2019-04-26T09:31:02Z</time>
      </trkpt>
      <trkpt lat="45.38903" lon="5.73753">
        <ele>421.6</ele>
        <time>2019-04-26T09:31:03Z</time>
      </trkpt>
      <trkpt lat="45.38907" lon="5.73755">
        <ele>421.1</ele>
        <time>2019-04-26T09:31:04Z</time>
      </trkpt>
      <trkpt lat="45.38911" lon="5.73757">
        <ele>420.5</ele>
        <time>2019-04-26T09:31:05Z</time>
      </trkpt>
      <trkpt lat="45.38915" lon="5.7376">
        <ele>419.8</ele>
        <time>2019-04-26T09:31:06Z</time>
      </trkpt>
      <trkpt lat="45.38919" lon="5.73763">
        <ele>419.3</ele>
        <time>2019-04-26T09:31:08Z</time>
      </trkpt>
      <trkpt lat="45.38923" lon="5.73766">
        <ele>418.9</ele>
        <time>2019-04-26T09:31:09Z</time>
      </trkpt>
      <trkpt lat="45.38928" lon="5.7377">
        <ele>418.7</ele>
        <time>2019-04-26T09:31:10Z</time>
      </trkpt>
      <trkpt lat="45.38934" lon="5.73773">
        <ele>418.5</ele>
        <time>2019-04-26T09:31:11Z</time>
      </trkpt>
      <trkpt lat="45.38938" lon="5.73776">
        <ele>418.4</ele>
        <time>2019-04-26T09:31:12Z</time>
      </trkpt>
      <trkpt lat="45.38941" lon="5.73779">
        <ele>418.3</ele>
        <time>2019-04-26T09:31:13Z</time>
      </trkpt>
      <trkpt lat="45.38945" lon="5.73781">
        <ele>418.3</ele>
        <time>2019-04-26T09:31:14Z</time>
      </trkpt>
      <trkpt lat="45.38948" lon="5.73784">
        <ele>418.3</ele>
        <time>2019-04-26T09:31:15Z</time>
      </trkpt>
      <trkpt lat="45.38951" lon="5.73786">
        <ele>418.3</ele>
        <time>2019-04-26T09:31:16Z</time>
      </trkpt>
      <trkpt lat="45.38955" lon="5.73789">
        <ele>418.3</ele>
        <time>2019-04-26T09:31:17Z</time>
      </trkpt>
      <trkpt lat="45.38958" lon="5.73794">
        <ele>418.3</ele>
        <time>2019-04-26T09:31:19Z</time>
      </trkpt>
      <trkpt lat="45.38958" lon="5.73798">
        <ele>418.3</ele>
        <time>2019-04-26T09:31:26Z</time>
      </trkpt>
      <trkpt lat="45.38954" lon="5.738">
        <ele>418.3</ele>
        <time>2019-04-26T09:31:29Z</time>
      </trkpt>
      <trkpt lat="45.38954" lon="5.73804">
        <ele>418.3</ele>
        <time>2019-04-26T09:31:54Z</time>
      </trkpt>
      <trkpt lat="45.38956" lon="5.73809">
        <ele>418.3</ele>
        <time>2019-04-26T09:31:56Z</time>
      </trkpt>
      <trkpt lat="45.38959" lon="5.73813">
        <ele>418.2</ele>
        <time>2019-04-26T09:31:58Z</time>
      </trkpt>
      <trkpt lat="45.38964" lon="5.73818">
        <ele>418.2</ele>
        <time>2019-04-26T09:32:01Z</time>
      </trkpt>
      <trkpt lat="45.3897" lon="5.73821">
        <ele>418.1</ele>
        <time>2019-04-26T09:32:03Z</time>
      </trkpt>
      <trkpt lat="45.38975" lon="5.73824">
        <ele>418</ele>
        <time>2019-04-26T09:32:04Z</time>
      </trkpt>
      <trkpt lat="45.38979" lon="5.73828">
        <ele>418</ele>
        <time>2019-04-26T09:32:05Z</time>
      </trkpt>
      <trkpt lat="45.38986" lon="5.73832">
        <ele>417.9</ele>
        <time>2019-04-26T09:32:06Z</time>
      </trkpt>
      <trkpt lat="45.3899" lon="5.73835">
        <ele>417.9</ele>
        <time>2019-04-26T09:32:07Z</time>
      </trkpt>
      <trkpt lat="45.38993" lon="5.73838">
        <ele>417.8</ele>
        <time>2019-04-26T09:32:08Z</time>
      </trkpt>
      <trkpt lat="45.38996" lon="5.73842">
        <ele>417.8</ele>
        <time>2019-04-26T09:32:09Z</time>
      </trkpt>
      <trkpt lat="45.38999" lon="5.73844">
        <ele>417.7</ele>
        <time>2019-04-26T09:32:10Z</time>
      </trkpt>
      <trkpt lat="45.39004" lon="5.73851">
        <ele>417.6</ele>
        <time>2019-04-26T09:32:11Z</time>
      </trkpt>
      <trkpt lat="45.39011" lon="5.73855">
        <ele>417.5</ele>
        <time>2019-04-26T09:32:12Z</time>
      </trkpt>
      <trkpt lat="45.39015" lon="5.73857">
        <ele>417.3</ele>
        <time>2019-04-26T09:32:13Z</time>
      </trkpt>
      <trkpt lat="45.39018" lon="5.73861">
        <ele>417.2</ele>
        <time>2019-04-26T09:32:14Z</time>
      </trkpt>
      <trkpt lat="45.39022" lon="5.73864">
        <ele>417.1</ele>
        <time>2019-04-26T09:32:15Z</time>
      </trkpt>
      <trkpt lat="45.39025" lon="5.73868">
        <ele>416.9</ele>
        <time>2019-04-26T09:32:16Z</time>
      </trkpt>
      <trkpt lat="45.39029" lon="5.7387">
        <ele>416.8</ele>
        <time>2019-04-26T09:32:17Z</time>
      </trkpt>
      <trkpt lat="45.39034" lon="5.73873">
        <ele>416.6</ele>
        <time>2019-04-26T09:32:18Z</time>
      </trkpt>
      <trkpt lat="45.39038" lon="5.73876">
        <ele>416.5</ele>
        <time>2019-04-26T09:32:19Z</time>
      </trkpt>
      <trkpt lat="45.39044" lon="5.73879">
        <ele>416.1</ele>
        <time>2019-04-26T09:32:20Z</time>
      </trkpt>
      <trkpt lat="45.39048" lon="5.73882">
        <ele>415.9</ele>
        <time>2019-04-26T09:32:21Z</time>
      </trkpt>
      <trkpt lat="45.39052" lon="5.73886">
        <ele>415.7</ele>
        <time>2019-04-26T09:32:22Z</time>
      </trkpt>
      <trkpt lat="45.39057" lon="5.7389">
        <ele>415.5</ele>
        <time>2019-04-26T09:32:23Z</time>
      </trkpt>
      <trkpt lat="45.39062" lon="5.73893">
        <ele>415.3</ele>
        <time>2019-04-26T09:32:24Z</time>
      </trkpt>
      <trkpt lat="45.39067" lon="5.73896">
        <ele>415.1</ele>
        <time>2019-04-26T09:32:25Z</time>
      </trkpt>
      <trkpt lat="45.39073" lon="5.739">
        <ele>414.9</ele>
        <time>2019-04-26T09:32:26Z</time>
      </trkpt>
      <trkpt lat="45.39077" lon="5.73903">
        <ele>414.8</ele>
        <time>2019-04-26T09:32:27Z</time>
      </trkpt>
      <trkpt lat="45.39081" lon="5.73906">
        <ele>414.8</ele>
        <time>2019-04-26T09:32:28Z</time>
      </trkpt>
      <trkpt lat="45.39085" lon="5.7391">
        <ele>414.7</ele>
        <time>2019-04-26T09:32:29Z</time>
      </trkpt>
      <trkpt lat="45.39089" lon="5.73914">
        <ele>414.7</ele>
        <time>2019-04-26T09:32:30Z</time>
      </trkpt>
      <trkpt lat="45.39094" lon="5.73917">
        <ele>414.6</ele>
        <time>2019-04-26T09:32:31Z</time>
      </trkpt>
      <trkpt lat="45.39096" lon="5.73919">
        <ele>414.6</ele>
        <time>2019-04-26T09:32:32Z</time>
      </trkpt>
      <trkpt lat="45.39099" lon="5.73923">
        <ele>414.6</ele>
        <time>2019-04-26T09:32:33Z</time>
      </trkpt>
      <trkpt lat="45.39103" lon="5.73926">
        <ele>414.5</ele>
        <time>2019-04-26T09:32:34Z</time>
      </trkpt>
      <trkpt lat="45.39108" lon="5.73929">
        <ele>414.5</ele>
        <time>2019-04-26T09:32:35Z</time>
      </trkpt>
      <trkpt lat="45.39113" lon="5.73933">
        <ele>414.5</ele>
        <time>2019-04-26T09:32:37Z</time>
      </trkpt>
      <trkpt lat="45.39115" lon="5.73935">
        <ele>414.5</ele>
        <time>2019-04-26T09:32:38Z</time>
      </trkpt>
      <trkpt lat="45.39123" lon="5.73941">
        <ele>414.4</ele>
        <time>2019-04-26T09:32:39Z</time>
      </trkpt>
      <trkpt lat="45.39129" lon="5.73942">
        <ele>414.1</ele>
        <time>2019-04-26T09:32:40Z</time>
      </trkpt>
      <trkpt lat="45.39136" lon="5.73945">
        <ele>413.8</ele>
        <time>2019-04-26T09:32:42Z</time>
      </trkpt>
      <trkpt lat="45.3914" lon="5.73948">
        <ele>413.7</ele>
        <time>2019-04-26T09:32:43Z</time>
      </trkpt>
      <trkpt lat="45.39143" lon="5.73952">
        <ele>413.6</ele>
        <time>2019-04-26T09:32:44Z</time>
      </trkpt>
      <trkpt lat="45.39146" lon="5.73955">
        <ele>413.5</ele>
        <time>2019-04-26T09:32:45Z</time>
      </trkpt>
      <trkpt lat="45.3915" lon="5.73957">
        <ele>413.5</ele>
        <time>2019-04-26T09:32:46Z</time>
      </trkpt>
      <trkpt lat="45.39154" lon="5.7396">
        <ele>413.4</ele>
        <time>2019-04-26T09:32:47Z</time>
      </trkpt>
      <trkpt lat="45.39158" lon="5.73963">
        <ele>413.4</ele>
        <time>2019-04-26T09:32:48Z</time>
      </trkpt>
      <trkpt lat="45.39162" lon="5.73966">
        <ele>413.4</ele>
        <time>2019-04-26T09:32:49Z</time>
      </trkpt>
      <trkpt lat="45.39167" lon="5.73968">
        <ele>413.4</ele>
        <time>2019-04-26T09:32:50Z</time>
      </trkpt>
      <trkpt lat="45.39171" lon="5.73971">
        <ele>413.3</ele>
        <time>2019-04-26T09:32:51Z</time>
      </trkpt>
      <trkpt lat="45.39176" lon="5.73973">
        <ele>413.3</ele>
        <time>2019-04-26T09:32:52Z</time>
      </trkpt>
      <trkpt lat="45.39181" lon="5.73974">
        <ele>413.3</ele>
        <time>2019-04-26T09:32:53Z</time>
      </trkpt>
      <trkpt lat="45.39185" lon="5.73976">
        <ele>413.3</ele>
        <time>2019-04-26T09:32:54Z</time>
      </trkpt>
      <trkpt lat="45.39191" lon="5.73978">
        <ele>413.3</ele>
        <time>2019-04-26T09:32:55Z</time>
      </trkpt>
      <trkpt lat="45.39195" lon="5.7398">
        <ele>413.3</ele>
        <time>2019-04-26T09:32:56Z</time>
      </trkpt>
      <trkpt lat="45.39199" lon="5.73982">
        <ele>413.3</ele>
        <time>2019-04-26T09:32:57Z</time>
      </trkpt>
      <trkpt lat="45.39205" lon="5.73983">
        <ele>413.2</ele>
        <time>2019-04-26T09:32:58Z</time>
      </trkpt>
      <trkpt lat="45.39208" lon="5.73986">
        <ele>413.2</ele>
        <time>2019-04-26T09:32:59Z</time>
      </trkpt>
      <trkpt lat="45.39212" lon="5.73988">
        <ele>413.1</ele>
        <time>2019-04-26T09:33:00Z</time>
      </trkpt>
      <trkpt lat="45.39217" lon="5.73989">
        <ele>413.1</ele>
        <time>2019-04-26T09:33:01Z</time>
      </trkpt>
      <trkpt lat="45.39221" lon="5.7399">
        <ele>413</ele>
        <time>2019-04-26T09:33:02Z</time>
      </trkpt>
      <trkpt lat="45.39226" lon="5.73991">
        <ele>412.9</ele>
        <time>2019-04-26T09:33:03Z</time>
      </trkpt>
      <trkpt lat="45.39231" lon="5.73992">
        <ele>412.7</ele>
        <time>2019-04-26T09:33:04Z</time>
      </trkpt>
      <trkpt lat="45.39234" lon="5.73995">
        <ele>412.6</ele>
        <time>2019-04-26T09:33:06Z</time>
      </trkpt>
      <trkpt lat="45.39241" lon="5.73999">
        <ele>412.4</ele>
        <time>2019-04-26T09:33:08Z</time>
      </trkpt>
      <trkpt lat="45.39249" lon="5.74003">
        <ele>412.3</ele>
        <time>2019-04-26T09:33:09Z</time>
      </trkpt>
      <trkpt lat="45.39257" lon="5.74005">
        <ele>412.2</ele>
        <time>2019-04-26T09:33:10Z</time>
      </trkpt>
      <trkpt lat="45.39264" lon="5.74006">
        <ele>412.1</ele>
        <time>2019-04-26T09:33:11Z</time>
      </trkpt>
      <trkpt lat="45.39272" lon="5.74007">
        <ele>412.1</ele>
        <time>2019-04-26T09:33:12Z</time>
      </trkpt>
      <trkpt lat="45.39275" lon="5.74006">
        <ele>412.1</ele>
        <time>2019-04-26T09:33:13Z</time>
      </trkpt>
      <trkpt lat="45.39279" lon="5.74008">
        <ele>412.1</ele>
        <time>2019-04-26T09:33:14Z</time>
      </trkpt>
      <trkpt lat="45.39285" lon="5.74009">
        <ele>412.1</ele>
        <time>2019-04-26T09:33:16Z</time>
      </trkpt>
      <trkpt lat="45.39289" lon="5.74011">
        <ele>412.1</ele>
        <time>2019-04-26T09:33:17Z</time>
      </trkpt>
      <trkpt lat="45.39292" lon="5.74013">
        <ele>412</ele>
        <time>2019-04-26T09:33:18Z</time>
      </trkpt>
      <trkpt lat="45.39296" lon="5.74015">
        <ele>412</ele>
        <time>2019-04-26T09:33:19Z</time>
      </trkpt>
      <trkpt lat="45.393" lon="5.74016">
        <ele>412</ele>
        <time>2019-04-26T09:33:20Z</time>
      </trkpt>
      <trkpt lat="45.39305" lon="5.74017">
        <ele>412</ele>
        <time>2019-04-26T09:33:21Z</time>
      </trkpt>
      <trkpt lat="45.39308" lon="5.74018">
        <ele>412</ele>
        <time>2019-04-26T09:33:22Z</time>
      </trkpt>
      <trkpt lat="45.39325" lon="5.74024">
        <ele>412</ele>
        <time>2019-04-26T09:33:26Z</time>
      </trkpt>
      <trkpt lat="45.39338" lon="5.74027">
        <ele>412</ele>
        <time>2019-04-26T09:33:28Z</time>
      </trkpt>
      <trkpt lat="45.39342" lon="5.7403">
        <ele>412</ele>
        <time>2019-04-26T09:33:29Z</time>
      </trkpt>
      <trkpt lat="45.39345" lon="5.74031">
        <ele>412</ele>
        <time>2019-04-26T09:33:30Z</time>
      </trkpt>
      <trkpt lat="45.39348" lon="5.74032">
        <ele>411.9</ele>
        <time>2019-04-26T09:33:31Z</time>
      </trkpt>
      <trkpt lat="45.39351" lon="5.74034">
        <ele>411.9</ele>
        <time>2019-04-26T09:33:33Z</time>
      </trkpt>
      <trkpt lat="45.39349" lon="5.74037">
        <ele>411.9</ele>
        <time>2019-04-26T09:33:44Z</time>
      </trkpt>
      <trkpt lat="45.39351" lon="5.74039">
        <ele>411.9</ele>
        <time>2019-04-26T09:34:16Z</time>
      </trkpt>
      <trkpt lat="45.39355" lon="5.74042">
        <ele>411.8</ele>
        <time>2019-04-26T09:34:19Z</time>
      </trkpt>
      <trkpt lat="45.39357" lon="5.74045">
        <ele>411.8</ele>
        <time>2019-04-26T09:34:21Z</time>
      </trkpt>
      <trkpt lat="45.3936" lon="5.74049">
        <ele>411.7</ele>
        <time>2019-04-26T09:34:23Z</time>
      </trkpt>
      <trkpt lat="45.39363" lon="5.74053">
        <ele>411.6</ele>
        <time>2019-04-26T09:34:25Z</time>
      </trkpt>
      <trkpt lat="45.39368" lon="5.74058">
        <ele>411.4</ele>
        <time>2019-04-26T09:34:27Z</time>
      </trkpt>
      <trkpt lat="45.39371" lon="5.7406">
        <ele>411.2</ele>
        <time>2019-04-26T09:34:28Z</time>
      </trkpt>
      <trkpt lat="45.39374" lon="5.74061">
        <ele>411</ele>
        <time>2019-04-26T09:34:29Z</time>
      </trkpt>
      <trkpt lat="45.39377" lon="5.74063">
        <ele>410.8</ele>
        <time>2019-04-26T09:34:30Z</time>
      </trkpt>
      <trkpt lat="45.39381" lon="5.74064">
        <ele>410.6</ele>
        <time>2019-04-26T09:34:31Z</time>
      </trkpt>
      <trkpt lat="45.39385" lon="5.74064">
        <ele>410.2</ele>
        <time>2019-04-26T09:34:32Z</time>
      </trkpt>
      <trkpt lat="45.39389" lon="5.74064">
        <ele>409.9</ele>
        <time>2019-04-26T09:34:33Z</time>
      </trkpt>
      <trkpt lat="45.39395" lon="5.74066">
        <ele>409.9</ele>
        <time>2019-04-26T09:34:34Z</time>
      </trkpt>
      <trkpt lat="45.39401" lon="5.74068">
        <ele>409.9</ele>
        <time>2019-04-26T09:34:35Z</time>
      </trkpt>
      <trkpt lat="45.39407" lon="5.74071">
        <ele>409.9</ele>
        <time>2019-04-26T09:34:36Z</time>
      </trkpt>
      <trkpt lat="45.39412" lon="5.74074">
        <ele>409.9</ele>
        <time>2019-04-26T09:34:37Z</time>
      </trkpt>
      <trkpt lat="45.39418" lon="5.74077">
        <ele>409.9</ele>
        <time>2019-04-26T09:34:38Z</time>
      </trkpt>
      <trkpt lat="45.3945" lon="5.74088">
        <ele>409</ele>
        <time>2019-04-26T09:34:40Z</time>
      </trkpt>
      <trkpt lat="45.39472" lon="5.74092">
        <ele>408.1</ele>
        <time>2019-04-26T09:34:41Z</time>
      </trkpt>
      <trkpt lat="45.3948" lon="5.74094">
        <ele>408</ele>
        <time>2019-04-26T09:34:42Z</time>
      </trkpt>
      <trkpt lat="45.39486" lon="5.74096">
        <ele>407.8</ele>
        <time>2019-04-26T09:34:43Z</time>
      </trkpt>
      <trkpt lat="45.39494" lon="5.74098">
        <ele>407.5</ele>
        <time>2019-04-26T09:34:44Z</time>
      </trkpt>
      <trkpt lat="45.395" lon="5.741">
        <ele>407.1</ele>
        <time>2019-04-26T09:34:45Z</time>
      </trkpt>
      <trkpt lat="45.39506" lon="5.74103">
        <ele>406.6</ele>
        <time>2019-04-26T09:34:46Z</time>
      </trkpt>
      <trkpt lat="45.39511" lon="5.74105">
        <ele>406.5</ele>
        <time>2019-04-26T09:34:47Z</time>
      </trkpt>
      <trkpt lat="45.39517" lon="5.74107">
        <ele>406.3</ele>
        <time>2019-04-26T09:34:48Z</time>
      </trkpt>
      <trkpt lat="45.39524" lon="5.74109">
        <ele>406.2</ele>
        <time>2019-04-26T09:34:49Z</time>
      </trkpt>
      <trkpt lat="45.39529" lon="5.74111">
        <ele>406.1</ele>
        <time>2019-04-26T09:34:50Z</time>
      </trkpt>
      <trkpt lat="45.39536" lon="5.74112">
        <ele>405.9</ele>
        <time>2019-04-26T09:34:51Z</time>
      </trkpt>
      <trkpt lat="45.39542" lon="5.74115">
        <ele>405.8</ele>
        <time>2019-04-26T09:34:52Z</time>
      </trkpt>
      <trkpt lat="45.39548" lon="5.74117">
        <ele>405.6</ele>
        <time>2019-04-26T09:34:53Z</time>
      </trkpt>
      <trkpt lat="45.39553" lon="5.74119">
        <ele>405.5</ele>
        <time>2019-04-26T09:34:54Z</time>
      </trkpt>
      <trkpt lat="45.39559" lon="5.74122">
        <ele>405.4</ele>
        <time>2019-04-26T09:34:55Z</time>
      </trkpt>
      <trkpt lat="45.39565" lon="5.74125">
        <ele>405.3</ele>
        <time>2019-04-26T09:34:56Z</time>
      </trkpt>
      <trkpt lat="45.39568" lon="5.74129">
        <ele>405.3</ele>
        <time>2019-04-26T09:34:57Z</time>
      </trkpt>
      <trkpt lat="45.39573" lon="5.74132">
        <ele>405.2</ele>
        <time>2019-04-26T09:34:58Z</time>
      </trkpt>
      <trkpt lat="45.39577" lon="5.74134">
        <ele>405.2</ele>
        <time>2019-04-26T09:34:59Z</time>
      </trkpt>
      <trkpt lat="45.3958" lon="5.74136">
        <ele>405.1</ele>
        <time>2019-04-26T09:35:00Z</time>
      </trkpt>
      <trkpt lat="45.39582" lon="5.74138">
        <ele>405.1</ele>
        <time>2019-04-26T09:35:01Z</time>
      </trkpt>
      <trkpt lat="45.39582" lon="5.74142">
        <ele>405.1</ele>
        <time>2019-04-26T09:35:18Z</time>
      </trkpt>
      <trkpt lat="45.39586" lon="5.74141">
        <ele>405.1</ele>
        <time>2019-04-26T09:35:24Z</time>
      </trkpt>
      <trkpt lat="45.3959" lon="5.74142">
        <ele>405.1</ele>
        <time>2019-04-26T09:35:25Z</time>
      </trkpt>
      <trkpt lat="45.39594" lon="5.74143">
        <ele>405.1</ele>
        <time>2019-04-26T09:35:26Z</time>
      </trkpt>
      <trkpt lat="45.39598" lon="5.74145">
        <ele>405.1</ele>
        <time>2019-04-26T09:35:27Z</time>
      </trkpt>
      <trkpt lat="45.39604" lon="5.74147">
        <ele>405.1</ele>
        <time>2019-04-26T09:35:28Z</time>
      </trkpt>
      <trkpt lat="45.39609" lon="5.74148">
        <ele>405.1</ele>
        <time>2019-04-26T09:35:29Z</time>
      </trkpt>
      <trkpt lat="45.39616" lon="5.7415">
        <ele>405.1</ele>
        <time>2019-04-26T09:35:30Z</time>
      </trkpt>
      <trkpt lat="45.39622" lon="5.74151">
        <ele>405.1</ele>
        <time>2019-04-26T09:35:31Z</time>
      </trkpt>
      <trkpt lat="45.39629" lon="5.74152">
        <ele>405</ele>
        <time>2019-04-26T09:35:32Z</time>
      </trkpt>
      <trkpt lat="45.39635" lon="5.74154">
        <ele>404.9</ele>
        <time>2019-04-26T09:35:33Z</time>
      </trkpt>
      <trkpt lat="45.39642" lon="5.74156">
        <ele>404.7</ele>
        <time>2019-04-26T09:35:34Z</time>
      </trkpt>
      <trkpt lat="45.39648" lon="5.74159">
        <ele>404.6</ele>
        <time>2019-04-26T09:35:35Z</time>
      </trkpt>
      <trkpt lat="45.39655" lon="5.74162">
        <ele>404.5</ele>
        <time>2019-04-26T09:35:36Z</time>
      </trkpt>
      <trkpt lat="45.39661" lon="5.74165">
        <ele>404.4</ele>
        <time>2019-04-26T09:35:37Z</time>
      </trkpt>
      <trkpt lat="45.39666" lon="5.74168">
        <ele>404.4</ele>
        <time>2019-04-26T09:35:38Z</time>
      </trkpt>
      <trkpt lat="45.39671" lon="5.74171">
        <ele>404.3</ele>
        <time>2019-04-26T09:35:39Z</time>
      </trkpt>
      <trkpt lat="45.39676" lon="5.74171">
        <ele>404.2</ele>
        <time>2019-04-26T09:35:40Z</time>
      </trkpt>
      <trkpt lat="45.39679" lon="5.74165">
        <ele>404.1</ele>
        <time>2019-04-26T09:35:41Z</time>
      </trkpt>
      <trkpt lat="45.39681" lon="5.74158">
        <ele>404</ele>
        <time>2019-04-26T09:35:42Z</time>
      </trkpt>
      <trkpt lat="45.39683" lon="5.74152">
        <ele>403.9</ele>
        <time>2019-04-26T09:35:43Z</time>
      </trkpt>
      <trkpt lat="45.39684" lon="5.74144">
        <ele>403.8</ele>
        <time>2019-04-26T09:35:44Z</time>
      </trkpt>
      <trkpt lat="45.39686" lon="5.74136">
        <ele>403.7</ele>
        <time>2019-04-26T09:35:45Z</time>
      </trkpt>
      <trkpt lat="45.39689" lon="5.74129">
        <ele>403.6</ele>
        <time>2019-04-26T09:35:46Z</time>
      </trkpt>
      <trkpt lat="45.39691" lon="5.74123">
        <ele>403.6</ele>
        <time>2019-04-26T09:35:47Z</time>
      </trkpt>
      <trkpt lat="45.39694" lon="5.74115">
        <ele>403.5</ele>
        <time>2019-04-26T09:35:48Z</time>
      </trkpt>
      <trkpt lat="45.39696" lon="5.74107">
        <ele>403.5</ele>
        <time>2019-04-26T09:35:49Z</time>
      </trkpt>
      <trkpt lat="45.39698" lon="5.74099">
        <ele>403.5</ele>
        <time>2019-04-26T09:35:50Z</time>
      </trkpt>
      <trkpt lat="45.397" lon="5.74091">
        <ele>403.5</ele>
        <time>2019-04-26T09:35:51Z</time>
      </trkpt>
      <trkpt lat="45.39702" lon="5.74082">
        <ele>403.5</ele>
        <time>2019-04-26T09:35:52Z</time>
      </trkpt>
      <trkpt lat="45.39705" lon="5.74074">
        <ele>403.5</ele>
        <time>2019-04-26T09:35:53Z</time>
      </trkpt>
      <trkpt lat="45.39707" lon="5.74067">
        <ele>403.6</ele>
        <time>2019-04-26T09:35:54Z</time>
      </trkpt>
      <trkpt lat="45.39709" lon="5.74059">
        <ele>403.7</ele>
        <time>2019-04-26T09:35:55Z</time>
      </trkpt>
      <trkpt lat="45.39711" lon="5.74051">
        <ele>403.7</ele>
        <time>2019-04-26T09:35:56Z</time>
      </trkpt>
      <trkpt lat="45.39714" lon="5.74043">
        <ele>403.8</ele>
        <time>2019-04-26T09:35:57Z</time>
      </trkpt>
      <trkpt lat="45.39718" lon="5.74038">
        <ele>403.9</ele>
        <time>2019-04-26T09:35:58Z</time>
      </trkpt>
      <trkpt lat="45.39721" lon="5.74031">
        <ele>403.9</ele>
        <time>2019-04-26T09:35:59Z</time>
      </trkpt>
      <trkpt lat="45.39724" lon="5.74028">
        <ele>404</ele>
        <time>2019-04-26T09:36:00Z</time>
      </trkpt>
      <trkpt lat="45.39729" lon="5.74029">
        <ele>404</ele>
        <time>2019-04-26T09:36:01Z</time>
      </trkpt>
      <trkpt lat="45.39733" lon="5.74029">
        <ele>404</ele>
        <time>2019-04-26T09:36:03Z</time>
      </trkpt>
      <trkpt lat="45.39737" lon="5.74029">
        <ele>404</ele>
        <time>2019-04-26T09:36:04Z</time>
      </trkpt>
      <trkpt lat="45.39741" lon="5.74028">
        <ele>404</ele>
        <time>2019-04-26T09:36:05Z</time>
      </trkpt>
      <trkpt lat="45.39746" lon="5.74028">
        <ele>404</ele>
        <time>2019-04-26T09:36:06Z</time>
      </trkpt>
      <trkpt lat="45.39749" lon="5.74028">
        <ele>404</ele>
        <time>2019-04-26T09:36:07Z</time>
      </trkpt>
      <trkpt lat="45.39753" lon="5.74028">
        <ele>404</ele>
        <time>2019-04-26T09:36:08Z</time>
      </trkpt>
      <trkpt lat="45.39758" lon="5.74027">
        <ele>403.9</ele>
        <time>2019-04-26T09:36:09Z</time>
      </trkpt>
      <trkpt lat="45.39762" lon="5.74026">
        <ele>403.9</ele>
        <time>2019-04-26T09:36:10Z</time>
      </trkpt>
      <trkpt lat="45.39766" lon="5.74025">
        <ele>403.9</ele>
        <time>2019-04-26T09:36:11Z</time>
      </trkpt>
      <trkpt lat="45.3977" lon="5.74024">
        <ele>403.8</ele>
        <time>2019-04-26T09:36:12Z</time>
      </trkpt>
      <trkpt lat="45.39774" lon="5.74022">
        <ele>403.8</ele>
        <time>2019-04-26T09:36:13Z</time>
      </trkpt>
      <trkpt lat="45.39777" lon="5.7402">
        <ele>403.7</ele>
        <time>2019-04-26T09:36:14Z</time>
      </trkpt>
      <trkpt lat="45.39781" lon="5.74018">
        <ele>403.6</ele>
        <time>2019-04-26T09:36:15Z</time>
      </trkpt>
      <trkpt lat="45.39785" lon="5.74017">
        <ele>403.6</ele>
        <time>2019-04-26T09:36:16Z</time>
      </trkpt>
      <trkpt lat="45.39789" lon="5.74015">
        <ele>403.5</ele>
        <time>2019-04-26T09:36:17Z</time>
      </trkpt>
      <trkpt lat="45.39793" lon="5.74013">
        <ele>403.5</ele>
        <time>2019-04-26T09:36:18Z</time>
      </trkpt>
      <trkpt lat="45.39797" lon="5.7401">
        <ele>403.4</ele>
        <time>2019-04-26T09:36:19Z</time>
      </trkpt>
      <trkpt lat="45.39801" lon="5.74009">
        <ele>403.3</ele>
        <time>2019-04-26T09:36:20Z</time>
      </trkpt>
      <trkpt lat="45.39805" lon="5.74005">
        <ele>403.3</ele>
        <time>2019-04-26T09:36:21Z</time>
      </trkpt>
      <trkpt lat="45.39811" lon="5.74004">
        <ele>403.1</ele>
        <time>2019-04-26T09:36:23Z</time>
      </trkpt>
      <trkpt lat="45.39814" lon="5.74002">
        <ele>403.1</ele>
        <time>2019-04-26T09:36:24Z</time>
      </trkpt>
      <trkpt lat="45.39818" lon="5.73998">
        <ele>403</ele>
        <time>2019-04-26T09:36:26Z</time>
      </trkpt>
      <trkpt lat="45.39821" lon="5.73996">
        <ele>403</ele>
        <time>2019-04-26T09:37:04Z</time>
      </trkpt>
      <trkpt lat="45.39822" lon="5.73992">
        <ele>402.9</ele>
        <time>2019-04-26T09:37:06Z</time>
      </trkpt>
      <trkpt lat="45.39825" lon="5.7399">
        <ele>402.9</ele>
        <time>2019-04-26T09:37:07Z</time>
      </trkpt>
      <trkpt lat="45.39828" lon="5.73988">
        <ele>402.8</ele>
        <time>2019-04-26T09:37:08Z</time>
      </trkpt>
      <trkpt lat="45.39831" lon="5.73986">
        <ele>402.8</ele>
        <time>2019-04-26T09:37:09Z</time>
      </trkpt>
      <trkpt lat="45.39834" lon="5.73983">
        <ele>402.7</ele>
        <time>2019-04-26T09:37:10Z</time>
      </trkpt>
      <trkpt lat="45.39837" lon="5.7398">
        <ele>402.7</ele>
        <time>2019-04-26T09:37:11Z</time>
      </trkpt>
      <trkpt lat="45.3984" lon="5.73976">
        <ele>402.6</ele>
        <time>2019-04-26T09:37:12Z</time>
      </trkpt>
      <trkpt lat="45.39844" lon="5.73968">
        <ele>402.5</ele>
        <time>2019-04-26T09:37:13Z</time>
      </trkpt>
      <trkpt lat="45.39849" lon="5.73964">
        <ele>402.4</ele>
        <time>2019-04-26T09:37:14Z</time>
      </trkpt>
      <trkpt lat="45.39853" lon="5.73959">
        <ele>402.4</ele>
        <time>2019-04-26T09:37:15Z</time>
      </trkpt>
      <trkpt lat="45.39858" lon="5.73953">
        <ele>402.3</ele>
        <time>2019-04-26T09:37:16Z</time>
      </trkpt>
      <trkpt lat="45.39862" lon="5.73947">
        <ele>402.1</ele>
        <time>2019-04-26T09:37:17Z</time>
      </trkpt>
      <trkpt lat="45.39868" lon="5.73941">
        <ele>402.1</ele>
        <time>2019-04-26T09:37:18Z</time>
      </trkpt>
      <trkpt lat="45.39873" lon="5.73936">
        <ele>402</ele>
        <time>2019-04-26T09:37:19Z</time>
      </trkpt>
      <trkpt lat="45.39877" lon="5.7393">
        <ele>401.9</ele>
        <time>2019-04-26T09:37:20Z</time>
      </trkpt>
      <trkpt lat="45.39881" lon="5.73922">
        <ele>401.8</ele>
        <time>2019-04-26T09:37:21Z</time>
      </trkpt>
      <trkpt lat="45.39886" lon="5.73917">
        <ele>401.7</ele>
        <time>2019-04-26T09:37:22Z</time>
      </trkpt>
      <trkpt lat="45.39891" lon="5.73911">
        <ele>401.7</ele>
        <time>2019-04-26T09:37:23Z</time>
      </trkpt>
      <trkpt lat="45.39894" lon="5.73907">
        <ele>401.6</ele>
        <time>2019-04-26T09:37:24Z</time>
      </trkpt>
      <trkpt lat="45.39899" lon="5.73899">
        <ele>401.5</ele>
        <time>2019-04-26T09:37:25Z</time>
      </trkpt>
      <trkpt lat="45.39904" lon="5.73892">
        <ele>401.4</ele>
        <time>2019-04-26T09:37:26Z</time>
      </trkpt>
      <trkpt lat="45.39908" lon="5.73885">
        <ele>401.3</ele>
        <time>2019-04-26T09:37:27Z</time>
      </trkpt>
      <trkpt lat="45.39912" lon="5.73879">
        <ele>401.2</ele>
        <time>2019-04-26T09:37:28Z</time>
      </trkpt>
      <trkpt lat="45.39916" lon="5.73874">
        <ele>401.2</ele>
        <time>2019-04-26T09:37:29Z</time>
      </trkpt>
      <trkpt lat="45.39921" lon="5.73869">
        <ele>401.1</ele>
        <time>2019-04-26T09:37:30Z</time>
      </trkpt>
      <trkpt lat="45.39926" lon="5.73864">
        <ele>401</ele>
        <time>2019-04-26T09:37:31Z</time>
      </trkpt>
      <trkpt lat="45.39932" lon="5.73859">
        <ele>400.8</ele>
        <time>2019-04-26T09:37:32Z</time>
      </trkpt>
      <trkpt lat="45.39937" lon="5.73852">
        <ele>400.7</ele>
        <time>2019-04-26T09:37:33Z</time>
      </trkpt>
      <trkpt lat="45.3994" lon="5.73844">
        <ele>400.6</ele>
        <time>2019-04-26T09:37:34Z</time>
      </trkpt>
      <trkpt lat="45.39946" lon="5.73839">
        <ele>400.4</ele>
        <time>2019-04-26T09:37:35Z</time>
      </trkpt>
      <trkpt lat="45.3995" lon="5.7383">
        <ele>400.5</ele>
        <time>2019-04-26T09:37:36Z</time>
      </trkpt>
      <trkpt lat="45.39955" lon="5.73824">
        <ele>400.6</ele>
        <time>2019-04-26T09:37:37Z</time>
      </trkpt>
      <trkpt lat="45.3996" lon="5.73818">
        <ele>400.7</ele>
        <time>2019-04-26T09:37:38Z</time>
      </trkpt>
      <trkpt lat="45.39965" lon="5.73812">
        <ele>400.8</ele>
        <time>2019-04-26T09:37:39Z</time>
      </trkpt>
      <trkpt lat="45.3997" lon="5.73807">
        <ele>400.8</ele>
        <time>2019-04-26T09:37:40Z</time>
      </trkpt>
      <trkpt lat="45.39975" lon="5.73802">
        <ele>400.9</ele>
        <time>2019-04-26T09:37:41Z</time>
      </trkpt>
      <trkpt lat="45.3998" lon="5.73798">
        <ele>400.9</ele>
        <time>2019-04-26T09:37:42Z</time>
      </trkpt>
      <trkpt lat="45.39986" lon="5.73793">
        <ele>401</ele>
        <time>2019-04-26T09:37:43Z</time>
      </trkpt>
      <trkpt lat="45.39992" lon="5.73791">
        <ele>401</ele>
        <time>2019-04-26T09:37:44Z</time>
      </trkpt>
      <trkpt lat="45.39997" lon="5.73786">
        <ele>401</ele>
        <time>2019-04-26T09:37:45Z</time>
      </trkpt>
      <trkpt lat="45.40002" lon="5.73784">
        <ele>400.9</ele>
        <time>2019-04-26T09:37:46Z</time>
      </trkpt>
      <trkpt lat="45.40007" lon="5.73781">
        <ele>400.9</ele>
        <time>2019-04-26T09:37:47Z</time>
      </trkpt>
      <trkpt lat="45.40012" lon="5.73778">
        <ele>400.8</ele>
        <time>2019-04-26T09:37:48Z</time>
      </trkpt>
      <trkpt lat="45.40017" lon="5.73776">
        <ele>400.8</ele>
        <time>2019-04-26T09:37:49Z</time>
      </trkpt>
      <trkpt lat="45.40022" lon="5.73774">
        <ele>400.7</ele>
        <time>2019-04-26T09:37:50Z</time>
      </trkpt>
      <trkpt lat="45.40027" lon="5.73774">
        <ele>400.6</ele>
        <time>2019-04-26T09:37:51Z</time>
      </trkpt>
      <trkpt lat="45.40032" lon="5.73772">
        <ele>400.5</ele>
        <time>2019-04-26T09:37:53Z</time>
      </trkpt>
      <trkpt lat="45.40039" lon="5.7377">
        <ele>400.4</ele>
        <time>2019-04-26T09:37:54Z</time>
      </trkpt>
      <trkpt lat="45.40045" lon="5.73772">
        <ele>400.3</ele>
        <time>2019-04-26T09:37:55Z</time>
      </trkpt>
      <trkpt lat="45.40051" lon="5.73772">
        <ele>400.2</ele>
        <time>2019-04-26T09:37:56Z</time>
      </trkpt>
      <trkpt lat="45.40057" lon="5.73773">
        <ele>400.2</ele>
        <time>2019-04-26T09:37:57Z</time>
      </trkpt>
      <trkpt lat="45.40062" lon="5.73774">
        <ele>400.1</ele>
        <time>2019-04-26T09:37:58Z</time>
      </trkpt>
      <trkpt lat="45.40067" lon="5.73775">
        <ele>400.2</ele>
        <time>2019-04-26T09:37:59Z</time>
      </trkpt>
      <trkpt lat="45.40072" lon="5.73777">
        <ele>400.2</ele>
        <time>2019-04-26T09:38:00Z</time>
      </trkpt>
      <trkpt lat="45.40076" lon="5.73779">
        <ele>400.4</ele>
        <time>2019-04-26T09:38:01Z</time>
      </trkpt>
      <trkpt lat="45.40081" lon="5.7378">
        <ele>400.4</ele>
        <time>2019-04-26T09:38:02Z</time>
      </trkpt>
      <trkpt lat="45.40086" lon="5.73782">
        <ele>400.5</ele>
        <time>2019-04-26T09:38:03Z</time>
      </trkpt>
      <trkpt lat="45.40092" lon="5.73783">
        <ele>400.7</ele>
        <time>2019-04-26T09:38:04Z</time>
      </trkpt>
      <trkpt lat="45.40095" lon="5.73784">
        <ele>400.7</ele>
        <time>2019-04-26T09:38:05Z</time>
      </trkpt>
      <trkpt lat="45.40098" lon="5.73786">
        <ele>400.8</ele>
        <time>2019-04-26T09:38:06Z</time>
      </trkpt>
      <trkpt lat="45.40102" lon="5.73787">
        <ele>401</ele>
        <time>2019-04-26T09:38:07Z</time>
      </trkpt>
      <trkpt lat="45.40106" lon="5.73789">
        <ele>401.1</ele>
        <time>2019-04-26T09:38:08Z</time>
      </trkpt>
      <trkpt lat="45.40111" lon="5.73789">
        <ele>401.2</ele>
        <time>2019-04-26T09:38:09Z</time>
      </trkpt>
      <trkpt lat="45.40116" lon="5.73792">
        <ele>401.4</ele>
        <time>2019-04-26T09:38:10Z</time>
      </trkpt>
      <trkpt lat="45.40121" lon="5.73792">
        <ele>401.4</ele>
        <time>2019-04-26T09:38:11Z</time>
      </trkpt>
      <trkpt lat="45.40124" lon="5.73794">
        <ele>401.5</ele>
        <time>2019-04-26T09:38:12Z</time>
      </trkpt>
      <trkpt lat="45.40129" lon="5.73795">
        <ele>401.5</ele>
        <time>2019-04-26T09:38:13Z</time>
      </trkpt>
      <trkpt lat="45.40131" lon="5.73799">
        <ele>401.7</ele>
        <time>2019-04-26T09:38:14Z</time>
      </trkpt>
      <trkpt lat="45.40137" lon="5.73803">
        <ele>401.9</ele>
        <time>2019-04-26T09:38:15Z</time>
      </trkpt>
      <trkpt lat="45.40142" lon="5.73805">
        <ele>402.1</ele>
        <time>2019-04-26T09:38:16Z</time>
      </trkpt>
      <trkpt lat="45.40148" lon="5.73807">
        <ele>402</ele>
        <time>2019-04-26T09:38:17Z</time>
      </trkpt>
      <trkpt lat="45.40155" lon="5.7381">
        <ele>402.2</ele>
        <time>2019-04-26T09:38:18Z</time>
      </trkpt>
      <trkpt lat="45.40161" lon="5.73812">
        <ele>402.1</ele>
        <time>2019-04-26T09:38:19Z</time>
      </trkpt>
      <trkpt lat="45.40168" lon="5.73813">
        <ele>402.1</ele>
        <time>2019-04-26T09:38:20Z</time>
      </trkpt>
      <trkpt lat="45.40173" lon="5.73814">
        <ele>402</ele>
        <time>2019-04-26T09:38:21Z</time>
      </trkpt>
      <trkpt lat="45.40178" lon="5.73818">
        <ele>402</ele>
        <time>2019-04-26T09:38:22Z</time>
      </trkpt>
      <trkpt lat="45.40183" lon="5.73821">
        <ele>401.9</ele>
        <time>2019-04-26T09:38:23Z</time>
      </trkpt>
      <trkpt lat="45.40187" lon="5.73823">
        <ele>402</ele>
        <time>2019-04-26T09:38:24Z</time>
      </trkpt>
      <trkpt lat="45.40195" lon="5.73823">
        <ele>401.8</ele>
        <time>2019-04-26T09:38:25Z</time>
      </trkpt>
      <trkpt lat="45.40201" lon="5.73825">
        <ele>401.6</ele>
        <time>2019-04-26T09:38:26Z</time>
      </trkpt>
      <trkpt lat="45.40208" lon="5.73828">
        <ele>401.6</ele>
        <time>2019-04-26T09:38:27Z</time>
      </trkpt>
      <trkpt lat="45.40214" lon="5.7383">
        <ele>401.6</ele>
        <time>2019-04-26T09:38:28Z</time>
      </trkpt>
      <trkpt lat="45.40219" lon="5.73831">
        <ele>401.5</ele>
        <time>2019-04-26T09:38:29Z</time>
      </trkpt>
      <trkpt lat="45.40225" lon="5.73835">
        <ele>401.5</ele>
        <time>2019-04-26T09:38:30Z</time>
      </trkpt>
      <trkpt lat="45.40231" lon="5.73837">
        <ele>401.3</ele>
        <time>2019-04-26T09:38:31Z</time>
      </trkpt>
      <trkpt lat="45.40236" lon="5.73839">
        <ele>401.3</ele>
        <time>2019-04-26T09:38:32Z</time>
      </trkpt>
      <trkpt lat="45.40242" lon="5.7384">
        <ele>401.2</ele>
        <time>2019-04-26T09:38:33Z</time>
      </trkpt>
      <trkpt lat="45.40248" lon="5.73843">
        <ele>401.2</ele>
        <time>2019-04-26T09:38:34Z</time>
      </trkpt>
      <trkpt lat="45.40253" lon="5.73846">
        <ele>401</ele>
        <time>2019-04-26T09:38:35Z</time>
      </trkpt>
      <trkpt lat="45.40258" lon="5.73849">
        <ele>400.9</ele>
        <time>2019-04-26T09:38:36Z</time>
      </trkpt>
      <trkpt lat="45.40264" lon="5.73851">
        <ele>400.8</ele>
        <time>2019-04-26T09:38:37Z</time>
      </trkpt>
      <trkpt lat="45.4027" lon="5.73854">
        <ele>400.7</ele>
        <time>2019-04-26T09:38:38Z</time>
      </trkpt>
      <trkpt lat="45.40275" lon="5.73855">
        <ele>400.5</ele>
        <time>2019-04-26T09:38:39Z</time>
      </trkpt>
      <trkpt lat="45.4028" lon="5.73858">
        <ele>400.3</ele>
        <time>2019-04-26T09:38:40Z</time>
      </trkpt>
      <trkpt lat="45.40284" lon="5.7386">
        <ele>400.2</ele>
        <time>2019-04-26T09:38:41Z</time>
      </trkpt>
      <trkpt lat="45.40288" lon="5.73863">
        <ele>400</ele>
        <time>2019-04-26T09:38:42Z</time>
      </trkpt>
      <trkpt lat="45.40292" lon="5.73869">
        <ele>400.1</ele>
        <time>2019-04-26T09:38:43Z</time>
      </trkpt>
      <trkpt lat="45.40295" lon="5.73875">
        <ele>400</ele>
        <time>2019-04-26T09:38:44Z</time>
      </trkpt>
      <trkpt lat="45.403" lon="5.73878">
        <ele>400</ele>
        <time>2019-04-26T09:38:45Z</time>
      </trkpt>
      <trkpt lat="45.40304" lon="5.73883">
        <ele>399.8</ele>
        <time>2019-04-26T09:38:46Z</time>
      </trkpt>
      <trkpt lat="45.40308" lon="5.7389">
        <ele>399.7</ele>
        <time>2019-04-26T09:38:47Z</time>
      </trkpt>
      <trkpt lat="45.40311" lon="5.73895">
        <ele>399.6</ele>
        <time>2019-04-26T09:38:48Z</time>
      </trkpt>
      <trkpt lat="45.40314" lon="5.73902">
        <ele>399.5</ele>
        <time>2019-04-26T09:38:49Z</time>
      </trkpt>
      <trkpt lat="45.40316" lon="5.73907">
        <ele>399.5</ele>
        <time>2019-04-26T09:38:50Z</time>
      </trkpt>
      <trkpt lat="45.40317" lon="5.73915">
        <ele>399.5</ele>
        <time>2019-04-26T09:38:51Z</time>
      </trkpt>
      <trkpt lat="45.40319" lon="5.7392">
        <ele>399.5</ele>
        <time>2019-04-26T09:38:52Z</time>
      </trkpt>
      <trkpt lat="45.40322" lon="5.73927">
        <ele>399.4</ele>
        <time>2019-04-26T09:38:53Z</time>
      </trkpt>
      <trkpt lat="45.40325" lon="5.73933">
        <ele>399.3</ele>
        <time>2019-04-26T09:38:54Z</time>
      </trkpt>
      <trkpt lat="45.40327" lon="5.7394">
        <ele>399.4</ele>
        <time>2019-04-26T09:38:55Z</time>
      </trkpt>
      <trkpt lat="45.40329" lon="5.73947">
        <ele>399.4</ele>
        <time>2019-04-26T09:38:56Z</time>
      </trkpt>
      <trkpt lat="45.40332" lon="5.73953">
        <ele>399.3</ele>
        <time>2019-04-26T09:38:57Z</time>
      </trkpt>
      <trkpt lat="45.40334" lon="5.7396">
        <ele>399.2</ele>
        <time>2019-04-26T09:38:58Z</time>
      </trkpt>
      <trkpt lat="45.40337" lon="5.73966">
        <ele>399.1</ele>
        <time>2019-04-26T09:38:59Z</time>
      </trkpt>
      <trkpt lat="45.40339" lon="5.73974">
        <ele>399.3</ele>
        <time>2019-04-26T09:39:00Z</time>
      </trkpt>
      <trkpt lat="45.4034" lon="5.73981">
        <ele>399.3</ele>
        <time>2019-04-26T09:39:01Z</time>
      </trkpt>
      <trkpt lat="45.40341" lon="5.73989">
        <ele>399.5</ele>
        <time>2019-04-26T09:39:02Z</time>
      </trkpt>
      <trkpt lat="45.40343" lon="5.73995">
        <ele>399.5</ele>
        <time>2019-04-26T09:39:03Z</time>
      </trkpt>
      <trkpt lat="45.40347" lon="5.74003">
        <ele>399.6</ele>
        <time>2019-04-26T09:39:04Z</time>
      </trkpt>
      <trkpt lat="45.40349" lon="5.74011">
        <ele>399.6</ele>
        <time>2019-04-26T09:39:05Z</time>
      </trkpt>
      <trkpt lat="45.40351" lon="5.74019">
        <ele>399.8</ele>
        <time>2019-04-26T09:39:06Z</time>
      </trkpt>
      <trkpt lat="45.40352" lon="5.74026">
        <ele>399.7</ele>
        <time>2019-04-26T09:39:07Z</time>
      </trkpt>
      <trkpt lat="45.40355" lon="5.74033">
        <ele>399.7</ele>
        <time>2019-04-26T09:39:08Z</time>
      </trkpt>
      <trkpt lat="45.40358" lon="5.74039">
        <ele>399.6</ele>
        <time>2019-04-26T09:39:09Z</time>
      </trkpt>
      <trkpt lat="45.4036" lon="5.74046">
        <ele>399.7</ele>
        <time>2019-04-26T09:39:10Z</time>
      </trkpt>
      <trkpt lat="45.40362" lon="5.74052">
        <ele>399.6</ele>
        <time>2019-04-26T09:39:11Z</time>
      </trkpt>
      <trkpt lat="45.40365" lon="5.74059">
        <ele>399.6</ele>
        <time>2019-04-26T09:39:12Z</time>
      </trkpt>
      <trkpt lat="45.40366" lon="5.74065">
        <ele>399.5</ele>
        <time>2019-04-26T09:39:13Z</time>
      </trkpt>
      <trkpt lat="45.40368" lon="5.74072">
        <ele>399.6</ele>
        <time>2019-04-26T09:39:14Z</time>
      </trkpt>
      <trkpt lat="45.40371" lon="5.74077">
        <ele>399.5</ele>
        <time>2019-04-26T09:39:15Z</time>
      </trkpt>
      <trkpt lat="45.40374" lon="5.74083">
        <ele>399.4</ele>
        <time>2019-04-26T09:39:16Z</time>
      </trkpt>
      <trkpt lat="45.40377" lon="5.74088">
        <ele>399.4</ele>
        <time>2019-04-26T09:39:17Z</time>
      </trkpt>
      <trkpt lat="45.4038" lon="5.74094">
        <ele>399.4</ele>
        <time>2019-04-26T09:39:18Z</time>
      </trkpt>
      <trkpt lat="45.40384" lon="5.741">
        <ele>399.4</ele>
        <time>2019-04-26T09:39:19Z</time>
      </trkpt>
      <trkpt lat="45.40389" lon="5.74105">
        <ele>399.2</ele>
        <time>2019-04-26T09:39:20Z</time>
      </trkpt>
      <trkpt lat="45.40393" lon="5.74111">
        <ele>399.2</ele>
        <time>2019-04-26T09:39:21Z</time>
      </trkpt>
      <trkpt lat="45.40398" lon="5.74114">
        <ele>399.1</ele>
        <time>2019-04-26T09:39:22Z</time>
      </trkpt>
      <trkpt lat="45.40401" lon="5.74119">
        <ele>399.2</ele>
        <time>2019-04-26T09:39:23Z</time>
      </trkpt>
      <trkpt lat="45.40407" lon="5.74122">
        <ele>399.1</ele>
        <time>2019-04-26T09:39:24Z</time>
      </trkpt>
      <trkpt lat="45.40413" lon="5.74124">
        <ele>398.9</ele>
        <time>2019-04-26T09:39:25Z</time>
      </trkpt>
      <trkpt lat="45.40418" lon="5.74127">
        <ele>398.9</ele>
        <time>2019-04-26T09:39:26Z</time>
      </trkpt>
      <trkpt lat="45.40423" lon="5.7413">
        <ele>398.8</ele>
        <time>2019-04-26T09:39:27Z</time>
      </trkpt>
      <trkpt lat="45.40428" lon="5.74132">
        <ele>398.8</ele>
        <time>2019-04-26T09:39:28Z</time>
      </trkpt>
      <trkpt lat="45.40432" lon="5.74134">
        <ele>398.7</ele>
        <time>2019-04-26T09:39:29Z</time>
      </trkpt>
      <trkpt lat="45.40438" lon="5.74136">
        <ele>398.8</ele>
        <time>2019-04-26T09:39:30Z</time>
      </trkpt>
      <trkpt lat="45.40443" lon="5.74137">
        <ele>398.7</ele>
        <time>2019-04-26T09:39:31Z</time>
      </trkpt>
      <trkpt lat="45.4045" lon="5.74134">
        <ele>398.6</ele>
        <time>2019-04-26T09:39:32Z</time>
      </trkpt>
      <trkpt lat="45.40456" lon="5.74132">
        <ele>398.4</ele>
        <time>2019-04-26T09:39:33Z</time>
      </trkpt>
      <trkpt lat="45.40462" lon="5.74131">
        <ele>398.4</ele>
        <time>2019-04-26T09:39:34Z</time>
      </trkpt>
      <trkpt lat="45.40466" lon="5.7413">
        <ele>398.4</ele>
        <time>2019-04-26T09:39:35Z</time>
      </trkpt>
      <trkpt lat="45.40472" lon="5.74131">
        <ele>398.4</ele>
        <time>2019-04-26T09:39:36Z</time>
      </trkpt>
      <trkpt lat="45.40477" lon="5.74129">
        <ele>398.2</ele>
        <time>2019-04-26T09:39:37Z</time>
      </trkpt>
      <trkpt lat="45.40484" lon="5.74128">
        <ele>398.3</ele>
        <time>2019-04-26T09:39:38Z</time>
      </trkpt>
      <trkpt lat="45.40488" lon="5.74124">
        <ele>398.2</ele>
        <time>2019-04-26T09:39:39Z</time>
      </trkpt>
      <trkpt lat="45.40493" lon="5.74123">
        <ele>398.2</ele>
        <time>2019-04-26T09:39:40Z</time>
      </trkpt>
      <trkpt lat="45.40497" lon="5.74119">
        <ele>398</ele>
        <time>2019-04-26T09:39:41Z</time>
      </trkpt>
      <trkpt lat="45.40502" lon="5.74117">
        <ele>397.9</ele>
        <time>2019-04-26T09:39:42Z</time>
      </trkpt>
      <trkpt lat="45.40506" lon="5.74115">
        <ele>397.9</ele>
        <time>2019-04-26T09:39:43Z</time>
      </trkpt>
      <trkpt lat="45.40512" lon="5.74113">
        <ele>397.9</ele>
        <time>2019-04-26T09:39:44Z</time>
      </trkpt>
      <trkpt lat="45.40517" lon="5.74115">
        <ele>397.9</ele>
        <time>2019-04-26T09:39:45Z</time>
      </trkpt>
      <trkpt lat="45.40521" lon="5.74113">
        <ele>397.8</ele>
        <time>2019-04-26T09:39:46Z</time>
      </trkpt>
      <trkpt lat="45.40525" lon="5.7411">
        <ele>397.8</ele>
        <time>2019-04-26T09:39:47Z</time>
      </trkpt>
      <trkpt lat="45.4053" lon="5.74108">
        <ele>397.7</ele>
        <time>2019-04-26T09:39:48Z</time>
      </trkpt>
      <trkpt lat="45.40535" lon="5.74107">
        <ele>397.7</ele>
        <time>2019-04-26T09:39:49Z</time>
      </trkpt>
      <trkpt lat="45.40539" lon="5.74102">
        <ele>397.6</ele>
        <time>2019-04-26T09:39:50Z</time>
      </trkpt>
      <trkpt lat="45.40544" lon="5.741">
        <ele>397.5</ele>
        <time>2019-04-26T09:39:51Z</time>
      </trkpt>
      <trkpt lat="45.40549" lon="5.74099">
        <ele>397.5</ele>
        <time>2019-04-26T09:39:52Z</time>
      </trkpt>
      <trkpt lat="45.40554" lon="5.74095">
        <ele>397.4</ele>
        <time>2019-04-26T09:39:53Z</time>
      </trkpt>
      <trkpt lat="45.40561" lon="5.74094">
        <ele>397.4</ele>
        <time>2019-04-26T09:39:54Z</time>
      </trkpt>
      <trkpt lat="45.40566" lon="5.74092">
        <ele>397.4</ele>
        <time>2019-04-26T09:39:55Z</time>
      </trkpt>
      <trkpt lat="45.40571" lon="5.74091">
        <ele>397.2</ele>
        <time>2019-04-26T09:39:56Z</time>
      </trkpt>
      <trkpt lat="45.40577" lon="5.74091">
        <ele>397.3</ele>
        <time>2019-04-26T09:39:57Z</time>
      </trkpt>
      <trkpt lat="45.40582" lon="5.74091">
        <ele>397.3</ele>
        <time>2019-04-26T09:39:58Z</time>
      </trkpt>
      <trkpt lat="45.40588" lon="5.74092">
        <ele>397.4</ele>
        <time>2019-04-26T09:39:59Z</time>
      </trkpt>
      <trkpt lat="45.40592" lon="5.74092">
        <ele>397.4</ele>
        <time>2019-04-26T09:40:00Z</time>
      </trkpt>
      <trkpt lat="45.40595" lon="5.74092">
        <ele>397.4</ele>
        <time>2019-04-26T09:40:01Z</time>
      </trkpt>
      <trkpt lat="45.406" lon="5.74091">
        <ele>397.3</ele>
        <time>2019-04-26T09:40:03Z</time>
      </trkpt>
      <trkpt lat="45.40606" lon="5.74092">
        <ele>397.3</ele>
        <time>2019-04-26T09:40:05Z</time>
      </trkpt>
      <trkpt lat="45.40609" lon="5.74092">
        <ele>397.3</ele>
        <time>2019-04-26T09:40:06Z</time>
      </trkpt>
      <trkpt lat="45.40616" lon="5.7409">
        <ele>397.2</ele>
        <time>2019-04-26T09:40:08Z</time>
      </trkpt>
      <trkpt lat="45.40622" lon="5.74093">
        <ele>397.2</ele>
        <time>2019-04-26T09:40:10Z</time>
      </trkpt>
      <trkpt lat="45.40627" lon="5.74095">
        <ele>397.2</ele>
        <time>2019-04-26T09:40:11Z</time>
      </trkpt>
      <trkpt lat="45.40632" lon="5.74097">
        <ele>397.2</ele>
        <time>2019-04-26T09:40:12Z</time>
      </trkpt>
      <trkpt lat="45.40635" lon="5.74095">
        <ele>397.1</ele>
        <time>2019-04-26T09:40:13Z</time>
      </trkpt>
      <trkpt lat="45.4064" lon="5.74096">
        <ele>397.1</ele>
        <time>2019-04-26T09:40:14Z</time>
      </trkpt>
      <trkpt lat="45.40644" lon="5.74098">
        <ele>397.1</ele>
        <time>2019-04-26T09:40:15Z</time>
      </trkpt>
      <trkpt lat="45.40649" lon="5.74099">
        <ele>397.1</ele>
        <time>2019-04-26T09:40:16Z</time>
      </trkpt>
      <trkpt lat="45.40653" lon="5.74101">
        <ele>397.1</ele>
        <time>2019-04-26T09:40:17Z</time>
      </trkpt>
      <trkpt lat="45.40658" lon="5.74103">
        <ele>397.1</ele>
        <time>2019-04-26T09:40:18Z</time>
      </trkpt>
      <trkpt lat="45.40663" lon="5.74104">
        <ele>397.1</ele>
        <time>2019-04-26T09:40:19Z</time>
      </trkpt>
      <trkpt lat="45.40668" lon="5.74106">
        <ele>397.1</ele>
        <time>2019-04-26T09:40:20Z</time>
      </trkpt>
      <trkpt lat="45.40673" lon="5.7411">
        <ele>397.2</ele>
        <time>2019-04-26T09:40:21Z</time>
      </trkpt>
      <trkpt lat="45.40677" lon="5.74111">
        <ele>397.2</ele>
        <time>2019-04-26T09:40:22Z</time>
      </trkpt>
      <trkpt lat="45.40683" lon="5.74114">
        <ele>397.2</ele>
        <time>2019-04-26T09:40:23Z</time>
      </trkpt>
      <trkpt lat="45.40688" lon="5.74115">
        <ele>397.2</ele>
        <time>2019-04-26T09:40:24Z</time>
      </trkpt>
      <trkpt lat="45.40693" lon="5.74115">
        <ele>397.2</ele>
        <time>2019-04-26T09:40:25Z</time>
      </trkpt>
      <trkpt lat="45.40698" lon="5.74117">
        <ele>397.2</ele>
        <time>2019-04-26T09:40:26Z</time>
      </trkpt>
      <trkpt lat="45.40702" lon="5.74118">
        <ele>397.3</ele>
        <time>2019-04-26T09:40:27Z</time>
      </trkpt>
      <trkpt lat="45.40708" lon="5.7412">
        <ele>397.3</ele>
        <time>2019-04-26T09:40:28Z</time>
      </trkpt>
      <trkpt lat="45.40713" lon="5.74124">
        <ele>397.4</ele>
        <time>2019-04-26T09:40:29Z</time>
      </trkpt>
      <trkpt lat="45.40717" lon="5.74126">
        <ele>397.4</ele>
        <time>2019-04-26T09:40:30Z</time>
      </trkpt>
      <trkpt lat="45.40721" lon="5.74127">
        <ele>397.4</ele>
        <time>2019-04-26T09:40:31Z</time>
      </trkpt>
      <trkpt lat="45.40726" lon="5.74128">
        <ele>397.5</ele>
        <time>2019-04-26T09:40:32Z</time>
      </trkpt>
      <trkpt lat="45.40731" lon="5.74129">
        <ele>397.5</ele>
        <time>2019-04-26T09:40:33Z</time>
      </trkpt>
      <trkpt lat="45.40736" lon="5.74129">
        <ele>397.5</ele>
        <time>2019-04-26T09:40:34Z</time>
      </trkpt>
      <trkpt lat="45.4074" lon="5.74129">
        <ele>397.6</ele>
        <time>2019-04-26T09:40:35Z</time>
      </trkpt>
      <trkpt lat="45.40744" lon="5.74128">
        <ele>397.6</ele>
        <time>2019-04-26T09:40:36Z</time>
      </trkpt>
      <trkpt lat="45.40749" lon="5.74129">
        <ele>397.6</ele>
        <time>2019-04-26T09:40:37Z</time>
      </trkpt>
      <trkpt lat="45.40753" lon="5.74132">
        <ele>397.7</ele>
        <time>2019-04-26T09:40:38Z</time>
      </trkpt>
      <trkpt lat="45.40757" lon="5.74133">
        <ele>397.7</ele>
        <time>2019-04-26T09:40:39Z</time>
      </trkpt>
      <trkpt lat="45.40762" lon="5.74135">
        <ele>397.8</ele>
        <time>2019-04-26T09:40:40Z</time>
      </trkpt>
      <trkpt lat="45.40767" lon="5.74137">
        <ele>397.8</ele>
        <time>2019-04-26T09:40:41Z</time>
      </trkpt>
      <trkpt lat="45.4077" lon="5.74137">
        <ele>397.8</ele>
        <time>2019-04-26T09:40:42Z</time>
      </trkpt>
      <trkpt lat="45.40774" lon="5.74139">
        <ele>397.8</ele>
        <time>2019-04-26T09:40:43Z</time>
      </trkpt>
      <trkpt lat="45.40777" lon="5.74141">
        <ele>397.9</ele>
        <time>2019-04-26T09:40:44Z</time>
      </trkpt>
      <trkpt lat="45.40782" lon="5.7414">
        <ele>397.9</ele>
        <time>2019-04-26T09:40:45Z</time>
      </trkpt>
      <trkpt lat="45.40787" lon="5.74145">
        <ele>397.9</ele>
        <time>2019-04-26T09:40:46Z</time>
      </trkpt>
      <trkpt lat="45.40792" lon="5.74146">
        <ele>397.9</ele>
        <time>2019-04-26T09:40:47Z</time>
      </trkpt>
      <trkpt lat="45.40798" lon="5.74149">
        <ele>397.8</ele>
        <time>2019-04-26T09:40:48Z</time>
      </trkpt>
      <trkpt lat="45.40802" lon="5.7415">
        <ele>397.8</ele>
        <time>2019-04-26T09:40:49Z</time>
      </trkpt>
      <trkpt lat="45.40806" lon="5.74152">
        <ele>397.8</ele>
        <time>2019-04-26T09:40:50Z</time>
      </trkpt>
      <trkpt lat="45.40809" lon="5.74152">
        <ele>397.7</ele>
        <time>2019-04-26T09:40:52Z</time>
      </trkpt>
      <trkpt lat="45.40827" lon="5.74159">
        <ele>397.3</ele>
        <time>2019-04-26T09:40:55Z</time>
      </trkpt>
      <trkpt lat="45.40831" lon="5.7416">
        <ele>397.2</ele>
        <time>2019-04-26T09:40:56Z</time>
      </trkpt>
      <trkpt lat="45.40835" lon="5.74162">
        <ele>397</ele>
        <time>2019-04-26T09:40:57Z</time>
      </trkpt>
      <trkpt lat="45.4084" lon="5.74163">
        <ele>396.8</ele>
        <time>2019-04-26T09:40:58Z</time>
      </trkpt>
      <trkpt lat="45.40844" lon="5.74162">
        <ele>396.7</ele>
        <time>2019-04-26T09:40:59Z</time>
      </trkpt>
      <trkpt lat="45.40847" lon="5.74163">
        <ele>396.6</ele>
        <time>2019-04-26T09:41:00Z</time>
      </trkpt>
      <trkpt lat="45.40854" lon="5.74164">
        <ele>396.4</ele>
        <time>2019-04-26T09:41:02Z</time>
      </trkpt>
      <trkpt lat="45.40859" lon="5.74165">
        <ele>396.1</ele>
        <time>2019-04-26T09:41:03Z</time>
      </trkpt>
      <trkpt lat="45.40864" lon="5.74167">
        <ele>395.9</ele>
        <time>2019-04-26T09:41:04Z</time>
      </trkpt>
      <trkpt lat="45.40869" lon="5.74168">
        <ele>395.8</ele>
        <time>2019-04-26T09:41:05Z</time>
      </trkpt>
      <trkpt lat="45.40874" lon="5.74169">
        <ele>395.5</ele>
        <time>2019-04-26T09:41:06Z</time>
      </trkpt>
      <trkpt lat="45.40877" lon="5.74171">
        <ele>395.5</ele>
        <time>2019-04-26T09:41:07Z</time>
      </trkpt>
      <trkpt lat="45.40881" lon="5.74173">
        <ele>395.3</ele>
        <time>2019-04-26T09:41:08Z</time>
      </trkpt>
      <trkpt lat="45.40886" lon="5.74175">
        <ele>395.2</ele>
        <time>2019-04-26T09:41:09Z</time>
      </trkpt>
      <trkpt lat="45.40892" lon="5.74179">
        <ele>395</ele>
        <time>2019-04-26T09:41:10Z</time>
      </trkpt>
      <trkpt lat="45.40895" lon="5.7418">
        <ele>394.9</ele>
        <time>2019-04-26T09:41:11Z</time>
      </trkpt>
      <trkpt lat="45.40899" lon="5.74181">
        <ele>394.9</ele>
        <time>2019-04-26T09:41:12Z</time>
      </trkpt>
      <trkpt lat="45.40901" lon="5.74182">
        <ele>394.7</ele>
        <time>2019-04-26T09:41:13Z</time>
      </trkpt>
      <trkpt lat="45.40913" lon="5.74186">
        <ele>394.5</ele>
        <time>2019-04-26T09:41:14Z</time>
      </trkpt>
      <trkpt lat="45.40917" lon="5.74188">
        <ele>394.5</ele>
        <time>2019-04-26T09:41:15Z</time>
      </trkpt>
      <trkpt lat="45.40921" lon="5.74191">
        <ele>394.3</ele>
        <time>2019-04-26T09:41:16Z</time>
      </trkpt>
      <trkpt lat="45.40925" lon="5.74194">
        <ele>394.3</ele>
        <time>2019-04-26T09:41:17Z</time>
      </trkpt>
      <trkpt lat="45.40929" lon="5.74195">
        <ele>394.1</ele>
        <time>2019-04-26T09:41:18Z</time>
      </trkpt>
      <trkpt lat="45.40932" lon="5.74196">
        <ele>394.1</ele>
        <time>2019-04-26T09:41:19Z</time>
      </trkpt>
      <trkpt lat="45.40933" lon="5.742">
        <ele>394</ele>
        <time>2019-04-26T09:41:32Z</time>
      </trkpt>
      <trkpt lat="45.40931" lon="5.74203">
        <ele>394</ele>
        <time>2019-04-26T09:41:49Z</time>
      </trkpt>
      <trkpt lat="45.40928" lon="5.74206">
        <ele>393.9</ele>
        <time>2019-04-26T09:41:53Z</time>
      </trkpt>
      <trkpt lat="45.40923" lon="5.74205">
        <ele>393.9</ele>
        <time>2019-04-26T09:41:59Z</time>
      </trkpt>
      <trkpt lat="45.40919" lon="5.74204">
        <ele>393.9</ele>
        <time>2019-04-26T09:42:00Z</time>
      </trkpt>
      <trkpt lat="45.40917" lon="5.74202">
        <ele>394.1</ele>
        <time>2019-04-26T09:42:01Z</time>
      </trkpt>
      <trkpt lat="45.40914" lon="5.742">
        <ele>394.1</ele>
        <time>2019-04-26T09:42:02Z</time>
      </trkpt>
      <trkpt lat="45.40911" lon="5.74197">
        <ele>394.3</ele>
        <time>2019-04-26T09:42:03Z</time>
      </trkpt>
      <trkpt lat="45.40908" lon="5.74195">
        <ele>394.4</ele>
        <time>2019-04-26T09:42:04Z</time>
      </trkpt>
      <trkpt lat="45.40905" lon="5.74193">
        <ele>394.5</ele>
        <time>2019-04-26T09:42:05Z</time>
      </trkpt>
      <trkpt lat="45.40901" lon="5.74191">
        <ele>394.6</ele>
        <time>2019-04-26T09:42:06Z</time>
      </trkpt>
      <trkpt lat="45.40897" lon="5.7419">
        <ele>394.7</ele>
        <time>2019-04-26T09:42:07Z</time>
      </trkpt>
      <trkpt lat="45.40894" lon="5.7419">
        <ele>394.8</ele>
        <time>2019-04-26T09:42:08Z</time>
      </trkpt>
      <trkpt lat="45.40886" lon="5.74195">
        <ele>394.7</ele>
        <time>2019-04-26T09:42:09Z</time>
      </trkpt>
      <trkpt lat="45.40883" lon="5.74194">
        <ele>394.9</ele>
        <time>2019-04-26T09:42:10Z</time>
      </trkpt>
      <trkpt lat="45.4088" lon="5.74191">
        <ele>394.9</ele>
        <time>2019-04-26T09:42:12Z</time>
      </trkpt>
      <trkpt lat="45.40878" lon="5.74189">
        <ele>395.1</ele>
        <time>2019-04-26T09:42:14Z</time>
      </trkpt>
      <trkpt lat="45.40875" lon="5.74186">
        <ele>395.2</ele>
        <time>2019-04-26T09:42:15Z</time>
      </trkpt>
      <trkpt lat="45.40831" lon="5.7418">
        <ele>396.9</ele>
        <time>2019-04-26T09:42:17Z</time>
      </trkpt>
      <trkpt lat="45.40855" lon="5.74179">
        <ele>396</ele>
        <time>2019-04-26T09:42:18Z</time>
      </trkpt>
      <trkpt lat="45.4085" lon="5.7418">
        <ele>396.2</ele>
        <time>2019-04-26T09:42:19Z</time>
      </trkpt>
      <trkpt lat="45.40846" lon="5.74179">
        <ele>396.3</ele>
        <time>2019-04-26T09:42:20Z</time>
      </trkpt>
      <trkpt lat="45.40842" lon="5.74178">
        <ele>396.5</ele>
        <time>2019-04-26T09:42:21Z</time>
      </trkpt>
      <trkpt lat="45.40837" lon="5.74179">
        <ele>396.7</ele>
        <time>2019-04-26T09:42:22Z</time>
      </trkpt>
      <trkpt lat="45.40834" lon="5.74179">
        <ele>396.8</ele>
        <time>2019-04-26T09:42:24Z</time>
      </trkpt>
      <trkpt lat="45.40831" lon="5.74177">
        <ele>397</ele>
        <time>2019-04-26T09:42:39Z</time>
      </trkpt>
      <trkpt lat="45.40828" lon="5.74173">
        <ele>397.1</ele>
        <time>2019-04-26T09:42:42Z</time>
      </trkpt>
      <trkpt lat="45.40823" lon="5.7417">
        <ele>397.4</ele>
        <time>2019-04-26T09:42:44Z</time>
      </trkpt>
      <trkpt lat="45.40819" lon="5.74169">
        <ele>397.5</ele>
        <time>2019-04-26T09:42:45Z</time>
      </trkpt>
      <trkpt lat="45.40815" lon="5.74167">
        <ele>397.6</ele>
        <time>2019-04-26T09:42:46Z</time>
      </trkpt>
      <trkpt lat="45.4081" lon="5.74165">
        <ele>397.7</ele>
        <time>2019-04-26T09:42:47Z</time>
      </trkpt>
      <trkpt lat="45.40805" lon="5.74164">
        <ele>397.9</ele>
        <time>2019-04-26T09:42:48Z</time>
      </trkpt>
      <trkpt lat="45.40801" lon="5.74162">
        <ele>397.9</ele>
        <time>2019-04-26T09:42:49Z</time>
      </trkpt>
      <trkpt lat="45.40797" lon="5.7416">
        <ele>398</ele>
        <time>2019-04-26T09:42:50Z</time>
      </trkpt>
      <trkpt lat="45.40794" lon="5.74155">
        <ele>398</ele>
        <time>2019-04-26T09:42:51Z</time>
      </trkpt>
      <trkpt lat="45.4079" lon="5.74153">
        <ele>398</ele>
        <time>2019-04-26T09:42:52Z</time>
      </trkpt>
      <trkpt lat="45.40785" lon="5.7415">
        <ele>398.1</ele>
        <time>2019-04-26T09:42:53Z</time>
      </trkpt>
      <trkpt lat="45.40781" lon="5.74149">
        <ele>398.1</ele>
        <time>2019-04-26T09:42:54Z</time>
      </trkpt>
      <trkpt lat="45.40775" lon="5.7415">
        <ele>398.1</ele>
        <time>2019-04-26T09:42:55Z</time>
      </trkpt>
      <trkpt lat="45.40771" lon="5.74149">
        <ele>398.1</ele>
        <time>2019-04-26T09:42:56Z</time>
      </trkpt>
      <trkpt lat="45.40767" lon="5.74148">
        <ele>398.1</ele>
        <time>2019-04-26T09:42:58Z</time>
      </trkpt>
      <trkpt lat="45.40763" lon="5.74146">
        <ele>398.1</ele>
        <time>2019-04-26T09:43:00Z</time>
      </trkpt>
      <trkpt lat="45.40758" lon="5.74144">
        <ele>398.1</ele>
        <time>2019-04-26T09:43:01Z</time>
      </trkpt>
      <trkpt lat="45.40753" lon="5.74142">
        <ele>398</ele>
        <time>2019-04-26T09:43:02Z</time>
      </trkpt>
      <trkpt lat="45.40743" lon="5.74136">
        <ele>398</ele>
        <time>2019-04-26T09:43:03Z</time>
      </trkpt>
      <trkpt lat="45.40738" lon="5.74137">
        <ele>398</ele>
        <time>2019-04-26T09:43:04Z</time>
      </trkpt>
      <trkpt lat="45.40733" lon="5.74139">
        <ele>398</ele>
        <time>2019-04-26T09:43:05Z</time>
      </trkpt>
      <trkpt lat="45.4073" lon="5.74139">
        <ele>398</ele>
        <time>2019-04-26T09:43:06Z</time>
      </trkpt>
      <trkpt lat="45.40726" lon="5.74137">
        <ele>397.9</ele>
        <time>2019-04-26T09:43:07Z</time>
      </trkpt>
      <trkpt lat="45.40723" lon="5.74136">
        <ele>398</ele>
        <time>2019-04-26T09:43:08Z</time>
      </trkpt>
      <trkpt lat="45.40719" lon="5.74136">
        <ele>397.9</ele>
        <time>2019-04-26T09:43:09Z</time>
      </trkpt>
      <trkpt lat="45.40716" lon="5.74137">
        <ele>397.9</ele>
        <time>2019-04-26T09:43:11Z</time>
      </trkpt>
      <trkpt lat="45.40714" lon="5.7414">
        <ele>398</ele>
        <time>2019-04-26T09:43:19Z</time>
      </trkpt>
      <trkpt lat="45.40714" lon="5.74147">
        <ele>398.1</ele>
        <time>2019-04-26T09:43:22Z</time>
      </trkpt>
      <trkpt lat="45.40715" lon="5.74151">
        <ele>398.1</ele>
        <time>2019-04-26T09:43:23Z</time>
      </trkpt>
      <trkpt lat="45.40715" lon="5.74157">
        <ele>398.2</ele>
        <time>2019-04-26T09:43:24Z</time>
      </trkpt>
      <trkpt lat="45.40716" lon="5.74169">
        <ele>398.2</ele>
        <time>2019-04-26T09:43:25Z</time>
      </trkpt>
      <trkpt lat="45.40718" lon="5.74178">
        <ele>398.2</ele>
        <time>2019-04-26T09:43:26Z</time>
      </trkpt>
      <trkpt lat="45.40719" lon="5.74187">
        <ele>398.2</ele>
        <time>2019-04-26T09:43:27Z</time>
      </trkpt>
      <trkpt lat="45.4072" lon="5.74193">
        <ele>398.1</ele>
        <time>2019-04-26T09:43:29Z</time>
      </trkpt>
      <trkpt lat="45.4072" lon="5.74198">
        <ele>398</ele>
        <time>2019-04-26T09:43:30Z</time>
      </trkpt>
      <trkpt lat="45.4072" lon="5.74203">
        <ele>398</ele>
        <time>2019-04-26T09:43:31Z</time>
      </trkpt>
      <trkpt lat="45.40717" lon="5.74207">
        <ele>397.9</ele>
        <time>2019-04-26T09:43:32Z</time>
      </trkpt>
      <trkpt lat="45.40714" lon="5.74212">
        <ele>397.8</ele>
        <time>2019-04-26T09:43:33Z</time>
      </trkpt>
      <trkpt lat="45.40711" lon="5.74216">
        <ele>397.8</ele>
        <time>2019-04-26T09:43:34Z</time>
      </trkpt>
      <trkpt lat="45.40707" lon="5.74222">
        <ele>397.6</ele>
        <time>2019-04-26T09:43:36Z</time>
      </trkpt>
      <trkpt lat="45.40704" lon="5.74227">
        <ele>397.5</ele>
        <time>2019-04-26T09:43:37Z</time>
      </trkpt>
      <trkpt lat="45.407" lon="5.74231">
        <ele>397.4</ele>
        <time>2019-04-26T09:43:38Z</time>
      </trkpt>
      <trkpt lat="45.40697" lon="5.74235">
        <ele>397.3</ele>
        <time>2019-04-26T09:43:39Z</time>
      </trkpt>
      <trkpt lat="45.4069" lon="5.74241">
        <ele>397.2</ele>
        <time>2019-04-26T09:43:40Z</time>
      </trkpt>
      <trkpt lat="45.40688" lon="5.74244">
        <ele>397.1</ele>
        <time>2019-04-26T09:43:41Z</time>
      </trkpt>
      <trkpt lat="45.40685" lon="5.74247">
        <ele>397.1</ele>
        <time>2019-04-26T09:43:42Z</time>
      </trkpt>
      <trkpt lat="45.40682" lon="5.7425">
        <ele>397.1</ele>
        <time>2019-04-26T09:43:43Z</time>
      </trkpt>
      <trkpt lat="45.4068" lon="5.74253">
        <ele>397</ele>
        <time>2019-04-26T09:43:44Z</time>
      </trkpt>
      <trkpt lat="45.40678" lon="5.74257">
        <ele>396.9</ele>
        <time>2019-04-26T09:43:45Z</time>
      </trkpt>
      <trkpt lat="45.40676" lon="5.74261">
        <ele>396.8</ele>
        <time>2019-04-26T09:43:47Z</time>
      </trkpt>
      <trkpt lat="45.40673" lon="5.74266">
        <ele>396.7</ele>
        <time>2019-04-26T09:43:49Z</time>
      </trkpt>
      <trkpt lat="45.4067" lon="5.7427">
        <ele>396.7</ele>
        <time>2019-04-26T09:43:50Z</time>
      </trkpt>
      <trkpt lat="45.40666" lon="5.74277">
        <ele>396.5</ele>
        <time>2019-04-26T09:43:51Z</time>
      </trkpt>
      <trkpt lat="45.40662" lon="5.74284">
        <ele>396.4</ele>
        <time>2019-04-26T09:43:52Z</time>
      </trkpt>
      <trkpt lat="45.40658" lon="5.74291">
        <ele>396.2</ele>
        <time>2019-04-26T09:43:53Z</time>
      </trkpt>
      <trkpt lat="45.40655" lon="5.74298">
        <ele>396</ele>
        <time>2019-04-26T09:43:54Z</time>
      </trkpt>
      <trkpt lat="45.40652" lon="5.74304">
        <ele>395.9</ele>
        <time>2019-04-26T09:43:55Z</time>
      </trkpt>
      <trkpt lat="45.40649" lon="5.7431">
        <ele>395.8</ele>
        <time>2019-04-26T09:43:56Z</time>
      </trkpt>
      <trkpt lat="45.40646" lon="5.74315">
        <ele>395.7</ele>
        <time>2019-04-26T09:43:57Z</time>
      </trkpt>
      <trkpt lat="45.40645" lon="5.7432">
        <ele>395.5</ele>
        <time>2019-04-26T09:43:58Z</time>
      </trkpt>
      <trkpt lat="45.40643" lon="5.74325">
        <ele>395.5</ele>
        <time>2019-04-26T09:43:59Z</time>
      </trkpt>
      <trkpt lat="45.40642" lon="5.74329">
        <ele>395.4</ele>
        <time>2019-04-26T09:44:00Z</time>
      </trkpt>
      <trkpt lat="45.40638" lon="5.74336">
        <ele>395.3</ele>
        <time>2019-04-26T09:44:02Z</time>
      </trkpt>
      <trkpt lat="45.40636" lon="5.74339">
        <ele>395.3</ele>
        <time>2019-04-26T09:44:03Z</time>
      </trkpt>
      <trkpt lat="45.40634" lon="5.74342">
        <ele>395.3</ele>
        <time>2019-04-26T09:44:04Z</time>
      </trkpt>
      <trkpt lat="45.40632" lon="5.74346">
        <ele>395.3</ele>
        <time>2019-04-26T09:44:06Z</time>
      </trkpt>
      <trkpt lat="45.40629" lon="5.74349">
        <ele>395.3</ele>
        <time>2019-04-26T09:44:08Z</time>
      </trkpt>
      <trkpt lat="45.40627" lon="5.74354">
        <ele>395.3</ele>
        <time>2019-04-26T09:44:10Z</time>
      </trkpt>
      <trkpt lat="45.40624" lon="5.7436">
        <ele>395.3</ele>
        <time>2019-04-26T09:44:12Z</time>
      </trkpt>
      <trkpt lat="45.40623" lon="5.74364">
        <ele>395.3</ele>
        <time>2019-04-26T09:44:13Z</time>
      </trkpt>
      <trkpt lat="45.40621" lon="5.74368">
        <ele>395.3</ele>
        <time>2019-04-26T09:44:14Z</time>
      </trkpt>
      <trkpt lat="45.40619" lon="5.74372">
        <ele>395.3</ele>
        <time>2019-04-26T09:44:15Z</time>
      </trkpt>
      <trkpt lat="45.40617" lon="5.74376">
        <ele>395.3</ele>
        <time>2019-04-26T09:44:16Z</time>
      </trkpt>
      <trkpt lat="45.40615" lon="5.7438">
        <ele>395.4</ele>
        <time>2019-04-26T09:44:17Z</time>
      </trkpt>
      <trkpt lat="45.40613" lon="5.74385">
        <ele>395.4</ele>
        <time>2019-04-26T09:44:18Z</time>
      </trkpt>
      <trkpt lat="45.40611" lon="5.74389">
        <ele>395.4</ele>
        <time>2019-04-26T09:44:19Z</time>
      </trkpt>
      <trkpt lat="45.4061" lon="5.74392">
        <ele>395.4</ele>
        <time>2019-04-26T09:44:20Z</time>
      </trkpt>
      <trkpt lat="45.40608" lon="5.74396">
        <ele>395.4</ele>
        <time>2019-04-26T09:44:21Z</time>
      </trkpt>
      <trkpt lat="45.40606" lon="5.744">
        <ele>395.5</ele>
        <time>2019-04-26T09:44:22Z</time>
      </trkpt>
      <trkpt lat="45.40604" lon="5.74404">
        <ele>395.5</ele>
        <time>2019-04-26T09:44:23Z</time>
      </trkpt>
      <trkpt lat="45.40602" lon="5.74408">
        <ele>395.5</ele>
        <time>2019-04-26T09:44:24Z</time>
      </trkpt>
      <trkpt lat="45.406" lon="5.74413">
        <ele>395.5</ele>
        <time>2019-04-26T09:44:26Z</time>
      </trkpt>
      <trkpt lat="45.40597" lon="5.74419">
        <ele>395.5</ele>
        <time>2019-04-26T09:44:28Z</time>
      </trkpt>
      <trkpt lat="45.40595" lon="5.74425">
        <ele>395.5</ele>
        <time>2019-04-26T09:44:30Z</time>
      </trkpt>
      <trkpt lat="45.40593" lon="5.74431">
        <ele>395.5</ele>
        <time>2019-04-26T09:44:32Z</time>
      </trkpt>
      <trkpt lat="45.40592" lon="5.74435">
        <ele>395.5</ele>
        <time>2019-04-26T09:44:33Z</time>
      </trkpt>
      <trkpt lat="45.4059" lon="5.7444">
        <ele>395.5</ele>
        <time>2019-04-26T09:44:35Z</time>
      </trkpt>
      <trkpt lat="45.40588" lon="5.74445">
        <ele>395.5</ele>
        <time>2019-04-26T09:44:36Z</time>
      </trkpt>
      <trkpt lat="45.40585" lon="5.74452">
        <ele>395.5</ele>
        <time>2019-04-26T09:44:37Z</time>
      </trkpt>
      <trkpt lat="45.40582" lon="5.7446">
        <ele>395.6</ele>
        <time>2019-04-26T09:44:38Z</time>
      </trkpt>
      <trkpt lat="45.40577" lon="5.7447">
        <ele>395.6</ele>
        <time>2019-04-26T09:44:39Z</time>
      </trkpt>
      <trkpt lat="45.40574" lon="5.74477">
        <ele>395.7</ele>
        <time>2019-04-26T09:44:40Z</time>
      </trkpt>
      <trkpt lat="45.40572" lon="5.74484">
        <ele>395.7</ele>
        <time>2019-04-26T09:44:41Z</time>
      </trkpt>
      <trkpt lat="45.4057" lon="5.74489">
        <ele>395.7</ele>
        <time>2019-04-26T09:44:42Z</time>
      </trkpt>
      <trkpt lat="45.40567" lon="5.74496">
        <ele>395.8</ele>
        <time>2019-04-26T09:44:43Z</time>
      </trkpt>
      <trkpt lat="45.40563" lon="5.74502">
        <ele>395.8</ele>
        <time>2019-04-26T09:44:44Z</time>
      </trkpt>
      <trkpt lat="45.40559" lon="5.74508">
        <ele>395.8</ele>
        <time>2019-04-26T09:44:45Z</time>
      </trkpt>
      <trkpt lat="45.40556" lon="5.74515">
        <ele>395.9</ele>
        <time>2019-04-26T09:44:46Z</time>
      </trkpt>
      <trkpt lat="45.40554" lon="5.74523">
        <ele>395.8</ele>
        <time>2019-04-26T09:44:47Z</time>
      </trkpt>
      <trkpt lat="45.40551" lon="5.7453">
        <ele>395.8</ele>
        <time>2019-04-26T09:44:48Z</time>
      </trkpt>
      <trkpt lat="45.40548" lon="5.74538">
        <ele>395.7</ele>
        <time>2019-04-26T09:44:49Z</time>
      </trkpt>
      <trkpt lat="45.40545" lon="5.74544">
        <ele>395.7</ele>
        <time>2019-04-26T09:44:50Z</time>
      </trkpt>
      <trkpt lat="45.40541" lon="5.74549">
        <ele>395.7</ele>
        <time>2019-04-26T09:44:52Z</time>
      </trkpt>
      <trkpt lat="45.4054" lon="5.74554">
        <ele>395.7</ele>
        <time>2019-04-26T09:44:53Z</time>
      </trkpt>
      <trkpt lat="45.40538" lon="5.74557">
        <ele>395.7</ele>
        <time>2019-04-26T09:44:54Z</time>
      </trkpt>
      <trkpt lat="45.40535" lon="5.74562">
        <ele>395.7</ele>
        <time>2019-04-26T09:44:56Z</time>
      </trkpt>
      <trkpt lat="45.40533" lon="5.74566">
        <ele>395.6</ele>
        <time>2019-04-26T09:44:57Z</time>
      </trkpt>
      <trkpt lat="45.40531" lon="5.74571">
        <ele>395.6</ele>
        <time>2019-04-26T09:44:58Z</time>
      </trkpt>
      <trkpt lat="45.40529" lon="5.74574">
        <ele>395.6</ele>
        <time>2019-04-26T09:44:59Z</time>
      </trkpt>
      <trkpt lat="45.40528" lon="5.74579">
        <ele>395.7</ele>
        <time>2019-04-26T09:45:01Z</time>
      </trkpt>
      <trkpt lat="45.40528" lon="5.74569">
        <ele>395.7</ele>
        <time>2019-04-26T09:45:03Z</time>
      </trkpt>
      <trkpt lat="45.40525" lon="5.74572">
        <ele>395.7</ele>
        <time>2019-04-26T09:45:06Z</time>
      </trkpt>
      <trkpt lat="45.40522" lon="5.74569">
        <ele>395.7</ele>
        <time>2019-04-26T09:45:08Z</time>
      </trkpt>
      <trkpt lat="45.40519" lon="5.74567">
        <ele>395.8</ele>
        <time>2019-04-26T09:45:09Z</time>
      </trkpt>
      <trkpt lat="45.40516" lon="5.74565">
        <ele>395.8</ele>
        <time>2019-04-26T09:45:10Z</time>
      </trkpt>
      <trkpt lat="45.40513" lon="5.74563">
        <ele>395.8</ele>
        <time>2019-04-26T09:45:11Z</time>
      </trkpt>
      <trkpt lat="45.40511" lon="5.74562">
        <ele>395.8</ele>
        <time>2019-04-26T09:45:12Z</time>
      </trkpt>
      <trkpt lat="45.40508" lon="5.7456">
        <ele>395.8</ele>
        <time>2019-04-26T09:45:13Z</time>
      </trkpt>
      <trkpt lat="45.40505" lon="5.74558">
        <ele>395.8</ele>
        <time>2019-04-26T09:45:14Z</time>
      </trkpt>
      <trkpt lat="45.40501" lon="5.74557">
        <ele>395.8</ele>
        <time>2019-04-26T09:45:15Z</time>
      </trkpt>
      <trkpt lat="45.40498" lon="5.74555">
        <ele>395.8</ele>
        <time>2019-04-26T09:45:16Z</time>
      </trkpt>
      <trkpt lat="45.40495" lon="5.74554">
        <ele>395.8</ele>
        <time>2019-04-26T09:45:17Z</time>
      </trkpt>
      <trkpt lat="45.40493" lon="5.74551">
        <ele>395.8</ele>
        <time>2019-04-26T09:45:18Z</time>
      </trkpt>
      <trkpt lat="45.4049" lon="5.74546">
        <ele>395.8</ele>
        <time>2019-04-26T09:45:19Z</time>
      </trkpt>
      <trkpt lat="45.40489" lon="5.74542">
        <ele>395.8</ele>
        <time>2019-04-26T09:45:20Z</time>
      </trkpt>
      <trkpt lat="45.40488" lon="5.74537">
        <ele>395.8</ele>
        <time>2019-04-26T09:45:21Z</time>
      </trkpt>
      <trkpt lat="45.40484" lon="5.74534">
        <ele>395.8</ele>
        <time>2019-04-26T09:45:22Z</time>
      </trkpt>
      <trkpt lat="45.40478" lon="5.74533">
        <ele>395.8</ele>
        <time>2019-04-26T09:45:23Z</time>
      </trkpt>
      <trkpt lat="45.40473" lon="5.7453">
        <ele>395.8</ele>
        <time>2019-04-26T09:45:24Z</time>
      </trkpt>
      <trkpt lat="45.40469" lon="5.74528">
        <ele>395.9</ele>
        <time>2019-04-26T09:45:25Z</time>
      </trkpt>
      <trkpt lat="45.40465" lon="5.74525">
        <ele>395.9</ele>
        <time>2019-04-26T09:45:26Z</time>
      </trkpt>
      <trkpt lat="45.40462" lon="5.74523">
        <ele>395.9</ele>
        <time>2019-04-26T09:45:27Z</time>
      </trkpt>
      <trkpt lat="45.40457" lon="5.74522">
        <ele>395.9</ele>
        <time>2019-04-26T09:45:28Z</time>
      </trkpt>
      <trkpt lat="45.40452" lon="5.74521">
        <ele>395.9</ele>
        <time>2019-04-26T09:45:29Z</time>
      </trkpt>
      <trkpt lat="45.40448" lon="5.7452">
        <ele>395.9</ele>
        <time>2019-04-26T09:45:30Z</time>
      </trkpt>
      <trkpt lat="45.40445" lon="5.74518">
        <ele>395.9</ele>
        <time>2019-04-26T09:45:31Z</time>
      </trkpt>
      <trkpt lat="45.40441" lon="5.74516">
        <ele>395.9</ele>
        <time>2019-04-26T09:45:32Z</time>
      </trkpt>
      <trkpt lat="45.40437" lon="5.74516">
        <ele>395.9</ele>
        <time>2019-04-26T09:45:33Z</time>
      </trkpt>
      <trkpt lat="45.40433" lon="5.74515">
        <ele>395.9</ele>
        <time>2019-04-26T09:45:34Z</time>
      </trkpt>
      <trkpt lat="45.4043" lon="5.74513">
        <ele>395.9</ele>
        <time>2019-04-26T09:45:35Z</time>
      </trkpt>
      <trkpt lat="45.40426" lon="5.74512">
        <ele>395.9</ele>
        <time>2019-04-26T09:45:36Z</time>
      </trkpt>
      <trkpt lat="45.40423" lon="5.74511">
        <ele>395.9</ele>
        <time>2019-04-26T09:45:37Z</time>
      </trkpt>
      <trkpt lat="45.4042" lon="5.7451">
        <ele>395.9</ele>
        <time>2019-04-26T09:45:38Z</time>
      </trkpt>
      <trkpt lat="45.40416" lon="5.74509">
        <ele>396</ele>
        <time>2019-04-26T09:45:39Z</time>
      </trkpt>
      <trkpt lat="45.40413" lon="5.74508">
        <ele>396</ele>
        <time>2019-04-26T09:45:40Z</time>
      </trkpt>
      <trkpt lat="45.40409" lon="5.74507">
        <ele>396</ele>
        <time>2019-04-26T09:45:41Z</time>
      </trkpt>
      <trkpt lat="45.40406" lon="5.74506">
        <ele>396</ele>
        <time>2019-04-26T09:45:42Z</time>
      </trkpt>
      <trkpt lat="45.40402" lon="5.74506">
        <ele>396</ele>
        <time>2019-04-26T09:45:43Z</time>
      </trkpt>
      <trkpt lat="45.40398" lon="5.74505">
        <ele>396</ele>
        <time>2019-04-26T09:45:44Z</time>
      </trkpt>
      <trkpt lat="45.40396" lon="5.74509">
        <ele>396</ele>
        <time>2019-04-26T09:46:10Z</time>
      </trkpt>
      <trkpt lat="45.40392" lon="5.74513">
        <ele>396</ele>
        <time>2019-04-26T09:46:12Z</time>
      </trkpt>
      <trkpt lat="45.4039" lon="5.74518">
        <ele>396</ele>
        <time>2019-04-26T09:46:14Z</time>
      </trkpt>
      <trkpt lat="45.40389" lon="5.74524">
        <ele>396</ele>
        <time>2019-04-26T09:46:16Z</time>
      </trkpt>
      <trkpt lat="45.40389" lon="5.74531">
        <ele>396</ele>
        <time>2019-04-26T09:46:18Z</time>
      </trkpt>
      <trkpt lat="45.40389" lon="5.74537">
        <ele>396</ele>
        <time>2019-04-26T09:46:20Z</time>
      </trkpt>
      <trkpt lat="45.40388" lon="5.74542">
        <ele>396</ele>
        <time>2019-04-26T09:46:21Z</time>
      </trkpt>
      <trkpt lat="45.40388" lon="5.74549">
        <ele>396</ele>
        <time>2019-04-26T09:46:23Z</time>
      </trkpt>
      <trkpt lat="45.40388" lon="5.74554">
        <ele>396</ele>
        <time>2019-04-26T09:46:24Z</time>
      </trkpt>
      <trkpt lat="45.40388" lon="5.74559">
        <ele>396</ele>
        <time>2019-04-26T09:46:25Z</time>
      </trkpt>
      <trkpt lat="45.40387" lon="5.74565">
        <ele>396</ele>
        <time>2019-04-26T09:46:26Z</time>
      </trkpt>
      <trkpt lat="45.40387" lon="5.74572">
        <ele>396</ele>
        <time>2019-04-26T09:46:27Z</time>
      </trkpt>
      <trkpt lat="45.40387" lon="5.74579">
        <ele>396</ele>
        <time>2019-04-26T09:46:28Z</time>
      </trkpt>
      <trkpt lat="45.40387" lon="5.74587">
        <ele>396</ele>
        <time>2019-04-26T09:46:29Z</time>
      </trkpt>
      <trkpt lat="45.40388" lon="5.74595">
        <ele>396</ele>
        <time>2019-04-26T09:46:30Z</time>
      </trkpt>
      <trkpt lat="45.40388" lon="5.74602">
        <ele>396</ele>
        <time>2019-04-26T09:46:31Z</time>
      </trkpt>
      <trkpt lat="45.40389" lon="5.7461">
        <ele>396.1</ele>
        <time>2019-04-26T09:46:32Z</time>
      </trkpt>
      <trkpt lat="45.40389" lon="5.74618">
        <ele>396.1</ele>
        <time>2019-04-26T09:46:33Z</time>
      </trkpt>
      <trkpt lat="45.40389" lon="5.74625">
        <ele>396.2</ele>
        <time>2019-04-26T09:46:34Z</time>
      </trkpt>
      <trkpt lat="45.40389" lon="5.74632">
        <ele>396.3</ele>
        <time>2019-04-26T09:46:35Z</time>
      </trkpt>
      <trkpt lat="45.40388" lon="5.74638">
        <ele>396.3</ele>
        <time>2019-04-26T09:46:36Z</time>
      </trkpt>
      <trkpt lat="45.40388" lon="5.74644">
        <ele>396.4</ele>
        <time>2019-04-26T09:46:37Z</time>
      </trkpt>
      <trkpt lat="45.40387" lon="5.7465">
        <ele>396.5</ele>
        <time>2019-04-26T09:46:38Z</time>
      </trkpt>
      <trkpt lat="45.40387" lon="5.74658">
        <ele>396.5</ele>
        <time>2019-04-26T09:46:39Z</time>
      </trkpt>
      <trkpt lat="45.40386" lon="5.74666">
        <ele>396.6</ele>
        <time>2019-04-26T09:46:40Z</time>
      </trkpt>
      <trkpt lat="45.40386" lon="5.74673">
        <ele>396.6</ele>
        <time>2019-04-26T09:46:41Z</time>
      </trkpt>
      <trkpt lat="45.40387" lon="5.7468">
        <ele>396.6</ele>
        <time>2019-04-26T09:46:42Z</time>
      </trkpt>
      <trkpt lat="45.40387" lon="5.74687">
        <ele>396.6</ele>
        <time>2019-04-26T09:46:43Z</time>
      </trkpt>
      <trkpt lat="45.40387" lon="5.74693">
        <ele>396.6</ele>
        <time>2019-04-26T09:46:44Z</time>
      </trkpt>
      <trkpt lat="45.40387" lon="5.74699">
        <ele>396.6</ele>
        <time>2019-04-26T09:46:45Z</time>
      </trkpt>
      <trkpt lat="45.40386" lon="5.74704">
        <ele>396.6</ele>
        <time>2019-04-26T09:46:46Z</time>
      </trkpt>
      <trkpt lat="45.40385" lon="5.74709">
        <ele>396.6</ele>
        <time>2019-04-26T09:46:47Z</time>
      </trkpt>
      <trkpt lat="45.40384" lon="5.74714">
        <ele>396.5</ele>
        <time>2019-04-26T09:46:48Z</time>
      </trkpt>
      <trkpt lat="45.40384" lon="5.74719">
        <ele>396.5</ele>
        <time>2019-04-26T09:46:49Z</time>
      </trkpt>
      <trkpt lat="45.40384" lon="5.74723">
        <ele>396.5</ele>
        <time>2019-04-26T09:46:50Z</time>
      </trkpt>
      <trkpt lat="45.40383" lon="5.74728">
        <ele>396.4</ele>
        <time>2019-04-26T09:46:51Z</time>
      </trkpt>
      <trkpt lat="45.40383" lon="5.74734">
        <ele>396.4</ele>
        <time>2019-04-26T09:46:52Z</time>
      </trkpt>
      <trkpt lat="45.40382" lon="5.74738">
        <ele>396.4</ele>
        <time>2019-04-26T09:46:53Z</time>
      </trkpt>
      <trkpt lat="45.40381" lon="5.74742">
        <ele>396.3</ele>
        <time>2019-04-26T09:46:54Z</time>
      </trkpt>
      <trkpt lat="45.40381" lon="5.74747">
        <ele>396.3</ele>
        <time>2019-04-26T09:46:55Z</time>
      </trkpt>
      <trkpt lat="45.4038" lon="5.74752">
        <ele>396.3</ele>
        <time>2019-04-26T09:46:56Z</time>
      </trkpt>
      <trkpt lat="45.4038" lon="5.74756">
        <ele>396.3</ele>
        <time>2019-04-26T09:46:57Z</time>
      </trkpt>
      <trkpt lat="45.40381" lon="5.74761">
        <ele>396.3</ele>
        <time>2019-04-26T09:46:58Z</time>
      </trkpt>
      <trkpt lat="45.40381" lon="5.74766">
        <ele>396.3</ele>
        <time>2019-04-26T09:46:59Z</time>
      </trkpt>
      <trkpt lat="45.40381" lon="5.74771">
        <ele>396.3</ele>
        <time>2019-04-26T09:47:00Z</time>
      </trkpt>
      <trkpt lat="45.40381" lon="5.74776">
        <ele>396.3</ele>
        <time>2019-04-26T09:47:01Z</time>
      </trkpt>
      <trkpt lat="45.40381" lon="5.74784">
        <ele>396.3</ele>
        <time>2019-04-26T09:47:03Z</time>
      </trkpt>
      <trkpt lat="45.40381" lon="5.74788">
        <ele>396.4</ele>
        <time>2019-04-26T09:47:04Z</time>
      </trkpt>
      <trkpt lat="45.40379" lon="5.74793">
        <ele>396.4</ele>
        <time>2019-04-26T09:47:05Z</time>
      </trkpt>
      <trkpt lat="45.40378" lon="5.74797">
        <ele>396.3</ele>
        <time>2019-04-26T09:47:06Z</time>
      </trkpt>
      <trkpt lat="45.40376" lon="5.74801">
        <ele>396.3</ele>
        <time>2019-04-26T09:47:07Z</time>
      </trkpt>
      <trkpt lat="45.40374" lon="5.74806">
        <ele>396.3</ele>
        <time>2019-04-26T09:47:09Z</time>
      </trkpt>
      <trkpt lat="45.40372" lon="5.7481">
        <ele>396.2</ele>
        <time>2019-04-26T09:47:10Z</time>
      </trkpt>
      <trkpt lat="45.40371" lon="5.74814">
        <ele>396.2</ele>
        <time>2019-04-26T09:47:11Z</time>
      </trkpt>
      <trkpt lat="45.40369" lon="5.74818">
        <ele>396.1</ele>
        <time>2019-04-26T09:47:12Z</time>
      </trkpt>
      <trkpt lat="45.40367" lon="5.74823">
        <ele>396.1</ele>
        <time>2019-04-26T09:47:13Z</time>
      </trkpt>
      <trkpt lat="45.40365" lon="5.74827">
        <ele>396</ele>
        <time>2019-04-26T09:47:14Z</time>
      </trkpt>
      <trkpt lat="45.40363" lon="5.74831">
        <ele>395.9</ele>
        <time>2019-04-26T09:47:15Z</time>
      </trkpt>
      <trkpt lat="45.4036" lon="5.74835">
        <ele>395.8</ele>
        <time>2019-04-26T09:47:16Z</time>
      </trkpt>
      <trkpt lat="45.40357" lon="5.74839">
        <ele>395.8</ele>
        <time>2019-04-26T09:47:17Z</time>
      </trkpt>
      <trkpt lat="45.40355" lon="5.74843">
        <ele>395.7</ele>
        <time>2019-04-26T09:47:18Z</time>
      </trkpt>
      <trkpt lat="45.40353" lon="5.74846">
        <ele>395.6</ele>
        <time>2019-04-26T09:47:19Z</time>
      </trkpt>
      <trkpt lat="45.40351" lon="5.74849">
        <ele>395.6</ele>
        <time>2019-04-26T09:47:20Z</time>
      </trkpt>
      <trkpt lat="45.40348" lon="5.74854">
        <ele>395.5</ele>
        <time>2019-04-26T09:47:21Z</time>
      </trkpt>
      <trkpt lat="45.40345" lon="5.74858">
        <ele>395.4</ele>
        <time>2019-04-26T09:47:22Z</time>
      </trkpt>
      <trkpt lat="45.40342" lon="5.74862">
        <ele>395.4</ele>
        <time>2019-04-26T09:47:23Z</time>
      </trkpt>
      <trkpt lat="45.4034" lon="5.74865">
        <ele>395.3</ele>
        <time>2019-04-26T09:47:24Z</time>
      </trkpt>
      <trkpt lat="45.40338" lon="5.74868">
        <ele>395.3</ele>
        <time>2019-04-26T09:47:26Z</time>
      </trkpt>
      <trkpt lat="45.40336" lon="5.74872">
        <ele>395.2</ele>
        <time>2019-04-26T09:47:28Z</time>
      </trkpt>
      <trkpt lat="45.40333" lon="5.74877">
        <ele>395.1</ele>
        <time>2019-04-26T09:47:30Z</time>
      </trkpt>
      <trkpt lat="45.40331" lon="5.74881">
        <ele>395.1</ele>
        <time>2019-04-26T09:47:31Z</time>
      </trkpt>
      <trkpt lat="45.40328" lon="5.74885">
        <ele>395.1</ele>
        <time>2019-04-26T09:47:32Z</time>
      </trkpt>
      <trkpt lat="45.40326" lon="5.74888">
        <ele>395</ele>
        <time>2019-04-26T09:47:33Z</time>
      </trkpt>
      <trkpt lat="45.40324" lon="5.74892">
        <ele>395</ele>
        <time>2019-04-26T09:47:34Z</time>
      </trkpt>
      <trkpt lat="45.40321" lon="5.74895">
        <ele>395</ele>
        <time>2019-04-26T09:47:35Z</time>
      </trkpt>
      <trkpt lat="45.40318" lon="5.74898">
        <ele>395</ele>
        <time>2019-04-26T09:47:36Z</time>
      </trkpt>
      <trkpt lat="45.40315" lon="5.74901">
        <ele>395</ele>
        <time>2019-04-26T09:47:37Z</time>
      </trkpt>
      <trkpt lat="45.40312" lon="5.74905">
        <ele>395</ele>
        <time>2019-04-26T09:47:38Z</time>
      </trkpt>
      <trkpt lat="45.40309" lon="5.74907">
        <ele>395</ele>
        <time>2019-04-26T09:47:39Z</time>
      </trkpt>
      <trkpt lat="45.40306" lon="5.74909">
        <ele>395</ele>
        <time>2019-04-26T09:47:40Z</time>
      </trkpt>
      <trkpt lat="45.40303" lon="5.74912">
        <ele>395</ele>
        <time>2019-04-26T09:47:41Z</time>
      </trkpt>
      <trkpt lat="45.40301" lon="5.74915">
        <ele>395.1</ele>
        <time>2019-04-26T09:47:42Z</time>
      </trkpt>
      <trkpt lat="45.40298" lon="5.74918">
        <ele>395.1</ele>
        <time>2019-04-26T09:47:43Z</time>
      </trkpt>
      <trkpt lat="45.40295" lon="5.74923">
        <ele>395.2</ele>
        <time>2019-04-26T09:47:45Z</time>
      </trkpt>
      <trkpt lat="45.40292" lon="5.74925">
        <ele>395.2</ele>
        <time>2019-04-26T09:47:46Z</time>
      </trkpt>
      <trkpt lat="45.4029" lon="5.74929">
        <ele>395.3</ele>
        <time>2019-04-26T09:47:48Z</time>
      </trkpt>
      <trkpt lat="45.40288" lon="5.74932">
        <ele>395.3</ele>
        <time>2019-04-26T09:47:49Z</time>
      </trkpt>
      <trkpt lat="45.40285" lon="5.74934">
        <ele>395.3</ele>
        <time>2019-04-26T09:47:50Z</time>
      </trkpt>
      <trkpt lat="45.40281" lon="5.7494">
        <ele>395.4</ele>
        <time>2019-04-26T09:47:52Z</time>
      </trkpt>
      <trkpt lat="45.40279" lon="5.74943">
        <ele>395.4</ele>
        <time>2019-04-26T09:47:53Z</time>
      </trkpt>
      <trkpt lat="45.40277" lon="5.74947">
        <ele>395.4</ele>
        <time>2019-04-26T09:47:54Z</time>
      </trkpt>
      <trkpt lat="45.40274" lon="5.74951">
        <ele>395.4</ele>
        <time>2019-04-26T09:47:55Z</time>
      </trkpt>
      <trkpt lat="45.40272" lon="5.74953">
        <ele>395.5</ele>
        <time>2019-04-26T09:47:56Z</time>
      </trkpt>
      <trkpt lat="45.40269" lon="5.74956">
        <ele>395.5</ele>
        <time>2019-04-26T09:47:57Z</time>
      </trkpt>
      <trkpt lat="45.40265" lon="5.7496">
        <ele>395.4</ele>
        <time>2019-04-26T09:47:59Z</time>
      </trkpt>
      <trkpt lat="45.40262" lon="5.74965">
        <ele>395.4</ele>
        <time>2019-04-26T09:48:01Z</time>
      </trkpt>
      <trkpt lat="45.4026" lon="5.74967">
        <ele>395.4</ele>
        <time>2019-04-26T09:48:02Z</time>
      </trkpt>
      <trkpt lat="45.40257" lon="5.74972">
        <ele>395.3</ele>
        <time>2019-04-26T09:48:04Z</time>
      </trkpt>
      <trkpt lat="45.40254" lon="5.74977">
        <ele>395.3</ele>
        <time>2019-04-26T09:48:06Z</time>
      </trkpt>
      <trkpt lat="45.40251" lon="5.74983">
        <ele>395.2</ele>
        <time>2019-04-26T09:48:08Z</time>
      </trkpt>
      <trkpt lat="45.40249" lon="5.74987">
        <ele>395.1</ele>
        <time>2019-04-26T09:48:09Z</time>
      </trkpt>
      <trkpt lat="45.40246" lon="5.74994">
        <ele>395.1</ele>
        <time>2019-04-26T09:48:11Z</time>
      </trkpt>
      <trkpt lat="45.40254" lon="5.74989">
        <ele>395.1</ele>
        <time>2019-04-26T09:49:27Z</time>
      </trkpt>
      <trkpt lat="45.40256" lon="5.74993">
        <ele>395.1</ele>
        <time>2019-04-26T09:49:29Z</time>
      </trkpt>
      <trkpt lat="45.40257" lon="5.74998">
        <ele>395.1</ele>
        <time>2019-04-26T09:49:31Z</time>
      </trkpt>
      <trkpt lat="45.40258" lon="5.75002">
        <ele>395.1</ele>
        <time>2019-04-26T09:49:33Z</time>
      </trkpt>
      <trkpt lat="45.40259" lon="5.75007">
        <ele>395.1</ele>
        <time>2019-04-26T09:49:35Z</time>
      </trkpt>
      <trkpt lat="45.40259" lon="5.75013">
        <ele>395.1</ele>
        <time>2019-04-26T09:49:37Z</time>
      </trkpt>
      <trkpt lat="45.40261" lon="5.75019">
        <ele>395.1</ele>
        <time>2019-04-26T09:49:39Z</time>
      </trkpt>
      <trkpt lat="45.40262" lon="5.75026">
        <ele>395.1</ele>
        <time>2019-04-26T09:49:41Z</time>
      </trkpt>
      <trkpt lat="45.40263" lon="5.7503">
        <ele>395.1</ele>
        <time>2019-04-26T09:49:42Z</time>
      </trkpt>
      <trkpt lat="45.40265" lon="5.75035">
        <ele>395.1</ele>
        <time>2019-04-26T09:49:43Z</time>
      </trkpt>
      <trkpt lat="45.40267" lon="5.75041">
        <ele>395.1</ele>
        <time>2019-04-26T09:49:44Z</time>
      </trkpt>
      <trkpt lat="45.4028" lon="5.75076">
        <ele>395.1</ele>
        <time>2019-04-26T09:49:46Z</time>
      </trkpt>
      <trkpt lat="45.40284" lon="5.75084">
        <ele>395.1</ele>
        <time>2019-04-26T09:49:47Z</time>
      </trkpt>
      <trkpt lat="45.40287" lon="5.75091">
        <ele>395</ele>
        <time>2019-04-26T09:49:48Z</time>
      </trkpt>
      <trkpt lat="45.40291" lon="5.75099">
        <ele>395</ele>
        <time>2019-04-26T09:49:49Z</time>
      </trkpt>
      <trkpt lat="45.40295" lon="5.75107">
        <ele>394.9</ele>
        <time>2019-04-26T09:49:50Z</time>
      </trkpt>
      <trkpt lat="45.40299" lon="5.75114">
        <ele>394.8</ele>
        <time>2019-04-26T09:49:51Z</time>
      </trkpt>
      <trkpt lat="45.40303" lon="5.75121">
        <ele>394.7</ele>
        <time>2019-04-26T09:49:52Z</time>
      </trkpt>
      <trkpt lat="45.40308" lon="5.75128">
        <ele>394.6</ele>
        <time>2019-04-26T09:49:53Z</time>
      </trkpt>
      <trkpt lat="45.40312" lon="5.75134">
        <ele>394.5</ele>
        <time>2019-04-26T09:49:54Z</time>
      </trkpt>
      <trkpt lat="45.40317" lon="5.7514">
        <ele>394.5</ele>
        <time>2019-04-26T09:49:55Z</time>
      </trkpt>
      <trkpt lat="45.40322" lon="5.75146">
        <ele>394.4</ele>
        <time>2019-04-26T09:49:56Z</time>
      </trkpt>
      <trkpt lat="45.40327" lon="5.75151">
        <ele>394.3</ele>
        <time>2019-04-26T09:49:57Z</time>
      </trkpt>
      <trkpt lat="45.40331" lon="5.75156">
        <ele>394.3</ele>
        <time>2019-04-26T09:49:58Z</time>
      </trkpt>
      <trkpt lat="45.40336" lon="5.75162">
        <ele>394.3</ele>
        <time>2019-04-26T09:49:59Z</time>
      </trkpt>
      <trkpt lat="45.4034" lon="5.75168">
        <ele>394.2</ele>
        <time>2019-04-26T09:50:00Z</time>
      </trkpt>
      <trkpt lat="45.40345" lon="5.75176">
        <ele>394.2</ele>
        <time>2019-04-26T09:50:01Z</time>
      </trkpt>
      <trkpt lat="45.40348" lon="5.75183">
        <ele>394.2</ele>
        <time>2019-04-26T09:50:02Z</time>
      </trkpt>
      <trkpt lat="45.40351" lon="5.75191">
        <ele>394.3</ele>
        <time>2019-04-26T09:50:03Z</time>
      </trkpt>
      <trkpt lat="45.40353" lon="5.75199">
        <ele>394.3</ele>
        <time>2019-04-26T09:50:04Z</time>
      </trkpt>
      <trkpt lat="45.40355" lon="5.75207">
        <ele>394.3</ele>
        <time>2019-04-26T09:50:05Z</time>
      </trkpt>
      <trkpt lat="45.40356" lon="5.75214">
        <ele>394.4</ele>
        <time>2019-04-26T09:50:06Z</time>
      </trkpt>
      <trkpt lat="45.40358" lon="5.75222">
        <ele>394.5</ele>
        <time>2019-04-26T09:50:07Z</time>
      </trkpt>
      <trkpt lat="45.4036" lon="5.75228">
        <ele>394.6</ele>
        <time>2019-04-26T09:50:08Z</time>
      </trkpt>
      <trkpt lat="45.40361" lon="5.75235">
        <ele>394.7</ele>
        <time>2019-04-26T09:50:09Z</time>
      </trkpt>
      <trkpt lat="45.40363" lon="5.75242">
        <ele>394.8</ele>
        <time>2019-04-26T09:50:10Z</time>
      </trkpt>
      <trkpt lat="45.40364" lon="5.75249">
        <ele>394.9</ele>
        <time>2019-04-26T09:50:11Z</time>
      </trkpt>
      <trkpt lat="45.40365" lon="5.75255">
        <ele>395</ele>
        <time>2019-04-26T09:50:12Z</time>
      </trkpt>
      <trkpt lat="45.40367" lon="5.75261">
        <ele>395.1</ele>
        <time>2019-04-26T09:50:13Z</time>
      </trkpt>
      <trkpt lat="45.40369" lon="5.75267">
        <ele>395.3</ele>
        <time>2019-04-26T09:50:14Z</time>
      </trkpt>
      <trkpt lat="45.4037" lon="5.75273">
        <ele>395.4</ele>
        <time>2019-04-26T09:50:15Z</time>
      </trkpt>
      <trkpt lat="45.40372" lon="5.75279">
        <ele>395.6</ele>
        <time>2019-04-26T09:50:16Z</time>
      </trkpt>
      <trkpt lat="45.40373" lon="5.75286">
        <ele>395.8</ele>
        <time>2019-04-26T09:50:17Z</time>
      </trkpt>
      <trkpt lat="45.40375" lon="5.75293">
        <ele>396</ele>
        <time>2019-04-26T09:50:18Z</time>
      </trkpt>
      <trkpt lat="45.40377" lon="5.75299">
        <ele>396.2</ele>
        <time>2019-04-26T09:50:19Z</time>
      </trkpt>
      <trkpt lat="45.40379" lon="5.75306">
        <ele>396.5</ele>
        <time>2019-04-26T09:50:20Z</time>
      </trkpt>
      <trkpt lat="45.40381" lon="5.75311">
        <ele>396.7</ele>
        <time>2019-04-26T09:50:21Z</time>
      </trkpt>
      <trkpt lat="45.40383" lon="5.75316">
        <ele>396.9</ele>
        <time>2019-04-26T09:50:22Z</time>
      </trkpt>
      <trkpt lat="45.40385" lon="5.75322">
        <ele>397.1</ele>
        <time>2019-04-26T09:50:23Z</time>
      </trkpt>
      <trkpt lat="45.40387" lon="5.75327">
        <ele>397.2</ele>
        <time>2019-04-26T09:50:24Z</time>
      </trkpt>
      <trkpt lat="45.40389" lon="5.75332">
        <ele>397.4</ele>
        <time>2019-04-26T09:50:25Z</time>
      </trkpt>
      <trkpt lat="45.40391" lon="5.75337">
        <ele>397.5</ele>
        <time>2019-04-26T09:50:26Z</time>
      </trkpt>
      <trkpt lat="45.40394" lon="5.75342">
        <ele>397.7</ele>
        <time>2019-04-26T09:50:27Z</time>
      </trkpt>
      <trkpt lat="45.40396" lon="5.75346">
        <ele>397.8</ele>
        <time>2019-04-26T09:50:28Z</time>
      </trkpt>
      <trkpt lat="45.404" lon="5.75352">
        <ele>398</ele>
        <time>2019-04-26T09:50:29Z</time>
      </trkpt>
      <trkpt lat="45.40402" lon="5.75356">
        <ele>398</ele>
        <time>2019-04-26T09:50:30Z</time>
      </trkpt>
      <trkpt lat="45.40404" lon="5.7536">
        <ele>398.1</ele>
        <time>2019-04-26T09:50:31Z</time>
      </trkpt>
      <trkpt lat="45.40406" lon="5.75363">
        <ele>398.1</ele>
        <time>2019-04-26T09:50:32Z</time>
      </trkpt>
      <trkpt lat="45.40408" lon="5.75369">
        <ele>398.2</ele>
        <time>2019-04-26T09:50:33Z</time>
      </trkpt>
      <trkpt lat="45.40411" lon="5.75373">
        <ele>398.2</ele>
        <time>2019-04-26T09:50:34Z</time>
      </trkpt>
      <trkpt lat="45.40413" lon="5.75378">
        <ele>398.3</ele>
        <time>2019-04-26T09:50:35Z</time>
      </trkpt>
      <trkpt lat="45.40414" lon="5.75383">
        <ele>398.3</ele>
        <time>2019-04-26T09:50:36Z</time>
      </trkpt>
      <trkpt lat="45.40417" lon="5.7539">
        <ele>398.4</ele>
        <time>2019-04-26T09:50:38Z</time>
      </trkpt>
      <trkpt lat="45.40419" lon="5.75395">
        <ele>398.5</ele>
        <time>2019-04-26T09:50:39Z</time>
      </trkpt>
      <trkpt lat="45.40421" lon="5.75399">
        <ele>398.6</ele>
        <time>2019-04-26T09:50:40Z</time>
      </trkpt>
      <trkpt lat="45.40423" lon="5.75405">
        <ele>398.8</ele>
        <time>2019-04-26T09:50:41Z</time>
      </trkpt>
      <trkpt lat="45.40425" lon="5.7541">
        <ele>398.9</ele>
        <time>2019-04-26T09:50:42Z</time>
      </trkpt>
      <trkpt lat="45.40427" lon="5.75415">
        <ele>399</ele>
        <time>2019-04-26T09:50:43Z</time>
      </trkpt>
      <trkpt lat="45.40429" lon="5.75421">
        <ele>399.1</ele>
        <time>2019-04-26T09:50:44Z</time>
      </trkpt>
      <trkpt lat="45.4043" lon="5.75426">
        <ele>399.2</ele>
        <time>2019-04-26T09:50:45Z</time>
      </trkpt>
      <trkpt lat="45.40431" lon="5.7543">
        <ele>399.3</ele>
        <time>2019-04-26T09:50:46Z</time>
      </trkpt>
      <trkpt lat="45.40433" lon="5.75435">
        <ele>399.4</ele>
        <time>2019-04-26T09:50:47Z</time>
      </trkpt>
      <trkpt lat="45.40434" lon="5.75439">
        <ele>399.5</ele>
        <time>2019-04-26T09:50:48Z</time>
      </trkpt>
      <trkpt lat="45.40436" lon="5.75443">
        <ele>399.6</ele>
        <time>2019-04-26T09:50:49Z</time>
      </trkpt>
      <trkpt lat="45.40438" lon="5.75448">
        <ele>399.8</ele>
        <time>2019-04-26T09:50:50Z</time>
      </trkpt>
      <trkpt lat="45.40439" lon="5.75453">
        <ele>399.9</ele>
        <time>2019-04-26T09:50:51Z</time>
      </trkpt>
      <trkpt lat="45.40441" lon="5.75457">
        <ele>400</ele>
        <time>2019-04-26T09:50:52Z</time>
      </trkpt>
      <trkpt lat="45.40442" lon="5.75461">
        <ele>400.2</ele>
        <time>2019-04-26T09:50:53Z</time>
      </trkpt>
      <trkpt lat="45.40443" lon="5.75465">
        <ele>400.3</ele>
        <time>2019-04-26T09:50:54Z</time>
      </trkpt>
      <trkpt lat="45.40445" lon="5.7547">
        <ele>400.4</ele>
        <time>2019-04-26T09:50:55Z</time>
      </trkpt>
      <trkpt lat="45.40446" lon="5.75474">
        <ele>400.6</ele>
        <time>2019-04-26T09:50:56Z</time>
      </trkpt>
      <trkpt lat="45.40448" lon="5.75479">
        <ele>400.7</ele>
        <time>2019-04-26T09:50:57Z</time>
      </trkpt>
      <trkpt lat="45.40452" lon="5.75486">
        <ele>400.9</ele>
        <time>2019-04-26T09:50:59Z</time>
      </trkpt>
      <trkpt lat="45.40455" lon="5.75493">
        <ele>401.2</ele>
        <time>2019-04-26T09:51:02Z</time>
      </trkpt>
      <trkpt lat="45.40457" lon="5.75501">
        <ele>401.4</ele>
        <time>2019-04-26T09:51:03Z</time>
      </trkpt>
      <trkpt lat="45.40459" lon="5.75507">
        <ele>401.5</ele>
        <time>2019-04-26T09:51:04Z</time>
      </trkpt>
      <trkpt lat="45.40461" lon="5.75512">
        <ele>401.6</ele>
        <time>2019-04-26T09:51:05Z</time>
      </trkpt>
      <trkpt lat="45.40463" lon="5.75515">
        <ele>401.6</ele>
        <time>2019-04-26T09:51:06Z</time>
      </trkpt>
      <trkpt lat="45.40465" lon="5.75522">
        <ele>401.7</ele>
        <time>2019-04-26T09:51:08Z</time>
      </trkpt>
      <trkpt lat="45.40467" lon="5.75527">
        <ele>401.8</ele>
        <time>2019-04-26T09:51:10Z</time>
      </trkpt>
      <trkpt lat="45.4047" lon="5.75535">
        <ele>401.9</ele>
        <time>2019-04-26T09:51:12Z</time>
      </trkpt>
      <trkpt lat="45.40472" lon="5.75539">
        <ele>402</ele>
        <time>2019-04-26T09:51:13Z</time>
      </trkpt>
      <trkpt lat="45.40474" lon="5.75544">
        <ele>402.1</ele>
        <time>2019-04-26T09:51:15Z</time>
      </trkpt>
      <trkpt lat="45.40477" lon="5.75551">
        <ele>402.3</ele>
        <time>2019-04-26T09:51:17Z</time>
      </trkpt>
      <trkpt lat="45.40479" lon="5.75556">
        <ele>402.4</ele>
        <time>2019-04-26T09:51:19Z</time>
      </trkpt>
      <trkpt lat="45.40482" lon="5.75563">
        <ele>402.6</ele>
        <time>2019-04-26T09:51:21Z</time>
      </trkpt>
      <trkpt lat="45.40485" lon="5.75568">
        <ele>402.8</ele>
        <time>2019-04-26T09:51:22Z</time>
      </trkpt>
      <trkpt lat="45.40487" lon="5.75573">
        <ele>403</ele>
        <time>2019-04-26T09:51:23Z</time>
      </trkpt>
      <trkpt lat="45.40489" lon="5.75578">
        <ele>403.1</ele>
        <time>2019-04-26T09:51:24Z</time>
      </trkpt>
      <trkpt lat="45.40491" lon="5.75582">
        <ele>403.3</ele>
        <time>2019-04-26T09:51:25Z</time>
      </trkpt>
      <trkpt lat="45.40493" lon="5.75586">
        <ele>403.4</ele>
        <time>2019-04-26T09:51:26Z</time>
      </trkpt>
      <trkpt lat="45.40495" lon="5.75591">
        <ele>403.6</ele>
        <time>2019-04-26T09:51:27Z</time>
      </trkpt>
      <trkpt lat="45.40497" lon="5.75596">
        <ele>403.8</ele>
        <time>2019-04-26T09:51:28Z</time>
      </trkpt>
      <trkpt lat="45.40499" lon="5.756">
        <ele>404</ele>
        <time>2019-04-26T09:51:29Z</time>
      </trkpt>
      <trkpt lat="45.40501" lon="5.75604">
        <ele>404.1</ele>
        <time>2019-04-26T09:51:30Z</time>
      </trkpt>
      <trkpt lat="45.40503" lon="5.75609">
        <ele>404.3</ele>
        <time>2019-04-26T09:51:31Z</time>
      </trkpt>
      <trkpt lat="45.40505" lon="5.75612">
        <ele>404.4</ele>
        <time>2019-04-26T09:51:32Z</time>
      </trkpt>
      <trkpt lat="45.40507" lon="5.75616">
        <ele>404.5</ele>
        <time>2019-04-26T09:51:33Z</time>
      </trkpt>
      <trkpt lat="45.4051" lon="5.7562">
        <ele>404.6</ele>
        <time>2019-04-26T09:51:34Z</time>
      </trkpt>
      <trkpt lat="45.40512" lon="5.75624">
        <ele>404.7</ele>
        <time>2019-04-26T09:51:35Z</time>
      </trkpt>
      <trkpt lat="45.40515" lon="5.75627">
        <ele>404.8</ele>
        <time>2019-04-26T09:51:36Z</time>
      </trkpt>
      <trkpt lat="45.40518" lon="5.75631">
        <ele>404.9</ele>
        <time>2019-04-26T09:51:37Z</time>
      </trkpt>
      <trkpt lat="45.4052" lon="5.75634">
        <ele>405</ele>
        <time>2019-04-26T09:51:38Z</time>
      </trkpt>
      <trkpt lat="45.40523" lon="5.75637">
        <ele>405</ele>
        <time>2019-04-26T09:51:39Z</time>
      </trkpt>
      <trkpt lat="45.40526" lon="5.75641">
        <ele>405.1</ele>
        <time>2019-04-26T09:51:40Z</time>
      </trkpt>
      <trkpt lat="45.40528" lon="5.75643">
        <ele>405.1</ele>
        <time>2019-04-26T09:51:41Z</time>
      </trkpt>
      <trkpt lat="45.40531" lon="5.75646">
        <ele>405.2</ele>
        <time>2019-04-26T09:51:42Z</time>
      </trkpt>
      <trkpt lat="45.40533" lon="5.75649">
        <ele>405.2</ele>
        <time>2019-04-26T09:51:43Z</time>
      </trkpt>
      <trkpt lat="45.40535" lon="5.75651">
        <ele>405.3</ele>
        <time>2019-04-26T09:51:44Z</time>
      </trkpt>
      <trkpt lat="45.40538" lon="5.75654">
        <ele>405.3</ele>
        <time>2019-04-26T09:51:45Z</time>
      </trkpt>
      <trkpt lat="45.4054" lon="5.75657">
        <ele>405.4</ele>
        <time>2019-04-26T09:51:46Z</time>
      </trkpt>
      <trkpt lat="45.40542" lon="5.75659">
        <ele>405.4</ele>
        <time>2019-04-26T09:51:47Z</time>
      </trkpt>
      <trkpt lat="45.40546" lon="5.75662">
        <ele>405.5</ele>
        <time>2019-04-26T09:51:48Z</time>
      </trkpt>
      <trkpt lat="45.4055" lon="5.75666">
        <ele>405.5</ele>
        <time>2019-04-26T09:51:49Z</time>
      </trkpt>
      <trkpt lat="45.40555" lon="5.7567">
        <ele>405.6</ele>
        <time>2019-04-26T09:51:50Z</time>
      </trkpt>
      <trkpt lat="45.40559" lon="5.75673">
        <ele>405.7</ele>
        <time>2019-04-26T09:51:51Z</time>
      </trkpt>
      <trkpt lat="45.40563" lon="5.75676">
        <ele>405.7</ele>
        <time>2019-04-26T09:51:52Z</time>
      </trkpt>
      <trkpt lat="45.40567" lon="5.7568">
        <ele>405.8</ele>
        <time>2019-04-26T09:51:53Z</time>
      </trkpt>
      <trkpt lat="45.40571" lon="5.75684">
        <ele>405.9</ele>
        <time>2019-04-26T09:51:54Z</time>
      </trkpt>
      <trkpt lat="45.40576" lon="5.75689">
        <ele>405.9</ele>
        <time>2019-04-26T09:51:55Z</time>
      </trkpt>
      <trkpt lat="45.40582" lon="5.75694">
        <ele>405.8</ele>
        <time>2019-04-26T09:51:56Z</time>
      </trkpt>
      <trkpt lat="45.40611" lon="5.75718">
        <ele>405.5</ele>
        <time>2019-04-26T09:51:58Z</time>
      </trkpt>
      <trkpt lat="45.40616" lon="5.75724">
        <ele>405.4</ele>
        <time>2019-04-26T09:51:59Z</time>
      </trkpt>
      <trkpt lat="45.40621" lon="5.7573">
        <ele>405.2</ele>
        <time>2019-04-26T09:52:00Z</time>
      </trkpt>
      <trkpt lat="45.40628" lon="5.75738">
        <ele>405</ele>
        <time>2019-04-26T09:52:01Z</time>
      </trkpt>
      <trkpt lat="45.40632" lon="5.75745">
        <ele>404.8</ele>
        <time>2019-04-26T09:52:02Z</time>
      </trkpt>
      <trkpt lat="45.40638" lon="5.75752">
        <ele>404.6</ele>
        <time>2019-04-26T09:52:03Z</time>
      </trkpt>
      <trkpt lat="45.40643" lon="5.7576">
        <ele>404.3</ele>
        <time>2019-04-26T09:52:04Z</time>
      </trkpt>
      <trkpt lat="45.40648" lon="5.75768">
        <ele>404.1</ele>
        <time>2019-04-26T09:52:05Z</time>
      </trkpt>
      <trkpt lat="45.40653" lon="5.75777">
        <ele>403.8</ele>
        <time>2019-04-26T09:52:06Z</time>
      </trkpt>
      <trkpt lat="45.40658" lon="5.75785">
        <ele>403.4</ele>
        <time>2019-04-26T09:52:07Z</time>
      </trkpt>
      <trkpt lat="45.40663" lon="5.75793">
        <ele>403.2</ele>
        <time>2019-04-26T09:52:08Z</time>
      </trkpt>
      <trkpt lat="45.40668" lon="5.75801">
        <ele>402.9</ele>
        <time>2019-04-26T09:52:09Z</time>
      </trkpt>
      <trkpt lat="45.40673" lon="5.75808">
        <ele>402.8</ele>
        <time>2019-04-26T09:52:10Z</time>
      </trkpt>
      <trkpt lat="45.40678" lon="5.75816">
        <ele>402.5</ele>
        <time>2019-04-26T09:52:11Z</time>
      </trkpt>
      <trkpt lat="45.40682" lon="5.75823">
        <ele>402.2</ele>
        <time>2019-04-26T09:52:12Z</time>
      </trkpt>
      <trkpt lat="45.40687" lon="5.75832">
        <ele>401.9</ele>
        <time>2019-04-26T09:52:13Z</time>
      </trkpt>
      <trkpt lat="45.40691" lon="5.75839">
        <ele>401.7</ele>
        <time>2019-04-26T09:52:14Z</time>
      </trkpt>
      <trkpt lat="45.40695" lon="5.75846">
        <ele>401.5</ele>
        <time>2019-04-26T09:52:15Z</time>
      </trkpt>
      <trkpt lat="45.407" lon="5.75854">
        <ele>401.2</ele>
        <time>2019-04-26T09:52:16Z</time>
      </trkpt>
      <trkpt lat="45.40703" lon="5.75862">
        <ele>400.8</ele>
        <time>2019-04-26T09:52:17Z</time>
      </trkpt>
      <trkpt lat="45.40708" lon="5.75868">
        <ele>400.5</ele>
        <time>2019-04-26T09:52:18Z</time>
      </trkpt>
      <trkpt lat="45.40712" lon="5.75876">
        <ele>400.1</ele>
        <time>2019-04-26T09:52:19Z</time>
      </trkpt>
      <trkpt lat="45.40715" lon="5.75883">
        <ele>399.7</ele>
        <time>2019-04-26T09:52:20Z</time>
      </trkpt>
      <trkpt lat="45.40719" lon="5.75892">
        <ele>400.1</ele>
        <time>2019-04-26T09:52:21Z</time>
      </trkpt>
      <trkpt lat="45.40722" lon="5.75899">
        <ele>400.5</ele>
        <time>2019-04-26T09:52:22Z</time>
      </trkpt>
      <trkpt lat="45.40724" lon="5.75906">
        <ele>400.9</ele>
        <time>2019-04-26T09:52:23Z</time>
      </trkpt>
      <trkpt lat="45.40726" lon="5.75914">
        <ele>401.3</ele>
        <time>2019-04-26T09:52:24Z</time>
      </trkpt>
      <trkpt lat="45.40729" lon="5.7592">
        <ele>401.7</ele>
        <time>2019-04-26T09:52:25Z</time>
      </trkpt>
      <trkpt lat="45.40731" lon="5.75927">
        <ele>402</ele>
        <time>2019-04-26T09:52:26Z</time>
      </trkpt>
      <trkpt lat="45.40732" lon="5.75932">
        <ele>402.3</ele>
        <time>2019-04-26T09:52:27Z</time>
      </trkpt>
      <trkpt lat="45.40733" lon="5.75937">
        <ele>402.5</ele>
        <time>2019-04-26T09:52:28Z</time>
      </trkpt>
      <trkpt lat="45.40734" lon="5.75942">
        <ele>402.8</ele>
        <time>2019-04-26T09:52:29Z</time>
      </trkpt>
      <trkpt lat="45.40734" lon="5.75948">
        <ele>403</ele>
        <time>2019-04-26T09:52:30Z</time>
      </trkpt>
      <trkpt lat="45.40734" lon="5.75955">
        <ele>403.4</ele>
        <time>2019-04-26T09:52:32Z</time>
      </trkpt>
      <trkpt lat="45.40736" lon="5.75959">
        <ele>403.6</ele>
        <time>2019-04-26T09:52:33Z</time>
      </trkpt>
      <trkpt lat="45.40737" lon="5.75967">
        <ele>404</ele>
        <time>2019-04-26T09:52:35Z</time>
      </trkpt>
      <trkpt lat="45.40737" lon="5.75971">
        <ele>404.3</ele>
        <time>2019-04-26T09:52:36Z</time>
      </trkpt>
      <trkpt lat="45.40738" lon="5.75975">
        <ele>404.6</ele>
        <time>2019-04-26T09:52:37Z</time>
      </trkpt>
      <trkpt lat="45.4074" lon="5.75981">
        <ele>405.1</ele>
        <time>2019-04-26T09:52:39Z</time>
      </trkpt>
      <trkpt lat="45.40742" lon="5.75989">
        <ele>405.5</ele>
        <time>2019-04-26T09:52:41Z</time>
      </trkpt>
      <trkpt lat="45.40743" lon="5.75992">
        <ele>405.7</ele>
        <time>2019-04-26T09:52:42Z</time>
      </trkpt>
      <trkpt lat="45.40744" lon="5.76">
        <ele>406.1</ele>
        <time>2019-04-26T09:52:44Z</time>
      </trkpt>
      <trkpt lat="45.40745" lon="5.76007">
        <ele>406.5</ele>
        <time>2019-04-26T09:52:46Z</time>
      </trkpt>
      <trkpt lat="45.40746" lon="5.76014">
        <ele>406.8</ele>
        <time>2019-04-26T09:52:48Z</time>
      </trkpt>
      <trkpt lat="45.40748" lon="5.76021">
        <ele>407.2</ele>
        <time>2019-04-26T09:52:50Z</time>
      </trkpt>
      <trkpt lat="45.40751" lon="5.76027">
        <ele>407.6</ele>
        <time>2019-04-26T09:52:52Z</time>
      </trkpt>
      <trkpt lat="45.40753" lon="5.7603">
        <ele>407.8</ele>
        <time>2019-04-26T09:52:53Z</time>
      </trkpt>
      <trkpt lat="45.40755" lon="5.76036">
        <ele>408.1</ele>
        <time>2019-04-26T09:52:55Z</time>
      </trkpt>
      <trkpt lat="45.40756" lon="5.76041">
        <ele>408.4</ele>
        <time>2019-04-26T09:52:57Z</time>
      </trkpt>
      <trkpt lat="45.40758" lon="5.76046">
        <ele>408.6</ele>
        <time>2019-04-26T09:52:59Z</time>
      </trkpt>
      <trkpt lat="45.4076" lon="5.76049">
        <ele>408.9</ele>
        <time>2019-04-26T09:53:02Z</time>
      </trkpt>
      <trkpt lat="45.40762" lon="5.76054">
        <ele>409.1</ele>
        <time>2019-04-26T09:53:05Z</time>
      </trkpt>
      <trkpt lat="45.40765" lon="5.76059">
        <ele>409.5</ele>
        <time>2019-04-26T09:53:08Z</time>
      </trkpt>
      <trkpt lat="45.40767" lon="5.76063">
        <ele>409.7</ele>
        <time>2019-04-26T09:53:09Z</time>
      </trkpt>
      <trkpt lat="45.40769" lon="5.76068">
        <ele>410</ele>
        <time>2019-04-26T09:53:10Z</time>
      </trkpt>
      <trkpt lat="45.4077" lon="5.76072">
        <ele>410.3</ele>
        <time>2019-04-26T09:53:11Z</time>
      </trkpt>
      <trkpt lat="45.40772" lon="5.76077">
        <ele>410.6</ele>
        <time>2019-04-26T09:53:12Z</time>
      </trkpt>
      <trkpt lat="45.40774" lon="5.76081">
        <ele>410.8</ele>
        <time>2019-04-26T09:53:13Z</time>
      </trkpt>
      <trkpt lat="45.40777" lon="5.76086">
        <ele>411.1</ele>
        <time>2019-04-26T09:53:15Z</time>
      </trkpt>
      <trkpt lat="45.40781" lon="5.76091">
        <ele>411.5</ele>
        <time>2019-04-26T09:53:17Z</time>
      </trkpt>
      <trkpt lat="45.40784" lon="5.76095">
        <ele>411.8</ele>
        <time>2019-04-26T09:53:19Z</time>
      </trkpt>
      <trkpt lat="45.40788" lon="5.76099">
        <ele>412.2</ele>
        <time>2019-04-26T09:53:21Z</time>
      </trkpt>
      <trkpt lat="45.40791" lon="5.76104">
        <ele>412.5</ele>
        <time>2019-04-26T09:53:23Z</time>
      </trkpt>
      <trkpt lat="45.40794" lon="5.76108">
        <ele>412.9</ele>
        <time>2019-04-26T09:53:25Z</time>
      </trkpt>
      <trkpt lat="45.40798" lon="5.76111">
        <ele>413.2</ele>
        <time>2019-04-26T09:53:27Z</time>
      </trkpt>
      <trkpt lat="45.40801" lon="5.76114">
        <ele>413.5</ele>
        <time>2019-04-26T09:53:29Z</time>
      </trkpt>
      <trkpt lat="45.40805" lon="5.76116">
        <ele>413.8</ele>
        <time>2019-04-26T09:53:32Z</time>
      </trkpt>
      <trkpt lat="45.40807" lon="5.76119">
        <ele>414</ele>
        <time>2019-04-26T09:53:34Z</time>
      </trkpt>
      <trkpt lat="45.40811" lon="5.76122">
        <ele>414.4</ele>
        <time>2019-04-26T09:53:36Z</time>
      </trkpt>
      <trkpt lat="45.40813" lon="5.76125">
        <ele>414.6</ele>
        <time>2019-04-26T09:53:37Z</time>
      </trkpt>
      <trkpt lat="45.40816" lon="5.76128">
        <ele>414.9</ele>
        <time>2019-04-26T09:53:40Z</time>
      </trkpt>
      <trkpt lat="45.40819" lon="5.76131">
        <ele>415.1</ele>
        <time>2019-04-26T09:53:41Z</time>
      </trkpt>
      <trkpt lat="45.40821" lon="5.76133">
        <ele>415.3</ele>
        <time>2019-04-26T09:53:42Z</time>
      </trkpt>
      <trkpt lat="45.40824" lon="5.76136">
        <ele>415.6</ele>
        <time>2019-04-26T09:53:44Z</time>
      </trkpt>
      <trkpt lat="45.40827" lon="5.76139">
        <ele>415.9</ele>
        <time>2019-04-26T09:53:46Z</time>
      </trkpt>
      <trkpt lat="45.4083" lon="5.76142">
        <ele>416.2</ele>
        <time>2019-04-26T09:53:48Z</time>
      </trkpt>
      <trkpt lat="45.40834" lon="5.76147">
        <ele>416.6</ele>
        <time>2019-04-26T09:53:50Z</time>
      </trkpt>
      <trkpt lat="45.40836" lon="5.76149">
        <ele>416.8</ele>
        <time>2019-04-26T09:53:51Z</time>
      </trkpt>
      <trkpt lat="45.40839" lon="5.76154">
        <ele>417.2</ele>
        <time>2019-04-26T09:53:53Z</time>
      </trkpt>
      <trkpt lat="45.40842" lon="5.76158">
        <ele>417.5</ele>
        <time>2019-04-26T09:53:55Z</time>
      </trkpt>
      <trkpt lat="45.40846" lon="5.7616">
        <ele>417.8</ele>
        <time>2019-04-26T09:53:57Z</time>
      </trkpt>
      <trkpt lat="45.40845" lon="5.76156">
        <ele>418</ele>
        <time>2019-04-26T09:54:05Z</time>
      </trkpt>
      <trkpt lat="45.40849" lon="5.76157">
        <ele>418.3</ele>
        <time>2019-04-26T09:55:16Z</time>
      </trkpt>
      <trkpt lat="45.40852" lon="5.7616">
        <ele>418.6</ele>
        <time>2019-04-26T09:55:19Z</time>
      </trkpt>
      <trkpt lat="45.40854" lon="5.76164">
        <ele>418.9</ele>
        <time>2019-04-26T09:55:22Z</time>
      </trkpt>
      <trkpt lat="45.40856" lon="5.76166">
        <ele>419.1</ele>
        <time>2019-04-26T09:55:24Z</time>
      </trkpt>
      <trkpt lat="45.40859" lon="5.76169">
        <ele>419.4</ele>
        <time>2019-04-26T09:55:26Z</time>
      </trkpt>
      <trkpt lat="45.40861" lon="5.76172">
        <ele>419.7</ele>
        <time>2019-04-26T09:55:28Z</time>
      </trkpt>
      <trkpt lat="45.40865" lon="5.76175">
        <ele>420</ele>
        <time>2019-04-26T09:55:31Z</time>
      </trkpt>
      <trkpt lat="45.40868" lon="5.76178">
        <ele>420.3</ele>
        <time>2019-04-26T09:55:33Z</time>
      </trkpt>
      <trkpt lat="45.40871" lon="5.76181">
        <ele>420.6</ele>
        <time>2019-04-26T09:55:35Z</time>
      </trkpt>
      <trkpt lat="45.40875" lon="5.76185">
        <ele>421</ele>
        <time>2019-04-26T09:55:37Z</time>
      </trkpt>
      <trkpt lat="45.40878" lon="5.76188">
        <ele>421.4</ele>
        <time>2019-04-26T09:55:39Z</time>
      </trkpt>
      <trkpt lat="45.40881" lon="5.76191">
        <ele>421.6</ele>
        <time>2019-04-26T09:55:40Z</time>
      </trkpt>
      <trkpt lat="45.40885" lon="5.76195">
        <ele>422.1</ele>
        <time>2019-04-26T09:55:42Z</time>
      </trkpt>
      <trkpt lat="45.40889" lon="5.76199">
        <ele>422.5</ele>
        <time>2019-04-26T09:55:44Z</time>
      </trkpt>
      <trkpt lat="45.40894" lon="5.76203">
        <ele>422.9</ele>
        <time>2019-04-26T09:55:46Z</time>
      </trkpt>
      <trkpt lat="45.40898" lon="5.76207">
        <ele>423.3</ele>
        <time>2019-04-26T09:55:48Z</time>
      </trkpt>
      <trkpt lat="45.40902" lon="5.76211">
        <ele>423.7</ele>
        <time>2019-04-26T09:55:50Z</time>
      </trkpt>
      <trkpt lat="45.40906" lon="5.76215">
        <ele>424.1</ele>
        <time>2019-04-26T09:55:52Z</time>
      </trkpt>
      <trkpt lat="45.4091" lon="5.76219">
        <ele>424.5</ele>
        <time>2019-04-26T09:55:54Z</time>
      </trkpt>
      <trkpt lat="45.40914" lon="5.76223">
        <ele>424.8</ele>
        <time>2019-04-26T09:55:56Z</time>
      </trkpt>
      <trkpt lat="45.40918" lon="5.76227">
        <ele>425.2</ele>
        <time>2019-04-26T09:55:58Z</time>
      </trkpt>
      <trkpt lat="45.40922" lon="5.76231">
        <ele>425.6</ele>
        <time>2019-04-26T09:56:00Z</time>
      </trkpt>
      <trkpt lat="45.40924" lon="5.76234">
        <ele>425.8</ele>
        <time>2019-04-26T09:56:01Z</time>
      </trkpt>
      <trkpt lat="45.40927" lon="5.76236">
        <ele>426.1</ele>
        <time>2019-04-26T09:56:02Z</time>
      </trkpt>
      <trkpt lat="45.40929" lon="5.76239">
        <ele>426.3</ele>
        <time>2019-04-26T09:56:04Z</time>
      </trkpt>
      <trkpt lat="45.40934" lon="5.76243">
        <ele>426.9</ele>
        <time>2019-04-26T09:56:06Z</time>
      </trkpt>
      <trkpt lat="45.40936" lon="5.76246">
        <ele>427.3</ele>
        <time>2019-04-26T09:56:07Z</time>
      </trkpt>
      <trkpt lat="45.4094" lon="5.76249">
        <ele>427.7</ele>
        <time>2019-04-26T09:56:09Z</time>
      </trkpt>
      <trkpt lat="45.40944" lon="5.76253">
        <ele>428.2</ele>
        <time>2019-04-26T09:56:11Z</time>
      </trkpt>
      <trkpt lat="45.40947" lon="5.76257">
        <ele>428.6</ele>
        <time>2019-04-26T09:56:13Z</time>
      </trkpt>
      <trkpt lat="45.40949" lon="5.7626">
        <ele>428.9</ele>
        <time>2019-04-26T09:56:15Z</time>
      </trkpt>
      <trkpt lat="45.40951" lon="5.76262">
        <ele>429.2</ele>
        <time>2019-04-26T09:56:17Z</time>
      </trkpt>
      <trkpt lat="45.40954" lon="5.76265">
        <ele>429.6</ele>
        <time>2019-04-26T09:56:19Z</time>
      </trkpt>
      <trkpt lat="45.40957" lon="5.7627">
        <ele>430.1</ele>
        <time>2019-04-26T09:56:21Z</time>
      </trkpt>
      <trkpt lat="45.40959" lon="5.76273">
        <ele>430.4</ele>
        <time>2019-04-26T09:56:22Z</time>
      </trkpt>
      <trkpt lat="45.40962" lon="5.76277">
        <ele>430.6</ele>
        <time>2019-04-26T09:56:23Z</time>
      </trkpt>
      <trkpt lat="45.40966" lon="5.76281">
        <ele>430.9</ele>
        <time>2019-04-26T09:56:25Z</time>
      </trkpt>
      <trkpt lat="45.40969" lon="5.76283">
        <ele>431</ele>
        <time>2019-04-26T09:56:26Z</time>
      </trkpt>
      <trkpt lat="45.40972" lon="5.76289">
        <ele>431.3</ele>
        <time>2019-04-26T09:56:28Z</time>
      </trkpt>
      <trkpt lat="45.40975" lon="5.76294">
        <ele>431.6</ele>
        <time>2019-04-26T09:56:30Z</time>
      </trkpt>
      <trkpt lat="45.40978" lon="5.76299">
        <ele>431.9</ele>
        <time>2019-04-26T09:56:32Z</time>
      </trkpt>
      <trkpt lat="45.4098" lon="5.76304">
        <ele>432.2</ele>
        <time>2019-04-26T09:56:34Z</time>
      </trkpt>
      <trkpt lat="45.40984" lon="5.76308">
        <ele>432.5</ele>
        <time>2019-04-26T09:56:36Z</time>
      </trkpt>
      <trkpt lat="45.40987" lon="5.76313">
        <ele>432.9</ele>
        <time>2019-04-26T09:56:38Z</time>
      </trkpt>
      <trkpt lat="45.4099" lon="5.76317">
        <ele>433.2</ele>
        <time>2019-04-26T09:56:40Z</time>
      </trkpt>
      <trkpt lat="45.40994" lon="5.76323">
        <ele>433.6</ele>
        <time>2019-04-26T09:56:42Z</time>
      </trkpt>
      <trkpt lat="45.40996" lon="5.76326">
        <ele>433.9</ele>
        <time>2019-04-26T09:56:43Z</time>
      </trkpt>
      <trkpt lat="45.40998" lon="5.7633">
        <ele>434.1</ele>
        <time>2019-04-26T09:56:44Z</time>
      </trkpt>
      <trkpt lat="45.41" lon="5.76332">
        <ele>434.3</ele>
        <time>2019-04-26T09:56:45Z</time>
      </trkpt>
      <trkpt lat="45.41002" lon="5.76336">
        <ele>434.6</ele>
        <time>2019-04-26T09:56:46Z</time>
      </trkpt>
      <trkpt lat="45.41006" lon="5.76341">
        <ele>435</ele>
        <time>2019-04-26T09:56:48Z</time>
      </trkpt>
      <trkpt lat="45.41009" lon="5.76345">
        <ele>435.3</ele>
        <time>2019-04-26T09:56:50Z</time>
      </trkpt>
      <trkpt lat="45.41012" lon="5.76348">
        <ele>435.6</ele>
        <time>2019-04-26T09:56:52Z</time>
      </trkpt>
      <trkpt lat="45.41015" lon="5.76352">
        <ele>436</ele>
        <time>2019-04-26T09:56:54Z</time>
      </trkpt>
      <trkpt lat="45.41017" lon="5.76357">
        <ele>436.3</ele>
        <time>2019-04-26T09:56:56Z</time>
      </trkpt>
      <trkpt lat="45.41019" lon="5.76361">
        <ele>436.7</ele>
        <time>2019-04-26T09:56:57Z</time>
      </trkpt>
      <trkpt lat="45.41023" lon="5.76367">
        <ele>437.1</ele>
        <time>2019-04-26T09:56:58Z</time>
      </trkpt>
      <trkpt lat="45.41025" lon="5.76373">
        <ele>437.5</ele>
        <time>2019-04-26T09:56:59Z</time>
      </trkpt>
      <trkpt lat="45.41028" lon="5.76376">
        <ele>437.9</ele>
        <time>2019-04-26T09:57:00Z</time>
      </trkpt>
      <trkpt lat="45.4102" lon="5.76363">
        <ele>439</ele>
        <time>2019-04-26T09:57:04Z</time>
      </trkpt>
      <trkpt lat="45.4102" lon="5.76359">
        <ele>439.2</ele>
        <time>2019-04-26T09:57:13Z</time>
      </trkpt>
      <trkpt lat="45.41023" lon="5.76362">
        <ele>439.6</ele>
        <time>2019-04-26T09:57:37Z</time>
      </trkpt>
      <trkpt lat="45.41025" lon="5.76365">
        <ele>439.8</ele>
        <time>2019-04-26T09:57:39Z</time>
      </trkpt>
      <trkpt lat="45.41027" lon="5.76367">
        <ele>440.1</ele>
        <time>2019-04-26T09:57:41Z</time>
      </trkpt>
      <trkpt lat="45.4103" lon="5.7637">
        <ele>440.4</ele>
        <time>2019-04-26T09:57:43Z</time>
      </trkpt>
      <trkpt lat="45.41033" lon="5.76374">
        <ele>440.7</ele>
        <time>2019-04-26T09:57:45Z</time>
      </trkpt>
      <trkpt lat="45.41035" lon="5.76377">
        <ele>441</ele>
        <time>2019-04-26T09:57:47Z</time>
      </trkpt>
      <trkpt lat="45.41038" lon="5.76381">
        <ele>441.4</ele>
        <time>2019-04-26T09:57:49Z</time>
      </trkpt>
      <trkpt lat="45.41041" lon="5.76385">
        <ele>441.7</ele>
        <time>2019-04-26T09:57:51Z</time>
      </trkpt>
      <trkpt lat="45.41044" lon="5.76389">
        <ele>442.1</ele>
        <time>2019-04-26T09:57:53Z</time>
      </trkpt>
      <trkpt lat="45.41046" lon="5.76392">
        <ele>442.5</ele>
        <time>2019-04-26T09:57:55Z</time>
      </trkpt>
      <trkpt lat="45.4105" lon="5.76397">
        <ele>442.9</ele>
        <time>2019-04-26T09:57:57Z</time>
      </trkpt>
      <trkpt lat="45.41052" lon="5.764">
        <ele>443.2</ele>
        <time>2019-04-26T09:57:58Z</time>
      </trkpt>
      <trkpt lat="45.41054" lon="5.76403">
        <ele>443.4</ele>
        <time>2019-04-26T09:57:59Z</time>
      </trkpt>
      <trkpt lat="45.41055" lon="5.76406">
        <ele>443.7</ele>
        <time>2019-04-26T09:58:00Z</time>
      </trkpt>
      <trkpt lat="45.41057" lon="5.76409">
        <ele>443.9</ele>
        <time>2019-04-26T09:58:01Z</time>
      </trkpt>
      <trkpt lat="45.41061" lon="5.76414">
        <ele>444.4</ele>
        <time>2019-04-26T09:58:03Z</time>
      </trkpt>
      <trkpt lat="45.41064" lon="5.76418">
        <ele>444.8</ele>
        <time>2019-04-26T09:58:05Z</time>
      </trkpt>
      <trkpt lat="45.41067" lon="5.76424">
        <ele>445.3</ele>
        <time>2019-04-26T09:58:07Z</time>
      </trkpt>
      <trkpt lat="45.4107" lon="5.76428">
        <ele>445.6</ele>
        <time>2019-04-26T09:58:08Z</time>
      </trkpt>
      <trkpt lat="45.41073" lon="5.76433">
        <ele>446.1</ele>
        <time>2019-04-26T09:58:09Z</time>
      </trkpt>
      <trkpt lat="45.41077" lon="5.76437">
        <ele>446.5</ele>
        <time>2019-04-26T09:58:10Z</time>
      </trkpt>
      <trkpt lat="45.4108" lon="5.76441">
        <ele>446.9</ele>
        <time>2019-04-26T09:58:11Z</time>
      </trkpt>
      <trkpt lat="45.41083" lon="5.76445">
        <ele>447.3</ele>
        <time>2019-04-26T09:58:12Z</time>
      </trkpt>
      <trkpt lat="45.41086" lon="5.76447">
        <ele>447.5</ele>
        <time>2019-04-26T09:58:16Z</time>
      </trkpt>
      <trkpt lat="45.41088" lon="5.76452">
        <ele>447.9</ele>
        <time>2019-04-26T09:58:19Z</time>
      </trkpt>
      <trkpt lat="45.41091" lon="5.76455">
        <ele>448.2</ele>
        <time>2019-04-26T09:58:21Z</time>
      </trkpt>
      <trkpt lat="45.41093" lon="5.76458">
        <ele>448.4</ele>
        <time>2019-04-26T09:58:23Z</time>
      </trkpt>
      <trkpt lat="45.41095" lon="5.76462">
        <ele>448.8</ele>
        <time>2019-04-26T09:58:25Z</time>
      </trkpt>
      <trkpt lat="45.41098" lon="5.76467">
        <ele>449.7</ele>
        <time>2019-04-26T09:58:27Z</time>
      </trkpt>
      <trkpt lat="45.41102" lon="5.76473">
        <ele>450.1</ele>
        <time>2019-04-26T09:58:29Z</time>
      </trkpt>
      <trkpt lat="45.41105" lon="5.76478">
        <ele>450.6</ele>
        <time>2019-04-26T09:58:31Z</time>
      </trkpt>
      <trkpt lat="45.41106" lon="5.76482">
        <ele>450.8</ele>
        <time>2019-04-26T09:58:33Z</time>
      </trkpt>
      <trkpt lat="45.4111" lon="5.76486">
        <ele>451.3</ele>
        <time>2019-04-26T09:58:35Z</time>
      </trkpt>
      <trkpt lat="45.41112" lon="5.76488">
        <ele>451.5</ele>
        <time>2019-04-26T09:58:36Z</time>
      </trkpt>
      <trkpt lat="45.41115" lon="5.76491">
        <ele>451.8</ele>
        <time>2019-04-26T09:58:37Z</time>
      </trkpt>
      <trkpt lat="45.41119" lon="5.76495">
        <ele>452.1</ele>
        <time>2019-04-26T09:58:39Z</time>
      </trkpt>
      <trkpt lat="45.41121" lon="5.765">
        <ele>452.3</ele>
        <time>2019-04-26T09:58:41Z</time>
      </trkpt>
      <trkpt lat="45.41124" lon="5.76504">
        <ele>452.6</ele>
        <time>2019-04-26T09:58:43Z</time>
      </trkpt>
      <trkpt lat="45.41126" lon="5.76509">
        <ele>452.8</ele>
        <time>2019-04-26T09:58:45Z</time>
      </trkpt>
      <trkpt lat="45.41129" lon="5.76513">
        <ele>453.1</ele>
        <time>2019-04-26T09:58:47Z</time>
      </trkpt>
      <trkpt lat="45.41133" lon="5.76517">
        <ele>453.3</ele>
        <time>2019-04-26T09:58:49Z</time>
      </trkpt>
      <trkpt lat="45.41136" lon="5.76522">
        <ele>453.6</ele>
        <time>2019-04-26T09:58:51Z</time>
      </trkpt>
      <trkpt lat="45.41138" lon="5.76525">
        <ele>453.9</ele>
        <time>2019-04-26T09:58:53Z</time>
      </trkpt>
      <trkpt lat="45.41141" lon="5.76529">
        <ele>454.2</ele>
        <time>2019-04-26T09:58:55Z</time>
      </trkpt>
      <trkpt lat="45.41144" lon="5.76534">
        <ele>454.6</ele>
        <time>2019-04-26T09:58:57Z</time>
      </trkpt>
      <trkpt lat="45.41147" lon="5.76539">
        <ele>455.1</ele>
        <time>2019-04-26T09:58:59Z</time>
      </trkpt>
      <trkpt lat="45.41149" lon="5.76542">
        <ele>455.4</ele>
        <time>2019-04-26T09:59:00Z</time>
      </trkpt>
      <trkpt lat="45.41153" lon="5.76547">
        <ele>455.9</ele>
        <time>2019-04-26T09:59:02Z</time>
      </trkpt>
      <trkpt lat="45.41155" lon="5.76549">
        <ele>456.2</ele>
        <time>2019-04-26T09:59:03Z</time>
      </trkpt>
      <trkpt lat="45.41157" lon="5.76552">
        <ele>456.5</ele>
        <time>2019-04-26T09:59:04Z</time>
      </trkpt>
      <trkpt lat="45.41161" lon="5.76557">
        <ele>457.1</ele>
        <time>2019-04-26T09:59:06Z</time>
      </trkpt>
      <trkpt lat="45.41165" lon="5.76563">
        <ele>457.8</ele>
        <time>2019-04-26T09:59:08Z</time>
      </trkpt>
      <trkpt lat="45.41167" lon="5.76566">
        <ele>458.1</ele>
        <time>2019-04-26T09:59:09Z</time>
      </trkpt>
      <trkpt lat="45.4117" lon="5.76571">
        <ele>458.8</ele>
        <time>2019-04-26T09:59:11Z</time>
      </trkpt>
      <trkpt lat="45.41174" lon="5.76576">
        <ele>459</ele>
        <time>2019-04-26T09:59:13Z</time>
      </trkpt>
      <trkpt lat="45.41177" lon="5.7658">
        <ele>459.2</ele>
        <time>2019-04-26T09:59:15Z</time>
      </trkpt>
      <trkpt lat="45.41181" lon="5.76586">
        <ele>459.4</ele>
        <time>2019-04-26T09:59:17Z</time>
      </trkpt>
      <trkpt lat="45.41184" lon="5.76591">
        <ele>459.6</ele>
        <time>2019-04-26T09:59:19Z</time>
      </trkpt>
      <trkpt lat="45.41188" lon="5.76596">
        <ele>459.8</ele>
        <time>2019-04-26T09:59:21Z</time>
      </trkpt>
      <trkpt lat="45.41192" lon="5.766">
        <ele>460</ele>
        <time>2019-04-26T09:59:23Z</time>
      </trkpt>
      <trkpt lat="45.41195" lon="5.76605">
        <ele>460.2</ele>
        <time>2019-04-26T09:59:25Z</time>
      </trkpt>
      <trkpt lat="45.41198" lon="5.7661">
        <ele>460.3</ele>
        <time>2019-04-26T09:59:27Z</time>
      </trkpt>
      <trkpt lat="45.41202" lon="5.76614">
        <ele>460.5</ele>
        <time>2019-04-26T09:59:29Z</time>
      </trkpt>
      <trkpt lat="45.41205" lon="5.76619">
        <ele>460.7</ele>
        <time>2019-04-26T09:59:31Z</time>
      </trkpt>
      <trkpt lat="45.41209" lon="5.76624">
        <ele>460.8</ele>
        <time>2019-04-26T09:59:33Z</time>
      </trkpt>
      <trkpt lat="45.41211" lon="5.76628">
        <ele>461</ele>
        <time>2019-04-26T09:59:35Z</time>
      </trkpt>
      <trkpt lat="45.41215" lon="5.76633">
        <ele>461.1</ele>
        <time>2019-04-26T09:59:37Z</time>
      </trkpt>
      <trkpt lat="45.41218" lon="5.76637">
        <ele>461.3</ele>
        <time>2019-04-26T09:59:39Z</time>
      </trkpt>
      <trkpt lat="45.41222" lon="5.76642">
        <ele>461.5</ele>
        <time>2019-04-26T09:59:41Z</time>
      </trkpt>
      <trkpt lat="45.41225" lon="5.76647">
        <ele>461.7</ele>
        <time>2019-04-26T09:59:43Z</time>
      </trkpt>
      <trkpt lat="45.41229" lon="5.76652">
        <ele>461.8</ele>
        <time>2019-04-26T09:59:45Z</time>
      </trkpt>
      <trkpt lat="45.41232" lon="5.76656">
        <ele>462</ele>
        <time>2019-04-26T09:59:47Z</time>
      </trkpt>
      <trkpt lat="45.41235" lon="5.7666">
        <ele>462.2</ele>
        <time>2019-04-26T09:59:49Z</time>
      </trkpt>
      <trkpt lat="45.41238" lon="5.76664">
        <ele>462.3</ele>
        <time>2019-04-26T09:59:51Z</time>
      </trkpt>
      <trkpt lat="45.41241" lon="5.76668">
        <ele>462.5</ele>
        <time>2019-04-26T09:59:53Z</time>
      </trkpt>
      <trkpt lat="45.41244" lon="5.76672">
        <ele>462.6</ele>
        <time>2019-04-26T09:59:55Z</time>
      </trkpt>
      <trkpt lat="45.41247" lon="5.76676">
        <ele>462.8</ele>
        <time>2019-04-26T09:59:57Z</time>
      </trkpt>
      <trkpt lat="45.4125" lon="5.7668">
        <ele>463</ele>
        <time>2019-04-26T09:59:59Z</time>
      </trkpt>
      <trkpt lat="45.41253" lon="5.76683">
        <ele>463.2</ele>
        <time>2019-04-26T10:00:01Z</time>
      </trkpt>
      <trkpt lat="45.41256" lon="5.76687">
        <ele>463.4</ele>
        <time>2019-04-26T10:00:03Z</time>
      </trkpt>
      <trkpt lat="45.41258" lon="5.76691">
        <ele>463.5</ele>
        <time>2019-04-26T10:00:04Z</time>
      </trkpt>
      <trkpt lat="45.4126" lon="5.76694">
        <ele>463.7</ele>
        <time>2019-04-26T10:00:05Z</time>
      </trkpt>
      <trkpt lat="45.41262" lon="5.76697">
        <ele>463.8</ele>
        <time>2019-04-26T10:00:06Z</time>
      </trkpt>
      <trkpt lat="45.41266" lon="5.76702">
        <ele>464.1</ele>
        <time>2019-04-26T10:00:08Z</time>
      </trkpt>
      <trkpt lat="45.41269" lon="5.76707">
        <ele>464.4</ele>
        <time>2019-04-26T10:00:10Z</time>
      </trkpt>
      <trkpt lat="45.41272" lon="5.76709">
        <ele>464.6</ele>
        <time>2019-04-26T10:00:11Z</time>
      </trkpt>
      <trkpt lat="45.41274" lon="5.76713">
        <ele>464.8</ele>
        <time>2019-04-26T10:00:12Z</time>
      </trkpt>
      <trkpt lat="45.41277" lon="5.76717">
        <ele>465</ele>
        <time>2019-04-26T10:00:14Z</time>
      </trkpt>
      <trkpt lat="45.41279" lon="5.76721">
        <ele>465.2</ele>
        <time>2019-04-26T10:00:15Z</time>
      </trkpt>
      <trkpt lat="45.41281" lon="5.76724">
        <ele>465.4</ele>
        <time>2019-04-26T10:00:16Z</time>
      </trkpt>
      <trkpt lat="45.41283" lon="5.76727">
        <ele>465.6</ele>
        <time>2019-04-26T10:00:17Z</time>
      </trkpt>
      <trkpt lat="45.41288" lon="5.76733">
        <ele>466.5</ele>
        <time>2019-04-26T10:00:19Z</time>
      </trkpt>
      <trkpt lat="45.4129" lon="5.76736">
        <ele>466.6</ele>
        <time>2019-04-26T10:00:20Z</time>
      </trkpt>
      <trkpt lat="45.41292" lon="5.76739">
        <ele>466.8</ele>
        <time>2019-04-26T10:00:21Z</time>
      </trkpt>
      <trkpt lat="45.41296" lon="5.76744">
        <ele>467.1</ele>
        <time>2019-04-26T10:00:23Z</time>
      </trkpt>
      <trkpt lat="45.41298" lon="5.76747">
        <ele>467.1</ele>
        <time>2019-04-26T10:00:24Z</time>
      </trkpt>
      <trkpt lat="45.41301" lon="5.76752">
        <ele>467.3</ele>
        <time>2019-04-26T10:00:26Z</time>
      </trkpt>
      <trkpt lat="45.41303" lon="5.76755">
        <ele>467.4</ele>
        <time>2019-04-26T10:00:27Z</time>
      </trkpt>
      <trkpt lat="45.41305" lon="5.76758">
        <ele>467.6</ele>
        <time>2019-04-26T10:00:28Z</time>
      </trkpt>
      <trkpt lat="45.41307" lon="5.76761">
        <ele>467.7</ele>
        <time>2019-04-26T10:00:29Z</time>
      </trkpt>
      <trkpt lat="45.41311" lon="5.76767">
        <ele>468</ele>
        <time>2019-04-26T10:00:31Z</time>
      </trkpt>
      <trkpt lat="45.41313" lon="5.7677">
        <ele>468.2</ele>
        <time>2019-04-26T10:00:32Z</time>
      </trkpt>
      <trkpt lat="45.41316" lon="5.76775">
        <ele>468.5</ele>
        <time>2019-04-26T10:00:34Z</time>
      </trkpt>
      <trkpt lat="45.41319" lon="5.76779">
        <ele>468.5</ele>
        <time>2019-04-26T10:00:35Z</time>
      </trkpt>
      <trkpt lat="45.41321" lon="5.76781">
        <ele>468.7</ele>
        <time>2019-04-26T10:00:36Z</time>
      </trkpt>
      <trkpt lat="45.41324" lon="5.76782">
        <ele>469</ele>
        <time>2019-04-26T10:00:37Z</time>
      </trkpt>
      <trkpt lat="45.41326" lon="5.76785">
        <ele>469.3</ele>
        <time>2019-04-26T10:00:38Z</time>
      </trkpt>
      <trkpt lat="45.4133" lon="5.76789">
        <ele>469.7</ele>
        <time>2019-04-26T10:00:40Z</time>
      </trkpt>
      <trkpt lat="45.41332" lon="5.76792">
        <ele>470</ele>
        <time>2019-04-26T10:00:41Z</time>
      </trkpt>
      <trkpt lat="45.41337" lon="5.76795">
        <ele>470.3</ele>
        <time>2019-04-26T10:00:43Z</time>
      </trkpt>
      <trkpt lat="45.41342" lon="5.76796">
        <ele>470.5</ele>
        <time>2019-04-26T10:00:45Z</time>
      </trkpt>
      <trkpt lat="45.41346" lon="5.76796">
        <ele>470.7</ele>
        <time>2019-04-26T10:00:47Z</time>
      </trkpt>
      <trkpt lat="45.41352" lon="5.76794">
        <ele>470.8</ele>
        <time>2019-04-26T10:00:49Z</time>
      </trkpt>
      <trkpt lat="45.41354" lon="5.76792">
        <ele>470.8</ele>
        <time>2019-04-26T10:00:50Z</time>
      </trkpt>
      <trkpt lat="45.41357" lon="5.76789">
        <ele>470.8</ele>
        <time>2019-04-26T10:00:51Z</time>
      </trkpt>
      <trkpt lat="45.4136" lon="5.76786">
        <ele>470.9</ele>
        <time>2019-04-26T10:00:52Z</time>
      </trkpt>
      <trkpt lat="45.41362" lon="5.76783">
        <ele>470.9</ele>
        <time>2019-04-26T10:00:53Z</time>
      </trkpt>
      <trkpt lat="45.41363" lon="5.76777">
        <ele>470.9</ele>
        <time>2019-04-26T10:01:14Z</time>
      </trkpt>
      <trkpt lat="45.41365" lon="5.76772">
        <ele>470.8</ele>
        <time>2019-04-26T10:01:17Z</time>
      </trkpt>
      <trkpt lat="45.41368" lon="5.76766">
        <ele>470.8</ele>
        <time>2019-04-26T10:01:19Z</time>
      </trkpt>
      <trkpt lat="45.4137" lon="5.76762">
        <ele>470.8</ele>
        <time>2019-04-26T10:01:20Z</time>
      </trkpt>
      <trkpt lat="45.41371" lon="5.76758">
        <ele>470.8</ele>
        <time>2019-04-26T10:01:21Z</time>
      </trkpt>
      <trkpt lat="45.41373" lon="5.76754">
        <ele>470.8</ele>
        <time>2019-04-26T10:01:22Z</time>
      </trkpt>
      <trkpt lat="45.41375" lon="5.7675">
        <ele>470.8</ele>
        <time>2019-04-26T10:01:23Z</time>
      </trkpt>
      <trkpt lat="45.41377" lon="5.76745">
        <ele>470.8</ele>
        <time>2019-04-26T10:01:24Z</time>
      </trkpt>
      <trkpt lat="45.41379" lon="5.7674">
        <ele>470.8</ele>
        <time>2019-04-26T10:01:25Z</time>
      </trkpt>
      <trkpt lat="45.41381" lon="5.76733">
        <ele>470.8</ele>
        <time>2019-04-26T10:01:26Z</time>
      </trkpt>
      <trkpt lat="45.41383" lon="5.76726">
        <ele>470.7</ele>
        <time>2019-04-26T10:01:27Z</time>
      </trkpt>
      <trkpt lat="45.41385" lon="5.76719">
        <ele>470.7</ele>
        <time>2019-04-26T10:01:28Z</time>
      </trkpt>
      <trkpt lat="45.41387" lon="5.76712">
        <ele>470.7</ele>
        <time>2019-04-26T10:01:29Z</time>
      </trkpt>
      <trkpt lat="45.4139" lon="5.76704">
        <ele>470.7</ele>
        <time>2019-04-26T10:01:30Z</time>
      </trkpt>
      <trkpt lat="45.41394" lon="5.76696">
        <ele>470.6</ele>
        <time>2019-04-26T10:01:31Z</time>
      </trkpt>
      <trkpt lat="45.41398" lon="5.76688">
        <ele>470.6</ele>
        <time>2019-04-26T10:01:32Z</time>
      </trkpt>
      <trkpt lat="45.41402" lon="5.76677">
        <ele>470.6</ele>
        <time>2019-04-26T10:01:33Z</time>
      </trkpt>
      <trkpt lat="45.41405" lon="5.76662">
        <ele>470.5</ele>
        <time>2019-04-26T10:01:34Z</time>
      </trkpt>
      <trkpt lat="45.41409" lon="5.76649">
        <ele>470.4</ele>
        <time>2019-04-26T10:01:35Z</time>
      </trkpt>
      <trkpt lat="45.41411" lon="5.76638">
        <ele>470.4</ele>
        <time>2019-04-26T10:01:36Z</time>
      </trkpt>
      <trkpt lat="45.41412" lon="5.76629">
        <ele>470.3</ele>
        <time>2019-04-26T10:01:37Z</time>
      </trkpt>
      <trkpt lat="45.41412" lon="5.76625">
        <ele>470.2</ele>
        <time>2019-04-26T10:01:38Z</time>
      </trkpt>
      <trkpt lat="45.41414" lon="5.76616">
        <ele>470</ele>
        <time>2019-04-26T10:01:39Z</time>
      </trkpt>
      <trkpt lat="45.41415" lon="5.76607">
        <ele>469.8</ele>
        <time>2019-04-26T10:01:40Z</time>
      </trkpt>
      <trkpt lat="45.41415" lon="5.76598">
        <ele>469.6</ele>
        <time>2019-04-26T10:01:41Z</time>
      </trkpt>
      <trkpt lat="45.41415" lon="5.76587">
        <ele>469.3</ele>
        <time>2019-04-26T10:01:42Z</time>
      </trkpt>
      <trkpt lat="45.41415" lon="5.76576">
        <ele>468.8</ele>
        <time>2019-04-26T10:01:43Z</time>
      </trkpt>
      <trkpt lat="45.41415" lon="5.76564">
        <ele>468.3</ele>
        <time>2019-04-26T10:01:44Z</time>
      </trkpt>
      <trkpt lat="45.41414" lon="5.76551">
        <ele>467.7</ele>
        <time>2019-04-26T10:01:45Z</time>
      </trkpt>
      <trkpt lat="45.41414" lon="5.76539">
        <ele>467.2</ele>
        <time>2019-04-26T10:01:46Z</time>
      </trkpt>
      <trkpt lat="45.41413" lon="5.76526">
        <ele>466.6</ele>
        <time>2019-04-26T10:01:47Z</time>
      </trkpt>
      <trkpt lat="45.41413" lon="5.76514">
        <ele>467.1</ele>
        <time>2019-04-26T10:01:48Z</time>
      </trkpt>
      <trkpt lat="45.41412" lon="5.76503">
        <ele>467.3</ele>
        <time>2019-04-26T10:01:49Z</time>
      </trkpt>
      <trkpt lat="45.41412" lon="5.76494">
        <ele>467.7</ele>
        <time>2019-04-26T10:01:50Z</time>
      </trkpt>
      <trkpt lat="45.41412" lon="5.76484">
        <ele>468.1</ele>
        <time>2019-04-26T10:01:51Z</time>
      </trkpt>
      <trkpt lat="45.41411" lon="5.76476">
        <ele>468.2</ele>
        <time>2019-04-26T10:01:52Z</time>
      </trkpt>
      <trkpt lat="45.41412" lon="5.76467">
        <ele>469.1</ele>
        <time>2019-04-26T10:01:53Z</time>
      </trkpt>
      <trkpt lat="45.4141" lon="5.76459">
        <ele>469.3</ele>
        <time>2019-04-26T10:01:55Z</time>
      </trkpt>
      <trkpt lat="45.41409" lon="5.76453">
        <ele>469.2</ele>
        <time>2019-04-26T10:01:56Z</time>
      </trkpt>
      <trkpt lat="45.41408" lon="5.76448">
        <ele>469.5</ele>
        <time>2019-04-26T10:01:57Z</time>
      </trkpt>
      <trkpt lat="45.41405" lon="5.7644">
        <ele>469.6</ele>
        <time>2019-04-26T10:01:59Z</time>
      </trkpt>
      <trkpt lat="45.41404" lon="5.76434">
        <ele>470.1</ele>
        <time>2019-04-26T10:02:00Z</time>
      </trkpt>
      <trkpt lat="45.41404" lon="5.76424">
        <ele>470.5</ele>
        <time>2019-04-26T10:02:01Z</time>
      </trkpt>
      <trkpt lat="45.41403" lon="5.76418">
        <ele>470.2</ele>
        <time>2019-04-26T10:02:02Z</time>
      </trkpt>
      <trkpt lat="45.41403" lon="5.76409">
        <ele>471</ele>
        <time>2019-04-26T10:02:03Z</time>
      </trkpt>
      <trkpt lat="45.41404" lon="5.76401">
        <ele>471.3</ele>
        <time>2019-04-26T10:02:05Z</time>
      </trkpt>
      <trkpt lat="45.41405" lon="5.76394">
        <ele>471.5</ele>
        <time>2019-04-26T10:02:06Z</time>
      </trkpt>
      <trkpt lat="45.41405" lon="5.76387">
        <ele>471.6</ele>
        <time>2019-04-26T10:02:07Z</time>
      </trkpt>
      <trkpt lat="45.41406" lon="5.7638">
        <ele>471.7</ele>
        <time>2019-04-26T10:02:08Z</time>
      </trkpt>
      <trkpt lat="45.41404" lon="5.76373">
        <ele>471.9</ele>
        <time>2019-04-26T10:02:09Z</time>
      </trkpt>
      <trkpt lat="45.41404" lon="5.76366">
        <ele>471.9</ele>
        <time>2019-04-26T10:02:10Z</time>
      </trkpt>
      <trkpt lat="45.41405" lon="5.76361">
        <ele>472.1</ele>
        <time>2019-04-26T10:02:11Z</time>
      </trkpt>
      <trkpt lat="45.41406" lon="5.76354">
        <ele>472.8</ele>
        <time>2019-04-26T10:02:12Z</time>
      </trkpt>
      <trkpt lat="45.41407" lon="5.76349">
        <ele>473</ele>
        <time>2019-04-26T10:02:13Z</time>
      </trkpt>
      <trkpt lat="45.41409" lon="5.76341">
        <ele>473</ele>
        <time>2019-04-26T10:02:14Z</time>
      </trkpt>
      <trkpt lat="45.4141" lon="5.76337">
        <ele>473.8</ele>
        <time>2019-04-26T10:02:15Z</time>
      </trkpt>
      <trkpt lat="45.41409" lon="5.76329">
        <ele>473.8</ele>
        <time>2019-04-26T10:02:16Z</time>
      </trkpt>
      <trkpt lat="45.41409" lon="5.76324">
        <ele>473</ele>
        <time>2019-04-26T10:02:17Z</time>
      </trkpt>
      <trkpt lat="45.41409" lon="5.76318">
        <ele>473.6</ele>
        <time>2019-04-26T10:02:18Z</time>
      </trkpt>
      <trkpt lat="45.41407" lon="5.76313">
        <ele>472.8</ele>
        <time>2019-04-26T10:02:20Z</time>
      </trkpt>
      <trkpt lat="45.41405" lon="5.76308">
        <ele>472</ele>
        <time>2019-04-26T10:02:24Z</time>
      </trkpt>
      <trkpt lat="45.41404" lon="5.76304">
        <ele>471.9</ele>
        <time>2019-04-26T10:02:25Z</time>
      </trkpt>
      <trkpt lat="45.41405" lon="5.76296">
        <ele>471.6</ele>
        <time>2019-04-26T10:02:27Z</time>
      </trkpt>
      <trkpt lat="45.41405" lon="5.76292">
        <ele>471.5</ele>
        <time>2019-04-26T10:02:28Z</time>
      </trkpt>
      <trkpt lat="45.41404" lon="5.76284">
        <ele>471.2</ele>
        <time>2019-04-26T10:02:30Z</time>
      </trkpt>
      <trkpt lat="45.41403" lon="5.76279">
        <ele>470.5</ele>
        <time>2019-04-26T10:02:31Z</time>
      </trkpt>
      <trkpt lat="45.41403" lon="5.76273">
        <ele>470.4</ele>
        <time>2019-04-26T10:02:32Z</time>
      </trkpt>
      <trkpt lat="45.41401" lon="5.76264">
        <ele>470.2</ele>
        <time>2019-04-26T10:02:33Z</time>
      </trkpt>
      <trkpt lat="45.41399" lon="5.76256">
        <ele>469.5</ele>
        <time>2019-04-26T10:02:34Z</time>
      </trkpt>
      <trkpt lat="45.414" lon="5.76248">
        <ele>469.6</ele>
        <time>2019-04-26T10:02:35Z</time>
      </trkpt>
      <trkpt lat="45.41399" lon="5.76235">
        <ele>468.4</ele>
        <time>2019-04-26T10:02:36Z</time>
      </trkpt>
      <trkpt lat="45.41396" lon="5.76225">
        <ele>467.3</ele>
        <time>2019-04-26T10:02:37Z</time>
      </trkpt>
      <trkpt lat="45.41392" lon="5.76222">
        <ele>466.3</ele>
        <time>2019-04-26T10:02:38Z</time>
      </trkpt>
      <trkpt lat="45.41388" lon="5.76217">
        <ele>465.2</ele>
        <time>2019-04-26T10:02:39Z</time>
      </trkpt>
      <trkpt lat="45.41384" lon="5.7621">
        <ele>462.3</ele>
        <time>2019-04-26T10:02:40Z</time>
      </trkpt>
      <trkpt lat="45.41382" lon="5.76205">
        <ele>461.7</ele>
        <time>2019-04-26T10:02:41Z</time>
      </trkpt>
      <trkpt lat="45.41381" lon="5.76199">
        <ele>460.4</ele>
        <time>2019-04-26T10:02:42Z</time>
      </trkpt>
      <trkpt lat="45.41382" lon="5.76192">
        <ele>459.8</ele>
        <time>2019-04-26T10:02:43Z</time>
      </trkpt>
      <trkpt lat="45.41379" lon="5.76186">
        <ele>458.5</ele>
        <time>2019-04-26T10:02:44Z</time>
      </trkpt>
      <trkpt lat="45.41382" lon="5.76179">
        <ele>458</ele>
        <time>2019-04-26T10:02:45Z</time>
      </trkpt>
      <trkpt lat="45.41386" lon="5.76177">
        <ele>458.1</ele>
        <time>2019-04-26T10:02:47Z</time>
      </trkpt>
      <trkpt lat="45.41388" lon="5.76173">
        <ele>457.4</ele>
        <time>2019-04-26T10:02:48Z</time>
      </trkpt>
      <trkpt lat="45.41387" lon="5.76168">
        <ele>456.7</ele>
        <time>2019-04-26T10:02:50Z</time>
      </trkpt>
      <trkpt lat="45.41389" lon="5.76164">
        <ele>457.2</ele>
        <time>2019-04-26T10:02:52Z</time>
      </trkpt>
      <trkpt lat="45.4139" lon="5.76161">
        <ele>457.1</ele>
        <time>2019-04-26T10:02:53Z</time>
      </trkpt>
      <trkpt lat="45.41392" lon="5.76156">
        <ele>457.1</ele>
        <time>2019-04-26T10:02:54Z</time>
      </trkpt>
      <trkpt lat="45.41393" lon="5.7615">
        <ele>455.6</ele>
        <time>2019-04-26T10:02:55Z</time>
      </trkpt>
      <trkpt lat="45.41396" lon="5.76135">
        <ele>453.8</ele>
        <time>2019-04-26T10:02:56Z</time>
      </trkpt>
      <trkpt lat="45.41398" lon="5.76125">
        <ele>451.8</ele>
        <time>2019-04-26T10:02:57Z</time>
      </trkpt>
      <trkpt lat="45.41397" lon="5.76117">
        <ele>449.9</ele>
        <time>2019-04-26T10:02:58Z</time>
      </trkpt>
      <trkpt lat="45.41401" lon="5.76112">
        <ele>449.5</ele>
        <time>2019-04-26T10:02:59Z</time>
      </trkpt>
      <trkpt lat="45.41404" lon="5.76109">
        <ele>450</ele>
        <time>2019-04-26T10:03:00Z</time>
      </trkpt>
      <trkpt lat="45.41405" lon="5.76105">
        <ele>449</ele>
        <time>2019-04-26T10:03:01Z</time>
      </trkpt>
      <trkpt lat="45.41407" lon="5.761">
        <ele>448.6</ele>
        <time>2019-04-26T10:03:04Z</time>
      </trkpt>
      <trkpt lat="45.4141" lon="5.76096">
        <ele>448.3</ele>
        <time>2019-04-26T10:03:05Z</time>
      </trkpt>
      <trkpt lat="45.4141" lon="5.76092">
        <ele>447.5</ele>
        <time>2019-04-26T10:03:06Z</time>
      </trkpt>
      <trkpt lat="45.41415" lon="5.76086">
        <ele>447.1</ele>
        <time>2019-04-26T10:03:07Z</time>
      </trkpt>
      <trkpt lat="45.41419" lon="5.76082">
        <ele>446.8</ele>
        <time>2019-04-26T10:03:08Z</time>
      </trkpt>
      <trkpt lat="45.41424" lon="5.76077">
        <ele>447</ele>
        <time>2019-04-26T10:03:09Z</time>
      </trkpt>
      <trkpt lat="45.41428" lon="5.76073">
        <ele>446.7</ele>
        <time>2019-04-26T10:03:10Z</time>
      </trkpt>
      <trkpt lat="45.41433" lon="5.76069">
        <ele>446.3</ele>
        <time>2019-04-26T10:03:11Z</time>
      </trkpt>
      <trkpt lat="45.41435" lon="5.76065">
        <ele>445.8</ele>
        <time>2019-04-26T10:03:12Z</time>
      </trkpt>
      <trkpt lat="45.41438" lon="5.76062">
        <ele>446.2</ele>
        <time>2019-04-26T10:03:13Z</time>
      </trkpt>
      <trkpt lat="45.41438" lon="5.76057">
        <ele>445.3</ele>
        <time>2019-04-26T10:03:15Z</time>
      </trkpt>
      <trkpt lat="45.4144" lon="5.76054">
        <ele>444.8</ele>
        <time>2019-04-26T10:03:16Z</time>
      </trkpt>
      <trkpt lat="45.41441" lon="5.76048">
        <ele>444</ele>
        <time>2019-04-26T10:03:17Z</time>
      </trkpt>
      <trkpt lat="45.4144" lon="5.76042">
        <ele>442.5</ele>
        <time>2019-04-26T10:03:18Z</time>
      </trkpt>
      <trkpt lat="45.41441" lon="5.7603">
        <ele>440.5</ele>
        <time>2019-04-26T10:03:25Z</time>
      </trkpt>
      <trkpt lat="45.41443" lon="5.76021">
        <ele>439.6</ele>
        <time>2019-04-26T10:03:47Z</time>
      </trkpt>
      <trkpt lat="45.41445" lon="5.76012">
        <ele>438.9</ele>
        <time>2019-04-26T10:03:48Z</time>
      </trkpt>
      <trkpt lat="45.41447" lon="5.76004">
        <ele>438</ele>
        <time>2019-04-26T10:03:49Z</time>
      </trkpt>
      <trkpt lat="45.41449" lon="5.75998">
        <ele>437.8</ele>
        <time>2019-04-26T10:03:50Z</time>
      </trkpt>
      <trkpt lat="45.41452" lon="5.75996">
        <ele>437.5</ele>
        <time>2019-04-26T10:03:51Z</time>
      </trkpt>
      <trkpt lat="45.41456" lon="5.75992">
        <ele>437</ele>
        <time>2019-04-26T10:03:53Z</time>
      </trkpt>
      <trkpt lat="45.41459" lon="5.75988">
        <ele>436.5</ele>
        <time>2019-04-26T10:03:55Z</time>
      </trkpt>
      <trkpt lat="45.41459" lon="5.75984">
        <ele>436</ele>
        <time>2019-04-26T10:03:57Z</time>
      </trkpt>
      <trkpt lat="45.41459" lon="5.75979">
        <ele>435.5</ele>
        <time>2019-04-26T10:04:00Z</time>
      </trkpt>
      <trkpt lat="45.41459" lon="5.75975">
        <ele>434.9</ele>
        <time>2019-04-26T10:04:06Z</time>
      </trkpt>
      <trkpt lat="45.41461" lon="5.7596">
        <ele>433.4</ele>
        <time>2019-04-26T10:04:24Z</time>
      </trkpt>
      <trkpt lat="45.41462" lon="5.75955">
        <ele>433</ele>
        <time>2019-04-26T10:04:26Z</time>
      </trkpt>
      <trkpt lat="45.41463" lon="5.75952">
        <ele>432.4</ele>
        <time>2019-04-26T10:04:30Z</time>
      </trkpt>
      <trkpt lat="45.41464" lon="5.75947">
        <ele>432</ele>
        <time>2019-04-26T10:04:33Z</time>
      </trkpt>
      <trkpt lat="45.41466" lon="5.75928">
        <ele>429.6</ele>
        <time>2019-04-26T10:04:56Z</time>
      </trkpt>
      <trkpt lat="45.41468" lon="5.75924">
        <ele>429.1</ele>
        <time>2019-04-26T10:04:57Z</time>
      </trkpt>
      <trkpt lat="45.41469" lon="5.75919">
        <ele>428.7</ele>
        <time>2019-04-26T10:04:58Z</time>
      </trkpt>
      <trkpt lat="45.4147" lon="5.75916">
        <ele>428.2</ele>
        <time>2019-04-26T10:04:59Z</time>
      </trkpt>
      <trkpt lat="45.41472" lon="5.75912">
        <ele>427.3</ele>
        <time>2019-04-26T10:05:00Z</time>
      </trkpt>
      <trkpt lat="45.41474" lon="5.75909">
        <ele>426.8</ele>
        <time>2019-04-26T10:05:01Z</time>
      </trkpt>
      <trkpt lat="45.4148" lon="5.75903">
        <ele>425.3</ele>
        <time>2019-04-26T10:05:03Z</time>
      </trkpt>
      <trkpt lat="45.41484" lon="5.75901">
        <ele>424.3</ele>
        <time>2019-04-26T10:05:07Z</time>
      </trkpt>
      <trkpt lat="45.41487" lon="5.75898">
        <ele>423.3</ele>
        <time>2019-04-26T10:05:12Z</time>
      </trkpt>
      <trkpt lat="45.41491" lon="5.75896">
        <ele>422.1</ele>
        <time>2019-04-26T10:05:14Z</time>
      </trkpt>
      <trkpt lat="45.41495" lon="5.75893">
        <ele>420.9</ele>
        <time>2019-04-26T10:05:17Z</time>
      </trkpt>
      <trkpt lat="45.41499" lon="5.7589">
        <ele>420.3</ele>
        <time>2019-04-26T10:05:30Z</time>
      </trkpt>
      <trkpt lat="45.41502" lon="5.75888">
        <ele>418.3</ele>
        <time>2019-04-26T10:05:31Z</time>
      </trkpt>
      <trkpt lat="45.41509" lon="5.75888">
        <ele>416.9</ele>
        <time>2019-04-26T10:05:33Z</time>
      </trkpt>
      <trkpt lat="45.41516" lon="5.75891">
        <ele>416.3</ele>
        <time>2019-04-26T10:05:34Z</time>
      </trkpt>
      <trkpt lat="45.41518" lon="5.75895">
        <ele>416.2</ele>
        <time>2019-04-26T10:05:35Z</time>
      </trkpt>
      <trkpt lat="45.41522" lon="5.75899">
        <ele>416.1</ele>
        <time>2019-04-26T10:05:37Z</time>
      </trkpt>
      <trkpt lat="45.41526" lon="5.75901">
        <ele>415.4</ele>
        <time>2019-04-26T10:05:38Z</time>
      </trkpt>
      <trkpt lat="45.41531" lon="5.75904">
        <ele>414.3</ele>
        <time>2019-04-26T10:05:40Z</time>
      </trkpt>
      <trkpt lat="45.41533" lon="5.75908">
        <ele>414</ele>
        <time>2019-04-26T10:05:42Z</time>
      </trkpt>
      <trkpt lat="45.41535" lon="5.75911">
        <ele>414.4</ele>
        <time>2019-04-26T10:05:48Z</time>
      </trkpt>
      <trkpt lat="45.41537" lon="5.75914">
        <ele>413.6</ele>
        <time>2019-04-26T10:05:55Z</time>
      </trkpt>
      <trkpt lat="45.41539" lon="5.75917">
        <ele>413.3</ele>
        <time>2019-04-26T10:05:56Z</time>
      </trkpt>
      <trkpt lat="45.41542" lon="5.7592">
        <ele>413</ele>
        <time>2019-04-26T10:05:59Z</time>
      </trkpt>
      <trkpt lat="45.41544" lon="5.75921">
        <ele>412.2</ele>
        <time>2019-04-26T10:06:02Z</time>
      </trkpt>
      <trkpt lat="45.41546" lon="5.75924">
        <ele>412.7</ele>
        <time>2019-04-26T10:06:06Z</time>
      </trkpt>
      <trkpt lat="45.41549" lon="5.75925">
        <ele>411.9</ele>
        <time>2019-04-26T10:06:09Z</time>
      </trkpt>
      <trkpt lat="45.41552" lon="5.75927">
        <ele>411.1</ele>
        <time>2019-04-26T10:06:14Z</time>
      </trkpt>
      <trkpt lat="45.41554" lon="5.7593">
        <ele>410.7</ele>
        <time>2019-04-26T10:06:22Z</time>
      </trkpt>
      <trkpt lat="45.41557" lon="5.75932">
        <ele>409.9</ele>
        <time>2019-04-26T10:06:24Z</time>
      </trkpt>
      <trkpt lat="45.41558" lon="5.75938">
        <ele>411</ele>
        <time>2019-04-26T10:06:27Z</time>
      </trkpt>
      <trkpt lat="45.4156" lon="5.75945">
        <ele>410.8</ele>
        <time>2019-04-26T10:06:29Z</time>
      </trkpt>
      <trkpt lat="45.41561" lon="5.7595">
        <ele>412.1</ele>
        <time>2019-04-26T10:06:30Z</time>
      </trkpt>
      <trkpt lat="45.41563" lon="5.75954">
        <ele>411.9</ele>
        <time>2019-04-26T10:06:31Z</time>
      </trkpt>
      <trkpt lat="45.41566" lon="5.75958">
        <ele>411.8</ele>
        <time>2019-04-26T10:06:32Z</time>
      </trkpt>
      <trkpt lat="45.4157" lon="5.75961">
        <ele>411.1</ele>
        <time>2019-04-26T10:06:33Z</time>
      </trkpt>
      <trkpt lat="45.41574" lon="5.75963">
        <ele>410.4</ele>
        <time>2019-04-26T10:06:34Z</time>
      </trkpt>
      <trkpt lat="45.41577" lon="5.75964">
        <ele>410.3</ele>
        <time>2019-04-26T10:06:35Z</time>
      </trkpt>
      <trkpt lat="45.41581" lon="5.75965">
        <ele>408.8</ele>
        <time>2019-04-26T10:06:36Z</time>
      </trkpt>
      <trkpt lat="45.41584" lon="5.75967">
        <ele>408.7</ele>
        <time>2019-04-26T10:06:37Z</time>
      </trkpt>
      <trkpt lat="45.41588" lon="5.7597">
        <ele>408</ele>
        <time>2019-04-26T10:06:38Z</time>
      </trkpt>
      <trkpt lat="45.41592" lon="5.75972">
        <ele>408</ele>
        <time>2019-04-26T10:06:39Z</time>
      </trkpt>
      <trkpt lat="45.41596" lon="5.75974">
        <ele>406.7</ele>
        <time>2019-04-26T10:06:40Z</time>
      </trkpt>
      <trkpt lat="45.41599" lon="5.75975">
        <ele>406</ele>
        <time>2019-04-26T10:06:41Z</time>
      </trkpt>
      <trkpt lat="45.41603" lon="5.75975">
        <ele>405.3</ele>
        <time>2019-04-26T10:06:42Z</time>
      </trkpt>
      <trkpt lat="45.41606" lon="5.75975">
        <ele>404.6</ele>
        <time>2019-04-26T10:06:43Z</time>
      </trkpt>
      <trkpt lat="45.4161" lon="5.75974">
        <ele>403.9</ele>
        <time>2019-04-26T10:06:44Z</time>
      </trkpt>
      <trkpt lat="45.41614" lon="5.75972">
        <ele>402.6</ele>
        <time>2019-04-26T10:06:45Z</time>
      </trkpt>
      <trkpt lat="45.41617" lon="5.75969">
        <ele>401.5</ele>
        <time>2019-04-26T10:06:46Z</time>
      </trkpt>
      <trkpt lat="45.41621" lon="5.75966">
        <ele>400.5</ele>
        <time>2019-04-26T10:06:47Z</time>
      </trkpt>
      <trkpt lat="45.41623" lon="5.75963">
        <ele>400</ele>
        <time>2019-04-26T10:06:48Z</time>
      </trkpt>
      <trkpt lat="45.41628" lon="5.75958">
        <ele>398.8</ele>
        <time>2019-04-26T10:06:49Z</time>
      </trkpt>
      <trkpt lat="45.41633" lon="5.75953">
        <ele>397.6</ele>
        <time>2019-04-26T10:06:50Z</time>
      </trkpt>
      <trkpt lat="45.41637" lon="5.7595">
        <ele>397.3</ele>
        <time>2019-04-26T10:06:51Z</time>
      </trkpt>
      <trkpt lat="45.41642" lon="5.75946">
        <ele>396.1</ele>
        <time>2019-04-26T10:06:52Z</time>
      </trkpt>
      <trkpt lat="45.41646" lon="5.75943">
        <ele>395.3</ele>
        <time>2019-04-26T10:06:53Z</time>
      </trkpt>
      <trkpt lat="45.41651" lon="5.7594">
        <ele>394.3</ele>
        <time>2019-04-26T10:06:54Z</time>
      </trkpt>
      <trkpt lat="45.41655" lon="5.75937">
        <ele>394</ele>
        <time>2019-04-26T10:06:55Z</time>
      </trkpt>
      <trkpt lat="45.41657" lon="5.75935">
        <ele>393.4</ele>
        <time>2019-04-26T10:06:56Z</time>
      </trkpt>
      <trkpt lat="45.41661" lon="5.75933">
        <ele>392.8</ele>
        <time>2019-04-26T10:06:57Z</time>
      </trkpt>
      <trkpt lat="45.41665" lon="5.75929">
        <ele>392.2</ele>
        <time>2019-04-26T10:06:58Z</time>
      </trkpt>
      <trkpt lat="45.41669" lon="5.75927">
        <ele>391.6</ele>
        <time>2019-04-26T10:06:59Z</time>
      </trkpt>
      <trkpt lat="45.41672" lon="5.75924">
        <ele>391.2</ele>
        <time>2019-04-26T10:07:00Z</time>
      </trkpt>
      <trkpt lat="45.41677" lon="5.7592">
        <ele>390.8</ele>
        <time>2019-04-26T10:07:01Z</time>
      </trkpt>
      <trkpt lat="45.41681" lon="5.75915">
        <ele>390.9</ele>
        <time>2019-04-26T10:07:02Z</time>
      </trkpt>
      <trkpt lat="45.41686" lon="5.75912">
        <ele>391</ele>
        <time>2019-04-26T10:07:03Z</time>
      </trkpt>
      <trkpt lat="45.41689" lon="5.75911">
        <ele>391.1</ele>
        <time>2019-04-26T10:07:04Z</time>
      </trkpt>
      <trkpt lat="45.41691" lon="5.75905">
        <ele>391.2</ele>
        <time>2019-04-26T10:07:05Z</time>
      </trkpt>
      <trkpt lat="45.41694" lon="5.75899">
        <ele>391.4</ele>
        <time>2019-04-26T10:07:06Z</time>
      </trkpt>
      <trkpt lat="45.41694" lon="5.75893">
        <ele>391.5</ele>
        <time>2019-04-26T10:07:07Z</time>
      </trkpt>
      <trkpt lat="45.41694" lon="5.75884">
        <ele>391.6</ele>
        <time>2019-04-26T10:07:08Z</time>
      </trkpt>
      <trkpt lat="45.41695" lon="5.75878">
        <ele>391.7</ele>
        <time>2019-04-26T10:07:09Z</time>
      </trkpt>
      <trkpt lat="45.41695" lon="5.75871">
        <ele>391.9</ele>
        <time>2019-04-26T10:07:10Z</time>
      </trkpt>
      <trkpt lat="45.41697" lon="5.75863">
        <ele>392.1</ele>
        <time>2019-04-26T10:07:11Z</time>
      </trkpt>
      <trkpt lat="45.41698" lon="5.75855">
        <ele>392.3</ele>
        <time>2019-04-26T10:07:12Z</time>
      </trkpt>
      <trkpt lat="45.41698" lon="5.75848">
        <ele>392.4</ele>
        <time>2019-04-26T10:07:13Z</time>
      </trkpt>
      <trkpt lat="45.41698" lon="5.75842">
        <ele>392.5</ele>
        <time>2019-04-26T10:07:14Z</time>
      </trkpt>
      <trkpt lat="45.41698" lon="5.75835">
        <ele>392.6</ele>
        <time>2019-04-26T10:07:15Z</time>
      </trkpt>
      <trkpt lat="45.41699" lon="5.75828">
        <ele>392.7</ele>
        <time>2019-04-26T10:07:16Z</time>
      </trkpt>
      <trkpt lat="45.417" lon="5.75821">
        <ele>392.8</ele>
        <time>2019-04-26T10:07:17Z</time>
      </trkpt>
      <trkpt lat="45.417" lon="5.75815">
        <ele>393</ele>
        <time>2019-04-26T10:07:18Z</time>
      </trkpt>
      <trkpt lat="45.41701" lon="5.75807">
        <ele>393.2</ele>
        <time>2019-04-26T10:07:19Z</time>
      </trkpt>
      <trkpt lat="45.41702" lon="5.75803">
        <ele>393.4</ele>
        <time>2019-04-26T10:07:20Z</time>
      </trkpt>
      <trkpt lat="45.41702" lon="5.75797">
        <ele>393.6</ele>
        <time>2019-04-26T10:07:21Z</time>
      </trkpt>
      <trkpt lat="45.41704" lon="5.75791">
        <ele>393.7</ele>
        <time>2019-04-26T10:07:22Z</time>
      </trkpt>
      <trkpt lat="45.41705" lon="5.75784">
        <ele>393.9</ele>
        <time>2019-04-26T10:07:23Z</time>
      </trkpt>
      <trkpt lat="45.41705" lon="5.7578">
        <ele>394</ele>
        <time>2019-04-26T10:07:24Z</time>
      </trkpt>
      <trkpt lat="45.41707" lon="5.75776">
        <ele>394.1</ele>
        <time>2019-04-26T10:07:25Z</time>
      </trkpt>
      <trkpt lat="45.41708" lon="5.75772">
        <ele>394.2</ele>
        <time>2019-04-26T10:07:40Z</time>
      </trkpt>
      <trkpt lat="45.41711" lon="5.75772">
        <ele>394.3</ele>
        <time>2019-04-26T10:07:42Z</time>
      </trkpt>
      <trkpt lat="45.41715" lon="5.75774">
        <ele>394.3</ele>
        <time>2019-04-26T10:07:44Z</time>
      </trkpt>
      <trkpt lat="45.41716" lon="5.75777">
        <ele>394.3</ele>
        <time>2019-04-26T10:07:45Z</time>
      </trkpt>
      <trkpt lat="45.41719" lon="5.7578">
        <ele>394.3</ele>
        <time>2019-04-26T10:07:46Z</time>
      </trkpt>
      <trkpt lat="45.41721" lon="5.75783">
        <ele>394.3</ele>
        <time>2019-04-26T10:07:47Z</time>
      </trkpt>
      <trkpt lat="45.41724" lon="5.75786">
        <ele>394.2</ele>
        <time>2019-04-26T10:07:48Z</time>
      </trkpt>
      <trkpt lat="45.41728" lon="5.75789">
        <ele>394.2</ele>
        <time>2019-04-26T10:07:49Z</time>
      </trkpt>
      <trkpt lat="45.4173" lon="5.75793">
        <ele>394.2</ele>
        <time>2019-04-26T10:07:50Z</time>
      </trkpt>
      <trkpt lat="45.41733" lon="5.75796">
        <ele>394.1</ele>
        <time>2019-04-26T10:07:51Z</time>
      </trkpt>
      <trkpt lat="45.41736" lon="5.758">
        <ele>394</ele>
        <time>2019-04-26T10:07:52Z</time>
      </trkpt>
      <trkpt lat="45.41739" lon="5.75803">
        <ele>393.9</ele>
        <time>2019-04-26T10:07:53Z</time>
      </trkpt>
      <trkpt lat="45.41742" lon="5.75806">
        <ele>393.8</ele>
        <time>2019-04-26T10:07:54Z</time>
      </trkpt>
      <trkpt lat="45.41745" lon="5.75808">
        <ele>393.7</ele>
        <time>2019-04-26T10:07:55Z</time>
      </trkpt>
      <trkpt lat="45.4175" lon="5.75814">
        <ele>393.5</ele>
        <time>2019-04-26T10:07:57Z</time>
      </trkpt>
      <trkpt lat="45.41756" lon="5.75819">
        <ele>393.3</ele>
        <time>2019-04-26T10:07:58Z</time>
      </trkpt>
      <trkpt lat="45.41761" lon="5.75823">
        <ele>393.1</ele>
        <time>2019-04-26T10:07:59Z</time>
      </trkpt>
      <trkpt lat="45.41766" lon="5.75827">
        <ele>393</ele>
        <time>2019-04-26T10:08:00Z</time>
      </trkpt>
      <trkpt lat="45.41771" lon="5.75832">
        <ele>392.8</ele>
        <time>2019-04-26T10:08:01Z</time>
      </trkpt>
      <trkpt lat="45.41776" lon="5.75837">
        <ele>392.7</ele>
        <time>2019-04-26T10:08:02Z</time>
      </trkpt>
      <trkpt lat="45.4178" lon="5.7584">
        <ele>392.5</ele>
        <time>2019-04-26T10:08:03Z</time>
      </trkpt>
      <trkpt lat="45.41784" lon="5.75843">
        <ele>392.4</ele>
        <time>2019-04-26T10:08:04Z</time>
      </trkpt>
      <trkpt lat="45.41786" lon="5.75846">
        <ele>392.3</ele>
        <time>2019-04-26T10:08:05Z</time>
      </trkpt>
      <trkpt lat="45.41792" lon="5.75851">
        <ele>392.1</ele>
        <time>2019-04-26T10:08:06Z</time>
      </trkpt>
      <trkpt lat="45.41795" lon="5.75855">
        <ele>391.9</ele>
        <time>2019-04-26T10:08:07Z</time>
      </trkpt>
      <trkpt lat="45.41799" lon="5.75859">
        <ele>391.7</ele>
        <time>2019-04-26T10:08:08Z</time>
      </trkpt>
      <trkpt lat="45.41804" lon="5.75864">
        <ele>391.5</ele>
        <time>2019-04-26T10:08:09Z</time>
      </trkpt>
      <trkpt lat="45.41808" lon="5.75869">
        <ele>391.3</ele>
        <time>2019-04-26T10:08:10Z</time>
      </trkpt>
      <trkpt lat="45.41812" lon="5.75873">
        <ele>391.1</ele>
        <time>2019-04-26T10:08:11Z</time>
      </trkpt>
      <trkpt lat="45.41817" lon="5.75877">
        <ele>390.9</ele>
        <time>2019-04-26T10:08:12Z</time>
      </trkpt>
      <trkpt lat="45.41821" lon="5.75882">
        <ele>390.7</ele>
        <time>2019-04-26T10:08:13Z</time>
      </trkpt>
      <trkpt lat="45.41826" lon="5.75886">
        <ele>390.5</ele>
        <time>2019-04-26T10:08:14Z</time>
      </trkpt>
      <trkpt lat="45.4183" lon="5.75891">
        <ele>390.3</ele>
        <time>2019-04-26T10:08:15Z</time>
      </trkpt>
      <trkpt lat="45.41835" lon="5.75895">
        <ele>390.1</ele>
        <time>2019-04-26T10:08:16Z</time>
      </trkpt>
      <trkpt lat="45.4184" lon="5.75899">
        <ele>389.9</ele>
        <time>2019-04-26T10:08:17Z</time>
      </trkpt>
      <trkpt lat="45.41844" lon="5.75904">
        <ele>389.7</ele>
        <time>2019-04-26T10:08:18Z</time>
      </trkpt>
      <trkpt lat="45.41848" lon="5.75908">
        <ele>389.4</ele>
        <time>2019-04-26T10:08:19Z</time>
      </trkpt>
      <trkpt lat="45.41853" lon="5.75912">
        <ele>389.2</ele>
        <time>2019-04-26T10:08:20Z</time>
      </trkpt>
      <trkpt lat="45.41858" lon="5.75917">
        <ele>389</ele>
        <time>2019-04-26T10:08:21Z</time>
      </trkpt>
      <trkpt lat="45.41862" lon="5.75922">
        <ele>388.7</ele>
        <time>2019-04-26T10:08:22Z</time>
      </trkpt>
      <trkpt lat="45.41867" lon="5.75927">
        <ele>388.5</ele>
        <time>2019-04-26T10:08:23Z</time>
      </trkpt>
      <trkpt lat="45.41872" lon="5.75933">
        <ele>388.4</ele>
        <time>2019-04-26T10:08:24Z</time>
      </trkpt>
      <trkpt lat="45.41876" lon="5.75939">
        <ele>388.4</ele>
        <time>2019-04-26T10:08:25Z</time>
      </trkpt>
      <trkpt lat="45.41881" lon="5.75942">
        <ele>388.4</ele>
        <time>2019-04-26T10:08:26Z</time>
      </trkpt>
      <trkpt lat="45.41886" lon="5.75947">
        <ele>388.3</ele>
        <time>2019-04-26T10:08:27Z</time>
      </trkpt>
      <trkpt lat="45.4189" lon="5.75952">
        <ele>388.3</ele>
        <time>2019-04-26T10:08:28Z</time>
      </trkpt>
      <trkpt lat="45.41894" lon="5.75956">
        <ele>388.3</ele>
        <time>2019-04-26T10:08:29Z</time>
      </trkpt>
      <trkpt lat="45.41897" lon="5.75962">
        <ele>388.3</ele>
        <time>2019-04-26T10:08:30Z</time>
      </trkpt>
      <trkpt lat="45.41903" lon="5.75966">
        <ele>388.3</ele>
        <time>2019-04-26T10:08:31Z</time>
      </trkpt>
      <trkpt lat="45.41907" lon="5.75971">
        <ele>388.3</ele>
        <time>2019-04-26T10:08:32Z</time>
      </trkpt>
      <trkpt lat="45.41912" lon="5.75976">
        <ele>388.3</ele>
        <time>2019-04-26T10:08:33Z</time>
      </trkpt>
      <trkpt lat="45.41916" lon="5.75982">
        <ele>388.3</ele>
        <time>2019-04-26T10:08:34Z</time>
      </trkpt>
      <trkpt lat="45.41921" lon="5.75988">
        <ele>388.4</ele>
        <time>2019-04-26T10:08:35Z</time>
      </trkpt>
      <trkpt lat="45.41925" lon="5.75993">
        <ele>388.5</ele>
        <time>2019-04-26T10:08:36Z</time>
      </trkpt>
      <trkpt lat="45.41929" lon="5.75999">
        <ele>388.6</ele>
        <time>2019-04-26T10:08:37Z</time>
      </trkpt>
      <trkpt lat="45.41934" lon="5.76004">
        <ele>388.7</ele>
        <time>2019-04-26T10:08:38Z</time>
      </trkpt>
      <trkpt lat="45.41938" lon="5.76009">
        <ele>388.8</ele>
        <time>2019-04-26T10:08:39Z</time>
      </trkpt>
      <trkpt lat="45.41942" lon="5.76015">
        <ele>388.9</ele>
        <time>2019-04-26T10:08:40Z</time>
      </trkpt>
      <trkpt lat="45.41947" lon="5.76019">
        <ele>389</ele>
        <time>2019-04-26T10:08:41Z</time>
      </trkpt>
      <trkpt lat="45.41951" lon="5.76024">
        <ele>389</ele>
        <time>2019-04-26T10:08:42Z</time>
      </trkpt>
      <trkpt lat="45.41956" lon="5.7603">
        <ele>389</ele>
        <time>2019-04-26T10:08:43Z</time>
      </trkpt>
      <trkpt lat="45.41961" lon="5.76036">
        <ele>389</ele>
        <time>2019-04-26T10:08:44Z</time>
      </trkpt>
      <trkpt lat="45.41966" lon="5.7604">
        <ele>389</ele>
        <time>2019-04-26T10:08:45Z</time>
      </trkpt>
      <trkpt lat="45.41971" lon="5.76044">
        <ele>389</ele>
        <time>2019-04-26T10:08:46Z</time>
      </trkpt>
      <trkpt lat="45.41976" lon="5.76049">
        <ele>389</ele>
        <time>2019-04-26T10:08:47Z</time>
      </trkpt>
      <trkpt lat="45.4198" lon="5.76053">
        <ele>389</ele>
        <time>2019-04-26T10:08:48Z</time>
      </trkpt>
      <trkpt lat="45.41985" lon="5.76057">
        <ele>389</ele>
        <time>2019-04-26T10:08:49Z</time>
      </trkpt>
      <trkpt lat="45.41989" lon="5.76063">
        <ele>389</ele>
        <time>2019-04-26T10:08:50Z</time>
      </trkpt>
      <trkpt lat="45.41994" lon="5.76067">
        <ele>389</ele>
        <time>2019-04-26T10:08:51Z</time>
      </trkpt>
      <trkpt lat="45.41999" lon="5.76073">
        <ele>389</ele>
        <time>2019-04-26T10:08:52Z</time>
      </trkpt>
      <trkpt lat="45.42004" lon="5.76078">
        <ele>389</ele>
        <time>2019-04-26T10:08:53Z</time>
      </trkpt>
      <trkpt lat="45.4201" lon="5.76084">
        <ele>389</ele>
        <time>2019-04-26T10:08:54Z</time>
      </trkpt>
      <trkpt lat="45.42014" lon="5.76089">
        <ele>389</ele>
        <time>2019-04-26T10:08:55Z</time>
      </trkpt>
      <trkpt lat="45.42018" lon="5.76094">
        <ele>389.1</ele>
        <time>2019-04-26T10:08:56Z</time>
      </trkpt>
      <trkpt lat="45.42023" lon="5.76099">
        <ele>389.1</ele>
        <time>2019-04-26T10:08:57Z</time>
      </trkpt>
      <trkpt lat="45.42027" lon="5.76103">
        <ele>389.1</ele>
        <time>2019-04-26T10:08:58Z</time>
      </trkpt>
      <trkpt lat="45.42031" lon="5.76108">
        <ele>389.1</ele>
        <time>2019-04-26T10:08:59Z</time>
      </trkpt>
      <trkpt lat="45.42036" lon="5.76113">
        <ele>389.1</ele>
        <time>2019-04-26T10:09:00Z</time>
      </trkpt>
      <trkpt lat="45.4204" lon="5.76117">
        <ele>389.1</ele>
        <time>2019-04-26T10:09:01Z</time>
      </trkpt>
      <trkpt lat="45.42044" lon="5.76121">
        <ele>389.1</ele>
        <time>2019-04-26T10:09:02Z</time>
      </trkpt>
      <trkpt lat="45.42049" lon="5.76126">
        <ele>389.1</ele>
        <time>2019-04-26T10:09:03Z</time>
      </trkpt>
      <trkpt lat="45.42053" lon="5.7613">
        <ele>389.1</ele>
        <time>2019-04-26T10:09:04Z</time>
      </trkpt>
      <trkpt lat="45.42057" lon="5.76135">
        <ele>389.2</ele>
        <time>2019-04-26T10:09:05Z</time>
      </trkpt>
      <trkpt lat="45.42061" lon="5.7614">
        <ele>389.3</ele>
        <time>2019-04-26T10:09:06Z</time>
      </trkpt>
      <trkpt lat="45.42065" lon="5.76144">
        <ele>389.4</ele>
        <time>2019-04-26T10:09:07Z</time>
      </trkpt>
      <trkpt lat="45.4207" lon="5.76149">
        <ele>389.5</ele>
        <time>2019-04-26T10:09:08Z</time>
      </trkpt>
      <trkpt lat="45.42074" lon="5.76153">
        <ele>389.7</ele>
        <time>2019-04-26T10:09:09Z</time>
      </trkpt>
      <trkpt lat="45.42078" lon="5.76156">
        <ele>389.8</ele>
        <time>2019-04-26T10:09:10Z</time>
      </trkpt>
      <trkpt lat="45.42083" lon="5.7616">
        <ele>390</ele>
        <time>2019-04-26T10:09:11Z</time>
      </trkpt>
      <trkpt lat="45.42088" lon="5.76166">
        <ele>390.1</ele>
        <time>2019-04-26T10:09:12Z</time>
      </trkpt>
      <trkpt lat="45.42091" lon="5.76171">
        <ele>390.1</ele>
        <time>2019-04-26T10:09:13Z</time>
      </trkpt>
      <trkpt lat="45.42096" lon="5.76175">
        <ele>390.1</ele>
        <time>2019-04-26T10:09:14Z</time>
      </trkpt>
      <trkpt lat="45.421" lon="5.76179">
        <ele>390.1</ele>
        <time>2019-04-26T10:09:15Z</time>
      </trkpt>
      <trkpt lat="45.42105" lon="5.76185">
        <ele>390.2</ele>
        <time>2019-04-26T10:09:16Z</time>
      </trkpt>
      <trkpt lat="45.42109" lon="5.76189">
        <ele>390.2</ele>
        <time>2019-04-26T10:09:17Z</time>
      </trkpt>
      <trkpt lat="45.42114" lon="5.76194">
        <ele>390.2</ele>
        <time>2019-04-26T10:09:18Z</time>
      </trkpt>
      <trkpt lat="45.42118" lon="5.76198">
        <ele>390.2</ele>
        <time>2019-04-26T10:09:19Z</time>
      </trkpt>
      <trkpt lat="45.42122" lon="5.76203">
        <ele>390.2</ele>
        <time>2019-04-26T10:09:20Z</time>
      </trkpt>
      <trkpt lat="45.42126" lon="5.76207">
        <ele>390.2</ele>
        <time>2019-04-26T10:09:21Z</time>
      </trkpt>
      <trkpt lat="45.42131" lon="5.76211">
        <ele>390.2</ele>
        <time>2019-04-26T10:09:22Z</time>
      </trkpt>
      <trkpt lat="45.42135" lon="5.76216">
        <ele>390.2</ele>
        <time>2019-04-26T10:09:23Z</time>
      </trkpt>
      <trkpt lat="45.42138" lon="5.7622">
        <ele>390.1</ele>
        <time>2019-04-26T10:09:24Z</time>
      </trkpt>
      <trkpt lat="45.42142" lon="5.76224">
        <ele>390.1</ele>
        <time>2019-04-26T10:09:25Z</time>
      </trkpt>
      <trkpt lat="45.42145" lon="5.76229">
        <ele>390.1</ele>
        <time>2019-04-26T10:09:26Z</time>
      </trkpt>
      <trkpt lat="45.42149" lon="5.7623">
        <ele>390</ele>
        <time>2019-04-26T10:09:27Z</time>
      </trkpt>
      <trkpt lat="45.42152" lon="5.76233">
        <ele>389.8</ele>
        <time>2019-04-26T10:09:28Z</time>
      </trkpt>
      <trkpt lat="45.42156" lon="5.76238">
        <ele>389.7</ele>
        <time>2019-04-26T10:09:29Z</time>
      </trkpt>
      <trkpt lat="45.42159" lon="5.76241">
        <ele>389.5</ele>
        <time>2019-04-26T10:09:30Z</time>
      </trkpt>
      <trkpt lat="45.42163" lon="5.76243">
        <ele>389.2</ele>
        <time>2019-04-26T10:09:32Z</time>
      </trkpt>
      <trkpt lat="45.42165" lon="5.76246">
        <ele>389.3</ele>
        <time>2019-04-26T10:09:34Z</time>
      </trkpt>
      <trkpt lat="45.42168" lon="5.76251">
        <ele>389.3</ele>
        <time>2019-04-26T10:09:36Z</time>
      </trkpt>
      <trkpt lat="45.4217" lon="5.76255">
        <ele>389.3</ele>
        <time>2019-04-26T10:09:39Z</time>
      </trkpt>
      <trkpt lat="45.42171" lon="5.76258">
        <ele>389.4</ele>
        <time>2019-04-26T10:09:49Z</time>
      </trkpt>
      <trkpt lat="45.42174" lon="5.76259">
        <ele>389.4</ele>
        <time>2019-04-26T10:10:31Z</time>
      </trkpt>
      <trkpt lat="45.42178" lon="5.76261">
        <ele>389.4</ele>
        <time>2019-04-26T10:10:33Z</time>
      </trkpt>
      <trkpt lat="45.42183" lon="5.76265">
        <ele>389.5</ele>
        <time>2019-04-26T10:10:35Z</time>
      </trkpt>
      <trkpt lat="45.42186" lon="5.76269">
        <ele>389.5</ele>
        <time>2019-04-26T10:10:36Z</time>
      </trkpt>
      <trkpt lat="45.42189" lon="5.76272">
        <ele>389.5</ele>
        <time>2019-04-26T10:10:37Z</time>
      </trkpt>
      <trkpt lat="45.42193" lon="5.76276">
        <ele>389.6</ele>
        <time>2019-04-26T10:10:38Z</time>
      </trkpt>
      <trkpt lat="45.42196" lon="5.76279">
        <ele>389.6</ele>
        <time>2019-04-26T10:10:39Z</time>
      </trkpt>
      <trkpt lat="45.42201" lon="5.76283">
        <ele>389.7</ele>
        <time>2019-04-26T10:10:40Z</time>
      </trkpt>
      <trkpt lat="45.42204" lon="5.76288">
        <ele>389.7</ele>
        <time>2019-04-26T10:10:41Z</time>
      </trkpt>
      <trkpt lat="45.42208" lon="5.76292">
        <ele>389.7</ele>
        <time>2019-04-26T10:10:42Z</time>
      </trkpt>
      <trkpt lat="45.42211" lon="5.76295">
        <ele>389.7</ele>
        <time>2019-04-26T10:10:43Z</time>
      </trkpt>
      <trkpt lat="45.42215" lon="5.76299">
        <ele>389.8</ele>
        <time>2019-04-26T10:10:44Z</time>
      </trkpt>
      <trkpt lat="45.42219" lon="5.76303">
        <ele>389.8</ele>
        <time>2019-04-26T10:10:45Z</time>
      </trkpt>
      <trkpt lat="45.42223" lon="5.76307">
        <ele>389.9</ele>
        <time>2019-04-26T10:10:46Z</time>
      </trkpt>
      <trkpt lat="45.42228" lon="5.76312">
        <ele>389.9</ele>
        <time>2019-04-26T10:10:47Z</time>
      </trkpt>
      <trkpt lat="45.42231" lon="5.76316">
        <ele>390</ele>
        <time>2019-04-26T10:10:48Z</time>
      </trkpt>
      <trkpt lat="45.42235" lon="5.7632">
        <ele>390.1</ele>
        <time>2019-04-26T10:10:49Z</time>
      </trkpt>
      <trkpt lat="45.42239" lon="5.76324">
        <ele>390.1</ele>
        <time>2019-04-26T10:10:50Z</time>
      </trkpt>
      <trkpt lat="45.42242" lon="5.76329">
        <ele>390.1</ele>
        <time>2019-04-26T10:10:51Z</time>
      </trkpt>
      <trkpt lat="45.42246" lon="5.76333">
        <ele>390.2</ele>
        <time>2019-04-26T10:10:52Z</time>
      </trkpt>
      <trkpt lat="45.4225" lon="5.76337">
        <ele>390.2</ele>
        <time>2019-04-26T10:10:53Z</time>
      </trkpt>
      <trkpt lat="45.42255" lon="5.76341">
        <ele>390.2</ele>
        <time>2019-04-26T10:10:54Z</time>
      </trkpt>
      <trkpt lat="45.42258" lon="5.76345">
        <ele>390.3</ele>
        <time>2019-04-26T10:10:55Z</time>
      </trkpt>
      <trkpt lat="45.42262" lon="5.76349">
        <ele>390.3</ele>
        <time>2019-04-26T10:10:56Z</time>
      </trkpt>
      <trkpt lat="45.42266" lon="5.76354">
        <ele>390.3</ele>
        <time>2019-04-26T10:10:57Z</time>
      </trkpt>
      <trkpt lat="45.4227" lon="5.76359">
        <ele>390.4</ele>
        <time>2019-04-26T10:10:58Z</time>
      </trkpt>
      <trkpt lat="45.42273" lon="5.76363">
        <ele>390.4</ele>
        <time>2019-04-26T10:10:59Z</time>
      </trkpt>
      <trkpt lat="45.42277" lon="5.76367">
        <ele>390.4</ele>
        <time>2019-04-26T10:11:00Z</time>
      </trkpt>
      <trkpt lat="45.4228" lon="5.7637">
        <ele>390.4</ele>
        <time>2019-04-26T10:11:01Z</time>
      </trkpt>
      <trkpt lat="45.42284" lon="5.76374">
        <ele>390.4</ele>
        <time>2019-04-26T10:11:02Z</time>
      </trkpt>
      <trkpt lat="45.42288" lon="5.76378">
        <ele>390.4</ele>
        <time>2019-04-26T10:11:03Z</time>
      </trkpt>
      <trkpt lat="45.4229" lon="5.7638">
        <ele>390.5</ele>
        <time>2019-04-26T10:11:04Z</time>
      </trkpt>
      <trkpt lat="45.42295" lon="5.76384">
        <ele>390.5</ele>
        <time>2019-04-26T10:11:06Z</time>
      </trkpt>
      <trkpt lat="45.423" lon="5.76387">
        <ele>390.5</ele>
        <time>2019-04-26T10:11:07Z</time>
      </trkpt>
      <trkpt lat="45.42305" lon="5.76391">
        <ele>390.5</ele>
        <time>2019-04-26T10:11:08Z</time>
      </trkpt>
      <trkpt lat="45.4231" lon="5.76393">
        <ele>390.5</ele>
        <time>2019-04-26T10:11:09Z</time>
      </trkpt>
      <trkpt lat="45.42315" lon="5.76395">
        <ele>390.5</ele>
        <time>2019-04-26T10:11:10Z</time>
      </trkpt>
      <trkpt lat="45.4232" lon="5.76396">
        <ele>390.5</ele>
        <time>2019-04-26T10:11:11Z</time>
      </trkpt>
      <trkpt lat="45.42323" lon="5.76397">
        <ele>390.5</ele>
        <time>2019-04-26T10:11:12Z</time>
      </trkpt>
      <trkpt lat="45.42326" lon="5.76397">
        <ele>390.5</ele>
        <time>2019-04-26T10:11:15Z</time>
      </trkpt>
      <trkpt lat="45.4233" lon="5.76398">
        <ele>390.6</ele>
        <time>2019-04-26T10:11:17Z</time>
      </trkpt>
      <trkpt lat="45.42336" lon="5.764">
        <ele>390.6</ele>
        <time>2019-04-26T10:11:19Z</time>
      </trkpt>
      <trkpt lat="45.42339" lon="5.76401">
        <ele>390.6</ele>
        <time>2019-04-26T10:11:20Z</time>
      </trkpt>
      <trkpt lat="45.42342" lon="5.76402">
        <ele>390.6</ele>
        <time>2019-04-26T10:11:21Z</time>
      </trkpt>
      <trkpt lat="45.42346" lon="5.76403">
        <ele>390.7</ele>
        <time>2019-04-26T10:11:22Z</time>
      </trkpt>
      <trkpt lat="45.42351" lon="5.76404">
        <ele>390.7</ele>
        <time>2019-04-26T10:11:23Z</time>
      </trkpt>
      <trkpt lat="45.42356" lon="5.76405">
        <ele>390.8</ele>
        <time>2019-04-26T10:11:24Z</time>
      </trkpt>
      <trkpt lat="45.42361" lon="5.76406">
        <ele>390.9</ele>
        <time>2019-04-26T10:11:25Z</time>
      </trkpt>
      <trkpt lat="45.42365" lon="5.76408">
        <ele>390.9</ele>
        <time>2019-04-26T10:11:26Z</time>
      </trkpt>
      <trkpt lat="45.42369" lon="5.76409">
        <ele>391</ele>
        <time>2019-04-26T10:11:27Z</time>
      </trkpt>
      <trkpt lat="45.42374" lon="5.76411">
        <ele>391.1</ele>
        <time>2019-04-26T10:11:28Z</time>
      </trkpt>
      <trkpt lat="45.42379" lon="5.76413">
        <ele>391.2</ele>
        <time>2019-04-26T10:11:29Z</time>
      </trkpt>
      <trkpt lat="45.42384" lon="5.76414">
        <ele>391.2</ele>
        <time>2019-04-26T10:11:30Z</time>
      </trkpt>
      <trkpt lat="45.4239" lon="5.76416">
        <ele>391.3</ele>
        <time>2019-04-26T10:11:31Z</time>
      </trkpt>
      <trkpt lat="45.42396" lon="5.76418">
        <ele>391.4</ele>
        <time>2019-04-26T10:11:32Z</time>
      </trkpt>
      <trkpt lat="45.42402" lon="5.7642">
        <ele>391.5</ele>
        <time>2019-04-26T10:11:33Z</time>
      </trkpt>
      <trkpt lat="45.42408" lon="5.76423">
        <ele>391.5</ele>
        <time>2019-04-26T10:11:34Z</time>
      </trkpt>
      <trkpt lat="45.42412" lon="5.76425">
        <ele>391.6</ele>
        <time>2019-04-26T10:11:35Z</time>
      </trkpt>
      <trkpt lat="45.42418" lon="5.76426">
        <ele>391.6</ele>
        <time>2019-04-26T10:11:36Z</time>
      </trkpt>
      <trkpt lat="45.42422" lon="5.76429">
        <ele>391.7</ele>
        <time>2019-04-26T10:11:37Z</time>
      </trkpt>
      <trkpt lat="45.42427" lon="5.76431">
        <ele>391.7</ele>
        <time>2019-04-26T10:11:38Z</time>
      </trkpt>
      <trkpt lat="45.42431" lon="5.76433">
        <ele>391.8</ele>
        <time>2019-04-26T10:11:39Z</time>
      </trkpt>
      <trkpt lat="45.42436" lon="5.76436">
        <ele>391.8</ele>
        <time>2019-04-26T10:11:40Z</time>
      </trkpt>
      <trkpt lat="45.42441" lon="5.76439">
        <ele>391.8</ele>
        <time>2019-04-26T10:11:41Z</time>
      </trkpt>
      <trkpt lat="45.42445" lon="5.76442">
        <ele>391.9</ele>
        <time>2019-04-26T10:11:42Z</time>
      </trkpt>
      <trkpt lat="45.42449" lon="5.76446">
        <ele>391.9</ele>
        <time>2019-04-26T10:11:43Z</time>
      </trkpt>
      <trkpt lat="45.42453" lon="5.76449">
        <ele>392</ele>
        <time>2019-04-26T10:11:44Z</time>
      </trkpt>
      <trkpt lat="45.42457" lon="5.76453">
        <ele>392</ele>
        <time>2019-04-26T10:11:45Z</time>
      </trkpt>
      <trkpt lat="45.42461" lon="5.76456">
        <ele>392.1</ele>
        <time>2019-04-26T10:11:46Z</time>
      </trkpt>
      <trkpt lat="45.42465" lon="5.76459">
        <ele>392.2</ele>
        <time>2019-04-26T10:11:47Z</time>
      </trkpt>
      <trkpt lat="45.42467" lon="5.76462">
        <ele>392.2</ele>
        <time>2019-04-26T10:11:48Z</time>
      </trkpt>
      <trkpt lat="45.4247" lon="5.76465">
        <ele>392.3</ele>
        <time>2019-04-26T10:11:49Z</time>
      </trkpt>
      <trkpt lat="45.42474" lon="5.76468">
        <ele>392.4</ele>
        <time>2019-04-26T10:11:50Z</time>
      </trkpt>
      <trkpt lat="45.42477" lon="5.76471">
        <ele>392.5</ele>
        <time>2019-04-26T10:11:51Z</time>
      </trkpt>
      <trkpt lat="45.4248" lon="5.76474">
        <ele>392.5</ele>
        <time>2019-04-26T10:11:52Z</time>
      </trkpt>
      <trkpt lat="45.42483" lon="5.76477">
        <ele>392.6</ele>
        <time>2019-04-26T10:11:53Z</time>
      </trkpt>
      <trkpt lat="45.42487" lon="5.7648">
        <ele>392.7</ele>
        <time>2019-04-26T10:11:54Z</time>
      </trkpt>
      <trkpt lat="45.4249" lon="5.76484">
        <ele>392.8</ele>
        <time>2019-04-26T10:11:55Z</time>
      </trkpt>
      <trkpt lat="45.42492" lon="5.76487">
        <ele>392.9</ele>
        <time>2019-04-26T10:11:56Z</time>
      </trkpt>
      <trkpt lat="45.42498" lon="5.76492">
        <ele>393</ele>
        <time>2019-04-26T10:11:58Z</time>
      </trkpt>
      <trkpt lat="45.42502" lon="5.76497">
        <ele>393.1</ele>
        <time>2019-04-26T10:11:59Z</time>
      </trkpt>
      <trkpt lat="45.42505" lon="5.765">
        <ele>393.2</ele>
        <time>2019-04-26T10:12:00Z</time>
      </trkpt>
      <trkpt lat="45.42507" lon="5.76504">
        <ele>393.3</ele>
        <time>2019-04-26T10:12:01Z</time>
      </trkpt>
      <trkpt lat="45.4251" lon="5.76507">
        <ele>393.3</ele>
        <time>2019-04-26T10:12:02Z</time>
      </trkpt>
      <trkpt lat="45.42513" lon="5.7651">
        <ele>393.4</ele>
        <time>2019-04-26T10:12:03Z</time>
      </trkpt>
      <trkpt lat="45.42518" lon="5.76516">
        <ele>393.5</ele>
        <time>2019-04-26T10:12:05Z</time>
      </trkpt>
      <trkpt lat="45.4252" lon="5.76519">
        <ele>393.6</ele>
        <time>2019-04-26T10:12:06Z</time>
      </trkpt>
      <trkpt lat="45.42524" lon="5.76524">
        <ele>393.7</ele>
        <time>2019-04-26T10:12:07Z</time>
      </trkpt>
      <trkpt lat="45.4253" lon="5.76531">
        <ele>393.8</ele>
        <time>2019-04-26T10:12:09Z</time>
      </trkpt>
      <trkpt lat="45.42532" lon="5.76534">
        <ele>393.8</ele>
        <time>2019-04-26T10:12:10Z</time>
      </trkpt>
      <trkpt lat="45.42537" lon="5.76538">
        <ele>393.9</ele>
        <time>2019-04-26T10:12:11Z</time>
      </trkpt>
      <trkpt lat="45.4254" lon="5.76544">
        <ele>393.9</ele>
        <time>2019-04-26T10:12:12Z</time>
      </trkpt>
      <trkpt lat="45.42544" lon="5.76549">
        <ele>394</ele>
        <time>2019-04-26T10:12:13Z</time>
      </trkpt>
      <trkpt lat="45.42546" lon="5.76552">
        <ele>394</ele>
        <time>2019-04-26T10:12:14Z</time>
      </trkpt>
      <trkpt lat="45.42548" lon="5.76555">
        <ele>394</ele>
        <time>2019-04-26T10:12:15Z</time>
      </trkpt>
      <trkpt lat="45.42558" lon="5.76562">
        <ele>394.2</ele>
        <time>2019-04-26T10:12:16Z</time>
      </trkpt>
      <trkpt lat="45.42566" lon="5.76569">
        <ele>394.3</ele>
        <time>2019-04-26T10:12:17Z</time>
      </trkpt>
      <trkpt lat="45.42574" lon="5.76576">
        <ele>394.4</ele>
        <time>2019-04-26T10:12:18Z</time>
      </trkpt>
      <trkpt lat="45.42581" lon="5.76581">
        <ele>394.5</ele>
        <time>2019-04-26T10:12:19Z</time>
      </trkpt>
      <trkpt lat="45.42584" lon="5.76583">
        <ele>394.5</ele>
        <time>2019-04-26T10:12:20Z</time>
      </trkpt>
      <trkpt lat="45.42588" lon="5.76586">
        <ele>394.5</ele>
        <time>2019-04-26T10:12:21Z</time>
      </trkpt>
      <trkpt lat="45.42592" lon="5.76588">
        <ele>394.5</ele>
        <time>2019-04-26T10:12:22Z</time>
      </trkpt>
      <trkpt lat="45.42596" lon="5.76592">
        <ele>394.6</ele>
        <time>2019-04-26T10:12:23Z</time>
      </trkpt>
      <trkpt lat="45.42598" lon="5.76594">
        <ele>394.6</ele>
        <time>2019-04-26T10:12:24Z</time>
      </trkpt>
      <trkpt lat="45.42601" lon="5.76597">
        <ele>394.6</ele>
        <time>2019-04-26T10:12:25Z</time>
      </trkpt>
      <trkpt lat="45.42605" lon="5.76599">
        <ele>394.6</ele>
        <time>2019-04-26T10:12:27Z</time>
      </trkpt>
      <trkpt lat="45.42602" lon="5.766">
        <ele>394.6</ele>
        <time>2019-04-26T10:12:29Z</time>
      </trkpt>
      <trkpt lat="45.42596" lon="5.76597">
        <ele>394.7</ele>
        <time>2019-04-26T10:12:30Z</time>
      </trkpt>
      <trkpt lat="45.42602" lon="5.76601">
        <ele>394.7</ele>
        <time>2019-04-26T10:12:32Z</time>
      </trkpt>
      <trkpt lat="45.42605" lon="5.76603">
        <ele>394.7</ele>
        <time>2019-04-26T10:12:33Z</time>
      </trkpt>
      <trkpt lat="45.42607" lon="5.76604">
        <ele>394.7</ele>
        <time>2019-04-26T10:12:34Z</time>
      </trkpt>
      <trkpt lat="45.4261" lon="5.76607">
        <ele>394.7</ele>
        <time>2019-04-26T10:12:35Z</time>
      </trkpt>
      <trkpt lat="45.42615" lon="5.76612">
        <ele>394.8</ele>
        <time>2019-04-26T10:12:37Z</time>
      </trkpt>
      <trkpt lat="45.42618" lon="5.76615">
        <ele>394.8</ele>
        <time>2019-04-26T10:12:38Z</time>
      </trkpt>
      <trkpt lat="45.42621" lon="5.76618">
        <ele>394.8</ele>
        <time>2019-04-26T10:12:39Z</time>
      </trkpt>
      <trkpt lat="45.42625" lon="5.76622">
        <ele>394.9</ele>
        <time>2019-04-26T10:12:40Z</time>
      </trkpt>
      <trkpt lat="45.42629" lon="5.76627">
        <ele>394.9</ele>
        <time>2019-04-26T10:12:41Z</time>
      </trkpt>
      <trkpt lat="45.42635" lon="5.76632">
        <ele>395</ele>
        <time>2019-04-26T10:12:42Z</time>
      </trkpt>
      <trkpt lat="45.42639" lon="5.76635">
        <ele>395</ele>
        <time>2019-04-26T10:12:43Z</time>
      </trkpt>
      <trkpt lat="45.42643" lon="5.76636">
        <ele>395.1</ele>
        <time>2019-04-26T10:12:44Z</time>
      </trkpt>
      <trkpt lat="45.42647" lon="5.76639">
        <ele>395.1</ele>
        <time>2019-04-26T10:12:45Z</time>
      </trkpt>
      <trkpt lat="45.42652" lon="5.76643">
        <ele>395.2</ele>
        <time>2019-04-26T10:12:46Z</time>
      </trkpt>
      <trkpt lat="45.42656" lon="5.76645">
        <ele>395.2</ele>
        <time>2019-04-26T10:12:47Z</time>
      </trkpt>
      <trkpt lat="45.4266" lon="5.76647">
        <ele>395.3</ele>
        <time>2019-04-26T10:12:48Z</time>
      </trkpt>
      <trkpt lat="45.42664" lon="5.7665">
        <ele>395.4</ele>
        <time>2019-04-26T10:12:49Z</time>
      </trkpt>
      <trkpt lat="45.42668" lon="5.76653">
        <ele>395.4</ele>
        <time>2019-04-26T10:12:50Z</time>
      </trkpt>
      <trkpt lat="45.42672" lon="5.76656">
        <ele>395.5</ele>
        <time>2019-04-26T10:12:51Z</time>
      </trkpt>
      <trkpt lat="45.42676" lon="5.76658">
        <ele>395.6</ele>
        <time>2019-04-26T10:12:52Z</time>
      </trkpt>
      <trkpt lat="45.4268" lon="5.76661">
        <ele>395.7</ele>
        <time>2019-04-26T10:12:53Z</time>
      </trkpt>
      <trkpt lat="45.42685" lon="5.76663">
        <ele>395.8</ele>
        <time>2019-04-26T10:12:54Z</time>
      </trkpt>
      <trkpt lat="45.42691" lon="5.76667">
        <ele>396</ele>
        <time>2019-04-26T10:12:55Z</time>
      </trkpt>
      <trkpt lat="45.42694" lon="5.76668">
        <ele>396.1</ele>
        <time>2019-04-26T10:12:56Z</time>
      </trkpt>
      <trkpt lat="45.42699" lon="5.7667">
        <ele>396.1</ele>
        <time>2019-04-26T10:12:57Z</time>
      </trkpt>
      <trkpt lat="45.42702" lon="5.76673">
        <ele>396.2</ele>
        <time>2019-04-26T10:12:58Z</time>
      </trkpt>
      <trkpt lat="45.42704" lon="5.76675">
        <ele>396.3</ele>
        <time>2019-04-26T10:12:59Z</time>
      </trkpt>
      <trkpt lat="45.42707" lon="5.76678">
        <ele>396.4</ele>
        <time>2019-04-26T10:13:01Z</time>
      </trkpt>
      <trkpt lat="45.42711" lon="5.76681">
        <ele>396.5</ele>
        <time>2019-04-26T10:13:03Z</time>
      </trkpt>
      <trkpt lat="45.42715" lon="5.76685">
        <ele>396.6</ele>
        <time>2019-04-26T10:13:05Z</time>
      </trkpt>
      <trkpt lat="45.4272" lon="5.76688">
        <ele>396.7</ele>
        <time>2019-04-26T10:13:07Z</time>
      </trkpt>
      <trkpt lat="45.42725" lon="5.76691">
        <ele>396.8</ele>
        <time>2019-04-26T10:13:09Z</time>
      </trkpt>
      <trkpt lat="45.42727" lon="5.76693">
        <ele>396.8</ele>
        <time>2019-04-26T10:13:10Z</time>
      </trkpt>
      <trkpt lat="45.42732" lon="5.76696">
        <ele>396.9</ele>
        <time>2019-04-26T10:13:12Z</time>
      </trkpt>
      <trkpt lat="45.42736" lon="5.76698">
        <ele>397</ele>
        <time>2019-04-26T10:13:14Z</time>
      </trkpt>
      <trkpt lat="45.42741" lon="5.76701">
        <ele>397</ele>
        <time>2019-04-26T10:13:16Z</time>
      </trkpt>
      <trkpt lat="45.42744" lon="5.76703">
        <ele>397.1</ele>
        <time>2019-04-26T10:13:17Z</time>
      </trkpt>
      <trkpt lat="45.42746" lon="5.76705">
        <ele>397.1</ele>
        <time>2019-04-26T10:13:18Z</time>
      </trkpt>
      <trkpt lat="45.42752" lon="5.76708">
        <ele>397.2</ele>
        <time>2019-04-26T10:13:20Z</time>
      </trkpt>
      <trkpt lat="45.42754" lon="5.7671">
        <ele>397.2</ele>
        <time>2019-04-26T10:13:21Z</time>
      </trkpt>
      <trkpt lat="45.42757" lon="5.76713">
        <ele>397.3</ele>
        <time>2019-04-26T10:13:22Z</time>
      </trkpt>
      <trkpt lat="45.42762" lon="5.76716">
        <ele>397.3</ele>
        <time>2019-04-26T10:13:24Z</time>
      </trkpt>
      <trkpt lat="45.42766" lon="5.76718">
        <ele>397.4</ele>
        <time>2019-04-26T10:13:26Z</time>
      </trkpt>
      <trkpt lat="45.42769" lon="5.7672">
        <ele>397.4</ele>
        <time>2019-04-26T10:13:27Z</time>
      </trkpt>
      <trkpt lat="45.42772" lon="5.76722">
        <ele>397.5</ele>
        <time>2019-04-26T10:13:28Z</time>
      </trkpt>
      <trkpt lat="45.42777" lon="5.76725">
        <ele>397.5</ele>
        <time>2019-04-26T10:13:30Z</time>
      </trkpt>
      <trkpt lat="45.4278" lon="5.76727">
        <ele>397.6</ele>
        <time>2019-04-26T10:13:31Z</time>
      </trkpt>
      <trkpt lat="45.42783" lon="5.76729">
        <ele>397.6</ele>
        <time>2019-04-26T10:13:32Z</time>
      </trkpt>
      <trkpt lat="45.42789" lon="5.76732">
        <ele>397.7</ele>
        <time>2019-04-26T10:13:34Z</time>
      </trkpt>
      <trkpt lat="45.42791" lon="5.76734">
        <ele>397.7</ele>
        <time>2019-04-26T10:13:35Z</time>
      </trkpt>
      <trkpt lat="45.42794" lon="5.76736">
        <ele>397.8</ele>
        <time>2019-04-26T10:13:36Z</time>
      </trkpt>
      <trkpt lat="45.42797" lon="5.76737">
        <ele>397.8</ele>
        <time>2019-04-26T10:13:37Z</time>
      </trkpt>
      <trkpt lat="45.428" lon="5.7674">
        <ele>397.8</ele>
        <time>2019-04-26T10:13:38Z</time>
      </trkpt>
      <trkpt lat="45.42804" lon="5.76742">
        <ele>397.9</ele>
        <time>2019-04-26T10:13:39Z</time>
      </trkpt>
      <trkpt lat="45.42806" lon="5.76743">
        <ele>397.9</ele>
        <time>2019-04-26T10:13:40Z</time>
      </trkpt>
      <trkpt lat="45.4281" lon="5.76746">
        <ele>398</ele>
        <time>2019-04-26T10:13:41Z</time>
      </trkpt>
      <trkpt lat="45.42813" lon="5.76748">
        <ele>398</ele>
        <time>2019-04-26T10:13:42Z</time>
      </trkpt>
      <trkpt lat="45.42817" lon="5.76751">
        <ele>398</ele>
        <time>2019-04-26T10:13:43Z</time>
      </trkpt>
      <trkpt lat="45.4282" lon="5.76753">
        <ele>398.1</ele>
        <time>2019-04-26T10:13:44Z</time>
      </trkpt>
      <trkpt lat="45.42823" lon="5.76755">
        <ele>398.1</ele>
        <time>2019-04-26T10:13:45Z</time>
      </trkpt>
      <trkpt lat="45.42826" lon="5.76756">
        <ele>398.2</ele>
        <time>2019-04-26T10:13:46Z</time>
      </trkpt>
      <trkpt lat="45.42829" lon="5.76759">
        <ele>398.2</ele>
        <time>2019-04-26T10:13:47Z</time>
      </trkpt>
      <trkpt lat="45.42832" lon="5.76761">
        <ele>398.2</ele>
        <time>2019-04-26T10:13:48Z</time>
      </trkpt>
      <trkpt lat="45.42835" lon="5.76763">
        <ele>398.3</ele>
        <time>2019-04-26T10:13:49Z</time>
      </trkpt>
      <trkpt lat="45.42838" lon="5.76766">
        <ele>398.3</ele>
        <time>2019-04-26T10:13:50Z</time>
      </trkpt>
      <trkpt lat="45.4284" lon="5.76768">
        <ele>398.3</ele>
        <time>2019-04-26T10:13:51Z</time>
      </trkpt>
      <trkpt lat="45.42844" lon="5.76771">
        <ele>398.4</ele>
        <time>2019-04-26T10:13:53Z</time>
      </trkpt>
      <trkpt lat="45.42848" lon="5.76774">
        <ele>398.4</ele>
        <time>2019-04-26T10:13:55Z</time>
      </trkpt>
      <trkpt lat="45.42851" lon="5.76776">
        <ele>398.5</ele>
        <time>2019-04-26T10:13:57Z</time>
      </trkpt>
      <trkpt lat="45.42855" lon="5.7678">
        <ele>398.5</ele>
        <time>2019-04-26T10:13:59Z</time>
      </trkpt>
      <trkpt lat="45.42859" lon="5.76782">
        <ele>398.6</ele>
        <time>2019-04-26T10:14:01Z</time>
      </trkpt>
      <trkpt lat="45.42862" lon="5.76784">
        <ele>398.6</ele>
        <time>2019-04-26T10:14:02Z</time>
      </trkpt>
      <trkpt lat="45.42865" lon="5.76785">
        <ele>398.7</ele>
        <time>2019-04-26T10:14:03Z</time>
      </trkpt>
      <trkpt lat="45.42868" lon="5.76787">
        <ele>398.8</ele>
        <time>2019-04-26T10:14:04Z</time>
      </trkpt>
      <trkpt lat="45.42872" lon="5.76789">
        <ele>398.8</ele>
        <time>2019-04-26T10:14:05Z</time>
      </trkpt>
      <trkpt lat="45.42875" lon="5.76791">
        <ele>398.9</ele>
        <time>2019-04-26T10:14:06Z</time>
      </trkpt>
      <trkpt lat="45.42878" lon="5.76793">
        <ele>398.9</ele>
        <time>2019-04-26T10:14:07Z</time>
      </trkpt>
      <trkpt lat="45.42881" lon="5.76796">
        <ele>399</ele>
        <time>2019-04-26T10:14:08Z</time>
      </trkpt>
      <trkpt lat="45.42885" lon="5.76797">
        <ele>399.1</ele>
        <time>2019-04-26T10:14:09Z</time>
      </trkpt>
      <trkpt lat="45.42888" lon="5.76799">
        <ele>399.1</ele>
        <time>2019-04-26T10:14:10Z</time>
      </trkpt>
      <trkpt lat="45.42891" lon="5.76801">
        <ele>399.2</ele>
        <time>2019-04-26T10:14:11Z</time>
      </trkpt>
      <trkpt lat="45.42894" lon="5.76802">
        <ele>399.3</ele>
        <time>2019-04-26T10:14:12Z</time>
      </trkpt>
      <trkpt lat="45.42899" lon="5.76805">
        <ele>399.4</ele>
        <time>2019-04-26T10:14:13Z</time>
      </trkpt>
      <trkpt lat="45.42904" lon="5.76808">
        <ele>399.4</ele>
        <time>2019-04-26T10:14:14Z</time>
      </trkpt>
      <trkpt lat="45.42911" lon="5.76812">
        <ele>399.5</ele>
        <time>2019-04-26T10:14:15Z</time>
      </trkpt>
      <trkpt lat="45.42914" lon="5.76814">
        <ele>399.6</ele>
        <time>2019-04-26T10:14:16Z</time>
      </trkpt>
      <trkpt lat="45.42918" lon="5.76816">
        <ele>399.6</ele>
        <time>2019-04-26T10:14:17Z</time>
      </trkpt>
      <trkpt lat="45.42921" lon="5.76818">
        <ele>399.7</ele>
        <time>2019-04-26T10:14:18Z</time>
      </trkpt>
      <trkpt lat="45.42925" lon="5.7682">
        <ele>399.7</ele>
        <time>2019-04-26T10:14:19Z</time>
      </trkpt>
      <trkpt lat="45.42928" lon="5.76822">
        <ele>399.8</ele>
        <time>2019-04-26T10:14:20Z</time>
      </trkpt>
      <trkpt lat="45.42932" lon="5.76824">
        <ele>399.8</ele>
        <time>2019-04-26T10:14:21Z</time>
      </trkpt>
      <trkpt lat="45.42936" lon="5.76826">
        <ele>399.9</ele>
        <time>2019-04-26T10:14:22Z</time>
      </trkpt>
      <trkpt lat="45.4294" lon="5.76829">
        <ele>399.9</ele>
        <time>2019-04-26T10:14:23Z</time>
      </trkpt>
      <trkpt lat="45.42944" lon="5.76832">
        <ele>400</ele>
        <time>2019-04-26T10:14:24Z</time>
      </trkpt>
      <trkpt lat="45.42949" lon="5.76834">
        <ele>400</ele>
        <time>2019-04-26T10:14:25Z</time>
      </trkpt>
      <trkpt lat="45.42952" lon="5.76838">
        <ele>400.1</ele>
        <time>2019-04-26T10:14:26Z</time>
      </trkpt>
      <trkpt lat="45.42958" lon="5.76839">
        <ele>400.1</ele>
        <time>2019-04-26T10:14:27Z</time>
      </trkpt>
      <trkpt lat="45.42961" lon="5.7684">
        <ele>400.2</ele>
        <time>2019-04-26T10:14:28Z</time>
      </trkpt>
      <trkpt lat="45.42965" lon="5.76842">
        <ele>400.2</ele>
        <time>2019-04-26T10:14:29Z</time>
      </trkpt>
      <trkpt lat="45.4297" lon="5.76844">
        <ele>400.3</ele>
        <time>2019-04-26T10:14:30Z</time>
      </trkpt>
      <trkpt lat="45.42974" lon="5.76848">
        <ele>400.3</ele>
        <time>2019-04-26T10:14:31Z</time>
      </trkpt>
      <trkpt lat="45.42978" lon="5.76847">
        <ele>400.3</ele>
        <time>2019-04-26T10:14:32Z</time>
      </trkpt>
      <trkpt lat="45.42982" lon="5.76848">
        <ele>400.4</ele>
        <time>2019-04-26T10:14:33Z</time>
      </trkpt>
      <trkpt lat="45.42985" lon="5.7685">
        <ele>400.4</ele>
        <time>2019-04-26T10:14:34Z</time>
      </trkpt>
      <trkpt lat="45.42989" lon="5.76851">
        <ele>400.4</ele>
        <time>2019-04-26T10:14:35Z</time>
      </trkpt>
      <trkpt lat="45.42992" lon="5.76852">
        <ele>400.4</ele>
        <time>2019-04-26T10:14:36Z</time>
      </trkpt>
      <trkpt lat="45.42995" lon="5.76853">
        <ele>400.4</ele>
        <time>2019-04-26T10:14:37Z</time>
      </trkpt>
      <trkpt lat="45.42998" lon="5.76854">
        <ele>400.4</ele>
        <time>2019-04-26T10:14:38Z</time>
      </trkpt>
      <trkpt lat="45.43002" lon="5.76856">
        <ele>400.4</ele>
        <time>2019-04-26T10:14:39Z</time>
      </trkpt>
      <trkpt lat="45.43005" lon="5.76857">
        <ele>400.5</ele>
        <time>2019-04-26T10:14:40Z</time>
      </trkpt>
      <trkpt lat="45.43009" lon="5.76859">
        <ele>400.5</ele>
        <time>2019-04-26T10:14:41Z</time>
      </trkpt>
      <trkpt lat="45.43013" lon="5.76861">
        <ele>400.5</ele>
        <time>2019-04-26T10:14:42Z</time>
      </trkpt>
      <trkpt lat="45.43017" lon="5.76862">
        <ele>400.5</ele>
        <time>2019-04-26T10:14:43Z</time>
      </trkpt>
      <trkpt lat="45.43021" lon="5.76864">
        <ele>400.5</ele>
        <time>2019-04-26T10:14:44Z</time>
      </trkpt>
      <trkpt lat="45.43025" lon="5.76867">
        <ele>400.5</ele>
        <time>2019-04-26T10:14:45Z</time>
      </trkpt>
      <trkpt lat="45.43029" lon="5.7687">
        <ele>400.5</ele>
        <time>2019-04-26T10:14:46Z</time>
      </trkpt>
      <trkpt lat="45.43033" lon="5.76872">
        <ele>400.5</ele>
        <time>2019-04-26T10:14:47Z</time>
      </trkpt>
      <trkpt lat="45.43036" lon="5.76875">
        <ele>400.5</ele>
        <time>2019-04-26T10:14:48Z</time>
      </trkpt>
      <trkpt lat="45.4304" lon="5.76877">
        <ele>400.5</ele>
        <time>2019-04-26T10:14:49Z</time>
      </trkpt>
      <trkpt lat="45.43044" lon="5.76879">
        <ele>400.5</ele>
        <time>2019-04-26T10:14:50Z</time>
      </trkpt>
      <trkpt lat="45.43048" lon="5.76882">
        <ele>400.5</ele>
        <time>2019-04-26T10:14:51Z</time>
      </trkpt>
      <trkpt lat="45.43052" lon="5.76885">
        <ele>400.5</ele>
        <time>2019-04-26T10:14:52Z</time>
      </trkpt>
      <trkpt lat="45.43056" lon="5.76888">
        <ele>400.5</ele>
        <time>2019-04-26T10:14:53Z</time>
      </trkpt>
      <trkpt lat="45.4306" lon="5.7689">
        <ele>400.5</ele>
        <time>2019-04-26T10:14:54Z</time>
      </trkpt>
      <trkpt lat="45.43066" lon="5.76896">
        <ele>400.5</ele>
        <time>2019-04-26T10:14:55Z</time>
      </trkpt>
      <trkpt lat="45.43071" lon="5.76901">
        <ele>400.5</ele>
        <time>2019-04-26T10:14:56Z</time>
      </trkpt>
      <trkpt lat="45.43077" lon="5.769">
        <ele>400.5</ele>
        <time>2019-04-26T10:14:59Z</time>
      </trkpt>
      <trkpt lat="45.43081" lon="5.769">
        <ele>400.5</ele>
        <time>2019-04-26T10:15:02Z</time>
      </trkpt>
      <trkpt lat="45.43085" lon="5.76899">
        <ele>400.5</ele>
        <time>2019-04-26T10:15:03Z</time>
      </trkpt>
      <trkpt lat="45.43127" lon="5.76896">
        <ele>400.6</ele>
        <time>2019-04-26T10:15:05Z</time>
      </trkpt>
      <trkpt lat="45.43143" lon="5.76897">
        <ele>400.6</ele>
        <time>2019-04-26T10:15:18Z</time>
      </trkpt>
      <trkpt lat="45.43146" lon="5.76899">
        <ele>400.7</ele>
        <time>2019-04-26T10:15:23Z</time>
      </trkpt>
      <trkpt lat="45.43147" lon="5.76903">
        <ele>400.8</ele>
        <time>2019-04-26T10:15:26Z</time>
      </trkpt>
      <trkpt lat="45.43146" lon="5.76908">
        <ele>400.9</ele>
        <time>2019-04-26T10:15:29Z</time>
      </trkpt>
      <trkpt lat="45.43145" lon="5.76912">
        <ele>400.9</ele>
        <time>2019-04-26T10:15:31Z</time>
      </trkpt>
      <trkpt lat="45.43143" lon="5.76916">
        <ele>401</ele>
        <time>2019-04-26T10:15:33Z</time>
      </trkpt>
      <trkpt lat="45.43141" lon="5.76921">
        <ele>401.1</ele>
        <time>2019-04-26T10:15:35Z</time>
      </trkpt>
      <trkpt lat="45.43139" lon="5.76928">
        <ele>401.1</ele>
        <time>2019-04-26T10:15:37Z</time>
      </trkpt>
      <trkpt lat="45.43137" lon="5.76931">
        <ele>401.2</ele>
        <time>2019-04-26T10:15:38Z</time>
      </trkpt>
      <trkpt lat="45.43136" lon="5.76935">
        <ele>401.2</ele>
        <time>2019-04-26T10:15:39Z</time>
      </trkpt>
      <trkpt lat="45.43135" lon="5.76939">
        <ele>401.2</ele>
        <time>2019-04-26T10:15:40Z</time>
      </trkpt>
      <trkpt lat="45.43134" lon="5.76944">
        <ele>401.2</ele>
        <time>2019-04-26T10:15:41Z</time>
      </trkpt>
      <trkpt lat="45.43132" lon="5.76949">
        <ele>401.2</ele>
        <time>2019-04-26T10:15:42Z</time>
      </trkpt>
      <trkpt lat="45.43131" lon="5.76953">
        <ele>401.3</ele>
        <time>2019-04-26T10:15:43Z</time>
      </trkpt>
      <trkpt lat="45.4313" lon="5.76958">
        <ele>401.3</ele>
        <time>2019-04-26T10:15:44Z</time>
      </trkpt>
      <trkpt lat="45.43128" lon="5.76964">
        <ele>401.3</ele>
        <time>2019-04-26T10:15:45Z</time>
      </trkpt>
      <trkpt lat="45.43127" lon="5.76969">
        <ele>401.3</ele>
        <time>2019-04-26T10:15:46Z</time>
      </trkpt>
      <trkpt lat="45.43125" lon="5.76976">
        <ele>401.3</ele>
        <time>2019-04-26T10:15:47Z</time>
      </trkpt>
      <trkpt lat="45.43124" lon="5.76981">
        <ele>401.3</ele>
        <time>2019-04-26T10:15:48Z</time>
      </trkpt>
      <trkpt lat="45.43122" lon="5.76987">
        <ele>401.3</ele>
        <time>2019-04-26T10:15:49Z</time>
      </trkpt>
      <trkpt lat="45.4312" lon="5.76994">
        <ele>401.2</ele>
        <time>2019-04-26T10:15:50Z</time>
      </trkpt>
      <trkpt lat="45.43118" lon="5.77001">
        <ele>401.2</ele>
        <time>2019-04-26T10:15:51Z</time>
      </trkpt>
      <trkpt lat="45.43108" lon="5.77037">
        <ele>401.4</ele>
        <time>2019-04-26T10:15:53Z</time>
      </trkpt>
      <trkpt lat="45.43106" lon="5.77045">
        <ele>401.5</ele>
        <time>2019-04-26T10:15:54Z</time>
      </trkpt>
      <trkpt lat="45.43103" lon="5.77052">
        <ele>401.6</ele>
        <time>2019-04-26T10:15:55Z</time>
      </trkpt>
      <trkpt lat="45.43101" lon="5.7706">
        <ele>401.7</ele>
        <time>2019-04-26T10:15:56Z</time>
      </trkpt>
      <trkpt lat="45.43098" lon="5.77068">
        <ele>401.9</ele>
        <time>2019-04-26T10:15:57Z</time>
      </trkpt>
      <trkpt lat="45.43096" lon="5.77076">
        <ele>402</ele>
        <time>2019-04-26T10:15:58Z</time>
      </trkpt>
      <trkpt lat="45.43093" lon="5.77086">
        <ele>402.1</ele>
        <time>2019-04-26T10:15:59Z</time>
      </trkpt>
      <trkpt lat="45.43089" lon="5.77095">
        <ele>402.3</ele>
        <time>2019-04-26T10:16:00Z</time>
      </trkpt>
      <trkpt lat="45.43086" lon="5.77104">
        <ele>402.5</ele>
        <time>2019-04-26T10:16:01Z</time>
      </trkpt>
      <trkpt lat="45.43084" lon="5.77111">
        <ele>402.6</ele>
        <time>2019-04-26T10:16:02Z</time>
      </trkpt>
      <trkpt lat="45.43082" lon="5.77115">
        <ele>402.7</ele>
        <time>2019-04-26T10:16:03Z</time>
      </trkpt>
      <trkpt lat="45.43081" lon="5.77122">
        <ele>402.9</ele>
        <time>2019-04-26T10:16:05Z</time>
      </trkpt>
      <trkpt lat="45.43079" lon="5.77128">
        <ele>403</ele>
        <time>2019-04-26T10:16:06Z</time>
      </trkpt>
      <trkpt lat="45.43079" lon="5.77133">
        <ele>403.1</ele>
        <time>2019-04-26T10:16:07Z</time>
      </trkpt>
      <trkpt lat="45.43079" lon="5.77138">
        <ele>403.2</ele>
        <time>2019-04-26T10:16:08Z</time>
      </trkpt>
      <trkpt lat="45.43081" lon="5.77136">
        <ele>403.3</ele>
        <time>2019-04-26T10:16:09Z</time>
      </trkpt>
      <trkpt lat="45.43081" lon="5.77141">
        <ele>403.3</ele>
        <time>2019-04-26T10:16:10Z</time>
      </trkpt>
      <trkpt lat="45.43081" lon="5.77145">
        <ele>403.4</ele>
        <time>2019-04-26T10:16:11Z</time>
      </trkpt>
      <trkpt lat="45.43082" lon="5.77149">
        <ele>403.5</ele>
        <time>2019-04-26T10:16:12Z</time>
      </trkpt>
      <trkpt lat="45.43083" lon="5.77154">
        <ele>403.6</ele>
        <time>2019-04-26T10:16:13Z</time>
      </trkpt>
      <trkpt lat="45.43084" lon="5.77159">
        <ele>403.7</ele>
        <time>2019-04-26T10:16:14Z</time>
      </trkpt>
      <trkpt lat="45.43084" lon="5.77163">
        <ele>403.8</ele>
        <time>2019-04-26T10:16:15Z</time>
      </trkpt>
      <trkpt lat="45.43085" lon="5.77168">
        <ele>403.9</ele>
        <time>2019-04-26T10:16:16Z</time>
      </trkpt>
      <trkpt lat="45.43086" lon="5.77173">
        <ele>404</ele>
        <time>2019-04-26T10:16:17Z</time>
      </trkpt>
      <trkpt lat="45.43087" lon="5.77178">
        <ele>404.2</ele>
        <time>2019-04-26T10:16:18Z</time>
      </trkpt>
      <trkpt lat="45.43088" lon="5.77182">
        <ele>404.2</ele>
        <time>2019-04-26T10:16:19Z</time>
      </trkpt>
      <trkpt lat="45.43088" lon="5.77187">
        <ele>404.3</ele>
        <time>2019-04-26T10:16:20Z</time>
      </trkpt>
      <trkpt lat="45.43086" lon="5.77189">
        <ele>404.4</ele>
        <time>2019-04-26T10:16:22Z</time>
      </trkpt>
      <trkpt lat="45.43085" lon="5.77183">
        <ele>404.5</ele>
        <time>2019-04-26T10:16:25Z</time>
      </trkpt>
      <trkpt lat="45.43086" lon="5.77179">
        <ele>404.5</ele>
        <time>2019-04-26T10:16:27Z</time>
      </trkpt>
      <trkpt lat="45.43086" lon="5.77174">
        <ele>404.4</ele>
        <time>2019-04-26T10:16:29Z</time>
      </trkpt>
      <trkpt lat="45.43086" lon="5.77168">
        <ele>404.3</ele>
        <time>2019-04-26T10:16:31Z</time>
      </trkpt>
      <trkpt lat="45.43086" lon="5.77161">
        <ele>404.2</ele>
        <time>2019-04-26T10:16:33Z</time>
      </trkpt>
      <trkpt lat="45.43085" lon="5.77156">
        <ele>404.1</ele>
        <time>2019-04-26T10:16:34Z</time>
      </trkpt>
      <trkpt lat="45.43086" lon="5.77151">
        <ele>404</ele>
        <time>2019-04-26T10:16:35Z</time>
      </trkpt>
      <trkpt lat="45.43086" lon="5.77146">
        <ele>403.9</ele>
        <time>2019-04-26T10:16:36Z</time>
      </trkpt>
      <trkpt lat="45.43086" lon="5.77142">
        <ele>403.8</ele>
        <time>2019-04-26T10:16:37Z</time>
      </trkpt>
      <trkpt lat="45.43086" lon="5.77136">
        <ele>403.7</ele>
        <time>2019-04-26T10:16:38Z</time>
      </trkpt>
      <trkpt lat="45.43086" lon="5.77131">
        <ele>403.5</ele>
        <time>2019-04-26T10:16:39Z</time>
      </trkpt>
      <trkpt lat="45.43087" lon="5.77126">
        <ele>403.4</ele>
        <time>2019-04-26T10:16:40Z</time>
      </trkpt>
      <trkpt lat="45.43087" lon="5.7712">
        <ele>403.3</ele>
        <time>2019-04-26T10:16:41Z</time>
      </trkpt>
      <trkpt lat="45.43089" lon="5.77114">
        <ele>403.1</ele>
        <time>2019-04-26T10:16:42Z</time>
      </trkpt>
      <trkpt lat="45.4309" lon="5.77108">
        <ele>403</ele>
        <time>2019-04-26T10:16:43Z</time>
      </trkpt>
      <trkpt lat="45.43093" lon="5.77101">
        <ele>402.8</ele>
        <time>2019-04-26T10:16:44Z</time>
      </trkpt>
      <trkpt lat="45.43095" lon="5.77094">
        <ele>402.7</ele>
        <time>2019-04-26T10:16:45Z</time>
      </trkpt>
      <trkpt lat="45.43097" lon="5.77088">
        <ele>402.5</ele>
        <time>2019-04-26T10:16:46Z</time>
      </trkpt>
      <trkpt lat="45.43099" lon="5.77082">
        <ele>402.4</ele>
        <time>2019-04-26T10:16:47Z</time>
      </trkpt>
      <trkpt lat="45.431" lon="5.77077">
        <ele>402.3</ele>
        <time>2019-04-26T10:16:48Z</time>
      </trkpt>
      <trkpt lat="45.43101" lon="5.77069">
        <ele>402.1</ele>
        <time>2019-04-26T10:16:50Z</time>
      </trkpt>
      <trkpt lat="45.43103" lon="5.77065">
        <ele>402.1</ele>
        <time>2019-04-26T10:16:51Z</time>
      </trkpt>
      <trkpt lat="45.43104" lon="5.77061">
        <ele>402</ele>
        <time>2019-04-26T10:16:52Z</time>
      </trkpt>
      <trkpt lat="45.43105" lon="5.77055">
        <ele>401.9</ele>
        <time>2019-04-26T10:16:54Z</time>
      </trkpt>
      <trkpt lat="45.43106" lon="5.77051">
        <ele>401.8</ele>
        <time>2019-04-26T10:16:55Z</time>
      </trkpt>
      <trkpt lat="45.43107" lon="5.77047">
        <ele>401.7</ele>
        <time>2019-04-26T10:16:56Z</time>
      </trkpt>
      <trkpt lat="45.43109" lon="5.77043">
        <ele>401.6</ele>
        <time>2019-04-26T10:16:57Z</time>
      </trkpt>
      <trkpt lat="45.4311" lon="5.77038">
        <ele>401.6</ele>
        <time>2019-04-26T10:16:58Z</time>
      </trkpt>
      <trkpt lat="45.43112" lon="5.77032">
        <ele>401.5</ele>
        <time>2019-04-26T10:16:59Z</time>
      </trkpt>
      <trkpt lat="45.43114" lon="5.77025">
        <ele>401.4</ele>
        <time>2019-04-26T10:17:00Z</time>
      </trkpt>
      <trkpt lat="45.43116" lon="5.77018">
        <ele>401.3</ele>
        <time>2019-04-26T10:17:01Z</time>
      </trkpt>
      <trkpt lat="45.43118" lon="5.77013">
        <ele>401.3</ele>
        <time>2019-04-26T10:17:02Z</time>
      </trkpt>
      <trkpt lat="45.43119" lon="5.7701">
        <ele>401.3</ele>
        <time>2019-04-26T10:17:03Z</time>
      </trkpt>
      <trkpt lat="45.43121" lon="5.77005">
        <ele>401.3</ele>
        <time>2019-04-26T10:17:04Z</time>
      </trkpt>
      <trkpt lat="45.43122" lon="5.76999">
        <ele>401.2</ele>
        <time>2019-04-26T10:17:05Z</time>
      </trkpt>
      <trkpt lat="45.43124" lon="5.76993">
        <ele>401.2</ele>
        <time>2019-04-26T10:17:06Z</time>
      </trkpt>
      <trkpt lat="45.43125" lon="5.76987">
        <ele>401.2</ele>
        <time>2019-04-26T10:17:07Z</time>
      </trkpt>
      <trkpt lat="45.43127" lon="5.76982">
        <ele>401.3</ele>
        <time>2019-04-26T10:17:08Z</time>
      </trkpt>
      <trkpt lat="45.43129" lon="5.76976">
        <ele>401.3</ele>
        <time>2019-04-26T10:17:09Z</time>
      </trkpt>
      <trkpt lat="45.43131" lon="5.7697">
        <ele>401.3</ele>
        <time>2019-04-26T10:17:10Z</time>
      </trkpt>
      <trkpt lat="45.43133" lon="5.76964">
        <ele>401.3</ele>
        <time>2019-04-26T10:17:11Z</time>
      </trkpt>
      <trkpt lat="45.43135" lon="5.76956">
        <ele>401.3</ele>
        <time>2019-04-26T10:17:12Z</time>
      </trkpt>
      <trkpt lat="45.43138" lon="5.76949">
        <ele>401.2</ele>
        <time>2019-04-26T10:17:13Z</time>
      </trkpt>
      <trkpt lat="45.4314" lon="5.76942">
        <ele>401.2</ele>
        <time>2019-04-26T10:17:14Z</time>
      </trkpt>
      <trkpt lat="45.43142" lon="5.76936">
        <ele>401.2</ele>
        <time>2019-04-26T10:17:15Z</time>
      </trkpt>
      <trkpt lat="45.43144" lon="5.7693">
        <ele>401.1</ele>
        <time>2019-04-26T10:17:16Z</time>
      </trkpt>
      <trkpt lat="45.43146" lon="5.76924">
        <ele>401.1</ele>
        <time>2019-04-26T10:17:17Z</time>
      </trkpt>
      <trkpt lat="45.43148" lon="5.76919">
        <ele>401</ele>
        <time>2019-04-26T10:17:18Z</time>
      </trkpt>
      <trkpt lat="45.4315" lon="5.76914">
        <ele>400.9</ele>
        <time>2019-04-26T10:17:19Z</time>
      </trkpt>
      <trkpt lat="45.43152" lon="5.7691">
        <ele>400.8</ele>
        <time>2019-04-26T10:17:20Z</time>
      </trkpt>
      <trkpt lat="45.43155" lon="5.76906">
        <ele>400.7</ele>
        <time>2019-04-26T10:17:21Z</time>
      </trkpt>
      <trkpt lat="45.43157" lon="5.76903">
        <ele>400.6</ele>
        <time>2019-04-26T10:17:22Z</time>
      </trkpt>
      <trkpt lat="45.4316" lon="5.769">
        <ele>400.6</ele>
        <time>2019-04-26T10:17:23Z</time>
      </trkpt>
      <trkpt lat="45.43163" lon="5.76898">
        <ele>400.6</ele>
        <time>2019-04-26T10:17:24Z</time>
      </trkpt>
      <trkpt lat="45.43167" lon="5.76893">
        <ele>400.6</ele>
        <time>2019-04-26T10:17:26Z</time>
      </trkpt>
      <trkpt lat="45.43164" lon="5.76895">
        <ele>400.6</ele>
        <time>2019-04-26T10:17:28Z</time>
      </trkpt>
      <trkpt lat="45.43166" lon="5.76891">
        <ele>400.6</ele>
        <time>2019-04-26T10:17:33Z</time>
      </trkpt>
      <trkpt lat="45.43169" lon="5.76887">
        <ele>400.6</ele>
        <time>2019-04-26T10:17:36Z</time>
      </trkpt>
      <trkpt lat="45.4317" lon="5.76883">
        <ele>400.6</ele>
        <time>2019-04-26T10:17:38Z</time>
      </trkpt>
      <trkpt lat="45.43172" lon="5.76878">
        <ele>400.6</ele>
        <time>2019-04-26T10:17:40Z</time>
      </trkpt>
      <trkpt lat="45.43173" lon="5.76874">
        <ele>400.6</ele>
        <time>2019-04-26T10:17:41Z</time>
      </trkpt>
      <trkpt lat="45.43174" lon="5.7687">
        <ele>400.6</ele>
        <time>2019-04-26T10:17:42Z</time>
      </trkpt>
      <trkpt lat="45.43175" lon="5.76866">
        <ele>400.6</ele>
        <time>2019-04-26T10:17:43Z</time>
      </trkpt>
      <trkpt lat="45.43177" lon="5.76862">
        <ele>400.6</ele>
        <time>2019-04-26T10:17:44Z</time>
      </trkpt>
      <trkpt lat="45.43178" lon="5.76857">
        <ele>400.6</ele>
        <time>2019-04-26T10:17:45Z</time>
      </trkpt>
      <trkpt lat="45.4318" lon="5.76851">
        <ele>400.6</ele>
        <time>2019-04-26T10:17:46Z</time>
      </trkpt>
      <trkpt lat="45.43182" lon="5.76844">
        <ele>400.6</ele>
        <time>2019-04-26T10:17:47Z</time>
      </trkpt>
      <trkpt lat="45.43184" lon="5.76837">
        <ele>400.6</ele>
        <time>2019-04-26T10:17:48Z</time>
      </trkpt>
      <trkpt lat="45.43186" lon="5.76829">
        <ele>400.6</ele>
        <time>2019-04-26T10:17:49Z</time>
      </trkpt>
      <trkpt lat="45.43189" lon="5.76821">
        <ele>400.6</ele>
        <time>2019-04-26T10:17:50Z</time>
      </trkpt>
      <trkpt lat="45.43191" lon="5.76813">
        <ele>400.6</ele>
        <time>2019-04-26T10:17:51Z</time>
      </trkpt>
      <trkpt lat="45.43193" lon="5.76804">
        <ele>400.6</ele>
        <time>2019-04-26T10:17:52Z</time>
      </trkpt>
      <trkpt lat="45.43196" lon="5.76796">
        <ele>400.6</ele>
        <time>2019-04-26T10:17:53Z</time>
      </trkpt>
      <trkpt lat="45.43198" lon="5.76789">
        <ele>400.6</ele>
        <time>2019-04-26T10:17:54Z</time>
      </trkpt>
      <trkpt lat="45.432" lon="5.76781">
        <ele>400.6</ele>
        <time>2019-04-26T10:17:55Z</time>
      </trkpt>
      <trkpt lat="45.43202" lon="5.76773">
        <ele>400.6</ele>
        <time>2019-04-26T10:17:56Z</time>
      </trkpt>
      <trkpt lat="45.43204" lon="5.76766">
        <ele>400.5</ele>
        <time>2019-04-26T10:17:57Z</time>
      </trkpt>
      <trkpt lat="45.43206" lon="5.76758">
        <ele>400.5</ele>
        <time>2019-04-26T10:17:58Z</time>
      </trkpt>
      <trkpt lat="45.43208" lon="5.76752">
        <ele>400.4</ele>
        <time>2019-04-26T10:17:59Z</time>
      </trkpt>
      <trkpt lat="45.4321" lon="5.76746">
        <ele>400.4</ele>
        <time>2019-04-26T10:18:00Z</time>
      </trkpt>
      <trkpt lat="45.43212" lon="5.76737">
        <ele>400.3</ele>
        <time>2019-04-26T10:18:01Z</time>
      </trkpt>
      <trkpt lat="45.43214" lon="5.76727">
        <ele>400.3</ele>
        <time>2019-04-26T10:18:02Z</time>
      </trkpt>
      <trkpt lat="45.43216" lon="5.76718">
        <ele>400.2</ele>
        <time>2019-04-26T10:18:03Z</time>
      </trkpt>
      <trkpt lat="45.43217" lon="5.7671">
        <ele>400.2</ele>
        <time>2019-04-26T10:18:04Z</time>
      </trkpt>
      <trkpt lat="45.43219" lon="5.76703">
        <ele>400.3</ele>
        <time>2019-04-26T10:18:05Z</time>
      </trkpt>
      <trkpt lat="45.43221" lon="5.76698">
        <ele>400.3</ele>
        <time>2019-04-26T10:18:06Z</time>
      </trkpt>
      <trkpt lat="45.43225" lon="5.76694">
        <ele>400.4</ele>
        <time>2019-04-26T10:18:08Z</time>
      </trkpt>
      <trkpt lat="45.4323" lon="5.76697">
        <ele>400.5</ele>
        <time>2019-04-26T10:18:10Z</time>
      </trkpt>
      <trkpt lat="45.43232" lon="5.76701">
        <ele>400.5</ele>
        <time>2019-04-26T10:18:11Z</time>
      </trkpt>
      <trkpt lat="45.43234" lon="5.76705">
        <ele>400.6</ele>
        <time>2019-04-26T10:18:12Z</time>
      </trkpt>
      <trkpt lat="45.43236" lon="5.76709">
        <ele>400.6</ele>
        <time>2019-04-26T10:18:13Z</time>
      </trkpt>
      <trkpt lat="45.43238" lon="5.76713">
        <ele>400.7</ele>
        <time>2019-04-26T10:18:14Z</time>
      </trkpt>
      <trkpt lat="45.43241" lon="5.76717">
        <ele>400.7</ele>
        <time>2019-04-26T10:18:15Z</time>
      </trkpt>
      <trkpt lat="45.43243" lon="5.7672">
        <ele>400.8</ele>
        <time>2019-04-26T10:18:16Z</time>
      </trkpt>
      <trkpt lat="45.43246" lon="5.76724">
        <ele>400.8</ele>
        <time>2019-04-26T10:18:17Z</time>
      </trkpt>
      <trkpt lat="45.43249" lon="5.76728">
        <ele>400.9</ele>
        <time>2019-04-26T10:18:18Z</time>
      </trkpt>
      <trkpt lat="45.43253" lon="5.76732">
        <ele>401</ele>
        <time>2019-04-26T10:18:19Z</time>
      </trkpt>
      <trkpt lat="45.43257" lon="5.76737">
        <ele>401</ele>
        <time>2019-04-26T10:18:20Z</time>
      </trkpt>
      <trkpt lat="45.43261" lon="5.76741">
        <ele>401.1</ele>
        <time>2019-04-26T10:18:21Z</time>
      </trkpt>
      <trkpt lat="45.43265" lon="5.76746">
        <ele>401.3</ele>
        <time>2019-04-26T10:18:22Z</time>
      </trkpt>
      <trkpt lat="45.43269" lon="5.7675">
        <ele>401.4</ele>
        <time>2019-04-26T10:18:23Z</time>
      </trkpt>
      <trkpt lat="45.43274" lon="5.76755">
        <ele>401.5</ele>
        <time>2019-04-26T10:18:24Z</time>
      </trkpt>
      <trkpt lat="45.43278" lon="5.76759">
        <ele>401.6</ele>
        <time>2019-04-26T10:18:25Z</time>
      </trkpt>
      <trkpt lat="45.43282" lon="5.76763">
        <ele>401.6</ele>
        <time>2019-04-26T10:18:26Z</time>
      </trkpt>
      <trkpt lat="45.43287" lon="5.76769">
        <ele>401.7</ele>
        <time>2019-04-26T10:18:27Z</time>
      </trkpt>
      <trkpt lat="45.43293" lon="5.76774">
        <ele>401.8</ele>
        <time>2019-04-26T10:18:28Z</time>
      </trkpt>
      <trkpt lat="45.43298" lon="5.76779">
        <ele>401.9</ele>
        <time>2019-04-26T10:18:29Z</time>
      </trkpt>
      <trkpt lat="45.43303" lon="5.76783">
        <ele>402</ele>
        <time>2019-04-26T10:18:30Z</time>
      </trkpt>
      <trkpt lat="45.43308" lon="5.76786">
        <ele>402</ele>
        <time>2019-04-26T10:18:31Z</time>
      </trkpt>
      <trkpt lat="45.43312" lon="5.76789">
        <ele>402.1</ele>
        <time>2019-04-26T10:18:32Z</time>
      </trkpt>
      <trkpt lat="45.43317" lon="5.76793">
        <ele>402.1</ele>
        <time>2019-04-26T10:18:33Z</time>
      </trkpt>
      <trkpt lat="45.43321" lon="5.76796">
        <ele>402.2</ele>
        <time>2019-04-26T10:18:34Z</time>
      </trkpt>
      <trkpt lat="45.43325" lon="5.76799">
        <ele>402.2</ele>
        <time>2019-04-26T10:18:35Z</time>
      </trkpt>
      <trkpt lat="45.43329" lon="5.76802">
        <ele>402.3</ele>
        <time>2019-04-26T10:18:36Z</time>
      </trkpt>
      <trkpt lat="45.43332" lon="5.76805">
        <ele>402.3</ele>
        <time>2019-04-26T10:18:37Z</time>
      </trkpt>
      <trkpt lat="45.43336" lon="5.76809">
        <ele>402.3</ele>
        <time>2019-04-26T10:18:38Z</time>
      </trkpt>
      <trkpt lat="45.43339" lon="5.76813">
        <ele>402.4</ele>
        <time>2019-04-26T10:18:39Z</time>
      </trkpt>
      <trkpt lat="45.43342" lon="5.76817">
        <ele>402.4</ele>
        <time>2019-04-26T10:18:40Z</time>
      </trkpt>
      <trkpt lat="45.43346" lon="5.76821">
        <ele>402.4</ele>
        <time>2019-04-26T10:18:41Z</time>
      </trkpt>
      <trkpt lat="45.43349" lon="5.76824">
        <ele>402.5</ele>
        <time>2019-04-26T10:18:42Z</time>
      </trkpt>
      <trkpt lat="45.43353" lon="5.76829">
        <ele>402.5</ele>
        <time>2019-04-26T10:18:43Z</time>
      </trkpt>
      <trkpt lat="45.43356" lon="5.76833">
        <ele>402.5</ele>
        <time>2019-04-26T10:18:44Z</time>
      </trkpt>
      <trkpt lat="45.43358" lon="5.76837">
        <ele>402.6</ele>
        <time>2019-04-26T10:18:45Z</time>
      </trkpt>
      <trkpt lat="45.43361" lon="5.76841">
        <ele>402.6</ele>
        <time>2019-04-26T10:18:46Z</time>
      </trkpt>
      <trkpt lat="45.43364" lon="5.76846">
        <ele>402.6</ele>
        <time>2019-04-26T10:18:47Z</time>
      </trkpt>
      <trkpt lat="45.43367" lon="5.7685">
        <ele>402.6</ele>
        <time>2019-04-26T10:18:48Z</time>
      </trkpt>
      <trkpt lat="45.43369" lon="5.76854">
        <ele>402.7</ele>
        <time>2019-04-26T10:18:49Z</time>
      </trkpt>
      <trkpt lat="45.43371" lon="5.76857">
        <ele>402.7</ele>
        <time>2019-04-26T10:18:50Z</time>
      </trkpt>
      <trkpt lat="45.43374" lon="5.7686">
        <ele>402.7</ele>
        <time>2019-04-26T10:18:51Z</time>
      </trkpt>
      <trkpt lat="45.43377" lon="5.76865">
        <ele>402.7</ele>
        <time>2019-04-26T10:18:52Z</time>
      </trkpt>
      <trkpt lat="45.4338" lon="5.7687">
        <ele>402.8</ele>
        <time>2019-04-26T10:18:53Z</time>
      </trkpt>
      <trkpt lat="45.43382" lon="5.76874">
        <ele>402.8</ele>
        <time>2019-04-26T10:18:55Z</time>
      </trkpt>
      <trkpt lat="45.43384" lon="5.76878">
        <ele>402.8</ele>
        <time>2019-04-26T10:18:57Z</time>
      </trkpt>
      <trkpt lat="45.43388" lon="5.76883">
        <ele>402.9</ele>
        <time>2019-04-26T10:18:58Z</time>
      </trkpt>
      <trkpt lat="45.43391" lon="5.76888">
        <ele>402.9</ele>
        <time>2019-04-26T10:18:59Z</time>
      </trkpt>
      <trkpt lat="45.43394" lon="5.76893">
        <ele>403</ele>
        <time>2019-04-26T10:19:00Z</time>
      </trkpt>
      <trkpt lat="45.43398" lon="5.769">
        <ele>403</ele>
        <time>2019-04-26T10:19:01Z</time>
      </trkpt>
      <trkpt lat="45.43402" lon="5.76905">
        <ele>403.1</ele>
        <time>2019-04-26T10:19:02Z</time>
      </trkpt>
      <trkpt lat="45.43406" lon="5.7691">
        <ele>403.1</ele>
        <time>2019-04-26T10:19:03Z</time>
      </trkpt>
      <trkpt lat="45.43411" lon="5.76916">
        <ele>403.2</ele>
        <time>2019-04-26T10:19:04Z</time>
      </trkpt>
      <trkpt lat="45.43415" lon="5.76922">
        <ele>403.2</ele>
        <time>2019-04-26T10:19:05Z</time>
      </trkpt>
      <trkpt lat="45.43419" lon="5.76928">
        <ele>403.3</ele>
        <time>2019-04-26T10:19:06Z</time>
      </trkpt>
      <trkpt lat="45.43423" lon="5.76933">
        <ele>403.3</ele>
        <time>2019-04-26T10:19:07Z</time>
      </trkpt>
      <trkpt lat="45.43425" lon="5.76937">
        <ele>403.4</ele>
        <time>2019-04-26T10:19:08Z</time>
      </trkpt>
      <trkpt lat="45.43429" lon="5.76943">
        <ele>403.4</ele>
        <time>2019-04-26T10:19:09Z</time>
      </trkpt>
      <trkpt lat="45.43432" lon="5.76947">
        <ele>403.4</ele>
        <time>2019-04-26T10:19:10Z</time>
      </trkpt>
      <trkpt lat="45.43434" lon="5.76952">
        <ele>403.5</ele>
        <time>2019-04-26T10:19:11Z</time>
      </trkpt>
      <trkpt lat="45.43437" lon="5.76957">
        <ele>403.5</ele>
        <time>2019-04-26T10:19:12Z</time>
      </trkpt>
      <trkpt lat="45.43439" lon="5.76961">
        <ele>403.6</ele>
        <time>2019-04-26T10:19:13Z</time>
      </trkpt>
      <trkpt lat="45.43443" lon="5.76965">
        <ele>403.6</ele>
        <time>2019-04-26T10:19:14Z</time>
      </trkpt>
      <trkpt lat="45.43446" lon="5.7697">
        <ele>403.7</ele>
        <time>2019-04-26T10:19:15Z</time>
      </trkpt>
      <trkpt lat="45.43446" lon="5.76976">
        <ele>403.7</ele>
        <time>2019-04-26T10:19:16Z</time>
      </trkpt>
      <trkpt lat="45.43448" lon="5.76981">
        <ele>403.8</ele>
        <time>2019-04-26T10:19:17Z</time>
      </trkpt>
      <trkpt lat="45.43452" lon="5.76986">
        <ele>403.8</ele>
        <time>2019-04-26T10:19:18Z</time>
      </trkpt>
      <trkpt lat="45.43456" lon="5.7699">
        <ele>403.9</ele>
        <time>2019-04-26T10:19:19Z</time>
      </trkpt>
      <trkpt lat="45.43459" lon="5.76992">
        <ele>403.9</ele>
        <time>2019-04-26T10:19:20Z</time>
      </trkpt>
      <trkpt lat="45.43461" lon="5.76996">
        <ele>404</ele>
        <time>2019-04-26T10:19:21Z</time>
      </trkpt>
      <trkpt lat="45.43464" lon="5.76999">
        <ele>404</ele>
        <time>2019-04-26T10:19:22Z</time>
      </trkpt>
      <trkpt lat="45.43468" lon="5.77003">
        <ele>404.1</ele>
        <time>2019-04-26T10:19:23Z</time>
      </trkpt>
      <trkpt lat="45.43471" lon="5.77008">
        <ele>404.1</ele>
        <time>2019-04-26T10:19:24Z</time>
      </trkpt>
      <trkpt lat="45.43475" lon="5.77013">
        <ele>404.2</ele>
        <time>2019-04-26T10:19:25Z</time>
      </trkpt>
      <trkpt lat="45.43477" lon="5.77017">
        <ele>404.2</ele>
        <time>2019-04-26T10:19:26Z</time>
      </trkpt>
      <trkpt lat="45.4348" lon="5.7702">
        <ele>404.3</ele>
        <time>2019-04-26T10:19:27Z</time>
      </trkpt>
      <trkpt lat="45.43483" lon="5.77024">
        <ele>404.3</ele>
        <time>2019-04-26T10:19:28Z</time>
      </trkpt>
      <trkpt lat="45.43486" lon="5.77028">
        <ele>404.4</ele>
        <time>2019-04-26T10:19:29Z</time>
      </trkpt>
      <trkpt lat="45.43488" lon="5.77031">
        <ele>404.4</ele>
        <time>2019-04-26T10:19:30Z</time>
      </trkpt>
      <trkpt lat="45.43491" lon="5.77034">
        <ele>404.5</ele>
        <time>2019-04-26T10:19:31Z</time>
      </trkpt>
      <trkpt lat="45.43493" lon="5.77037">
        <ele>404.5</ele>
        <time>2019-04-26T10:19:32Z</time>
      </trkpt>
      <trkpt lat="45.43496" lon="5.77039">
        <ele>404.6</ele>
        <time>2019-04-26T10:19:33Z</time>
      </trkpt>
      <trkpt lat="45.43498" lon="5.77043">
        <ele>404.6</ele>
        <time>2019-04-26T10:19:34Z</time>
      </trkpt>
      <trkpt lat="45.43501" lon="5.77046">
        <ele>404.7</ele>
        <time>2019-04-26T10:19:35Z</time>
      </trkpt>
      <trkpt lat="45.43504" lon="5.77049">
        <ele>404.7</ele>
        <time>2019-04-26T10:19:36Z</time>
      </trkpt>
      <trkpt lat="45.43506" lon="5.77052">
        <ele>404.8</ele>
        <time>2019-04-26T10:19:37Z</time>
      </trkpt>
      <trkpt lat="45.43509" lon="5.77055">
        <ele>404.8</ele>
        <time>2019-04-26T10:19:38Z</time>
      </trkpt>
      <trkpt lat="45.43512" lon="5.77059">
        <ele>404.9</ele>
        <time>2019-04-26T10:19:39Z</time>
      </trkpt>
      <trkpt lat="45.43514" lon="5.77061">
        <ele>404.9</ele>
        <time>2019-04-26T10:19:40Z</time>
      </trkpt>
      <trkpt lat="45.43517" lon="5.77065">
        <ele>405</ele>
        <time>2019-04-26T10:19:41Z</time>
      </trkpt>
      <trkpt lat="45.43519" lon="5.77067">
        <ele>405</ele>
        <time>2019-04-26T10:19:42Z</time>
      </trkpt>
      <trkpt lat="45.43523" lon="5.77072">
        <ele>405.1</ele>
        <time>2019-04-26T10:19:44Z</time>
      </trkpt>
      <trkpt lat="45.43525" lon="5.77075">
        <ele>405.2</ele>
        <time>2019-04-26T10:19:45Z</time>
      </trkpt>
      <trkpt lat="45.43528" lon="5.77078">
        <ele>405.2</ele>
        <time>2019-04-26T10:19:46Z</time>
      </trkpt>
      <trkpt lat="45.43531" lon="5.77083">
        <ele>405.3</ele>
        <time>2019-04-26T10:19:47Z</time>
      </trkpt>
      <trkpt lat="45.43533" lon="5.77086">
        <ele>405.3</ele>
        <time>2019-04-26T10:19:48Z</time>
      </trkpt>
      <trkpt lat="45.43537" lon="5.77091">
        <ele>405.4</ele>
        <time>2019-04-26T10:19:49Z</time>
      </trkpt>
      <trkpt lat="45.43539" lon="5.77094">
        <ele>405.4</ele>
        <time>2019-04-26T10:19:50Z</time>
      </trkpt>
      <trkpt lat="45.43543" lon="5.77099">
        <ele>405.5</ele>
        <time>2019-04-26T10:19:51Z</time>
      </trkpt>
      <trkpt lat="45.43552" lon="5.7711">
        <ele>405.6</ele>
        <time>2019-04-26T10:19:52Z</time>
      </trkpt>
      <trkpt lat="45.43556" lon="5.77114">
        <ele>405.7</ele>
        <time>2019-04-26T10:19:53Z</time>
      </trkpt>
      <trkpt lat="45.43561" lon="5.7712">
        <ele>405.7</ele>
        <time>2019-04-26T10:19:54Z</time>
      </trkpt>
      <trkpt lat="45.43565" lon="5.77124">
        <ele>405.8</ele>
        <time>2019-04-26T10:19:55Z</time>
      </trkpt>
      <trkpt lat="45.43573" lon="5.77132">
        <ele>405.9</ele>
        <time>2019-04-26T10:19:56Z</time>
      </trkpt>
      <trkpt lat="45.4358" lon="5.77138">
        <ele>406</ele>
        <time>2019-04-26T10:19:57Z</time>
      </trkpt>
      <trkpt lat="45.43582" lon="5.77142">
        <ele>406.1</ele>
        <time>2019-04-26T10:19:58Z</time>
      </trkpt>
      <trkpt lat="45.43585" lon="5.77147">
        <ele>406.2</ele>
        <time>2019-04-26T10:19:59Z</time>
      </trkpt>
      <trkpt lat="45.43588" lon="5.77151">
        <ele>406.2</ele>
        <time>2019-04-26T10:20:00Z</time>
      </trkpt>
      <trkpt lat="45.4359" lon="5.77155">
        <ele>406.3</ele>
        <time>2019-04-26T10:20:01Z</time>
      </trkpt>
      <trkpt lat="45.43594" lon="5.7716">
        <ele>406.4</ele>
        <time>2019-04-26T10:20:03Z</time>
      </trkpt>
      <trkpt lat="45.43596" lon="5.77165">
        <ele>406.4</ele>
        <time>2019-04-26T10:20:04Z</time>
      </trkpt>
      <trkpt lat="45.436" lon="5.7717">
        <ele>406.5</ele>
        <time>2019-04-26T10:20:05Z</time>
      </trkpt>
      <trkpt lat="45.43603" lon="5.77174">
        <ele>406.6</ele>
        <time>2019-04-26T10:20:06Z</time>
      </trkpt>
      <trkpt lat="45.43606" lon="5.77179">
        <ele>406.7</ele>
        <time>2019-04-26T10:20:07Z</time>
      </trkpt>
      <trkpt lat="45.43609" lon="5.77183">
        <ele>406.7</ele>
        <time>2019-04-26T10:20:08Z</time>
      </trkpt>
      <trkpt lat="45.43612" lon="5.77188">
        <ele>406.8</ele>
        <time>2019-04-26T10:20:09Z</time>
      </trkpt>
      <trkpt lat="45.43615" lon="5.77192">
        <ele>406.9</ele>
        <time>2019-04-26T10:20:10Z</time>
      </trkpt>
      <trkpt lat="45.43619" lon="5.77197">
        <ele>406.9</ele>
        <time>2019-04-26T10:20:11Z</time>
      </trkpt>
      <trkpt lat="45.43622" lon="5.77202">
        <ele>407</ele>
        <time>2019-04-26T10:20:12Z</time>
      </trkpt>
      <trkpt lat="45.43626" lon="5.77204">
        <ele>407</ele>
        <time>2019-04-26T10:20:13Z</time>
      </trkpt>
      <trkpt lat="45.4363" lon="5.77206">
        <ele>407.1</ele>
        <time>2019-04-26T10:20:14Z</time>
      </trkpt>
      <trkpt lat="45.43634" lon="5.77209">
        <ele>407.1</ele>
        <time>2019-04-26T10:20:15Z</time>
      </trkpt>
      <trkpt lat="45.43637" lon="5.77213">
        <ele>407.1</ele>
        <time>2019-04-26T10:20:16Z</time>
      </trkpt>
      <trkpt lat="45.43639" lon="5.7722">
        <ele>407.2</ele>
        <time>2019-04-26T10:20:17Z</time>
      </trkpt>
      <trkpt lat="45.43641" lon="5.77226">
        <ele>407.2</ele>
        <time>2019-04-26T10:20:18Z</time>
      </trkpt>
      <trkpt lat="45.43643" lon="5.77232">
        <ele>407.2</ele>
        <time>2019-04-26T10:20:19Z</time>
      </trkpt>
      <trkpt lat="45.43646" lon="5.77237">
        <ele>407.3</ele>
        <time>2019-04-26T10:20:20Z</time>
      </trkpt>
      <trkpt lat="45.43648" lon="5.77242">
        <ele>407.3</ele>
        <time>2019-04-26T10:20:21Z</time>
      </trkpt>
      <trkpt lat="45.4365" lon="5.77247">
        <ele>407.3</ele>
        <time>2019-04-26T10:20:22Z</time>
      </trkpt>
      <trkpt lat="45.43652" lon="5.77251">
        <ele>407.3</ele>
        <time>2019-04-26T10:20:23Z</time>
      </trkpt>
      <trkpt lat="45.43654" lon="5.77255">
        <ele>407.3</ele>
        <time>2019-04-26T10:20:24Z</time>
      </trkpt>
      <trkpt lat="45.43656" lon="5.7726">
        <ele>407.3</ele>
        <time>2019-04-26T10:20:25Z</time>
      </trkpt>
      <trkpt lat="45.43659" lon="5.77265">
        <ele>407.3</ele>
        <time>2019-04-26T10:20:27Z</time>
      </trkpt>
      <trkpt lat="45.43661" lon="5.77269">
        <ele>407.3</ele>
        <time>2019-04-26T10:20:28Z</time>
      </trkpt>
      <trkpt lat="45.43663" lon="5.77272">
        <ele>407.3</ele>
        <time>2019-04-26T10:20:29Z</time>
      </trkpt>
      <trkpt lat="45.43667" lon="5.77275">
        <ele>407.3</ele>
        <time>2019-04-26T10:20:30Z</time>
      </trkpt>
      <trkpt lat="45.43672" lon="5.77277">
        <ele>407.3</ele>
        <time>2019-04-26T10:20:31Z</time>
      </trkpt>
      <trkpt lat="45.43676" lon="5.77278">
        <ele>407.3</ele>
        <time>2019-04-26T10:20:32Z</time>
      </trkpt>
      <trkpt lat="45.4368" lon="5.77279">
        <ele>407.2</ele>
        <time>2019-04-26T10:20:33Z</time>
      </trkpt>
      <trkpt lat="45.43684" lon="5.7728">
        <ele>407.2</ele>
        <time>2019-04-26T10:20:34Z</time>
      </trkpt>
      <trkpt lat="45.43687" lon="5.7728">
        <ele>407.2</ele>
        <time>2019-04-26T10:20:35Z</time>
      </trkpt>
      <trkpt lat="45.43691" lon="5.7728">
        <ele>407.2</ele>
        <time>2019-04-26T10:20:36Z</time>
      </trkpt>
      <trkpt lat="45.43695" lon="5.77281">
        <ele>407.1</ele>
        <time>2019-04-26T10:20:37Z</time>
      </trkpt>
      <trkpt lat="45.437" lon="5.77281">
        <ele>407.1</ele>
        <time>2019-04-26T10:20:38Z</time>
      </trkpt>
      <trkpt lat="45.43705" lon="5.77281">
        <ele>407.1</ele>
        <time>2019-04-26T10:20:39Z</time>
      </trkpt>
      <trkpt lat="45.4371" lon="5.7728">
        <ele>407</ele>
        <time>2019-04-26T10:20:40Z</time>
      </trkpt>
      <trkpt lat="45.43716" lon="5.7728">
        <ele>407</ele>
        <time>2019-04-26T10:20:41Z</time>
      </trkpt>
      <trkpt lat="45.43722" lon="5.77281">
        <ele>406.9</ele>
        <time>2019-04-26T10:20:42Z</time>
      </trkpt>
      <trkpt lat="45.43725" lon="5.77281">
        <ele>406.9</ele>
        <time>2019-04-26T10:20:43Z</time>
      </trkpt>
      <trkpt lat="45.4373" lon="5.77281">
        <ele>406.9</ele>
        <time>2019-04-26T10:20:45Z</time>
      </trkpt>
      <trkpt lat="45.43733" lon="5.7728">
        <ele>406.9</ele>
        <time>2019-04-26T10:20:46Z</time>
      </trkpt>
      <trkpt lat="45.43736" lon="5.7728">
        <ele>406.9</ele>
        <time>2019-04-26T10:20:47Z</time>
      </trkpt>
      <trkpt lat="45.43739" lon="5.7728">
        <ele>406.9</ele>
        <time>2019-04-26T10:20:48Z</time>
      </trkpt>
      <trkpt lat="45.43743" lon="5.77279">
        <ele>406.9</ele>
        <time>2019-04-26T10:20:49Z</time>
      </trkpt>
      <trkpt lat="45.43747" lon="5.77279">
        <ele>406.9</ele>
        <time>2019-04-26T10:20:50Z</time>
      </trkpt>
      <trkpt lat="45.43751" lon="5.77279">
        <ele>406.9</ele>
        <time>2019-04-26T10:20:51Z</time>
      </trkpt>
      <trkpt lat="45.43755" lon="5.77279">
        <ele>406.9</ele>
        <time>2019-04-26T10:20:52Z</time>
      </trkpt>
      <trkpt lat="45.4376" lon="5.77279">
        <ele>407</ele>
        <time>2019-04-26T10:20:53Z</time>
      </trkpt>
      <trkpt lat="45.43765" lon="5.77279">
        <ele>407</ele>
        <time>2019-04-26T10:20:54Z</time>
      </trkpt>
      <trkpt lat="45.43798" lon="5.7728">
        <ele>407.3</ele>
        <time>2019-04-26T10:20:56Z</time>
      </trkpt>
      <trkpt lat="45.43802" lon="5.7728">
        <ele>407.3</ele>
        <time>2019-04-26T10:20:57Z</time>
      </trkpt>
      <trkpt lat="45.43806" lon="5.77281">
        <ele>407.3</ele>
        <time>2019-04-26T10:20:58Z</time>
      </trkpt>
      <trkpt lat="45.4381" lon="5.77281">
        <ele>407.4</ele>
        <time>2019-04-26T10:20:59Z</time>
      </trkpt>
      <trkpt lat="45.43814" lon="5.77283">
        <ele>407.4</ele>
        <time>2019-04-26T10:21:00Z</time>
      </trkpt>
      <trkpt lat="45.43817" lon="5.77283">
        <ele>407.4</ele>
        <time>2019-04-26T10:21:01Z</time>
      </trkpt>
      <trkpt lat="45.4382" lon="5.77284">
        <ele>407.4</ele>
        <time>2019-04-26T10:21:02Z</time>
      </trkpt>
      <trkpt lat="45.43824" lon="5.77284">
        <ele>407.4</ele>
        <time>2019-04-26T10:21:04Z</time>
      </trkpt>
      <trkpt lat="45.43829" lon="5.77285">
        <ele>407.4</ele>
        <time>2019-04-26T10:21:06Z</time>
      </trkpt>
      <trkpt lat="45.43832" lon="5.77285">
        <ele>407.4</ele>
        <time>2019-04-26T10:21:07Z</time>
      </trkpt>
      <trkpt lat="45.43836" lon="5.77286">
        <ele>407.3</ele>
        <time>2019-04-26T10:21:08Z</time>
      </trkpt>
      <trkpt lat="45.4384" lon="5.77288">
        <ele>407.3</ele>
        <time>2019-04-26T10:21:09Z</time>
      </trkpt>
      <trkpt lat="45.43844" lon="5.77291">
        <ele>407.3</ele>
        <time>2019-04-26T10:21:10Z</time>
      </trkpt>
      <trkpt lat="45.43848" lon="5.77296">
        <ele>407.5</ele>
        <time>2019-04-26T10:21:11Z</time>
      </trkpt>
      <trkpt lat="45.4385" lon="5.773">
        <ele>407.6</ele>
        <time>2019-04-26T10:21:12Z</time>
      </trkpt>
      <trkpt lat="45.43853" lon="5.77304">
        <ele>407.6</ele>
        <time>2019-04-26T10:21:14Z</time>
      </trkpt>
      <trkpt lat="45.43857" lon="5.77308">
        <ele>407.7</ele>
        <time>2019-04-26T10:21:16Z</time>
      </trkpt>
      <trkpt lat="45.43862" lon="5.77312">
        <ele>408.1</ele>
        <time>2019-04-26T10:21:18Z</time>
      </trkpt>
      <trkpt lat="45.43864" lon="5.77315">
        <ele>408.1</ele>
        <time>2019-04-26T10:21:19Z</time>
      </trkpt>
      <trkpt lat="45.43866" lon="5.77319">
        <ele>408.1</ele>
        <time>2019-04-26T10:21:20Z</time>
      </trkpt>
      <trkpt lat="45.43868" lon="5.77324">
        <ele>408</ele>
        <time>2019-04-26T10:21:21Z</time>
      </trkpt>
      <trkpt lat="45.4387" lon="5.7733">
        <ele>408.2</ele>
        <time>2019-04-26T10:21:22Z</time>
      </trkpt>
      <trkpt lat="45.43871" lon="5.77335">
        <ele>408.5</ele>
        <time>2019-04-26T10:21:23Z</time>
      </trkpt>
      <trkpt lat="45.43871" lon="5.77341">
        <ele>408.7</ele>
        <time>2019-04-26T10:21:24Z</time>
      </trkpt>
      <trkpt lat="45.43871" lon="5.77346">
        <ele>408.9</ele>
        <time>2019-04-26T10:21:25Z</time>
      </trkpt>
      <trkpt lat="45.43872" lon="5.77353">
        <ele>409.2</ele>
        <time>2019-04-26T10:21:26Z</time>
      </trkpt>
      <trkpt lat="45.43873" lon="5.77359">
        <ele>409.2</ele>
        <time>2019-04-26T10:21:27Z</time>
      </trkpt>
      <trkpt lat="45.43873" lon="5.77364">
        <ele>409.1</ele>
        <time>2019-04-26T10:21:28Z</time>
      </trkpt>
      <trkpt lat="45.43873" lon="5.77372">
        <ele>409.2</ele>
        <time>2019-04-26T10:21:29Z</time>
      </trkpt>
      <trkpt lat="45.43872" lon="5.77379">
        <ele>409.3</ele>
        <time>2019-04-26T10:21:30Z</time>
      </trkpt>
      <trkpt lat="45.43871" lon="5.77385">
        <ele>409.4</ele>
        <time>2019-04-26T10:21:31Z</time>
      </trkpt>
      <trkpt lat="45.4387" lon="5.77391">
        <ele>409.6</ele>
        <time>2019-04-26T10:21:32Z</time>
      </trkpt>
      <trkpt lat="45.43869" lon="5.77396">
        <ele>409.7</ele>
        <time>2019-04-26T10:21:33Z</time>
      </trkpt>
      <trkpt lat="45.43869" lon="5.774">
        <ele>409.8</ele>
        <time>2019-04-26T10:21:34Z</time>
      </trkpt>
      <trkpt lat="45.43868" lon="5.77405">
        <ele>409.9</ele>
        <time>2019-04-26T10:21:35Z</time>
      </trkpt>
      <trkpt lat="45.43867" lon="5.7741">
        <ele>410</ele>
        <time>2019-04-26T10:21:36Z</time>
      </trkpt>
      <trkpt lat="45.43866" lon="5.77414">
        <ele>410.1</ele>
        <time>2019-04-26T10:21:37Z</time>
      </trkpt>
      <trkpt lat="45.43864" lon="5.77418">
        <ele>410.2</ele>
        <time>2019-04-26T10:21:38Z</time>
      </trkpt>
      <trkpt lat="45.43863" lon="5.77422">
        <ele>410.3</ele>
        <time>2019-04-26T10:21:39Z</time>
      </trkpt>
      <trkpt lat="45.43862" lon="5.77426">
        <ele>410.3</ele>
        <time>2019-04-26T10:21:40Z</time>
      </trkpt>
      <trkpt lat="45.43859" lon="5.77428">
        <ele>410.4</ele>
        <time>2019-04-26T10:21:41Z</time>
      </trkpt>
      <trkpt lat="45.43856" lon="5.77426">
        <ele>410.4</ele>
        <time>2019-04-26T10:21:42Z</time>
      </trkpt>
      <trkpt lat="45.43854" lon="5.77423">
        <ele>410.6</ele>
        <time>2019-04-26T10:21:44Z</time>
      </trkpt>
      <trkpt lat="45.43851" lon="5.77421">
        <ele>410.6</ele>
        <time>2019-04-26T10:21:46Z</time>
      </trkpt>
      <trkpt lat="45.43848" lon="5.77419">
        <ele>410.6</ele>
        <time>2019-04-26T10:21:48Z</time>
      </trkpt>
      <trkpt lat="45.43844" lon="5.77418">
        <ele>410.7</ele>
        <time>2019-04-26T10:21:50Z</time>
      </trkpt>
      <trkpt lat="45.43839" lon="5.77418">
        <ele>410.7</ele>
        <time>2019-04-26T10:21:52Z</time>
      </trkpt>
      <trkpt lat="45.43837" lon="5.77418">
        <ele>410.7</ele>
        <time>2019-04-26T10:21:53Z</time>
      </trkpt>
      <trkpt lat="45.43833" lon="5.77417">
        <ele>410.7</ele>
        <time>2019-04-26T10:21:54Z</time>
      </trkpt>
      <trkpt lat="45.4383" lon="5.77417">
        <ele>410.7</ele>
        <time>2019-04-26T10:21:55Z</time>
      </trkpt>
      <trkpt lat="45.43827" lon="5.77416">
        <ele>410.7</ele>
        <time>2019-04-26T10:21:56Z</time>
      </trkpt>
      <trkpt lat="45.43823" lon="5.77415">
        <ele>410.8</ele>
        <time>2019-04-26T10:21:57Z</time>
      </trkpt>
      <trkpt lat="45.43817" lon="5.77413">
        <ele>410.8</ele>
        <time>2019-04-26T10:21:59Z</time>
      </trkpt>
      <trkpt lat="45.43814" lon="5.77412">
        <ele>410.8</ele>
        <time>2019-04-26T10:22:01Z</time>
      </trkpt>
      <trkpt lat="45.43812" lon="5.77409">
        <ele>410.8</ele>
        <time>2019-04-26T10:22:06Z</time>
      </trkpt>
      <trkpt lat="45.43812" lon="5.77405">
        <ele>410.8</ele>
        <time>2019-04-26T10:22:20Z</time>
      </trkpt>
      <trkpt lat="45.43812" lon="5.774">
        <ele>410.9</ele>
        <time>2019-04-26T10:22:25Z</time>
      </trkpt>
      <trkpt lat="45.43813" lon="5.77397">
        <ele>410.9</ele>
        <time>2019-04-26T10:22:27Z</time>
      </trkpt>
      <trkpt lat="45.43815" lon="5.77393">
        <ele>410.9</ele>
        <time>2019-04-26T10:22:31Z</time>
      </trkpt>
      <trkpt lat="45.43814" lon="5.77387">
        <ele>410.9</ele>
        <time>2019-04-26T10:22:36Z</time>
      </trkpt>
      <trkpt lat="45.43814" lon="5.77383">
        <ele>411</ele>
        <time>2019-04-26T10:22:39Z</time>
      </trkpt>
      <trkpt lat="45.43814" lon="5.77388">
        <ele>411</ele>
        <time>2019-04-26T10:22:42Z</time>
      </trkpt>
      <trkpt lat="45.43813" lon="5.77393">
        <ele>411</ele>
        <time>2019-04-26T10:22:44Z</time>
      </trkpt>
      <trkpt lat="45.43812" lon="5.77396">
        <ele>411</ele>
        <time>2019-04-26T10:22:51Z</time>
      </trkpt>
      <trkpt lat="45.43811" lon="5.77401">
        <ele>411</ele>
        <time>2019-04-26T10:23:11Z</time>
      </trkpt>
      <trkpt lat="45.43808" lon="5.77404">
        <ele>411</ele>
        <time>2019-04-26T10:23:26Z</time>
      </trkpt>
      <trkpt lat="45.43811" lon="5.77402">
        <ele>411</ele>
        <time>2019-04-26T10:23:32Z</time>
      </trkpt>
      <trkpt lat="45.43812" lon="5.77396">
        <ele>411</ele>
        <time>2019-04-26T10:23:40Z</time>
      </trkpt>
      <trkpt lat="45.43812" lon="5.77392">
        <ele>411</ele>
        <time>2019-04-26T10:23:43Z</time>
      </trkpt>
    </trkseg>
  </trk>
</gpx>